<?xml version="1.0" encoding="UTF-8" standalone="no" ?>
<gpx xmlns="http://www.topografix.com/GPX/1/1" xmlns:xsi="http://www.w3.org/2001/XMLSchema-instance" xsi:schemaLocation="http://www.topografix.com/GPX/1/1 http://www.topografix.com/GPX/1/1/gpx.xsd" version="1.1" creator="VisuGPX - https://www.visugpx.com">
  <metadata>
    <name>CoteSud Août 2022</name>
  </metadata>
  <trk>
    <name><![CDATA[CoteSud Août 2022]]></name>
    <trkseg>
      <trkpt lat="42.4419" lon="3.16338">
        <ele>14.897842</ele>
        <time>2022-08-30T08:30:12.833Z</time>
      </trkpt>
      <trkpt lat="42.44208" lon="3.16372">
        <ele>14.897842</ele>
        <time>2022-08-30T08:30:17.752Z</time>
      </trkpt>
      <trkpt lat="42.44225" lon="3.16428">
        <ele>14.897842</ele>
        <time>2022-08-30T08:30:24.676Z</time>
      </trkpt>
      <trkpt lat="42.44232" lon="3.16445">
        <ele>14.897842</ele>
        <time>2022-08-30T08:30:26.793Z</time>
      </trkpt>
      <trkpt lat="42.44244" lon="3.16449">
        <ele>14.813925</ele>
        <time>2022-08-30T08:30:28.612Z</time>
      </trkpt>
      <trkpt lat="42.44259" lon="3.16464">
        <ele>14.680791</ele>
        <time>2022-08-30T08:30:31.494Z</time>
      </trkpt>
      <trkpt lat="42.44267" lon="3.16494">
        <ele>14.518137</ele>
        <time>2022-08-30T08:30:35.148Z</time>
      </trkpt>
      <trkpt lat="42.44239" lon="3.16561">
        <ele>14.122184</ele>
        <time>2022-08-30T08:31:14.481Z</time>
      </trkpt>
      <trkpt lat="42.44242" lon="3.16569">
        <ele>14.077038</ele>
        <time>2022-08-30T08:31:22.444Z</time>
      </trkpt>
      <trkpt lat="42.44234" lon="3.16565">
        <ele>14.015964</ele>
        <time>2022-08-30T08:31:28.505Z</time>
      </trkpt>
      <trkpt lat="42.44232" lon="3.16575">
        <ele>13.963806</ele>
        <time>2022-08-30T08:31:30.369Z</time>
      </trkpt>
      <trkpt lat="42.44225" lon="3.1657">
        <ele>13.91271</ele>
        <time>2022-08-30T08:31:32.583Z</time>
      </trkpt>
      <trkpt lat="42.44224" lon="3.16574">
        <ele>13.888298</ele>
        <time>2022-08-30T08:31:33.461Z</time>
      </trkpt>
      <trkpt lat="42.44214" lon="3.16568">
        <ele>13.815133</ele>
        <time>2022-08-30T08:31:36.298Z</time>
      </trkpt>
      <trkpt lat="42.44199" lon="3.16556">
        <ele>13.692073</ele>
        <time>2022-08-30T08:31:41.357Z</time>
      </trkpt>
      <trkpt lat="42.44179" lon="3.16543">
        <ele>14.386562</ele>
        <time>2022-08-30T08:31:48.956Z</time>
      </trkpt>
      <trkpt lat="42.44143" lon="3.16532">
        <ele>16.307572</ele>
        <time>2022-08-30T08:32:05.433Z</time>
      </trkpt>
      <trkpt lat="42.44138" lon="3.16512">
        <ele>17.130925</ele>
        <time>2022-08-30T08:32:14.194Z</time>
      </trkpt>
      <trkpt lat="42.44139" lon="3.16491">
        <ele>17.92612</ele>
        <time>2022-08-30T08:32:22.244Z</time>
      </trkpt>
      <trkpt lat="42.44143" lon="3.16466">
        <ele>18.930431</ele>
        <time>2022-08-30T08:32:32.724Z</time>
      </trkpt>
      <trkpt lat="42.4412" lon="3.16445">
        <ele>20.350739</ele>
        <time>2022-08-30T08:32:46.714Z</time>
      </trkpt>
      <trkpt lat="42.44095" lon="3.1642">
        <ele>21.987768</ele>
        <time>2022-08-30T08:33:02.874Z</time>
      </trkpt>
      <trkpt lat="42.44094" lon="3.16419">
        <ele>22.039614</ele>
        <time>2022-08-30T08:33:03.369Z</time>
      </trkpt>
      <trkpt lat="42.44072" lon="3.16396">
        <ele>23.231399</ele>
        <time>2022-08-30T08:33:16.775Z</time>
      </trkpt>
      <trkpt lat="42.44065" lon="3.16385">
        <ele>23.469174</ele>
        <time>2022-08-30T08:33:21.331Z</time>
      </trkpt>
      <trkpt lat="42.44056" lon="3.16368">
        <ele>23.820384</ele>
        <time>2022-08-30T08:33:28.426Z</time>
      </trkpt>
      <trkpt lat="42.44048" lon="3.1634">
        <ele>24.32309</ele>
        <time>2022-08-30T08:33:37.229Z</time>
      </trkpt>
      <trkpt lat="42.4405" lon="3.16291">
        <ele>25.128477</ele>
        <time>2022-08-30T08:33:50.150Z</time>
      </trkpt>
      <trkpt lat="42.44056" lon="3.16279">
        <ele>25.368777</ele>
        <time>2022-08-30T08:33:53.640Z</time>
      </trkpt>
      <trkpt lat="42.44107" lon="3.16199">
        <ele>27.071415</ele>
        <time>2022-08-30T08:34:10.314Z</time>
      </trkpt>
      <trkpt lat="42.44118" lon="3.16159">
        <ele>27.157913</ele>
        <time>2022-08-30T08:34:15.204Z</time>
      </trkpt>
      <trkpt lat="42.44118" lon="3.16133">
        <ele>27.210795</ele>
        <time>2022-08-30T08:34:18.408Z</time>
      </trkpt>
      <trkpt lat="42.44084" lon="3.16039">
        <ele>27.426937</ele>
        <time>2022-08-30T08:34:34.131Z</time>
      </trkpt>
      <trkpt lat="42.4408" lon="3.16029">
        <ele>27.449966</ele>
        <time>2022-08-30T08:34:36.597Z</time>
      </trkpt>
      <trkpt lat="42.44109" lon="3.15952">
        <ele>28.276409</ele>
        <time>2022-08-30T08:34:55.181Z</time>
      </trkpt>
      <trkpt lat="42.44126" lon="3.15918">
        <ele>29.246212</ele>
        <time>2022-08-30T08:35:06.083Z</time>
      </trkpt>
      <trkpt lat="42.44172" lon="3.15757">
        <ele>33.311042</ele>
        <time>2022-08-30T08:35:55.099Z</time>
      </trkpt>
      <trkpt lat="42.44178" lon="3.15724">
        <ele>33.95472</ele>
        <time>2022-08-30T08:36:05.925Z</time>
      </trkpt>
      <trkpt lat="42.44172" lon="3.15564">
        <ele>36.989415</ele>
        <time>2022-08-30T08:36:47.568Z</time>
      </trkpt>
      <trkpt lat="42.44178" lon="3.15516">
        <ele>37.89561</ele>
        <time>2022-08-30T08:36:56.449Z</time>
      </trkpt>
      <trkpt lat="42.44192" lon="3.15481">
        <ele>37.965579</ele>
        <time>2022-08-30T08:37:02.048Z</time>
      </trkpt>
      <trkpt lat="42.44181" lon="3.1547">
        <ele>37.996596</ele>
        <time>2022-08-30T08:37:05.708Z</time>
      </trkpt>
      <trkpt lat="42.44268" lon="3.15398">
        <ele>38.232396</ele>
        <time>2022-08-30T08:37:24.301Z</time>
      </trkpt>
      <trkpt lat="42.44284" lon="3.15368">
        <ele>38.29504</ele>
        <time>2022-08-30T08:37:36.456Z</time>
      </trkpt>
      <trkpt lat="42.44293" lon="3.15329">
        <ele>38.696855</ele>
        <time>2022-08-30T08:37:42.461Z</time>
      </trkpt>
      <trkpt lat="42.44294" lon="3.15292">
        <ele>39.176188</ele>
        <time>2022-08-30T08:37:47.012Z</time>
      </trkpt>
      <trkpt lat="42.44285" lon="3.15253">
        <ele>39.709181</ele>
        <time>2022-08-30T08:37:52.879Z</time>
      </trkpt>
      <trkpt lat="42.44272" lon="3.15219">
        <ele>40.211879</ele>
        <time>2022-08-30T08:38:02.426Z</time>
      </trkpt>
      <trkpt lat="42.44251" lon="3.15191">
        <ele>40.720143</ele>
        <time>2022-08-30T08:38:15.675Z</time>
      </trkpt>
      <trkpt lat="42.44262" lon="3.15179">
        <ele>40.968574</ele>
        <time>2022-08-30T08:38:17.655Z</time>
      </trkpt>
      <trkpt lat="42.44297" lon="3.1522">
        <ele>42.215425</ele>
        <time>2022-08-30T08:38:37.869Z</time>
      </trkpt>
      <trkpt lat="42.44312" lon="3.15227">
        <ele>42.875885</ele>
        <time>2022-08-30T08:38:45.425Z</time>
      </trkpt>
      <trkpt lat="42.44352" lon="3.15192">
        <ele>44.85177</ele>
        <time>2022-08-30T08:39:04.020Z</time>
      </trkpt>
      <trkpt lat="42.44377" lon="3.15147">
        <ele>46.619675</ele>
        <time>2022-08-30T08:39:20.540Z</time>
      </trkpt>
      <trkpt lat="42.44402" lon="3.15084">
        <ele>48.817531</ele>
        <time>2022-08-30T08:39:44.023Z</time>
      </trkpt>
      <trkpt lat="42.44427" lon="3.15011">
        <ele>51.717555</ele>
        <time>2022-08-30T08:40:10.872Z</time>
      </trkpt>
      <trkpt lat="42.44438" lon="3.14956">
        <ele>53.788309</ele>
        <time>2022-08-30T08:40:29.216Z</time>
      </trkpt>
      <trkpt lat="42.44473" lon="3.14926">
        <ele>55.845245</ele>
        <time>2022-08-30T08:40:49.928Z</time>
      </trkpt>
      <trkpt lat="42.44488" lon="3.14923">
        <ele>56.592573</ele>
        <time>2022-08-30T08:40:57.551Z</time>
      </trkpt>
      <trkpt lat="42.44526" lon="3.14881">
        <ele>59.003907</ele>
        <time>2022-08-30T08:41:18.216Z</time>
      </trkpt>
      <trkpt lat="42.44557" lon="3.14831">
        <ele>61.411724</ele>
        <time>2022-08-30T08:41:35.727Z</time>
      </trkpt>
      <trkpt lat="42.44569" lon="3.14828">
        <ele>61.988764</ele>
        <time>2022-08-30T08:41:41.706Z</time>
      </trkpt>
      <trkpt lat="42.44566" lon="3.14819">
        <ele>62.338775</ele>
        <time>2022-08-30T08:41:45.130Z</time>
      </trkpt>
      <trkpt lat="42.44544" lon="3.1481">
        <ele>63.473072</ele>
        <time>2022-08-30T08:41:53.969Z</time>
      </trkpt>
      <trkpt lat="42.44534" lon="3.14798">
        <ele>64.128399</ele>
        <time>2022-08-30T08:42:00.916Z</time>
      </trkpt>
      <trkpt lat="42.44498" lon="3.14739">
        <ele>67.070611</ele>
        <time>2022-08-30T08:42:29.994Z</time>
      </trkpt>
      <trkpt lat="42.44503" lon="3.14716">
        <ele>68.653208</ele>
        <time>2022-08-30T08:42:42.423Z</time>
      </trkpt>
      <trkpt lat="42.44522" lon="3.14684">
        <ele>71.431614</ele>
        <time>2022-08-30T08:43:04.481Z</time>
      </trkpt>
      <trkpt lat="42.44534" lon="3.14672">
        <ele>72.824679</ele>
        <time>2022-08-30T08:43:14.735Z</time>
      </trkpt>
      <trkpt lat="42.44572" lon="3.14659">
        <ele>76.394786</ele>
        <time>2022-08-30T08:43:41.854Z</time>
      </trkpt>
      <trkpt lat="42.44685" lon="3.14653">
        <ele>85.930095</ele>
        <time>2022-08-30T08:45:11.296Z</time>
      </trkpt>
      <trkpt lat="42.44743" lon="3.1464">
        <ele>89.946176</ele>
        <time>2022-08-30T08:45:56.023Z</time>
      </trkpt>
      <trkpt lat="42.44774" lon="3.14622">
        <ele>92.250149</ele>
        <time>2022-08-30T08:46:15.617Z</time>
      </trkpt>
      <trkpt lat="42.44791" lon="3.14577">
        <ele>94.810488</ele>
        <time>2022-08-30T08:46:31.372Z</time>
      </trkpt>
      <trkpt lat="42.44787" lon="3.14567">
        <ele>95.381729</ele>
        <time>2022-08-30T08:46:33.617Z</time>
      </trkpt>
      <trkpt lat="42.44775" lon="3.1457">
        <ele>95.453207</ele>
        <time>2022-08-30T08:46:37.788Z</time>
      </trkpt>
      <trkpt lat="42.44747" lon="3.14607">
        <ele>94.352977</ele>
        <time>2022-08-30T08:46:48.854Z</time>
      </trkpt>
      <trkpt lat="42.44608" lon="3.14558">
        <ele>90.578116</ele>
        <time>2022-08-30T08:47:24.290Z</time>
      </trkpt>
      <trkpt lat="42.44548" lon="3.1452">
        <ele>89.970636</ele>
        <time>2022-08-30T08:47:41.122Z</time>
      </trkpt>
      <trkpt lat="42.44486" lon="3.14517">
        <ele>89.39568</ele>
        <time>2022-08-30T08:48:00.397Z</time>
      </trkpt>
      <trkpt lat="42.44458" lon="3.14506">
        <ele>89.128345</ele>
        <time>2022-08-30T08:48:12.454Z</time>
      </trkpt>
      <trkpt lat="42.44441" lon="3.14481">
        <ele>89.444751</ele>
        <time>2022-08-30T08:48:25.398Z</time>
      </trkpt>
      <trkpt lat="42.44431" lon="3.14443">
        <ele>90.349517</ele>
        <time>2022-08-30T08:48:40.109Z</time>
      </trkpt>
      <trkpt lat="42.44424" lon="3.14352">
        <ele>92.436149</ele>
        <time>2022-08-30T08:49:13.344Z</time>
      </trkpt>
      <trkpt lat="42.44425" lon="3.14312">
        <ele>93.340908</ele>
        <time>2022-08-30T08:49:27.532Z</time>
      </trkpt>
      <trkpt lat="42.44418" lon="3.14296">
        <ele>93.764106</ele>
        <time>2022-08-30T08:49:34.086Z</time>
      </trkpt>
      <trkpt lat="42.44411" lon="3.14297">
        <ele>93.975115</ele>
        <time>2022-08-30T08:49:37.655Z</time>
      </trkpt>
      <trkpt lat="42.44394" lon="3.14317">
        <ele>94.655564</ele>
        <time>2022-08-30T08:49:48.666Z</time>
      </trkpt>
      <trkpt lat="42.44337" lon="3.14411">
        <ele>96.744178</ele>
        <time>2022-08-30T08:50:27.173Z</time>
      </trkpt>
      <trkpt lat="42.44323" lon="3.14422">
        <ele>97.13477</ele>
        <time>2022-08-30T08:50:34.114Z</time>
      </trkpt>
      <trkpt lat="42.44316" lon="3.14419">
        <ele>97.316929</ele>
        <time>2022-08-30T08:50:37.229Z</time>
      </trkpt>
      <trkpt lat="42.44307" lon="3.14334">
        <ele>98.828481</ele>
        <time>2022-08-30T08:51:03.561Z</time>
      </trkpt>
      <trkpt lat="42.44311" lon="3.14279">
        <ele>100.428839</ele>
        <time>2022-08-30T08:51:21.467Z</time>
      </trkpt>
      <trkpt lat="42.44296" lon="3.14238">
        <ele>101.769889</ele>
        <time>2022-08-30T08:51:38.152Z</time>
      </trkpt>
      <trkpt lat="42.44296" lon="3.14212">
        <ele>102.520115</ele>
        <time>2022-08-30T08:51:48.806Z</time>
      </trkpt>
      <trkpt lat="42.44318" lon="3.14139">
        <ele>104.797097</ele>
        <time>2022-08-30T08:52:20.893Z</time>
      </trkpt>
      <trkpt lat="42.44324" lon="3.14052">
        <ele>108.23334</ele>
        <time>2022-08-30T08:52:56.640Z</time>
      </trkpt>
      <trkpt lat="42.44332" lon="3.14035">
        <ele>109.166998</ele>
        <time>2022-08-30T08:53:05.655Z</time>
      </trkpt>
      <trkpt lat="42.4437" lon="3.13994">
        <ele>112.227748</ele>
        <time>2022-08-30T08:53:37.683Z</time>
      </trkpt>
      <trkpt lat="42.44385" lon="3.13954">
        <ele>114.2887</ele>
        <time>2022-08-30T08:53:59.474Z</time>
      </trkpt>
      <trkpt lat="42.44388" lon="3.13906">
        <ele>116.515845</ele>
        <time>2022-08-30T08:54:23.086Z</time>
      </trkpt>
      <trkpt lat="42.44384" lon="3.13871">
        <ele>118.26275</ele>
        <time>2022-08-30T08:54:40.852Z</time>
      </trkpt>
      <trkpt lat="42.44396" lon="3.13822">
        <ele>120.843518</ele>
        <time>2022-08-30T08:55:06.706Z</time>
      </trkpt>
      <trkpt lat="42.44407" lon="3.13665">
        <ele>128.800774</ele>
        <time>2022-08-30T08:56:22.479Z</time>
      </trkpt>
      <trkpt lat="42.44405" lon="3.13657">
        <ele>129.244416</ele>
        <time>2022-08-30T08:56:28.209Z</time>
      </trkpt>
      <trkpt lat="42.44393" lon="3.13659">
        <ele>129.916693</ele>
        <time>2022-08-30T08:56:37.212Z</time>
      </trkpt>
      <trkpt lat="42.44356" lon="3.13725">
        <ele>133.236502</ele>
        <time>2022-08-30T08:57:12.872Z</time>
      </trkpt>
      <trkpt lat="42.44328" lon="3.13746">
        <ele>134.939725</ele>
        <time>2022-08-30T08:57:29.318Z</time>
      </trkpt>
      <trkpt lat="42.44283" lon="3.13742">
        <ele>137.397145</ele>
        <time>2022-08-30T08:57:56.036Z</time>
      </trkpt>
      <trkpt lat="42.44228" lon="3.13699">
        <ele>140.787118</ele>
        <time>2022-08-30T08:58:31.018Z</time>
      </trkpt>
      <trkpt lat="42.44165" lon="3.13691">
        <ele>144.049375</ele>
        <time>2022-08-30T08:59:12.513Z</time>
      </trkpt>
      <trkpt lat="42.44157" lon="3.13684">
        <ele>144.510963</ele>
        <time>2022-08-30T08:59:17.762Z</time>
      </trkpt>
      <trkpt lat="42.44165" lon="3.13677">
        <ele>144.977089</ele>
        <time>2022-08-30T08:59:23.727Z</time>
      </trkpt>
      <trkpt lat="42.44179" lon="3.13682">
        <ele>145.752418</ele>
        <time>2022-08-30T08:59:30.734Z</time>
      </trkpt>
      <trkpt lat="42.44245" lon="3.13664">
        <ele>149.085433</ele>
        <time>2022-08-30T09:00:05.576Z</time>
      </trkpt>
      <trkpt lat="42.44294" lon="3.13665">
        <ele>151.128258</ele>
        <time>2022-08-30T09:00:32.132Z</time>
      </trkpt>
      <trkpt lat="42.44319" lon="3.13645">
        <ele>152.362474</ele>
        <time>2022-08-30T09:00:47.489Z</time>
      </trkpt>
      <trkpt lat="42.44353" lon="3.1358">
        <ele>154.82613</ele>
        <time>2022-08-30T09:01:15.944Z</time>
      </trkpt>
      <trkpt lat="42.44351" lon="3.13571">
        <ele>155.132538</ele>
        <time>2022-08-30T09:01:20.714Z</time>
      </trkpt>
      <trkpt lat="42.44344" lon="3.13571">
        <ele>155.406175</ele>
        <time>2022-08-30T09:01:24.701Z</time>
      </trkpt>
      <trkpt lat="42.44339" lon="3.13585">
        <ele>155.881753</ele>
        <time>2022-08-30T09:01:30.818Z</time>
      </trkpt>
      <trkpt lat="42.44317" lon="3.13611">
        <ele>157.405216</ele>
        <time>2022-08-30T09:01:47.211Z</time>
      </trkpt>
      <trkpt lat="42.44293" lon="3.13619">
        <ele>158.681631</ele>
        <time>2022-08-30T09:02:01.173Z</time>
      </trkpt>
      <trkpt lat="42.44267" lon="3.13602">
        <ele>160.205736</ele>
        <time>2022-08-30T09:02:17.729Z</time>
      </trkpt>
      <trkpt lat="42.44212" lon="3.13554">
        <ele>163.62499</ele>
        <time>2022-08-30T09:02:55.793Z</time>
      </trkpt>
      <trkpt lat="42.44179" lon="3.13539">
        <ele>165.494608</ele>
        <time>2022-08-30T09:03:14.785Z</time>
      </trkpt>
      <trkpt lat="42.44173" lon="3.13522">
        <ele>166.303596</ele>
        <time>2022-08-30T09:03:25.423Z</time>
      </trkpt>
      <trkpt lat="42.44181" lon="3.13515">
        <ele>166.877826</ele>
        <time>2022-08-30T09:03:31.413Z</time>
      </trkpt>
      <trkpt lat="42.44284" lon="3.13527">
        <ele>173.089184</ele>
        <time>2022-08-30T09:04:39.579Z</time>
      </trkpt>
      <trkpt lat="42.44304" lon="3.13512">
        <ele>174.505399</ele>
        <time>2022-08-30T09:04:50.806Z</time>
      </trkpt>
      <trkpt lat="42.44307" lon="3.13505">
        <ele>174.837196</ele>
        <time>2022-08-30T09:04:55.844Z</time>
      </trkpt>
      <trkpt lat="42.44338" lon="3.13437">
        <ele>179.629987</ele>
        <time>2022-08-30T09:05:25.880Z</time>
      </trkpt>
      <trkpt lat="42.44335" lon="3.13432">
        <ele>180.090214</ele>
        <time>2022-08-30T09:05:28.874Z</time>
      </trkpt>
      <trkpt lat="42.44328" lon="3.13434">
        <ele>180.807695</ele>
        <time>2022-08-30T09:05:34.956Z</time>
      </trkpt>
      <trkpt lat="42.44305" lon="3.13457">
        <ele>183.556036</ele>
        <time>2022-08-30T09:05:54.597Z</time>
      </trkpt>
      <trkpt lat="42.44286" lon="3.13466">
        <ele>185.560859</ele>
        <time>2022-08-30T09:06:11.923Z</time>
      </trkpt>
      <trkpt lat="42.44233" lon="3.1345">
        <ele>190.773302</ele>
        <time>2022-08-30T09:07:05.571Z</time>
      </trkpt>
      <trkpt lat="42.44204" lon="3.1342">
        <ele>194.429111</ele>
        <time>2022-08-30T09:07:38.808Z</time>
      </trkpt>
      <trkpt lat="42.44147" lon="3.1333">
        <ele>204.925952</ele>
        <time>2022-08-30T09:09:02.724Z</time>
      </trkpt>
      <trkpt lat="42.44119" lon="3.13303">
        <ele>208.944353</ele>
        <time>2022-08-30T09:09:35.183Z</time>
      </trkpt>
      <trkpt lat="42.44053" lon="3.13255">
        <ele>217.489247</ele>
        <time>2022-08-30T09:10:38.811Z</time>
      </trkpt>
      <trkpt lat="42.44044" lon="3.13264">
        <ele>218.63926</ele>
        <time>2022-08-30T09:10:47.987Z</time>
      </trkpt>
      <trkpt lat="42.44032" lon="3.13347">
        <ele>225.099342</ele>
        <time>2022-08-30T09:11:34.280Z</time>
      </trkpt>
      <trkpt lat="42.44021" lon="3.13362">
        <ele>226.698434</ele>
        <time>2022-08-30T09:11:46.997Z</time>
      </trkpt>
      <trkpt lat="42.44008" lon="3.13357">
        <ele>228.02647</ele>
        <time>2022-08-30T09:11:57.696Z</time>
      </trkpt>
      <trkpt lat="42.43994" lon="3.13335">
        <ele>230.240103</ele>
        <time>2022-08-30T09:12:17.232Z</time>
      </trkpt>
      <trkpt lat="42.43946" lon="3.13256">
        <ele>238.096159</ele>
        <time>2022-08-30T09:13:25.393Z</time>
      </trkpt>
      <trkpt lat="42.43875" lon="3.13215">
        <ele>246.311077</ele>
        <time>2022-08-30T09:14:36.362Z</time>
      </trkpt>
      <trkpt lat="42.4384" lon="3.13187">
        <ele>250.648134</ele>
        <time>2022-08-30T09:15:11.365Z</time>
      </trkpt>
      <trkpt lat="42.43809" lon="3.13144">
        <ele>253.728896</ele>
        <time>2022-08-30T09:15:41.933Z</time>
      </trkpt>
      <trkpt lat="42.43799" lon="3.13145">
        <ele>254.097959</ele>
        <time>2022-08-30T09:15:47.712Z</time>
      </trkpt>
      <trkpt lat="42.43796" lon="3.13154">
        <ele>254.392297</ele>
        <time>2022-08-30T09:15:52.163Z</time>
      </trkpt>
      <trkpt lat="42.43795" lon="3.13194">
        <ele>255.507858</ele>
        <time>2022-08-30T09:16:07.854Z</time>
      </trkpt>
      <trkpt lat="42.43828" lon="3.1328">
        <ele>258.211648</ele>
        <time>2022-08-30T09:16:37.671Z</time>
      </trkpt>
      <trkpt lat="42.43831" lon="3.13318">
        <ele>259.2669</ele>
        <time>2022-08-30T09:16:48.499Z</time>
      </trkpt>
      <trkpt lat="42.4379" lon="3.13397">
        <ele>261.09692</ele>
        <time>2022-08-30T09:17:16.877Z</time>
      </trkpt>
      <trkpt lat="42.43752" lon="3.13456">
        <ele>262.454282</ele>
        <time>2022-08-30T09:17:44.199Z</time>
      </trkpt>
      <trkpt lat="42.43704" lon="3.13507">
        <ele>263.892066</ele>
        <time>2022-08-30T09:18:14.262Z</time>
      </trkpt>
      <trkpt lat="42.43697" lon="3.13536">
        <ele>263.348842</ele>
        <time>2022-08-30T09:18:23.837Z</time>
      </trkpt>
      <trkpt lat="42.43697" lon="3.13555">
        <ele>263.008031</ele>
        <time>2022-08-30T09:18:29.336Z</time>
      </trkpt>
      <trkpt lat="42.43724" lon="3.13658">
        <ele>261.044525</ele>
        <time>2022-08-30T09:18:51.888Z</time>
      </trkpt>
      <trkpt lat="42.43724" lon="3.13746">
        <ele>259.414503</ele>
        <time>2022-08-30T09:19:07.249Z</time>
      </trkpt>
      <trkpt lat="42.43727" lon="3.13765">
        <ele>258.880892</ele>
        <time>2022-08-30T09:19:10.260Z</time>
      </trkpt>
      <trkpt lat="42.43768" lon="3.13846">
        <ele>256.153792</ele>
        <time>2022-08-30T09:19:26.461Z</time>
      </trkpt>
      <trkpt lat="42.43803" lon="3.13875">
        <ele>254.63357</ele>
        <time>2022-08-30T09:19:36.939Z</time>
      </trkpt>
      <trkpt lat="42.43825" lon="3.13902">
        <ele>253.507733</ele>
        <time>2022-08-30T09:19:46.038Z</time>
      </trkpt>
      <trkpt lat="42.4383" lon="3.13949">
        <ele>254.127751</ele>
        <time>2022-08-30T09:20:00.589Z</time>
      </trkpt>
      <trkpt lat="42.43822" lon="3.13958">
        <ele>255.156199</ele>
        <time>2022-08-30T09:20:05.737Z</time>
      </trkpt>
      <trkpt lat="42.43804" lon="3.13953">
        <ele>256.971229</ele>
        <time>2022-08-30T09:20:12.217Z</time>
      </trkpt>
      <trkpt lat="42.43808" lon="3.13946">
        <ele>257.636</ele>
        <time>2022-08-30T09:20:22.410Z</time>
      </trkpt>
      <trkpt lat="42.43799" lon="3.13918">
        <ele>259.75436</ele>
        <time>2022-08-30T09:20:34.420Z</time>
      </trkpt>
      <trkpt lat="42.43748" lon="3.13867">
        <ele>265.788979</ele>
        <time>2022-08-30T09:21:32.053Z</time>
      </trkpt>
      <trkpt lat="42.43683" lon="3.13774">
        <ele>275.810975</ele>
        <time>2022-08-30T09:23:20.954Z</time>
      </trkpt>
      <trkpt lat="42.43655" lon="3.13672">
        <ele>284.842038</ele>
        <time>2022-08-30T09:24:27.064Z</time>
      </trkpt>
      <trkpt lat="42.43604" lon="3.13544">
        <ele>295.877546</ele>
        <time>2022-08-30T09:25:44.000Z</time>
      </trkpt>
      <trkpt lat="42.43599" lon="3.13513">
        <ele>298.105805</ele>
        <time>2022-08-30T09:26:02.196Z</time>
      </trkpt>
      <trkpt lat="42.43601" lon="3.1349">
        <ele>299.702377</ele>
        <time>2022-08-30T09:26:15.790Z</time>
      </trkpt>
      <trkpt lat="42.43629" lon="3.13403">
        <ele>306.234883</ele>
        <time>2022-08-30T09:27:11.234Z</time>
      </trkpt>
      <trkpt lat="42.43661" lon="3.13314">
        <ele>314.993978</ele>
        <time>2022-08-30T09:28:18.010Z</time>
      </trkpt>
      <trkpt lat="42.43667" lon="3.13274">
        <ele>318.720954</ele>
        <time>2022-08-30T09:28:48.010Z</time>
      </trkpt>
      <trkpt lat="42.43663" lon="3.13253">
        <ele>320.697575</ele>
        <time>2022-08-30T09:29:03.543Z</time>
      </trkpt>
      <trkpt lat="42.43646" lon="3.13207">
        <ele>325.427848</ele>
        <time>2022-08-30T09:29:42.235Z</time>
      </trkpt>
      <trkpt lat="42.43628" lon="3.13116">
        <ele>333.272908</ele>
        <time>2022-08-30T09:30:47.897Z</time>
      </trkpt>
      <trkpt lat="42.436" lon="3.13044">
        <ele>339.384121</ele>
        <time>2022-08-30T09:31:40.477Z</time>
      </trkpt>
      <trkpt lat="42.4358" lon="3.12967">
        <ele>345.481887</ele>
        <time>2022-08-30T09:32:27.379Z</time>
      </trkpt>
      <trkpt lat="42.43592" lon="3.12843">
        <ele>350.926345</ele>
        <time>2022-08-30T09:33:28.709Z</time>
      </trkpt>
      <trkpt lat="42.43598" lon="3.12823">
        <ele>351.638927</ele>
        <time>2022-08-30T09:33:37.127Z</time>
      </trkpt>
      <trkpt lat="42.43626" lon="3.12765">
        <ele>353.912895</ele>
        <time>2022-08-30T09:34:00.859Z</time>
      </trkpt>
      <trkpt lat="42.43636" lon="3.12765">
        <ele>354.342334</ele>
        <time>2022-08-30T09:34:05.242Z</time>
      </trkpt>
      <trkpt lat="42.43641" lon="3.12771">
        <ele>354.637519</ele>
        <time>2022-08-30T09:34:08.012Z</time>
      </trkpt>
      <trkpt lat="42.4365" lon="3.12799">
        <ele>355.665724</ele>
        <time>2022-08-30T09:34:17.263Z</time>
      </trkpt>
      <trkpt lat="42.43666" lon="3.12824">
        <ele>356.189552</ele>
        <time>2022-08-30T09:34:26.750Z</time>
      </trkpt>
      <trkpt lat="42.43682" lon="3.1283">
        <ele>356.47281</ele>
        <time>2022-08-30T09:34:33.390Z</time>
      </trkpt>
      <trkpt lat="42.43713" lon="3.12776">
        <ele>357.338386</ele>
        <time>2022-08-30T09:34:53.831Z</time>
      </trkpt>
      <trkpt lat="42.43745" lon="3.12741">
        <ele>358.036892</ele>
        <time>2022-08-30T09:35:10.222Z</time>
      </trkpt>
      <trkpt lat="42.43793" lon="3.1272">
        <ele>358.900044</ele>
        <time>2022-08-30T09:35:29.790Z</time>
      </trkpt>
      <trkpt lat="42.43828" lon="3.12723">
        <ele>359.888023</ele>
        <time>2022-08-30T09:35:44.620Z</time>
      </trkpt>
      <trkpt lat="42.43861" lon="3.12709">
        <ele>360.862077</ele>
        <time>2022-08-30T09:35:58.377Z</time>
      </trkpt>
      <trkpt lat="42.43885" lon="3.12708">
        <ele>361.518986</ele>
        <time>2022-08-30T09:36:08.316Z</time>
      </trkpt>
      <trkpt lat="42.4394" lon="3.12723">
        <ele>363.110635</ele>
        <time>2022-08-30T09:36:35.477Z</time>
      </trkpt>
      <trkpt lat="42.43958" lon="3.12738">
        <ele>363.711657</ele>
        <time>2022-08-30T09:36:46.323Z</time>
      </trkpt>
      <trkpt lat="42.43984" lon="3.12778">
        <ele>365.201676</ele>
        <time>2022-08-30T09:37:06.673Z</time>
      </trkpt>
      <trkpt lat="42.43993" lon="3.12779">
        <ele>365.567549</ele>
        <time>2022-08-30T09:37:11.721Z</time>
      </trkpt>
      <trkpt lat="42.44008" lon="3.12761">
        <ele>366.3959</ele>
        <time>2022-08-30T09:37:25.546Z</time>
      </trkpt>
      <trkpt lat="42.4402" lon="3.12708">
        <ele>368.100974</ele>
        <time>2022-08-30T09:37:52.581Z</time>
      </trkpt>
      <trkpt lat="42.44049" lon="3.12634">
        <ele>370.647368</ele>
        <time>2022-08-30T09:38:17.933Z</time>
      </trkpt>
      <trkpt lat="42.44057" lon="3.12596">
        <ele>371.745374</ele>
        <time>2022-08-30T09:38:33.477Z</time>
      </trkpt>
      <trkpt lat="42.44063" lon="3.12591">
        <ele>371.967399</ele>
        <time>2022-08-30T09:38:35.254Z</time>
      </trkpt>
      <trkpt lat="42.44073" lon="3.12592">
        <ele>372.276202</ele>
        <time>2022-08-30T09:38:38.598Z</time>
      </trkpt>
      <trkpt lat="42.44125" lon="3.12619">
        <ele>373.966968</ele>
        <time>2022-08-30T09:39:09.371Z</time>
      </trkpt>
      <trkpt lat="42.44134" lon="3.12631">
        <ele>374.372695</ele>
        <time>2022-08-30T09:39:12.458Z</time>
      </trkpt>
      <trkpt lat="42.44148" lon="3.12648">
        <ele>374.924432</ele>
        <time>2022-08-30T09:39:27.097Z</time>
      </trkpt>
      <trkpt lat="42.44158" lon="3.1265">
        <ele>375.253004</ele>
        <time>2022-08-30T09:39:31.173Z</time>
      </trkpt>
      <trkpt lat="42.44257" lon="3.12572">
        <ele>379.418421</ele>
        <time>2022-08-30T09:40:23.153Z</time>
      </trkpt>
      <trkpt lat="42.44311" lon="3.12514">
        <ele>382.317562</ele>
        <time>2022-08-30T09:41:08.854Z</time>
      </trkpt>
      <trkpt lat="42.44354" lon="3.12429">
        <ele>383.715509</ele>
        <time>2022-08-30T09:41:47.110Z</time>
      </trkpt>
      <trkpt lat="42.44392" lon="3.12401">
        <ele>382.31828</ele>
        <time>2022-08-30T09:41:59.995Z</time>
      </trkpt>
      <trkpt lat="42.44403" lon="3.12384">
        <ele>381.769856</ele>
        <time>2022-08-30T09:42:04.198Z</time>
      </trkpt>
      <trkpt lat="42.44416" lon="3.12384">
        <ele>381.359873</ele>
        <time>2022-08-30T09:42:07.122Z</time>
      </trkpt>
      <trkpt lat="42.44487" lon="3.12466">
        <ele>378.24074</ele>
        <time>2022-08-30T09:42:28.458Z</time>
      </trkpt>
      <trkpt lat="42.44535" lon="3.12494">
        <ele>376.129326</ele>
        <time>2022-08-30T09:42:40.390Z</time>
      </trkpt>
      <trkpt lat="42.44576" lon="3.12501">
        <ele>374.462708</ele>
        <time>2022-08-30T09:42:50.222Z</time>
      </trkpt>
      <trkpt lat="42.44619" lon="3.12535">
        <ele>372.436653</ele>
        <time>2022-08-30T09:43:03.372Z</time>
      </trkpt>
      <trkpt lat="42.4465" lon="3.12541">
        <ele>371.43209</ele>
        <time>2022-08-30T09:43:12.191Z</time>
      </trkpt>
      <trkpt lat="42.44663" lon="3.12568">
        <ele>371.835116</ele>
        <time>2022-08-30T09:43:20.780Z</time>
      </trkpt>
      <trkpt lat="42.44702" lon="3.12623">
        <ele>372.767165</ele>
        <time>2022-08-30T09:43:46.420Z</time>
      </trkpt>
      <trkpt lat="42.44717" lon="3.12658">
        <ele>373.267764</ele>
        <time>2022-08-30T09:43:59.981Z</time>
      </trkpt>
      <trkpt lat="42.44717" lon="3.12676">
        <ele>373.47984</ele>
        <time>2022-08-30T09:44:06.229Z</time>
      </trkpt>
      <trkpt lat="42.44699" lon="3.12742">
        <ele>374.342884</ele>
        <time>2022-08-30T09:44:27.706Z</time>
      </trkpt>
      <trkpt lat="42.44704" lon="3.12756">
        <ele>374.510561</ele>
        <time>2022-08-30T09:44:32.561Z</time>
      </trkpt>
      <trkpt lat="42.44731" lon="3.12765">
        <ele>374.916992</ele>
        <time>2022-08-30T09:44:44.183Z</time>
      </trkpt>
      <trkpt lat="42.44785" lon="3.12795">
        <ele>375.75888</ele>
        <time>2022-08-30T09:45:06.908Z</time>
      </trkpt>
      <trkpt lat="42.44807" lon="3.12832">
        <ele>376.2598</ele>
        <time>2022-08-30T09:45:18.923Z</time>
      </trkpt>
      <trkpt lat="42.44853" lon="3.12854">
        <ele>377.022408</ele>
        <time>2022-08-30T09:45:34.994Z</time>
      </trkpt>
      <trkpt lat="42.4487" lon="3.12871">
        <ele>378.409071</ele>
        <time>2022-08-30T09:45:41.856Z</time>
      </trkpt>
      <trkpt lat="42.44908" lon="3.12922">
        <ele>381.847376</ele>
        <time>2022-08-30T09:46:12.556Z</time>
      </trkpt>
      <trkpt lat="42.44918" lon="3.12962">
        <ele>383.839389</ele>
        <time>2022-08-30T09:46:33.857Z</time>
      </trkpt>
      <trkpt lat="42.44941" lon="3.12991">
        <ele>385.85166</ele>
        <time>2022-08-30T09:46:58.324Z</time>
      </trkpt>
      <trkpt lat="42.44978" lon="3.13012">
        <ele>388.40933</ele>
        <time>2022-08-30T09:47:28.834Z</time>
      </trkpt>
      <trkpt lat="42.44994" lon="3.13007">
        <ele>389.949673</ele>
        <time>2022-08-30T09:47:44.821Z</time>
      </trkpt>
      <trkpt lat="42.44996" lon="3.12954">
        <ele>393.78681</ele>
        <time>2022-08-30T09:48:17.349Z</time>
      </trkpt>
      <trkpt lat="42.4499" lon="3.12922">
        <ele>396.272671</ele>
        <time>2022-08-30T09:48:37.796Z</time>
      </trkpt>
      <trkpt lat="42.44986" lon="3.12775">
        <ele>406.364285</ele>
        <time>2022-08-30T09:50:11.803Z</time>
      </trkpt>
      <trkpt lat="42.44995" lon="3.12703">
        <ele>407.059971</ele>
        <time>2022-08-30T09:50:40.313Z</time>
      </trkpt>
      <trkpt lat="42.44965" lon="3.12633">
        <ele>407.836812</ele>
        <time>2022-08-30T09:51:02.357Z</time>
      </trkpt>
      <trkpt lat="42.44955" lon="3.12561">
        <ele>408.53261</ele>
        <time>2022-08-30T09:51:16.239Z</time>
      </trkpt>
      <trkpt lat="42.44962" lon="3.12543">
        <ele>407.868622</ele>
        <time>2022-08-30T09:51:19.841Z</time>
      </trkpt>
      <trkpt lat="42.44984" lon="3.1252">
        <ele>405.687284</ele>
        <time>2022-08-30T09:51:26.444Z</time>
      </trkpt>
      <trkpt lat="42.45029" lon="3.12493">
        <ele>401.967688</ele>
        <time>2022-08-30T09:51:37.614Z</time>
      </trkpt>
      <trkpt lat="42.45045" lon="3.12462">
        <ele>399.786225</ele>
        <time>2022-08-30T09:51:43.813Z</time>
      </trkpt>
      <trkpt lat="42.45058" lon="3.1245">
        <ele>398.583565</ele>
        <time>2022-08-30T09:51:47.255Z</time>
      </trkpt>
      <trkpt lat="42.45056" lon="3.12439">
        <ele>397.931778</ele>
        <time>2022-08-30T09:51:49.053Z</time>
      </trkpt>
      <trkpt lat="42.45021" lon="3.12394">
        <ele>394.030794</ele>
        <time>2022-08-30T09:51:59.326Z</time>
      </trkpt>
      <trkpt lat="42.45013" lon="3.12362">
        <ele>391.485599</ele>
        <time>2022-08-30T09:52:04.643Z</time>
      </trkpt>
      <trkpt lat="42.45005" lon="3.12242">
        <ele>382.366371</ele>
        <time>2022-08-30T09:52:23.915Z</time>
      </trkpt>
      <trkpt lat="42.45013" lon="3.12239">
        <ele>381.485592</ele>
        <time>2022-08-30T09:52:25.867Z</time>
      </trkpt>
      <trkpt lat="42.45025" lon="3.1232">
        <ele>375.316474</ele>
        <time>2022-08-30T09:52:38.796Z</time>
      </trkpt>
      <trkpt lat="42.45035" lon="3.12354">
        <ele>372.763843</ele>
        <time>2022-08-30T09:52:44.318Z</time>
      </trkpt>
      <trkpt lat="42.45048" lon="3.12376">
        <ele>370.764611</ele>
        <time>2022-08-30T09:52:48.459Z</time>
      </trkpt>
      <trkpt lat="42.45128" lon="3.12434">
        <ele>361.970127</ele>
        <time>2022-08-30T09:53:08.765Z</time>
      </trkpt>
      <trkpt lat="42.45135" lon="3.12447">
        <ele>360.845716</ele>
        <time>2022-08-30T09:53:11.023Z</time>
      </trkpt>
      <trkpt lat="42.45134" lon="3.12457">
        <ele>360.117826</ele>
        <time>2022-08-30T09:53:15.990Z</time>
      </trkpt>
      <trkpt lat="42.45104" lon="3.12495">
        <ele>358.11439</ele>
        <time>2022-08-30T09:53:25.617Z</time>
      </trkpt>
      <trkpt lat="42.4509" lon="3.12523">
        <ele>357.313923</ele>
        <time>2022-08-30T09:53:31.017Z</time>
      </trkpt>
      <trkpt lat="42.45046" lon="3.12568">
        <ele>355.557419</ele>
        <time>2022-08-30T09:53:46.809Z</time>
      </trkpt>
      <trkpt lat="42.45045" lon="3.12582">
        <ele>355.217092</ele>
        <time>2022-08-30T09:53:49.107Z</time>
      </trkpt>
      <trkpt lat="42.45085" lon="3.1266">
        <ele>352.781235</ele>
        <time>2022-08-30T09:54:16.627Z</time>
      </trkpt>
      <trkpt lat="42.45098" lon="3.12708">
        <ele>350.805412</ele>
        <time>2022-08-30T09:54:28.408Z</time>
      </trkpt>
      <trkpt lat="42.45107" lon="3.12855">
        <ele>345.132877</ele>
        <time>2022-08-30T09:54:53.438Z</time>
      </trkpt>
      <trkpt lat="42.45162" lon="3.12875">
        <ele>340.230517</ele>
        <time>2022-08-30T09:55:05.754Z</time>
      </trkpt>
      <trkpt lat="42.45192" lon="3.12878">
        <ele>336.863762</ele>
        <time>2022-08-30T09:55:12.334Z</time>
      </trkpt>
      <trkpt lat="42.45214" lon="3.12891">
        <ele>334.307082</ele>
        <time>2022-08-30T09:55:17.405Z</time>
      </trkpt>
      <trkpt lat="42.45257" lon="3.12989">
        <ele>325.15159</ele>
        <time>2022-08-30T09:55:35.094Z</time>
      </trkpt>
      <trkpt lat="42.45292" lon="3.1304">
        <ele>319.240101</ele>
        <time>2022-08-30T09:55:45.459Z</time>
      </trkpt>
      <trkpt lat="42.45325" lon="3.13062">
        <ele>314.871149</ele>
        <time>2022-08-30T09:55:53.263Z</time>
      </trkpt>
      <trkpt lat="42.4534" lon="3.1308">
        <ele>312.478094</ele>
        <time>2022-08-30T09:55:57.586Z</time>
      </trkpt>
      <trkpt lat="42.45358" lon="3.13079">
        <ele>310.35971</ele>
        <time>2022-08-30T09:56:01.290Z</time>
      </trkpt>
      <trkpt lat="42.45411" lon="3.13054">
        <ele>303.858721</ele>
        <time>2022-08-30T09:56:12.966Z</time>
      </trkpt>
      <trkpt lat="42.45455" lon="3.12991">
        <ele>300.624832</ele>
        <time>2022-08-30T09:56:26.734Z</time>
      </trkpt>
      <trkpt lat="42.45478" lon="3.12989">
        <ele>299.617492</ele>
        <time>2022-08-30T09:56:31.712Z</time>
      </trkpt>
      <trkpt lat="42.45497" lon="3.13">
        <ele>298.700838</ele>
        <time>2022-08-30T09:56:36.673Z</time>
      </trkpt>
      <trkpt lat="42.45521" lon="3.13032">
        <ele>297.200979</ele>
        <time>2022-08-30T09:56:47.249Z</time>
      </trkpt>
      <trkpt lat="42.45555" lon="3.13094">
        <ele>295.45592</ele>
        <time>2022-08-30T09:57:14.074Z</time>
      </trkpt>
      <trkpt lat="42.45549" lon="3.13195">
        <ele>296.551606</ele>
        <time>2022-08-30T09:57:46.671Z</time>
      </trkpt>
      <trkpt lat="42.45547" lon="3.13229">
        <ele>296.912172</ele>
        <time>2022-08-30T09:57:58.553Z</time>
      </trkpt>
      <trkpt lat="42.45544" lon="3.13252">
        <ele>297.171778</ele>
        <time>2022-08-30T09:58:01.522Z</time>
      </trkpt>
      <trkpt lat="42.45551" lon="3.13265">
        <ele>297.342108</ele>
        <time>2022-08-30T09:58:06.778Z</time>
      </trkpt>
      <trkpt lat="42.45591" lon="3.13257">
        <ele>297.836867</ele>
        <time>2022-08-30T09:58:15.826Z</time>
      </trkpt>
      <trkpt lat="42.45629" lon="3.13261">
        <ele>296.911191</ele>
        <time>2022-08-30T09:58:22.023Z</time>
      </trkpt>
      <trkpt lat="42.45709" lon="3.13283">
        <ele>294.905161</ele>
        <time>2022-08-30T09:58:35.017Z</time>
      </trkpt>
      <trkpt lat="42.45747" lon="3.13279">
        <ele>293.976883</ele>
        <time>2022-08-30T09:58:40.721Z</time>
      </trkpt>
      <trkpt lat="42.45753" lon="3.13287">
        <ele>293.756918</ele>
        <time>2022-08-30T09:58:41.995Z</time>
      </trkpt>
      <trkpt lat="42.45739" lon="3.13341">
        <ele>291.084097</ele>
        <time>2022-08-30T09:58:48.282Z</time>
      </trkpt>
      <trkpt lat="42.45735" lon="3.13387">
        <ele>288.458444</ele>
        <time>2022-08-30T09:58:53.186Z</time>
      </trkpt>
      <trkpt lat="42.4574" lon="3.13396">
        <ele>287.815462</ele>
        <time>2022-08-30T09:58:54.395Z</time>
      </trkpt>
      <trkpt lat="42.45959" lon="3.13454">
        <ele>266.691547</ele>
        <time>2022-08-30T09:59:22.658Z</time>
      </trkpt>
      <trkpt lat="42.46021" lon="3.13506">
        <ele>258.310231</ele>
        <time>2022-08-30T09:59:31.716Z</time>
      </trkpt>
      <trkpt lat="42.46119" lon="3.13573">
        <ele>242.315698</ele>
        <time>2022-08-30T09:59:45.101Z</time>
      </trkpt>
      <trkpt lat="42.46157" lon="3.13579">
        <ele>236.742341</ele>
        <time>2022-08-30T09:59:49.666Z</time>
      </trkpt>
      <trkpt lat="42.46176" lon="3.13587">
        <ele>233.872233</ele>
        <time>2022-08-30T09:59:51.989Z</time>
      </trkpt>
      <trkpt lat="42.46183" lon="3.13585">
        <ele>232.67414</ele>
        <time>2022-08-30T09:59:52.887Z</time>
      </trkpt>
      <trkpt lat="42.46244" lon="3.1338">
        <ele>204.453824</ele>
        <time>2022-08-30T10:00:12.184Z</time>
      </trkpt>
      <trkpt lat="42.46295" lon="3.13288">
        <ele>197.250249</ele>
        <time>2022-08-30T10:00:22.803Z</time>
      </trkpt>
      <trkpt lat="42.46326" lon="3.13256">
        <ele>194.572934</ele>
        <time>2022-08-30T10:00:28.171Z</time>
      </trkpt>
      <trkpt lat="42.46338" lon="3.13257">
        <ele>193.687725</ele>
        <time>2022-08-30T10:00:30.130Z</time>
      </trkpt>
      <trkpt lat="42.46351" lon="3.13267">
        <ele>192.66424</ele>
        <time>2022-08-30T10:00:32.615Z</time>
      </trkpt>
      <trkpt lat="42.46375" lon="3.13329">
        <ele>189.2118</ele>
        <time>2022-08-30T10:00:44.530Z</time>
      </trkpt>
      <trkpt lat="42.46403" lon="3.13378">
        <ele>186.685253</ele>
        <time>2022-08-30T10:00:51.818Z</time>
      </trkpt>
      <trkpt lat="42.46445" lon="3.13431">
        <ele>183.538806</ele>
        <time>2022-08-30T10:00:59.367Z</time>
      </trkpt>
      <trkpt lat="42.46451" lon="3.13431">
        <ele>183.229502</ele>
        <time>2022-08-30T10:01:00.079Z</time>
      </trkpt>
      <trkpt lat="42.46483" lon="3.13369">
        <ele>180.16546</ele>
        <time>2022-08-30T10:01:07.630Z</time>
      </trkpt>
      <trkpt lat="42.46536" lon="3.13344">
        <ele>175.157412</ele>
        <time>2022-08-30T10:01:14.913Z</time>
      </trkpt>
      <trkpt lat="42.46548" lon="3.1334">
        <ele>174.019049</ele>
        <time>2022-08-30T10:01:16.961Z</time>
      </trkpt>
      <trkpt lat="42.4655" lon="3.13339">
        <ele>173.75148</ele>
        <time>2022-08-30T10:01:18.109Z</time>
      </trkpt>
      <trkpt lat="42.46555" lon="3.13332">
        <ele>173.143156</ele>
        <time>2022-08-30T10:01:18.944Z</time>
      </trkpt>
      <trkpt lat="42.4655" lon="3.13323">
        <ele>172.341989</ele>
        <time>2022-08-30T10:01:19.951Z</time>
      </trkpt>
      <trkpt lat="42.46542" lon="3.13325">
        <ele>171.622133</ele>
        <time>2022-08-30T10:01:20.911Z</time>
      </trkpt>
      <trkpt lat="42.46523" lon="3.13331">
        <ele>169.765633</ele>
        <time>2022-08-30T10:01:23.773Z</time>
      </trkpt>
      <trkpt lat="42.46491" lon="3.13328">
        <ele>166.782122</ele>
        <time>2022-08-30T10:01:27.854Z</time>
      </trkpt>
      <trkpt lat="42.46464" lon="3.13339">
        <ele>164.186058</ele>
        <time>2022-08-30T10:01:31.201Z</time>
      </trkpt>
      <trkpt lat="42.46457" lon="3.13338">
        <ele>163.470923</ele>
        <time>2022-08-30T10:01:33.579Z</time>
      </trkpt>
      <trkpt lat="42.46463" lon="3.13327">
        <ele>162.359467</ele>
        <time>2022-08-30T10:01:34.767Z</time>
      </trkpt>
      <trkpt lat="42.4649" lon="3.13312">
        <ele>158.924049</ele>
        <time>2022-08-30T10:01:38.683Z</time>
      </trkpt>
      <trkpt lat="42.46515" lon="3.13298">
        <ele>155.616022</ele>
        <time>2022-08-30T10:01:42.165Z</time>
      </trkpt>
      <trkpt lat="42.46556" lon="3.1325">
        <ele>149.128684</ele>
        <time>2022-08-30T10:01:49.004Z</time>
      </trkpt>
      <trkpt lat="42.46648" lon="3.13198">
        <ele>137.011218</ele>
        <time>2022-08-30T10:02:01.046Z</time>
      </trkpt>
      <trkpt lat="42.4666" lon="3.13209">
        <ele>135.142979</ele>
        <time>2022-08-30T10:02:02.857Z</time>
      </trkpt>
      <trkpt lat="42.46671" lon="3.13234">
        <ele>132.493064</ele>
        <time>2022-08-30T10:02:05.369Z</time>
      </trkpt>
      <trkpt lat="42.46692" lon="3.13245">
        <ele>129.666765</ele>
        <time>2022-08-30T10:02:08.107Z</time>
      </trkpt>
      <trkpt lat="42.46742" lon="3.13231">
        <ele>123.238187</ele>
        <time>2022-08-30T10:02:14.329Z</time>
      </trkpt>
      <trkpt lat="42.46851" lon="3.13225">
        <ele>112.819081</ele>
        <time>2022-08-30T10:02:28.556Z</time>
      </trkpt>
      <trkpt lat="42.46871" lon="3.13212">
        <ele>111.032576</ele>
        <time>2022-08-30T10:02:31.413Z</time>
      </trkpt>
      <trkpt lat="42.46926" lon="3.13159">
        <ele>105.534197</ele>
        <time>2022-08-30T10:02:40.453Z</time>
      </trkpt>
      <trkpt lat="42.46947" lon="3.13153">
        <ele>103.837302</ele>
        <time>2022-08-30T10:02:43.300Z</time>
      </trkpt>
      <trkpt lat="42.46969" lon="3.1316">
        <ele>102.019147</ele>
        <time>2022-08-30T10:02:46.382Z</time>
      </trkpt>
      <trkpt lat="42.47024" lon="3.13201">
        <ele>97.015383</ele>
        <time>2022-08-30T10:02:54.824Z</time>
      </trkpt>
      <trkpt lat="42.47035" lon="3.132">
        <ele>96.143314</ele>
        <time>2022-08-30T10:02:56.334Z</time>
      </trkpt>
      <trkpt lat="42.47048" lon="3.13185">
        <ele>94.75512</ele>
        <time>2022-08-30T10:02:58.625Z</time>
      </trkpt>
      <trkpt lat="42.47113" lon="3.13049">
        <ele>85.184601</ele>
        <time>2022-08-30T10:03:13.846Z</time>
      </trkpt>
      <trkpt lat="42.47117" lon="3.13026">
        <ele>83.767576</ele>
        <time>2022-08-30T10:03:16.186Z</time>
      </trkpt>
      <trkpt lat="42.47118" lon="3.13025">
        <ele>83.711896</ele>
        <time>2022-08-30T10:03:16.265Z</time>
      </trkpt>
      <trkpt lat="42.47106" lon="3.12986">
        <ele>81.221345</ele>
        <time>2022-08-30T10:03:20.362Z</time>
      </trkpt>
      <trkpt lat="42.47111" lon="3.12964">
        <ele>79.860009</ele>
        <time>2022-08-30T10:03:22.601Z</time>
      </trkpt>
      <trkpt lat="42.47122" lon="3.12916">
        <ele>76.900955</ele>
        <time>2022-08-30T10:03:27.612Z</time>
      </trkpt>
      <trkpt lat="42.47151" lon="3.12891">
        <ele>74.658818</ele>
        <time>2022-08-30T10:03:32.316Z</time>
      </trkpt>
      <trkpt lat="42.47232" lon="3.12915">
        <ele>70.660593</ele>
        <time>2022-08-30T10:03:43.673Z</time>
      </trkpt>
      <trkpt lat="42.47238" lon="3.12913">
        <ele>70.351455</ele>
        <time>2022-08-30T10:03:44.571Z</time>
      </trkpt>
      <trkpt lat="42.4724" lon="3.12902">
        <ele>69.939478</ele>
        <time>2022-08-30T10:03:45.869Z</time>
      </trkpt>
      <trkpt lat="42.47228" lon="3.12891">
        <ele>69.232713</ele>
        <time>2022-08-30T10:03:48.301Z</time>
      </trkpt>
      <trkpt lat="42.47216" lon="3.12885">
        <ele>68.581599</ele>
        <time>2022-08-30T10:03:50.270Z</time>
      </trkpt>
      <trkpt lat="42.47201" lon="3.12822">
        <ele>66.216481</ele>
        <time>2022-08-30T10:03:57.913Z</time>
      </trkpt>
      <trkpt lat="42.47185" lon="3.12816">
        <ele>65.400968</ele>
        <time>2022-08-30T10:04:00.485Z</time>
      </trkpt>
      <trkpt lat="42.47185" lon="3.12803">
        <ele>64.939469</ele>
        <time>2022-08-30T10:04:01.758Z</time>
      </trkpt>
      <trkpt lat="42.47201" lon="3.12807">
        <ele>64.160515</ele>
        <time>2022-08-30T10:04:04.145Z</time>
      </trkpt>
      <trkpt lat="42.47228" lon="3.12841">
        <ele>62.398148</ele>
        <time>2022-08-30T10:04:09.107Z</time>
      </trkpt>
      <trkpt lat="42.47251" lon="3.12825">
        <ele>61.127811</ele>
        <time>2022-08-30T10:04:12.699Z</time>
      </trkpt>
      <trkpt lat="42.47269" lon="3.12822">
        <ele>60.290829</ele>
        <time>2022-08-30T10:04:15.268Z</time>
      </trkpt>
      <trkpt lat="42.47295" lon="3.12829">
        <ele>58.987644</ele>
        <time>2022-08-30T10:04:18.997Z</time>
      </trkpt>
      <trkpt lat="42.47327" lon="3.12846">
        <ele>57.807894</ele>
        <time>2022-08-30T10:04:23.982Z</time>
      </trkpt>
      <trkpt lat="42.47345" lon="3.12837">
        <ele>57.45034</ele>
        <time>2022-08-30T10:04:27.533Z</time>
      </trkpt>
      <trkpt lat="42.47348" lon="3.1282">
        <ele>57.220377</ele>
        <time>2022-08-30T10:04:29.265Z</time>
      </trkpt>
      <trkpt lat="42.47354" lon="3.1283">
        <ele>57.04529</ele>
        <time>2022-08-30T10:04:30.885Z</time>
      </trkpt>
      <trkpt lat="42.47352" lon="3.1285">
        <ele>56.770362</ele>
        <time>2022-08-30T10:04:33.356Z</time>
      </trkpt>
      <trkpt lat="42.47331" lon="3.12907">
        <ele>55.919198</ele>
        <time>2022-08-30T10:04:40.421Z</time>
      </trkpt>
      <trkpt lat="42.473" lon="3.12949">
        <ele>55.111209</ele>
        <time>2022-08-30T10:04:48.888Z</time>
      </trkpt>
      <trkpt lat="42.47281" lon="3.12987">
        <ele>54.911783</ele>
        <time>2022-08-30T10:04:58.382Z</time>
      </trkpt>
      <trkpt lat="42.4728" lon="3.13026">
        <ele>55.159133</ele>
        <time>2022-08-30T10:05:08.334Z</time>
      </trkpt>
      <trkpt lat="42.47244" lon="3.13199">
        <ele>56.318931</ele>
        <time>2022-08-30T10:05:41.882Z</time>
      </trkpt>
      <trkpt lat="42.47196" lon="3.13218">
        <ele>56.258646</ele>
        <time>2022-08-30T10:05:51.183Z</time>
      </trkpt>
      <trkpt lat="42.47195" lon="3.13237">
        <ele>56.235074</ele>
        <time>2022-08-30T10:05:53.564Z</time>
      </trkpt>
      <trkpt lat="42.47234" lon="3.13249">
        <ele>56.165794</ele>
        <time>2022-08-30T10:06:00.798Z</time>
      </trkpt>
      <trkpt lat="42.47268" lon="3.13275">
        <ele>56.096799</ele>
        <time>2022-08-30T10:06:08.295Z</time>
      </trkpt>
      <trkpt lat="42.47244" lon="3.13384">
        <ele>56.836072</ele>
        <time>2022-08-30T10:06:26.237Z</time>
      </trkpt>
      <trkpt lat="42.47191" lon="3.13447">
        <ele>58.117033</ele>
        <time>2022-08-30T10:06:45.729Z</time>
      </trkpt>
      <trkpt lat="42.47148" lon="3.13464">
        <ele>58.948663</ele>
        <time>2022-08-30T10:07:00.875Z</time>
      </trkpt>
      <trkpt lat="42.47142" lon="3.13477">
        <ele>59.155875</ele>
        <time>2022-08-30T10:07:05.043Z</time>
      </trkpt>
      <trkpt lat="42.47117" lon="3.13498">
        <ele>60.244558</ele>
        <time>2022-08-30T10:07:16.097Z</time>
      </trkpt>
      <trkpt lat="42.47119" lon="3.13515">
        <ele>60.826918</ele>
        <time>2022-08-30T10:07:21.551Z</time>
      </trkpt>
      <trkpt lat="42.47154" lon="3.13534">
        <ele>62.589177</ele>
        <time>2022-08-30T10:07:38.081Z</time>
      </trkpt>
      <trkpt lat="42.47151" lon="3.13556">
        <ele>63.372908</ele>
        <time>2022-08-30T10:07:45.645Z</time>
      </trkpt>
      <trkpt lat="42.47133" lon="3.136">
        <ele>65.109642</ele>
        <time>2022-08-30T10:08:02.619Z</time>
      </trkpt>
      <trkpt lat="42.47133" lon="3.13638">
        <ele>66.403913</ele>
        <time>2022-08-30T10:08:15.211Z</time>
      </trkpt>
      <trkpt lat="42.47112" lon="3.13691">
        <ele>68.452119</ele>
        <time>2022-08-30T10:08:36.318Z</time>
      </trkpt>
      <trkpt lat="42.47098" lon="3.13749">
        <ele>70.428154</ele>
        <time>2022-08-30T10:08:57.303Z</time>
      </trkpt>
      <trkpt lat="42.47107" lon="3.13779">
        <ele>71.472254</ele>
        <time>2022-08-30T10:09:07.936Z</time>
      </trkpt>
      <trkpt lat="42.47051" lon="3.13838">
        <ele>74.584433</ele>
        <time>2022-08-30T10:09:38.173Z</time>
      </trkpt>
      <trkpt lat="42.47027" lon="3.13895">
        <ele>75.433458</ele>
        <time>2022-08-30T10:09:55.216Z</time>
      </trkpt>
      <trkpt lat="42.47031" lon="3.13928">
        <ele>75.227711</ele>
        <time>2022-08-30T10:10:02.038Z</time>
      </trkpt>
      <trkpt lat="42.4704" lon="3.13953">
        <ele>75.050666</ele>
        <time>2022-08-30T10:10:07.515Z</time>
      </trkpt>
      <trkpt lat="42.47038" lon="3.13987">
        <ele>74.842058</ele>
        <time>2022-08-30T10:10:12.482Z</time>
      </trkpt>
      <trkpt lat="42.47032" lon="3.14162">
        <ele>71.689083</ele>
        <time>2022-08-30T10:10:31.808Z</time>
      </trkpt>
      <trkpt lat="42.47039" lon="3.14175">
        <ele>71.017338</ele>
        <time>2022-08-30T10:10:33.512Z</time>
      </trkpt>
      <trkpt lat="42.47055" lon="3.14188">
        <ele>70.011657</ele>
        <time>2022-08-30T10:10:35.981Z</time>
      </trkpt>
      <trkpt lat="42.47068" lon="3.14189">
        <ele>69.287842</ele>
        <time>2022-08-30T10:10:37.798Z</time>
      </trkpt>
      <trkpt lat="42.4712" lon="3.14081">
        <ele>64.070281</ele>
        <time>2022-08-30T10:10:50.719Z</time>
      </trkpt>
      <trkpt lat="42.47159" lon="3.13986">
        <ele>60.767495</ele>
        <time>2022-08-30T10:11:01.895Z</time>
      </trkpt>
      <trkpt lat="42.47177" lon="3.13963">
        <ele>59.749185</ele>
        <time>2022-08-30T10:11:05.535Z</time>
      </trkpt>
      <trkpt lat="42.47187" lon="3.1397">
        <ele>59.307728</ele>
        <time>2022-08-30T10:11:07.176Z</time>
      </trkpt>
      <trkpt lat="42.47218" lon="3.14019">
        <ele>57.336468</ele>
        <time>2022-08-30T10:11:14.967Z</time>
      </trkpt>
      <trkpt lat="42.47231" lon="3.14015">
        <ele>56.821012</ele>
        <time>2022-08-30T10:11:17.035Z</time>
      </trkpt>
      <trkpt lat="42.47247" lon="3.13957">
        <ele>56.95638</ele>
        <time>2022-08-30T10:11:25.033Z</time>
      </trkpt>
      <trkpt lat="42.4726" lon="3.1395">
        <ele>56.998227</ele>
        <time>2022-08-30T10:11:27.936Z</time>
      </trkpt>
      <trkpt lat="42.47281" lon="3.13906">
        <ele>57.110984</ele>
        <time>2022-08-30T10:11:36.911Z</time>
      </trkpt>
      <trkpt lat="42.47308" lon="3.1387">
        <ele>57.223556</ele>
        <time>2022-08-30T10:11:46.227Z</time>
      </trkpt>
      <trkpt lat="42.47337" lon="3.13845">
        <ele>57.325077</ele>
        <time>2022-08-30T10:11:55.280Z</time>
      </trkpt>
      <trkpt lat="42.47369" lon="3.13851">
        <ele>57.852155</ele>
        <time>2022-08-30T10:12:05.617Z</time>
      </trkpt>
      <trkpt lat="42.47397" lon="3.13824">
        <ele>58.587086</ele>
        <time>2022-08-30T10:12:17.583Z</time>
      </trkpt>
      <trkpt lat="42.47402" lon="3.13803">
        <ele>58.925279</ele>
        <time>2022-08-30T10:12:23.148Z</time>
      </trkpt>
      <trkpt lat="42.47413" lon="3.13753">
        <ele>59.752081</ele>
        <time>2022-08-30T10:12:35.360Z</time>
      </trkpt>
      <trkpt lat="42.47425" lon="3.13729">
        <ele>60.202112</ele>
        <time>2022-08-30T10:12:41.793Z</time>
      </trkpt>
      <trkpt lat="42.47436" lon="3.13718">
        <ele>60.497003</ele>
        <time>2022-08-30T10:12:46.316Z</time>
      </trkpt>
      <trkpt lat="42.47446" lon="3.13718">
        <ele>60.705537</ele>
        <time>2022-08-30T10:12:49.083Z</time>
      </trkpt>
      <trkpt lat="42.47497" lon="3.13753">
        <ele>61.075258</ele>
        <time>2022-08-30T10:13:06.017Z</time>
      </trkpt>
      <trkpt lat="42.47504" lon="3.13752">
        <ele>61.05448</ele>
        <time>2022-08-30T10:13:07.586Z</time>
      </trkpt>
      <trkpt lat="42.47509" lon="3.13748">
        <ele>61.038705</ele>
        <time>2022-08-30T10:13:08.726Z</time>
      </trkpt>
      <trkpt lat="42.47508" lon="3.13706">
        <ele>60.951535</ele>
        <time>2022-08-30T10:13:15.844Z</time>
      </trkpt>
      <trkpt lat="42.4752" lon="3.13677">
        <ele>60.881903</ele>
        <time>2022-08-30T10:13:21.125Z</time>
      </trkpt>
      <trkpt lat="42.47521" lon="3.13675">
        <ele>60.875831</ele>
        <time>2022-08-30T10:13:21.550Z</time>
      </trkpt>
      <trkpt lat="42.47538" lon="3.13641">
        <ele>60.788666</ele>
        <time>2022-08-30T10:13:27.104Z</time>
      </trkpt>
      <trkpt lat="42.4757" lon="3.13606">
        <ele>60.672238</ele>
        <time>2022-08-30T10:13:33.763Z</time>
      </trkpt>
      <trkpt lat="42.47587" lon="3.13563">
        <ele>59.720416</ele>
        <time>2022-08-30T10:13:39.237Z</time>
      </trkpt>
      <trkpt lat="42.47608" lon="3.13538">
        <ele>58.934814</ele>
        <time>2022-08-30T10:13:43.487Z</time>
      </trkpt>
      <trkpt lat="42.47685" lon="3.13479">
        <ele>56.434256</ele>
        <time>2022-08-30T10:13:57.015Z</time>
      </trkpt>
      <trkpt lat="42.47701" lon="3.1344">
        <ele>55.494306</ele>
        <time>2022-08-30T10:14:02.528Z</time>
      </trkpt>
      <trkpt lat="42.4773" lon="3.13391">
        <ele>54.112396</ele>
        <time>2022-08-30T10:14:10.135Z</time>
      </trkpt>
      <trkpt lat="42.4773" lon="3.13353">
        <ele>53.270844</ele>
        <time>2022-08-30T10:14:14.319Z</time>
      </trkpt>
      <trkpt lat="42.47732" lon="3.13344">
        <ele>53.076512</ele>
        <time>2022-08-30T10:14:15.380Z</time>
      </trkpt>
      <trkpt lat="42.47739" lon="3.1334">
        <ele>52.846882</ele>
        <time>2022-08-30T10:14:16.349Z</time>
      </trkpt>
      <trkpt lat="42.47747" lon="3.13343">
        <ele>52.598275</ele>
        <time>2022-08-30T10:14:18.754Z</time>
      </trkpt>
      <trkpt lat="42.47751" lon="3.13351">
        <ele>52.402773</ele>
        <time>2022-08-30T10:14:19.640Z</time>
      </trkpt>
      <trkpt lat="42.47767" lon="3.13409">
        <ele>51.015891</ele>
        <time>2022-08-30T10:14:26.722Z</time>
      </trkpt>
      <trkpt lat="42.47785" lon="3.13441">
        <ele>50.110322</ele>
        <time>2022-08-30T10:14:31.277Z</time>
      </trkpt>
      <trkpt lat="42.47802" lon="3.13443">
        <ele>49.422683</ele>
        <time>2022-08-30T10:14:33.831Z</time>
      </trkpt>
      <trkpt lat="42.4781" lon="3.13444">
        <ele>49.099991</ele>
        <time>2022-08-30T10:14:37.178Z</time>
      </trkpt>
      <trkpt lat="42.47817" lon="3.13446">
        <ele>48.833114</ele>
        <time>2022-08-30T10:14:38.222Z</time>
      </trkpt>
      <trkpt lat="42.4787" lon="3.13372">
        <ele>45.745408</ele>
        <time>2022-08-30T10:14:50.124Z</time>
      </trkpt>
      <trkpt lat="42.47879" lon="3.13354">
        <ele>45.107587</ele>
        <time>2022-08-30T10:14:52.303Z</time>
      </trkpt>
      <trkpt lat="42.47879" lon="3.13343">
        <ele>44.756837</ele>
        <time>2022-08-30T10:14:53.482Z</time>
      </trkpt>
      <trkpt lat="42.47861" lon="3.13329">
        <ele>43.938347</ele>
        <time>2022-08-30T10:14:56.252Z</time>
      </trkpt>
      <trkpt lat="42.47837" lon="3.1331">
        <ele>42.657531</ele>
        <time>2022-08-30T10:15:00.104Z</time>
      </trkpt>
      <trkpt lat="42.4787" lon="3.1324">
        <ele>37.382595</ele>
        <time>2022-08-30T10:15:08.518Z</time>
      </trkpt>
      <trkpt lat="42.47874" lon="3.13226">
        <ele>36.439453</ele>
        <time>2022-08-30T10:15:10.027Z</time>
      </trkpt>
      <trkpt lat="42.47883" lon="3.13204">
        <ele>34.834318</ele>
        <time>2022-08-30T10:15:12.438Z</time>
      </trkpt>
      <trkpt lat="42.47895" lon="3.13203">
        <ele>33.780757</ele>
        <time>2022-08-30T10:15:14.076Z</time>
      </trkpt>
      <trkpt lat="42.47898" lon="3.13208">
        <ele>33.394697</ele>
        <time>2022-08-30T10:15:14.663Z</time>
      </trkpt>
      <trkpt lat="42.47893" lon="3.13231">
        <ele>31.853985</ele>
        <time>2022-08-30T10:15:16.905Z</time>
      </trkpt>
      <trkpt lat="42.47897" lon="3.13244">
        <ele>30.988938</ele>
        <time>2022-08-30T10:15:18.191Z</time>
      </trkpt>
      <trkpt lat="42.47918" lon="3.13242">
        <ele>29.161719</ele>
        <time>2022-08-30T10:15:20.821Z</time>
      </trkpt>
      <trkpt lat="42.47939" lon="3.13249">
        <ele>27.318853</ele>
        <time>2022-08-30T10:15:23.495Z</time>
      </trkpt>
      <trkpt lat="42.47945" lon="3.13253">
        <ele>26.703503</ele>
        <time>2022-08-30T10:15:24.382Z</time>
      </trkpt>
      <trkpt lat="42.47989" lon="3.13275">
        <ele>22.647346</ele>
        <time>2022-08-30T10:15:30.254Z</time>
      </trkpt>
      <trkpt lat="42.48" lon="3.1328">
        <ele>21.573441</ele>
        <time>2022-08-30T10:15:31.869Z</time>
      </trkpt>
      <trkpt lat="42.48034" lon="3.1329">
        <ele>18.533863</ele>
        <time>2022-08-30T10:15:36.388Z</time>
      </trkpt>
      <trkpt lat="42.48046" lon="3.13265">
        <ele>16.622668</ele>
        <time>2022-08-30T10:15:39.046Z</time>
      </trkpt>
      <trkpt lat="42.48051" lon="3.13222">
        <ele>13.800752</ele>
        <time>2022-08-30T10:15:44.485Z</time>
      </trkpt>
      <trkpt lat="42.48057" lon="3.13174">
        <ele>11.297975</ele>
        <time>2022-08-30T10:15:50.704Z</time>
      </trkpt>
      <trkpt lat="42.48058" lon="3.13147">
        <ele>10.586822</ele>
        <time>2022-08-30T10:15:53.257Z</time>
      </trkpt>
      <trkpt lat="42.48069" lon="3.13135">
        <ele>10.077683</ele>
        <time>2022-08-30T10:15:55.943Z</time>
      </trkpt>
      <trkpt lat="42.48082" lon="3.13111">
        <ele>9.298951</ele>
        <time>2022-08-30T10:16:00.102Z</time>
      </trkpt>
      <trkpt lat="42.48069" lon="3.13095">
        <ele>8.693203</ele>
        <time>2022-08-30T10:16:04.872Z</time>
      </trkpt>
      <trkpt lat="42.48081" lon="3.13058">
        <ele>7.643839</ele>
        <time>2022-08-30T10:16:09.553Z</time>
      </trkpt>
      <trkpt lat="42.48104" lon="3.13006">
        <ele>6.039871</ele>
        <time>2022-08-30T10:16:16.709Z</time>
      </trkpt>
      <trkpt lat="42.48116" lon="3.12987">
        <ele>5.382765</ele>
        <time>2022-08-30T10:16:19.502Z</time>
      </trkpt>
      <trkpt lat="42.4813" lon="3.12969">
        <ele>5.149264</ele>
        <time>2022-08-30T10:16:22.454Z</time>
      </trkpt>
      <trkpt lat="42.48142" lon="3.12953">
        <ele>4.950592</ele>
        <time>2022-08-30T10:16:25.081Z</time>
      </trkpt>
      <trkpt lat="42.48148" lon="3.12954">
        <ele>4.88927</ele>
        <time>2022-08-30T10:16:25.931Z</time>
      </trkpt>
      <trkpt lat="42.4815" lon="3.12945">
        <ele>4.815376</ele>
        <time>2022-08-30T10:16:27.056Z</time>
      </trkpt>
      <trkpt lat="42.48177" lon="3.12927">
        <ele>4.470897</ele>
        <time>2022-08-30T10:16:31.821Z</time>
      </trkpt>
      <trkpt lat="42.48189" lon="3.12919">
        <ele>4.320731</ele>
        <time>2022-08-30T10:16:34.059Z</time>
      </trkpt>
      <trkpt lat="42.48202" lon="3.12912">
        <ele>4.168866</ele>
        <time>2022-08-30T10:16:36.395Z</time>
      </trkpt>
      <trkpt lat="42.48212" lon="3.12908">
        <ele>4.052239</ele>
        <time>2022-08-30T10:16:38.133Z</time>
      </trkpt>
      <trkpt lat="42.48227" lon="3.12903">
        <ele>3.880955</ele>
        <time>2022-08-30T10:16:40.898Z</time>
      </trkpt>
      <trkpt lat="42.48242" lon="3.12901">
        <ele>3.713467</ele>
        <time>2022-08-30T10:16:43.691Z</time>
      </trkpt>
      <trkpt lat="42.4826" lon="3.12899">
        <ele>3.500509</ele>
        <time>2022-08-30T10:16:47.316Z</time>
      </trkpt>
      <trkpt lat="42.48275" lon="3.12899">
        <ele>3.334782</ele>
        <time>2022-08-30T10:16:50.142Z</time>
      </trkpt>
      <trkpt lat="42.48289" lon="3.12904">
        <ele>3.492125</ele>
        <time>2022-08-30T10:16:52.791Z</time>
      </trkpt>
      <trkpt lat="42.4831" lon="3.12921">
        <ele>3.755088</ele>
        <time>2022-08-30T10:16:57.494Z</time>
      </trkpt>
      <trkpt lat="42.48316" lon="3.12932">
        <ele>3.867528</ele>
        <time>2022-08-30T10:16:59.364Z</time>
      </trkpt>
      <trkpt lat="42.48333" lon="3.12996">
        <ele>4.405608</ele>
        <time>2022-08-30T10:17:08.709Z</time>
      </trkpt>
      <trkpt lat="42.48349" lon="3.13036">
        <ele>4.772143</ele>
        <time>2022-08-30T10:17:15.954Z</time>
      </trkpt>
      <trkpt lat="42.48392" lon="3.13104">
        <ele>6.50134</ele>
        <time>2022-08-30T10:17:39.272Z</time>
      </trkpt>
      <trkpt lat="42.48412" lon="3.13128">
        <ele>8.306231</ele>
        <time>2022-08-30T10:17:51.270Z</time>
      </trkpt>
      <trkpt lat="42.48429" lon="3.13132">
        <ele>9.416014</ele>
        <time>2022-08-30T10:17:59.209Z</time>
      </trkpt>
      <trkpt lat="42.48445" lon="3.13126">
        <ele>10.555075</ele>
        <time>2022-08-30T10:18:06.816Z</time>
      </trkpt>
      <trkpt lat="42.48471" lon="3.13113">
        <ele>12.343183</ele>
        <time>2022-08-30T10:18:21.691Z</time>
      </trkpt>
      <trkpt lat="42.48532" lon="3.13084">
        <ele>16.601675</ele>
        <time>2022-08-30T10:19:02.803Z</time>
      </trkpt>
      <trkpt lat="42.48545" lon="3.13072">
        <ele>17.750378</ele>
        <time>2022-08-30T10:19:13.227Z</time>
      </trkpt>
      <trkpt lat="42.48569" lon="3.13041">
        <ele>20.247046</ele>
        <time>2022-08-30T10:19:35.117Z</time>
      </trkpt>
      <trkpt lat="42.48587" lon="3.12998">
        <ele>23.019545</ele>
        <time>2022-08-30T10:19:58.153Z</time>
      </trkpt>
      <trkpt lat="42.48593" lon="3.12996">
        <ele>23.530158</ele>
        <time>2022-08-30T10:20:02.627Z</time>
      </trkpt>
      <trkpt lat="42.4861" lon="3.12938">
        <ele>27.00444</ele>
        <time>2022-08-30T10:20:34.431Z</time>
      </trkpt>
      <trkpt lat="42.48618" lon="3.12925">
        <ele>27.967551</ele>
        <time>2022-08-30T10:20:40.303Z</time>
      </trkpt>
      <trkpt lat="42.48633" lon="3.12901">
        <ele>29.767025</ele>
        <time>2022-08-30T10:20:51.675Z</time>
      </trkpt>
      <trkpt lat="42.48652" lon="3.12868">
        <ele>30.654004</ele>
        <time>2022-08-30T10:21:03.999Z</time>
      </trkpt>
      <trkpt lat="42.4866" lon="3.12835">
        <ele>30.37694</ele>
        <time>2022-08-30T10:21:14.076Z</time>
      </trkpt>
      <trkpt lat="42.48656" lon="3.12822">
        <ele>30.262452</ele>
        <time>2022-08-30T10:21:18.010Z</time>
      </trkpt>
      <trkpt lat="42.48651" lon="3.12801">
        <ele>30.081526</ele>
        <time>2022-08-30T10:21:22.543Z</time>
      </trkpt>
      <trkpt lat="42.48627" lon="3.12778">
        <ele>29.766757</ele>
        <time>2022-08-30T10:21:28.099Z</time>
      </trkpt>
      <trkpt lat="42.48587" lon="3.12741">
        <ele>29.239075</ele>
        <time>2022-08-30T10:21:34.564Z</time>
      </trkpt>
      <trkpt lat="42.48564" lon="3.12665">
        <ele>26.65736</ele>
        <time>2022-08-30T10:21:42.313Z</time>
      </trkpt>
      <trkpt lat="42.48564" lon="3.12638">
        <ele>25.03817</ele>
        <time>2022-08-30T10:21:44.767Z</time>
      </trkpt>
      <trkpt lat="42.48564" lon="3.12628">
        <ele>24.427081</ele>
        <time>2022-08-30T10:21:45.727Z</time>
      </trkpt>
      <trkpt lat="42.48565" lon="3.12628">
        <ele>24.295443</ele>
        <time>2022-08-30T10:21:45.933Z</time>
      </trkpt>
      <trkpt lat="42.48573" lon="3.12624">
        <ele>23.588168</ele>
        <time>2022-08-30T10:21:46.979Z</time>
      </trkpt>
      <trkpt lat="42.48576" lon="3.12611">
        <ele>22.796084</ele>
        <time>2022-08-30T10:21:48.143Z</time>
      </trkpt>
      <trkpt lat="42.48629" lon="3.12605">
        <ele>18.415339</ele>
        <time>2022-08-30T10:21:54.617Z</time>
      </trkpt>
      <trkpt lat="42.48671" lon="3.12621">
        <ele>14.887192</ele>
        <time>2022-08-30T10:21:59.793Z</time>
      </trkpt>
      <trkpt lat="42.48696" lon="3.12642">
        <ele>13.013786</ele>
        <time>2022-08-30T10:22:03.431Z</time>
      </trkpt>
      <trkpt lat="42.48737" lon="3.12676">
        <ele>10.425677</ele>
        <time>2022-08-30T10:22:09.459Z</time>
      </trkpt>
      <trkpt lat="42.48746" lon="3.12684">
        <ele>9.855457</ele>
        <time>2022-08-30T10:22:10.841Z</time>
      </trkpt>
      <trkpt lat="42.48758" lon="3.12692">
        <ele>9.140226</ele>
        <time>2022-08-30T10:22:12.581Z</time>
      </trkpt>
      <trkpt lat="42.48813" lon="3.12723">
        <ele>5.957238</ele>
        <time>2022-08-30T10:22:20.696Z</time>
      </trkpt>
      <trkpt lat="42.48842" lon="3.12736">
        <ele>4.462702</ele>
        <time>2022-08-30T10:22:25.385Z</time>
      </trkpt>
      <trkpt lat="42.48855" lon="3.1273">
        <ele>4.443877</ele>
        <time>2022-08-30T10:22:28.079Z</time>
      </trkpt>
      <trkpt lat="42.4886" lon="3.12747">
        <ele>4.426331</ele>
        <time>2022-08-30T10:22:30.989Z</time>
      </trkpt>
      <trkpt lat="42.48854" lon="3.12819">
        <ele>4.356427</ele>
        <time>2022-08-30T10:22:44.374Z</time>
      </trkpt>
      <trkpt lat="42.48862" lon="3.12832">
        <ele>4.340407</ele>
        <time>2022-08-30T10:22:47.760Z</time>
      </trkpt>
      <trkpt lat="42.48875" lon="3.12831">
        <ele>4.323598</ele>
        <time>2022-08-30T10:22:50.780Z</time>
      </trkpt>
      <trkpt lat="42.48881" lon="3.12829">
        <ele>4.315071</ele>
        <time>2022-08-30T10:22:52.680Z</time>
      </trkpt>
      <trkpt lat="42.489" lon="3.12819">
        <ele>4.289017</ele>
        <time>2022-08-30T10:22:58.176Z</time>
      </trkpt>
      <trkpt lat="42.48941" lon="3.12829">
        <ele>4.235462</ele>
        <time>2022-08-30T10:23:08.196Z</time>
      </trkpt>
      <trkpt lat="42.48947" lon="3.12837">
        <ele>4.479637</ele>
        <time>2022-08-30T10:23:12.773Z</time>
      </trkpt>
      <trkpt lat="42.48963" lon="3.12857">
        <ele>5.351781</ele>
        <time>2022-08-30T10:23:19.504Z</time>
      </trkpt>
      <trkpt lat="42.4898" lon="3.12881">
        <ele>6.309595</ele>
        <time>2022-08-30T10:23:29.836Z</time>
      </trkpt>
      <trkpt lat="42.49001" lon="3.12919">
        <ele>7.685727</ele>
        <time>2022-08-30T10:23:47.025Z</time>
      </trkpt>
      <trkpt lat="42.49004" lon="3.12922">
        <ele>7.845584</ele>
        <time>2022-08-30T10:23:48.908Z</time>
      </trkpt>
      <trkpt lat="42.49014" lon="3.12931">
        <ele>8.323411</ele>
        <time>2022-08-30T10:23:53.569Z</time>
      </trkpt>
      <trkpt lat="42.49011" lon="3.12971">
        <ele>9.497963</ele>
        <time>2022-08-30T10:24:10.339Z</time>
      </trkpt>
      <trkpt lat="42.49015" lon="3.12985">
        <ele>9.943517</ele>
        <time>2022-08-30T10:24:14.862Z</time>
      </trkpt>
      <trkpt lat="42.49022" lon="3.12985">
        <ele>10.217027</ele>
        <time>2022-08-30T10:24:21.331Z</time>
      </trkpt>
      <trkpt lat="42.49055" lon="3.12958">
        <ele>12.322689</ele>
        <time>2022-08-30T10:24:44.673Z</time>
      </trkpt>
      <trkpt lat="42.49106" lon="3.12916">
        <ele>18.100452</ele>
        <time>2022-08-30T10:25:29.536Z</time>
      </trkpt>
      <trkpt lat="42.49143" lon="3.12837">
        <ele>24.88255</ele>
        <time>2022-08-30T10:26:35.969Z</time>
      </trkpt>
      <trkpt lat="42.49175" lon="3.12744">
        <ele>31.394364</ele>
        <time>2022-08-30T10:27:35.954Z</time>
      </trkpt>
      <trkpt lat="42.49188" lon="3.12711">
        <ele>33.362164</ele>
        <time>2022-08-30T10:27:56.675Z</time>
      </trkpt>
      <trkpt lat="42.49193" lon="3.12711">
        <ele>33.731017</ele>
        <time>2022-08-30T10:28:00.640Z</time>
      </trkpt>
      <trkpt lat="42.49194" lon="3.12731">
        <ele>34.806081</ele>
        <time>2022-08-30T10:28:14.763Z</time>
      </trkpt>
      <trkpt lat="42.49217" lon="3.1275">
        <ele>36.766058</ele>
        <time>2022-08-30T10:28:45.114Z</time>
      </trkpt>
      <trkpt lat="42.49225" lon="3.12772">
        <ele>38.056586</ele>
        <time>2022-08-30T10:29:04.209Z</time>
      </trkpt>
      <trkpt lat="42.49227" lon="3.12824">
        <ele>40.812935</ele>
        <time>2022-08-30T10:29:43.267Z</time>
      </trkpt>
      <trkpt lat="42.49244" lon="3.1286">
        <ele>42.366634</ele>
        <time>2022-08-30T10:30:10.852Z</time>
      </trkpt>
      <trkpt lat="42.49247" lon="3.12914">
        <ele>43.505644</ele>
        <time>2022-08-30T10:30:40.597Z</time>
      </trkpt>
      <trkpt lat="42.49291" lon="3.12892">
        <ele>44.827578</ele>
        <time>2022-08-30T10:31:00.635Z</time>
      </trkpt>
      <trkpt lat="42.49312" lon="3.12923">
        <ele>45.719222</ele>
        <time>2022-08-30T10:31:13.717Z</time>
      </trkpt>
      <trkpt lat="42.49337" lon="3.12937">
        <ele>46.482185</ele>
        <time>2022-08-30T10:31:25.405Z</time>
      </trkpt>
      <trkpt lat="42.49338" lon="3.12951">
        <ele>46.773717</ele>
        <time>2022-08-30T10:31:30.403Z</time>
      </trkpt>
      <trkpt lat="42.49324" lon="3.12991">
        <ele>47.751036</ele>
        <time>2022-08-30T10:31:45.946Z</time>
      </trkpt>
      <trkpt lat="42.49334" lon="3.13018">
        <ele>48.432386</ele>
        <time>2022-08-30T10:31:59.538Z</time>
      </trkpt>
      <trkpt lat="42.49346" lon="3.13026">
        <ele>48.837827</ele>
        <time>2022-08-30T10:32:07.186Z</time>
      </trkpt>
      <trkpt lat="42.4936" lon="3.13055">
        <ele>49.636523</ele>
        <time>2022-08-30T10:32:20.127Z</time>
      </trkpt>
      <trkpt lat="42.49363" lon="3.13105">
        <ele>50.753206</ele>
        <time>2022-08-30T10:32:38.027Z</time>
      </trkpt>
      <trkpt lat="42.49367" lon="3.13111">
        <ele>50.962954</ele>
        <time>2022-08-30T10:32:40.411Z</time>
      </trkpt>
      <trkpt lat="42.49403" lon="3.13107">
        <ele>52.060332</ele>
        <time>2022-08-30T10:32:55.191Z</time>
      </trkpt>
      <trkpt lat="42.49412" lon="3.13102">
        <ele>52.361006</ele>
        <time>2022-08-30T10:33:01.482Z</time>
      </trkpt>
      <trkpt lat="42.49428" lon="3.13063">
        <ele>51.638691</ele>
        <time>2022-08-30T10:33:13.865Z</time>
      </trkpt>
      <trkpt lat="42.49444" lon="3.13049">
        <ele>51.041341</ele>
        <time>2022-08-30T10:33:20.499Z</time>
      </trkpt>
      <trkpt lat="42.49444" lon="3.13008">
        <ele>50.120564</ele>
        <time>2022-08-30T10:33:30.305Z</time>
      </trkpt>
      <trkpt lat="42.49463" lon="3.13032">
        <ele>49.333764</ele>
        <time>2022-08-30T10:33:36.808Z</time>
      </trkpt>
      <trkpt lat="42.49479" lon="3.13073">
        <ele>48.274761</ele>
        <time>2022-08-30T10:33:44.985Z</time>
      </trkpt>
      <trkpt lat="42.49498" lon="3.13095">
        <ele>47.519922</ele>
        <time>2022-08-30T10:33:50.558Z</time>
      </trkpt>
      <trkpt lat="42.49507" lon="3.13123">
        <ele>46.502088</ele>
        <time>2022-08-30T10:33:55.617Z</time>
      </trkpt>
      <trkpt lat="42.49528" lon="3.13142">
        <ele>43.855085</ele>
        <time>2022-08-30T10:34:01.023Z</time>
      </trkpt>
      <trkpt lat="42.49541" lon="3.13114">
        <ele>41.265168</ele>
        <time>2022-08-30T10:34:06.224Z</time>
      </trkpt>
      <trkpt lat="42.49568" lon="3.13094">
        <ele>37.940438</ele>
        <time>2022-08-30T10:34:12.767Z</time>
      </trkpt>
      <trkpt lat="42.49587" lon="3.13109">
        <ele>35.650516</ele>
        <time>2022-08-30T10:34:17.385Z</time>
      </trkpt>
      <trkpt lat="42.4958" lon="3.13134">
        <ele>33.525855</ele>
        <time>2022-08-30T10:34:21.546Z</time>
      </trkpt>
      <trkpt lat="42.4959" lon="3.13151">
        <ele>31.831546</ele>
        <time>2022-08-30T10:34:24.856Z</time>
      </trkpt>
      <trkpt lat="42.49652" lon="3.13161">
        <ele>26.033699</ele>
        <time>2022-08-30T10:34:37.709Z</time>
      </trkpt>
      <trkpt lat="42.49686" lon="3.13178">
        <ele>23.374559</ele>
        <time>2022-08-30T10:34:45.426Z</time>
      </trkpt>
      <trkpt lat="42.49724" lon="3.13232">
        <ele>19.325023</ele>
        <time>2022-08-30T10:34:57.941Z</time>
      </trkpt>
      <trkpt lat="42.49746" lon="3.13243">
        <ele>17.612621</ele>
        <time>2022-08-30T10:35:03.663Z</time>
      </trkpt>
      <trkpt lat="42.49774" lon="3.13313">
        <ele>14.40606</ele>
        <time>2022-08-30T10:35:19.157Z</time>
      </trkpt>
      <trkpt lat="42.49786" lon="3.1333">
        <ele>14.198496</ele>
        <time>2022-08-30T10:35:23.143Z</time>
      </trkpt>
      <trkpt lat="42.49789" lon="3.13323">
        <ele>14.129388</ele>
        <time>2022-08-30T10:35:24.706Z</time>
      </trkpt>
      <trkpt lat="42.49798" lon="3.13301">
        <ele>13.898608</ele>
        <time>2022-08-30T10:35:32.305Z</time>
      </trkpt>
      <trkpt lat="42.49848" lon="3.13221">
        <ele>12.938714</ele>
        <time>2022-08-30T10:35:55.556Z</time>
      </trkpt>
      <trkpt lat="42.49844" lon="3.13213">
        <ele>12.848315</ele>
        <time>2022-08-30T10:35:56.602Z</time>
      </trkpt>
      <trkpt lat="42.49849" lon="3.13201">
        <ele>12.721938</ele>
        <time>2022-08-30T10:35:58.869Z</time>
      </trkpt>
      <trkpt lat="42.4988" lon="3.13174">
        <ele>12.296474</ele>
        <time>2022-08-30T10:36:06.078Z</time>
      </trkpt>
      <trkpt lat="42.49927" lon="3.13118">
        <ele>11.683371</ele>
        <time>2022-08-30T10:36:19.663Z</time>
      </trkpt>
      <trkpt lat="42.49933" lon="3.13102">
        <ele>11.557005</ele>
        <time>2022-08-30T10:36:21.640Z</time>
      </trkpt>
      <trkpt lat="42.49934" lon="3.13096">
        <ele>11.513718</ele>
        <time>2022-08-30T10:36:24.681Z</time>
      </trkpt>
      <trkpt lat="42.49936" lon="3.13085">
        <ele>11.425342</ele>
        <time>2022-08-30T10:36:30.913Z</time>
      </trkpt>
      <trkpt lat="42.49933" lon="3.13008">
        <ele>10.866435</ele>
        <time>2022-08-30T10:37:10.428Z</time>
      </trkpt>
      <trkpt lat="42.49934" lon="3.13006">
        <ele>10.850425</ele>
        <time>2022-08-30T10:37:11.546Z</time>
      </trkpt>
      <trkpt lat="42.49941" lon="3.12974">
        <ele>10.624544</ele>
        <time>2022-08-30T10:37:28.385Z</time>
      </trkpt>
      <trkpt lat="42.4993" lon="3.12929">
        <ele>10.427639</ele>
        <time>2022-08-30T10:37:52.763Z</time>
      </trkpt>
      <trkpt lat="42.4993" lon="3.12912">
        <ele>10.354831</ele>
        <time>2022-08-30T10:38:01.778Z</time>
      </trkpt>
      <trkpt lat="42.49951" lon="3.12874">
        <ele>10.161377</ele>
        <time>2022-08-30T10:38:25.732Z</time>
      </trkpt>
      <trkpt lat="42.49966" lon="3.12853">
        <ele>10.036687</ele>
        <time>2022-08-30T10:38:31.638Z</time>
      </trkpt>
      <trkpt lat="42.49978" lon="3.12837">
        <ele>9.943652</ele>
        <time>2022-08-30T10:38:35.786Z</time>
      </trkpt>
      <trkpt lat="42.50036" lon="3.12675">
        <ele>8.928109</ele>
        <time>2022-08-30T10:40:07.892Z</time>
      </trkpt>
      <trkpt lat="42.50045" lon="3.12675">
        <ele>8.851265</ele>
        <time>2022-08-30T10:40:13.729Z</time>
      </trkpt>
      <trkpt lat="42.50066" lon="3.12642">
        <ele>8.554718</ele>
        <time>2022-08-30T10:40:36.244Z</time>
      </trkpt>
      <trkpt lat="42.50073" lon="3.12621">
        <ele>8.396764</ele>
        <time>2022-08-30T10:40:48.242Z</time>
      </trkpt>
      <trkpt lat="42.50096" lon="3.12597">
        <ele>8.130095</ele>
        <time>2022-08-30T10:41:08.545Z</time>
      </trkpt>
      <trkpt lat="42.50127" lon="3.12609">
        <ele>7.747463</ele>
        <time>2022-08-30T10:41:30.400Z</time>
      </trkpt>
      <trkpt lat="42.50124" lon="3.12571">
        <ele>7.325083</ele>
        <time>2022-08-30T10:41:49.824Z</time>
      </trkpt>
      <trkpt lat="42.5013" lon="3.12558">
        <ele>7.152982</ele>
        <time>2022-08-30T10:41:57.731Z</time>
      </trkpt>
      <trkpt lat="42.50135" lon="3.1255">
        <ele>7.029139</ele>
        <time>2022-08-30T10:42:03.430Z</time>
      </trkpt>
      <trkpt lat="42.50137" lon="3.12552">
        <ele>6.997022</ele>
        <time>2022-08-30T10:42:04.885Z</time>
      </trkpt>
      <trkpt lat="42.50165" lon="3.12504">
        <ele>6.320648</ele>
        <time>2022-08-30T10:42:17.472Z</time>
      </trkpt>
      <trkpt lat="42.50164" lon="3.12503">
        <ele>6.301588</ele>
        <time>2022-08-30T10:42:18.349Z</time>
      </trkpt>
      <trkpt lat="42.50166" lon="3.12501">
        <ele>6.264726</ele>
        <time>2022-08-30T10:42:20.035Z</time>
      </trkpt>
      <trkpt lat="42.50151" lon="3.12483">
        <ele>5.960299</ele>
        <time>2022-08-30T10:42:25.589Z</time>
      </trkpt>
      <trkpt lat="42.50146" lon="3.12477">
        <ele>5.867688</ele>
        <time>2022-08-30T10:42:27.411Z</time>
      </trkpt>
      <trkpt lat="42.50163" lon="3.12445">
        <ele>5.424952</ele>
        <time>2022-08-30T10:42:35.533Z</time>
      </trkpt>
      <trkpt lat="42.50174" lon="3.12425">
        <ele>5.25073</ele>
        <time>2022-08-30T10:42:40.992Z</time>
      </trkpt>
      <trkpt lat="42.50212" lon="3.12376">
        <ele>5.126584</ele>
        <time>2022-08-30T10:42:56.428Z</time>
      </trkpt>
      <trkpt lat="42.50283" lon="3.12333">
        <ele>4.940946</ele>
        <time>2022-08-30T10:43:21.087Z</time>
      </trkpt>
      <trkpt lat="42.50289" lon="3.12329">
        <ele>4.924385</ele>
        <time>2022-08-30T10:43:23.224Z</time>
      </trkpt>
      <trkpt lat="42.50298" lon="3.12325">
        <ele>4.902253</ele>
        <time>2022-08-30T10:43:26.242Z</time>
      </trkpt>
      <trkpt lat="42.50299" lon="3.12325">
        <ele>4.899066</ele>
        <time>2022-08-30T10:43:26.706Z</time>
      </trkpt>
      <trkpt lat="42.50298" lon="3.1232">
        <ele>4.889557</ele>
        <time>2022-08-30T10:43:29.482Z</time>
      </trkpt>
      <trkpt lat="42.50307" lon="3.12315">
        <ele>4.866531</ele>
        <time>2022-08-30T10:43:36.183Z</time>
      </trkpt>
      <trkpt lat="42.50315" lon="3.12319">
        <ele>4.846202</ele>
        <time>2022-08-30T10:43:42.097Z</time>
      </trkpt>
      <trkpt lat="42.50319" lon="3.12383">
        <ele>5.093782</ele>
        <time>2022-08-30T10:44:15.137Z</time>
      </trkpt>
      <trkpt lat="42.50345" lon="3.124">
        <ele>5.252137</ele>
        <time>2022-08-30T10:44:34.979Z</time>
      </trkpt>
      <trkpt lat="42.50386" lon="3.12398">
        <ele>5.476338</ele>
        <time>2022-08-30T10:45:03.102Z</time>
      </trkpt>
      <trkpt lat="42.50389" lon="3.12398">
        <ele>5.492427</ele>
        <time>2022-08-30T10:45:05.063Z</time>
      </trkpt>
      <trkpt lat="42.50406" lon="3.12403">
        <ele>5.589533</ele>
        <time>2022-08-30T10:45:17.242Z</time>
      </trkpt>
      <trkpt lat="42.50423" lon="3.12393">
        <ele>5.692141</ele>
        <time>2022-08-30T10:45:30.091Z</time>
      </trkpt>
      <trkpt lat="42.50429" lon="3.12319">
        <ele>5.677421</ele>
        <time>2022-08-30T10:46:08.423Z</time>
      </trkpt>
      <trkpt lat="42.5043" lon="3.12316">
        <ele>5.663632</ele>
        <time>2022-08-30T10:46:10.117Z</time>
      </trkpt>
      <trkpt lat="42.50439" lon="3.123">
        <ele>5.583866</ele>
        <time>2022-08-30T10:46:20.015Z</time>
      </trkpt>
      <trkpt lat="42.50461" lon="3.12286">
        <ele>5.44686</ele>
        <time>2022-08-30T10:46:27.319Z</time>
      </trkpt>
      <trkpt lat="42.50465" lon="3.12283">
        <ele>5.423575</ele>
        <time>2022-08-30T10:46:28.559Z</time>
      </trkpt>
      <trkpt lat="42.50496" lon="3.12271">
        <ele>5.241447</ele>
        <time>2022-08-30T10:46:51.063Z</time>
      </trkpt>
      <trkpt lat="42.50528" lon="3.12267">
        <ele>5.059513</ele>
        <time>2022-08-30T10:47:13.533Z</time>
      </trkpt>
      <trkpt lat="42.50567" lon="3.12271">
        <ele>4.835348</ele>
        <time>2022-08-30T10:47:41.262Z</time>
      </trkpt>
      <trkpt lat="42.50584" lon="3.12285">
        <ele>5.343553</ele>
        <time>2022-08-30T10:47:54.778Z</time>
      </trkpt>
      <trkpt lat="42.50612" lon="3.12322">
        <ele>6.474977</ele>
        <time>2022-08-30T10:48:22.155Z</time>
      </trkpt>
      <trkpt lat="42.50614" lon="3.12355">
        <ele>7.171751</ele>
        <time>2022-08-30T10:48:39.059Z</time>
      </trkpt>
      <trkpt lat="42.50621" lon="3.12371">
        <ele>7.556304</ele>
        <time>2022-08-30T10:48:48.390Z</time>
      </trkpt>
      <trkpt lat="42.50614" lon="3.12385">
        <ele>7.923977</ele>
        <time>2022-08-30T10:48:57.336Z</time>
      </trkpt>
      <trkpt lat="42.50617" lon="3.12406">
        <ele>8.390022</ele>
        <time>2022-08-30T10:49:08.599Z</time>
      </trkpt>
      <trkpt lat="42.50673" lon="3.1237">
        <ele>10.290519</ele>
        <time>2022-08-30T10:49:44.591Z</time>
      </trkpt>
      <trkpt lat="42.50696" lon="3.12377">
        <ele>11.50314</ele>
        <time>2022-08-30T10:49:57.801Z</time>
      </trkpt>
      <trkpt lat="42.50694" lon="3.12395">
        <ele>12.182314</ele>
        <time>2022-08-30T10:50:06.668Z</time>
      </trkpt>
      <trkpt lat="42.50697" lon="3.12411">
        <ele>12.803012</ele>
        <time>2022-08-30T10:50:13.015Z</time>
      </trkpt>
      <trkpt lat="42.50708" lon="3.12429">
        <ele>13.654087</ele>
        <time>2022-08-30T10:50:24.469Z</time>
      </trkpt>
      <trkpt lat="42.50765" lon="3.12425">
        <ele>16.534413</ele>
        <time>2022-08-30T10:50:58.492Z</time>
      </trkpt>
      <trkpt lat="42.50788" lon="3.12432">
        <ele>17.717231</ele>
        <time>2022-08-30T10:51:12.780Z</time>
      </trkpt>
      <trkpt lat="42.50814" lon="3.12451">
        <ele>19.083242</ele>
        <time>2022-08-30T10:51:28.443Z</time>
      </trkpt>
      <trkpt lat="42.50831" lon="3.12488">
        <ele>19.93235</ele>
        <time>2022-08-30T10:51:42.411Z</time>
      </trkpt>
      <trkpt lat="42.50829" lon="3.12497">
        <ele>20.115606</ele>
        <time>2022-08-30T10:51:45.306Z</time>
      </trkpt>
      <trkpt lat="42.50773" lon="3.12527">
        <ele>21.710878</ele>
        <time>2022-08-30T10:52:09.426Z</time>
      </trkpt>
      <trkpt lat="42.50765" lon="3.12539">
        <ele>22.022508</ele>
        <time>2022-08-30T10:52:14.438Z</time>
      </trkpt>
      <trkpt lat="42.50766" lon="3.12553">
        <ele>22.302144</ele>
        <time>2022-08-30T10:52:18.762Z</time>
      </trkpt>
      <trkpt lat="42.50781" lon="3.12571">
        <ele>22.822017</ele>
        <time>2022-08-30T10:52:27.536Z</time>
      </trkpt>
      <trkpt lat="42.50847" lon="3.12626">
        <ele>25.097745</ele>
        <time>2022-08-30T10:53:04.186Z</time>
      </trkpt>
      <trkpt lat="42.5089" lon="3.12652">
        <ele>26.592741</ele>
        <time>2022-08-30T10:53:26.918Z</time>
      </trkpt>
      <trkpt lat="42.50896" lon="3.12664">
        <ele>26.909643</ele>
        <time>2022-08-30T10:53:32.933Z</time>
      </trkpt>
      <trkpt lat="42.50891" lon="3.12695">
        <ele>27.658783</ele>
        <time>2022-08-30T10:53:43.267Z</time>
      </trkpt>
      <trkpt lat="42.50896" lon="3.12714">
        <ele>28.129993</ele>
        <time>2022-08-30T10:53:51.663Z</time>
      </trkpt>
      <trkpt lat="42.50917" lon="3.12726">
        <ele>28.828529</ele>
        <time>2022-08-30T10:54:00.813Z</time>
      </trkpt>
      <trkpt lat="42.50959" lon="3.12725">
        <ele>29.751885</ele>
        <time>2022-08-30T10:54:21.558Z</time>
      </trkpt>
      <trkpt lat="42.50999" lon="3.1275">
        <ele>30.371976</ele>
        <time>2022-08-30T10:54:42.119Z</time>
      </trkpt>
      <trkpt lat="42.51015" lon="3.12754">
        <ele>30.600932</ele>
        <time>2022-08-30T10:54:48.331Z</time>
      </trkpt>
      <trkpt lat="42.51036" lon="3.12742">
        <ele>30.927429</ele>
        <time>2022-08-30T10:54:58.184Z</time>
      </trkpt>
      <trkpt lat="42.51068" lon="3.12707">
        <ele>31.505107</ele>
        <time>2022-08-30T10:55:11.390Z</time>
      </trkpt>
      <trkpt lat="42.51077" lon="3.12708">
        <ele>31.626874</ele>
        <time>2022-08-30T10:55:14.285Z</time>
      </trkpt>
      <trkpt lat="42.51078" lon="3.12773">
        <ele>31.642974</ele>
        <time>2022-08-30T10:55:28.291Z</time>
      </trkpt>
      <trkpt lat="42.51085" lon="3.12802">
        <ele>31.356406</ele>
        <time>2022-08-30T10:55:34.915Z</time>
      </trkpt>
      <trkpt lat="42.51062" lon="3.12918">
        <ele>30.255051</ele>
        <time>2022-08-30T10:56:01.084Z</time>
      </trkpt>
      <trkpt lat="42.51069" lon="3.12937">
        <ele>30.060851</ele>
        <time>2022-08-30T10:56:05.530Z</time>
      </trkpt>
      <trkpt lat="42.51109" lon="3.12986">
        <ele>29.928749</ele>
        <time>2022-08-30T10:56:19.193Z</time>
      </trkpt>
      <trkpt lat="42.51112" lon="3.12996">
        <ele>29.999366</ele>
        <time>2022-08-30T10:56:21.388Z</time>
      </trkpt>
      <trkpt lat="42.51111" lon="3.13029">
        <ele>30.215319</ele>
        <time>2022-08-30T10:56:28.796Z</time>
      </trkpt>
      <trkpt lat="42.51105" lon="3.13051">
        <ele>30.373601</ele>
        <time>2022-08-30T10:56:34.178Z</time>
      </trkpt>
      <trkpt lat="42.51077" lon="3.13091">
        <ele>30.727101</ele>
        <time>2022-08-30T10:56:46.798Z</time>
      </trkpt>
      <trkpt lat="42.51079" lon="3.13119">
        <ele>30.913598</ele>
        <time>2022-08-30T10:56:52.548Z</time>
      </trkpt>
      <trkpt lat="42.51096" lon="3.13148">
        <ele>31.154587</ele>
        <time>2022-08-30T10:57:08.165Z</time>
      </trkpt>
      <trkpt lat="42.51108" lon="3.1314">
        <ele>31.274437</ele>
        <time>2022-08-30T10:57:16.219Z</time>
      </trkpt>
      <trkpt lat="42.51116" lon="3.13118">
        <ele>32.667721</ele>
        <time>2022-08-30T10:57:31.551Z</time>
      </trkpt>
      <trkpt lat="42.51121" lon="3.13112">
        <ele>33.186316</ele>
        <time>2022-08-30T10:57:35.109Z</time>
      </trkpt>
      <trkpt lat="42.51145" lon="3.13077">
        <ele>36.155084</ele>
        <time>2022-08-30T10:58:00.333Z</time>
      </trkpt>
      <trkpt lat="42.51172" lon="3.13008">
        <ele>40.96343</ele>
        <time>2022-08-30T10:58:41.390Z</time>
      </trkpt>
      <trkpt lat="42.51182" lon="3.12967">
        <ele>43.696651</ele>
        <time>2022-08-30T10:59:09.099Z</time>
      </trkpt>
      <trkpt lat="42.51181" lon="3.12955">
        <ele>44.421441</ele>
        <time>2022-08-30T10:59:17.051Z</time>
      </trkpt>
      <trkpt lat="42.51151" lon="3.1291">
        <ele>48.263036</ele>
        <time>2022-08-30T10:59:53.273Z</time>
      </trkpt>
      <trkpt lat="42.51146" lon="3.12891">
        <ele>49.573111</ele>
        <time>2022-08-30T11:00:05.505Z</time>
      </trkpt>
      <trkpt lat="42.51145" lon="3.12872">
        <ele>50.821624</ele>
        <time>2022-08-30T11:00:18.069Z</time>
      </trkpt>
      <trkpt lat="42.51163" lon="3.12831">
        <ele>53.861267</ele>
        <time>2022-08-30T11:00:47.694Z</time>
      </trkpt>
      <trkpt lat="42.51165" lon="3.12786">
        <ele>56.785473</ele>
        <time>2022-08-30T11:01:15.017Z</time>
      </trkpt>
      <trkpt lat="42.5118" lon="3.12754">
        <ele>59.144751</ele>
        <time>2022-08-30T11:01:29.637Z</time>
      </trkpt>
      <trkpt lat="42.51182" lon="3.12736">
        <ele>60.372514</ele>
        <time>2022-08-30T11:01:36.949Z</time>
      </trkpt>
      <trkpt lat="42.51174" lon="3.12694">
        <ele>62.849754</ele>
        <time>2022-08-30T11:01:59.209Z</time>
      </trkpt>
      <trkpt lat="42.51174" lon="3.12668">
        <ele>64.016321</ele>
        <time>2022-08-30T11:02:11.964Z</time>
      </trkpt>
      <trkpt lat="42.51179" lon="3.12648">
        <ele>64.976646</ele>
        <time>2022-08-30T11:02:22.650Z</time>
      </trkpt>
      <trkpt lat="42.51173" lon="3.12593">
        <ele>67.503919</ele>
        <time>2022-08-30T11:02:49.619Z</time>
      </trkpt>
      <trkpt lat="42.51154" lon="3.12541">
        <ele>70.14757</ele>
        <time>2022-08-30T11:03:16.898Z</time>
      </trkpt>
      <trkpt lat="42.51153" lon="3.12524">
        <ele>70.907542</ele>
        <time>2022-08-30T11:03:26.716Z</time>
      </trkpt>
      <trkpt lat="42.51166" lon="3.12519">
        <ele>71.728245</ele>
        <time>2022-08-30T11:03:34.527Z</time>
      </trkpt>
      <trkpt lat="42.51192" lon="3.1249">
        <ele>73.294747</ele>
        <time>2022-08-30T11:03:53.015Z</time>
      </trkpt>
      <trkpt lat="42.51216" lon="3.12445">
        <ele>73.741493</ele>
        <time>2022-08-30T11:04:12.576Z</time>
      </trkpt>
      <trkpt lat="42.51243" lon="3.12409">
        <ele>74.156963</ele>
        <time>2022-08-30T11:04:28.265Z</time>
      </trkpt>
      <trkpt lat="42.51235" lon="3.12383">
        <ele>74.380968</ele>
        <time>2022-08-30T11:04:37.165Z</time>
      </trkpt>
      <trkpt lat="42.51232" lon="3.12338">
        <ele>74.747246</ele>
        <time>2022-08-30T11:04:46.958Z</time>
      </trkpt>
      <trkpt lat="42.51266" lon="3.12238">
        <ele>73.072583</ele>
        <time>2022-08-30T11:05:08.653Z</time>
      </trkpt>
      <trkpt lat="42.5129" lon="3.12198">
        <ele>71.299959</ele>
        <time>2022-08-30T11:05:17.617Z</time>
      </trkpt>
      <trkpt lat="42.51312" lon="3.12172">
        <ele>69.923075</ele>
        <time>2022-08-30T11:05:24.481Z</time>
      </trkpt>
      <trkpt lat="42.51315" lon="3.12163">
        <ele>69.573865</ele>
        <time>2022-08-30T11:05:26.204Z</time>
      </trkpt>
      <trkpt lat="42.51303" lon="3.1214">
        <ele>68.616836</ele>
        <time>2022-08-30T11:05:31.005Z</time>
      </trkpt>
      <trkpt lat="42.51301" lon="3.12105">
        <ele>67.422159</ele>
        <time>2022-08-30T11:05:36.974Z</time>
      </trkpt>
      <trkpt lat="42.51297" lon="3.12092">
        <ele>66.922933</ele>
        <time>2022-08-30T11:05:39.546Z</time>
      </trkpt>
      <trkpt lat="42.51265" lon="3.12064">
        <ele>65.753139</ele>
        <time>2022-08-30T11:05:48.739Z</time>
      </trkpt>
      <trkpt lat="42.51244" lon="3.12042">
        <ele>64.978338</ele>
        <time>2022-08-30T11:05:55.375Z</time>
      </trkpt>
      <trkpt lat="42.51185" lon="3.12028">
        <ele>63.247815</ele>
        <time>2022-08-30T11:06:10.359Z</time>
      </trkpt>
      <trkpt lat="42.51169" lon="3.11999">
        <ele>62.49055</ele>
        <time>2022-08-30T11:06:17.171Z</time>
      </trkpt>
      <trkpt lat="42.51145" lon="3.1193">
        <ele>62.166968</ele>
        <time>2022-08-30T11:06:40.602Z</time>
      </trkpt>
      <trkpt lat="42.51146" lon="3.11911">
        <ele>62.520252</ele>
        <time>2022-08-30T11:06:44.773Z</time>
      </trkpt>
      <trkpt lat="42.51176" lon="3.11879">
        <ele>63.527112</ele>
        <time>2022-08-30T11:07:01.385Z</time>
      </trkpt>
      <trkpt lat="42.51182" lon="3.11861">
        <ele>63.910156</ele>
        <time>2022-08-30T11:07:10.520Z</time>
      </trkpt>
      <trkpt lat="42.51184" lon="3.11828">
        <ele>64.538667</ele>
        <time>2022-08-30T11:07:18.627Z</time>
      </trkpt>
      <trkpt lat="42.51187" lon="3.11828">
        <ele>64.601416</ele>
        <time>2022-08-30T11:07:19.727Z</time>
      </trkpt>
      <trkpt lat="42.51185" lon="3.11781">
        <ele>65.516145</ele>
        <time>2022-08-30T11:07:34.757Z</time>
      </trkpt>
      <trkpt lat="42.51162" lon="3.11751">
        <ele>66.266986</ele>
        <time>2022-08-30T11:07:48.173Z</time>
      </trkpt>
      <trkpt lat="42.51138" lon="3.11703">
        <ele>66.682774</ele>
        <time>2022-08-30T11:08:06.548Z</time>
      </trkpt>
      <trkpt lat="42.51129" lon="3.11683">
        <ele>66.849857</ele>
        <time>2022-08-30T11:08:13.925Z</time>
      </trkpt>
      <trkpt lat="42.51139" lon="3.11667">
        <ele>67.000692</ele>
        <time>2022-08-30T11:08:20.584Z</time>
      </trkpt>
      <trkpt lat="42.51164" lon="3.11676">
        <ele>67.249976</ele>
        <time>2022-08-30T11:08:31.587Z</time>
      </trkpt>
      <trkpt lat="42.51185" lon="3.11652">
        <ele>67.514066</ele>
        <time>2022-08-30T11:08:43.245Z</time>
      </trkpt>
      <trkpt lat="42.51182" lon="3.11649">
        <ele>67.548196</ele>
        <time>2022-08-30T11:08:44.744Z</time>
      </trkpt>
      <trkpt lat="42.51184" lon="3.11645">
        <ele>67.585587</ele>
        <time>2022-08-30T11:08:45.341Z</time>
      </trkpt>
      <trkpt lat="42.51192" lon="3.11612">
        <ele>67.833379</ele>
        <time>2022-08-30T11:08:50.566Z</time>
      </trkpt>
      <trkpt lat="42.51201" lon="3.11571">
        <ele>67.353713</ele>
        <time>2022-08-30T11:08:56.638Z</time>
      </trkpt>
      <trkpt lat="42.51235" lon="3.11511">
        <ele>65.381181</ele>
        <time>2022-08-30T11:09:06.653Z</time>
      </trkpt>
      <trkpt lat="42.51239" lon="3.11486">
        <ele>64.719793</ele>
        <time>2022-08-30T11:09:10.056Z</time>
      </trkpt>
      <trkpt lat="42.51256" lon="3.11443">
        <ele>63.416661</ele>
        <time>2022-08-30T11:09:15.809Z</time>
      </trkpt>
      <trkpt lat="42.51272" lon="3.11346">
        <ele>59.654499</ele>
        <time>2022-08-30T11:09:26.530Z</time>
      </trkpt>
      <trkpt lat="42.51274" lon="3.11336">
        <ele>58.969178</ele>
        <time>2022-08-30T11:09:28.199Z</time>
      </trkpt>
      <trkpt lat="42.51282" lon="3.1133">
        <ele>58.146901</ele>
        <time>2022-08-30T11:09:30.168Z</time>
      </trkpt>
      <trkpt lat="42.51279" lon="3.11395">
        <ele>53.820613</ele>
        <time>2022-08-30T11:09:36.079Z</time>
      </trkpt>
      <trkpt lat="42.51276" lon="3.11436">
        <ele>51.114805</ele>
        <time>2022-08-30T11:09:39.678Z</time>
      </trkpt>
      <trkpt lat="42.51277" lon="3.11444">
        <ele>50.584813</ele>
        <time>2022-08-30T11:09:40.405Z</time>
      </trkpt>
      <trkpt lat="42.51279" lon="3.11469">
        <ele>48.950096</ele>
        <time>2022-08-30T11:09:42.574Z</time>
      </trkpt>
      <trkpt lat="42.5129" lon="3.11501">
        <ele>46.635366</ele>
        <time>2022-08-30T11:09:45.708Z</time>
      </trkpt>
      <trkpt lat="42.51308" lon="3.11521">
        <ele>44.523801</ele>
        <time>2022-08-30T11:09:48.469Z</time>
      </trkpt>
      <trkpt lat="42.51325" lon="3.11533">
        <ele>42.762865</ele>
        <time>2022-08-30T11:09:50.847Z</time>
      </trkpt>
      <trkpt lat="42.51345" lon="3.11548">
        <ele>40.677569</ele>
        <time>2022-08-30T11:09:53.653Z</time>
      </trkpt>
      <trkpt lat="42.51364" lon="3.11561">
        <ele>38.761947</ele>
        <time>2022-08-30T11:09:56.206Z</time>
      </trkpt>
      <trkpt lat="42.51401" lon="3.11587">
        <ele>34.96334</ele>
        <time>2022-08-30T11:10:01.314Z</time>
      </trkpt>
      <trkpt lat="42.51421" lon="3.11594">
        <ele>33.112286</ele>
        <time>2022-08-30T11:10:03.783Z</time>
      </trkpt>
      <trkpt lat="42.51453" lon="3.11594">
        <ele>30.181789</ele>
        <time>2022-08-30T11:10:07.607Z</time>
      </trkpt>
      <trkpt lat="42.51472" lon="3.11586">
        <ele>28.620078</ele>
        <time>2022-08-30T11:10:10.073Z</time>
      </trkpt>
      <trkpt lat="42.51503" lon="3.11554">
        <ele>26.109442</ele>
        <time>2022-08-30T11:10:14.999Z</time>
      </trkpt>
      <trkpt lat="42.51552" lon="3.11456">
        <ele>20.545623</ele>
        <time>2022-08-30T11:10:26.055Z</time>
      </trkpt>
      <trkpt lat="42.51555" lon="3.1145">
        <ele>20.175373</ele>
        <time>2022-08-30T11:10:26.844Z</time>
      </trkpt>
      <trkpt lat="42.51572" lon="3.1142">
        <ele>18.378577</ele>
        <time>2022-08-30T11:10:30.568Z</time>
      </trkpt>
      <trkpt lat="42.51588" lon="3.11386">
        <ele>17.330489</ele>
        <time>2022-08-30T11:10:34.610Z</time>
      </trkpt>
      <trkpt lat="42.51589" lon="3.11376">
        <ele>17.193563</ele>
        <time>2022-08-30T11:10:35.584Z</time>
      </trkpt>
      <trkpt lat="42.51569" lon="3.11369">
        <ele>16.818222</ele>
        <time>2022-08-30T11:10:38.458Z</time>
      </trkpt>
      <trkpt lat="42.51545" lon="3.11356">
        <ele>16.35586</ele>
        <time>2022-08-30T11:10:42.263Z</time>
      </trkpt>
      <trkpt lat="42.51541" lon="3.1135">
        <ele>16.249468</ele>
        <time>2022-08-30T11:10:43.196Z</time>
      </trkpt>
      <trkpt lat="42.51538" lon="3.11343">
        <ele>16.133803</ele>
        <time>2022-08-30T11:10:44.222Z</time>
      </trkpt>
      <trkpt lat="42.51525" lon="3.11312">
        <ele>15.654634</ele>
        <time>2022-08-30T11:10:49.181Z</time>
      </trkpt>
      <trkpt lat="42.51469" lon="3.11231">
        <ele>14.284174</ele>
        <time>2022-08-30T11:11:04.216Z</time>
      </trkpt>
      <trkpt lat="42.51466" lon="3.11212">
        <ele>14.148968</ele>
        <time>2022-08-30T11:11:07.375Z</time>
      </trkpt>
      <trkpt lat="42.51477" lon="3.1119">
        <ele>13.967854</ele>
        <time>2022-08-30T11:11:11.226Z</time>
      </trkpt>
      <trkpt lat="42.51515" lon="3.11168">
        <ele>13.577127</ele>
        <time>2022-08-30T11:11:19.494Z</time>
      </trkpt>
      <trkpt lat="42.51525" lon="3.11165">
        <ele>13.48225</ele>
        <time>2022-08-30T11:11:21.267Z</time>
      </trkpt>
      <trkpt lat="42.51532" lon="3.11163">
        <ele>13.407638</ele>
        <time>2022-08-30T11:11:22.706Z</time>
      </trkpt>
      <trkpt lat="42.51555" lon="3.11165">
        <ele>13.194739</ele>
        <time>2022-08-30T11:11:26.209Z</time>
      </trkpt>
      <trkpt lat="42.51569" lon="3.11157">
        <ele>13.046553</ele>
        <time>2022-08-30T11:11:28.872Z</time>
      </trkpt>
      <trkpt lat="42.51579" lon="3.1114">
        <ele>12.895259</ele>
        <time>2022-08-30T11:11:31.257Z</time>
      </trkpt>
      <trkpt lat="42.51586" lon="3.11127">
        <ele>12.785923</ele>
        <time>2022-08-30T11:11:33.089Z</time>
      </trkpt>
      <trkpt lat="42.51584" lon="3.11117">
        <ele>12.711007</ele>
        <time>2022-08-30T11:11:34.339Z</time>
      </trkpt>
      <trkpt lat="42.51582" lon="3.11094">
        <ele>12.339618</ele>
        <time>2022-08-30T11:11:36.839Z</time>
      </trkpt>
      <trkpt lat="42.5158" lon="3.11033">
        <ele>11.351513</ele>
        <time>2022-08-30T11:11:43.214Z</time>
      </trkpt>
      <trkpt lat="42.5159" lon="3.11017">
        <ele>10.994246</ele>
        <time>2022-08-30T11:11:45.507Z</time>
      </trkpt>
      <trkpt lat="42.51701" lon="3.10985">
        <ele>8.715848</ele>
        <time>2022-08-30T11:12:02.961Z</time>
      </trkpt>
      <trkpt lat="42.5171" lon="3.10977">
        <ele>8.740738</ele>
        <time>2022-08-30T11:12:04.887Z</time>
      </trkpt>
      <trkpt lat="42.51712" lon="3.10958">
        <ele>8.772847</ele>
        <time>2022-08-30T11:12:07.334Z</time>
      </trkpt>
      <trkpt lat="42.51706" lon="3.10899">
        <ele>8.874163</ele>
        <time>2022-08-30T11:12:15.689Z</time>
      </trkpt>
      <trkpt lat="42.51684" lon="3.10815">
        <ele>9.025807</ele>
        <time>2022-08-30T11:12:32.951Z</time>
      </trkpt>
      <trkpt lat="42.516" lon="3.10727">
        <ele>8.591747</ele>
        <time>2022-08-30T11:12:57.089Z</time>
      </trkpt>
      <trkpt lat="42.51588" lon="3.10715">
        <ele>8.484119</ele>
        <time>2022-08-30T11:13:00.155Z</time>
      </trkpt>
      <trkpt lat="42.51572" lon="3.10699">
        <ele>8.340939</ele>
        <time>2022-08-30T11:13:03.801Z</time>
      </trkpt>
      <trkpt lat="42.5157" lon="3.10686">
        <ele>8.26721</ele>
        <time>2022-08-30T11:13:05.693Z</time>
      </trkpt>
      <trkpt lat="42.51574" lon="3.10668">
        <ele>8.164244</ele>
        <time>2022-08-30T11:13:07.791Z</time>
      </trkpt>
      <trkpt lat="42.51598" lon="3.10623">
        <ele>7.868218</ele>
        <time>2022-08-30T11:13:13.966Z</time>
      </trkpt>
      <trkpt lat="42.51603" lon="3.10611">
        <ele>7.79609</ele>
        <time>2022-08-30T11:13:15.502Z</time>
      </trkpt>
      <trkpt lat="42.51605" lon="3.10608">
        <ele>7.766558</ele>
        <time>2022-08-30T11:13:16.008Z</time>
      </trkpt>
      <trkpt lat="42.51606" lon="3.10603">
        <ele>7.738516</ele>
        <time>2022-08-30T11:13:16.500Z</time>
      </trkpt>
      <trkpt lat="42.5161" lon="3.10591">
        <ele>7.654999</ele>
        <time>2022-08-30T11:13:17.813Z</time>
      </trkpt>
      <trkpt lat="42.51611" lon="3.1059">
        <ele>7.643384</ele>
        <time>2022-08-30T11:13:17.992Z</time>
      </trkpt>
      <trkpt lat="42.51635" lon="3.10554">
        <ele>7.339697</ele>
        <time>2022-08-30T11:13:23.020Z</time>
      </trkpt>
      <trkpt lat="42.51652" lon="3.10551">
        <ele>7.195398</ele>
        <time>2022-08-30T11:13:25.444Z</time>
      </trkpt>
      <trkpt lat="42.51668" lon="3.10562">
        <ele>7.044897</ele>
        <time>2022-08-30T11:13:28.094Z</time>
      </trkpt>
      <trkpt lat="42.51674" lon="3.10567">
        <ele>6.983617</ele>
        <time>2022-08-30T11:13:29.115Z</time>
      </trkpt>
      <trkpt lat="42.51744" lon="3.1063">
        <ele>6.271498</ele>
        <time>2022-08-30T11:13:49.456Z</time>
      </trkpt>
      <trkpt lat="42.51777" lon="3.10563">
        <ele>8.905963</ele>
        <time>2022-08-30T11:14:10.643Z</time>
      </trkpt>
      <trkpt lat="42.51781" lon="3.10555">
        <ele>9.233679</ele>
        <time>2022-08-30T11:14:13.273Z</time>
      </trkpt>
      <trkpt lat="42.51796" lon="3.10524">
        <ele>10.459357</ele>
        <time>2022-08-30T11:14:25.002Z</time>
      </trkpt>
      <trkpt lat="42.51814" lon="3.10488">
        <ele>11.885632</ele>
        <time>2022-08-30T11:14:39.385Z</time>
      </trkpt>
      <trkpt lat="42.5183" lon="3.10454">
        <ele>13.245502</ele>
        <time>2022-08-30T11:14:53.670Z</time>
      </trkpt>
      <trkpt lat="42.51839" lon="3.10436">
        <ele>13.956686</ele>
        <time>2022-08-30T11:15:02.181Z</time>
      </trkpt>
      <trkpt lat="42.5184" lon="3.10422">
        <ele>14.485158</ele>
        <time>2022-08-30T11:15:07.969Z</time>
      </trkpt>
      <trkpt lat="42.51813" lon="3.10391">
        <ele>16.661451</ele>
        <time>2022-08-30T11:15:26.798Z</time>
      </trkpt>
      <trkpt lat="42.5181" lon="3.10382">
        <ele>17.13006</ele>
        <time>2022-08-30T11:15:30.824Z</time>
      </trkpt>
      <trkpt lat="42.51817" lon="3.10365">
        <ele>18.023927</ele>
        <time>2022-08-30T11:15:38.571Z</time>
      </trkpt>
      <trkpt lat="42.51816" lon="3.10344">
        <ele>18.976723</ele>
        <time>2022-08-30T11:15:46.527Z</time>
      </trkpt>
      <trkpt lat="42.51785" lon="3.10356">
        <ele>20.965566</ele>
        <time>2022-08-30T11:16:03.013Z</time>
      </trkpt>
      <trkpt lat="42.5178" lon="3.10345">
        <ele>21.560351</ele>
        <time>2022-08-30T11:16:07.749Z</time>
      </trkpt>
      <trkpt lat="42.51849" lon="3.10245">
        <ele>28.289551</ele>
        <time>2022-08-30T11:16:57.413Z</time>
      </trkpt>
      <trkpt lat="42.51872" lon="3.10203">
        <ele>31.138646</ele>
        <time>2022-08-30T11:17:19.629Z</time>
      </trkpt>
      <trkpt lat="42.51873" lon="3.10191">
        <ele>31.82909</ele>
        <time>2022-08-30T11:17:24.926Z</time>
      </trkpt>
      <trkpt lat="42.51866" lon="3.10151">
        <ele>34.104295</ele>
        <time>2022-08-30T11:17:46.372Z</time>
      </trkpt>
      <trkpt lat="42.51876" lon="3.10097">
        <ele>37.131423</ele>
        <time>2022-08-30T11:18:11.448Z</time>
      </trkpt>
      <trkpt lat="42.51874" lon="3.1008">
        <ele>38.097478</ele>
        <time>2022-08-30T11:18:19.153Z</time>
      </trkpt>
      <trkpt lat="42.51865" lon="3.10059">
        <ele>39.399766</ele>
        <time>2022-08-30T11:18:29.490Z</time>
      </trkpt>
      <trkpt lat="42.5186" lon="3.10047">
        <ele>40.15759</ele>
        <time>2022-08-30T11:18:34.305Z</time>
      </trkpt>
      <trkpt lat="42.51839" lon="3.10032">
        <ele>41.786738</ele>
        <time>2022-08-30T11:18:46.599Z</time>
      </trkpt>
      <trkpt lat="42.51845" lon="3.10001">
        <ele>43.42009</ele>
        <time>2022-08-30T11:18:58.745Z</time>
      </trkpt>
      <trkpt lat="42.51852" lon="3.09988">
        <ele>44.279569</ele>
        <time>2022-08-30T11:19:04.732Z</time>
      </trkpt>
      <trkpt lat="42.51862" lon="3.09986">
        <ele>44.991706</ele>
        <time>2022-08-30T11:19:08.392Z</time>
      </trkpt>
      <trkpt lat="42.51911" lon="3.1005">
        <ele>49.764322</ele>
        <time>2022-08-30T11:19:47.101Z</time>
      </trkpt>
      <trkpt lat="42.51924" lon="3.10074">
        <ele>51.306321</ele>
        <time>2022-08-30T11:20:02.380Z</time>
      </trkpt>
      <trkpt lat="42.51917" lon="3.10095">
        <ele>52.484256</ele>
        <time>2022-08-30T11:20:12.020Z</time>
      </trkpt>
      <trkpt lat="42.51921" lon="3.10119">
        <ele>53.734669</ele>
        <time>2022-08-30T11:20:23.025Z</time>
      </trkpt>
      <trkpt lat="42.51931" lon="3.10122">
        <ele>54.438388</ele>
        <time>2022-08-30T11:20:27.740Z</time>
      </trkpt>
      <trkpt lat="42.51948" lon="3.10094">
        <ele>56.306293</ele>
        <time>2022-08-30T11:20:41.939Z</time>
      </trkpt>
      <trkpt lat="42.51991" lon="3.10092">
        <ele>59.282818</ele>
        <time>2022-08-30T11:21:03.018Z</time>
      </trkpt>
      <trkpt lat="42.52006" lon="3.10076">
        <ele>60.651711</ele>
        <time>2022-08-30T11:21:12.808Z</time>
      </trkpt>
      <trkpt lat="42.5201" lon="3.09971">
        <ele>66.048672</ele>
        <time>2022-08-30T11:22:06.854Z</time>
      </trkpt>
      <trkpt lat="42.52004" lon="3.09947">
        <ele>67.324463</ele>
        <time>2022-08-30T11:22:19.698Z</time>
      </trkpt>
      <trkpt lat="42.51991" lon="3.09929">
        <ele>68.630208</ele>
        <time>2022-08-30T11:22:33.854Z</time>
      </trkpt>
      <trkpt lat="42.51977" lon="3.09928">
        <ele>69.570837</ele>
        <time>2022-08-30T11:22:42.423Z</time>
      </trkpt>
      <trkpt lat="42.51957" lon="3.09941">
        <ele>71.079688</ele>
        <time>2022-08-30T11:22:57.492Z</time>
      </trkpt>
      <trkpt lat="42.51948" lon="3.09928">
        <ele>71.982746</ele>
        <time>2022-08-30T11:23:04.877Z</time>
      </trkpt>
      <trkpt lat="42.51905" lon="3.09889">
        <ele>75.562634</ele>
        <time>2022-08-30T11:23:30.874Z</time>
      </trkpt>
      <trkpt lat="42.51815" lon="3.0986">
        <ele>81.758251</ele>
        <time>2022-08-30T11:24:19.910Z</time>
      </trkpt>
      <trkpt lat="42.51783" lon="3.09867">
        <ele>83.944367</ele>
        <time>2022-08-30T11:24:39.635Z</time>
      </trkpt>
      <trkpt lat="42.51744" lon="3.09899">
        <ele>87.012085</ele>
        <time>2022-08-30T11:25:01.699Z</time>
      </trkpt>
      <trkpt lat="42.51721" lon="3.09898">
        <ele>88.617184</ele>
        <time>2022-08-30T11:25:14.254Z</time>
      </trkpt>
      <trkpt lat="42.51684" lon="3.0991">
        <ele>91.196689</ele>
        <time>2022-08-30T11:25:33.201Z</time>
      </trkpt>
      <trkpt lat="42.51668" lon="3.09905">
        <ele>92.277475</ele>
        <time>2022-08-30T11:25:40.497Z</time>
      </trkpt>
      <trkpt lat="42.51663" lon="3.09884">
        <ele>93.41604</ele>
        <time>2022-08-30T11:25:50.813Z</time>
      </trkpt>
      <trkpt lat="42.51666" lon="3.09822">
        <ele>96.526233</ele>
        <time>2022-08-30T11:26:15.482Z</time>
      </trkpt>
      <trkpt lat="42.51675" lon="3.09783">
        <ele>98.581353</ele>
        <time>2022-08-30T11:26:34.272Z</time>
      </trkpt>
      <trkpt lat="42.51682" lon="3.0977">
        <ele>99.412751</ele>
        <time>2022-08-30T11:26:40.109Z</time>
      </trkpt>
      <trkpt lat="42.51726" lon="3.0973">
        <ele>103.141973</ele>
        <time>2022-08-30T11:27:08.375Z</time>
      </trkpt>
      <trkpt lat="42.51769" lon="3.09626">
        <ele>109.592292</ele>
        <time>2022-08-30T11:27:58.040Z</time>
      </trkpt>
      <trkpt lat="42.51796" lon="3.09583">
        <ele>112.665275</ele>
        <time>2022-08-30T11:28:22.706Z</time>
      </trkpt>
      <trkpt lat="42.51802" lon="3.09561">
        <ele>113.939501</ele>
        <time>2022-08-30T11:28:32.467Z</time>
      </trkpt>
      <trkpt lat="42.51784" lon="3.09417">
        <ele>122.376131</ele>
        <time>2022-08-30T11:29:37.821Z</time>
      </trkpt>
      <trkpt lat="42.51787" lon="3.093">
        <ele>128.567958</ele>
        <time>2022-08-30T11:30:30.872Z</time>
      </trkpt>
      <trkpt lat="42.51782" lon="3.09272">
        <ele>129.291595</ele>
        <time>2022-08-30T11:30:41.400Z</time>
      </trkpt>
      <trkpt lat="42.51794" lon="3.09263">
        <ele>129.768827</ele>
        <time>2022-08-30T11:30:48.655Z</time>
      </trkpt>
      <trkpt lat="42.51792" lon="3.09237">
        <ele>130.421408</ele>
        <time>2022-08-30T11:31:00.303Z</time>
      </trkpt>
      <trkpt lat="42.51777" lon="3.09185">
        <ele>131.827247</ele>
        <time>2022-08-30T11:31:21.785Z</time>
      </trkpt>
      <trkpt lat="42.51789" lon="3.09173">
        <ele>132.31333</ele>
        <time>2022-08-30T11:31:28.770Z</time>
      </trkpt>
      <trkpt lat="42.51793" lon="3.09156">
        <ele>132.783914</ele>
        <time>2022-08-30T11:31:35.762Z</time>
      </trkpt>
      <trkpt lat="42.51828" lon="3.09194">
        <ele>134.179653</ele>
        <time>2022-08-30T11:31:51.528Z</time>
      </trkpt>
      <trkpt lat="42.51861" lon="3.09211">
        <ele>130.75138</ele>
        <time>2022-08-30T11:32:00.354Z</time>
      </trkpt>
      <trkpt lat="42.51887" lon="3.09232">
        <ele>127.81015</ele>
        <time>2022-08-30T11:32:07.211Z</time>
      </trkpt>
      <trkpt lat="42.51915" lon="3.09237">
        <ele>125.068875</ele>
        <time>2022-08-30T11:32:13.344Z</time>
      </trkpt>
      <trkpt lat="42.51958" lon="3.09266">
        <ele>120.410072</ele>
        <time>2022-08-30T11:32:23.199Z</time>
      </trkpt>
      <trkpt lat="42.52009" lon="3.09284">
        <ele>113.805725</ele>
        <time>2022-08-30T11:32:33.824Z</time>
      </trkpt>
      <trkpt lat="42.52051" lon="3.09272">
        <ele>105.712813</ele>
        <time>2022-08-30T11:32:42.285Z</time>
      </trkpt>
      <trkpt lat="42.52081" lon="3.0925">
        <ele>99.28947</ele>
        <time>2022-08-30T11:32:48.972Z</time>
      </trkpt>
      <trkpt lat="42.52112" lon="3.09215">
        <ele>91.689729</ele>
        <time>2022-08-30T11:32:56.786Z</time>
      </trkpt>
      <trkpt lat="42.52211" lon="3.09101">
        <ele>68.44226</ele>
        <time>2022-08-30T11:33:22.178Z</time>
      </trkpt>
      <trkpt lat="42.52233" lon="3.09084">
        <ele>64.005672</ele>
        <time>2022-08-30T11:33:27.258Z</time>
      </trkpt>
      <trkpt lat="42.52295" lon="3.09034">
        <ele>51.629659</ele>
        <time>2022-08-30T11:33:41.796Z</time>
      </trkpt>
      <trkpt lat="42.52339" lon="3.0901">
        <ele>46.421841</ele>
        <time>2022-08-30T11:33:51.627Z</time>
      </trkpt>
      <trkpt lat="42.52402" lon="3.08896">
        <ele>34.984343</ele>
        <time>2022-08-30T11:34:14.183Z</time>
      </trkpt>
      <trkpt lat="42.52418" lon="3.0888">
        <ele>32.807832</ele>
        <time>2022-08-30T11:34:17.421Z</time>
      </trkpt>
      <trkpt lat="42.52423" lon="3.08889">
        <ele>31.97189</ele>
        <time>2022-08-30T11:34:18.870Z</time>
      </trkpt>
      <trkpt lat="42.52415" lon="3.08932">
        <ele>29.503468</ele>
        <time>2022-08-30T11:34:24.472Z</time>
      </trkpt>
      <trkpt lat="42.52423" lon="3.08934">
        <ele>28.915843</ele>
        <time>2022-08-30T11:34:25.989Z</time>
      </trkpt>
      <trkpt lat="42.52442" lon="3.08858">
        <ele>24.518757</ele>
        <time>2022-08-30T11:34:33.331Z</time>
      </trkpt>
      <trkpt lat="42.52448" lon="3.08826">
        <ele>22.700388</ele>
        <time>2022-08-30T11:34:36.482Z</time>
      </trkpt>
      <trkpt lat="42.52449" lon="3.08822">
        <ele>22.478465</ele>
        <time>2022-08-30T11:34:36.818Z</time>
      </trkpt>
      <trkpt lat="42.52444" lon="3.08795">
        <ele>20.91679</ele>
        <time>2022-08-30T11:34:39.629Z</time>
      </trkpt>
      <trkpt lat="42.5243" lon="3.08786">
        <ele>19.737492</ele>
        <time>2022-08-30T11:34:41.556Z</time>
      </trkpt>
      <trkpt lat="42.52392" lon="3.08786">
        <ele>17.637756</ele>
        <time>2022-08-30T11:34:46.282Z</time>
      </trkpt>
      <trkpt lat="42.52372" lon="3.08768">
        <ele>16.562258</ele>
        <time>2022-08-30T11:34:49.484Z</time>
      </trkpt>
      <trkpt lat="42.52367" lon="3.08753">
        <ele>16.026729</ele>
        <time>2022-08-30T11:34:50.959Z</time>
      </trkpt>
      <trkpt lat="42.52365" lon="3.08703">
        <ele>14.360124</ele>
        <time>2022-08-30T11:34:56.056Z</time>
      </trkpt>
      <trkpt lat="42.52365" lon="3.08699">
        <ele>14.224899</ele>
        <time>2022-08-30T11:34:56.535Z</time>
      </trkpt>
      <trkpt lat="42.52365" lon="3.08687">
        <ele>13.822346</ele>
        <time>2022-08-30T11:34:57.931Z</time>
      </trkpt>
      <trkpt lat="42.52363" lon="3.08628">
        <ele>11.889934</ele>
        <time>2022-08-30T11:35:04.321Z</time>
      </trkpt>
      <trkpt lat="42.52364" lon="3.08612">
        <ele>11.349165</ele>
        <time>2022-08-30T11:35:06.000Z</time>
      </trkpt>
      <trkpt lat="42.52364" lon="3.08603">
        <ele>11.056887</ele>
        <time>2022-08-30T11:35:06.920Z</time>
      </trkpt>
      <trkpt lat="42.52366" lon="3.08595">
        <ele>10.790606</ele>
        <time>2022-08-30T11:35:07.767Z</time>
      </trkpt>
      <trkpt lat="42.524" lon="3.08526">
        <ele>9.547719</ele>
        <time>2022-08-30T11:35:16.346Z</time>
      </trkpt>
      <trkpt lat="42.52407" lon="3.0851">
        <ele>9.290934</ele>
        <time>2022-08-30T11:35:18.448Z</time>
      </trkpt>
      <trkpt lat="42.5241" lon="3.08504">
        <ele>9.191859</ele>
        <time>2022-08-30T11:35:19.278Z</time>
      </trkpt>
      <trkpt lat="42.52414" lon="3.08476">
        <ele>8.798652</ele>
        <time>2022-08-30T11:35:22.918Z</time>
      </trkpt>
      <trkpt lat="42.52421" lon="3.08478">
        <ele>8.668195</ele>
        <time>2022-08-30T11:35:24.013Z</time>
      </trkpt>
      <trkpt lat="42.52418" lon="3.08491">
        <ele>8.485148</ele>
        <time>2022-08-30T11:35:30.806Z</time>
      </trkpt>
      <trkpt lat="42.52482" lon="3.08516">
        <ele>7.244262</ele>
        <time>2022-08-30T11:36:17.130Z</time>
      </trkpt>
      <trkpt lat="42.525" lon="3.08511">
        <ele>7.155212</ele>
        <time>2022-08-30T11:36:30.059Z</time>
      </trkpt>
      <trkpt lat="42.52569" lon="3.08551">
        <ele>6.795054</ele>
        <time>2022-08-30T11:37:22.199Z</time>
      </trkpt>
      <trkpt lat="42.52571" lon="3.08553">
        <ele>6.784124</ele>
        <time>2022-08-30T11:37:23.806Z</time>
      </trkpt>
      <trkpt lat="42.52573" lon="3.08566">
        <ele>6.737017</ele>
        <time>2022-08-30T11:37:30.622Z</time>
      </trkpt>
      <trkpt lat="42.52583" lon="3.08577">
        <ele>6.674519</ele>
        <time>2022-08-30T11:37:39.684Z</time>
      </trkpt>
      <trkpt lat="42.52596" lon="3.08568">
        <ele>6.603849</ele>
        <time>2022-08-30T11:37:49.907Z</time>
      </trkpt>
      <trkpt lat="42.52601" lon="3.08552">
        <ele>6.541435</ele>
        <time>2022-08-30T11:37:58.971Z</time>
      </trkpt>
      <trkpt lat="42.52634" lon="3.08494">
        <ele>6.494684</ele>
        <time>2022-08-30T11:38:36.250Z</time>
      </trkpt>
      <trkpt lat="42.52634" lon="3.08463">
        <ele>6.617675</ele>
        <time>2022-08-30T11:38:52.101Z</time>
      </trkpt>
      <trkpt lat="42.52634" lon="3.08457">
        <ele>6.64148</ele>
        <time>2022-08-30T11:38:55.181Z</time>
      </trkpt>
      <trkpt lat="42.52634" lon="3.08451">
        <ele>6.666474</ele>
        <time>2022-08-30T11:38:58.408Z</time>
      </trkpt>
      <trkpt lat="42.52634" lon="3.08452">
        <ele>6.671215</ele>
        <time>2022-08-30T11:38:59.041Z</time>
      </trkpt>
      <trkpt lat="42.52648" lon="3.08456">
        <ele>6.744767</ele>
        <time>2022-08-30T11:39:08.500Z</time>
      </trkpt>
      <trkpt lat="42.52651" lon="3.08456">
        <ele>6.763604</ele>
        <time>2022-08-30T11:39:10.961Z</time>
      </trkpt>
      <trkpt lat="42.52652" lon="3.08483">
        <ele>6.871129</ele>
        <time>2022-08-30T11:39:24.851Z</time>
      </trkpt>
      <trkpt lat="42.52667" lon="3.08487">
        <ele>6.957425</ele>
        <time>2022-08-30T11:39:36.000Z</time>
      </trkpt>
      <trkpt lat="42.5269" lon="3.08494">
        <ele>7.084556</ele>
        <time>2022-08-30T11:39:52.375Z</time>
      </trkpt>
      <trkpt lat="42.52731" lon="3.08517">
        <ele>7.322539</ele>
        <time>2022-08-30T11:40:23.145Z</time>
      </trkpt>
      <trkpt lat="42.52739" lon="3.08508">
        <ele>7.403223</ele>
        <time>2022-08-30T11:40:30.551Z</time>
      </trkpt>
      <trkpt lat="42.52749" lon="3.08512">
        <ele>7.503785</ele>
        <time>2022-08-30T11:40:37.698Z</time>
      </trkpt>
      <trkpt lat="42.52765" lon="3.08555">
        <ele>7.849656</ele>
        <time>2022-08-30T11:40:45.548Z</time>
      </trkpt>
      <trkpt lat="42.52749" lon="3.08512">
        <ele>8.195527</ele>
        <time>2022-08-30T11:40:53.908Z</time>
      </trkpt>
      <trkpt lat="42.52757" lon="3.08463">
        <ele>8.55624</ele>
        <time>2022-08-30T11:41:03.124Z</time>
      </trkpt>
      <trkpt lat="42.52756" lon="3.08417">
        <ele>8.88895</ele>
        <time>2022-08-30T11:41:11.495Z</time>
      </trkpt>
      <trkpt lat="42.52747" lon="3.08401">
        <ele>9.033523</ele>
        <time>2022-08-30T11:41:15.219Z</time>
      </trkpt>
      <trkpt lat="42.52755" lon="3.08382">
        <ele>9.318245</ele>
        <time>2022-08-30T11:41:19.515Z</time>
      </trkpt>
      <trkpt lat="42.52727" lon="3.08316">
        <ele>10.795681</ele>
        <time>2022-08-30T11:41:39.910Z</time>
      </trkpt>
      <trkpt lat="42.52722" lon="3.08316">
        <ele>10.924298</ele>
        <time>2022-08-30T11:41:41.377Z</time>
      </trkpt>
      <trkpt lat="42.52712" lon="3.08271">
        <ele>11.838908</ele>
        <time>2022-08-30T11:41:52.497Z</time>
      </trkpt>
      <trkpt lat="42.52708" lon="3.08248">
        <ele>12.287729</ele>
        <time>2022-08-30T11:41:57.642Z</time>
      </trkpt>
      <trkpt lat="42.52745" lon="3.08242">
        <ele>13.279898</ele>
        <time>2022-08-30T11:42:10.508Z</time>
      </trkpt>
      <trkpt lat="42.52756" lon="3.08248">
        <ele>13.578406</ele>
        <time>2022-08-30T11:42:15.058Z</time>
      </trkpt>
      <trkpt lat="42.5277" lon="3.08239">
        <ele>14.214907</ele>
        <time>2022-08-30T11:42:20.351Z</time>
      </trkpt>
      <trkpt lat="42.52775" lon="3.08229">
        <ele>14.7938</ele>
        <time>2022-08-30T11:42:23.703Z</time>
      </trkpt>
      <trkpt lat="42.52773" lon="3.08206">
        <ele>15.895194</ele>
        <time>2022-08-30T11:42:31.214Z</time>
      </trkpt>
      <trkpt lat="42.52752" lon="3.08123">
        <ele>19.959488</ele>
        <time>2022-08-30T11:43:02.633Z</time>
      </trkpt>
      <trkpt lat="42.52753" lon="3.08106">
        <ele>20.753214</ele>
        <time>2022-08-30T11:43:09.051Z</time>
      </trkpt>
      <trkpt lat="42.52759" lon="3.08086">
        <ele>21.758821</ele>
        <time>2022-08-30T11:43:17.977Z</time>
      </trkpt>
      <trkpt lat="42.52874" lon="3.0799">
        <ele>31.631201</ele>
        <time>2022-08-30T11:44:40.622Z</time>
      </trkpt>
      <trkpt lat="42.52938" lon="3.07916">
        <ele>38.34727</ele>
        <time>2022-08-30T11:45:31.198Z</time>
      </trkpt>
      <trkpt lat="42.52945" lon="3.07907">
        <ele>39.08279</ele>
        <time>2022-08-30T11:45:36.127Z</time>
      </trkpt>
      <trkpt lat="42.5299" lon="3.07836">
        <ele>43.34306</ele>
        <time>2022-08-30T11:46:12.505Z</time>
      </trkpt>
      <trkpt lat="42.53004" lon="3.07775">
        <ele>46.150969</ele>
        <time>2022-08-30T11:46:36.436Z</time>
      </trkpt>
      <trkpt lat="42.53014" lon="3.07771">
        <ele>46.825738</ele>
        <time>2022-08-30T11:46:42.767Z</time>
      </trkpt>
      <trkpt lat="42.53016" lon="3.07757">
        <ele>47.459499</ele>
        <time>2022-08-30T11:46:47.267Z</time>
      </trkpt>
      <trkpt lat="42.53003" lon="3.07697">
        <ele>50.220782</ele>
        <time>2022-08-30T11:47:05.711Z</time>
      </trkpt>
      <trkpt lat="42.53" lon="3.07662">
        <ele>51.070476</ele>
        <time>2022-08-30T11:47:16.175Z</time>
      </trkpt>
      <trkpt lat="42.52997" lon="3.07621">
        <ele>52.040144</ele>
        <time>2022-08-30T11:47:29.166Z</time>
      </trkpt>
      <trkpt lat="42.52996" lon="3.07576">
        <ele>53.097667</ele>
        <time>2022-08-30T11:47:42.451Z</time>
      </trkpt>
      <trkpt lat="42.53" lon="3.07563">
        <ele>53.444709</ele>
        <time>2022-08-30T11:47:45.775Z</time>
      </trkpt>
      <trkpt lat="42.53014" lon="3.07555">
        <ele>53.947935</ele>
        <time>2022-08-30T11:47:51.063Z</time>
      </trkpt>
      <trkpt lat="42.53015" lon="3.07555">
        <ele>53.951903</ele>
        <time>2022-08-30T11:47:51.176Z</time>
      </trkpt>
      <trkpt lat="42.53067" lon="3.07587">
        <ele>55.787023</ele>
        <time>2022-08-30T11:48:09.494Z</time>
      </trkpt>
      <trkpt lat="42.53091" lon="3.07615">
        <ele>55.505907</ele>
        <time>2022-08-30T11:48:18.497Z</time>
      </trkpt>
      <trkpt lat="42.53101" lon="3.07622">
        <ele>55.268406</ele>
        <time>2022-08-30T11:48:21.387Z</time>
      </trkpt>
      <trkpt lat="42.53155" lon="3.0763">
        <ele>54.108915</ele>
        <time>2022-08-30T11:48:29.726Z</time>
      </trkpt>
      <trkpt lat="42.53183" lon="3.07674">
        <ele>53.20128</ele>
        <time>2022-08-30T11:48:35.775Z</time>
      </trkpt>
      <trkpt lat="42.53192" lon="3.07674">
        <ele>53.011136</ele>
        <time>2022-08-30T11:48:37.563Z</time>
      </trkpt>
      <trkpt lat="42.53198" lon="3.07662">
        <ele>52.777959</ele>
        <time>2022-08-30T11:48:39.079Z</time>
      </trkpt>
      <trkpt lat="42.53198" lon="3.07659">
        <ele>52.741698</ele>
        <time>2022-08-30T11:48:39.285Z</time>
      </trkpt>
      <trkpt lat="42.53199" lon="3.07637">
        <ele>52.385486</ele>
        <time>2022-08-30T11:48:41.530Z</time>
      </trkpt>
      <trkpt lat="42.53181" lon="3.07574">
        <ele>48.990049</ele>
        <time>2022-08-30T11:48:48.086Z</time>
      </trkpt>
      <trkpt lat="42.53182" lon="3.0756">
        <ele>48.178345</ele>
        <time>2022-08-30T11:48:49.283Z</time>
      </trkpt>
      <trkpt lat="42.53189" lon="3.07558">
        <ele>47.618064</ele>
        <time>2022-08-30T11:48:50.255Z</time>
      </trkpt>
      <trkpt lat="42.53194" lon="3.07564">
        <ele>47.07634</ele>
        <time>2022-08-30T11:48:51.354Z</time>
      </trkpt>
      <trkpt lat="42.53234" lon="3.07617">
        <ele>42.67309</ele>
        <time>2022-08-30T11:48:58.286Z</time>
      </trkpt>
      <trkpt lat="42.53239" lon="3.07635">
        <ele>41.555801</ele>
        <time>2022-08-30T11:49:00.206Z</time>
      </trkpt>
      <trkpt lat="42.53241" lon="3.0767">
        <ele>39.49259</ele>
        <time>2022-08-30T11:49:03.196Z</time>
      </trkpt>
      <trkpt lat="42.53249" lon="3.07668">
        <ele>38.798144</ele>
        <time>2022-08-30T11:49:04.372Z</time>
      </trkpt>
      <trkpt lat="42.53249" lon="3.07655">
        <ele>38.016203</ele>
        <time>2022-08-30T11:49:05.546Z</time>
      </trkpt>
      <trkpt lat="42.53256" lon="3.0765">
        <ele>37.223082</ele>
        <time>2022-08-30T11:49:07.053Z</time>
      </trkpt>
      <trkpt lat="42.53264" lon="3.07619">
        <ele>34.703194</ele>
        <time>2022-08-30T11:49:12.301Z</time>
      </trkpt>
      <trkpt lat="42.53267" lon="3.0762">
        <ele>34.303097</ele>
        <time>2022-08-30T11:49:13.078Z</time>
      </trkpt>
      <trkpt lat="42.53273" lon="3.07645">
        <ele>32.270665</ele>
        <time>2022-08-30T11:49:17.101Z</time>
      </trkpt>
      <trkpt lat="42.53302" lon="3.07628">
        <ele>28.999493</ele>
        <time>2022-08-30T11:49:23.607Z</time>
      </trkpt>
      <trkpt lat="42.53314" lon="3.0764">
        <ele>27.419532</ele>
        <time>2022-08-30T11:49:27.328Z</time>
      </trkpt>
      <trkpt lat="42.53329" lon="3.07638">
        <ele>25.912126</ele>
        <time>2022-08-30T11:49:30.165Z</time>
      </trkpt>
      <trkpt lat="42.53361" lon="3.07646">
        <ele>22.444105</ele>
        <time>2022-08-30T11:49:53.385Z</time>
      </trkpt>
      <trkpt lat="42.53374" lon="3.0764">
        <ele>21.035962</ele>
        <time>2022-08-30T11:50:02.796Z</time>
      </trkpt>
      <trkpt lat="42.53357" lon="3.07603">
        <ele>18.613469</ele>
        <time>2022-08-30T11:50:10.184Z</time>
      </trkpt>
      <trkpt lat="42.53351" lon="3.07552">
        <ele>17.156929</ele>
        <time>2022-08-30T11:50:18.847Z</time>
      </trkpt>
      <trkpt lat="42.5333" lon="3.07549">
        <ele>16.348307</ele>
        <time>2022-08-30T11:50:23.916Z</time>
      </trkpt>
      <trkpt lat="42.53241" lon="3.07383">
        <ele>11.675026</ele>
        <time>2022-08-30T11:51:06.923Z</time>
      </trkpt>
      <trkpt lat="42.53222" lon="3.07338">
        <ele>11.163816</ele>
        <time>2022-08-30T11:51:18.102Z</time>
      </trkpt>
      <trkpt lat="42.5322" lon="3.07318">
        <ele>10.971786</ele>
        <time>2022-08-30T11:51:22.193Z</time>
      </trkpt>
      <trkpt lat="42.53227" lon="3.07278">
        <ele>10.561135</ele>
        <time>2022-08-30T11:51:30.895Z</time>
      </trkpt>
      <trkpt lat="42.53277" lon="3.07166">
        <ele>9.599523</ele>
        <time>2022-08-30T11:51:58.308Z</time>
      </trkpt>
      <trkpt lat="42.53282" lon="3.07069">
        <ele>9.155871</ele>
        <time>2022-08-30T11:52:19.436Z</time>
      </trkpt>
      <trkpt lat="42.53284" lon="3.07042">
        <ele>9.03152</ele>
        <time>2022-08-30T11:52:25.895Z</time>
      </trkpt>
      <trkpt lat="42.53303" lon="3.06958">
        <ele>8.930768</ele>
        <time>2022-08-30T11:52:46.941Z</time>
      </trkpt>
      <trkpt lat="42.53349" lon="3.06817">
        <ele>9.778177</ele>
        <time>2022-08-30T11:53:27.877Z</time>
      </trkpt>
      <trkpt lat="42.53348" lon="3.06787">
        <ele>9.946901</ele>
        <time>2022-08-30T11:53:35.923Z</time>
      </trkpt>
      <trkpt lat="42.53346" lon="3.06781">
        <ele>9.982476</ele>
        <time>2022-08-30T11:53:37.053Z</time>
      </trkpt>
      <trkpt lat="42.53362" lon="3.06757">
        <ele>10.225776</ele>
        <time>2022-08-30T11:53:45.523Z</time>
      </trkpt>
      <trkpt lat="42.53374" lon="3.06729">
        <ele>10.618657</ele>
        <time>2022-08-30T11:53:54.048Z</time>
      </trkpt>
      <trkpt lat="42.53382" lon="3.06707">
        <ele>10.919072</ele>
        <time>2022-08-30T11:54:01.892Z</time>
      </trkpt>
      <trkpt lat="42.5339" lon="3.06687">
        <ele>11.201479</ele>
        <time>2022-08-30T11:54:08.055Z</time>
      </trkpt>
      <trkpt lat="42.53422" lon="3.066">
        <ele>12.395807</ele>
        <time>2022-08-30T11:54:37.260Z</time>
      </trkpt>
      <trkpt lat="42.53435" lon="3.06557">
        <ele>12.962683</ele>
        <time>2022-08-30T11:54:51.262Z</time>
      </trkpt>
      <trkpt lat="42.53436" lon="3.06552">
        <ele>13.019578</ele>
        <time>2022-08-30T11:54:52.556Z</time>
      </trkpt>
      <trkpt lat="42.53434" lon="3.06547">
        <ele>13.091755</ele>
        <time>2022-08-30T11:54:55.347Z</time>
      </trkpt>
      <trkpt lat="42.53462" lon="3.06423">
        <ele>15.1486</ele>
        <time>2022-08-30T11:55:37.309Z</time>
      </trkpt>
      <trkpt lat="42.53487" lon="3.06334">
        <ele>16.6631</ele>
        <time>2022-08-30T11:56:08.301Z</time>
      </trkpt>
      <trkpt lat="42.53485" lon="3.06293">
        <ele>17.140801</ele>
        <time>2022-08-30T11:56:19.356Z</time>
      </trkpt>
      <trkpt lat="42.53485" lon="3.06159">
        <ele>18.245019</ele>
        <time>2022-08-30T11:56:54.874Z</time>
      </trkpt>
      <trkpt lat="42.53487" lon="3.06136">
        <ele>18.433997</ele>
        <time>2022-08-30T11:57:00.722Z</time>
      </trkpt>
      <trkpt lat="42.53498" lon="3.06097">
        <ele>18.779167</ele>
        <time>2022-08-30T11:57:12.087Z</time>
      </trkpt>
      <trkpt lat="42.53491" lon="3.06028">
        <ele>19.113604</ele>
        <time>2022-08-30T11:57:32.800Z</time>
      </trkpt>
      <trkpt lat="42.53499" lon="3.06007">
        <ele>19.187707</ele>
        <time>2022-08-30T11:57:39.257Z</time>
      </trkpt>
      <trkpt lat="42.53514" lon="3.05971">
        <ele>19.313462</ele>
        <time>2022-08-30T11:57:50.916Z</time>
      </trkpt>
      <trkpt lat="42.5351" lon="3.05977">
        <ele>19.339772</ele>
        <time>2022-08-30T11:57:53.627Z</time>
      </trkpt>
      <trkpt lat="42.53538" lon="3.05961">
        <ele>19.466459</ele>
        <time>2022-08-30T11:58:06.767Z</time>
      </trkpt>
      <trkpt lat="42.53543" lon="3.05949">
        <ele>19.508348</ele>
        <time>2022-08-30T11:58:11.110Z</time>
      </trkpt>
      <trkpt lat="42.53552" lon="3.05883">
        <ele>19.713794</ele>
        <time>2022-08-30T11:58:32.418Z</time>
      </trkpt>
      <trkpt lat="42.53561" lon="3.05816">
        <ele>17.961423</ele>
        <time>2022-08-30T11:58:53.729Z</time>
      </trkpt>
      <trkpt lat="42.53559" lon="3.0575">
        <ele>16.234066</ele>
        <time>2022-08-30T11:59:14.556Z</time>
      </trkpt>
      <trkpt lat="42.53563" lon="3.05739">
        <ele>15.913296</ele>
        <time>2022-08-30T11:59:18.423Z</time>
      </trkpt>
      <trkpt lat="42.53573" lon="3.05736">
        <ele>15.549844</ele>
        <time>2022-08-30T11:59:22.808Z</time>
      </trkpt>
      <trkpt lat="42.53572" lon="3.05742">
        <ele>15.396687</ele>
        <time>2022-08-30T11:59:24.661Z</time>
      </trkpt>
      <trkpt lat="42.53579" lon="3.05738">
        <ele>15.148518</ele>
        <time>2022-08-30T11:59:25.645Z</time>
      </trkpt>
      <trkpt lat="42.53578" lon="3.05731">
        <ele>14.952931</ele>
        <time>2022-08-30T11:59:26.456Z</time>
      </trkpt>
      <trkpt lat="42.5357" lon="3.05721">
        <ele>14.58163</ele>
        <time>2022-08-30T11:59:27.977Z</time>
      </trkpt>
      <trkpt lat="42.53576" lon="3.05692">
        <ele>13.797429</ele>
        <time>2022-08-30T11:59:31.015Z</time>
      </trkpt>
      <trkpt lat="42.53584" lon="3.05681">
        <ele>13.391095</ele>
        <time>2022-08-30T11:59:32.602Z</time>
      </trkpt>
      <trkpt lat="42.53601" lon="3.05654">
        <ele>12.287593</ele>
        <time>2022-08-30T11:59:36.219Z</time>
      </trkpt>
      <trkpt lat="42.53604" lon="3.0565">
        <ele>12.100677</ele>
        <time>2022-08-30T11:59:36.833Z</time>
      </trkpt>
      <trkpt lat="42.53611" lon="3.05641">
        <ele>11.693779</ele>
        <time>2022-08-30T11:59:38.158Z</time>
      </trkpt>
      <trkpt lat="42.53612" lon="3.05639">
        <ele>11.60439</ele>
        <time>2022-08-30T11:59:38.439Z</time>
      </trkpt>
      <trkpt lat="42.53641" lon="3.05598">
        <ele>9.805243</ele>
        <time>2022-08-30T11:59:44.326Z</time>
      </trkpt>
      <trkpt lat="42.53664" lon="3.05564">
        <ele>8.361703</ele>
        <time>2022-08-30T11:59:49.227Z</time>
      </trkpt>
      <trkpt lat="42.53667" lon="3.05559">
        <ele>8.152168</ele>
        <time>2022-08-30T11:59:49.946Z</time>
      </trkpt>
      <trkpt lat="42.53676" lon="3.05546">
        <ele>7.604821</ele>
        <time>2022-08-30T11:59:51.818Z</time>
      </trkpt>
      <trkpt lat="42.53688" lon="3.05528">
        <ele>6.824721</ele>
        <time>2022-08-30T11:59:54.499Z</time>
      </trkpt>
      <trkpt lat="42.53722" lon="3.05479">
        <ele>5.354928</ele>
        <time>2022-08-30T12:00:02.438Z</time>
      </trkpt>
      <trkpt lat="42.5373" lon="3.05468">
        <ele>5.197635</ele>
        <time>2022-08-30T12:00:04.594Z</time>
      </trkpt>
      <trkpt lat="42.53748" lon="3.05493">
        <ele>4.863179</ele>
        <time>2022-08-30T12:00:10.324Z</time>
      </trkpt>
      <trkpt lat="42.53767" lon="3.05467">
        <ele>4.519485</ele>
        <time>2022-08-30T12:00:16.423Z</time>
      </trkpt>
      <trkpt lat="42.53851" lon="3.05353">
        <ele>3.21335</ele>
        <time>2022-08-30T12:00:43.905Z</time>
      </trkpt>
      <trkpt lat="42.53855" lon="3.05348">
        <ele>3.192847</ele>
        <time>2022-08-30T12:00:45.158Z</time>
      </trkpt>
      <trkpt lat="42.53858" lon="3.05335">
        <ele>3.153856</ele>
        <time>2022-08-30T12:00:47.615Z</time>
      </trkpt>
      <trkpt lat="42.53841" lon="3.05312">
        <ele>3.062168</ele>
        <time>2022-08-30T12:00:53.400Z</time>
      </trkpt>
      <trkpt lat="42.53857" lon="3.0529">
        <ele>2.975798</ele>
        <time>2022-08-30T12:00:57.673Z</time>
      </trkpt>
      <trkpt lat="42.53871" lon="3.0527">
        <ele>2.893713</ele>
        <time>2022-08-30T12:01:01.775Z</time>
      </trkpt>
      <trkpt lat="42.53901" lon="3.05227">
        <ele>2.724934</ele>
        <time>2022-08-30T12:01:10.224Z</time>
      </trkpt>
      <trkpt lat="42.53908" lon="3.05227">
        <ele>2.696919</ele>
        <time>2022-08-30T12:01:11.609Z</time>
      </trkpt>
      <trkpt lat="42.53915" lon="3.05217">
        <ele>2.657727</ele>
        <time>2022-08-30T12:01:13.642Z</time>
      </trkpt>
      <trkpt lat="42.53922" lon="3.0521">
        <ele>2.622803</ele>
        <time>2022-08-30T12:01:15.813Z</time>
      </trkpt>
      <trkpt lat="42.53934" lon="3.05181">
        <ele>2.625382</ele>
        <time>2022-08-30T12:01:22.030Z</time>
      </trkpt>
      <trkpt lat="42.53949" lon="3.0516">
        <ele>2.638919</ele>
        <time>2022-08-30T12:01:27.242Z</time>
      </trkpt>
      <trkpt lat="42.53987" lon="3.0513">
        <ele>2.667153</ele>
        <time>2022-08-30T12:01:38.321Z</time>
      </trkpt>
      <trkpt lat="42.54019" lon="3.05107">
        <ele>2.690102</ele>
        <time>2022-08-30T12:01:47.551Z</time>
      </trkpt>
      <trkpt lat="42.54024" lon="3.05105">
        <ele>2.693676</ele>
        <time>2022-08-30T12:01:49.967Z</time>
      </trkpt>
      <trkpt lat="42.53995" lon="3.0501">
        <ele>2.810867</ele>
        <time>2022-08-30T12:02:22.458Z</time>
      </trkpt>
      <trkpt lat="42.53955" lon="3.04942">
        <ele>3.027187</ele>
        <time>2022-08-30T12:02:49.874Z</time>
      </trkpt>
      <trkpt lat="42.53915" lon="3.04874">
        <ele>3.243493</ele>
        <time>2022-08-30T12:03:17.290Z</time>
      </trkpt>
      <trkpt lat="42.53911" lon="3.04873">
        <ele>3.258138</ele>
        <time>2022-08-30T12:03:19.127Z</time>
      </trkpt>
      <trkpt lat="42.53912" lon="3.04863">
        <ele>3.284261</ele>
        <time>2022-08-30T12:03:21.566Z</time>
      </trkpt>
      <trkpt lat="42.53924" lon="3.04826">
        <ele>3.237545</ele>
        <time>2022-08-30T12:03:31.334Z</time>
      </trkpt>
      <trkpt lat="42.53953" lon="3.04806">
        <ele>3.035045</ele>
        <time>2022-08-30T12:03:41.543Z</time>
      </trkpt>
      <trkpt lat="42.53936" lon="3.04749">
        <ele>2.752476</ele>
        <time>2022-08-30T12:03:55.301Z</time>
      </trkpt>
      <trkpt lat="42.53992" lon="3.04717">
        <ele>2.375088</ele>
        <time>2022-08-30T12:04:13.058Z</time>
      </trkpt>
      <trkpt lat="42.54004" lon="3.04721">
        <ele>2.299303</ele>
        <time>2022-08-30T12:04:16.640Z</time>
      </trkpt>
      <trkpt lat="42.54009" lon="3.04742">
        <ele>2.192452</ele>
        <time>2022-08-30T12:04:20.166Z</time>
      </trkpt>
      <trkpt lat="42.54014" lon="3.04761">
        <ele>2.064874</ele>
        <time>2022-08-30T12:04:23.525Z</time>
      </trkpt>
      <trkpt lat="42.54019" lon="3.0478">
        <ele>1.930097</ele>
        <time>2022-08-30T12:04:26.916Z</time>
      </trkpt>
      <trkpt lat="42.5402" lon="3.04791">
        <ele>1.857185</ele>
        <time>2022-08-30T12:04:28.841Z</time>
      </trkpt>
      <trkpt lat="42.54043" lon="3.04781">
        <ele>1.650633</ele>
        <time>2022-08-30T12:04:45.109Z</time>
      </trkpt>
      <trkpt lat="42.54041" lon="3.04776">
        <ele>1.613734</ele>
        <time>2022-08-30T12:04:48.000Z</time>
      </trkpt>
      <trkpt lat="42.54082" lon="3.04752">
        <ele>1.220148</ele>
        <time>2022-08-30T12:05:19.004Z</time>
      </trkpt>
      <trkpt lat="42.54086" lon="3.04766">
        <ele>1.123446</ele>
        <time>2022-08-30T12:05:26.597Z</time>
      </trkpt>
      <trkpt lat="42.541" lon="3.04759">
        <ele>0.996205</ele>
        <time>2022-08-30T12:05:36.640Z</time>
      </trkpt>
      <trkpt lat="42.54106" lon="3.04778">
        <ele>0.861009</ele>
        <time>2022-08-30T12:05:47.278Z</time>
      </trkpt>
      <trkpt lat="42.54093" lon="3.04786">
        <ele>0.741532</ele>
        <time>2022-08-30T12:05:56.683Z</time>
      </trkpt>
      <trkpt lat="42.54117" lon="3.04854">
        <ele>0.754623</ele>
        <time>2022-08-30T12:06:35.043Z</time>
      </trkpt>
      <trkpt lat="42.5412" lon="3.04853">
        <ele>0.763318</ele>
        <time>2022-08-30T12:06:37.112Z</time>
      </trkpt>
      <trkpt lat="42.54129" lon="3.04852">
        <ele>0.78906</ele>
        <time>2022-08-30T12:06:43.318Z</time>
      </trkpt>
      <trkpt lat="42.54198" lon="3.04811">
        <ele>1.006663</ele>
        <time>2022-08-30T12:07:35.757Z</time>
      </trkpt>
      <trkpt lat="42.54212" lon="3.04857">
        <ele>1.113242</ele>
        <time>2022-08-30T12:08:01.403Z</time>
      </trkpt>
      <trkpt lat="42.54214" lon="3.04864">
        <ele>1.128716</ele>
        <time>2022-08-30T12:08:05.132Z</time>
      </trkpt>
      <trkpt lat="42.54225" lon="3.04899">
        <ele>1.266915</ele>
        <time>2022-08-30T12:08:24.413Z</time>
      </trkpt>
      <trkpt lat="42.54257" lon="3.04998">
        <ele>1.725299</ele>
        <time>2022-08-30T12:09:19.711Z</time>
      </trkpt>
      <trkpt lat="42.54227" lon="3.05016">
        <ele>1.911979</ele>
        <time>2022-08-30T12:09:42.277Z</time>
      </trkpt>
      <trkpt lat="42.54171" lon="3.05052">
        <ele>2.215162</ele>
        <time>2022-08-30T12:10:25.148Z</time>
      </trkpt>
      <trkpt lat="42.542" lon="3.05155">
        <ele>2.381994</ele>
        <time>2022-08-30T12:11:21.956Z</time>
      </trkpt>
      <trkpt lat="42.54204" lon="3.05169">
        <ele>2.403591</ele>
        <time>2022-08-30T12:11:29.324Z</time>
      </trkpt>
      <trkpt lat="42.54211" lon="3.05173">
        <ele>2.418537</ele>
        <time>2022-08-30T12:11:34.393Z</time>
      </trkpt>
      <trkpt lat="42.54241" lon="3.05177">
        <ele>2.480701</ele>
        <time>2022-08-30T12:11:55.558Z</time>
      </trkpt>
      <trkpt lat="42.54271" lon="3.05179">
        <ele>2.543039</ele>
        <time>2022-08-30T12:12:16.800Z</time>
      </trkpt>
      <trkpt lat="42.54293" lon="3.05167">
        <ele>2.541077</ele>
        <time>2022-08-30T12:12:21.684Z</time>
      </trkpt>
      <trkpt lat="42.54306" lon="3.05166">
        <ele>2.532509</ele>
        <time>2022-08-30T12:12:24.234Z</time>
      </trkpt>
      <trkpt lat="42.54308" lon="3.05113">
        <ele>2.505576</ele>
        <time>2022-08-30T12:12:32.066Z</time>
      </trkpt>
      <trkpt lat="42.54308" lon="3.05097">
        <ele>2.497761</ele>
        <time>2022-08-30T12:12:34.237Z</time>
      </trkpt>
      <trkpt lat="42.54312" lon="3.05097">
        <ele>2.494906</ele>
        <time>2022-08-30T12:12:37.183Z</time>
      </trkpt>
      <trkpt lat="42.54314" lon="3.05112">
        <ele>2.487115</ele>
        <time>2022-08-30T12:12:40.905Z</time>
      </trkpt>
      <trkpt lat="42.54351" lon="3.05113">
        <ele>2.461345</ele>
        <time>2022-08-30T12:13:07.282Z</time>
      </trkpt>
      <trkpt lat="42.54357" lon="3.05113">
        <ele>2.457331</ele>
        <time>2022-08-30T12:13:08.826Z</time>
      </trkpt>
      <trkpt lat="42.54394" lon="3.05114">
        <ele>2.432175</ele>
        <time>2022-08-30T12:13:18.079Z</time>
      </trkpt>
      <trkpt lat="42.54422" lon="3.05096">
        <ele>2.428148</ele>
        <time>2022-08-30T12:13:24.186Z</time>
      </trkpt>
      <trkpt lat="42.54441" lon="3.05115">
        <ele>2.42558</ele>
        <time>2022-08-30T12:13:31.456Z</time>
      </trkpt>
      <trkpt lat="42.54422" lon="3.05096">
        <ele>2.423012</ele>
        <time>2022-08-30T12:13:38.905Z</time>
      </trkpt>
      <trkpt lat="42.5455" lon="3.05015">
        <ele>2.549832</ele>
        <time>2022-08-30T12:14:07.964Z</time>
      </trkpt>
      <trkpt lat="42.54639" lon="3.04959">
        <ele>2.895039</ele>
        <time>2022-08-30T12:14:30.745Z</time>
      </trkpt>
      <trkpt lat="42.54688" lon="3.04928">
        <ele>3.041984</ele>
        <time>2022-08-30T12:14:42.722Z</time>
      </trkpt>
      <trkpt lat="42.54738" lon="3.04897">
        <ele>3.003099</ele>
        <time>2022-08-30T12:14:53.505Z</time>
      </trkpt>
      <trkpt lat="42.54788" lon="3.04868">
        <ele>2.964334</ele>
        <time>2022-08-30T12:15:04.165Z</time>
      </trkpt>
      <trkpt lat="42.54838" lon="3.04856">
        <ele>2.927853</ele>
        <time>2022-08-30T12:15:14.252Z</time>
      </trkpt>
      <trkpt lat="42.54891" lon="3.04846">
        <ele>2.935414</ele>
        <time>2022-08-30T12:15:25.028Z</time>
      </trkpt>
      <trkpt lat="42.54894" lon="3.0488">
        <ele>2.943188</ele>
        <time>2022-08-30T12:15:32.837Z</time>
      </trkpt>
      <trkpt lat="42.54891" lon="3.04846">
        <ele>2.950962</ele>
        <time>2022-08-30T12:15:41.523Z</time>
      </trkpt>
      <trkpt lat="42.54944" lon="3.04833">
        <ele>2.967326</ele>
        <time>2022-08-30T12:15:52.188Z</time>
      </trkpt>
      <trkpt lat="42.54998" lon="3.04822">
        <ele>2.980693</ele>
        <time>2022-08-30T12:16:03.775Z</time>
      </trkpt>
      <trkpt lat="42.55052" lon="3.04811">
        <ele>2.989843</ele>
        <time>2022-08-30T12:16:17.224Z</time>
      </trkpt>
      <trkpt lat="42.55055" lon="3.04809">
        <ele>2.990413</ele>
        <time>2022-08-30T12:16:17.816Z</time>
      </trkpt>
      <trkpt lat="42.55058" lon="3.04841">
        <ele>2.994383</ele>
        <time>2022-08-30T12:16:22.852Z</time>
      </trkpt>
      <trkpt lat="42.55098" lon="3.04833">
        <ele>3.001094</ele>
        <time>2022-08-30T12:16:30.956Z</time>
      </trkpt>
      <trkpt lat="42.55114" lon="3.04829">
        <ele>3.003898</ele>
        <time>2022-08-30T12:16:34.005Z</time>
      </trkpt>
      <trkpt lat="42.55128" lon="3.04827">
        <ele>3.006157</ele>
        <time>2022-08-30T12:16:36.438Z</time>
      </trkpt>
      <trkpt lat="42.55133" lon="3.04825">
        <ele>2.99277</ele>
        <time>2022-08-30T12:16:37.523Z</time>
      </trkpt>
      <trkpt lat="42.5518" lon="3.04816">
        <ele>2.634786</ele>
        <time>2022-08-30T12:16:45.786Z</time>
      </trkpt>
      <trkpt lat="42.55234" lon="3.04805">
        <ele>2.220523</ele>
        <time>2022-08-30T12:16:55.775Z</time>
      </trkpt>
      <trkpt lat="42.55288" lon="3.04793">
        <ele>1.80566</ele>
        <time>2022-08-30T12:17:05.860Z</time>
      </trkpt>
      <trkpt lat="42.55348" lon="3.04781">
        <ele>1.692073</ele>
        <time>2022-08-30T12:17:17.081Z</time>
      </trkpt>
      <trkpt lat="42.55353" lon="3.0478">
        <ele>1.698551</ele>
        <time>2022-08-30T12:17:17.941Z</time>
      </trkpt>
      <trkpt lat="42.55746" lon="3.047">
        <ele>3.014795</ele>
        <time>2022-08-30T12:18:46.768Z</time>
      </trkpt>
      <trkpt lat="42.55755" lon="3.04697">
        <ele>3.058043</ele>
        <time>2022-08-30T12:18:48.831Z</time>
      </trkpt>
      <trkpt lat="42.55765" lon="3.04675">
        <ele>3.14092</ele>
        <time>2022-08-30T12:18:55.510Z</time>
      </trkpt>
      <trkpt lat="42.55847" lon="3.04654">
        <ele>3.44</ele>
        <time>2022-08-30T12:19:24.380Z</time>
      </trkpt>
      <trkpt lat="42.55952" lon="3.04638">
        <ele>3.344659</ele>
        <time>2022-08-30T12:19:58.860Z</time>
      </trkpt>
      <trkpt lat="42.56065" lon="3.0462">
        <ele>2.869513</ele>
        <time>2022-08-30T12:20:32.648Z</time>
      </trkpt>
      <trkpt lat="42.56172" lon="3.04605">
        <ele>2.021887</ele>
        <time>2022-08-30T12:21:04.237Z</time>
      </trkpt>
      <trkpt lat="42.56193" lon="3.04624">
        <ele>1.862818</ele>
        <time>2022-08-30T12:21:11.732Z</time>
      </trkpt>
      <trkpt lat="42.56431" lon="3.04582">
        <ele>1.400603</ele>
        <time>2022-08-30T12:22:27.469Z</time>
      </trkpt>
      <trkpt lat="42.56589" lon="3.04556">
        <ele>1.096522</ele>
        <time>2022-08-30T12:23:16.701Z</time>
      </trkpt>
      <trkpt lat="42.56653" lon="3.04545">
        <ele>1.029428</ele>
        <time>2022-08-30T12:23:36.558Z</time>
      </trkpt>
      <trkpt lat="42.5666" lon="3.04535">
        <ele>1.018504</ele>
        <time>2022-08-30T12:23:40.245Z</time>
      </trkpt>
      <trkpt lat="42.5666" lon="3.04503">
        <ele>0.994289</ele>
        <time>2022-08-30T12:23:47.385Z</time>
      </trkpt>
      <trkpt lat="42.5668" lon="3.04498">
        <ele>0.973553</ele>
        <time>2022-08-30T12:23:54.296Z</time>
      </trkpt>
      <trkpt lat="42.56723" lon="3.04501">
        <ele>0.95522</ele>
        <time>2022-08-30T12:24:08.369Z</time>
      </trkpt>
      <trkpt lat="42.56736" lon="3.04503">
        <ele>0.954463</ele>
        <time>2022-08-30T12:24:11.739Z</time>
      </trkpt>
      <trkpt lat="42.56749" lon="3.04504">
        <ele>0.953683</ele>
        <time>2022-08-30T12:24:15.658Z</time>
      </trkpt>
      <trkpt lat="42.56789" lon="3.04516">
        <ele>0.951304</ele>
        <time>2022-08-30T12:24:28.984Z</time>
      </trkpt>
      <trkpt lat="42.56881" lon="3.04515">
        <ele>0.943475</ele>
        <time>2022-08-30T12:24:57.344Z</time>
      </trkpt>
      <trkpt lat="42.57029" lon="3.04465">
        <ele>0.879354</ele>
        <time>2022-08-30T12:25:45.119Z</time>
      </trkpt>
      <trkpt lat="42.57039" lon="3.04452">
        <ele>0.873451</ele>
        <time>2022-08-30T12:25:49.895Z</time>
      </trkpt>
      <trkpt lat="42.57122" lon="3.04436">
        <ele>1.392813</ele>
        <time>2022-08-30T12:26:19.591Z</time>
      </trkpt>
      <trkpt lat="42.57122" lon="3.04436">
        <ele>1.392813</ele>
        <time>2022-08-30T12:26:19.599Z</time>
      </trkpt>
      <trkpt lat="42.57164" lon="3.04427">
        <ele>1.67931</ele>
        <time>2022-08-30T12:26:37.635Z</time>
      </trkpt>
      <trkpt lat="42.57162" lon="3.04359">
        <ele>2.018687</ele>
        <time>2022-08-30T12:26:59.000Z</time>
      </trkpt>
      <trkpt lat="42.57144" lon="3.04294">
        <ele>2.215934</ele>
        <time>2022-08-30T12:27:20.902Z</time>
      </trkpt>
      <trkpt lat="42.57104" lon="3.04233">
        <ele>2.399415</ele>
        <time>2022-08-30T12:27:46.543Z</time>
      </trkpt>
      <trkpt lat="42.57101" lon="3.04234">
        <ele>2.410276</ele>
        <time>2022-08-30T12:27:48.051Z</time>
      </trkpt>
      <trkpt lat="42.57093" lon="3.04178">
        <ele>2.539283</ele>
        <time>2022-08-30T12:28:01.704Z</time>
      </trkpt>
      <trkpt lat="42.57083" lon="3.04147">
        <ele>2.6147</ele>
        <time>2022-08-30T12:28:09.362Z</time>
      </trkpt>
      <trkpt lat="42.57057" lon="3.04122">
        <ele>2.543106</ele>
        <time>2022-08-30T12:28:19.288Z</time>
      </trkpt>
      <trkpt lat="42.57189" lon="3.04123">
        <ele>1.97309</ele>
        <time>2022-08-30T12:28:44.262Z</time>
      </trkpt>
      <trkpt lat="42.57204" lon="3.04136">
        <ele>1.89701</ele>
        <time>2022-08-30T12:28:49.599Z</time>
      </trkpt>
      <trkpt lat="42.57218" lon="3.04162">
        <ele>1.765358</ele>
        <time>2022-08-30T12:28:56.905Z</time>
      </trkpt>
      <trkpt lat="42.57232" lon="3.04187">
        <ele>1.621942</ele>
        <time>2022-08-30T12:29:04.087Z</time>
      </trkpt>
      <trkpt lat="42.57312" lon="3.04135">
        <ele>1.082655</ele>
        <time>2022-08-30T12:29:30.563Z</time>
      </trkpt>
      <trkpt lat="42.57343" lon="3.04126">
        <ele>0.885932</ele>
        <time>2022-08-30T12:29:40.097Z</time>
      </trkpt>
      <trkpt lat="42.57366" lon="3.04128">
        <ele>0.754876</ele>
        <time>2022-08-30T12:29:46.943Z</time>
      </trkpt>
      <trkpt lat="42.57385" lon="3.04145">
        <ele>0.678753</ele>
        <time>2022-08-30T12:29:53.760Z</time>
      </trkpt>
      <trkpt lat="42.57467" lon="3.04159">
        <ele>0.399131</ele>
        <time>2022-08-30T12:30:18.931Z</time>
      </trkpt>
      <trkpt lat="42.57476" lon="3.04137">
        <ele>0.334741</ele>
        <time>2022-08-30T12:30:24.862Z</time>
      </trkpt>
      <trkpt lat="42.57453" lon="3.04115">
        <ele>0.237451</ele>
        <time>2022-08-30T12:30:30.548Z</time>
      </trkpt>
      <trkpt lat="42.57441" lon="3.04112">
        <ele>0.196389</ele>
        <time>2022-08-30T12:30:32.964Z</time>
      </trkpt>
      <trkpt lat="42.57441" lon="3.04107">
        <ele>0.184667</ele>
        <time>2022-08-30T12:30:34.426Z</time>
      </trkpt>
      <trkpt lat="42.57473" lon="3.04129">
        <ele>0.272495</ele>
        <time>2022-08-30T12:30:49.520Z</time>
      </trkpt>
      <trkpt lat="42.57491" lon="3.04157">
        <ele>0.386595</ele>
        <time>2022-08-30T12:31:01.055Z</time>
      </trkpt>
      <trkpt lat="42.57522" lon="3.04132">
        <ele>0.541408</ele>
        <time>2022-08-30T12:31:16.706Z</time>
      </trkpt>
      <trkpt lat="42.57553" lon="3.04147">
        <ele>0.680142</ele>
        <time>2022-08-30T12:31:30.732Z</time>
      </trkpt>
      <trkpt lat="42.57576" lon="3.04091">
        <ele>0.879677</ele>
        <time>2022-08-30T12:31:50.907Z</time>
      </trkpt>
      <trkpt lat="42.57574" lon="3.0409">
        <ele>0.886103</ele>
        <time>2022-08-30T12:31:51.574Z</time>
      </trkpt>
      <trkpt lat="42.57603" lon="3.03992">
        <ele>1.151912</ele>
        <time>2022-08-30T12:32:18.709Z</time>
      </trkpt>
      <trkpt lat="42.5765" lon="3.03917">
        <ele>1.395014</ele>
        <time>2022-08-30T12:32:42.676Z</time>
      </trkpt>
      <trkpt lat="42.5768" lon="3.03881">
        <ele>1.516853</ele>
        <time>2022-08-30T12:32:55.525Z</time>
      </trkpt>
      <trkpt lat="42.57715" lon="3.03807">
        <ele>1.485127</ele>
        <time>2022-08-30T12:33:15.941Z</time>
      </trkpt>
      <trkpt lat="42.57742" lon="3.03775">
        <ele>1.467404</ele>
        <time>2022-08-30T12:33:27.314Z</time>
      </trkpt>
      <trkpt lat="42.5778" lon="3.03679">
        <ele>1.430222</ele>
        <time>2022-08-30T12:33:52.614Z</time>
      </trkpt>
      <trkpt lat="42.57853" lon="3.03596">
        <ele>1.43869</ele>
        <time>2022-08-30T12:34:22.867Z</time>
      </trkpt>
      <trkpt lat="42.57881" lon="3.03562">
        <ele>1.441986</ele>
        <time>2022-08-30T12:34:32.481Z</time>
      </trkpt>
      <trkpt lat="42.57888" lon="3.03565">
        <ele>1.4426</ele>
        <time>2022-08-30T12:34:34.336Z</time>
      </trkpt>
      <trkpt lat="42.57941" lon="3.03588">
        <ele>1.400386</ele>
        <time>2022-08-30T12:34:48.783Z</time>
      </trkpt>
      <trkpt lat="42.57971" lon="3.03637">
        <ele>1.29143</ele>
        <time>2022-08-30T12:35:00.303Z</time>
      </trkpt>
      <trkpt lat="42.57986" lon="3.03659">
        <ele>1.240222</ele>
        <time>2022-08-30T12:35:05.670Z</time>
      </trkpt>
      <trkpt lat="42.57997" lon="3.03669">
        <ele>1.209312</ele>
        <time>2022-08-30T12:35:08.857Z</time>
      </trkpt>
      <trkpt lat="42.58019" lon="3.03688">
        <ele>1.148257</ele>
        <time>2022-08-30T12:35:15.183Z</time>
      </trkpt>
      <trkpt lat="42.58042" lon="3.03722">
        <ele>1.069598</ele>
        <time>2022-08-30T12:35:23.349Z</time>
      </trkpt>
      <trkpt lat="42.58047" lon="3.03724">
        <ele>1.058276</ele>
        <time>2022-08-30T12:35:24.842Z</time>
      </trkpt>
      <trkpt lat="42.58055" lon="3.03743">
        <ele>1.025455</ele>
        <time>2022-08-30T12:35:29.821Z</time>
      </trkpt>
      <trkpt lat="42.58094" lon="3.03775">
        <ele>0.999305</ele>
        <time>2022-08-30T12:35:44.017Z</time>
      </trkpt>
      <trkpt lat="42.58084" lon="3.03811">
        <ele>0.983229</ele>
        <time>2022-08-30T12:35:52.900Z</time>
      </trkpt>
      <trkpt lat="42.58085" lon="3.03958">
        <ele>0.945246</ele>
        <time>2022-08-30T12:36:27.712Z</time>
      </trkpt>
      <trkpt lat="42.58088" lon="3.03979">
        <ele>1.002143</ele>
        <time>2022-08-30T12:36:32.668Z</time>
      </trkpt>
      <trkpt lat="42.58091" lon="3.03978">
        <ele>1.013342</ele>
        <time>2022-08-30T12:36:33.638Z</time>
      </trkpt>
      <trkpt lat="42.58114" lon="3.0404">
        <ele>1.203461</ele>
        <time>2022-08-30T12:36:47.411Z</time>
      </trkpt>
      <trkpt lat="42.58115" lon="3.04042">
        <ele>1.211673</ele>
        <time>2022-08-30T12:36:48.132Z</time>
      </trkpt>
      <trkpt lat="42.58115" lon="3.04042">
        <ele>1.211673</ele>
        <time>2022-08-30T12:36:48.132Z</time>
      </trkpt>
      <trkpt lat="42.58121" lon="3.04065">
        <ele>1.276596</ele>
        <time>2022-08-30T12:36:53.969Z</time>
      </trkpt>
      <trkpt lat="42.58147" lon="3.04097">
        <ele>1.408014</ele>
        <time>2022-08-30T12:37:05.997Z</time>
      </trkpt>
      <trkpt lat="42.58192" lon="3.04224">
        <ele>1.782761</ele>
        <time>2022-08-30T12:37:41.637Z</time>
      </trkpt>
      <trkpt lat="42.58203" lon="3.04335">
        <ele>2.072988</ele>
        <time>2022-08-30T12:38:09.296Z</time>
      </trkpt>
      <trkpt lat="42.58232" lon="3.0435">
        <ele>2.18374</ele>
        <time>2022-08-30T12:38:19.795Z</time>
      </trkpt>
      <trkpt lat="42.58283" lon="3.04356">
        <ele>2.05846</ele>
        <time>2022-08-30T12:38:36.510Z</time>
      </trkpt>
      <trkpt lat="42.58335" lon="3.04387">
        <ele>1.812986</ele>
        <time>2022-08-30T12:38:53.920Z</time>
      </trkpt>
      <trkpt lat="42.58378" lon="3.04372">
        <ele>1.623531</ele>
        <time>2022-08-30T12:39:07.102Z</time>
      </trkpt>
      <trkpt lat="42.58414" lon="3.0441">
        <ele>1.428093</ele>
        <time>2022-08-30T12:39:20.497Z</time>
      </trkpt>
      <trkpt lat="42.58446" lon="3.04434">
        <ele>1.260003</ele>
        <time>2022-08-30T12:39:31.383Z</time>
      </trkpt>
      <trkpt lat="42.58455" lon="3.04436">
        <ele>1.217856</ele>
        <time>2022-08-30T12:39:34.117Z</time>
      </trkpt>
      <trkpt lat="42.58492" lon="3.04438">
        <ele>1.048775</ele>
        <time>2022-08-30T12:39:45.157Z</time>
      </trkpt>
      <trkpt lat="42.5849" lon="3.04426">
        <ele>1.007608</ele>
        <time>2022-08-30T12:39:47.869Z</time>
      </trkpt>
      <trkpt lat="42.5848" lon="3.04417">
        <ele>0.953608</ele>
        <time>2022-08-30T12:39:51.421Z</time>
      </trkpt>
      <trkpt lat="42.58492" lon="3.04398">
        <ele>0.869847</ele>
        <time>2022-08-30T12:39:57.046Z</time>
      </trkpt>
      <trkpt lat="42.58494" lon="3.04383">
        <ele>0.818663</ele>
        <time>2022-08-30T12:40:00.504Z</time>
      </trkpt>
      <trkpt lat="42.58501" lon="3.04373">
        <ele>0.771879</ele>
        <time>2022-08-30T12:40:03.619Z</time>
      </trkpt>
      <trkpt lat="42.58552" lon="3.04311">
        <ele>0.850712</ele>
        <time>2022-08-30T12:40:25.875Z</time>
      </trkpt>
      <trkpt lat="42.58574" lon="3.04276">
        <ele>1.048146</ele>
        <time>2022-08-30T12:40:37.898Z</time>
      </trkpt>
      <trkpt lat="42.58592" lon="3.04244">
        <ele>1.220739</ele>
        <time>2022-08-30T12:40:48.583Z</time>
      </trkpt>
      <trkpt lat="42.58624" lon="3.04234">
        <ele>1.415407</ele>
        <time>2022-08-30T12:41:00.561Z</time>
      </trkpt>
      <trkpt lat="42.58633" lon="3.04226">
        <ele>1.476589</ele>
        <time>2022-08-30T12:41:04.184Z</time>
      </trkpt>
      <trkpt lat="42.58629" lon="3.04196">
        <ele>1.60863</ele>
        <time>2022-08-30T12:41:12.321Z</time>
      </trkpt>
      <trkpt lat="42.58654" lon="3.04158">
        <ele>1.763917</ele>
        <time>2022-08-30T12:41:25.806Z</time>
      </trkpt>
      <trkpt lat="42.58658" lon="3.04143">
        <ele>1.801085</ele>
        <time>2022-08-30T12:41:29.714Z</time>
      </trkpt>
      <trkpt lat="42.58674" lon="3.04145">
        <ele>1.851835</ele>
        <time>2022-08-30T12:41:35.163Z</time>
      </trkpt>
      <trkpt lat="42.58723" lon="3.04149">
        <ele>2.011484</ele>
        <time>2022-08-30T12:41:51.576Z</time>
      </trkpt>
      <trkpt lat="42.58727" lon="3.04148">
        <ele>2.025425</ele>
        <time>2022-08-30T12:41:52.977Z</time>
      </trkpt>
      <trkpt lat="42.58741" lon="3.0415">
        <ele>2.071314</ele>
        <time>2022-08-30T12:41:57.602Z</time>
      </trkpt>
      <trkpt lat="42.58739" lon="3.04128">
        <ele>2.124756</ele>
        <time>2022-08-30T12:42:03.066Z</time>
      </trkpt>
      <trkpt lat="42.58732" lon="3.04045">
        <ele>2.217874</ele>
        <time>2022-08-30T12:42:22.744Z</time>
      </trkpt>
      <trkpt lat="42.58732" lon="3.04045">
        <ele>2.217874</ele>
        <time>2022-08-30T12:42:22.747Z</time>
      </trkpt>
      <trkpt lat="42.58723" lon="3.04012">
        <ele>2.153128</ele>
        <time>2022-08-30T12:42:30.801Z</time>
      </trkpt>
      <trkpt lat="42.58711" lon="3.0387">
        <ele>1.886956</ele>
        <time>2022-08-30T12:43:03.383Z</time>
      </trkpt>
      <trkpt lat="42.58683" lon="3.03746">
        <ele>1.606485</ele>
        <time>2022-08-30T12:43:32.770Z</time>
      </trkpt>
      <trkpt lat="42.58673" lon="3.03672">
        <ele>1.434475</ele>
        <time>2022-08-30T12:43:49.696Z</time>
      </trkpt>
      <trkpt lat="42.58652" lon="3.03586">
        <ele>1.257086</ele>
        <time>2022-08-30T12:44:10.367Z</time>
      </trkpt>
      <trkpt lat="42.58647" lon="3.0352">
        <ele>1.307102</ele>
        <time>2022-08-30T12:44:25.711Z</time>
      </trkpt>
      <trkpt lat="42.58638" lon="3.03492">
        <ele>1.330285</ele>
        <time>2022-08-30T12:44:32.939Z</time>
      </trkpt>
      <trkpt lat="42.5857" lon="3.03342">
        <ele>1.59365</ele>
        <time>2022-08-30T12:45:16.137Z</time>
      </trkpt>
      <trkpt lat="42.58535" lon="3.03224">
        <ele>2.102365</ele>
        <time>2022-08-30T12:45:48.421Z</time>
      </trkpt>
      <trkpt lat="42.58536" lon="3.0319">
        <ele>2.240482</ele>
        <time>2022-08-30T12:45:55.671Z</time>
      </trkpt>
      <trkpt lat="42.58524" lon="3.03097">
        <ele>2.544225</ele>
        <time>2022-08-30T12:46:15.523Z</time>
      </trkpt>
      <trkpt lat="42.58559" lon="3.03077">
        <ele>2.674377</ele>
        <time>2022-08-30T12:46:23.944Z</time>
      </trkpt>
      <trkpt lat="42.58559" lon="3.03044">
        <ele>2.75932</ele>
        <time>2022-08-30T12:46:29.227Z</time>
      </trkpt>
      <trkpt lat="42.58553" lon="3.03023">
        <ele>2.816301</ele>
        <time>2022-08-30T12:46:32.668Z</time>
      </trkpt>
      <trkpt lat="42.58543" lon="3.03006">
        <ele>2.870054</ele>
        <time>2022-08-30T12:46:35.755Z</time>
      </trkpt>
      <trkpt lat="42.58521" lon="3.03038">
        <ele>2.979283</ele>
        <time>2022-08-30T12:46:41.931Z</time>
      </trkpt>
      <trkpt lat="42.58542" lon="3.03037">
        <ele>3.013845</ele>
        <time>2022-08-30T12:46:46.074Z</time>
      </trkpt>
      <trkpt lat="42.58653" lon="3.02966">
        <ele>2.644829</ele>
        <time>2022-08-30T12:47:08.591Z</time>
      </trkpt>
      <trkpt lat="42.58677" lon="3.02942">
        <ele>2.553459</ele>
        <time>2022-08-30T12:47:14.033Z</time>
      </trkpt>
      <trkpt lat="42.58645" lon="3.0295">
        <ele>2.431441</ele>
        <time>2022-08-30T12:47:19.740Z</time>
      </trkpt>
      <trkpt lat="42.58648" lon="3.02966">
        <ele>2.37072</ele>
        <time>2022-08-30T12:47:21.775Z</time>
      </trkpt>
      <trkpt lat="42.58651" lon="3.02984">
        <ele>2.299389</ele>
        <time>2022-08-30T12:47:24.240Z</time>
      </trkpt>
      <trkpt lat="42.58656" lon="3.03004">
        <ele>2.22084</ele>
        <time>2022-08-30T12:47:26.888Z</time>
      </trkpt>
      <trkpt lat="42.58658" lon="3.03011">
        <ele>2.19174</ele>
        <time>2022-08-30T12:47:27.869Z</time>
      </trkpt>
      <trkpt lat="42.58666" lon="3.03024">
        <ele>2.125462</ele>
        <time>2022-08-30T12:47:30.175Z</time>
      </trkpt>
      <trkpt lat="42.58678" lon="3.03114">
        <ele>1.775937</ele>
        <time>2022-08-30T12:47:50.744Z</time>
      </trkpt>
      <trkpt lat="42.58704" lon="3.03255">
        <ele>1.391929</ele>
        <time>2022-08-30T12:48:23.551Z</time>
      </trkpt>
      <trkpt lat="42.5872" lon="3.03296">
        <ele>1.307015</ele>
        <time>2022-08-30T12:48:33.869Z</time>
      </trkpt>
      <trkpt lat="42.58823" lon="3.0346">
        <ele>1.098354</ele>
        <time>2022-08-30T12:49:24.097Z</time>
      </trkpt>
      <trkpt lat="42.58816" lon="3.0351">
        <ele>1.09778</ele>
        <time>2022-08-30T12:49:36.166Z</time>
      </trkpt>
      <trkpt lat="42.58794" lon="3.0354">
        <ele>1.097309</ele>
        <time>2022-08-30T12:49:46.048Z</time>
      </trkpt>
      <trkpt lat="42.58781" lon="3.03541">
        <ele>1.097108</ele>
        <time>2022-08-30T12:49:50.318Z</time>
      </trkpt>
      <trkpt lat="42.5879" lon="3.03595">
        <ele>1.139846</ele>
        <time>2022-08-30T12:50:03.354Z</time>
      </trkpt>
      <trkpt lat="42.58788" lon="3.03672">
        <ele>1.258083</ele>
        <time>2022-08-30T12:50:21.477Z</time>
      </trkpt>
      <trkpt lat="42.58791" lon="3.03711">
        <ele>1.319254</ele>
        <time>2022-08-30T12:50:31.033Z</time>
      </trkpt>
      <trkpt lat="42.58814" lon="3.03807">
        <ele>1.47645</ele>
        <time>2022-08-30T12:50:55.944Z</time>
      </trkpt>
      <trkpt lat="42.58842" lon="3.03885">
        <ele>1.774173</ele>
        <time>2022-08-30T12:51:17.997Z</time>
      </trkpt>
      <trkpt lat="42.58867" lon="3.03933">
        <ele>1.971415</ele>
        <time>2022-08-30T12:51:32.701Z</time>
      </trkpt>
      <trkpt lat="42.58884" lon="3.03963">
        <ele>2.100684</ele>
        <time>2022-08-30T12:51:42.359Z</time>
      </trkpt>
      <trkpt lat="42.58885" lon="3.03977">
        <ele>2.151292</ele>
        <time>2022-08-30T12:51:46.004Z</time>
      </trkpt>
      <trkpt lat="42.589" lon="3.03998">
        <ele>2.25225</ele>
        <time>2022-08-30T12:51:53.403Z</time>
      </trkpt>
      <trkpt lat="42.58952" lon="3.0412">
        <ele>2.340211</ele>
        <time>2022-08-30T12:52:27.446Z</time>
      </trkpt>
      <trkpt lat="42.58969" lon="3.0415">
        <ele>2.350236</ele>
        <time>2022-08-30T12:52:36.333Z</time>
      </trkpt>
      <trkpt lat="42.58996" lon="3.04178">
        <ele>2.362079</ele>
        <time>2022-08-30T12:52:46.706Z</time>
      </trkpt>
      <trkpt lat="42.59069" lon="3.0424">
        <ele>2.233429</ele>
        <time>2022-08-30T12:53:13.199Z</time>
      </trkpt>
      <trkpt lat="42.59105" lon="3.04259">
        <ele>2.141413</ele>
        <time>2022-08-30T12:53:25.227Z</time>
      </trkpt>
      <trkpt lat="42.59149" lon="3.04309">
        <ele>2.007301</ele>
        <time>2022-08-30T12:53:43.242Z</time>
      </trkpt>
      <trkpt lat="42.59148" lon="3.04299">
        <ele>1.989649</ele>
        <time>2022-08-30T12:53:45.689Z</time>
      </trkpt>
      <trkpt lat="42.59153" lon="3.0429">
        <ele>1.969165</ele>
        <time>2022-08-30T12:53:48.479Z</time>
      </trkpt>
      <trkpt lat="42.59155" lon="3.04288">
        <ele>1.964148</ele>
        <time>2022-08-30T12:53:49.148Z</time>
      </trkpt>
      <trkpt lat="42.59227" lon="3.04272">
        <ele>1.966904</ele>
        <time>2022-08-30T12:54:12.505Z</time>
      </trkpt>
      <trkpt lat="42.59255" lon="3.0425">
        <ele>1.974826</ele>
        <time>2022-08-30T12:54:22.665Z</time>
      </trkpt>
      <trkpt lat="42.59273" lon="3.04206">
        <ele>1.984027</ele>
        <time>2022-08-30T12:54:34.574Z</time>
      </trkpt>
      <trkpt lat="42.59288" lon="3.04152">
        <ele>1.994528</ele>
        <time>2022-08-30T12:54:48.321Z</time>
      </trkpt>
      <trkpt lat="42.59316" lon="3.04152">
        <ele>1.937369</ele>
        <time>2022-08-30T12:54:57.411Z</time>
      </trkpt>
      <trkpt lat="42.59327" lon="3.04142">
        <ele>1.910328</ele>
        <time>2022-08-30T12:55:01.686Z</time>
      </trkpt>
      <trkpt lat="42.59372" lon="3.04024">
        <ele>1.706334</ele>
        <time>2022-08-30T12:55:32.272Z</time>
      </trkpt>
      <trkpt lat="42.59372" lon="3.04022">
        <ele>1.704094</ele>
        <time>2022-08-30T12:55:32.615Z</time>
      </trkpt>
      <trkpt lat="42.5943" lon="3.04026">
        <ele>1.56856</ele>
        <time>2022-08-30T12:55:50.033Z</time>
      </trkpt>
      <trkpt lat="42.59509" lon="3.04096">
        <ele>1.28901</ele>
        <time>2022-08-30T12:56:19.341Z</time>
      </trkpt>
      <trkpt lat="42.59504" lon="3.04116">
        <ele>1.243136</ele>
        <time>2022-08-30T12:56:24.012Z</time>
      </trkpt>
      <trkpt lat="42.59489" lon="3.04129">
        <ele>1.188301</ele>
        <time>2022-08-30T12:56:29.883Z</time>
      </trkpt>
      <trkpt lat="42.59488" lon="3.0413">
        <ele>1.18706</ele>
        <time>2022-08-30T12:56:29.997Z</time>
      </trkpt>
      <trkpt lat="42.59489" lon="3.04129">
        <ele>1.185818</ele>
        <time>2022-08-30T12:56:30.211Z</time>
      </trkpt>
      <trkpt lat="42.59504" lon="3.04116">
        <ele>1.130984</ele>
        <time>2022-08-30T12:56:35.806Z</time>
      </trkpt>
      <trkpt lat="42.59509" lon="3.04096">
        <ele>1.086201</ele>
        <time>2022-08-30T12:56:40.704Z</time>
      </trkpt>
      <trkpt lat="42.59528" lon="3.04093">
        <ele>1.047237</ele>
        <time>2022-08-30T12:56:46.558Z</time>
      </trkpt>
      <trkpt lat="42.59549" lon="3.0409">
        <ele>1.005216</ele>
        <time>2022-08-30T12:56:53.173Z</time>
      </trkpt>
      <trkpt lat="42.59559" lon="3.04096">
        <ele>0.983154</ele>
        <time>2022-08-30T12:56:56.472Z</time>
      </trkpt>
      <trkpt lat="42.59574" lon="3.04096">
        <ele>0.953504</ele>
        <time>2022-08-30T12:57:01.148Z</time>
      </trkpt>
      <trkpt lat="42.59575" lon="3.04044">
        <ele>0.876506</ele>
        <time>2022-08-30T12:57:08.757Z</time>
      </trkpt>
      <trkpt lat="42.5962" lon="3.03817">
        <ele>0.399565</ele>
        <time>2022-08-30T12:57:42.770Z</time>
      </trkpt>
      <trkpt lat="42.59627" lon="3.03609">
        <ele>-0.098291</ele>
        <time>2022-08-30T12:58:12.000Z</time>
      </trkpt>
      <trkpt lat="42.59631" lon="3.03517">
        <ele>-0.314059</ele>
        <time>2022-08-30T12:58:25.242Z</time>
      </trkpt>
      <trkpt lat="42.59637" lon="3.03529">
        <ele>-0.348964</ele>
        <time>2022-08-30T12:58:28.642Z</time>
      </trkpt>
      <trkpt lat="42.59636" lon="3.03596">
        <ele>-0.449097</ele>
        <time>2022-08-30T12:58:43.962Z</time>
      </trkpt>
      <trkpt lat="42.59645" lon="3.03606">
        <ele>-0.45455</ele>
        <time>2022-08-30T12:58:47.699Z</time>
      </trkpt>
      <trkpt lat="42.5976" lon="3.0361">
        <ele>-0.507122</ele>
        <time>2022-08-30T12:59:24.083Z</time>
      </trkpt>
      <trkpt lat="42.59772" lon="3.03626">
        <ele>-0.515025</ele>
        <time>2022-08-30T12:59:29.701Z</time>
      </trkpt>
      <trkpt lat="42.59772" lon="3.03711">
        <ele>-0.384383</ele>
        <time>2022-08-30T12:59:50.033Z</time>
      </trkpt>
      <trkpt lat="42.59779" lon="3.03723">
        <ele>-0.351026</ele>
        <time>2022-08-30T12:59:53.800Z</time>
      </trkpt>
      <trkpt lat="42.60021" lon="3.03737">
        <ele>0.464489</ele>
        <time>2022-08-30T13:01:15.203Z</time>
      </trkpt>
      <trkpt lat="42.60036" lon="3.03723">
        <ele>0.533891</ele>
        <time>2022-08-30T13:01:21.365Z</time>
      </trkpt>
      <trkpt lat="42.60057" lon="3.03725">
        <ele>0.616401</ele>
        <time>2022-08-30T13:01:28.739Z</time>
      </trkpt>
      <trkpt lat="42.60058" lon="3.0377">
        <ele>0.783468</ele>
        <time>2022-08-30T13:01:40.020Z</time>
      </trkpt>
      <trkpt lat="42.60054" lon="3.03782">
        <ele>0.84636</ele>
        <time>2022-08-30T13:01:43.227Z</time>
      </trkpt>
      <trkpt lat="42.60058" lon="3.03804">
        <ele>0.956753</ele>
        <time>2022-08-30T13:01:48.995Z</time>
      </trkpt>
      <trkpt lat="42.60062" lon="3.03818">
        <ele>1.026167</ele>
        <time>2022-08-30T13:01:52.566Z</time>
      </trkpt>
      <trkpt lat="42.60062" lon="3.03825">
        <ele>1.06126</ele>
        <time>2022-08-30T13:01:54.367Z</time>
      </trkpt>
      <trkpt lat="42.6008" lon="3.03882">
        <ele>1.357462</ele>
        <time>2022-08-30T13:02:10.224Z</time>
      </trkpt>
      <trkpt lat="42.60093" lon="3.03905">
        <ele>1.495344</ele>
        <time>2022-08-30T13:02:17.882Z</time>
      </trkpt>
      <trkpt lat="42.60112" lon="3.03943">
        <ele>1.713861</ele>
        <time>2022-08-30T13:02:30.329Z</time>
      </trkpt>
      <trkpt lat="42.60146" lon="3.03976">
        <ele>1.935136</ele>
        <time>2022-08-30T13:02:45.796Z</time>
      </trkpt>
      <trkpt lat="42.60161" lon="3.03985">
        <ele>1.996161</ele>
        <time>2022-08-30T13:02:51.545Z</time>
      </trkpt>
      <trkpt lat="42.60169" lon="3.0399">
        <ele>2.027841</ele>
        <time>2022-08-30T13:02:54.273Z</time>
      </trkpt>
      <trkpt lat="42.60196" lon="3.04009">
        <ele>2.144307</ele>
        <time>2022-08-30T13:03:05.171Z</time>
      </trkpt>
      <trkpt lat="42.60222" lon="3.04019">
        <ele>2.243093</ele>
        <time>2022-08-30T13:03:14.193Z</time>
      </trkpt>
      <trkpt lat="42.60266" lon="3.04019">
        <ele>2.410194</ele>
        <time>2022-08-30T13:03:28.726Z</time>
      </trkpt>
      <trkpt lat="42.60269" lon="3.04008">
        <ele>2.442561</ele>
        <time>2022-08-30T13:03:31.303Z</time>
      </trkpt>
      <trkpt lat="42.60249" lon="3.04008">
        <ele>2.519336</ele>
        <time>2022-08-30T13:03:35.770Z</time>
      </trkpt>
      <trkpt lat="42.6025" lon="3.03982">
        <ele>2.455231</ele>
        <time>2022-08-30T13:03:48.931Z</time>
      </trkpt>
      <trkpt lat="42.6025" lon="3.03977">
        <ele>2.434218</ele>
        <time>2022-08-30T13:03:51.734Z</time>
      </trkpt>
      <trkpt lat="42.60287" lon="3.03986">
        <ele>2.236206</ele>
        <time>2022-08-30T13:03:58.966Z</time>
      </trkpt>
      <trkpt lat="42.60284" lon="3.0394">
        <ele>2.057797</ele>
        <time>2022-08-30T13:04:22.428Z</time>
      </trkpt>
      <trkpt lat="42.60303" lon="3.03936">
        <ele>1.957006</ele>
        <time>2022-08-30T13:04:35.732Z</time>
      </trkpt>
      <trkpt lat="42.60311" lon="3.03934">
        <ele>1.917558</ele>
        <time>2022-08-30T13:04:40.921Z</time>
      </trkpt>
      <trkpt lat="42.60312" lon="3.03887">
        <ele>1.732089</ele>
        <time>2022-08-30T13:05:05.354Z</time>
      </trkpt>
      <trkpt lat="42.6033" lon="3.0387">
        <ele>1.61722</ele>
        <time>2022-08-30T13:05:20.461Z</time>
      </trkpt>
      <trkpt lat="42.60328" lon="3.03864">
        <ele>1.593694</ele>
        <time>2022-08-30T13:05:23.539Z</time>
      </trkpt>
      <trkpt lat="42.60347" lon="3.03848">
        <ele>1.539415</ele>
        <time>2022-08-30T13:05:38.959Z</time>
      </trkpt>
      <trkpt lat="42.60347" lon="3.03849">
        <ele>1.538593</ele>
        <time>2022-08-30T13:05:39.234Z</time>
      </trkpt>
      <trkpt lat="42.60364" lon="3.03869">
        <ele>1.489497</ele>
        <time>2022-08-30T13:05:54.658Z</time>
      </trkpt>
      <trkpt lat="42.60387" lon="3.03853">
        <ele>1.433183</ele>
        <time>2022-08-30T13:06:12.405Z</time>
      </trkpt>
      <trkpt lat="42.60395" lon="3.03848">
        <ele>1.413063</ele>
        <time>2022-08-30T13:06:18.752Z</time>
      </trkpt>
      <trkpt lat="42.60425" lon="3.03826">
        <ele>1.336851</ele>
        <time>2022-08-30T13:06:42.732Z</time>
      </trkpt>
      <trkpt lat="42.605" lon="3.03849">
        <ele>1.235184</ele>
        <time>2022-08-30T13:07:15.661Z</time>
      </trkpt>
      <trkpt lat="42.60576" lon="3.03872">
        <ele>1.630144</ele>
        <time>2022-08-30T13:07:48.591Z</time>
      </trkpt>
      <trkpt lat="42.60651" lon="3.03894">
        <ele>2.024604</ele>
        <time>2022-08-30T13:08:21.521Z</time>
      </trkpt>
      <trkpt lat="42.60726" lon="3.03917">
        <ele>2.015557</ele>
        <time>2022-08-30T13:08:54.450Z</time>
      </trkpt>
      <trkpt lat="42.60798" lon="3.03906">
        <ele>1.902726</ele>
        <time>2022-08-30T13:09:12.365Z</time>
      </trkpt>
      <trkpt lat="42.60815" lon="3.03905">
        <ele>1.875836</ele>
        <time>2022-08-30T13:09:16.431Z</time>
      </trkpt>
      <trkpt lat="42.60815" lon="3.03895">
        <ele>1.864798</ele>
        <time>2022-08-30T13:09:18.657Z</time>
      </trkpt>
      <trkpt lat="42.60857" lon="3.03893">
        <ele>1.670301</ele>
        <time>2022-08-30T13:09:47.892Z</time>
      </trkpt>
      <trkpt lat="42.60872" lon="3.03892">
        <ele>1.548165</ele>
        <time>2022-08-30T13:09:58.357Z</time>
      </trkpt>
      <trkpt lat="42.60907" lon="3.03883">
        <ele>1.25571</ele>
        <time>2022-08-30T13:10:08.869Z</time>
      </trkpt>
      <trkpt lat="42.6094" lon="3.03884">
        <ele>0.993788</ele>
        <time>2022-08-30T13:10:18.298Z</time>
      </trkpt>
      <trkpt lat="42.60965" lon="3.03907">
        <ele>0.746363</ele>
        <time>2022-08-30T13:10:27.341Z</time>
      </trkpt>
      <trkpt lat="42.60967" lon="3.03913">
        <ele>0.705052</ele>
        <time>2022-08-30T13:10:28.770Z</time>
      </trkpt>
      <trkpt lat="42.61011" lon="3.03863">
        <ele>0.340855</ele>
        <time>2022-08-30T13:10:46.234Z</time>
      </trkpt>
      <trkpt lat="42.61053" lon="3.03832">
        <ele>0.241711</ele>
        <time>2022-08-30T13:11:01.004Z</time>
      </trkpt>
      <trkpt lat="42.61084" lon="3.03814">
        <ele>0.171369</ele>
        <time>2022-08-30T13:11:11.625Z</time>
      </trkpt>
      <trkpt lat="42.61101" lon="3.03811">
        <ele>0.136299</ele>
        <time>2022-08-30T13:11:16.816Z</time>
      </trkpt>
      <trkpt lat="42.61213" lon="3.03815">
        <ele>0.052822</ele>
        <time>2022-08-30T13:11:52.698Z</time>
      </trkpt>
      <trkpt lat="42.61302" lon="3.03829">
        <ele>0.15022</ele>
        <time>2022-08-30T13:12:21.170Z</time>
      </trkpt>
      <trkpt lat="42.61353" lon="3.03847">
        <ele>0.249861</ele>
        <time>2022-08-30T13:12:38.456Z</time>
      </trkpt>
      <trkpt lat="42.61377" lon="3.03843">
        <ele>0.389942</ele>
        <time>2022-08-30T13:12:47.013Z</time>
      </trkpt>
      <trkpt lat="42.61385" lon="3.03849">
        <ele>0.437539</ele>
        <time>2022-08-30T13:12:49.974Z</time>
      </trkpt>
      <trkpt lat="42.61394" lon="3.03827">
        <ele>0.539122</ele>
        <time>2022-08-30T13:12:56.237Z</time>
      </trkpt>
      <trkpt lat="42.61405" lon="3.03824">
        <ele>0.599902</ele>
        <time>2022-08-30T13:12:59.967Z</time>
      </trkpt>
      <trkpt lat="42.61405" lon="3.03807">
        <ele>0.671009</ele>
        <time>2022-08-30T13:13:02.928Z</time>
      </trkpt>
      <trkpt lat="42.61405" lon="3.03758">
        <ele>0.873245</ele>
        <time>2022-08-30T13:13:11.578Z</time>
      </trkpt>
      <trkpt lat="42.61406" lon="3.03688">
        <ele>1.162193</ele>
        <time>2022-08-30T13:13:24.046Z</time>
      </trkpt>
      <trkpt lat="42.61405" lon="3.03677">
        <ele>1.203906</ele>
        <time>2022-08-30T13:13:25.849Z</time>
      </trkpt>
      <trkpt lat="42.614" lon="3.03677">
        <ele>1.218363</ele>
        <time>2022-08-30T13:13:27.589Z</time>
      </trkpt>
      <trkpt lat="42.61394" lon="3.03625">
        <ele>1.332997</ele>
        <time>2022-08-30T13:13:40.930Z</time>
      </trkpt>
      <trkpt lat="42.61391" lon="3.03587">
        <ele>1.417227</ele>
        <time>2022-08-30T13:13:50.609Z</time>
      </trkpt>
      <trkpt lat="42.61387" lon="3.03544">
        <ele>1.510008</ele>
        <time>2022-08-30T13:14:01.232Z</time>
      </trkpt>
      <trkpt lat="42.61386" lon="3.03533">
        <ele>1.534373</ele>
        <time>2022-08-30T13:14:04.055Z</time>
      </trkpt>
      <trkpt lat="42.61378" lon="3.03429">
        <ele>1.698076</ele>
        <time>2022-08-30T13:14:28.559Z</time>
      </trkpt>
      <trkpt lat="42.61376" lon="3.034">
        <ele>1.627595</ele>
        <time>2022-08-30T13:14:35.364Z</time>
      </trkpt>
      <trkpt lat="42.61382" lon="3.03399">
        <ele>1.60765</ele>
        <time>2022-08-30T13:14:37.293Z</time>
      </trkpt>
      <trkpt lat="42.61437" lon="3.03383">
        <ele>1.426444</ele>
        <time>2022-08-30T13:14:54.448Z</time>
      </trkpt>
      <trkpt lat="42.61446" lon="3.03384">
        <ele>1.396832</ele>
        <time>2022-08-30T13:14:57.255Z</time>
      </trkpt>
      <trkpt lat="42.61459" lon="3.03388">
        <ele>1.353599</ele>
        <time>2022-08-30T13:15:01.362Z</time>
      </trkpt>
      <trkpt lat="42.61474" lon="3.03411">
        <ele>1.281076</ele>
        <time>2022-08-30T13:15:08.270Z</time>
      </trkpt>
      <trkpt lat="42.61481" lon="3.0341">
        <ele>1.258957</ele>
        <time>2022-08-30T13:15:10.383Z</time>
      </trkpt>
      <trkpt lat="42.61487" lon="3.03469">
        <ele>1.111907</ele>
        <time>2022-08-30T13:15:18.956Z</time>
      </trkpt>
      <trkpt lat="42.61491" lon="3.03515">
        <ele>0.987795</ele>
        <time>2022-08-30T13:15:25.629Z</time>
      </trkpt>
      <trkpt lat="42.61496" lon="3.03571">
        <ele>0.836218</ele>
        <time>2022-08-30T13:15:33.556Z</time>
      </trkpt>
      <trkpt lat="42.61501" lon="3.03607">
        <ele>0.737376</ele>
        <time>2022-08-30T13:15:38.696Z</time>
      </trkpt>
      <trkpt lat="42.61501" lon="3.03607">
        <ele>0.737107</ele>
        <time>2022-08-30T13:15:38.706Z</time>
      </trkpt>
      <trkpt lat="42.61518" lon="3.03619">
        <ele>0.669924</ele>
        <time>2022-08-30T13:15:42.324Z</time>
      </trkpt>
      <trkpt lat="42.61545" lon="3.03597">
        <ele>0.553813</ele>
        <time>2022-08-30T13:15:48.405Z</time>
      </trkpt>
      <trkpt lat="42.6155" lon="3.03605">
        <ele>0.527344</ele>
        <time>2022-08-30T13:15:49.842Z</time>
      </trkpt>
      <trkpt lat="42.61554" lon="3.03603">
        <ele>0.512895</ele>
        <time>2022-08-30T13:15:50.599Z</time>
      </trkpt>
      <trkpt lat="42.61582" lon="3.03575">
        <ele>0.36827</ele>
        <time>2022-08-30T13:15:57.375Z</time>
      </trkpt>
      <trkpt lat="42.61591" lon="3.03571">
        <ele>0.329653</ele>
        <time>2022-08-30T13:15:59.051Z</time>
      </trkpt>
      <trkpt lat="42.61606" lon="3.03556">
        <ele>0.25143</ele>
        <time>2022-08-30T13:16:02.533Z</time>
      </trkpt>
      <trkpt lat="42.6163" lon="3.03532">
        <ele>0.129102</ele>
        <time>2022-08-30T13:16:07.796Z</time>
      </trkpt>
      <trkpt lat="42.61636" lon="3.03531">
        <ele>0.103691</ele>
        <time>2022-08-30T13:16:08.939Z</time>
      </trkpt>
      <trkpt lat="42.61638" lon="3.03533">
        <ele>0.092467</ele>
        <time>2022-08-30T13:16:09.436Z</time>
      </trkpt>
      <trkpt lat="42.61651" lon="3.0355">
        <ele>0.019405</ele>
        <time>2022-08-30T13:16:12.523Z</time>
      </trkpt>
      <trkpt lat="42.6168" lon="3.03604">
        <ele>-0.184072</ele>
        <time>2022-08-30T13:16:21.477Z</time>
      </trkpt>
      <trkpt lat="42.61687" lon="3.03604">
        <ele>-0.215644</ele>
        <time>2022-08-30T13:16:22.895Z</time>
      </trkpt>
      <trkpt lat="42.61698" lon="3.03594">
        <ele>-0.253652</ele>
        <time>2022-08-30T13:16:25.170Z</time>
      </trkpt>
      <trkpt lat="42.61725" lon="3.0357">
        <ele>-0.270421</ele>
        <time>2022-08-30T13:16:31.140Z</time>
      </trkpt>
      <trkpt lat="42.61739" lon="3.03557">
        <ele>-0.279583</ele>
        <time>2022-08-30T13:16:34.403Z</time>
      </trkpt>
      <trkpt lat="42.61783" lon="3.03511">
        <ele>-0.308373</ele>
        <time>2022-08-30T13:16:44.744Z</time>
      </trkpt>
      <trkpt lat="42.61786" lon="3.0351">
        <ele>-0.310012</ele>
        <time>2022-08-30T13:16:45.336Z</time>
      </trkpt>
      <trkpt lat="42.61788" lon="3.03513">
        <ele>-0.311749</ele>
        <time>2022-08-30T13:16:45.948Z</time>
      </trkpt>
      <trkpt lat="42.61862" lon="3.03645">
        <ele>-0.247264</ele>
        <time>2022-08-30T13:17:10.666Z</time>
      </trkpt>
      <trkpt lat="42.61919" lon="3.03744">
        <ele>-0.089717</ele>
        <time>2022-08-30T13:17:29.617Z</time>
      </trkpt>
      <trkpt lat="42.61932" lon="3.03752">
        <ele>-0.065091</ele>
        <time>2022-08-30T13:17:32.535Z</time>
      </trkpt>
      <trkpt lat="42.61942" lon="3.0376">
        <ele>-0.044701</ele>
        <time>2022-08-30T13:17:34.954Z</time>
      </trkpt>
      <trkpt lat="42.61948" lon="3.03772">
        <ele>-0.03655</ele>
        <time>2022-08-30T13:17:37.005Z</time>
      </trkpt>
      <trkpt lat="42.6196" lon="3.03787">
        <ele>-0.031811</ele>
        <time>2022-08-30T13:17:41.119Z</time>
      </trkpt>
      <trkpt lat="42.61967" lon="3.038">
        <ele>-0.028102</ele>
        <time>2022-08-30T13:17:44.293Z</time>
      </trkpt>
      <trkpt lat="42.61991" lon="3.03776">
        <ele>-0.019029</ele>
        <time>2022-08-30T13:17:51.869Z</time>
      </trkpt>
      <trkpt lat="42.61997" lon="3.03748">
        <ele>-0.012587</ele>
        <time>2022-08-30T13:17:57.160Z</time>
      </trkpt>
      <trkpt lat="42.62003" lon="3.03714">
        <ele>-0.004849</ele>
        <time>2022-08-30T13:18:03.607Z</time>
      </trkpt>
      <trkpt lat="42.62012" lon="3.03705">
        <ele>-0.001489</ele>
        <time>2022-08-30T13:18:05.811Z</time>
      </trkpt>
      <trkpt lat="42.62018" lon="3.03716">
        <ele>0.001569</ele>
        <time>2022-08-30T13:18:07.854Z</time>
      </trkpt>
      <trkpt lat="42.6206" lon="3.03673">
        <ele>0.013021</ele>
        <time>2022-08-30T13:18:17.826Z</time>
      </trkpt>
      <trkpt lat="42.62093" lon="3.03639">
        <ele>-0.007572</ele>
        <time>2022-08-30T13:18:25.250Z</time>
      </trkpt>
      <trkpt lat="42.62123" lon="3.03608">
        <ele>-0.026419</ele>
        <time>2022-08-30T13:18:32.209Z</time>
      </trkpt>
      <trkpt lat="42.62151" lon="3.03579">
        <ele>-0.043846</ele>
        <time>2022-08-30T13:18:38.788Z</time>
      </trkpt>
      <trkpt lat="42.62176" lon="3.03552">
        <ele>-0.059875</ele>
        <time>2022-08-30T13:18:45.135Z</time>
      </trkpt>
      <trkpt lat="42.62192" lon="3.03532">
        <ele>-0.070676</ele>
        <time>2022-08-30T13:18:49.508Z</time>
      </trkpt>
      <trkpt lat="42.62213" lon="3.0354">
        <ele>0.022866</ele>
        <time>2022-08-30T13:18:54.068Z</time>
      </trkpt>
      <trkpt lat="42.6226" lon="3.03625">
        <ele>0.495214</ele>
        <time>2022-08-30T13:19:11.492Z</time>
      </trkpt>
      <trkpt lat="42.62264" lon="3.03653">
        <ele>0.625018</ele>
        <time>2022-08-30T13:19:16.398Z</time>
      </trkpt>
      <trkpt lat="42.62273" lon="3.03641">
        <ele>0.699708</ele>
        <time>2022-08-30T13:19:19.576Z</time>
      </trkpt>
      <trkpt lat="42.62294" lon="3.03683">
        <ele>0.926739</ele>
        <time>2022-08-30T13:19:28.099Z</time>
      </trkpt>
      <trkpt lat="42.623" lon="3.03689">
        <ele>0.969198</ele>
        <time>2022-08-30T13:19:29.801Z</time>
      </trkpt>
      <trkpt lat="42.62307" lon="3.03709">
        <ele>1.050813</ele>
        <time>2022-08-30T13:19:33.971Z</time>
      </trkpt>
      <trkpt lat="42.62324" lon="3.0371">
        <ele>1.118457</ele>
        <time>2022-08-30T13:19:37.783Z</time>
      </trkpt>
      <trkpt lat="42.62333" lon="3.03693">
        <ele>1.180026</ele>
        <time>2022-08-30T13:19:41.706Z</time>
      </trkpt>
      <trkpt lat="42.6233" lon="3.03677">
        <ele>1.227057</ele>
        <time>2022-08-30T13:19:44.326Z</time>
      </trkpt>
      <trkpt lat="42.62333" lon="3.03665">
        <ele>1.265383</ele>
        <time>2022-08-30T13:19:46.576Z</time>
      </trkpt>
      <trkpt lat="42.62341" lon="3.03667">
        <ele>1.295563</ele>
        <time>2022-08-30T13:19:48.596Z</time>
      </trkpt>
      <trkpt lat="42.62346" lon="3.03658">
        <ele>1.329526</ele>
        <time>2022-08-30T13:19:50.834Z</time>
      </trkpt>
      <trkpt lat="42.62364" lon="3.0365">
        <ele>1.406937</ele>
        <time>2022-08-30T13:19:55.209Z</time>
      </trkpt>
      <trkpt lat="42.62385" lon="3.03648">
        <ele>1.487325</ele>
        <time>2022-08-30T13:19:59.916Z</time>
      </trkpt>
      <trkpt lat="42.62499" lon="3.03631">
        <ele>1.643985</ele>
        <time>2022-08-30T13:20:22.275Z</time>
      </trkpt>
      <trkpt lat="42.62606" lon="3.03616">
        <ele>1.481128</ele>
        <time>2022-08-30T13:20:43.306Z</time>
      </trkpt>
      <trkpt lat="42.62725" lon="3.03596">
        <ele>1.560941</ele>
        <time>2022-08-30T13:21:08.301Z</time>
      </trkpt>
      <trkpt lat="42.62766" lon="3.03591">
        <ele>1.603538</ele>
        <time>2022-08-30T13:21:17.655Z</time>
      </trkpt>
      <trkpt lat="42.62842" lon="3.03577">
        <ele>1.517748</ele>
        <time>2022-08-30T13:21:33.247Z</time>
      </trkpt>
      <trkpt lat="42.62907" lon="3.03567">
        <ele>1.319538</ele>
        <time>2022-08-30T13:21:45.665Z</time>
      </trkpt>
      <trkpt lat="42.62947" lon="3.03561">
        <ele>1.194384</ele>
        <time>2022-08-30T13:21:53.367Z</time>
      </trkpt>
      <trkpt lat="42.63082" lon="3.03542">
        <ele>0.680608</ele>
        <time>2022-08-30T13:22:18.786Z</time>
      </trkpt>
      <trkpt lat="42.63121" lon="3.03535">
        <ele>0.521576</ele>
        <time>2022-08-30T13:22:26.551Z</time>
      </trkpt>
      <trkpt lat="42.63187" lon="3.03526">
        <ele>0.393514</ele>
        <time>2022-08-30T13:22:39.758Z</time>
      </trkpt>
      <trkpt lat="42.63217" lon="3.03521">
        <ele>0.422802</ele>
        <time>2022-08-30T13:22:45.862Z</time>
      </trkpt>
      <trkpt lat="42.63221" lon="3.03562">
        <ele>0.451939</ele>
        <time>2022-08-30T13:22:51.956Z</time>
      </trkpt>
      <trkpt lat="42.63224" lon="3.03564">
        <ele>0.455809</ele>
        <time>2022-08-30T13:22:52.847Z</time>
      </trkpt>
      <trkpt lat="42.6323" lon="3.0356">
        <ele>0.46222</ele>
        <time>2022-08-30T13:22:54.221Z</time>
      </trkpt>
      <trkpt lat="42.6323" lon="3.03553">
        <ele>0.467155</ele>
        <time>2022-08-30T13:22:55.375Z</time>
      </trkpt>
      <trkpt lat="42.63328" lon="3.03539">
        <ele>0.565278</ele>
        <time>2022-08-30T13:23:16.426Z</time>
      </trkpt>
      <trkpt lat="42.63332" lon="3.03539">
        <ele>0.569363</ele>
        <time>2022-08-30T13:23:17.216Z</time>
      </trkpt>
      <trkpt lat="42.63368" lon="3.03534">
        <ele>0.608183</ele>
        <time>2022-08-30T13:23:24.726Z</time>
      </trkpt>
      <trkpt lat="42.63376" lon="3.03538">
        <ele>0.616876</ele>
        <time>2022-08-30T13:23:26.571Z</time>
      </trkpt>
      <trkpt lat="42.63469" lon="3.03495">
        <ele>0.721962</ele>
        <time>2022-08-30T13:23:46.813Z</time>
      </trkpt>
      <trkpt lat="42.63642" lon="3.03463">
        <ele>0.548145</ele>
        <time>2022-08-30T13:24:21.629Z</time>
      </trkpt>
      <trkpt lat="42.63713" lon="3.0345">
        <ele>0.606601</ele>
        <time>2022-08-30T13:24:35.943Z</time>
      </trkpt>
      <trkpt lat="42.6379" lon="3.03435">
        <ele>0.713049</ele>
        <time>2022-08-30T13:24:52.145Z</time>
      </trkpt>
      <trkpt lat="42.64041" lon="3.03388">
        <ele>1.697322</ele>
        <time>2022-08-30T13:25:48.020Z</time>
      </trkpt>
      <trkpt lat="42.64041" lon="3.03381">
        <ele>1.743157</ele>
        <time>2022-08-30T13:25:49.439Z</time>
      </trkpt>
      <trkpt lat="42.64091" lon="3.03351">
        <ele>2.178792</ele>
        <time>2022-08-30T13:26:02.949Z</time>
      </trkpt>
      <trkpt lat="42.64087" lon="3.03331">
        <ele>2.300093</ele>
        <time>2022-08-30T13:26:08.497Z</time>
      </trkpt>
      <trkpt lat="42.64095" lon="3.03307">
        <ele>2.457186</ele>
        <time>2022-08-30T13:26:14.533Z</time>
      </trkpt>
      <trkpt lat="42.64096" lon="3.033">
        <ele>2.49531</ele>
        <time>2022-08-30T13:26:15.971Z</time>
      </trkpt>
      <trkpt lat="42.64097" lon="3.03293">
        <ele>2.539418</ele>
        <time>2022-08-30T13:26:17.622Z</time>
      </trkpt>
      <trkpt lat="42.64085" lon="3.03279">
        <ele>2.670204</ele>
        <time>2022-08-30T13:26:22.558Z</time>
      </trkpt>
      <trkpt lat="42.64035" lon="3.03248">
        <ele>2.937409</ele>
        <time>2022-08-30T13:26:35.571Z</time>
      </trkpt>
      <trkpt lat="42.64024" lon="3.03227">
        <ele>2.953973</ele>
        <time>2022-08-30T13:26:39.745Z</time>
      </trkpt>
      <trkpt lat="42.64013" lon="3.03208">
        <ele>2.969195</ele>
        <time>2022-08-30T13:26:43.633Z</time>
      </trkpt>
      <trkpt lat="42.64001" lon="3.03171">
        <ele>2.995487</ele>
        <time>2022-08-30T13:26:49.731Z</time>
      </trkpt>
      <trkpt lat="42.63996" lon="3.03158">
        <ele>3.004623</ele>
        <time>2022-08-30T13:26:51.740Z</time>
      </trkpt>
      <trkpt lat="42.63974" lon="3.03045">
        <ele>3.022873</ele>
        <time>2022-08-30T13:27:07.356Z</time>
      </trkpt>
      <trkpt lat="42.63969" lon="3.03046">
        <ele>2.990901</ele>
        <time>2022-08-30T13:27:08.701Z</time>
      </trkpt>
      <trkpt lat="42.6393" lon="3.02862">
        <ele>1.949788</ele>
        <time>2022-08-30T13:27:32.828Z</time>
      </trkpt>
      <trkpt lat="42.63929" lon="3.0284">
        <ele>1.83132</ele>
        <time>2022-08-30T13:27:35.591Z</time>
      </trkpt>
      <trkpt lat="42.63923" lon="3.02813">
        <ele>1.70726</ele>
        <time>2022-08-30T13:27:39.058Z</time>
      </trkpt>
      <trkpt lat="42.63844" lon="3.02415">
        <ele>0.458365</ele>
        <time>2022-08-30T13:28:34.120Z</time>
      </trkpt>
      <trkpt lat="42.63841" lon="3.02401">
        <ele>0.419783</ele>
        <time>2022-08-30T13:28:36.119Z</time>
      </trkpt>
      <trkpt lat="42.63825" lon="3.0231">
        <ele>0.302553</ele>
        <time>2022-08-30T13:28:48.683Z</time>
      </trkpt>
      <trkpt lat="42.63828" lon="3.02256">
        <ele>0.314425</ele>
        <time>2022-08-30T13:28:55.908Z</time>
      </trkpt>
      <trkpt lat="42.63835" lon="3.0224">
        <ele>0.318726</ele>
        <time>2022-08-30T13:28:58.571Z</time>
      </trkpt>
      <trkpt lat="42.6389" lon="3.0202">
        <ele>0.489256</ele>
        <time>2022-08-30T13:29:32.913Z</time>
      </trkpt>
      <trkpt lat="42.63927" lon="3.01878">
        <ele>0.705511</ele>
        <time>2022-08-30T13:29:55.785Z</time>
      </trkpt>
      <trkpt lat="42.6395" lon="3.01783">
        <ele>0.960196</ele>
        <time>2022-08-30T13:30:12.655Z</time>
      </trkpt>
      <trkpt lat="42.63959" lon="3.01732">
        <ele>1.090854</ele>
        <time>2022-08-30T13:30:20.778Z</time>
      </trkpt>
      <trkpt lat="42.63959" lon="3.01705">
        <ele>1.159885</ele>
        <time>2022-08-30T13:30:24.579Z</time>
      </trkpt>
      <trkpt lat="42.63953" lon="3.01671">
        <ele>1.247642</ele>
        <time>2022-08-30T13:30:29.454Z</time>
      </trkpt>
      <trkpt lat="42.63926" lon="3.0163">
        <ele>1.32307</ele>
        <time>2022-08-30T13:30:37.091Z</time>
      </trkpt>
      <trkpt lat="42.63907" lon="3.01616">
        <ele>1.344338</ele>
        <time>2022-08-30T13:30:41.472Z</time>
      </trkpt>
      <trkpt lat="42.63913" lon="3.0161">
        <ele>1.351266</ele>
        <time>2022-08-30T13:30:43.231Z</time>
      </trkpt>
      <trkpt lat="42.639" lon="3.01601">
        <ele>1.365622</ele>
        <time>2022-08-30T13:30:46.109Z</time>
      </trkpt>
      <trkpt lat="42.63869" lon="3.01579">
        <ele>1.400541</ele>
        <time>2022-08-30T13:30:53.076Z</time>
      </trkpt>
      <trkpt lat="42.63828" lon="3.01534">
        <ele>1.452846</ele>
        <time>2022-08-30T13:31:03.694Z</time>
      </trkpt>
      <trkpt lat="42.63822" lon="3.01523">
        <ele>1.463348</ele>
        <time>2022-08-30T13:31:05.671Z</time>
      </trkpt>
      <trkpt lat="42.63777" lon="3.01445">
        <ele>1.496189</ele>
        <time>2022-08-30T13:31:19.610Z</time>
      </trkpt>
      <trkpt lat="42.63772" lon="3.01449">
        <ele>1.497911</ele>
        <time>2022-08-30T13:31:20.921Z</time>
      </trkpt>
      <trkpt lat="42.63742" lon="3.01399">
        <ele>1.514084</ele>
        <time>2022-08-30T13:31:30.191Z</time>
      </trkpt>
      <trkpt lat="42.63727" lon="3.01385">
        <ele>1.520189</ele>
        <time>2022-08-30T13:31:33.727Z</time>
      </trkpt>
      <trkpt lat="42.63608" lon="3.01271">
        <ele>1.499249</ele>
        <time>2022-08-30T13:32:02.280Z</time>
      </trkpt>
      <trkpt lat="42.63611" lon="3.01265">
        <ele>1.497322</ele>
        <time>2022-08-30T13:32:03.231Z</time>
      </trkpt>
      <trkpt lat="42.63613" lon="3.01261">
        <ele>1.495806</ele>
        <time>2022-08-30T13:32:03.958Z</time>
      </trkpt>
      <trkpt lat="42.63604" lon="3.01241">
        <ele>1.489058</ele>
        <time>2022-08-30T13:32:07.217Z</time>
      </trkpt>
      <trkpt lat="42.63595" lon="3.01185">
        <ele>1.472826</ele>
        <time>2022-08-30T13:32:15.053Z</time>
      </trkpt>
      <trkpt lat="42.63597" lon="3.01159">
        <ele>1.453901</ele>
        <time>2022-08-30T13:32:18.642Z</time>
      </trkpt>
      <trkpt lat="42.63622" lon="3.01144">
        <ele>1.372057</ele>
        <time>2022-08-30T13:32:27.285Z</time>
      </trkpt>
      <trkpt lat="42.63644" lon="3.0111">
        <ele>1.273674</ele>
        <time>2022-08-30T13:32:37.655Z</time>
      </trkpt>
      <trkpt lat="42.63651" lon="3.01087">
        <ele>1.221544</ele>
        <time>2022-08-30T13:32:43.122Z</time>
      </trkpt>
      <trkpt lat="42.63651" lon="3.01015">
        <ele>1.065023</ele>
        <time>2022-08-30T13:32:59.528Z</time>
      </trkpt>
      <trkpt lat="42.63657" lon="3.0098">
        <ele>0.985963</ele>
        <time>2022-08-30T13:33:07.788Z</time>
      </trkpt>
      <trkpt lat="42.63696" lon="3.009">
        <ele>0.815804</ele>
        <time>2022-08-30T13:33:29.505Z</time>
      </trkpt>
      <trkpt lat="42.63718" lon="3.00878">
        <ele>0.755181</ele>
        <time>2022-08-30T13:33:37.893Z</time>
      </trkpt>
      <trkpt lat="42.63733" lon="3.00848">
        <ele>0.695617</ele>
        <time>2022-08-30T13:33:46.212Z</time>
      </trkpt>
      <trkpt lat="42.63792" lon="3.00787">
        <ele>0.533062</ele>
        <time>2022-08-30T13:34:01.701Z</time>
      </trkpt>
      <trkpt lat="42.6383" lon="3.00709">
        <ele>0.531673</ele>
        <time>2022-08-30T13:34:16.214Z</time>
      </trkpt>
      <trkpt lat="42.63916" lon="3.00788">
        <ele>0.529582</ele>
        <time>2022-08-30T13:34:36.691Z</time>
      </trkpt>
      <trkpt lat="42.63986" lon="3.00824">
        <ele>0.528067</ele>
        <time>2022-08-30T13:34:50.928Z</time>
      </trkpt>
      <trkpt lat="42.6402" lon="3.00715">
        <ele>0.526301</ele>
        <time>2022-08-30T13:35:09.538Z</time>
      </trkpt>
      <trkpt lat="42.64031" lon="3.00714">
        <ele>0.526075</ele>
        <time>2022-08-30T13:35:11.898Z</time>
      </trkpt>
      <trkpt lat="42.64059" lon="3.00727">
        <ele>0.582928</ele>
        <time>2022-08-30T13:35:18.459Z</time>
      </trkpt>
      <trkpt lat="42.64066" lon="3.00722">
        <ele>0.605124</ele>
        <time>2022-08-30T13:35:19.961Z</time>
      </trkpt>
      <trkpt lat="42.64102" lon="3.00611">
        <ele>0.880517</ele>
        <time>2022-08-30T13:35:40.007Z</time>
      </trkpt>
      <trkpt lat="42.64098" lon="3.00601">
        <ele>0.906751</ele>
        <time>2022-08-30T13:35:42.040Z</time>
      </trkpt>
      <trkpt lat="42.64099" lon="3.00584">
        <ele>0.946897</ele>
        <time>2022-08-30T13:35:45.012Z</time>
      </trkpt>
      <trkpt lat="42.64111" lon="3.00571">
        <ele>0.992779</ele>
        <time>2022-08-30T13:35:48.594Z</time>
      </trkpt>
      <trkpt lat="42.64121" lon="3.00212">
        <ele>2.140566</ele>
        <time>2022-08-30T13:36:53.494Z</time>
      </trkpt>
      <trkpt lat="42.64122" lon="3.00168">
        <ele>2.138147</ele>
        <time>2022-08-30T13:37:00.334Z</time>
      </trkpt>
      <trkpt lat="42.64155" lon="3.00037">
        <ele>2.108782</ele>
        <time>2022-08-30T13:37:21.094Z</time>
      </trkpt>
      <trkpt lat="42.64171" lon="2.99948">
        <ele>1.9538</ele>
        <time>2022-08-30T13:37:34.765Z</time>
      </trkpt>
      <trkpt lat="42.64242" lon="2.99863">
        <ele>1.737145</ele>
        <time>2022-08-30T13:37:54.698Z</time>
      </trkpt>
      <trkpt lat="42.64195" lon="2.99768">
        <ele>1.711341</ele>
        <time>2022-08-30T13:38:10.966Z</time>
      </trkpt>
      <trkpt lat="42.64069" lon="2.99545">
        <ele>1.812299</ele>
        <time>2022-08-30T13:38:50.660Z</time>
      </trkpt>
      <trkpt lat="42.63901" lon="2.99319">
        <ele>2.303753</ele>
        <time>2022-08-30T13:39:38.637Z</time>
      </trkpt>
      <trkpt lat="42.63814" lon="2.99222">
        <ele>2.700783</ele>
        <time>2022-08-30T13:40:01.740Z</time>
      </trkpt>
      <trkpt lat="42.63777" lon="2.9919">
        <ele>2.863215</ele>
        <time>2022-08-30T13:40:10.959Z</time>
      </trkpt>
      <trkpt lat="42.63794" lon="2.99156">
        <ele>2.97513</ele>
        <time>2022-08-30T13:40:17.862Z</time>
      </trkpt>
      <trkpt lat="42.63804" lon="2.99165">
        <ele>3.019742</ele>
        <time>2022-08-30T13:40:20.591Z</time>
      </trkpt>
      <trkpt lat="42.6381" lon="2.99103">
        <ele>3.343742</ele>
        <time>2022-08-30T13:40:31.124Z</time>
      </trkpt>
      <trkpt lat="42.63802" lon="2.99101">
        <ele>3.403067</ele>
        <time>2022-08-30T13:40:33.083Z</time>
      </trkpt>
      <trkpt lat="42.63798" lon="2.99101">
        <ele>3.427777</ele>
        <time>2022-08-30T13:40:33.888Z</time>
      </trkpt>
      <trkpt lat="42.63791" lon="2.99098">
        <ele>3.478089</ele>
        <time>2022-08-30T13:40:35.523Z</time>
      </trkpt>
      <trkpt lat="42.6381" lon="2.98935">
        <ele>4.340393</ele>
        <time>2022-08-30T13:41:03.571Z</time>
      </trkpt>
      <trkpt lat="42.63819" lon="2.98846">
        <ele>4.692462</ele>
        <time>2022-08-30T13:41:18.489Z</time>
      </trkpt>
      <trkpt lat="42.63845" lon="2.98567">
        <ele>5.485589</ele>
        <time>2022-08-30T13:42:02.551Z</time>
      </trkpt>
      <trkpt lat="42.63838" lon="2.98555">
        <ele>5.509471</ele>
        <time>2022-08-30T13:42:04.750Z</time>
      </trkpt>
      <trkpt lat="42.63829" lon="2.98557">
        <ele>5.527739</ele>
        <time>2022-08-30T13:42:06.356Z</time>
      </trkpt>
      <trkpt lat="42.63827" lon="2.9855">
        <ele>5.539711</ele>
        <time>2022-08-30T13:42:07.499Z</time>
      </trkpt>
      <trkpt lat="42.63846" lon="2.98536">
        <ele>5.586054</ele>
        <time>2022-08-30T13:42:11.492Z</time>
      </trkpt>
      <trkpt lat="42.63853" lon="2.98546">
        <ele>5.607337</ele>
        <time>2022-08-30T13:42:13.375Z</time>
      </trkpt>
      <trkpt lat="42.63862" lon="2.98544">
        <ele>5.627933</ele>
        <time>2022-08-30T13:42:15.188Z</time>
      </trkpt>
      <trkpt lat="42.63867" lon="2.98528">
        <ele>5.655618</ele>
        <time>2022-08-30T13:42:17.528Z</time>
      </trkpt>
      <trkpt lat="42.63888" lon="2.98518">
        <ele>5.696595</ele>
        <time>2022-08-30T13:42:21.951Z</time>
      </trkpt>
      <trkpt lat="42.63895" lon="2.98521">
        <ele>5.708919</ele>
        <time>2022-08-30T13:42:23.275Z</time>
      </trkpt>
      <trkpt lat="42.63961" lon="2.98489">
        <ele>5.83218</ele>
        <time>2022-08-30T13:42:37.647Z</time>
      </trkpt>
      <trkpt lat="42.63986" lon="2.98478">
        <ele>5.878281</ele>
        <time>2022-08-30T13:42:43.255Z</time>
      </trkpt>
      <trkpt lat="42.63987" lon="2.98471">
        <ele>5.887332</ele>
        <time>2022-08-30T13:42:44.260Z</time>
      </trkpt>
      <trkpt lat="42.64002" lon="2.98456">
        <ele>5.919832</ele>
        <time>2022-08-30T13:42:48.028Z</time>
      </trkpt>
      <trkpt lat="42.64004" lon="2.98454">
        <ele>5.923075</ele>
        <time>2022-08-30T13:42:48.448Z</time>
      </trkpt>
      <trkpt lat="42.64019" lon="2.98407">
        <ele>6.032974</ele>
        <time>2022-08-30T13:42:56.533Z</time>
      </trkpt>
      <trkpt lat="42.64021" lon="2.9841">
        <ele>6.056875</ele>
        <time>2022-08-30T13:42:57.257Z</time>
      </trkpt>
      <trkpt lat="42.64027" lon="2.984">
        <ele>6.128519</ele>
        <time>2022-08-30T13:42:59.507Z</time>
      </trkpt>
      <trkpt lat="42.64054" lon="2.98309">
        <ele>6.681529</ele>
        <time>2022-08-30T13:43:17.441Z</time>
      </trkpt>
      <trkpt lat="42.64071" lon="2.98269">
        <ele>6.943514</ele>
        <time>2022-08-30T13:43:25.966Z</time>
      </trkpt>
      <trkpt lat="42.64072" lon="2.98264">
        <ele>6.973415</ele>
        <time>2022-08-30T13:43:26.962Z</time>
      </trkpt>
      <trkpt lat="42.64087" lon="2.98208">
        <ele>7.312359</ele>
        <time>2022-08-30T13:43:37.553Z</time>
      </trkpt>
      <trkpt lat="42.64089" lon="2.98202">
        <ele>7.349592</ele>
        <time>2022-08-30T13:43:38.650Z</time>
      </trkpt>
      <trkpt lat="42.64102" lon="2.98202">
        <ele>7.389218</ele>
        <time>2022-08-30T13:43:41.625Z</time>
      </trkpt>
      <trkpt lat="42.64104" lon="2.98197">
        <ele>7.401841</ele>
        <time>2022-08-30T13:43:42.780Z</time>
      </trkpt>
      <trkpt lat="42.64098" lon="2.98192">
        <ele>7.419217</ele>
        <time>2022-08-30T13:43:44.250Z</time>
      </trkpt>
      <trkpt lat="42.64095" lon="2.98178">
        <ele>7.446705</ele>
        <time>2022-08-30T13:43:46.568Z</time>
      </trkpt>
      <trkpt lat="42.64108" lon="2.98151">
        <ele>7.505423</ele>
        <time>2022-08-30T13:43:51.390Z</time>
      </trkpt>
      <trkpt lat="42.64143" lon="2.98089">
        <ele>7.651518</ele>
        <time>2022-08-30T13:44:02.956Z</time>
      </trkpt>
      <trkpt lat="42.6415" lon="2.98086">
        <ele>7.669593</ele>
        <time>2022-08-30T13:44:04.413Z</time>
      </trkpt>
      <trkpt lat="42.64148" lon="2.98077">
        <ele>7.687166</ele>
        <time>2022-08-30T13:44:05.767Z</time>
      </trkpt>
      <trkpt lat="42.64185" lon="2.98001">
        <ele>7.778123</ele>
        <time>2022-08-30T13:44:19.038Z</time>
      </trkpt>
      <trkpt lat="42.64206" lon="2.97954">
        <ele>7.695596</ele>
        <time>2022-08-30T13:44:26.482Z</time>
      </trkpt>
      <trkpt lat="42.64219" lon="2.97894">
        <ele>7.601061</ele>
        <time>2022-08-30T13:44:34.722Z</time>
      </trkpt>
      <trkpt lat="42.64221" lon="2.97887">
        <ele>7.589496</ele>
        <time>2022-08-30T13:44:35.731Z</time>
      </trkpt>
      <trkpt lat="42.64228" lon="2.97881">
        <ele>7.572254</ele>
        <time>2022-08-30T13:44:37.237Z</time>
      </trkpt>
      <trkpt lat="42.64291" lon="2.97844">
        <ele>7.437012</ele>
        <time>2022-08-30T13:44:49.941Z</time>
      </trkpt>
      <trkpt lat="42.64318" lon="2.9783">
        <ele>7.408885</ele>
        <time>2022-08-30T13:44:55.517Z</time>
      </trkpt>
      <trkpt lat="42.64334" lon="2.97821">
        <ele>7.391615</ele>
        <time>2022-08-30T13:44:58.939Z</time>
      </trkpt>
      <trkpt lat="42.64357" lon="2.97812">
        <ele>7.368767</ele>
        <time>2022-08-30T13:45:03.653Z</time>
      </trkpt>
      <trkpt lat="42.6436" lon="2.9781">
        <ele>7.365238</ele>
        <time>2022-08-30T13:45:04.347Z</time>
      </trkpt>
      <trkpt lat="42.64371" lon="2.97805">
        <ele>7.354662</ele>
        <time>2022-08-30T13:45:06.324Z</time>
      </trkpt>
      <trkpt lat="42.64418" lon="2.97784">
        <ele>7.306656</ele>
        <time>2022-08-30T13:45:15.599Z</time>
      </trkpt>
      <trkpt lat="42.64498" lon="2.9775">
        <ele>7.338456</ele>
        <time>2022-08-30T13:45:32.370Z</time>
      </trkpt>
      <trkpt lat="42.64591" lon="2.97699">
        <ele>7.496652</ele>
        <time>2022-08-30T13:45:54.254Z</time>
      </trkpt>
      <trkpt lat="42.64796" lon="2.9757">
        <ele>7.851855</ele>
        <time>2022-08-30T13:46:41.622Z</time>
      </trkpt>
      <trkpt lat="42.64829" lon="2.97553">
        <ele>7.858773</ele>
        <time>2022-08-30T13:46:48.739Z</time>
      </trkpt>
      <trkpt lat="42.64852" lon="2.97551">
        <ele>7.863411</ele>
        <time>2022-08-30T13:46:53.579Z</time>
      </trkpt>
      <trkpt lat="42.649" lon="2.97532">
        <ele>7.873489</ele>
        <time>2022-08-30T13:47:09.629Z</time>
      </trkpt>
      <trkpt lat="42.64965" lon="2.97489">
        <ele>7.881646</ele>
        <time>2022-08-30T13:47:32.482Z</time>
      </trkpt>
      <trkpt lat="42.65066" lon="2.97408">
        <ele>7.843478</ele>
        <time>2022-08-30T13:48:09.385Z</time>
      </trkpt>
      <trkpt lat="42.65123" lon="2.97354">
        <ele>7.853961</ele>
        <time>2022-08-30T13:48:31.637Z</time>
      </trkpt>
      <trkpt lat="42.65271" lon="2.97208">
        <ele>8.16349</ele>
        <time>2022-08-30T13:49:31.035Z</time>
      </trkpt>
      <trkpt lat="42.65428" lon="2.97131">
        <ele>8.740177</ele>
        <time>2022-08-30T13:50:27.048Z</time>
      </trkpt>
      <trkpt lat="42.65477" lon="2.97094">
        <ele>8.973108</ele>
        <time>2022-08-30T13:50:46.143Z</time>
      </trkpt>
      <trkpt lat="42.65505" lon="2.97074">
        <ele>9.105719</ele>
        <time>2022-08-30T13:50:57.438Z</time>
      </trkpt>
      <trkpt lat="42.65607" lon="2.97002">
        <ele>9.434653</ele>
        <time>2022-08-30T13:51:36.053Z</time>
      </trkpt>
      <trkpt lat="42.65634" lon="2.96984">
        <ele>9.412818</ele>
        <time>2022-08-30T13:51:45.663Z</time>
      </trkpt>
      <trkpt lat="42.65655" lon="2.96973">
        <ele>9.396092</ele>
        <time>2022-08-30T13:51:52.826Z</time>
      </trkpt>
      <trkpt lat="42.65672" lon="2.9696">
        <ele>9.382186</ele>
        <time>2022-08-30T13:51:58.905Z</time>
      </trkpt>
      <trkpt lat="42.6568" lon="2.96952">
        <ele>9.375065</ele>
        <time>2022-08-30T13:52:01.954Z</time>
      </trkpt>
      <trkpt lat="42.65713" lon="2.96912">
        <ele>9.343112</ele>
        <time>2022-08-30T13:52:15.583Z</time>
      </trkpt>
      <trkpt lat="42.65719" lon="2.96906">
        <ele>9.33739</ele>
        <time>2022-08-30T13:52:18.068Z</time>
      </trkpt>
      <trkpt lat="42.6573" lon="2.969">
        <ele>9.329091</ele>
        <time>2022-08-30T13:52:21.564Z</time>
      </trkpt>
      <trkpt lat="42.65755" lon="2.96893">
        <ele>9.223572</ele>
        <time>2022-08-30T13:52:26.273Z</time>
      </trkpt>
      <trkpt lat="42.65752" lon="2.96946">
        <ele>9.043079</ele>
        <time>2022-08-30T13:52:33.137Z</time>
      </trkpt>
      <trkpt lat="42.65763" lon="2.96957">
        <ele>8.979986</ele>
        <time>2022-08-30T13:52:35.571Z</time>
      </trkpt>
      <trkpt lat="42.65892" lon="2.97003">
        <ele>8.335572</ele>
        <time>2022-08-30T13:52:59.614Z</time>
      </trkpt>
      <trkpt lat="42.65961" lon="2.97006">
        <ele>7.93826</ele>
        <time>2022-08-30T13:53:11.969Z</time>
      </trkpt>
      <trkpt lat="42.66258" lon="2.96993">
        <ele>5.986336</ele>
        <time>2022-08-30T13:54:03.614Z</time>
      </trkpt>
      <trkpt lat="42.66297" lon="2.96997">
        <ele>5.862128</ele>
        <time>2022-08-30T13:54:10.586Z</time>
      </trkpt>
      <trkpt lat="42.66328" lon="2.97">
        <ele>5.765408</ele>
        <time>2022-08-30T13:54:16.114Z</time>
      </trkpt>
      <trkpt lat="42.6638" lon="2.97014">
        <ele>5.597455</ele>
        <time>2022-08-30T13:54:26.234Z</time>
      </trkpt>
      <trkpt lat="42.66447" lon="2.97016">
        <ele>5.573862</ele>
        <time>2022-08-30T13:54:39.933Z</time>
      </trkpt>
      <trkpt lat="42.66449" lon="2.97016">
        <ele>5.575413</ele>
        <time>2022-08-30T13:54:40.290Z</time>
      </trkpt>
      <trkpt lat="42.66459" lon="2.97015">
        <ele>5.584343</ele>
        <time>2022-08-30T13:54:42.356Z</time>
      </trkpt>
      <trkpt lat="42.66461" lon="2.97015">
        <ele>5.586437</ele>
        <time>2022-08-30T13:54:42.846Z</time>
      </trkpt>
      <trkpt lat="42.66465" lon="2.97014">
        <ele>5.590146</ele>
        <time>2022-08-30T13:54:43.704Z</time>
      </trkpt>
      <trkpt lat="42.66529" lon="2.97001">
        <ele>5.648728</ele>
        <time>2022-08-30T13:55:00.755Z</time>
      </trkpt>
      <trkpt lat="42.66609" lon="2.96986">
        <ele>5.590297</ele>
        <time>2022-08-30T13:55:16.811Z</time>
      </trkpt>
      <trkpt lat="42.66635" lon="2.96976">
        <ele>5.496045</ele>
        <time>2022-08-30T13:55:22.017Z</time>
      </trkpt>
      <trkpt lat="42.66652" lon="2.96971">
        <ele>5.438427</ele>
        <time>2022-08-30T13:55:25.193Z</time>
      </trkpt>
      <trkpt lat="42.66658" lon="2.9697">
        <ele>5.415087</ele>
        <time>2022-08-30T13:55:26.451Z</time>
      </trkpt>
      <trkpt lat="42.66666" lon="2.96972">
        <ele>5.389281</ele>
        <time>2022-08-30T13:55:27.852Z</time>
      </trkpt>
      <trkpt lat="42.6675" lon="2.97062">
        <ele>5.078782</ele>
        <time>2022-08-30T13:55:47.068Z</time>
      </trkpt>
      <trkpt lat="42.66801" lon="2.97123">
        <ele>5.120328</ele>
        <time>2022-08-30T13:55:59.660Z</time>
      </trkpt>
      <trkpt lat="42.66897" lon="2.97327">
        <ele>5.324642</ele>
        <time>2022-08-30T13:56:37.413Z</time>
      </trkpt>
      <trkpt lat="42.66915" lon="2.97355">
        <ele>5.372987</ele>
        <time>2022-08-30T13:56:42.640Z</time>
      </trkpt>
      <trkpt lat="42.66933" lon="2.97381">
        <ele>5.419741</ele>
        <time>2022-08-30T13:56:47.665Z</time>
      </trkpt>
      <trkpt lat="42.66969" lon="2.97434">
        <ele>5.502272</ele>
        <time>2022-08-30T13:56:57.806Z</time>
      </trkpt>
      <trkpt lat="42.67006" lon="2.97479">
        <ele>5.516898</ele>
        <time>2022-08-30T13:57:07.441Z</time>
      </trkpt>
      <trkpt lat="42.6703" lon="2.97502">
        <ele>5.525165</ele>
        <time>2022-08-30T13:57:12.913Z</time>
      </trkpt>
      <trkpt lat="42.67146" lon="2.9765">
        <ele>5.325198</ele>
        <time>2022-08-30T13:57:43.711Z</time>
      </trkpt>
      <trkpt lat="42.67184" lon="2.97712">
        <ele>5.119485</ele>
        <time>2022-08-30T13:57:54.610Z</time>
      </trkpt>
      <trkpt lat="42.67214" lon="2.9775">
        <ele>4.978679</ele>
        <time>2022-08-30T13:58:01.788Z</time>
      </trkpt>
      <trkpt lat="42.67232" lon="2.97793">
        <ele>4.72494</ele>
        <time>2022-08-30T13:58:07.939Z</time>
      </trkpt>
      <trkpt lat="42.67241" lon="2.97871">
        <ele>4.197631</ele>
        <time>2022-08-30T13:58:17.719Z</time>
      </trkpt>
      <trkpt lat="42.67248" lon="2.97891">
        <ele>4.048139</ele>
        <time>2022-08-30T13:58:20.387Z</time>
      </trkpt>
      <trkpt lat="42.6726" lon="2.97908">
        <ele>3.893151</ele>
        <time>2022-08-30T13:58:23.229Z</time>
      </trkpt>
      <trkpt lat="42.67283" lon="2.97922">
        <ele>3.664876</ele>
        <time>2022-08-30T13:58:27.326Z</time>
      </trkpt>
      <trkpt lat="42.67315" lon="2.97955">
        <ele>3.301646</ele>
        <time>2022-08-30T13:58:34.413Z</time>
      </trkpt>
      <trkpt lat="42.67389" lon="2.98015">
        <ele>3.618332</ele>
        <time>2022-08-30T13:58:51.181Z</time>
      </trkpt>
      <trkpt lat="42.67535" lon="2.98143">
        <ele>4.829531</ele>
        <time>2022-08-30T13:59:32.308Z</time>
      </trkpt>
      <trkpt lat="42.67539" lon="2.98131">
        <ele>4.929263</ele>
        <time>2022-08-30T13:59:34.615Z</time>
      </trkpt>
      <trkpt lat="42.67741" lon="2.98221">
        <ele>7.29288</ele>
        <time>2022-08-30T14:00:28.017Z</time>
      </trkpt>
      <trkpt lat="42.67773" lon="2.9819">
        <ele>7.735959</ele>
        <time>2022-08-30T14:00:37.587Z</time>
      </trkpt>
      <trkpt lat="42.67883" lon="2.98127">
        <ele>8.705085</ele>
        <time>2022-08-30T14:01:06.219Z</time>
      </trkpt>
      <trkpt lat="42.68043" lon="2.98136">
        <ele>9.701742</ele>
        <time>2022-08-30T14:01:42.477Z</time>
      </trkpt>
      <trkpt lat="42.68355" lon="2.98205">
        <ele>11.639496</ele>
        <time>2022-08-30T14:02:54.089Z</time>
      </trkpt>
      <trkpt lat="42.68435" lon="2.97998">
        <ele>13.38236</ele>
        <time>2022-08-30T14:03:42.191Z</time>
      </trkpt>
      <trkpt lat="42.68446" lon="2.97984">
        <ele>13.390575</ele>
        <time>2022-08-30T14:03:45.893Z</time>
      </trkpt>
      <trkpt lat="42.68465" lon="2.97977">
        <ele>13.401146</ele>
        <time>2022-08-30T14:03:50.245Z</time>
      </trkpt>
      <trkpt lat="42.68491" lon="2.97993">
        <ele>13.415895</ele>
        <time>2022-08-30T14:03:55.908Z</time>
      </trkpt>
      <trkpt lat="42.68595" lon="2.98062">
        <ele>13.342385</ele>
        <time>2022-08-30T14:04:30.629Z</time>
      </trkpt>
      <trkpt lat="42.68602" lon="2.98055">
        <ele>13.305022</ele>
        <time>2022-08-30T14:04:33.270Z</time>
      </trkpt>
      <trkpt lat="42.68618" lon="2.98055">
        <ele>13.238414</ele>
        <time>2022-08-30T14:04:37.788Z</time>
      </trkpt>
      <trkpt lat="42.68623" lon="2.9806">
        <ele>13.213366</ele>
        <time>2022-08-30T14:04:39.551Z</time>
      </trkpt>
      <trkpt lat="42.68626" lon="2.98093">
        <ele>13.109363</ele>
        <time>2022-08-30T14:04:46.893Z</time>
      </trkpt>
      <trkpt lat="42.6863" lon="2.981">
        <ele>13.082416</ele>
        <time>2022-08-30T14:04:48.676Z</time>
      </trkpt>
      <trkpt lat="42.68758" lon="2.98237">
        <ele>12.667343</ele>
        <time>2022-08-30T14:05:40.431Z</time>
      </trkpt>
      <trkpt lat="42.6884" lon="2.98402">
        <ele>12.718842</ele>
        <time>2022-08-30T14:06:26.640Z</time>
      </trkpt>
      <trkpt lat="42.68867" lon="2.98477">
        <ele>12.873138</ele>
        <time>2022-08-30T14:06:45.811Z</time>
      </trkpt>
      <trkpt lat="42.68906" lon="2.98539">
        <ele>13.022995</ele>
        <time>2022-08-30T14:07:05.875Z</time>
      </trkpt>
      <trkpt lat="42.68945" lon="2.98624">
        <ele>14.229392</ele>
        <time>2022-08-30T14:07:33.407Z</time>
      </trkpt>
      <trkpt lat="42.68956" lon="2.98638">
        <ele>14.558343</ele>
        <time>2022-08-30T14:07:39.995Z</time>
      </trkpt>
      <trkpt lat="42.69038" lon="2.98702">
        <ele>16.582929</ele>
        <time>2022-08-30T14:08:22.734Z</time>
      </trkpt>
      <trkpt lat="42.69098" lon="2.98788">
        <ele>18.614755</ele>
        <time>2022-08-30T14:09:03.449Z</time>
      </trkpt>
      <trkpt lat="42.69155" lon="2.98845">
        <ele>20.308421</ele>
        <time>2022-08-30T14:09:34.880Z</time>
      </trkpt>
      <trkpt lat="42.69185" lon="2.98866">
        <ele>21.097486</ele>
        <time>2022-08-30T14:09:48.530Z</time>
      </trkpt>
      <trkpt lat="42.69232" lon="2.9889">
        <ele>21.176798</ele>
        <time>2022-08-30T14:10:07.421Z</time>
      </trkpt>
      <trkpt lat="42.69235" lon="2.98885">
        <ele>21.173827</ele>
        <time>2022-08-30T14:10:08.576Z</time>
      </trkpt>
      <trkpt lat="42.69325" lon="2.98845">
        <ele>21.115925</ele>
        <time>2022-08-30T14:10:38.221Z</time>
      </trkpt>
      <trkpt lat="42.69369" lon="2.98818">
        <ele>20.712847</ele>
        <time>2022-08-30T14:10:52.033Z</time>
      </trkpt>
      <trkpt lat="42.69458" lon="2.98789">
        <ele>18.177958</ele>
        <time>2022-08-30T14:11:16.232Z</time>
      </trkpt>
      <trkpt lat="42.69569" lon="2.98795">
        <ele>15.219892</ele>
        <time>2022-08-30T14:11:44.260Z</time>
      </trkpt>
      <trkpt lat="42.69609" lon="2.98787">
        <ele>14.212903</ele>
        <time>2022-08-30T14:11:54.571Z</time>
      </trkpt>
      <trkpt lat="42.6965" lon="2.98787">
        <ele>13.202393</ele>
        <time>2022-08-30T14:12:05.221Z</time>
      </trkpt>
      <trkpt lat="42.69696" lon="2.98772">
        <ele>12.016287</ele>
        <time>2022-08-30T14:12:18.454Z</time>
      </trkpt>
      <trkpt lat="42.69722" lon="2.98776">
        <ele>11.854969</ele>
        <time>2022-08-30T14:12:26.301Z</time>
      </trkpt>
      <trkpt lat="42.69762" lon="2.98761">
        <ele>12.605649</ele>
        <time>2022-08-30T14:12:40.110Z</time>
      </trkpt>
      <trkpt lat="42.69811" lon="2.98732">
        <ele>13.593588</ele>
        <time>2022-08-30T14:12:55.523Z</time>
      </trkpt>
      <trkpt lat="42.69826" lon="2.98713">
        <ele>13.960509</ele>
        <time>2022-08-30T14:13:02.296Z</time>
      </trkpt>
      <trkpt lat="42.69878" lon="2.98652">
        <ele>15.295973</ele>
        <time>2022-08-30T14:13:28.865Z</time>
      </trkpt>
      <trkpt lat="42.69956" lon="2.98608">
        <ele>17.278799</ele>
        <time>2022-08-30T14:14:00.434Z</time>
      </trkpt>
      <trkpt lat="42.69968" lon="2.986">
        <ele>17.576577</ele>
        <time>2022-08-30T14:14:04.265Z</time>
      </trkpt>
      <trkpt lat="42.70031" lon="2.98595">
        <ele>19.077162</ele>
        <time>2022-08-30T14:14:20.703Z</time>
      </trkpt>
      <trkpt lat="42.70036" lon="2.9849">
        <ele>17.399511</ele>
        <time>2022-08-30T14:14:33.755Z</time>
      </trkpt>
      <trkpt lat="42.70037" lon="2.98487">
        <ele>17.354604</ele>
        <time>2022-08-30T14:14:33.999Z</time>
      </trkpt>
      <trkpt lat="42.70114" lon="2.98488">
        <ele>15.535592</ele>
        <time>2022-08-30T14:14:44.921Z</time>
      </trkpt>
      <trkpt lat="42.70146" lon="2.98519">
        <ele>14.729395</ele>
        <time>2022-08-30T14:14:50.263Z</time>
      </trkpt>
      <trkpt lat="42.70165" lon="2.98532">
        <ele>14.408998</ele>
        <time>2022-08-30T14:14:53.285Z</time>
      </trkpt>
      <trkpt lat="42.70186" lon="2.98532">
        <ele>14.088605</ele>
        <time>2022-08-30T14:14:56.224Z</time>
      </trkpt>
      <trkpt lat="42.70256" lon="2.98512">
        <ele>13.016597</ele>
        <time>2022-08-30T14:15:07.446Z</time>
      </trkpt>
      <trkpt lat="42.70278" lon="2.9851">
        <ele>12.69439</ele>
        <time>2022-08-30T14:15:11.890Z</time>
      </trkpt>
      <trkpt lat="42.70353" lon="2.98511">
        <ele>13.710934</ele>
        <time>2022-08-30T14:15:32.750Z</time>
      </trkpt>
      <trkpt lat="42.70444" lon="2.98496">
        <ele>16.714639</ele>
        <time>2022-08-30T14:16:09.048Z</time>
      </trkpt>
      <trkpt lat="42.70504" lon="2.98456">
        <ele>18.694797</ele>
        <time>2022-08-30T14:16:36.645Z</time>
      </trkpt>
      <trkpt lat="42.70525" lon="2.98453">
        <ele>19.167941</ele>
        <time>2022-08-30T14:16:44.966Z</time>
      </trkpt>
      <trkpt lat="42.70599" lon="2.9852">
        <ele>21.177734</ele>
        <time>2022-08-30T14:17:10.324Z</time>
      </trkpt>
      <trkpt lat="42.70607" lon="2.98539">
        <ele>21.553991</ele>
        <time>2022-08-30T14:17:14.841Z</time>
      </trkpt>
      <trkpt lat="42.7057" lon="2.98669">
        <ele>22.558596</ele>
        <time>2022-08-30T14:17:37.444Z</time>
      </trkpt>
      <trkpt lat="42.70573" lon="2.98684">
        <ele>22.609533</ele>
        <time>2022-08-30T14:17:39.966Z</time>
      </trkpt>
      <trkpt lat="42.70583" lon="2.98694">
        <ele>22.66439</ele>
        <time>2022-08-30T14:17:42.290Z</time>
      </trkpt>
      <trkpt lat="42.70585" lon="2.98702">
        <ele>22.690843</ele>
        <time>2022-08-30T14:17:43.777Z</time>
      </trkpt>
      <trkpt lat="42.70596" lon="2.98709">
        <ele>22.744774</ele>
        <time>2022-08-30T14:17:46.459Z</time>
      </trkpt>
      <trkpt lat="42.70604" lon="2.98703">
        <ele>22.7809</ele>
        <time>2022-08-30T14:17:48.244Z</time>
      </trkpt>
      <trkpt lat="42.70604" lon="2.98687">
        <ele>22.830605</ele>
        <time>2022-08-30T14:17:50.540Z</time>
      </trkpt>
      <trkpt lat="42.70596" lon="2.98679">
        <ele>22.875476</ele>
        <time>2022-08-30T14:17:52.995Z</time>
      </trkpt>
      <trkpt lat="42.70599" lon="2.9864">
        <ele>22.999278</ele>
        <time>2022-08-30T14:17:59.086Z</time>
      </trkpt>
      <trkpt lat="42.70621" lon="2.98614">
        <ele>23.140794</ele>
        <time>2022-08-30T14:18:05.170Z</time>
      </trkpt>
      <trkpt lat="42.70635" lon="2.98613">
        <ele>23.206097</ele>
        <time>2022-08-30T14:18:08.446Z</time>
      </trkpt>
      <trkpt lat="42.70644" lon="2.98632">
        <ele>23.289918</ele>
        <time>2022-08-30T14:18:12.086Z</time>
      </trkpt>
      <trkpt lat="42.7065" lon="2.9864">
        <ele>23.331788</ele>
        <time>2022-08-30T14:18:13.777Z</time>
      </trkpt>
      <trkpt lat="42.70673" lon="2.98656">
        <ele>23.459565</ele>
        <time>2022-08-30T14:18:19.645Z</time>
      </trkpt>
      <trkpt lat="42.70686" lon="2.98658">
        <ele>23.523376</ele>
        <time>2022-08-30T14:18:22.652Z</time>
      </trkpt>
      <trkpt lat="42.70711" lon="2.98651">
        <ele>23.651048</ele>
        <time>2022-08-30T14:18:28.227Z</time>
      </trkpt>
      <trkpt lat="42.70731" lon="2.9863">
        <ele>23.777959</ele>
        <time>2022-08-30T14:18:34.017Z</time>
      </trkpt>
      <trkpt lat="42.70739" lon="2.98615">
        <ele>23.842149</ele>
        <time>2022-08-30T14:18:36.594Z</time>
      </trkpt>
      <trkpt lat="42.70744" lon="2.98589">
        <ele>23.955709</ele>
        <time>2022-08-30T14:18:41.180Z</time>
      </trkpt>
      <trkpt lat="42.70744" lon="2.98567">
        <ele>24.076905</ele>
        <time>2022-08-30T14:18:44.474Z</time>
      </trkpt>
      <trkpt lat="42.70766" lon="2.98533">
        <ele>24.331704</ele>
        <time>2022-08-30T14:18:51.864Z</time>
      </trkpt>
      <trkpt lat="42.70766" lon="2.98507">
        <ele>24.477013</ele>
        <time>2022-08-30T14:18:56.073Z</time>
      </trkpt>
      <trkpt lat="42.70762" lon="2.98496">
        <ele>24.546862</ele>
        <time>2022-08-30T14:18:58.267Z</time>
      </trkpt>
      <trkpt lat="42.70741" lon="2.98362">
        <ele>25.268028</ele>
        <time>2022-08-30T14:19:22.887Z</time>
      </trkpt>
      <trkpt lat="42.70757" lon="2.98365">
        <ele>25.144602</ele>
        <time>2022-08-30T14:19:26.597Z</time>
      </trkpt>
      <trkpt lat="42.70766" lon="2.98369">
        <ele>25.064494</ele>
        <time>2022-08-30T14:19:28.877Z</time>
      </trkpt>
      <trkpt lat="42.70849" lon="2.98404">
        <ele>24.375823</ele>
        <time>2022-08-30T14:19:44.594Z</time>
      </trkpt>
      <trkpt lat="42.70861" lon="2.98409">
        <ele>24.277224</ele>
        <time>2022-08-30T14:19:46.681Z</time>
      </trkpt>
      <trkpt lat="42.7086" lon="2.98413">
        <ele>24.252804</ele>
        <time>2022-08-30T14:19:47.997Z</time>
      </trkpt>
      <trkpt lat="42.70873" lon="2.98463">
        <ele>23.945056</ele>
        <time>2022-08-30T14:20:04.566Z</time>
      </trkpt>
      <trkpt lat="42.70922" lon="2.98531">
        <ele>21.242152</ele>
        <time>2022-08-30T14:20:34.512Z</time>
      </trkpt>
      <trkpt lat="42.70932" lon="2.98619">
        <ele>18.367914</ele>
        <time>2022-08-30T14:21:02.408Z</time>
      </trkpt>
      <trkpt lat="42.71005" lon="2.98614">
        <ele>15.313334</ele>
        <time>2022-08-30T14:21:33.699Z</time>
      </trkpt>
      <trkpt lat="42.71078" lon="2.98609">
        <ele>12.789777</ele>
        <time>2022-08-30T14:22:04.976Z</time>
      </trkpt>
      <trkpt lat="42.71163" lon="2.98614">
        <ele>9.866254</ele>
        <time>2022-08-30T14:22:41.198Z</time>
      </trkpt>
      <trkpt lat="42.71216" lon="2.98631">
        <ele>9.437019</ele>
        <time>2022-08-30T14:23:04.563Z</time>
      </trkpt>
      <trkpt lat="42.71269" lon="2.98649">
        <ele>9.135934</ele>
        <time>2022-08-30T14:23:27.926Z</time>
      </trkpt>
      <trkpt lat="42.71307" lon="2.9869">
        <ele>8.868583</ele>
        <time>2022-08-30T14:23:48.657Z</time>
      </trkpt>
      <trkpt lat="42.71324" lon="2.98705">
        <ele>8.755448</ele>
        <time>2022-08-30T14:23:57.430Z</time>
      </trkpt>
      <trkpt lat="42.71407" lon="2.98685">
        <ele>8.785808</ele>
        <time>2022-08-30T14:24:33.584Z</time>
      </trkpt>
      <trkpt lat="42.71406" lon="2.98685">
        <ele>8.786539</ele>
        <time>2022-08-30T14:24:33.959Z</time>
      </trkpt>
      <trkpt lat="42.7139" lon="2.98509">
        <ele>8.92155</ele>
        <time>2022-08-30T14:25:00.071Z</time>
      </trkpt>
      <trkpt lat="42.71381" lon="2.98463">
        <ele>8.983916</ele>
        <time>2022-08-30T14:25:07.232Z</time>
      </trkpt>
      <trkpt lat="42.71382" lon="2.98463">
        <ele>8.985572</ele>
        <time>2022-08-30T14:25:07.642Z</time>
      </trkpt>
      <trkpt lat="42.71364" lon="2.98388">
        <ele>9.088142</ele>
        <time>2022-08-30T14:25:32.201Z</time>
      </trkpt>
      <trkpt lat="42.71346" lon="2.98314">
        <ele>9.189099</ele>
        <time>2022-08-30T14:25:56.760Z</time>
      </trkpt>
      <trkpt lat="42.71325" lon="2.98265">
        <ele>9.183317</ele>
        <time>2022-08-30T14:26:14.425Z</time>
      </trkpt>
      <trkpt lat="42.71386" lon="2.98233">
        <ele>9.174255</ele>
        <time>2022-08-30T14:26:42.094Z</time>
      </trkpt>
      <trkpt lat="42.71446" lon="2.98201">
        <ele>9.165209</ele>
        <time>2022-08-30T14:27:09.762Z</time>
      </trkpt>
      <trkpt lat="42.71506" lon="2.98168">
        <ele>9.250667</ele>
        <time>2022-08-30T14:27:37.431Z</time>
      </trkpt>
      <trkpt lat="42.71506" lon="2.98169">
        <ele>9.251038</ele>
        <time>2022-08-30T14:27:37.523Z</time>
      </trkpt>
      <trkpt lat="42.71517" lon="2.98163">
        <ele>9.2693</ele>
        <time>2022-08-30T14:27:40.066Z</time>
      </trkpt>
      <trkpt lat="42.71546" lon="2.9815">
        <ele>9.315256</ele>
        <time>2022-08-30T14:27:46.073Z</time>
      </trkpt>
      <trkpt lat="42.71633" lon="2.98142">
        <ele>9.44243</ele>
        <time>2022-08-30T14:28:05.300Z</time>
      </trkpt>
      <trkpt lat="42.71703" lon="2.9815">
        <ele>9.468863</ele>
        <time>2022-08-30T14:28:20.081Z</time>
      </trkpt>
      <trkpt lat="42.71764" lon="2.98168">
        <ele>9.492248</ele>
        <time>2022-08-30T14:28:32.727Z</time>
      </trkpt>
      <trkpt lat="42.71866" lon="2.98203">
        <ele>9.357177</ele>
        <time>2022-08-30T14:28:53.423Z</time>
      </trkpt>
      <trkpt lat="42.71995" lon="2.98264">
        <ele>9.057038</ele>
        <time>2022-08-30T14:29:19.895Z</time>
      </trkpt>
      <trkpt lat="42.72085" lon="2.98279">
        <ele>8.934454</ele>
        <time>2022-08-30T14:29:37.857Z</time>
      </trkpt>
      <trkpt lat="42.72095" lon="2.98278">
        <ele>8.920771</ele>
        <time>2022-08-30T14:29:39.890Z</time>
      </trkpt>
      <trkpt lat="42.72178" lon="2.98262">
        <ele>8.816547</ele>
        <time>2022-08-30T14:29:56.742Z</time>
      </trkpt>
      <trkpt lat="42.72213" lon="2.98241">
        <ele>8.778749</ele>
        <time>2022-08-30T14:30:04.344Z</time>
      </trkpt>
      <trkpt lat="42.72232" lon="2.98245">
        <ele>8.759535</ele>
        <time>2022-08-30T14:30:08.161Z</time>
      </trkpt>
      <trkpt lat="42.72262" lon="2.98262">
        <ele>8.72763</ele>
        <time>2022-08-30T14:30:14.206Z</time>
      </trkpt>
      <trkpt lat="42.72271" lon="2.98259">
        <ele>8.718242</ele>
        <time>2022-08-30T14:30:16.007Z</time>
      </trkpt>
      <trkpt lat="42.72302" lon="2.98223">
        <ele>8.67866</ele>
        <time>2022-08-30T14:30:23.543Z</time>
      </trkpt>
      <trkpt lat="42.72334" lon="2.98199">
        <ele>8.699182</ele>
        <time>2022-08-30T14:30:30.543Z</time>
      </trkpt>
      <trkpt lat="42.72372" lon="2.98185">
        <ele>8.763063</ele>
        <time>2022-08-30T14:30:38.166Z</time>
      </trkpt>
      <trkpt lat="42.72407" lon="2.98175">
        <ele>8.819772</ele>
        <time>2022-08-30T14:30:45.056Z</time>
      </trkpt>
      <trkpt lat="42.72526" lon="2.98141">
        <ele>9.146156</ele>
        <time>2022-08-30T14:31:10.237Z</time>
      </trkpt>
      <trkpt lat="42.7258" lon="2.98131">
        <ele>9.412984</ele>
        <time>2022-08-30T14:31:22.859Z</time>
      </trkpt>
      <trkpt lat="42.72627" lon="2.98123">
        <ele>9.649329</ele>
        <time>2022-08-30T14:31:33.244Z</time>
      </trkpt>
      <trkpt lat="42.72654" lon="2.98119">
        <ele>9.781628</ele>
        <time>2022-08-30T14:31:39.013Z</time>
      </trkpt>
      <trkpt lat="42.72655" lon="2.98119">
        <ele>9.790073</ele>
        <time>2022-08-30T14:31:39.449Z</time>
      </trkpt>
      <trkpt lat="42.72656" lon="2.98119">
        <ele>9.796056</ele>
        <time>2022-08-30T14:31:39.689Z</time>
      </trkpt>
      <trkpt lat="42.72659" lon="2.98118">
        <ele>9.808023</ele>
        <time>2022-08-30T14:31:40.170Z</time>
      </trkpt>
      <trkpt lat="42.72661" lon="2.98118">
        <ele>9.817982</ele>
        <time>2022-08-30T14:31:40.696Z</time>
      </trkpt>
      <trkpt lat="42.7268" lon="2.98115">
        <ele>9.808758</ele>
        <time>2022-08-30T14:31:44.882Z</time>
      </trkpt>
      <trkpt lat="42.7271" lon="2.981">
        <ele>9.733696</ele>
        <time>2022-08-30T14:31:51.525Z</time>
      </trkpt>
      <trkpt lat="42.72739" lon="2.98087">
        <ele>9.659351</ele>
        <time>2022-08-30T14:31:57.846Z</time>
      </trkpt>
      <trkpt lat="42.72942" lon="2.98009">
        <ele>8.846173</ele>
        <time>2022-08-30T14:32:37.321Z</time>
      </trkpt>
      <trkpt lat="42.72949" lon="2.97999">
        <ele>8.792412</ele>
        <time>2022-08-30T14:32:39.188Z</time>
      </trkpt>
      <trkpt lat="42.7296" lon="2.9796">
        <ele>8.629751</ele>
        <time>2022-08-30T14:32:44.933Z</time>
      </trkpt>
      <trkpt lat="42.72984" lon="2.97866">
        <ele>8.406483</ele>
        <time>2022-08-30T14:32:58.758Z</time>
      </trkpt>
      <trkpt lat="42.72987" lon="2.97686">
        <ele>8.223641</ele>
        <time>2022-08-30T14:33:25.354Z</time>
      </trkpt>
      <trkpt lat="42.72988" lon="2.97614">
        <ele>8.268883</ele>
        <time>2022-08-30T14:33:36.367Z</time>
      </trkpt>
      <trkpt lat="42.72995" lon="2.97572">
        <ele>8.30547</ele>
        <time>2022-08-30T14:33:43.040Z</time>
      </trkpt>
      <trkpt lat="42.73008" lon="2.97528">
        <ele>8.345368</ele>
        <time>2022-08-30T14:33:50.454Z</time>
      </trkpt>
      <trkpt lat="42.73099" lon="2.97519">
        <ele>8.416757</ele>
        <time>2022-08-30T14:34:09.732Z</time>
      </trkpt>
      <trkpt lat="42.73099" lon="2.97578">
        <ele>8.407523</ele>
        <time>2022-08-30T14:34:18.540Z</time>
      </trkpt>
      <trkpt lat="42.73118" lon="2.97723">
        <ele>8.384488</ele>
        <time>2022-08-30T14:34:40.291Z</time>
      </trkpt>
      <trkpt lat="42.73155" lon="2.979">
        <ele>8.183707</ele>
        <time>2022-08-30T14:35:06.946Z</time>
      </trkpt>
      <trkpt lat="42.73217" lon="2.97857">
        <ele>8.062809</ele>
        <time>2022-08-30T14:35:20.617Z</time>
      </trkpt>
      <trkpt lat="42.73327" lon="2.97756">
        <ele>7.770055</ele>
        <time>2022-08-30T14:35:46.474Z</time>
      </trkpt>
      <trkpt lat="42.73484" lon="2.97646">
        <ele>7.625201</ele>
        <time>2022-08-30T14:36:21.633Z</time>
      </trkpt>
      <trkpt lat="42.7349" lon="2.97634">
        <ele>7.618683</ele>
        <time>2022-08-30T14:36:23.943Z</time>
      </trkpt>
      <trkpt lat="42.73493" lon="2.97552">
        <ele>7.609867</ele>
        <time>2022-08-30T14:36:36.160Z</time>
      </trkpt>
      <trkpt lat="42.73498" lon="2.97543">
        <ele>7.610194</ele>
        <time>2022-08-30T14:36:38.022Z</time>
      </trkpt>
      <trkpt lat="42.73511" lon="2.9754">
        <ele>7.610692</ele>
        <time>2022-08-30T14:36:40.816Z</time>
      </trkpt>
      <trkpt lat="42.73589" lon="2.97552">
        <ele>7.61366</ele>
        <time>2022-08-30T14:36:56.908Z</time>
      </trkpt>
      <trkpt lat="42.73597" lon="2.97546">
        <ele>7.61399</ele>
        <time>2022-08-30T14:36:58.660Z</time>
      </trkpt>
      <trkpt lat="42.7362" lon="2.97489">
        <ele>7.584035</ele>
        <time>2022-08-30T14:37:08.194Z</time>
      </trkpt>
      <trkpt lat="42.73628" lon="2.97482">
        <ele>7.569737</ele>
        <time>2022-08-30T14:37:10.040Z</time>
      </trkpt>
      <trkpt lat="42.7372" lon="2.97469">
        <ele>7.424323</ele>
        <time>2022-08-30T14:37:28.150Z</time>
      </trkpt>
      <trkpt lat="42.73759" lon="2.97447">
        <ele>7.357349</ele>
        <time>2022-08-30T14:37:36.540Z</time>
      </trkpt>
      <trkpt lat="42.73766" lon="2.97441">
        <ele>7.344221</ele>
        <time>2022-08-30T14:37:38.250Z</time>
      </trkpt>
      <trkpt lat="42.73909" lon="2.97435">
        <ele>7.081317</ele>
        <time>2022-08-30T14:38:06.303Z</time>
      </trkpt>
      <trkpt lat="42.73914" lon="2.97435">
        <ele>7.072456</ele>
        <time>2022-08-30T14:38:07.273Z</time>
      </trkpt>
      <trkpt lat="42.73935" lon="2.97433">
        <ele>7.033236</ele>
        <time>2022-08-30T14:38:11.528Z</time>
      </trkpt>
      <trkpt lat="42.73943" lon="2.97432">
        <ele>7.01973</ele>
        <time>2022-08-30T14:38:12.992Z</time>
      </trkpt>
      <trkpt lat="42.74112" lon="2.97419">
        <ele>6.918491</ele>
        <time>2022-08-30T14:38:47.137Z</time>
      </trkpt>
      <trkpt lat="42.74217" lon="2.97375">
        <ele>6.875705</ele>
        <time>2022-08-30T14:39:09.372Z</time>
      </trkpt>
      <trkpt lat="42.74291" lon="2.97335">
        <ele>6.846626</ele>
        <time>2022-08-30T14:39:25.313Z</time>
      </trkpt>
      <trkpt lat="42.74439" lon="2.97305">
        <ele>6.574185</ele>
        <time>2022-08-30T14:39:54.879Z</time>
      </trkpt>
      <trkpt lat="42.74522" lon="2.97304">
        <ele>6.407579</ele>
        <time>2022-08-30T14:40:11.022Z</time>
      </trkpt>
      <trkpt lat="42.7462" lon="2.9733">
        <ele>6.201925</ele>
        <time>2022-08-30T14:40:30.466Z</time>
      </trkpt>
      <trkpt lat="42.7466" lon="2.97328">
        <ele>6.122089</ele>
        <time>2022-08-30T14:40:38.387Z</time>
      </trkpt>
      <trkpt lat="42.74682" lon="2.97321">
        <ele>6.128816</ele>
        <time>2022-08-30T14:40:42.943Z</time>
      </trkpt>
      <trkpt lat="42.7476" lon="2.97262">
        <ele>6.155693</ele>
        <time>2022-08-30T14:41:00.994Z</time>
      </trkpt>
      <trkpt lat="42.74813" lon="2.97242">
        <ele>6.172136</ele>
        <time>2022-08-30T14:41:12.344Z</time>
      </trkpt>
      <trkpt lat="42.74855" lon="2.97226">
        <ele>6.27798</ele>
        <time>2022-08-30T14:41:21.326Z</time>
      </trkpt>
      <trkpt lat="42.74859" lon="2.97226">
        <ele>6.290489</ele>
        <time>2022-08-30T14:41:22.096Z</time>
      </trkpt>
      <trkpt lat="42.74884" lon="2.97227">
        <ele>6.373795</ele>
        <time>2022-08-30T14:41:27.607Z</time>
      </trkpt>
      <trkpt lat="42.74889" lon="2.97227">
        <ele>6.389294</ele>
        <time>2022-08-30T14:41:28.622Z</time>
      </trkpt>
      <trkpt lat="42.75006" lon="2.97231">
        <ele>6.773778</ele>
        <time>2022-08-30T14:41:54.953Z</time>
      </trkpt>
      <trkpt lat="42.75099" lon="2.97228">
        <ele>7.012479</ele>
        <time>2022-08-30T14:42:15.604Z</time>
      </trkpt>
      <trkpt lat="42.75177" lon="2.97217">
        <ele>7.21288</ele>
        <time>2022-08-30T14:42:32.214Z</time>
      </trkpt>
      <trkpt lat="42.75199" lon="2.97226">
        <ele>7.222274</ele>
        <time>2022-08-30T14:42:36.755Z</time>
      </trkpt>
      <trkpt lat="42.75326" lon="2.97302">
        <ele>7.170836</ele>
        <time>2022-08-30T14:43:04.267Z</time>
      </trkpt>
      <trkpt lat="42.75391" lon="2.97357">
        <ele>7.191562</ele>
        <time>2022-08-30T14:43:20.117Z</time>
      </trkpt>
      <trkpt lat="42.7555" lon="2.9746">
        <ele>7.146095</ele>
        <time>2022-08-30T14:43:56.344Z</time>
      </trkpt>
      <trkpt lat="42.75565" lon="2.9747">
        <ele>7.103893</ele>
        <time>2022-08-30T14:43:59.691Z</time>
      </trkpt>
      <trkpt lat="42.75595" lon="2.97492">
        <ele>7.018609</ele>
        <time>2022-08-30T14:44:06.428Z</time>
      </trkpt>
      <trkpt lat="42.75631" lon="2.97529">
        <ele>6.906682</ele>
        <time>2022-08-30T14:44:15.081Z</time>
      </trkpt>
      <trkpt lat="42.7568" lon="2.97585">
        <ele>6.681294</ele>
        <time>2022-08-30T14:44:26.971Z</time>
      </trkpt>
      <trkpt lat="42.75686" lon="2.97602">
        <ele>6.612183</ele>
        <time>2022-08-30T14:44:29.581Z</time>
      </trkpt>
      <trkpt lat="42.75894" lon="2.97836">
        <ele>5.518634</ele>
        <time>2022-08-30T14:45:51.809Z</time>
      </trkpt>
      <trkpt lat="42.75945" lon="2.97872">
        <ele>5.389467</ele>
        <time>2022-08-30T14:46:10.025Z</time>
      </trkpt>
      <trkpt lat="42.76049" lon="2.97966">
        <ele>5.68408</ele>
        <time>2022-08-30T14:46:51.145Z</time>
      </trkpt>
      <trkpt lat="42.76089" lon="2.97984">
        <ele>5.782541</ele>
        <time>2022-08-30T14:47:05.303Z</time>
      </trkpt>
      <trkpt lat="42.76176" lon="2.98213">
        <ele>6.42296</ele>
        <time>2022-08-30T14:48:08.760Z</time>
      </trkpt>
      <trkpt lat="42.7619" lon="2.98229">
        <ele>6.49071</ele>
        <time>2022-08-30T14:48:12.530Z</time>
      </trkpt>
      <trkpt lat="42.76298" lon="2.98502">
        <ele>7.091016</ele>
        <time>2022-08-30T14:49:28.849Z</time>
      </trkpt>
      <trkpt lat="42.7632" lon="2.9858">
        <ele>7.130283</ele>
        <time>2022-08-30T14:49:49.124Z</time>
      </trkpt>
      <trkpt lat="42.76331" lon="2.98642">
        <ele>7.155102</ele>
        <time>2022-08-30T14:50:03.607Z</time>
      </trkpt>
      <trkpt lat="42.76336" lon="2.98709">
        <ele>6.750707</ele>
        <time>2022-08-30T14:50:18.270Z</time>
      </trkpt>
      <trkpt lat="42.76337" lon="2.98718">
        <ele>6.69385</ele>
        <time>2022-08-30T14:50:19.510Z</time>
      </trkpt>
      <trkpt lat="42.7634" lon="2.98714">
        <ele>6.659925</ele>
        <time>2022-08-30T14:50:20.293Z</time>
      </trkpt>
      <trkpt lat="42.76436" lon="2.98683">
        <ele>5.84513</ele>
        <time>2022-08-30T14:50:36.951Z</time>
      </trkpt>
      <trkpt lat="42.76438" lon="2.98719">
        <ele>5.64398</ele>
        <time>2022-08-30T14:50:41.731Z</time>
      </trkpt>
      <trkpt lat="42.76447" lon="2.98789">
        <ele>5.384254</ele>
        <time>2022-08-30T14:50:50.913Z</time>
      </trkpt>
      <trkpt lat="42.76508" lon="2.99148">
        <ele>4.633708</ele>
        <time>2022-08-30T14:51:41.194Z</time>
      </trkpt>
      <trkpt lat="42.7651" lon="2.99119">
        <ele>4.613518</ele>
        <time>2022-08-30T14:51:48.204Z</time>
      </trkpt>
      <trkpt lat="42.76518" lon="2.99132">
        <ele>4.607304</ele>
        <time>2022-08-30T14:51:52.176Z</time>
      </trkpt>
      <trkpt lat="42.7656" lon="2.99125">
        <ele>4.688505</ele>
        <time>2022-08-30T14:52:06.349Z</time>
      </trkpt>
      <trkpt lat="42.76701" lon="2.99104">
        <ele>4.954237</ele>
        <time>2022-08-30T14:52:52.887Z</time>
      </trkpt>
      <trkpt lat="42.76711" lon="2.99103">
        <ele>4.967815</ele>
        <time>2022-08-30T14:52:54.943Z</time>
      </trkpt>
      <trkpt lat="42.76809" lon="2.99098">
        <ele>5.10372</ele>
        <time>2022-08-30T14:53:14.959Z</time>
      </trkpt>
      <trkpt lat="42.76817" lon="2.99102">
        <ele>5.115091</ele>
        <time>2022-08-30T14:53:16.591Z</time>
      </trkpt>
      <trkpt lat="42.76825" lon="2.99108">
        <ele>5.127928</ele>
        <time>2022-08-30T14:53:18.525Z</time>
      </trkpt>
      <trkpt lat="42.76829" lon="2.99106">
        <ele>5.134723</ele>
        <time>2022-08-30T14:53:19.535Z</time>
      </trkpt>
      <trkpt lat="42.76832" lon="2.99097">
        <ele>5.144628</ele>
        <time>2022-08-30T14:53:21.018Z</time>
      </trkpt>
      <trkpt lat="42.76887" lon="2.99089">
        <ele>5.315015</ele>
        <time>2022-08-30T14:53:33.273Z</time>
      </trkpt>
      <trkpt lat="42.76901" lon="2.99087">
        <ele>5.396425</ele>
        <time>2022-08-30T14:53:36.439Z</time>
      </trkpt>
      <trkpt lat="42.76953" lon="2.99081">
        <ele>5.707074</ele>
        <time>2022-08-30T14:53:48.351Z</time>
      </trkpt>
      <trkpt lat="42.76985" lon="2.99081">
        <ele>5.900681</ele>
        <time>2022-08-30T14:53:55.934Z</time>
      </trkpt>
      <trkpt lat="42.76995" lon="2.99082">
        <ele>5.961708</ele>
        <time>2022-08-30T14:53:58.383Z</time>
      </trkpt>
      <trkpt lat="42.77039" lon="2.99085">
        <ele>6.221913</ele>
        <time>2022-08-30T14:54:08.811Z</time>
      </trkpt>
      <trkpt lat="42.77083" lon="2.99089">
        <ele>6.56854</ele>
        <time>2022-08-30T14:54:19.431Z</time>
      </trkpt>
      <trkpt lat="42.77108" lon="2.99098">
        <ele>6.788635</ele>
        <time>2022-08-30T14:54:26.066Z</time>
      </trkpt>
      <trkpt lat="42.77135" lon="2.99112">
        <ele>7.034856</ele>
        <time>2022-08-30T14:54:33.505Z</time>
      </trkpt>
      <trkpt lat="42.77157" lon="2.99058">
        <ele>7.417136</ele>
        <time>2022-08-30T14:54:44.535Z</time>
      </trkpt>
      <trkpt lat="42.7718" lon="2.99074">
        <ele>7.629635</ele>
        <time>2022-08-30T14:54:50.499Z</time>
      </trkpt>
      <trkpt lat="42.77217" lon="2.98982">
        <ele>8.097998</ele>
        <time>2022-08-30T14:55:09.407Z</time>
      </trkpt>
      <trkpt lat="42.772" lon="2.9897">
        <ele>8.200866</ele>
        <time>2022-08-30T14:55:13.930Z</time>
      </trkpt>
      <trkpt lat="42.77213" lon="2.98939">
        <ele>8.345156</ele>
        <time>2022-08-30T14:55:20.372Z</time>
      </trkpt>
      <trkpt lat="42.77225" lon="2.98914">
        <ele>8.463841</ele>
        <time>2022-08-30T14:55:25.265Z</time>
      </trkpt>
      <trkpt lat="42.77236" lon="2.9889">
        <ele>8.573764</ele>
        <time>2022-08-30T14:55:29.640Z</time>
      </trkpt>
      <trkpt lat="42.77266" lon="2.98916">
        <ele>8.733664</ele>
        <time>2022-08-30T14:55:36.900Z</time>
      </trkpt>
      <trkpt lat="42.77328" lon="2.98884">
        <ele>8.431837</ele>
        <time>2022-08-30T14:56:05.283Z</time>
      </trkpt>
      <trkpt lat="42.7739" lon="2.98851">
        <ele>8.130011</ele>
        <time>2022-08-30T14:56:33.666Z</time>
      </trkpt>
      <trkpt lat="42.77396" lon="2.9885">
        <ele>8.100719</ele>
        <time>2022-08-30T14:56:34.786Z</time>
      </trkpt>
      <trkpt lat="42.774" lon="2.98843">
        <ele>8.071056</ele>
        <time>2022-08-30T14:56:35.879Z</time>
      </trkpt>
      <trkpt lat="42.77399" lon="2.98837">
        <ele>8.051359</ele>
        <time>2022-08-30T14:56:36.599Z</time>
      </trkpt>
      <trkpt lat="42.7743" lon="2.9882">
        <ele>7.861776</ele>
        <time>2022-08-30T14:56:42.546Z</time>
      </trkpt>
      <trkpt lat="42.77446" lon="2.98819">
        <ele>7.715863</ele>
        <time>2022-08-30T14:56:45.245Z</time>
      </trkpt>
      <trkpt lat="42.77468" lon="2.98818">
        <ele>7.507221</ele>
        <time>2022-08-30T14:56:49.040Z</time>
      </trkpt>
      <trkpt lat="42.77482" lon="2.98751">
        <ele>7.013671</ele>
        <time>2022-08-30T14:56:58.262Z</time>
      </trkpt>
      <trkpt lat="42.77507" lon="2.98701">
        <ele>6.595942</ele>
        <time>2022-08-30T14:57:06.344Z</time>
      </trkpt>
      <trkpt lat="42.77541" lon="2.98656">
        <ele>6.163149</ele>
        <time>2022-08-30T14:57:15.132Z</time>
      </trkpt>
      <trkpt lat="42.77561" lon="2.98645">
        <ele>6.019715</ele>
        <time>2022-08-30T14:57:19.066Z</time>
      </trkpt>
      <trkpt lat="42.77566" lon="2.98642">
        <ele>5.986963</ele>
        <time>2022-08-30T14:57:19.954Z</time>
      </trkpt>
      <trkpt lat="42.77584" lon="2.98649">
        <ele>5.864197</ele>
        <time>2022-08-30T14:57:23.318Z</time>
      </trkpt>
      <trkpt lat="42.77596" lon="2.98669">
        <ele>5.736685</ele>
        <time>2022-08-30T14:57:26.851Z</time>
      </trkpt>
      <trkpt lat="42.77657" lon="2.98686">
        <ele>5.329841</ele>
        <time>2022-08-30T14:57:38.430Z</time>
      </trkpt>
      <trkpt lat="42.77672" lon="2.9868">
        <ele>5.226589</ele>
        <time>2022-08-30T14:57:41.377Z</time>
      </trkpt>
      <trkpt lat="42.77711" lon="2.98685">
        <ele>4.963439</ele>
        <time>2022-08-30T14:57:48.925Z</time>
      </trkpt>
      <trkpt lat="42.77751" lon="2.98691">
        <ele>4.691343</ele>
        <time>2022-08-30T14:57:56.367Z</time>
      </trkpt>
      <trkpt lat="42.77757" lon="2.98691">
        <ele>4.651718</ele>
        <time>2022-08-30T14:57:57.438Z</time>
      </trkpt>
      <trkpt lat="42.77768" lon="2.98693">
        <ele>4.57513</ele>
        <time>2022-08-30T14:57:59.487Z</time>
      </trkpt>
      <trkpt lat="42.77773" lon="2.98694">
        <ele>4.542955</ele>
        <time>2022-08-30T14:58:00.339Z</time>
      </trkpt>
      <trkpt lat="42.77781" lon="2.98695">
        <ele>4.48683</ele>
        <time>2022-08-30T14:58:01.806Z</time>
      </trkpt>
      <trkpt lat="42.77788" lon="2.98696">
        <ele>4.434191</ele>
        <time>2022-08-30T14:58:03.201Z</time>
      </trkpt>
      <trkpt lat="42.77845" lon="2.98704">
        <ele>4.047043</ele>
        <time>2022-08-30T14:58:13.508Z</time>
      </trkpt>
      <trkpt lat="42.77923" lon="2.98727">
        <ele>3.681201</ele>
        <time>2022-08-30T14:58:28.742Z</time>
      </trkpt>
      <trkpt lat="42.7794" lon="2.98733">
        <ele>3.632941</ele>
        <time>2022-08-30T14:58:32.033Z</time>
      </trkpt>
      <trkpt lat="42.77947" lon="2.98734">
        <ele>3.612077</ele>
        <time>2022-08-30T14:58:33.444Z</time>
      </trkpt>
      <trkpt lat="42.78032" lon="2.98764">
        <ele>3.366931</ele>
        <time>2022-08-30T14:58:50.586Z</time>
      </trkpt>
      <trkpt lat="42.78035" lon="2.98765">
        <ele>3.359139</ele>
        <time>2022-08-30T14:58:51.180Z</time>
      </trkpt>
      <trkpt lat="42.78052" lon="2.98771">
        <ele>3.309763</ele>
        <time>2022-08-30T14:58:54.742Z</time>
      </trkpt>
      <trkpt lat="42.78067" lon="2.98776">
        <ele>3.298819</ele>
        <time>2022-08-30T14:58:57.941Z</time>
      </trkpt>
      <trkpt lat="42.78188" lon="2.98787">
        <ele>3.256159</ele>
        <time>2022-08-30T14:59:23.239Z</time>
      </trkpt>
      <trkpt lat="42.78193" lon="2.98792">
        <ele>3.25392</ele>
        <time>2022-08-30T14:59:24.481Z</time>
      </trkpt>
      <trkpt lat="42.78203" lon="2.98825">
        <ele>3.244644</ele>
        <time>2022-08-30T14:59:29.566Z</time>
      </trkpt>
      <trkpt lat="42.78218" lon="2.98808">
        <ele>3.21096</ele>
        <time>2022-08-30T14:59:33.374Z</time>
      </trkpt>
      <trkpt lat="42.78243" lon="2.98801">
        <ele>3.096472</ele>
        <time>2022-08-30T14:59:38.288Z</time>
      </trkpt>
      <trkpt lat="42.78259" lon="2.98811">
        <ele>3.018281</ele>
        <time>2022-08-30T14:59:41.591Z</time>
      </trkpt>
      <trkpt lat="42.78257" lon="2.98839">
        <ele>2.926357</ele>
        <time>2022-08-30T14:59:45.541Z</time>
      </trkpt>
      <trkpt lat="42.78248" lon="2.98852">
        <ele>2.869566</ele>
        <time>2022-08-30T14:59:47.923Z</time>
      </trkpt>
      <trkpt lat="42.78265" lon="2.98936">
        <ele>2.586529</ele>
        <time>2022-08-30T14:59:59.943Z</time>
      </trkpt>
      <trkpt lat="42.78309" lon="2.98913">
        <ele>2.408916</ele>
        <time>2022-08-30T15:00:08.783Z</time>
      </trkpt>
      <trkpt lat="42.78393" lon="2.98883">
        <ele>2.222253</ele>
        <time>2022-08-30T15:00:25.609Z</time>
      </trkpt>
      <trkpt lat="42.78538" lon="2.98873">
        <ele>2.081711</ele>
        <time>2022-08-30T15:00:54.803Z</time>
      </trkpt>
      <trkpt lat="42.78598" lon="2.98863">
        <ele>2.111564</ele>
        <time>2022-08-30T15:01:07.277Z</time>
      </trkpt>
      <trkpt lat="42.78648" lon="2.98863">
        <ele>2.135973</ele>
        <time>2022-08-30T15:01:17.525Z</time>
      </trkpt>
      <trkpt lat="42.78686" lon="2.9887">
        <ele>2.217653</ele>
        <time>2022-08-30T15:01:25.546Z</time>
      </trkpt>
      <trkpt lat="42.78721" lon="2.98884">
        <ele>2.301654</ele>
        <time>2022-08-30T15:01:33.352Z</time>
      </trkpt>
      <trkpt lat="42.78757" lon="2.98893">
        <ele>2.385075</ele>
        <time>2022-08-30T15:01:41.170Z</time>
      </trkpt>
      <trkpt lat="42.78871" lon="2.98922">
        <ele>2.641136</ele>
        <time>2022-08-30T15:02:06.510Z</time>
      </trkpt>
      <trkpt lat="42.78894" lon="2.98911">
        <ele>2.690633</ele>
        <time>2022-08-30T15:02:11.773Z</time>
      </trkpt>
      <trkpt lat="42.78929" lon="2.98882">
        <ele>2.774798</ele>
        <time>2022-08-30T15:02:20.760Z</time>
      </trkpt>
      <trkpt lat="42.78977" lon="2.98846">
        <ele>2.886659</ele>
        <time>2022-08-30T15:02:32.109Z</time>
      </trkpt>
      <trkpt lat="42.79051" lon="2.98816">
        <ele>2.699885</ele>
        <time>2022-08-30T15:02:47.397Z</time>
      </trkpt>
      <trkpt lat="42.79065" lon="2.98817">
        <ele>2.647821</ele>
        <time>2022-08-30T15:02:50.224Z</time>
      </trkpt>
      <trkpt lat="42.79155" lon="2.98966">
        <ele>2.081396</ele>
        <time>2022-08-30T15:03:16.933Z</time>
      </trkpt>
      <trkpt lat="42.79169" lon="2.98964">
        <ele>2.004473</ele>
        <time>2022-08-30T15:03:19.643Z</time>
      </trkpt>
      <trkpt lat="42.79352" lon="2.98821">
        <ele>0.99195</ele>
        <time>2022-08-30T15:03:59.245Z</time>
      </trkpt>
      <trkpt lat="42.79386" lon="2.98819">
        <ele>0.853485</ele>
        <time>2022-08-30T15:04:05.699Z</time>
      </trkpt>
      <trkpt lat="42.79396" lon="2.98832">
        <ele>0.796952</ele>
        <time>2022-08-30T15:04:08.392Z</time>
      </trkpt>
      <trkpt lat="42.79398" lon="2.98853">
        <ele>0.732746</ele>
        <time>2022-08-30T15:04:11.426Z</time>
      </trkpt>
      <trkpt lat="42.79405" lon="2.98864">
        <ele>0.690665</ele>
        <time>2022-08-30T15:04:13.426Z</time>
      </trkpt>
      <trkpt lat="42.79406" lon="2.98864">
        <ele>0.684441</ele>
        <time>2022-08-30T15:04:13.737Z</time>
      </trkpt>
      <trkpt lat="42.79444" lon="2.98871">
        <ele>0.59818</ele>
        <time>2022-08-30T15:04:21.392Z</time>
      </trkpt>
      <trkpt lat="42.79467" lon="2.98886">
        <ele>0.604785</ele>
        <time>2022-08-30T15:04:26.397Z</time>
      </trkpt>
      <trkpt lat="42.79508" lon="2.98633">
        <ele>0.658649</ele>
        <time>2022-08-30T15:05:27.546Z</time>
      </trkpt>
      <trkpt lat="42.79513" lon="2.98613">
        <ele>0.664017</ele>
        <time>2022-08-30T15:05:32.632Z</time>
      </trkpt>
      <trkpt lat="42.79514" lon="2.98606">
        <ele>0.665671</ele>
        <time>2022-08-30T15:05:34.235Z</time>
      </trkpt>
      <trkpt lat="42.79562" lon="2.98397">
        <ele>0.751261</ele>
        <time>2022-08-30T15:06:25.472Z</time>
      </trkpt>
      <trkpt lat="42.79571" lon="2.98376">
        <ele>0.767759</ele>
        <time>2022-08-30T15:06:31.295Z</time>
      </trkpt>
      <trkpt lat="42.79621" lon="2.98269">
        <ele>0.852541</ele>
        <time>2022-08-30T15:07:01.301Z</time>
      </trkpt>
      <trkpt lat="42.79674" lon="2.98309">
        <ele>0.900056</ele>
        <time>2022-08-30T15:07:13.576Z</time>
      </trkpt>
      <trkpt lat="42.79744" lon="2.98376">
        <ele>0.963491</ele>
        <time>2022-08-30T15:07:31.301Z</time>
      </trkpt>
      <trkpt lat="42.79794" lon="2.98427">
        <ele>1.014546</ele>
        <time>2022-08-30T15:07:44.020Z</time>
      </trkpt>
      <trkpt lat="42.79804" lon="2.98487">
        <ele>1.064966</ele>
        <time>2022-08-30T15:07:53.836Z</time>
      </trkpt>
      <trkpt lat="42.79832" lon="2.98493">
        <ele>1.09617</ele>
        <time>2022-08-30T15:08:03.214Z</time>
      </trkpt>
      <trkpt lat="42.79837" lon="2.98499">
        <ele>1.103626</ele>
        <time>2022-08-30T15:08:05.423Z</time>
      </trkpt>
      <trkpt lat="42.79847" lon="2.98511">
        <ele>1.117902</ele>
        <time>2022-08-30T15:08:09.581Z</time>
      </trkpt>
      <trkpt lat="42.7989" lon="2.98543">
        <ele>1.173428</ele>
        <time>2022-08-30T15:08:25.204Z</time>
      </trkpt>
      <trkpt lat="42.79937" lon="2.98552">
        <ele>1.199147</ele>
        <time>2022-08-30T15:08:40.234Z</time>
      </trkpt>
      <trkpt lat="42.79947" lon="2.98541">
        <ele>1.19844</ele>
        <time>2022-08-30T15:08:44.392Z</time>
      </trkpt>
      <trkpt lat="42.79954" lon="2.98524">
        <ele>1.197695</ele>
        <time>2022-08-30T15:08:48.732Z</time>
      </trkpt>
      <trkpt lat="42.79962" lon="2.98503">
        <ele>1.196739</ele>
        <time>2022-08-30T15:08:54.576Z</time>
      </trkpt>
      <trkpt lat="42.79968" lon="2.98484">
        <ele>1.195907</ele>
        <time>2022-08-30T15:08:59.584Z</time>
      </trkpt>
      <trkpt lat="42.79982" lon="2.98443">
        <ele>1.19415</ele>
        <time>2022-08-30T15:09:10.458Z</time>
      </trkpt>
      <trkpt lat="42.79989" lon="2.98433">
        <ele>1.193622</ele>
        <time>2022-08-30T15:09:13.513Z</time>
      </trkpt>
      <trkpt lat="42.80001" lon="2.9841">
        <ele>1.192494</ele>
        <time>2022-08-30T15:09:20.367Z</time>
      </trkpt>
      <trkpt lat="42.80017" lon="2.98339">
        <ele>1.142935</ele>
        <time>2022-08-30T15:09:37.204Z</time>
      </trkpt>
      <trkpt lat="42.8002" lon="2.98316">
        <ele>1.104193</ele>
        <time>2022-08-30T15:09:42.499Z</time>
      </trkpt>
      <trkpt lat="42.8002" lon="2.98308">
        <ele>1.090368</ele>
        <time>2022-08-30T15:09:44.410Z</time>
      </trkpt>
      <trkpt lat="42.80027" lon="2.9826">
        <ele>1.008736</ele>
        <time>2022-08-30T15:09:55.561Z</time>
      </trkpt>
      <trkpt lat="42.80023" lon="2.98236">
        <ele>0.967724</ele>
        <time>2022-08-30T15:10:01.076Z</time>
      </trkpt>
      <trkpt lat="42.79973" lon="2.98143">
        <ele>0.775487</ele>
        <time>2022-08-30T15:10:27.688Z</time>
      </trkpt>
      <trkpt lat="42.79972" lon="2.98127">
        <ele>0.74544</ele>
        <time>2022-08-30T15:10:31.459Z</time>
      </trkpt>
      <trkpt lat="42.7994" lon="2.98081">
        <ele>0.629149</ele>
        <time>2022-08-30T15:10:45.719Z</time>
      </trkpt>
      <trkpt lat="42.79943" lon="2.98075">
        <ele>0.616964</ele>
        <time>2022-08-30T15:10:47.157Z</time>
      </trkpt>
      <trkpt lat="42.79946" lon="2.98069">
        <ele>0.602495</ele>
        <time>2022-08-30T15:10:48.977Z</time>
      </trkpt>
      <trkpt lat="42.79976" lon="2.98099">
        <ele>0.510331</ele>
        <time>2022-08-30T15:11:00.290Z</time>
      </trkpt>
      <trkpt lat="42.79984" lon="2.98095">
        <ele>0.487143</ele>
        <time>2022-08-30T15:11:03.109Z</time>
      </trkpt>
      <trkpt lat="42.79991" lon="2.98106">
        <ele>0.459721</ele>
        <time>2022-08-30T15:11:06.508Z</time>
      </trkpt>
      <trkpt lat="42.79991" lon="2.98122">
        <ele>0.43124</ele>
        <time>2022-08-30T15:11:09.981Z</time>
      </trkpt>
      <trkpt lat="42.80021" lon="2.98157">
        <ele>0.331801</ele>
        <time>2022-08-30T15:11:22.191Z</time>
      </trkpt>
      <trkpt lat="42.80041" lon="2.98159">
        <ele>0.318213</ele>
        <time>2022-08-30T15:11:28.262Z</time>
      </trkpt>
      <trkpt lat="42.80052" lon="2.98171">
        <ele>0.308794</ele>
        <time>2022-08-30T15:11:32.775Z</time>
      </trkpt>
      <trkpt lat="42.80062" lon="2.98148">
        <ele>0.296224</ele>
        <time>2022-08-30T15:11:38.790Z</time>
      </trkpt>
      <trkpt lat="42.80095" lon="2.9814">
        <ele>0.274348</ele>
        <time>2022-08-30T15:11:49.339Z</time>
      </trkpt>
      <trkpt lat="42.80115" lon="2.98128">
        <ele>0.259505</ele>
        <time>2022-08-30T15:11:56.610Z</time>
      </trkpt>
      <trkpt lat="42.80126" lon="2.98084">
        <ele>0.237221</ele>
        <time>2022-08-30T15:12:07.329Z</time>
      </trkpt>
      <trkpt lat="42.80154" lon="2.98">
        <ele>0.293011</ele>
        <time>2022-08-30T15:12:28.354Z</time>
      </trkpt>
      <trkpt lat="42.80171" lon="2.97951">
        <ele>0.39488</ele>
        <time>2022-08-30T15:12:41.186Z</time>
      </trkpt>
      <trkpt lat="42.80193" lon="2.97873">
        <ele>0.555703</ele>
        <time>2022-08-30T15:13:02.354Z</time>
      </trkpt>
      <trkpt lat="42.8021" lon="2.97833">
        <ele>0.642696</ele>
        <time>2022-08-30T15:13:13.977Z</time>
      </trkpt>
      <trkpt lat="42.80233" lon="2.97776">
        <ele>0.779232</ele>
        <time>2022-08-30T15:13:25.367Z</time>
      </trkpt>
      <trkpt lat="42.80235" lon="2.97773">
        <ele>0.787984</ele>
        <time>2022-08-30T15:13:26.028Z</time>
      </trkpt>
      <trkpt lat="42.80261" lon="2.97725">
        <ele>0.916484</ele>
        <time>2022-08-30T15:13:35.890Z</time>
      </trkpt>
      <trkpt lat="42.80264" lon="2.97712">
        <ele>0.947646</ele>
        <time>2022-08-30T15:13:38.066Z</time>
      </trkpt>
      <trkpt lat="42.80261" lon="2.97697">
        <ele>0.980133</ele>
        <time>2022-08-30T15:13:40.622Z</time>
      </trkpt>
      <trkpt lat="42.80271" lon="2.97702">
        <ele>1.012383</ele>
        <time>2022-08-30T15:13:44.168Z</time>
      </trkpt>
      <trkpt lat="42.80277" lon="2.97685">
        <ele>1.053461</ele>
        <time>2022-08-30T15:13:48.645Z</time>
      </trkpt>
      <trkpt lat="42.8028" lon="2.97666">
        <ele>1.095363</ele>
        <time>2022-08-30T15:13:51.813Z</time>
      </trkpt>
      <trkpt lat="42.8027" lon="2.97643">
        <ele>1.151376</ele>
        <time>2022-08-30T15:13:55.665Z</time>
      </trkpt>
      <trkpt lat="42.80273" lon="2.97626">
        <ele>1.188871</ele>
        <time>2022-08-30T15:13:58.387Z</time>
      </trkpt>
      <trkpt lat="42.80284" lon="2.97559">
        <ele>1.085038</ele>
        <time>2022-08-30T15:14:08.375Z</time>
      </trkpt>
      <trkpt lat="42.80279" lon="2.97516">
        <ele>0.994871</ele>
        <time>2022-08-30T15:14:14.375Z</time>
      </trkpt>
      <trkpt lat="42.80271" lon="2.97488">
        <ele>0.93161</ele>
        <time>2022-08-30T15:14:18.510Z</time>
      </trkpt>
      <trkpt lat="42.80263" lon="2.97424">
        <ele>0.796574</ele>
        <time>2022-08-30T15:14:27.540Z</time>
      </trkpt>
      <trkpt lat="42.80277" lon="2.97298">
        <ele>0.8318</ele>
        <time>2022-08-30T15:14:46.033Z</time>
      </trkpt>
      <trkpt lat="42.80281" lon="2.97301">
        <ele>0.842498</ele>
        <time>2022-08-30T15:14:47.550Z</time>
      </trkpt>
      <trkpt lat="42.80286" lon="2.97303">
        <ele>0.852805</ele>
        <time>2022-08-30T15:14:48.995Z</time>
      </trkpt>
      <trkpt lat="42.80292" lon="2.97304">
        <ele>0.868938</ele>
        <time>2022-08-30T15:14:51.311Z</time>
      </trkpt>
      <trkpt lat="42.80299" lon="2.97281">
        <ele>0.912175</ele>
        <time>2022-08-30T15:14:57.604Z</time>
      </trkpt>
      <trkpt lat="42.80308" lon="2.97268">
        <ele>0.941785</ele>
        <time>2022-08-30T15:15:01.883Z</time>
      </trkpt>
      <trkpt lat="42.80365" lon="2.97216">
        <ele>1.10182</ele>
        <time>2022-08-30T15:15:25.122Z</time>
      </trkpt>
      <trkpt lat="42.80433" lon="2.97232">
        <ele>1.242038</ele>
        <time>2022-08-30T15:15:48.633Z</time>
      </trkpt>
      <trkpt lat="42.80508" lon="2.97079">
        <ele>1.494295</ele>
        <time>2022-08-30T15:16:32.145Z</time>
      </trkpt>
      <trkpt lat="42.80512" lon="2.97071">
        <ele>1.501843</ele>
        <time>2022-08-30T15:16:34.586Z</time>
      </trkpt>
      <trkpt lat="42.80515" lon="2.97067">
        <ele>1.505813</ele>
        <time>2022-08-30T15:16:35.870Z</time>
      </trkpt>
      <trkpt lat="42.80524" lon="2.97056">
        <ele>1.517385</ele>
        <time>2022-08-30T15:16:38.201Z</time>
      </trkpt>
      <trkpt lat="42.80564" lon="2.97038">
        <ele>1.559261</ele>
        <time>2022-08-30T15:16:46.885Z</time>
      </trkpt>
      <trkpt lat="42.80602" lon="2.97021">
        <ele>1.599109</ele>
        <time>2022-08-30T15:16:55.441Z</time>
      </trkpt>
      <trkpt lat="42.80625" lon="2.97011">
        <ele>1.622473</ele>
        <time>2022-08-30T15:17:00.438Z</time>
      </trkpt>
      <trkpt lat="42.80639" lon="2.96992">
        <ele>1.642169</ele>
        <time>2022-08-30T15:17:04.678Z</time>
      </trkpt>
      <trkpt lat="42.80673" lon="2.96913">
        <ele>1.686444</ele>
        <time>2022-08-30T15:17:18.334Z</time>
      </trkpt>
      <trkpt lat="42.80675" lon="2.9691">
        <ele>1.688296</ele>
        <time>2022-08-30T15:17:18.966Z</time>
      </trkpt>
      <trkpt lat="42.80683" lon="2.96874">
        <ele>1.704434</ele>
        <time>2022-08-30T15:17:24.642Z</time>
      </trkpt>
      <trkpt lat="42.80678" lon="2.96816">
        <ele>1.729892</ele>
        <time>2022-08-30T15:17:33.477Z</time>
      </trkpt>
      <trkpt lat="42.80676" lon="2.96782">
        <ele>1.744319</ele>
        <time>2022-08-30T15:17:38.568Z</time>
      </trkpt>
      <trkpt lat="42.80678" lon="2.96716">
        <ele>1.748975</ele>
        <time>2022-08-30T15:17:48.650Z</time>
      </trkpt>
      <trkpt lat="42.80681" lon="2.96681">
        <ele>1.736777</ele>
        <time>2022-08-30T15:17:53.716Z</time>
      </trkpt>
      <trkpt lat="42.80696" lon="2.96628">
        <ele>1.716885</ele>
        <time>2022-08-30T15:18:01.943Z</time>
      </trkpt>
      <trkpt lat="42.80696" lon="2.96628">
        <ele>1.71678</ele>
        <time>2022-08-30T15:18:02.061Z</time>
      </trkpt>
      <trkpt lat="42.80695" lon="2.966">
        <ele>1.706974</ele>
        <time>2022-08-30T15:18:06.063Z</time>
      </trkpt>
      <trkpt lat="42.80688" lon="2.96588">
        <ele>1.701328</ele>
        <time>2022-08-30T15:18:08.410Z</time>
      </trkpt>
      <trkpt lat="42.8069" lon="2.96537">
        <ele>1.683697</ele>
        <time>2022-08-30T15:18:15.819Z</time>
      </trkpt>
      <trkpt lat="42.80686" lon="2.96528">
        <ele>1.679903</ele>
        <time>2022-08-30T15:18:17.606Z</time>
      </trkpt>
      <trkpt lat="42.8069" lon="2.9652">
        <ele>1.676601</ele>
        <time>2022-08-30T15:18:18.964Z</time>
      </trkpt>
      <trkpt lat="42.80724" lon="2.96502">
        <ele>1.675437</ele>
        <time>2022-08-30T15:18:26.757Z</time>
      </trkpt>
      <trkpt lat="42.81327" lon="2.96197">
        <ele>1.629772</ele>
        <time>2022-08-30T15:20:36.650Z</time>
      </trkpt>
      <trkpt lat="42.8138" lon="2.96166">
        <ele>1.583008</ele>
        <time>2022-08-30T15:20:47.900Z</time>
      </trkpt>
      <trkpt lat="42.81215" lon="2.95919">
        <ele>1.141292</ele>
        <time>2022-08-30T15:22:04.150Z</time>
      </trkpt>
      <trkpt lat="42.81307" lon="2.95809">
        <ele>1.025158</ele>
        <time>2022-08-30T15:22:42.477Z</time>
      </trkpt>
      <trkpt lat="42.81347" lon="2.9578">
        <ele>1.122539</ele>
        <time>2022-08-30T15:22:57.217Z</time>
      </trkpt>
      <trkpt lat="42.81382" lon="2.95762">
        <ele>1.2036</ele>
        <time>2022-08-30T15:23:09.856Z</time>
      </trkpt>
      <trkpt lat="42.81457" lon="2.95741">
        <ele>1.365494</ele>
        <time>2022-08-30T15:23:35.222Z</time>
      </trkpt>
      <trkpt lat="42.81469" lon="2.95744">
        <ele>1.38461</ele>
        <time>2022-08-30T15:23:39.290Z</time>
      </trkpt>
      <trkpt lat="42.81483" lon="2.95761">
        <ele>1.411356</ele>
        <time>2022-08-30T15:23:45.538Z</time>
      </trkpt>
      <trkpt lat="42.81492" lon="2.95758">
        <ele>1.425966</ele>
        <time>2022-08-30T15:23:48.931Z</time>
      </trkpt>
      <trkpt lat="42.81525" lon="2.95711">
        <ele>1.493709</ele>
        <time>2022-08-30T15:24:04.372Z</time>
      </trkpt>
      <trkpt lat="42.81577" lon="2.95673">
        <ele>1.579595</ele>
        <time>2022-08-30T15:24:23.856Z</time>
      </trkpt>
      <trkpt lat="42.81648" lon="2.95609">
        <ele>1.508097</ele>
        <time>2022-08-30T15:24:50.583Z</time>
      </trkpt>
      <trkpt lat="42.81714" lon="2.95576">
        <ele>1.344741</ele>
        <time>2022-08-30T15:25:12.091Z</time>
      </trkpt>
      <trkpt lat="42.8174" lon="2.95586">
        <ele>1.281123</ele>
        <time>2022-08-30T15:25:20.433Z</time>
      </trkpt>
      <trkpt lat="42.81826" lon="2.95531">
        <ele>1.106373</ele>
        <time>2022-08-30T15:25:49.813Z</time>
      </trkpt>
      <trkpt lat="42.81905" lon="2.95437">
        <ele>0.939536</ele>
        <time>2022-08-30T15:26:22.943Z</time>
      </trkpt>
      <trkpt lat="42.81943" lon="2.95403">
        <ele>1.002894</ele>
        <time>2022-08-30T15:26:37.247Z</time>
      </trkpt>
      <trkpt lat="42.81974" lon="2.95379">
        <ele>1.091263</ele>
        <time>2022-08-30T15:26:46.375Z</time>
      </trkpt>
      <trkpt lat="42.82013" lon="2.95332">
        <ele>1.219115</ele>
        <time>2022-08-30T15:27:00.110Z</time>
      </trkpt>
      <trkpt lat="42.82073" lon="2.95271">
        <ele>1.464188</ele>
        <time>2022-08-30T15:27:21.115Z</time>
      </trkpt>
      <trkpt lat="42.82097" lon="2.95234">
        <ele>1.680973</ele>
        <time>2022-08-30T15:27:31.244Z</time>
      </trkpt>
      <trkpt lat="42.82133" lon="2.95152">
        <ele>2.104789</ele>
        <time>2022-08-30T15:27:51.184Z</time>
      </trkpt>
      <trkpt lat="42.82186" lon="2.95022">
        <ele>2.566266</ele>
        <time>2022-08-30T15:28:22.291Z</time>
      </trkpt>
      <trkpt lat="42.82223" lon="2.9503">
        <ele>2.649656</ele>
        <time>2022-08-30T15:28:30.428Z</time>
      </trkpt>
      <trkpt lat="42.82252" lon="2.95026">
        <ele>2.714644</ele>
        <time>2022-08-30T15:28:36.398Z</time>
      </trkpt>
      <trkpt lat="42.82268" lon="2.95025">
        <ele>2.750622</ele>
        <time>2022-08-30T15:28:39.716Z</time>
      </trkpt>
      <trkpt lat="42.82284" lon="2.94973">
        <ele>2.843019</ele>
        <time>2022-08-30T15:28:47.831Z</time>
      </trkpt>
      <trkpt lat="42.82298" lon="2.94906">
        <ele>2.771816</ele>
        <time>2022-08-30T15:28:57.811Z</time>
      </trkpt>
      <trkpt lat="42.82304" lon="2.94896">
        <ele>2.753898</ele>
        <time>2022-08-30T15:28:59.836Z</time>
      </trkpt>
      <trkpt lat="42.82315" lon="2.94886">
        <ele>2.73042</ele>
        <time>2022-08-30T15:29:02.398Z</time>
      </trkpt>
      <trkpt lat="42.82332" lon="2.94833">
        <ele>2.656573</ele>
        <time>2022-08-30T15:29:10.573Z</time>
      </trkpt>
      <trkpt lat="42.82349" lon="2.94791">
        <ele>2.59465</ele>
        <time>2022-08-30T15:29:17.494Z</time>
      </trkpt>
      <trkpt lat="42.82367" lon="2.94738">
        <ele>2.557163</ele>
        <time>2022-08-30T15:29:26.130Z</time>
      </trkpt>
      <trkpt lat="42.82406" lon="2.94742">
        <ele>2.633197</ele>
        <time>2022-08-30T15:29:34.199Z</time>
      </trkpt>
      <trkpt lat="42.82479" lon="2.9476">
        <ele>2.776853</ele>
        <time>2022-08-30T15:29:50.055Z</time>
      </trkpt>
      <trkpt lat="42.82534" lon="2.94779">
        <ele>2.883494</ele>
        <time>2022-08-30T15:30:02.670Z</time>
      </trkpt>
      <trkpt lat="42.82585" lon="2.94818">
        <ele>2.872893</ele>
        <time>2022-08-30T15:30:15.408Z</time>
      </trkpt>
      <trkpt lat="42.82671" lon="2.94906">
        <ele>2.853464</ele>
        <time>2022-08-30T15:30:36.532Z</time>
      </trkpt>
      <trkpt lat="42.82691" lon="2.94937">
        <ele>2.799822</ele>
        <time>2022-08-30T15:30:42.515Z</time>
      </trkpt>
      <trkpt lat="42.82734" lon="2.94978">
        <ele>2.645863</ele>
        <time>2022-08-30T15:30:52.691Z</time>
      </trkpt>
      <trkpt lat="42.82777" lon="2.95014">
        <ele>2.496156</ele>
        <time>2022-08-30T15:31:02.536Z</time>
      </trkpt>
      <trkpt lat="42.82859" lon="2.95088">
        <ele>2.22065</ele>
        <time>2022-08-30T15:31:21.283Z</time>
      </trkpt>
      <trkpt lat="42.82924" lon="2.95128">
        <ele>2.031514</ele>
        <time>2022-08-30T15:31:35.347Z</time>
      </trkpt>
      <trkpt lat="42.82974" lon="2.95161">
        <ele>1.882754</ele>
        <time>2022-08-30T15:31:46.407Z</time>
      </trkpt>
      <trkpt lat="42.82978" lon="2.95179">
        <ele>1.846681</ele>
        <time>2022-08-30T15:31:48.982Z</time>
      </trkpt>
      <trkpt lat="42.82935" lon="2.95271">
        <ele>1.634868</ele>
        <time>2022-08-30T15:32:04.398Z</time>
      </trkpt>
      <trkpt lat="42.82931" lon="2.95289">
        <ele>1.598378</ele>
        <time>2022-08-30T15:32:07.063Z</time>
      </trkpt>
      <trkpt lat="42.82936" lon="2.95314">
        <ele>1.547652</ele>
        <time>2022-08-30T15:32:10.699Z</time>
      </trkpt>
      <trkpt lat="42.82945" lon="2.95329">
        <ele>1.508618</ele>
        <time>2022-08-30T15:32:13.574Z</time>
      </trkpt>
      <trkpt lat="42.82956" lon="2.95338">
        <ele>1.475336</ele>
        <time>2022-08-30T15:32:15.951Z</time>
      </trkpt>
      <trkpt lat="42.832" lon="2.95441">
        <ele>1.139342</ele>
        <time>2022-08-30T15:33:06.648Z</time>
      </trkpt>
      <trkpt lat="42.83221" lon="2.9545">
        <ele>1.131917</ele>
        <time>2022-08-30T15:33:11.234Z</time>
      </trkpt>
      <trkpt lat="42.83246" lon="2.95443">
        <ele>1.123681</ele>
        <time>2022-08-30T15:33:16.530Z</time>
      </trkpt>
      <trkpt lat="42.83229" lon="2.95405">
        <ele>1.113118</ele>
        <time>2022-08-30T15:33:22.786Z</time>
      </trkpt>
      <trkpt lat="42.83229" lon="2.95358">
        <ele>1.101857</ele>
        <time>2022-08-30T15:33:29.334Z</time>
      </trkpt>
      <trkpt lat="42.83222" lon="2.95319">
        <ele>1.092213</ele>
        <time>2022-08-30T15:33:34.918Z</time>
      </trkpt>
      <trkpt lat="42.83232" lon="2.95249">
        <ele>0.969515</ele>
        <time>2022-08-30T15:33:44.943Z</time>
      </trkpt>
      <trkpt lat="42.83226" lon="2.95181">
        <ele>0.850291</ele>
        <time>2022-08-30T15:33:54.265Z</time>
      </trkpt>
      <trkpt lat="42.83233" lon="2.95131">
        <ele>0.762027</ele>
        <time>2022-08-30T15:34:01.089Z</time>
      </trkpt>
      <trkpt lat="42.83248" lon="2.95072">
        <ele>0.650475</ele>
        <time>2022-08-30T15:34:09.323Z</time>
      </trkpt>
      <trkpt lat="42.83246" lon="2.95053">
        <ele>0.604593</ele>
        <time>2022-08-30T15:34:11.872Z</time>
      </trkpt>
      <trkpt lat="42.83204" lon="2.94987">
        <ele>0.396079</ele>
        <time>2022-08-30T15:34:23.388Z</time>
      </trkpt>
      <trkpt lat="42.83192" lon="2.94958">
        <ele>0.315518</ele>
        <time>2022-08-30T15:34:27.897Z</time>
      </trkpt>
      <trkpt lat="42.83183" lon="2.94917">
        <ele>0.213573</ele>
        <time>2022-08-30T15:34:33.635Z</time>
      </trkpt>
      <trkpt lat="42.83176" lon="2.94845">
        <ele>0.093906</ele>
        <time>2022-08-30T15:34:43.528Z</time>
      </trkpt>
      <trkpt lat="42.83187" lon="2.94785">
        <ele>0.155399</ele>
        <time>2022-08-30T15:34:52.295Z</time>
      </trkpt>
      <trkpt lat="42.83184" lon="2.94767">
        <ele>0.174149</ele>
        <time>2022-08-30T15:34:54.905Z</time>
      </trkpt>
      <trkpt lat="42.83183" lon="2.94755">
        <ele>0.186001</ele>
        <time>2022-08-30T15:34:56.617Z</time>
      </trkpt>
      <trkpt lat="42.83178" lon="2.94743">
        <ele>0.200086</ele>
        <time>2022-08-30T15:34:58.824Z</time>
      </trkpt>
      <trkpt lat="42.83164" lon="2.94728">
        <ele>0.225004</ele>
        <time>2022-08-30T15:35:02.344Z</time>
      </trkpt>
      <trkpt lat="42.83099" lon="2.94674">
        <ele>0.337933</ele>
        <time>2022-08-30T15:35:17.698Z</time>
      </trkpt>
      <trkpt lat="42.83085" lon="2.94655">
        <ele>0.421954</ele>
        <time>2022-08-30T15:35:22.048Z</time>
      </trkpt>
      <trkpt lat="42.83051" lon="2.9459">
        <ele>0.673305</ele>
        <time>2022-08-30T15:35:34.387Z</time>
      </trkpt>
      <trkpt lat="42.83045" lon="2.94568">
        <ele>0.745288</ele>
        <time>2022-08-30T15:35:38.189Z</time>
      </trkpt>
      <trkpt lat="42.83043" lon="2.94534">
        <ele>0.853525</ele>
        <time>2022-08-30T15:35:43.640Z</time>
      </trkpt>
      <trkpt lat="42.83061" lon="2.94489">
        <ele>1.014206</ele>
        <time>2022-08-30T15:35:51.854Z</time>
      </trkpt>
      <trkpt lat="42.83081" lon="2.94458">
        <ele>1.126255</ele>
        <time>2022-08-30T15:35:58.091Z</time>
      </trkpt>
      <trkpt lat="42.83081" lon="2.94455">
        <ele>1.131888</ele>
        <time>2022-08-30T15:35:58.492Z</time>
      </trkpt>
      <trkpt lat="42.83081" lon="2.9445">
        <ele>1.142278</ele>
        <time>2022-08-30T15:35:59.227Z</time>
      </trkpt>
      <trkpt lat="42.83083" lon="2.94388">
        <ele>1.274965</ele>
        <time>2022-08-30T15:36:08.701Z</time>
      </trkpt>
      <trkpt lat="42.83184" lon="2.94183">
        <ele>1.615899</ele>
        <time>2022-08-30T15:36:45.782Z</time>
      </trkpt>
      <trkpt lat="42.83187" lon="2.94178">
        <ele>1.61624</ele>
        <time>2022-08-30T15:36:46.620Z</time>
      </trkpt>
      <trkpt lat="42.83189" lon="2.94173">
        <ele>1.616591</ele>
        <time>2022-08-30T15:36:47.499Z</time>
      </trkpt>
      <trkpt lat="42.83199" lon="2.94162">
        <ele>1.617552</ele>
        <time>2022-08-30T15:36:49.834Z</time>
      </trkpt>
      <trkpt lat="42.83211" lon="2.94158">
        <ele>1.618492</ele>
        <time>2022-08-30T15:36:52.107Z</time>
      </trkpt>
      <trkpt lat="42.83222" lon="2.9415">
        <ele>1.619415</ele>
        <time>2022-08-30T15:36:54.428Z</time>
      </trkpt>
      <trkpt lat="42.83227" lon="2.94117">
        <ele>1.62127</ele>
        <time>2022-08-30T15:36:58.972Z</time>
      </trkpt>
      <trkpt lat="42.83232" lon="2.93971">
        <ele>1.774665</ele>
        <time>2022-08-30T15:37:19.548Z</time>
      </trkpt>
      <trkpt lat="42.83235" lon="2.93791">
        <ele>2.160765</ele>
        <time>2022-08-30T15:37:46.745Z</time>
      </trkpt>
      <trkpt lat="42.83241" lon="2.9373">
        <ele>2.477319</ele>
        <time>2022-08-30T15:37:57.344Z</time>
      </trkpt>
      <trkpt lat="42.83243" lon="2.93712">
        <ele>2.572689</ele>
        <time>2022-08-30T15:38:00.696Z</time>
      </trkpt>
      <trkpt lat="42.83218" lon="2.93544">
        <ele>3.383639</ele>
        <time>2022-08-30T15:38:29.461Z</time>
      </trkpt>
      <trkpt lat="42.83208" lon="2.93486">
        <ele>3.524579</ele>
        <time>2022-08-30T15:38:38.671Z</time>
      </trkpt>
      <trkpt lat="42.83193" lon="2.93427">
        <ele>3.673665</ele>
        <time>2022-08-30T15:38:48.186Z</time>
      </trkpt>
      <trkpt lat="42.83143" lon="2.93335">
        <ele>3.886689</ele>
        <time>2022-08-30T15:39:05.099Z</time>
      </trkpt>
      <trkpt lat="42.83132" lon="2.93302">
        <ele>3.851597</ele>
        <time>2022-08-30T15:39:10.127Z</time>
      </trkpt>
      <trkpt lat="42.83111" lon="2.93192">
        <ele>3.738842</ele>
        <time>2022-08-30T15:39:25.472Z</time>
      </trkpt>
      <trkpt lat="42.8311" lon="2.93167">
        <ele>3.714252</ele>
        <time>2022-08-30T15:39:28.964Z</time>
      </trkpt>
      <trkpt lat="42.83118" lon="2.93055">
        <ele>3.652034</ele>
        <time>2022-08-30T15:39:44.398Z</time>
      </trkpt>
      <trkpt lat="42.8311" lon="2.93001">
        <ele>3.642438</ele>
        <time>2022-08-30T15:39:52.102Z</time>
      </trkpt>
      <trkpt lat="42.83078" lon="2.92953">
        <ele>3.631256</ele>
        <time>2022-08-30T15:40:01.510Z</time>
      </trkpt>
      <trkpt lat="42.83074" lon="2.92938">
        <ele>3.628439</ele>
        <time>2022-08-30T15:40:03.898Z</time>
      </trkpt>
      <trkpt lat="42.83075" lon="2.92874">
        <ele>3.635074</ele>
        <time>2022-08-30T15:40:12.719Z</time>
      </trkpt>
      <trkpt lat="42.83052" lon="2.9276">
        <ele>3.751913</ele>
        <time>2022-08-30T15:40:29.768Z</time>
      </trkpt>
      <trkpt lat="42.83051" lon="2.92752">
        <ele>3.76069</ele>
        <time>2022-08-30T15:40:31.140Z</time>
      </trkpt>
      <trkpt lat="42.83078" lon="2.92691">
        <ele>3.831827</ele>
        <time>2022-08-30T15:40:41.747Z</time>
      </trkpt>
      <trkpt lat="42.83082" lon="2.92683">
        <ele>3.841049</ele>
        <time>2022-08-30T15:40:43.193Z</time>
      </trkpt>
      <trkpt lat="42.83087" lon="2.9267">
        <ele>3.855651</ele>
        <time>2022-08-30T15:40:45.471Z</time>
      </trkpt>
      <trkpt lat="42.83091" lon="2.92664">
        <ele>3.863019</ele>
        <time>2022-08-30T15:40:46.551Z</time>
      </trkpt>
      <trkpt lat="42.83116" lon="2.92607">
        <ele>3.861577</ele>
        <time>2022-08-30T15:40:56.518Z</time>
      </trkpt>
      <trkpt lat="42.83159" lon="2.92531">
        <ele>3.858796</ele>
        <time>2022-08-30T15:41:09.647Z</time>
      </trkpt>
      <trkpt lat="42.83199" lon="2.9244">
        <ele>3.827914</ele>
        <time>2022-08-30T15:41:24.614Z</time>
      </trkpt>
      <trkpt lat="42.83209" lon="2.92448">
        <ele>3.807646</ele>
        <time>2022-08-30T15:41:26.877Z</time>
      </trkpt>
      <trkpt lat="42.8322" lon="2.92428">
        <ele>3.777157</ele>
        <time>2022-08-30T15:41:30.344Z</time>
      </trkpt>
      <trkpt lat="42.83237" lon="2.92363">
        <ele>3.693442</ele>
        <time>2022-08-30T15:41:39.772Z</time>
      </trkpt>
      <trkpt lat="42.83256" lon="2.92341">
        <ele>3.650989</ele>
        <time>2022-08-30T15:41:44.543Z</time>
      </trkpt>
      <trkpt lat="42.83413" lon="2.92264">
        <ele>3.661279</ele>
        <time>2022-08-30T15:42:15.298Z</time>
      </trkpt>
      <trkpt lat="42.83478" lon="2.92241">
        <ele>3.725123</ele>
        <time>2022-08-30T15:42:29.683Z</time>
      </trkpt>
      <trkpt lat="42.83549" lon="2.92228">
        <ele>4.705473</ele>
        <time>2022-08-30T15:42:46.614Z</time>
      </trkpt>
      <trkpt lat="42.83547" lon="2.92223">
        <ele>4.762268</ele>
        <time>2022-08-30T15:42:47.836Z</time>
      </trkpt>
      <trkpt lat="42.83539" lon="2.92194">
        <ele>5.086898</ele>
        <time>2022-08-30T15:42:54.579Z</time>
      </trkpt>
      <trkpt lat="42.83535" lon="2.92171">
        <ele>5.334914</ele>
        <time>2022-08-30T15:42:59.788Z</time>
      </trkpt>
      <trkpt lat="42.83549" lon="2.92157">
        <ele>5.58827</ele>
        <time>2022-08-30T15:43:04.934Z</time>
      </trkpt>
      <trkpt lat="42.83554" lon="2.92151">
        <ele>5.680745</ele>
        <time>2022-08-30T15:43:06.693Z</time>
      </trkpt>
      <trkpt lat="42.83559" lon="2.92142">
        <ele>5.802134</ele>
        <time>2022-08-30T15:43:09.263Z</time>
      </trkpt>
      <trkpt lat="42.83599" lon="2.92077">
        <ele>6.788949</ele>
        <time>2022-08-30T15:43:27.181Z</time>
      </trkpt>
      <trkpt lat="42.83584" lon="2.92039">
        <ele>7.355964</ele>
        <time>2022-08-30T15:43:36.426Z</time>
      </trkpt>
      <trkpt lat="42.83572" lon="2.92004">
        <ele>7.863586</ele>
        <time>2022-08-30T15:43:44.324Z</time>
      </trkpt>
      <trkpt lat="42.83557" lon="2.91961">
        <ele>8.487516</ele>
        <time>2022-08-30T15:43:54.058Z</time>
      </trkpt>
      <trkpt lat="42.83597" lon="2.91985">
        <ele>9.264919</ele>
        <time>2022-08-30T15:44:06.132Z</time>
      </trkpt>
      <trkpt lat="42.83606" lon="2.91987">
        <ele>9.430695</ele>
        <time>2022-08-30T15:44:08.612Z</time>
      </trkpt>
      <trkpt lat="42.8362" lon="2.9198">
        <ele>9.618257</ele>
        <time>2022-08-30T15:44:12.880Z</time>
      </trkpt>
      <trkpt lat="42.83645" lon="2.91988">
        <ele>9.856071</ele>
        <time>2022-08-30T15:44:19.533Z</time>
      </trkpt>
      <trkpt lat="42.83663" lon="2.91979">
        <ele>10.038372</ele>
        <time>2022-08-30T15:44:24.517Z</time>
      </trkpt>
      <trkpt lat="42.83695" lon="2.91955">
        <ele>10.376506</ele>
        <time>2022-08-30T15:44:32.971Z</time>
      </trkpt>
      <trkpt lat="42.83709" lon="2.91942">
        <ele>10.527343</ele>
        <time>2022-08-30T15:44:36.413Z</time>
      </trkpt>
      <trkpt lat="42.83712" lon="2.91939">
        <ele>10.568416</ele>
        <time>2022-08-30T15:44:37.383Z</time>
      </trkpt>
      <trkpt lat="42.8372" lon="2.91926">
        <ele>10.67892</ele>
        <time>2022-08-30T15:44:39.974Z</time>
      </trkpt>
      <trkpt lat="42.83748" lon="2.91892">
        <ele>11.032803</ele>
        <time>2022-08-30T15:44:48.400Z</time>
      </trkpt>
      <trkpt lat="42.83761" lon="2.91851">
        <ele>11.335674</ele>
        <time>2022-08-30T15:44:56.148Z</time>
      </trkpt>
      <trkpt lat="42.8382" lon="2.91892">
        <ele>11.936416</ele>
        <time>2022-08-30T15:45:11.163Z</time>
      </trkpt>
      <trkpt lat="42.83851" lon="2.91888">
        <ele>12.22086</ele>
        <time>2022-08-30T15:45:17.803Z</time>
      </trkpt>
      <trkpt lat="42.83854" lon="2.91875">
        <ele>12.307869</ele>
        <time>2022-08-30T15:45:21.148Z</time>
      </trkpt>
      <trkpt lat="42.83866" lon="2.91811">
        <ele>12.74903</ele>
        <time>2022-08-30T15:45:39.431Z</time>
      </trkpt>
      <trkpt lat="42.83868" lon="2.91741">
        <ele>13.975523</ele>
        <time>2022-08-30T15:46:00.050Z</time>
      </trkpt>
      <trkpt lat="42.83911" lon="2.91707">
        <ele>15.305543</ele>
        <time>2022-08-30T15:46:21.300Z</time>
      </trkpt>
      <trkpt lat="42.83932" lon="2.91679">
        <ele>16.111413</ele>
        <time>2022-08-30T15:46:34.987Z</time>
      </trkpt>
      <trkpt lat="42.83935" lon="2.91666">
        <ele>16.382017</ele>
        <time>2022-08-30T15:46:39.454Z</time>
      </trkpt>
      <trkpt lat="42.83937" lon="2.9165">
        <ele>16.707567</ele>
        <time>2022-08-30T15:46:45.022Z</time>
      </trkpt>
      <trkpt lat="42.83944" lon="2.91623">
        <ele>17.266609</ele>
        <time>2022-08-30T15:46:55.267Z</time>
      </trkpt>
      <trkpt lat="42.83999" lon="2.91551">
        <ele>21.047474</ele>
        <time>2022-08-30T15:47:37.140Z</time>
      </trkpt>
      <trkpt lat="42.83999" lon="2.91554">
        <ele>21.171587</ele>
        <time>2022-08-30T15:47:38.097Z</time>
      </trkpt>
      <trkpt lat="42.84024" lon="2.9155">
        <ele>22.568878</ele>
        <time>2022-08-30T15:47:48.879Z</time>
      </trkpt>
      <trkpt lat="42.84031" lon="2.91547">
        <ele>22.976189</ele>
        <time>2022-08-30T15:47:52.020Z</time>
      </trkpt>
      <trkpt lat="42.84036" lon="2.91544">
        <ele>23.279417</ele>
        <time>2022-08-30T15:47:54.360Z</time>
      </trkpt>
      <trkpt lat="42.84046" lon="2.9155">
        <ele>23.885874</ele>
        <time>2022-08-30T15:47:59.040Z</time>
      </trkpt>
      <trkpt lat="42.84055" lon="2.9154">
        <ele>24.530292</ele>
        <time>2022-08-30T15:48:04.015Z</time>
      </trkpt>
      <trkpt lat="42.84077" lon="2.91516">
        <ele>26.09417</ele>
        <time>2022-08-30T15:48:16.087Z</time>
      </trkpt>
      <trkpt lat="42.84086" lon="2.91529">
        <ele>26.821898</ele>
        <time>2022-08-30T15:48:21.708Z</time>
      </trkpt>
      <trkpt lat="42.84139" lon="2.91502">
        <ele>29.031635</ele>
        <time>2022-08-30T15:48:45.989Z</time>
      </trkpt>
      <trkpt lat="42.84192" lon="2.91474">
        <ele>30.887815</ele>
        <time>2022-08-30T15:49:10.260Z</time>
      </trkpt>
      <trkpt lat="42.84222" lon="2.91458">
        <ele>31.94223</ele>
        <time>2022-08-30T15:49:24.041Z</time>
      </trkpt>
      <trkpt lat="42.8422" lon="2.9146">
        <ele>32.023409</ele>
        <time>2022-08-30T15:49:25.102Z</time>
      </trkpt>
      <trkpt lat="42.84198" lon="2.91519">
        <ele>33.523246</ele>
        <time>2022-08-30T15:49:45.859Z</time>
      </trkpt>
      <trkpt lat="42.84237" lon="2.91565">
        <ele>31.551864</ele>
        <time>2022-08-30T15:50:07.913Z</time>
      </trkpt>
      <trkpt lat="42.84258" lon="2.9156">
        <ele>30.751881</ele>
        <time>2022-08-30T15:50:16.865Z</time>
      </trkpt>
      <trkpt lat="42.84289" lon="2.91584">
        <ele>29.395086</ele>
        <time>2022-08-30T15:50:32.063Z</time>
      </trkpt>
      <trkpt lat="42.84348" lon="2.91603">
        <ele>27.054784</ele>
        <time>2022-08-30T15:50:58.283Z</time>
      </trkpt>
      <trkpt lat="42.84368" lon="2.91659">
        <ele>25.281209</ele>
        <time>2022-08-30T15:51:17.724Z</time>
      </trkpt>
      <trkpt lat="42.84367" lon="2.91682">
        <ele>24.617725</ele>
        <time>2022-08-30T15:51:24.956Z</time>
      </trkpt>
      <trkpt lat="42.84348" lon="2.91702">
        <ele>23.675103</ele>
        <time>2022-08-30T15:51:35.232Z</time>
      </trkpt>
      <trkpt lat="42.84305" lon="2.91725">
        <ele>21.846901</ele>
        <time>2022-08-30T15:51:55.150Z</time>
      </trkpt>
      <trkpt lat="42.84277" lon="2.91742">
        <ele>20.659719</ele>
        <time>2022-08-30T15:52:08.084Z</time>
      </trkpt>
      <trkpt lat="42.84268" lon="2.91771">
        <ele>19.770318</ele>
        <time>2022-08-30T15:52:17.772Z</time>
      </trkpt>
      <trkpt lat="42.8424" lon="2.91852">
        <ele>19.4711</ele>
        <time>2022-08-30T15:52:46.048Z</time>
      </trkpt>
      <trkpt lat="42.84235" lon="2.91866">
        <ele>19.442447</ele>
        <time>2022-08-30T15:52:50.883Z</time>
      </trkpt>
      <trkpt lat="42.84268" lon="2.91887">
        <ele>19.349822</ele>
        <time>2022-08-30T15:52:59.017Z</time>
      </trkpt>
      <trkpt lat="42.84306" lon="2.91858">
        <ele>19.238133</ele>
        <time>2022-08-30T15:53:09.525Z</time>
      </trkpt>
      <trkpt lat="42.84331" lon="2.91847">
        <ele>19.173743</ele>
        <time>2022-08-30T15:53:15.763Z</time>
      </trkpt>
      <trkpt lat="42.84363" lon="2.91845">
        <ele>19.258581</ele>
        <time>2022-08-30T15:53:23.293Z</time>
      </trkpt>
      <trkpt lat="42.84395" lon="2.91854">
        <ele>19.345675</ele>
        <time>2022-08-30T15:53:30.908Z</time>
      </trkpt>
      <trkpt lat="42.84412" lon="2.91872">
        <ele>19.401957</ele>
        <time>2022-08-30T15:53:35.823Z</time>
      </trkpt>
      <trkpt lat="42.84437" lon="2.91926">
        <ele>19.527893</ele>
        <time>2022-08-30T15:53:46.196Z</time>
      </trkpt>
      <trkpt lat="42.84472" lon="2.91976">
        <ele>19.599407</ele>
        <time>2022-08-30T15:53:56.173Z</time>
      </trkpt>
      <trkpt lat="42.84481" lon="2.92033">
        <ele>19.081562</ele>
        <time>2022-08-30T15:54:03.967Z</time>
      </trkpt>
      <trkpt lat="42.84508" lon="2.92107">
        <ele>18.350576</ele>
        <time>2022-08-30T15:54:14.176Z</time>
      </trkpt>
      <trkpt lat="42.84513" lon="2.92105">
        <ele>18.289255</ele>
        <time>2022-08-30T15:54:15.619Z</time>
      </trkpt>
      <trkpt lat="42.84525" lon="2.92205">
        <ele>17.410119</ele>
        <time>2022-08-30T15:54:36.731Z</time>
      </trkpt>
      <trkpt lat="42.84528" lon="2.92222">
        <ele>17.287584</ele>
        <time>2022-08-30T15:54:38.931Z</time>
      </trkpt>
      <trkpt lat="42.84536" lon="2.92296">
        <ele>16.75514</ele>
        <time>2022-08-30T15:54:48.421Z</time>
      </trkpt>
      <trkpt lat="42.84547" lon="2.92293">
        <ele>16.646203</ele>
        <time>2022-08-30T15:54:50.313Z</time>
      </trkpt>
      <trkpt lat="42.84589" lon="2.92281">
        <ele>16.234817</ele>
        <time>2022-08-30T15:54:57.502Z</time>
      </trkpt>
      <trkpt lat="42.84597" lon="2.92279">
        <ele>16.154124</ele>
        <time>2022-08-30T15:54:58.987Z</time>
      </trkpt>
      <trkpt lat="42.84625" lon="2.92331">
        <ele>15.729048</ele>
        <time>2022-08-30T15:55:13.545Z</time>
      </trkpt>
      <trkpt lat="42.84748" lon="2.92392">
        <ele>15.384939</ele>
        <time>2022-08-30T15:55:54.948Z</time>
      </trkpt>
      <trkpt lat="42.84944" lon="2.92548">
        <ele>14.27798</ele>
        <time>2022-08-30T15:57:02.890Z</time>
      </trkpt>
      <trkpt lat="42.84955" lon="2.92557">
        <ele>14.376357</ele>
        <time>2022-08-30T15:57:07.066Z</time>
      </trkpt>
      <trkpt lat="42.84972" lon="2.92572">
        <ele>14.524593</ele>
        <time>2022-08-30T15:57:13.413Z</time>
      </trkpt>
      <trkpt lat="42.85009" lon="2.92601">
        <ele>14.8414</ele>
        <time>2022-08-30T15:57:27.665Z</time>
      </trkpt>
      <trkpt lat="42.851" lon="2.9269">
        <ele>15.801524</ele>
        <time>2022-08-30T15:58:09.916Z</time>
      </trkpt>
      <trkpt lat="42.85143" lon="2.92739">
        <ele>16.895939</ele>
        <time>2022-08-30T15:58:33.951Z</time>
      </trkpt>
      <trkpt lat="42.85161" lon="2.92751">
        <ele>17.302016</ele>
        <time>2022-08-30T15:58:43.604Z</time>
      </trkpt>
      <trkpt lat="42.85155" lon="2.92761">
        <ele>17.489764</ele>
        <time>2022-08-30T15:58:47.716Z</time>
      </trkpt>
      <trkpt lat="42.85183" lon="2.92797">
        <ele>18.233385</ele>
        <time>2022-08-30T15:59:00.298Z</time>
      </trkpt>
      <trkpt lat="42.85264" lon="2.92874">
        <ele>18.900019</ele>
        <time>2022-08-30T15:59:27.418Z</time>
      </trkpt>
      <trkpt lat="42.85283" lon="2.92897">
        <ele>18.789717</ele>
        <time>2022-08-30T15:59:33.018Z</time>
      </trkpt>
      <trkpt lat="42.85285" lon="2.92916">
        <ele>18.727745</ele>
        <time>2022-08-30T15:59:35.387Z</time>
      </trkpt>
      <trkpt lat="42.85283" lon="2.9293">
        <ele>18.68347</ele>
        <time>2022-08-30T15:59:37.844Z</time>
      </trkpt>
      <trkpt lat="42.85268" lon="2.92961">
        <ele>18.563589</ele>
        <time>2022-08-30T15:59:42.469Z</time>
      </trkpt>
      <trkpt lat="42.85229" lon="2.93006">
        <ele>18.312758</ele>
        <time>2022-08-30T15:59:51.170Z</time>
      </trkpt>
      <trkpt lat="42.8522" lon="2.93021">
        <ele>17.98608</ele>
        <time>2022-08-30T15:59:53.133Z</time>
      </trkpt>
      <trkpt lat="42.8509" lon="2.93237">
        <ele>14.047932</ele>
        <time>2022-08-30T16:00:25.818Z</time>
      </trkpt>
      <trkpt lat="42.85087" lon="2.93248">
        <ele>14.034998</ele>
        <time>2022-08-30T16:00:27.637Z</time>
      </trkpt>
      <trkpt lat="42.8509" lon="2.93258">
        <ele>14.022952</ele>
        <time>2022-08-30T16:00:29.408Z</time>
      </trkpt>
      <trkpt lat="42.85138" lon="2.93318">
        <ele>13.924772</ele>
        <time>2022-08-30T16:00:43.434Z</time>
      </trkpt>
      <trkpt lat="42.85175" lon="2.93372">
        <ele>13.843004</ele>
        <time>2022-08-30T16:01:02.760Z</time>
      </trkpt>
      <trkpt lat="42.85178" lon="2.93391">
        <ele>14.058994</ele>
        <time>2022-08-30T16:01:08.308Z</time>
      </trkpt>
      <trkpt lat="42.85177" lon="2.93402">
        <ele>14.226148</ele>
        <time>2022-08-30T16:01:10.844Z</time>
      </trkpt>
      <trkpt lat="42.85185" lon="2.93423">
        <ele>14.586791</ele>
        <time>2022-08-30T16:01:15.235Z</time>
      </trkpt>
      <trkpt lat="42.85214" lon="2.93461">
        <ele>15.43159</ele>
        <time>2022-08-30T16:01:27.211Z</time>
      </trkpt>
      <trkpt lat="42.85247" lon="2.93521">
        <ele>16.556148</ele>
        <time>2022-08-30T16:01:45.632Z</time>
      </trkpt>
      <trkpt lat="42.85275" lon="2.93606">
        <ele>17.811754</ele>
        <time>2022-08-30T16:02:08.472Z</time>
      </trkpt>
      <trkpt lat="42.85279" lon="2.93614">
        <ele>17.903952</ele>
        <time>2022-08-30T16:02:10.885Z</time>
      </trkpt>
      <trkpt lat="42.85305" lon="2.93669">
        <ele>18.47986</ele>
        <time>2022-08-30T16:02:24.548Z</time>
      </trkpt>
      <trkpt lat="42.85349" lon="2.93732">
        <ele>19.261466</ele>
        <time>2022-08-30T16:02:41.135Z</time>
      </trkpt>
      <trkpt lat="42.85354" lon="2.93781">
        <ele>19.696125</ele>
        <time>2022-08-30T16:02:48.459Z</time>
      </trkpt>
      <trkpt lat="42.85367" lon="2.93828">
        <ele>19.467773</ele>
        <time>2022-08-30T16:02:56.086Z</time>
      </trkpt>
      <trkpt lat="42.85384" lon="2.93841">
        <ele>19.290532</ele>
        <time>2022-08-30T16:02:59.638Z</time>
      </trkpt>
      <trkpt lat="42.85413" lon="2.93864">
        <ele>18.974671</ele>
        <time>2022-08-30T16:03:05.701Z</time>
      </trkpt>
      <trkpt lat="42.8542" lon="2.93887">
        <ele>18.804046</ele>
        <time>2022-08-30T16:03:08.885Z</time>
      </trkpt>
      <trkpt lat="42.85408" lon="2.93904">
        <ele>18.645862</ele>
        <time>2022-08-30T16:03:11.828Z</time>
      </trkpt>
      <trkpt lat="42.85422" lon="2.93924">
        <ele>18.453312</ele>
        <time>2022-08-30T16:03:17.635Z</time>
      </trkpt>
      <trkpt lat="42.85426" lon="2.93984">
        <ele>18.069522</ele>
        <time>2022-08-30T16:03:29.722Z</time>
      </trkpt>
      <trkpt lat="42.85456" lon="2.94022">
        <ele>17.886637</ele>
        <time>2022-08-30T16:03:41.507Z</time>
      </trkpt>
      <trkpt lat="42.85479" lon="2.94069">
        <ele>17.700849</ele>
        <time>2022-08-30T16:03:53.782Z</time>
      </trkpt>
      <trkpt lat="42.85486" lon="2.94076">
        <ele>17.66058</ele>
        <time>2022-08-30T16:03:57.273Z</time>
      </trkpt>
      <trkpt lat="42.85506" lon="2.94079">
        <ele>17.56972</ele>
        <time>2022-08-30T16:04:03.969Z</time>
      </trkpt>
      <trkpt lat="42.85521" lon="2.94107">
        <ele>17.458417</ele>
        <time>2022-08-30T16:04:12.783Z</time>
      </trkpt>
      <trkpt lat="42.85522" lon="2.94116">
        <ele>17.428097</ele>
        <time>2022-08-30T16:04:14.903Z</time>
      </trkpt>
      <trkpt lat="42.85499" lon="2.94153">
        <ele>17.297225</ele>
        <time>2022-08-30T16:04:26.380Z</time>
      </trkpt>
      <trkpt lat="42.8549" lon="2.94162">
        <ele>17.327209</ele>
        <time>2022-08-30T16:04:29.668Z</time>
      </trkpt>
      <trkpt lat="42.85494" lon="2.9417">
        <ele>17.346217</ele>
        <time>2022-08-30T16:04:32.604Z</time>
      </trkpt>
      <trkpt lat="42.8551" lon="2.94261">
        <ele>17.53726</ele>
        <time>2022-08-30T16:05:02.097Z</time>
      </trkpt>
      <trkpt lat="42.85504" lon="2.94326">
        <ele>17.671336</ele>
        <time>2022-08-30T16:05:22.795Z</time>
      </trkpt>
      <trkpt lat="42.85492" lon="2.94365">
        <ele>17.757024</ele>
        <time>2022-08-30T16:05:36.023Z</time>
      </trkpt>
      <trkpt lat="42.85478" lon="2.94372">
        <ele>17.852373</ele>
        <time>2022-08-30T16:05:42.107Z</time>
      </trkpt>
      <trkpt lat="42.85498" lon="2.94448">
        <ele>18.748496</ele>
        <time>2022-08-30T16:05:56.107Z</time>
      </trkpt>
      <trkpt lat="42.85546" lon="2.94484">
        <ele>19.584262</ele>
        <time>2022-08-30T16:06:17.615Z</time>
      </trkpt>
      <trkpt lat="42.85578" lon="2.94517">
        <ele>20.193138</ele>
        <time>2022-08-30T16:06:33.744Z</time>
      </trkpt>
      <trkpt lat="42.85575" lon="2.94523">
        <ele>20.273181</ele>
        <time>2022-08-30T16:06:36.005Z</time>
      </trkpt>
      <trkpt lat="42.85641" lon="2.94536">
        <ele>22.706407</ele>
        <time>2022-08-30T16:07:04.497Z</time>
      </trkpt>
      <trkpt lat="42.8567" lon="2.94604">
        <ele>25.203109</ele>
        <time>2022-08-30T16:07:29.119Z</time>
      </trkpt>
      <trkpt lat="42.85714" lon="2.94699">
        <ele>29.192142</ele>
        <time>2022-08-30T16:08:04.622Z</time>
      </trkpt>
      <trkpt lat="42.85792" lon="2.94709">
        <ele>35.408109</ele>
        <time>2022-08-30T16:08:38.357Z</time>
      </trkpt>
      <trkpt lat="42.85784" lon="2.94704">
        <ele>36.096813</ele>
        <time>2022-08-30T16:08:42.073Z</time>
      </trkpt>
      <trkpt lat="42.858" lon="2.94662">
        <ele>38.846971</ele>
        <time>2022-08-30T16:09:03.334Z</time>
      </trkpt>
      <trkpt lat="42.85851" lon="2.94595">
        <ele>43.974718</ele>
        <time>2022-08-30T16:09:47.824Z</time>
      </trkpt>
      <trkpt lat="42.85858" lon="2.94579">
        <ele>44.818527</ele>
        <time>2022-08-30T16:09:56.844Z</time>
      </trkpt>
      <trkpt lat="42.85859" lon="2.94563">
        <ele>45.520462</ele>
        <time>2022-08-30T16:10:04.453Z</time>
      </trkpt>
      <trkpt lat="42.85855" lon="2.94555">
        <ele>45.966716</ele>
        <time>2022-08-30T16:10:09.208Z</time>
      </trkpt>
      <trkpt lat="42.85815" lon="2.94535">
        <ele>48.55089</ele>
        <time>2022-08-30T16:10:32.864Z</time>
      </trkpt>
      <trkpt lat="42.85808" lon="2.94526">
        <ele>49.108009</ele>
        <time>2022-08-30T16:10:36.857Z</time>
      </trkpt>
      <trkpt lat="42.85814" lon="2.94513">
        <ele>49.837331</ele>
        <time>2022-08-30T16:10:41.801Z</time>
      </trkpt>
      <trkpt lat="42.85848" lon="2.94525">
        <ele>51.950732</ele>
        <time>2022-08-30T16:10:56.564Z</time>
      </trkpt>
      <trkpt lat="42.85903" lon="2.9452">
        <ele>54.778367</ele>
        <time>2022-08-30T16:11:14.286Z</time>
      </trkpt>
      <trkpt lat="42.85908" lon="2.94532">
        <ele>55.24725</ele>
        <time>2022-08-30T16:11:16.642Z</time>
      </trkpt>
      <trkpt lat="42.85902" lon="2.94562">
        <ele>56.275356</ele>
        <time>2022-08-30T16:11:26.635Z</time>
      </trkpt>
      <trkpt lat="42.85905" lon="2.94627">
        <ele>58.430167</ele>
        <time>2022-08-30T16:11:48.206Z</time>
      </trkpt>
      <trkpt lat="42.85915" lon="2.94635">
        <ele>58.954498</ele>
        <time>2022-08-30T16:11:55.964Z</time>
      </trkpt>
      <trkpt lat="42.8592" lon="2.94626">
        <ele>59.324379</ele>
        <time>2022-08-30T16:11:59.341Z</time>
      </trkpt>
      <trkpt lat="42.85916" lon="2.94584">
        <ele>60.725196</ele>
        <time>2022-08-30T16:12:12.990Z</time>
      </trkpt>
      <trkpt lat="42.85919" lon="2.94567">
        <ele>61.285928</ele>
        <time>2022-08-30T16:12:17.076Z</time>
      </trkpt>
      <trkpt lat="42.85953" lon="2.94497">
        <ele>65.591661</ele>
        <time>2022-08-30T16:12:46.903Z</time>
      </trkpt>
      <trkpt lat="42.85951" lon="2.94482">
        <ele>66.386986</ele>
        <time>2022-08-30T16:12:51.265Z</time>
      </trkpt>
      <trkpt lat="42.8591" lon="2.94442">
        <ele>70.047556</ele>
        <time>2022-08-30T16:13:21.999Z</time>
      </trkpt>
      <trkpt lat="42.85902" lon="2.94423">
        <ele>71.16654</ele>
        <time>2022-08-30T16:13:30.778Z</time>
      </trkpt>
      <trkpt lat="42.859" lon="2.94406">
        <ele>72.081448</ele>
        <time>2022-08-30T16:13:39.831Z</time>
      </trkpt>
      <trkpt lat="42.85906" lon="2.94375">
        <ele>73.760066</ele>
        <time>2022-08-30T16:13:55.461Z</time>
      </trkpt>
      <trkpt lat="42.8592" lon="2.9436">
        <ele>75.307</ele>
        <time>2022-08-30T16:14:08.076Z</time>
      </trkpt>
      <trkpt lat="42.85943" lon="2.94353">
        <ele>77.615243</ele>
        <time>2022-08-30T16:14:22.262Z</time>
      </trkpt>
      <trkpt lat="42.85959" lon="2.94361">
        <ele>79.36591</ele>
        <time>2022-08-30T16:14:33.768Z</time>
      </trkpt>
      <trkpt lat="42.8603" lon="2.94458">
        <ele>89.234489</ele>
        <time>2022-08-30T16:15:41.290Z</time>
      </trkpt>
      <trkpt lat="42.86047" lon="2.94492">
        <ele>92.357322</ele>
        <time>2022-08-30T16:16:05.351Z</time>
      </trkpt>
      <trkpt lat="42.86077" lon="2.94524">
        <ele>97.269934</ele>
        <time>2022-08-30T16:16:36.533Z</time>
      </trkpt>
      <trkpt lat="42.86094" lon="2.94528">
        <ele>99.505974</ele>
        <time>2022-08-30T16:16:50.747Z</time>
      </trkpt>
      <trkpt lat="42.86155" lon="2.94526">
        <ele>107.574365</ele>
        <time>2022-08-30T16:17:45.938Z</time>
      </trkpt>
      <trkpt lat="42.8625" lon="2.94611">
        <ele>121.58263</ele>
        <time>2022-08-30T16:19:27.209Z</time>
      </trkpt>
      <trkpt lat="42.86295" lon="2.94632">
        <ele>127.032977</ele>
        <time>2022-08-30T16:20:06.946Z</time>
      </trkpt>
      <trkpt lat="42.86309" lon="2.94656">
        <ele>129.545983</ele>
        <time>2022-08-30T16:20:23.018Z</time>
      </trkpt>
      <trkpt lat="42.86332" lon="2.9476">
        <ele>137.165366</ele>
        <time>2022-08-30T16:21:16.971Z</time>
      </trkpt>
      <trkpt lat="42.86323" lon="2.94828">
        <ele>139.381988</ele>
        <time>2022-08-30T16:21:42.601Z</time>
      </trkpt>
      <trkpt lat="42.86325" lon="2.94852">
        <ele>140.126578</ele>
        <time>2022-08-30T16:21:49.278Z</time>
      </trkpt>
      <trkpt lat="42.86343" lon="2.9493">
        <ele>142.745444</ele>
        <time>2022-08-30T16:22:10.288Z</time>
      </trkpt>
      <trkpt lat="42.86374" lon="2.95028">
        <ele>143.944042</ele>
        <time>2022-08-30T16:22:28.423Z</time>
      </trkpt>
      <trkpt lat="42.86404" lon="2.95124">
        <ele>143.702913</ele>
        <time>2022-08-30T16:22:42.201Z</time>
      </trkpt>
      <trkpt lat="42.8641" lon="2.9522">
        <ele>143.520567</ele>
        <time>2022-08-30T16:22:54.814Z</time>
      </trkpt>
      <trkpt lat="42.86417" lon="2.95263">
        <ele>143.510845</ele>
        <time>2022-08-30T16:23:01.551Z</time>
      </trkpt>
      <trkpt lat="42.86437" lon="2.95323">
        <ele>143.496257</ele>
        <time>2022-08-30T16:23:11.101Z</time>
      </trkpt>
      <trkpt lat="42.86449" lon="2.95321">
        <ele>143.492746</ele>
        <time>2022-08-30T16:23:14.834Z</time>
      </trkpt>
      <trkpt lat="42.86458" lon="2.95298">
        <ele>143.486929</ele>
        <time>2022-08-30T16:23:18.344Z</time>
      </trkpt>
      <trkpt lat="42.86465" lon="2.95292">
        <ele>143.484554</ele>
        <time>2022-08-30T16:23:20.214Z</time>
      </trkpt>
      <trkpt lat="42.86476" lon="2.95299">
        <ele>143.480781</ele>
        <time>2022-08-30T16:23:24.227Z</time>
      </trkpt>
      <trkpt lat="42.86504" lon="2.95336">
        <ele>143.377903</ele>
        <time>2022-08-30T16:23:32.403Z</time>
      </trkpt>
      <trkpt lat="42.86509" lon="2.95364">
        <ele>143.050943</ele>
        <time>2022-08-30T16:23:36.153Z</time>
      </trkpt>
      <trkpt lat="42.86522" lon="2.95399">
        <ele>142.594397</ele>
        <time>2022-08-30T16:23:41.798Z</time>
      </trkpt>
      <trkpt lat="42.86539" lon="2.95428">
        <ele>142.170312</ele>
        <time>2022-08-30T16:23:47.574Z</time>
      </trkpt>
      <trkpt lat="42.86547" lon="2.9546">
        <ele>141.772315</ele>
        <time>2022-08-30T16:23:52.176Z</time>
      </trkpt>
      <trkpt lat="42.8655" lon="2.9551">
        <ele>141.199142</ele>
        <time>2022-08-30T16:23:57.903Z</time>
      </trkpt>
      <trkpt lat="42.86617" lon="2.95634">
        <ele>137.399632</ele>
        <time>2022-08-30T16:24:14.377Z</time>
      </trkpt>
      <trkpt lat="42.86647" lon="2.95708">
        <ele>134.804973</ele>
        <time>2022-08-30T16:24:23.163Z</time>
      </trkpt>
      <trkpt lat="42.86675" lon="2.95868">
        <ele>131.314716</ele>
        <time>2022-08-30T16:24:41.423Z</time>
      </trkpt>
      <trkpt lat="42.86681" lon="2.9587">
        <ele>131.182384</ele>
        <time>2022-08-30T16:24:42.400Z</time>
      </trkpt>
      <trkpt lat="42.86697" lon="2.95853">
        <ele>130.734794</ele>
        <time>2022-08-30T16:24:45.729Z</time>
      </trkpt>
      <trkpt lat="42.86713" lon="2.95846">
        <ele>130.362115</ele>
        <time>2022-08-30T16:24:48.612Z</time>
      </trkpt>
      <trkpt lat="42.86728" lon="2.95828">
        <ele>129.917503</ele>
        <time>2022-08-30T16:24:52.107Z</time>
      </trkpt>
      <trkpt lat="42.86787" lon="2.95789">
        <ele>129.173659</ele>
        <time>2022-08-30T16:25:04.517Z</time>
      </trkpt>
      <trkpt lat="42.86807" lon="2.95764">
        <ele>129.233593</ele>
        <time>2022-08-30T16:25:10.265Z</time>
      </trkpt>
      <trkpt lat="42.86829" lon="2.95735">
        <ele>129.302057</ele>
        <time>2022-08-30T16:25:17.337Z</time>
      </trkpt>
      <trkpt lat="42.8687" lon="2.95735">
        <ele>129.391188</ele>
        <time>2022-08-30T16:25:26.551Z</time>
      </trkpt>
      <trkpt lat="42.86897" lon="2.95684">
        <ele>129.49316</ele>
        <time>2022-08-30T16:25:37.073Z</time>
      </trkpt>
      <trkpt lat="42.8693" lon="2.9568">
        <ele>129.777149</ele>
        <time>2022-08-30T16:25:44.428Z</time>
      </trkpt>
      <trkpt lat="42.86944" lon="2.95684">
        <ele>129.930776</ele>
        <time>2022-08-30T16:25:47.977Z</time>
      </trkpt>
      <trkpt lat="42.86973" lon="2.95677">
        <ele>130.220013</ele>
        <time>2022-08-30T16:25:54.793Z</time>
      </trkpt>
      <trkpt lat="42.86991" lon="2.95694">
        <ele>130.447167</ele>
        <time>2022-08-30T16:26:00.548Z</time>
      </trkpt>
      <trkpt lat="42.87014" lon="2.95692">
        <ele>130.674629</ele>
        <time>2022-08-30T16:26:06.561Z</time>
      </trkpt>
      <trkpt lat="42.87045" lon="2.95711">
        <ele>131.019471</ele>
        <time>2022-08-30T16:26:15.612Z</time>
      </trkpt>
      <trkpt lat="42.87062" lon="2.9573">
        <ele>131.24313</ele>
        <time>2022-08-30T16:26:21.438Z</time>
      </trkpt>
      <trkpt lat="42.87088" lon="2.95782">
        <ele>131.841148</ele>
        <time>2022-08-30T16:26:33.714Z</time>
      </trkpt>
      <trkpt lat="42.871" lon="2.95816">
        <ele>132.216329</ele>
        <time>2022-08-30T16:26:41.277Z</time>
      </trkpt>
      <trkpt lat="42.8713" lon="2.9585">
        <ele>132.743154</ele>
        <time>2022-08-30T16:26:51.995Z</time>
      </trkpt>
      <trkpt lat="42.87162" lon="2.95936">
        <ele>133.715408</ele>
        <time>2022-08-30T16:27:11.337Z</time>
      </trkpt>
      <trkpt lat="42.87171" lon="2.95988">
        <ele>134.165859</ele>
        <time>2022-08-30T16:27:21.803Z</time>
      </trkpt>
      <trkpt lat="42.87177" lon="2.96003">
        <ele>134.312351</ele>
        <time>2022-08-30T16:27:25.273Z</time>
      </trkpt>
      <trkpt lat="42.87185" lon="2.96026">
        <ele>134.524217</ele>
        <time>2022-08-30T16:27:29.862Z</time>
      </trkpt>
      <trkpt lat="42.87205" lon="2.96047">
        <ele>134.808571</ele>
        <time>2022-08-30T16:27:39.081Z</time>
      </trkpt>
      <trkpt lat="42.87231" lon="2.96042">
        <ele>135.100791</ele>
        <time>2022-08-30T16:27:48.441Z</time>
      </trkpt>
      <trkpt lat="42.87246" lon="2.96021">
        <ele>135.347515</ele>
        <time>2022-08-30T16:27:56.171Z</time>
      </trkpt>
      <trkpt lat="42.87272" lon="2.96001">
        <ele>135.689822</ele>
        <time>2022-08-30T16:28:07.112Z</time>
      </trkpt>
      <trkpt lat="42.8729" lon="2.96006">
        <ele>135.957531</ele>
        <time>2022-08-30T16:28:13.948Z</time>
      </trkpt>
      <trkpt lat="42.87313" lon="2.95987">
        <ele>136.508874</ele>
        <time>2022-08-30T16:28:24.028Z</time>
      </trkpt>
      <trkpt lat="42.87343" lon="2.95975">
        <ele>137.164817</ele>
        <time>2022-08-30T16:28:37.342Z</time>
      </trkpt>
      <trkpt lat="42.87344" lon="2.95974">
        <ele>137.195068</ele>
        <time>2022-08-30T16:28:37.956Z</time>
      </trkpt>
      <trkpt lat="42.87356" lon="2.95975">
        <ele>137.450321</ele>
        <time>2022-08-30T16:28:43.423Z</time>
      </trkpt>
      <trkpt lat="42.87383" lon="2.95958">
        <ele>138.071913</ele>
        <time>2022-08-30T16:28:56.535Z</time>
      </trkpt>
      <trkpt lat="42.87416" lon="2.95963">
        <ele>138.749715</ele>
        <time>2022-08-30T16:29:10.956Z</time>
      </trkpt>
      <trkpt lat="42.87444" lon="2.95952">
        <ele>139.369268</ele>
        <time>2022-08-30T16:29:23.809Z</time>
      </trkpt>
      <trkpt lat="42.87474" lon="2.9594">
        <ele>140.286427</ele>
        <time>2022-08-30T16:29:37.734Z</time>
      </trkpt>
      <trkpt lat="42.8748" lon="2.95931">
        <ele>140.574353</ele>
        <time>2022-08-30T16:29:41.341Z</time>
      </trkpt>
      <trkpt lat="42.87489" lon="2.95873">
        <ele>142.008611</ele>
        <time>2022-08-30T16:30:00.864Z</time>
      </trkpt>
      <trkpt lat="42.87485" lon="2.95853">
        <ele>142.510319</ele>
        <time>2022-08-30T16:30:08.186Z</time>
      </trkpt>
      <trkpt lat="42.87487" lon="2.95822">
        <ele>143.263793</ele>
        <time>2022-08-30T16:30:19.364Z</time>
      </trkpt>
      <trkpt lat="42.87493" lon="2.95816">
        <ele>143.511367</ele>
        <time>2022-08-30T16:30:23.211Z</time>
      </trkpt>
      <trkpt lat="42.8755" lon="2.95802">
        <ele>145.442028</ele>
        <time>2022-08-30T16:30:54.142Z</time>
      </trkpt>
      <trkpt lat="42.87597" lon="2.95805">
        <ele>147.308516</ele>
        <time>2022-08-30T16:31:17.882Z</time>
      </trkpt>
      <trkpt lat="42.87631" lon="2.95791">
        <ele>148.74617</ele>
        <time>2022-08-30T16:31:36.561Z</time>
      </trkpt>
      <trkpt lat="42.87691" lon="2.95793">
        <ele>151.149306</ele>
        <time>2022-08-30T16:32:08.625Z</time>
      </trkpt>
      <trkpt lat="42.87795" lon="2.95813">
        <ele>154.228699</ele>
        <time>2022-08-30T16:33:01.518Z</time>
      </trkpt>
      <trkpt lat="42.87811" lon="2.95809">
        <ele>154.612464</ele>
        <time>2022-08-30T16:33:08.959Z</time>
      </trkpt>
      <trkpt lat="42.87855" lon="2.95777">
        <ele>155.723226</ele>
        <time>2022-08-30T16:33:29.323Z</time>
      </trkpt>
      <trkpt lat="42.87864" lon="2.95777">
        <ele>155.936684</ele>
        <time>2022-08-30T16:33:32.900Z</time>
      </trkpt>
      <trkpt lat="42.8787" lon="2.95785">
        <ele>156.127122</ele>
        <time>2022-08-30T16:33:35.936Z</time>
      </trkpt>
      <trkpt lat="42.87881" lon="2.95882">
        <ele>156.753768</ele>
        <time>2022-08-30T16:34:00.826Z</time>
      </trkpt>
      <trkpt lat="42.87895" lon="2.95929">
        <ele>156.678967</ele>
        <time>2022-08-30T16:34:12.433Z</time>
      </trkpt>
      <trkpt lat="42.87903" lon="2.95953">
        <ele>156.64083</ele>
        <time>2022-08-30T16:34:18.298Z</time>
      </trkpt>
      <trkpt lat="42.87945" lon="2.96024">
        <ele>156.506019</ele>
        <time>2022-08-30T16:34:38.385Z</time>
      </trkpt>
      <trkpt lat="42.87965" lon="2.96044">
        <ele>156.423339</ele>
        <time>2022-08-30T16:34:45.875Z</time>
      </trkpt>
      <trkpt lat="42.88076" lon="2.96119">
        <ele>155.712683</ele>
        <time>2022-08-30T16:35:22.839Z</time>
      </trkpt>
      <trkpt lat="42.881" lon="2.96133">
        <ele>155.563125</ele>
        <time>2022-08-30T16:35:30.673Z</time>
      </trkpt>
      <trkpt lat="42.88118" lon="2.96135">
        <ele>155.459866</ele>
        <time>2022-08-30T16:35:36.229Z</time>
      </trkpt>
      <trkpt lat="42.88133" lon="2.96129">
        <ele>155.500332</ele>
        <time>2022-08-30T16:35:40.994Z</time>
      </trkpt>
      <trkpt lat="42.88179" lon="2.96084">
        <ele>155.784938</ele>
        <time>2022-08-30T16:35:59.369Z</time>
      </trkpt>
      <trkpt lat="42.88186" lon="2.96082">
        <ele>155.821766</ele>
        <time>2022-08-30T16:36:01.816Z</time>
      </trkpt>
      <trkpt lat="42.88209" lon="2.96086">
        <ele>155.939699</ele>
        <time>2022-08-30T16:36:09.915Z</time>
      </trkpt>
      <trkpt lat="42.88233" lon="2.96105">
        <ele>156.07718</ele>
        <time>2022-08-30T16:36:19.650Z</time>
      </trkpt>
      <trkpt lat="42.88274" lon="2.96099">
        <ele>156.283646</ele>
        <time>2022-08-30T16:36:35.681Z</time>
      </trkpt>
      <trkpt lat="42.88303" lon="2.9604">
        <ele>156.255233</ele>
        <time>2022-08-30T16:36:54.862Z</time>
      </trkpt>
      <trkpt lat="42.88332" lon="2.96005">
        <ele>156.170438</ele>
        <time>2022-08-30T16:37:08.293Z</time>
      </trkpt>
      <trkpt lat="42.88358" lon="2.95986">
        <ele>156.103891</ele>
        <time>2022-08-30T16:37:18.028Z</time>
      </trkpt>
      <trkpt lat="42.88366" lon="2.95975">
        <ele>156.079175</ele>
        <time>2022-08-30T16:37:22.487Z</time>
      </trkpt>
      <trkpt lat="42.88399" lon="2.95984">
        <ele>156.004567</ele>
        <time>2022-08-30T16:37:32.625Z</time>
      </trkpt>
      <trkpt lat="42.88441" lon="2.95975">
        <ele>155.07495</ele>
        <time>2022-08-30T16:37:44.055Z</time>
      </trkpt>
      <trkpt lat="42.8847" lon="2.95985">
        <ele>153.531264</ele>
        <time>2022-08-30T16:37:51.642Z</time>
      </trkpt>
      <trkpt lat="42.88503" lon="2.95986">
        <ele>151.841821</ele>
        <time>2022-08-30T16:37:59.602Z</time>
      </trkpt>
      <trkpt lat="42.88526" lon="2.96017">
        <ele>150.128672</ele>
        <time>2022-08-30T16:38:07.362Z</time>
      </trkpt>
      <trkpt lat="42.88534" lon="2.96026">
        <ele>149.644258</ele>
        <time>2022-08-30T16:38:09.538Z</time>
      </trkpt>
      <trkpt lat="42.88568" lon="2.96001">
        <ele>147.640621</ele>
        <time>2022-08-30T16:38:18.344Z</time>
      </trkpt>
      <trkpt lat="42.88615" lon="2.96001">
        <ele>144.836531</ele>
        <time>2022-08-30T16:38:28.816Z</time>
      </trkpt>
      <trkpt lat="42.88635" lon="2.96004">
        <ele>143.501934</ele>
        <time>2022-08-30T16:38:33.390Z</time>
      </trkpt>
      <trkpt lat="42.88685" lon="2.96038">
        <ele>139.807644</ele>
        <time>2022-08-30T16:38:45.907Z</time>
      </trkpt>
      <trkpt lat="42.88721" lon="2.96047">
        <ele>137.366638</ele>
        <time>2022-08-30T16:38:54.431Z</time>
      </trkpt>
      <trkpt lat="42.88751" lon="2.96065">
        <ele>135.179514</ele>
        <time>2022-08-30T16:39:02.316Z</time>
      </trkpt>
      <trkpt lat="42.88814" lon="2.96069">
        <ele>132.390189</ele>
        <time>2022-08-30T16:39:17.502Z</time>
      </trkpt>
      <trkpt lat="42.88822" lon="2.96074">
        <ele>132.034591</ele>
        <time>2022-08-30T16:39:19.561Z</time>
      </trkpt>
      <trkpt lat="42.88829" lon="2.96154">
        <ele>129.549415</ele>
        <time>2022-08-30T16:39:34.356Z</time>
      </trkpt>
      <trkpt lat="42.88883" lon="2.96219">
        <ele>126.578249</ele>
        <time>2022-08-30T16:39:52.752Z</time>
      </trkpt>
      <trkpt lat="42.88892" lon="2.96262">
        <ele>125.271599</ele>
        <time>2022-08-30T16:40:01.311Z</time>
      </trkpt>
      <trkpt lat="42.8888" lon="2.9629">
        <ele>124.339237</ele>
        <time>2022-08-30T16:40:07.301Z</time>
      </trkpt>
      <trkpt lat="42.8887" lon="2.96335">
        <ele>122.990942</ele>
        <time>2022-08-30T16:40:16.018Z</time>
      </trkpt>
      <trkpt lat="42.88861" lon="2.96351">
        <ele>122.400931</ele>
        <time>2022-08-30T16:40:19.791Z</time>
      </trkpt>
      <trkpt lat="42.88814" lon="2.96376">
        <ele>120.424317</ele>
        <time>2022-08-30T16:40:31.961Z</time>
      </trkpt>
      <trkpt lat="42.88796" lon="2.96397">
        <ele>119.530681</ele>
        <time>2022-08-30T16:40:37.864Z</time>
      </trkpt>
      <trkpt lat="42.88795" lon="2.96398">
        <ele>119.485959</ele>
        <time>2022-08-30T16:40:38.135Z</time>
      </trkpt>
      <trkpt lat="42.88774" lon="2.96457">
        <ele>117.812493</ele>
        <time>2022-08-30T16:40:49.765Z</time>
      </trkpt>
      <trkpt lat="42.88737" lon="2.96527">
        <ele>115.618492</ele>
        <time>2022-08-30T16:41:04.745Z</time>
      </trkpt>
      <trkpt lat="42.8871" lon="2.96554">
        <ele>114.46061</ele>
        <time>2022-08-30T16:41:14.778Z</time>
      </trkpt>
      <trkpt lat="42.88698" lon="2.96599">
        <ele>114.406767</ele>
        <time>2022-08-30T16:41:26.775Z</time>
      </trkpt>
      <trkpt lat="42.8867" lon="2.96637">
        <ele>115.724819</ele>
        <time>2022-08-30T16:41:40.729Z</time>
      </trkpt>
      <trkpt lat="42.88655" lon="2.96682">
        <ele>116.92455</ele>
        <time>2022-08-30T16:41:57.063Z</time>
      </trkpt>
      <trkpt lat="42.8865" lon="2.96702">
        <ele>117.448284</ele>
        <time>2022-08-30T16:42:08.688Z</time>
      </trkpt>
      <trkpt lat="42.88649" lon="2.96744">
        <ele>118.473276</ele>
        <time>2022-08-30T16:42:24.673Z</time>
      </trkpt>
      <trkpt lat="42.88659" lon="2.96783">
        <ele>119.483939</ele>
        <time>2022-08-30T16:42:41.377Z</time>
      </trkpt>
      <trkpt lat="42.8866" lon="2.96804">
        <ele>120.079723</ele>
        <time>2022-08-30T16:42:52.163Z</time>
      </trkpt>
      <trkpt lat="42.88633" lon="2.96856">
        <ele>122.409471</ele>
        <time>2022-08-30T16:43:21.671Z</time>
      </trkpt>
      <trkpt lat="42.88632" lon="2.96868">
        <ele>122.823911</ele>
        <time>2022-08-30T16:43:28.081Z</time>
      </trkpt>
      <trkpt lat="42.88638" lon="2.96873">
        <ele>123.185003</ele>
        <time>2022-08-30T16:43:34.795Z</time>
      </trkpt>
      <trkpt lat="42.88679" lon="2.96869">
        <ele>125.220111</ele>
        <time>2022-08-30T16:43:58.546Z</time>
      </trkpt>
      <trkpt lat="42.88688" lon="2.96878">
        <ele>125.772927</ele>
        <time>2022-08-30T16:44:03.808Z</time>
      </trkpt>
      <trkpt lat="42.88689" lon="2.96886">
        <ele>126.087306</ele>
        <time>2022-08-30T16:44:07.227Z</time>
      </trkpt>
      <trkpt lat="42.8867" lon="2.96914">
        <ele>127.453702</ele>
        <time>2022-08-30T16:44:20.217Z</time>
      </trkpt>
      <trkpt lat="42.88646" lon="2.96999">
        <ele>129.471423</ele>
        <time>2022-08-30T16:44:51.178Z</time>
      </trkpt>
      <trkpt lat="42.88655" lon="2.97008">
        <ele>129.667215</ele>
        <time>2022-08-30T16:44:55.732Z</time>
      </trkpt>
      <trkpt lat="42.88672" lon="2.97001">
        <ele>129.994113</ele>
        <time>2022-08-30T16:45:04.334Z</time>
      </trkpt>
      <trkpt lat="42.88685" lon="2.97008">
        <ele>130.241835</ele>
        <time>2022-08-30T16:45:11.165Z</time>
      </trkpt>
      <trkpt lat="42.88696" lon="2.97028">
        <ele>130.568897</ele>
        <time>2022-08-30T16:45:20.999Z</time>
      </trkpt>
      <trkpt lat="42.88699" lon="2.97064">
        <ele>131.054569</ele>
        <time>2022-08-30T16:45:32.897Z</time>
      </trkpt>
      <trkpt lat="42.88707" lon="2.97095">
        <ele>131.494301</ele>
        <time>2022-08-30T16:45:41.252Z</time>
      </trkpt>
      <trkpt lat="42.88726" lon="2.97117">
        <ele>131.940549</ele>
        <time>2022-08-30T16:45:49.680Z</time>
      </trkpt>
      <trkpt lat="42.88749" lon="2.97119">
        <ele>131.111527</ele>
        <time>2022-08-30T16:45:55.379Z</time>
      </trkpt>
      <trkpt lat="42.88793" lon="2.97098">
        <ele>129.143586</ele>
        <time>2022-08-30T16:46:07.558Z</time>
      </trkpt>
      <trkpt lat="42.88799" lon="2.97108">
        <ele>128.718188</ele>
        <time>2022-08-30T16:46:09.907Z</time>
      </trkpt>
      <trkpt lat="42.88805" lon="2.97148">
        <ele>127.440106</ele>
        <time>2022-08-30T16:46:17.492Z</time>
      </trkpt>
      <trkpt lat="42.888" lon="2.97167">
        <ele>126.80881</ele>
        <time>2022-08-30T16:46:20.727Z</time>
      </trkpt>
      <trkpt lat="42.888" lon="2.97197">
        <ele>125.868654</ele>
        <time>2022-08-30T16:46:26.405Z</time>
      </trkpt>
      <trkpt lat="42.88765" lon="2.97253">
        <ele>123.282723</ele>
        <time>2022-08-30T16:46:38.793Z</time>
      </trkpt>
      <trkpt lat="42.88755" lon="2.97277">
        <ele>122.130969</ele>
        <time>2022-08-30T16:46:43.482Z</time>
      </trkpt>
      <trkpt lat="42.8875" lon="2.97308">
        <ele>120.777437</ele>
        <time>2022-08-30T16:46:48.583Z</time>
      </trkpt>
      <trkpt lat="42.88726" lon="2.97335">
        <ele>118.940974</ele>
        <time>2022-08-30T16:46:55.602Z</time>
      </trkpt>
      <trkpt lat="42.88706" lon="2.97344">
        <ele>117.697806</ele>
        <time>2022-08-30T16:47:00.668Z</time>
      </trkpt>
      <trkpt lat="42.88703" lon="2.97361">
        <ele>116.978941</ele>
        <time>2022-08-30T16:47:03.619Z</time>
      </trkpt>
      <trkpt lat="42.88744" lon="2.97393">
        <ele>114.198448</ele>
        <time>2022-08-30T16:47:15.722Z</time>
      </trkpt>
      <trkpt lat="42.88781" lon="2.97398">
        <ele>112.322808</ele>
        <time>2022-08-30T16:47:24.852Z</time>
      </trkpt>
      <trkpt lat="42.88796" lon="2.97395">
        <ele>111.586025</ele>
        <time>2022-08-30T16:47:28.453Z</time>
      </trkpt>
      <trkpt lat="42.8881" lon="2.97403">
        <ele>110.827167</ele>
        <time>2022-08-30T16:47:32.449Z</time>
      </trkpt>
      <trkpt lat="42.88838" lon="2.97384">
        <ele>109.316672</ele>
        <time>2022-08-30T16:47:39.967Z</time>
      </trkpt>
      <trkpt lat="42.88865" lon="2.97395">
        <ele>107.957386</ele>
        <time>2022-08-30T16:47:46.719Z</time>
      </trkpt>
      <trkpt lat="42.88911" lon="2.97402">
        <ele>105.675023</ele>
        <time>2022-08-30T16:47:58.196Z</time>
      </trkpt>
      <trkpt lat="42.88917" lon="2.97409">
        <ele>105.294786</ele>
        <time>2022-08-30T16:47:59.829Z</time>
      </trkpt>
      <trkpt lat="42.8892" lon="2.97412">
        <ele>105.133008</ele>
        <time>2022-08-30T16:48:00.655Z</time>
      </trkpt>
      <trkpt lat="42.88926" lon="2.97418">
        <ele>104.64681</ele>
        <time>2022-08-30T16:48:02.436Z</time>
      </trkpt>
      <trkpt lat="42.8895" lon="2.97486">
        <ele>101.0867</ele>
        <time>2022-08-30T16:48:15.232Z</time>
      </trkpt>
      <trkpt lat="42.88968" lon="2.97512">
        <ele>99.432473</ele>
        <time>2022-08-30T16:48:20.974Z</time>
      </trkpt>
      <trkpt lat="42.89084" lon="2.97635">
        <ele>90.460897</ele>
        <time>2022-08-30T16:48:55.015Z</time>
      </trkpt>
      <trkpt lat="42.89129" lon="2.97699">
        <ele>86.905125</ele>
        <time>2022-08-30T16:49:10.392Z</time>
      </trkpt>
      <trkpt lat="42.89162" lon="2.97826">
        <ele>81.600428</ele>
        <time>2022-08-30T16:49:34.701Z</time>
      </trkpt>
      <trkpt lat="42.89242" lon="2.97996">
        <ele>73.605208</ele>
        <time>2022-08-30T16:50:10.237Z</time>
      </trkpt>
      <trkpt lat="42.89253" lon="2.98071">
        <ele>68.646025</ele>
        <time>2022-08-30T16:50:22.581Z</time>
      </trkpt>
      <trkpt lat="42.89262" lon="2.98095">
        <ele>66.839626</ele>
        <time>2022-08-30T16:50:26.923Z</time>
      </trkpt>
      <trkpt lat="42.89251" lon="2.98159">
        <ele>62.597746</ele>
        <time>2022-08-30T16:50:33.048Z</time>
      </trkpt>
      <trkpt lat="42.89266" lon="2.98267">
        <ele>55.762902</ele>
        <time>2022-08-30T16:50:43.415Z</time>
      </trkpt>
      <trkpt lat="42.89276" lon="2.98299">
        <ele>53.757575</ele>
        <time>2022-08-30T16:50:46.627Z</time>
      </trkpt>
      <trkpt lat="42.89342" lon="2.98371">
        <ele>47.151641</ele>
        <time>2022-08-30T16:50:57.612Z</time>
      </trkpt>
      <trkpt lat="42.89352" lon="2.98397">
        <ele>45.434945</ele>
        <time>2022-08-30T16:51:00.619Z</time>
      </trkpt>
      <trkpt lat="42.89362" lon="2.98408">
        <ele>44.469554</ele>
        <time>2022-08-30T16:51:02.352Z</time>
      </trkpt>
      <trkpt lat="42.89393" lon="2.98413">
        <ele>42.874252</ele>
        <time>2022-08-30T16:51:06.915Z</time>
      </trkpt>
      <trkpt lat="42.89393" lon="2.98449">
        <ele>41.648941</ele>
        <time>2022-08-30T16:51:10.959Z</time>
      </trkpt>
      <trkpt lat="42.89423" lon="2.98491">
        <ele>39.691251</ele>
        <time>2022-08-30T16:51:19.176Z</time>
      </trkpt>
      <trkpt lat="42.89434" lon="2.98483">
        <ele>39.099909</ele>
        <time>2022-08-30T16:51:21.594Z</time>
      </trkpt>
      <trkpt lat="42.89443" lon="2.98474">
        <ele>38.613167</ele>
        <time>2022-08-30T16:51:23.586Z</time>
      </trkpt>
      <trkpt lat="42.89446" lon="2.9847">
        <ele>38.4005</ele>
        <time>2022-08-30T16:51:24.443Z</time>
      </trkpt>
      <trkpt lat="42.89443" lon="2.98463">
        <ele>38.115859</ele>
        <time>2022-08-30T16:51:25.589Z</time>
      </trkpt>
      <trkpt lat="42.89448" lon="2.98459">
        <ele>37.884216</ele>
        <time>2022-08-30T16:51:26.510Z</time>
      </trkpt>
      <trkpt lat="42.89451" lon="2.98472">
        <ele>37.431931</ele>
        <time>2022-08-30T16:51:28.268Z</time>
      </trkpt>
      <trkpt lat="42.89461" lon="2.98465">
        <ele>36.941355</ele>
        <time>2022-08-30T16:51:30.245Z</time>
      </trkpt>
      <trkpt lat="42.89482" lon="2.98453">
        <ele>35.882693</ele>
        <time>2022-08-30T16:51:34.556Z</time>
      </trkpt>
      <trkpt lat="42.89495" lon="2.98492">
        <ele>34.411928</ele>
        <time>2022-08-30T16:51:38.800Z</time>
      </trkpt>
      <trkpt lat="42.89496" lon="2.98495">
        <ele>34.287283</ele>
        <time>2022-08-30T16:51:39.160Z</time>
      </trkpt>
      <trkpt lat="42.89528" lon="2.98548">
        <ele>31.89879</ele>
        <time>2022-08-30T16:51:46.132Z</time>
      </trkpt>
      <trkpt lat="42.8954" lon="2.98569">
        <ele>30.956915</ele>
        <time>2022-08-30T16:51:48.788Z</time>
      </trkpt>
      <trkpt lat="42.8955" lon="2.98573">
        <ele>30.475283</ele>
        <time>2022-08-30T16:51:50.212Z</time>
      </trkpt>
      <trkpt lat="42.89579" lon="2.9863">
        <ele>28.094114</ele>
        <time>2022-08-30T16:51:57.351Z</time>
      </trkpt>
      <trkpt lat="42.8958" lon="2.9864">
        <ele>27.754475</ele>
        <time>2022-08-30T16:51:58.336Z</time>
      </trkpt>
      <trkpt lat="42.89583" lon="2.98642">
        <ele>27.593966</ele>
        <time>2022-08-30T16:51:58.833Z</time>
      </trkpt>
      <trkpt lat="42.89588" lon="2.98645">
        <ele>27.316341</ele>
        <time>2022-08-30T16:51:59.681Z</time>
      </trkpt>
      <trkpt lat="42.89626" lon="2.98661">
        <ele>25.649494</ele>
        <time>2022-08-30T16:52:05.359Z</time>
      </trkpt>
      <trkpt lat="42.89671" lon="2.98678">
        <ele>23.716087</ele>
        <time>2022-08-30T16:52:11.997Z</time>
      </trkpt>
      <trkpt lat="42.8974" lon="2.98728">
        <ele>20.467204</ele>
        <time>2022-08-30T16:52:23.548Z</time>
      </trkpt>
      <trkpt lat="42.89782" lon="2.9877">
        <ele>19.789438</ele>
        <time>2022-08-30T16:52:31.418Z</time>
      </trkpt>
      <trkpt lat="42.8985" lon="2.98848">
        <ele>19.633146</ele>
        <time>2022-08-30T16:52:48.627Z</time>
      </trkpt>
      <trkpt lat="42.8987" lon="2.98889">
        <ele>19.568937</ele>
        <time>2022-08-30T16:52:58.992Z</time>
      </trkpt>
      <trkpt lat="42.89908" lon="2.9895">
        <ele>21.757862</ele>
        <time>2022-08-30T16:53:20.040Z</time>
      </trkpt>
      <trkpt lat="42.89952" lon="2.98916">
        <ele>24.457237</ele>
        <time>2022-08-30T16:53:42.538Z</time>
      </trkpt>
      <trkpt lat="42.89978" lon="2.98884">
        <ele>26.336398</ele>
        <time>2022-08-30T16:54:00.403Z</time>
      </trkpt>
      <trkpt lat="42.90003" lon="2.98846">
        <ele>28.357973</ele>
        <time>2022-08-30T16:54:21.892Z</time>
      </trkpt>
      <trkpt lat="42.90056" lon="2.98749">
        <ele>34.622088</ele>
        <time>2022-08-30T16:55:15.285Z</time>
      </trkpt>
      <trkpt lat="42.90067" lon="2.98741">
        <ele>35.503234</ele>
        <time>2022-08-30T16:55:22.862Z</time>
      </trkpt>
      <trkpt lat="42.90129" lon="2.98742">
        <ele>40.078094</ele>
        <time>2022-08-30T16:55:56.069Z</time>
      </trkpt>
      <trkpt lat="42.90141" lon="2.9874">
        <ele>40.931336</ele>
        <time>2022-08-30T16:56:04.010Z</time>
      </trkpt>
      <trkpt lat="42.90204" lon="2.98724">
        <ele>44.853413</ele>
        <time>2022-08-30T16:56:39.076Z</time>
      </trkpt>
      <trkpt lat="42.90227" lon="2.987">
        <ele>46.460556</ele>
        <time>2022-08-30T16:56:54.278Z</time>
      </trkpt>
      <trkpt lat="42.90251" lon="2.9864">
        <ele>49.228499</ele>
        <time>2022-08-30T16:57:19.755Z</time>
      </trkpt>
      <trkpt lat="42.90253" lon="2.9863">
        <ele>49.660502</ele>
        <time>2022-08-30T16:57:23.545Z</time>
      </trkpt>
      <trkpt lat="42.90286" lon="2.98596">
        <ele>51.923959</ele>
        <time>2022-08-30T16:57:39.930Z</time>
      </trkpt>
      <trkpt lat="42.90295" lon="2.9856">
        <ele>52.609091</ele>
        <time>2022-08-30T16:57:49.869Z</time>
      </trkpt>
      <trkpt lat="42.90305" lon="2.98524">
        <ele>52.984527</ele>
        <time>2022-08-30T16:57:58.571Z</time>
      </trkpt>
      <trkpt lat="42.90354" lon="2.98433">
        <ele>54.074462</ele>
        <time>2022-08-30T16:58:21.028Z</time>
      </trkpt>
      <trkpt lat="42.90385" lon="2.9838">
        <ele>54.702259</ele>
        <time>2022-08-30T16:58:30.798Z</time>
      </trkpt>
      <trkpt lat="42.90452" lon="2.98343">
        <ele>53.31021</ele>
        <time>2022-08-30T16:58:43.239Z</time>
      </trkpt>
      <trkpt lat="42.90453" lon="2.98332">
        <ele>53.146463</ele>
        <time>2022-08-30T16:58:44.599Z</time>
      </trkpt>
      <trkpt lat="42.90443" lon="2.98305">
        <ele>52.72879</ele>
        <time>2022-08-30T16:58:48.005Z</time>
      </trkpt>
      <trkpt lat="42.90444" lon="2.98294">
        <ele>52.564194</ele>
        <time>2022-08-30T16:58:49.329Z</time>
      </trkpt>
      <trkpt lat="42.90481" lon="2.98254">
        <ele>51.66227</ele>
        <time>2022-08-30T16:58:56.678Z</time>
      </trkpt>
      <trkpt lat="42.90523" lon="2.98224">
        <ele>50.782979</ele>
        <time>2022-08-30T16:59:04.227Z</time>
      </trkpt>
      <trkpt lat="42.9053" lon="2.98212">
        <ele>50.574012</ele>
        <time>2022-08-30T16:59:06.109Z</time>
      </trkpt>
      <trkpt lat="42.90534" lon="2.98189">
        <ele>50.26067</ele>
        <time>2022-08-30T16:59:08.900Z</time>
      </trkpt>
      <trkpt lat="42.9054" lon="2.98182">
        <ele>50.115667</ele>
        <time>2022-08-30T16:59:10.178Z</time>
      </trkpt>
      <trkpt lat="42.90637" lon="2.98179">
        <ele>48.383097</ele>
        <time>2022-08-30T16:59:26.285Z</time>
      </trkpt>
      <trkpt lat="42.90664" lon="2.98196">
        <ele>48.01098</ele>
        <time>2022-08-30T16:59:31.801Z</time>
      </trkpt>
      <trkpt lat="42.90697" lon="2.98233">
        <ele>47.947064</ele>
        <time>2022-08-30T16:59:40.239Z</time>
      </trkpt>
      <trkpt lat="42.9072" lon="2.98243">
        <ele>47.909008</ele>
        <time>2022-08-30T16:59:45.920Z</time>
      </trkpt>
      <trkpt lat="42.90769" lon="2.98249">
        <ele>47.834314</ele>
        <time>2022-08-30T16:59:57.668Z</time>
      </trkpt>
      <trkpt lat="42.90842" lon="2.98225">
        <ele>47.459831</ele>
        <time>2022-08-30T17:00:11.941Z</time>
      </trkpt>
      <trkpt lat="42.90895" lon="2.98162">
        <ele>46.483948</ele>
        <time>2022-08-30T17:00:24.398Z</time>
      </trkpt>
      <trkpt lat="42.90934" lon="2.98179">
        <ele>45.921235</ele>
        <time>2022-08-30T17:00:31.163Z</time>
      </trkpt>
      <trkpt lat="42.9098" lon="2.98212">
        <ele>45.245038</ele>
        <time>2022-08-30T17:00:39.676Z</time>
      </trkpt>
      <trkpt lat="42.91062" lon="2.9826">
        <ele>44.756982</ele>
        <time>2022-08-30T17:00:54.379Z</time>
      </trkpt>
      <trkpt lat="42.91108" lon="2.98243">
        <ele>44.494023</ele>
        <time>2022-08-30T17:01:04.985Z</time>
      </trkpt>
      <trkpt lat="42.91178" lon="2.98245">
        <ele>44.713535</ele>
        <time>2022-08-30T17:01:24.104Z</time>
      </trkpt>
      <trkpt lat="42.91204" lon="2.98247">
        <ele>45.06544</ele>
        <time>2022-08-30T17:01:31.816Z</time>
      </trkpt>
      <trkpt lat="42.91228" lon="2.98264">
        <ele>45.432357</ele>
        <time>2022-08-30T17:01:39.967Z</time>
      </trkpt>
      <trkpt lat="42.91254" lon="2.98245">
        <ele>45.84006</ele>
        <time>2022-08-30T17:01:48.671Z</time>
      </trkpt>
      <trkpt lat="42.91341" lon="2.98257">
        <ele>46.435416</ele>
        <time>2022-08-30T17:02:11.109Z</time>
      </trkpt>
      <trkpt lat="42.91388" lon="2.98287">
        <ele>45.694959</ele>
        <time>2022-08-30T17:02:21.356Z</time>
      </trkpt>
      <trkpt lat="42.91398" lon="2.9832">
        <ele>45.332798</ele>
        <time>2022-08-30T17:02:25.836Z</time>
      </trkpt>
      <trkpt lat="42.91401" lon="2.98331">
        <ele>45.206375</ele>
        <time>2022-08-30T17:02:27.216Z</time>
      </trkpt>
      <trkpt lat="42.91425" lon="2.98356">
        <ele>44.776281</ele>
        <time>2022-08-30T17:02:32.035Z</time>
      </trkpt>
      <trkpt lat="42.91519" lon="2.98369">
        <ele>42.328482</ele>
        <time>2022-08-30T17:02:46.199Z</time>
      </trkpt>
      <trkpt lat="42.91563" lon="2.98369">
        <ele>40.742861</ele>
        <time>2022-08-30T17:02:52.987Z</time>
      </trkpt>
      <trkpt lat="42.91619" lon="2.98387">
        <ele>38.706659</ele>
        <time>2022-08-30T17:03:01.680Z</time>
      </trkpt>
      <trkpt lat="42.91636" lon="2.98387">
        <ele>38.129725</ele>
        <time>2022-08-30T17:03:04.102Z</time>
      </trkpt>
      <trkpt lat="42.91678" lon="2.98363">
        <ele>36.415992</ele>
        <time>2022-08-30T17:03:10.783Z</time>
      </trkpt>
      <trkpt lat="42.91688" lon="2.98362">
        <ele>36.000382</ele>
        <time>2022-08-30T17:03:12.360Z</time>
      </trkpt>
      <trkpt lat="42.91704" lon="2.98373">
        <ele>35.322349</ele>
        <time>2022-08-30T17:03:14.966Z</time>
      </trkpt>
      <trkpt lat="42.91711" lon="2.98387">
        <ele>34.871704</ele>
        <time>2022-08-30T17:03:16.734Z</time>
      </trkpt>
      <trkpt lat="42.91745" lon="2.9844">
        <ele>32.874154</ele>
        <time>2022-08-30T17:03:24.601Z</time>
      </trkpt>
      <trkpt lat="42.91774" lon="2.98469">
        <ele>31.531787</ele>
        <time>2022-08-30T17:03:29.928Z</time>
      </trkpt>
      <trkpt lat="42.9181" lon="2.98481">
        <ele>30.148824</ele>
        <time>2022-08-30T17:03:35.520Z</time>
      </trkpt>
      <trkpt lat="42.91822" lon="2.98492">
        <ele>29.639904</ele>
        <time>2022-08-30T17:03:37.602Z</time>
      </trkpt>
      <trkpt lat="42.91909" lon="2.98592">
        <ele>25.564551</ele>
        <time>2022-08-30T17:03:54.415Z</time>
      </trkpt>
      <trkpt lat="42.91949" lon="2.98626">
        <ele>24.142249</ele>
        <time>2022-08-30T17:04:01.890Z</time>
      </trkpt>
      <trkpt lat="42.91976" lon="2.98647">
        <ele>23.490528</ele>
        <time>2022-08-30T17:04:06.852Z</time>
      </trkpt>
      <trkpt lat="42.92045" lon="2.98673">
        <ele>21.993435</ele>
        <time>2022-08-30T17:04:18.499Z</time>
      </trkpt>
      <trkpt lat="42.92078" lon="2.98715">
        <ele>21.035572</ele>
        <time>2022-08-30T17:04:26.076Z</time>
      </trkpt>
      <trkpt lat="42.9208" lon="2.98718">
        <ele>20.973046</ele>
        <time>2022-08-30T17:04:26.591Z</time>
      </trkpt>
      <trkpt lat="42.92083" lon="2.9872">
        <ele>20.911052</ele>
        <time>2022-08-30T17:04:27.096Z</time>
      </trkpt>
      <trkpt lat="42.92094" lon="2.98728">
        <ele>20.689732</ele>
        <time>2022-08-30T17:04:29.326Z</time>
      </trkpt>
      <trkpt lat="42.92158" lon="2.98736">
        <ele>20.002613</ele>
        <time>2022-08-30T17:04:40.668Z</time>
      </trkpt>
      <trkpt lat="42.92177" lon="2.98736">
        <ele>19.791754</ele>
        <time>2022-08-30T17:04:44.171Z</time>
      </trkpt>
      <trkpt lat="42.92204" lon="2.98726">
        <ele>19.496336</ele>
        <time>2022-08-30T17:04:48.887Z</time>
      </trkpt>
      <trkpt lat="42.92219" lon="2.98731">
        <ele>19.3271</ele>
        <time>2022-08-30T17:04:51.796Z</time>
      </trkpt>
      <trkpt lat="42.92229" lon="2.98748">
        <ele>19.151163</ele>
        <time>2022-08-30T17:04:54.607Z</time>
      </trkpt>
      <trkpt lat="42.92268" lon="2.98848">
        <ele>18.362936</ele>
        <time>2022-08-30T17:05:09.918Z</time>
      </trkpt>
      <trkpt lat="42.92309" lon="2.98908">
        <ele>17.833867</ele>
        <time>2022-08-30T17:05:21.239Z</time>
      </trkpt>
      <trkpt lat="42.92326" lon="2.98948">
        <ele>17.5386</ele>
        <time>2022-08-30T17:05:27.331Z</time>
      </trkpt>
      <trkpt lat="42.9236" lon="2.98996">
        <ele>17.034987</ele>
        <time>2022-08-30T17:05:35.982Z</time>
      </trkpt>
      <trkpt lat="42.92381" lon="2.99048">
        <ele>16.40032</ele>
        <time>2022-08-30T17:05:43.490Z</time>
      </trkpt>
      <trkpt lat="42.92407" lon="2.99072">
        <ele>15.945601</ele>
        <time>2022-08-30T17:05:48.793Z</time>
      </trkpt>
      <trkpt lat="42.92431" lon="2.99097">
        <ele>15.508667</ele>
        <time>2022-08-30T17:05:53.923Z</time>
      </trkpt>
      <trkpt lat="42.92457" lon="2.99167">
        <ele>14.681976</ele>
        <time>2022-08-30T17:06:03.668Z</time>
      </trkpt>
      <trkpt lat="42.92462" lon="2.99198">
        <ele>14.356491</ele>
        <time>2022-08-30T17:06:07.610Z</time>
      </trkpt>
      <trkpt lat="42.92502" lon="2.99268">
        <ele>13.472238</ele>
        <time>2022-08-30T17:06:18.617Z</time>
      </trkpt>
      <trkpt lat="42.92484" lon="2.99338">
        <ele>12.734158</ele>
        <time>2022-08-30T17:06:28.104Z</time>
      </trkpt>
      <trkpt lat="42.92483" lon="2.99366">
        <ele>12.455356</ele>
        <time>2022-08-30T17:06:31.624Z</time>
      </trkpt>
      <trkpt lat="42.92491" lon="2.99386">
        <ele>12.224924</ele>
        <time>2022-08-30T17:06:34.594Z</time>
      </trkpt>
      <trkpt lat="42.92491" lon="2.99411">
        <ele>12.029448</ele>
        <time>2022-08-30T17:06:37.918Z</time>
      </trkpt>
      <trkpt lat="42.9248" lon="2.99467">
        <ele>11.599782</ele>
        <time>2022-08-30T17:06:45.625Z</time>
      </trkpt>
      <trkpt lat="42.92432" lon="2.99482">
        <ele>11.103846</ele>
        <time>2022-08-30T17:06:53.987Z</time>
      </trkpt>
      <trkpt lat="42.9244" lon="2.99493">
        <ele>10.993496</ele>
        <time>2022-08-30T17:06:56.007Z</time>
      </trkpt>
      <trkpt lat="42.92616" lon="2.99669">
        <ele>8.862406</ele>
        <time>2022-08-30T17:07:35.066Z</time>
      </trkpt>
      <trkpt lat="42.92665" lon="2.9972">
        <ele>8.361546</ele>
        <time>2022-08-30T17:07:46.231Z</time>
      </trkpt>
      <trkpt lat="42.92674" lon="2.99724">
        <ele>8.296466</ele>
        <time>2022-08-30T17:07:48.944Z</time>
      </trkpt>
      <trkpt lat="42.93053" lon="3.00106">
        <ele>4.743795</ele>
        <time>2022-08-30T17:09:16.232Z</time>
      </trkpt>
      <trkpt lat="42.92976" lon="3.00355">
        <ele>1.921048</ele>
        <time>2022-08-30T17:09:47.990Z</time>
      </trkpt>
      <trkpt lat="42.92956" lon="3.00439">
        <ele>1.035178</ele>
        <time>2022-08-30T17:09:58.231Z</time>
      </trkpt>
      <trkpt lat="42.92945" lon="3.00556">
        <ele>-0.144448</ele>
        <time>2022-08-30T17:10:12.897Z</time>
      </trkpt>
      <trkpt lat="42.92941" lon="3.00635">
        <ele>-0.355731</ele>
        <time>2022-08-30T17:10:23.574Z</time>
      </trkpt>
      <trkpt lat="42.9293" lon="3.00713">
        <ele>0.191995</ele>
        <time>2022-08-30T17:10:35.668Z</time>
      </trkpt>
      <trkpt lat="42.92859" lon="3.01002">
        <ele>2.188708</ele>
        <time>2022-08-30T17:11:30.209Z</time>
      </trkpt>
      <trkpt lat="42.9285" lon="3.01038">
        <ele>2.427497</ele>
        <time>2022-08-30T17:11:36.127Z</time>
      </trkpt>
      <trkpt lat="42.92834" lon="3.01105">
        <ele>2.87036</ele>
        <time>2022-08-30T17:11:46.813Z</time>
      </trkpt>
      <trkpt lat="42.92801" lon="3.0123">
        <ele>3.705653</ele>
        <time>2022-08-30T17:12:09.568Z</time>
      </trkpt>
      <trkpt lat="42.92796" lon="3.01248">
        <ele>3.82678</ele>
        <time>2022-08-30T17:12:12.755Z</time>
      </trkpt>
      <trkpt lat="42.92768" lon="3.0131">
        <ele>4.381965</ele>
        <time>2022-08-30T17:12:26.298Z</time>
      </trkpt>
      <trkpt lat="42.9274" lon="3.0135">
        <ele>5.056272</ele>
        <time>2022-08-30T17:12:36.818Z</time>
      </trkpt>
      <trkpt lat="42.92712" lon="3.01371">
        <ele>5.600507</ele>
        <time>2022-08-30T17:12:45.165Z</time>
      </trkpt>
      <trkpt lat="42.92641" lon="3.01386">
        <ele>6.809824</ele>
        <time>2022-08-30T17:13:05.020Z</time>
      </trkpt>
      <trkpt lat="42.92558" lon="3.01396">
        <ele>9.868572</ele>
        <time>2022-08-30T17:13:30.944Z</time>
      </trkpt>
      <trkpt lat="42.92498" lon="3.01412">
        <ele>12.638982</ele>
        <time>2022-08-30T17:13:54.972Z</time>
      </trkpt>
      <trkpt lat="42.92503" lon="3.01449">
        <ele>13.889005</ele>
        <time>2022-08-30T17:14:12.887Z</time>
      </trkpt>
      <trkpt lat="42.92491" lon="3.01496">
        <ele>15.74035</ele>
        <time>2022-08-30T17:14:36.974Z</time>
      </trkpt>
      <trkpt lat="42.92498" lon="3.01564">
        <ele>19.946549</ele>
        <time>2022-08-30T17:15:13.270Z</time>
      </trkpt>
      <trkpt lat="42.92498" lon="3.01585">
        <ele>21.208697</ele>
        <time>2022-08-30T17:15:26.073Z</time>
      </trkpt>
      <trkpt lat="42.9248" lon="3.01603">
        <ele>23.026785</ele>
        <time>2022-08-30T17:15:42.194Z</time>
      </trkpt>
      <trkpt lat="42.92463" lon="3.01606">
        <ele>24.526642</ele>
        <time>2022-08-30T17:15:57.699Z</time>
      </trkpt>
      <trkpt lat="42.92437" lon="3.01602">
        <ele>26.639928</ele>
        <time>2022-08-30T17:16:16.385Z</time>
      </trkpt>
      <trkpt lat="42.92427" lon="3.01613">
        <ele>27.733398</ele>
        <time>2022-08-30T17:16:26.882Z</time>
      </trkpt>
      <trkpt lat="42.92411" lon="3.01626">
        <ele>29.342886</ele>
        <time>2022-08-30T17:16:40.472Z</time>
      </trkpt>
      <trkpt lat="42.9241" lon="3.01629">
        <ele>29.547716</ele>
        <time>2022-08-30T17:16:42.844Z</time>
      </trkpt>
      <trkpt lat="42.92407" lon="3.0165">
        <ele>30.628644</ele>
        <time>2022-08-30T17:16:54.885Z</time>
      </trkpt>
      <trkpt lat="42.92394" lon="3.01662">
        <ele>31.354438</ele>
        <time>2022-08-30T17:17:05.477Z</time>
      </trkpt>
      <trkpt lat="42.92375" lon="3.01667">
        <ele>32.169907</ele>
        <time>2022-08-30T17:17:19.135Z</time>
      </trkpt>
      <trkpt lat="42.92356" lon="3.0169">
        <ele>33.298399</ele>
        <time>2022-08-30T17:17:34.686Z</time>
      </trkpt>
      <trkpt lat="42.92336" lon="3.01692">
        <ele>34.18841</ele>
        <time>2022-08-30T17:17:46.132Z</time>
      </trkpt>
      <trkpt lat="42.92305" lon="3.01688">
        <ele>35.567862</ele>
        <time>2022-08-30T17:18:02.051Z</time>
      </trkpt>
      <trkpt lat="42.92263" lon="3.01703">
        <ele>37.499213</ele>
        <time>2022-08-30T17:18:21.240Z</time>
      </trkpt>
      <trkpt lat="42.92236" lon="3.01706">
        <ele>38.219034</ele>
        <time>2022-08-30T17:18:31.591Z</time>
      </trkpt>
      <trkpt lat="42.92206" lon="3.01695">
        <ele>37.854419</ele>
        <time>2022-08-30T17:18:40.854Z</time>
      </trkpt>
      <trkpt lat="42.9209" lon="3.01725">
        <ele>36.442313</ele>
        <time>2022-08-30T17:19:13.981Z</time>
      </trkpt>
      <trkpt lat="42.92045" lon="3.01726">
        <ele>35.590911</ele>
        <time>2022-08-30T17:19:25.880Z</time>
      </trkpt>
      <trkpt lat="42.92" lon="3.01742">
        <ele>34.390549</ele>
        <time>2022-08-30T17:19:37.910Z</time>
      </trkpt>
      <trkpt lat="42.91986" lon="3.01739">
        <ele>34.032735</ele>
        <time>2022-08-30T17:19:41.513Z</time>
      </trkpt>
      <trkpt lat="42.91953" lon="3.01749">
        <ele>33.137102</ele>
        <time>2022-08-30T17:19:50.454Z</time>
      </trkpt>
      <trkpt lat="42.91915" lon="3.01779">
        <ele>32.000215</ele>
        <time>2022-08-30T17:20:02.137Z</time>
      </trkpt>
      <trkpt lat="42.91889" lon="3.01777">
        <ele>31.487628</ele>
        <time>2022-08-30T17:20:09.273Z</time>
      </trkpt>
      <trkpt lat="42.91835" lon="3.01816">
        <ele>31.211531</ele>
        <time>2022-08-30T17:20:26.732Z</time>
      </trkpt>
      <trkpt lat="42.91803" lon="3.01853">
        <ele>31.021945</ele>
        <time>2022-08-30T17:20:39.533Z</time>
      </trkpt>
      <trkpt lat="42.91781" lon="3.01896">
        <ele>30.847851</ele>
        <time>2022-08-30T17:20:52.112Z</time>
      </trkpt>
      <trkpt lat="42.91764" lon="3.01953">
        <ele>30.806886</ele>
        <time>2022-08-30T17:21:08.314Z</time>
      </trkpt>
      <trkpt lat="42.91743" lon="3.01991">
        <ele>31.068223</ele>
        <time>2022-08-30T17:21:21.681Z</time>
      </trkpt>
      <trkpt lat="42.91736" lon="3.01995">
        <ele>31.12756</ele>
        <time>2022-08-30T17:21:24.739Z</time>
      </trkpt>
      <trkpt lat="42.91729" lon="3.02019">
        <ele>31.266157</ele>
        <time>2022-08-30T17:21:32.081Z</time>
      </trkpt>
      <trkpt lat="42.91695" lon="3.0205">
        <ele>31.575466</ele>
        <time>2022-08-30T17:21:47.443Z</time>
      </trkpt>
      <trkpt lat="42.91669" lon="3.0206">
        <ele>31.774965</ele>
        <time>2022-08-30T17:21:56.765Z</time>
      </trkpt>
      <trkpt lat="42.91651" lon="3.02058">
        <ele>31.916555</ele>
        <time>2022-08-30T17:22:03.153Z</time>
      </trkpt>
      <trkpt lat="42.91607" lon="3.0208">
        <ele>31.241362</ele>
        <time>2022-08-30T17:22:18.201Z</time>
      </trkpt>
      <trkpt lat="42.91588" lon="3.02096">
        <ele>30.582524</ele>
        <time>2022-08-30T17:22:25.089Z</time>
      </trkpt>
      <trkpt lat="42.91572" lon="3.02098">
        <ele>30.109956</ele>
        <time>2022-08-30T17:22:29.344Z</time>
      </trkpt>
      <trkpt lat="42.9153" lon="3.02086">
        <ele>28.844556</ele>
        <time>2022-08-30T17:22:40.693Z</time>
      </trkpt>
      <trkpt lat="42.91518" lon="3.02096">
        <ele>28.439908</ele>
        <time>2022-08-30T17:22:44.323Z</time>
      </trkpt>
      <trkpt lat="42.91503" lon="3.02096">
        <ele>27.978051</ele>
        <time>2022-08-30T17:22:47.987Z</time>
      </trkpt>
      <trkpt lat="42.91484" lon="3.0208">
        <ele>27.339058</ele>
        <time>2022-08-30T17:22:53.513Z</time>
      </trkpt>
      <trkpt lat="42.91443" lon="3.02073">
        <ele>25.104187</ele>
        <time>2022-08-30T17:23:03.189Z</time>
      </trkpt>
      <trkpt lat="42.91439" lon="3.02073">
        <ele>24.850383</ele>
        <time>2022-08-30T17:23:03.877Z</time>
      </trkpt>
      <trkpt lat="42.91431" lon="3.02048">
        <ele>23.361194</ele>
        <time>2022-08-30T17:23:08.587Z</time>
      </trkpt>
      <trkpt lat="42.91416" lon="3.02025">
        <ele>21.681952</ele>
        <time>2022-08-30T17:23:13.517Z</time>
      </trkpt>
      <trkpt lat="42.9139" lon="3.01996">
        <ele>19.157771</ele>
        <time>2022-08-30T17:23:21.061Z</time>
      </trkpt>
      <trkpt lat="42.91376" lon="3.01966">
        <ele>17.237398</ele>
        <time>2022-08-30T17:23:25.541Z</time>
      </trkpt>
      <trkpt lat="42.91367" lon="3.01962">
        <ele>16.54688</ele>
        <time>2022-08-30T17:23:27.023Z</time>
      </trkpt>
      <trkpt lat="42.91349" lon="3.01928">
        <ele>14.222815</ele>
        <time>2022-08-30T17:23:32.306Z</time>
      </trkpt>
      <trkpt lat="42.91335" lon="3.01902">
        <ele>12.749309</ele>
        <time>2022-08-30T17:23:36.380Z</time>
      </trkpt>
      <trkpt lat="42.91322" lon="3.01877">
        <ele>11.64784</ele>
        <time>2022-08-30T17:23:40.133Z</time>
      </trkpt>
      <trkpt lat="42.91308" lon="3.01852">
        <ele>10.487025</ele>
        <time>2022-08-30T17:23:44.255Z</time>
      </trkpt>
      <trkpt lat="42.9129" lon="3.01818">
        <ele>8.94676</ele>
        <time>2022-08-30T17:23:49.839Z</time>
      </trkpt>
      <trkpt lat="42.91277" lon="3.01792">
        <ele>7.828415</ele>
        <time>2022-08-30T17:23:55.250Z</time>
      </trkpt>
      <trkpt lat="42.91269" lon="3.01781">
        <ele>7.242185</ele>
        <time>2022-08-30T17:23:58.117Z</time>
      </trkpt>
      <trkpt lat="42.91257" lon="3.01781">
        <ele>6.663915</ele>
        <time>2022-08-30T17:24:01.053Z</time>
      </trkpt>
      <trkpt lat="42.91219" lon="3.01806">
        <ele>4.559937</ele>
        <time>2022-08-30T17:24:12.270Z</time>
      </trkpt>
      <trkpt lat="42.9121" lon="3.01811">
        <ele>4.38279</ele>
        <time>2022-08-30T17:24:15.033Z</time>
      </trkpt>
      <trkpt lat="42.91203" lon="3.01815">
        <ele>4.388859</ele>
        <time>2022-08-30T17:24:17.127Z</time>
      </trkpt>
      <trkpt lat="42.91169" lon="3.01821">
        <ele>4.416524</ele>
        <time>2022-08-30T17:24:27.097Z</time>
      </trkpt>
      <trkpt lat="42.91122" lon="3.01818">
        <ele>4.454253</ele>
        <time>2022-08-30T17:24:43.288Z</time>
      </trkpt>
      <trkpt lat="42.91097" lon="3.01827">
        <ele>4.474885</ele>
        <time>2022-08-30T17:24:53.010Z</time>
      </trkpt>
      <trkpt lat="42.91068" lon="3.01886">
        <ele>4.516443</ele>
        <time>2022-08-30T17:25:12.630Z</time>
      </trkpt>
      <trkpt lat="42.91058" lon="3.019">
        <ele>4.601459</ele>
        <time>2022-08-30T17:25:18.290Z</time>
      </trkpt>
      <trkpt lat="42.91031" lon="3.01918">
        <ele>4.883781</ele>
        <time>2022-08-30T17:25:29.872Z</time>
      </trkpt>
      <trkpt lat="42.90994" lon="3.01914">
        <ele>5.231665</ele>
        <time>2022-08-30T17:25:43.892Z</time>
      </trkpt>
      <trkpt lat="42.90957" lon="3.01922">
        <ele>5.58843</ele>
        <time>2022-08-30T17:25:57.813Z</time>
      </trkpt>
      <trkpt lat="42.90911" lon="3.01907">
        <ele>6.030697</ele>
        <time>2022-08-30T17:26:14.643Z</time>
      </trkpt>
      <trkpt lat="42.90834" lon="3.01891">
        <ele>6.234221</ele>
        <time>2022-08-30T17:26:40.222Z</time>
      </trkpt>
      <trkpt lat="42.90825" lon="3.01888">
        <ele>6.236405</ele>
        <time>2022-08-30T17:26:43.163Z</time>
      </trkpt>
      <trkpt lat="42.90803" lon="3.01869">
        <ele>6.242428</ele>
        <time>2022-08-30T17:26:51.268Z</time>
      </trkpt>
      <trkpt lat="42.90785" lon="3.01882">
        <ele>6.247272</ele>
        <time>2022-08-30T17:26:57.477Z</time>
      </trkpt>
      <trkpt lat="42.90775" lon="3.01883">
        <ele>6.249598</ele>
        <time>2022-08-30T17:27:00.663Z</time>
      </trkpt>
      <trkpt lat="42.90758" lon="3.0187">
        <ele>6.254207</ele>
        <time>2022-08-30T17:27:06.757Z</time>
      </trkpt>
      <trkpt lat="42.90658" lon="3.0184">
        <ele>6.100936</ele>
        <time>2022-08-30T17:27:39.328Z</time>
      </trkpt>
      <trkpt lat="42.90651" lon="3.01833">
        <ele>6.078664</ele>
        <time>2022-08-30T17:27:41.969Z</time>
      </trkpt>
      <trkpt lat="42.90641" lon="3.01799">
        <ele>6.012157</ele>
        <time>2022-08-30T17:27:50.780Z</time>
      </trkpt>
      <trkpt lat="42.90635" lon="3.01792">
        <ele>5.992226</ele>
        <time>2022-08-30T17:27:53.158Z</time>
      </trkpt>
      <trkpt lat="42.90597" lon="3.0176">
        <ele>5.881868</ele>
        <time>2022-08-30T17:28:07.040Z</time>
      </trkpt>
      <trkpt lat="42.90569" lon="3.01759">
        <ele>5.803354</ele>
        <time>2022-08-30T17:28:15.321Z</time>
      </trkpt>
      <trkpt lat="42.90547" lon="3.01735">
        <ele>5.568629</ele>
        <time>2022-08-30T17:28:23.888Z</time>
      </trkpt>
      <trkpt lat="42.90508" lon="3.01685">
        <ele>5.122854</ele>
        <time>2022-08-30T17:28:39.778Z</time>
      </trkpt>
      <trkpt lat="42.90491" lon="3.01661">
        <ele>4.921382</ele>
        <time>2022-08-30T17:28:46.913Z</time>
      </trkpt>
      <trkpt lat="42.90486" lon="3.01644">
        <ele>4.811481</ele>
        <time>2022-08-30T17:28:50.839Z</time>
      </trkpt>
      <trkpt lat="42.90466" lon="3.01617">
        <ele>4.574864</ele>
        <time>2022-08-30T17:28:59.110Z</time>
      </trkpt>
      <trkpt lat="42.90436" lon="3.0161">
        <ele>4.324814</ele>
        <time>2022-08-30T17:29:07.793Z</time>
      </trkpt>
      <trkpt lat="42.904" lon="3.01609">
        <ele>3.977647</ele>
        <time>2022-08-30T17:29:18.436Z</time>
      </trkpt>
      <trkpt lat="42.90369" lon="3.01598">
        <ele>3.674069</ele>
        <time>2022-08-30T17:29:27.629Z</time>
      </trkpt>
      <trkpt lat="42.90319" lon="3.01606">
        <ele>3.189022</ele>
        <time>2022-08-30T17:29:42.354Z</time>
      </trkpt>
      <trkpt lat="42.90282" lon="3.01642">
        <ele>2.752366</ele>
        <time>2022-08-30T17:29:55.734Z</time>
      </trkpt>
      <trkpt lat="42.90271" lon="3.01662">
        <ele>2.603831</ele>
        <time>2022-08-30T17:30:01.206Z</time>
      </trkpt>
      <trkpt lat="42.90255" lon="3.01718">
        <ele>2.702084</ele>
        <time>2022-08-30T17:30:14.727Z</time>
      </trkpt>
      <trkpt lat="42.90251" lon="3.01763">
        <ele>2.774908</ele>
        <time>2022-08-30T17:30:24.987Z</time>
      </trkpt>
      <trkpt lat="42.90235" lon="3.01824">
        <ele>2.880448</ele>
        <time>2022-08-30T17:30:40.502Z</time>
      </trkpt>
      <trkpt lat="42.90214" lon="3.01849">
        <ele>2.942792</ele>
        <time>2022-08-30T17:30:50.563Z</time>
      </trkpt>
      <trkpt lat="42.90201" lon="3.01861">
        <ele>2.977107</ele>
        <time>2022-08-30T17:30:56.313Z</time>
      </trkpt>
      <trkpt lat="42.90178" lon="3.01863">
        <ele>3.218574</ele>
        <time>2022-08-30T17:31:05.275Z</time>
      </trkpt>
      <trkpt lat="42.90123" lon="3.01832">
        <ele>4.200765</ele>
        <time>2022-08-30T17:31:29.566Z</time>
      </trkpt>
      <trkpt lat="42.90114" lon="3.01821">
        <ele>4.396872</ele>
        <time>2022-08-30T17:31:34.586Z</time>
      </trkpt>
      <trkpt lat="42.90104" lon="3.01818">
        <ele>4.569986</ele>
        <time>2022-08-30T17:31:38.864Z</time>
      </trkpt>
      <trkpt lat="42.90099" lon="3.01832">
        <ele>4.752741</ele>
        <time>2022-08-30T17:31:43.502Z</time>
      </trkpt>
      <trkpt lat="42.90098" lon="3.01864">
        <ele>5.137522</ele>
        <time>2022-08-30T17:31:53.206Z</time>
      </trkpt>
      <trkpt lat="42.90065" lon="3.01849">
        <ele>5.709261</ele>
        <time>2022-08-30T17:32:03.303Z</time>
      </trkpt>
      <trkpt lat="42.90053" lon="3.01811">
        <ele>6.005022</ele>
        <time>2022-08-30T17:32:11.782Z</time>
      </trkpt>
      <trkpt lat="42.90037" lon="3.01798">
        <ele>6.073425</ele>
        <time>2022-08-30T17:32:17.115Z</time>
      </trkpt>
      <trkpt lat="42.89974" lon="3.01825">
        <ele>6.322167</ele>
        <time>2022-08-30T17:32:33.706Z</time>
      </trkpt>
      <trkpt lat="42.89952" lon="3.01822">
        <ele>6.402664</ele>
        <time>2022-08-30T17:32:38.548Z</time>
      </trkpt>
      <trkpt lat="42.89939" lon="3.01809">
        <ele>6.462636</ele>
        <time>2022-08-30T17:32:41.405Z</time>
      </trkpt>
      <trkpt lat="42.89932" lon="3.01765">
        <ele>6.584237</ele>
        <time>2022-08-30T17:32:47.388Z</time>
      </trkpt>
      <trkpt lat="42.89911" lon="3.01755">
        <ele>6.423813</ele>
        <time>2022-08-30T17:32:51.701Z</time>
      </trkpt>
      <trkpt lat="42.8988" lon="3.01697">
        <ele>5.659124</ele>
        <time>2022-08-30T17:33:05.887Z</time>
      </trkpt>
      <trkpt lat="42.89871" lon="3.01657">
        <ele>5.213483</ele>
        <time>2022-08-30T17:33:14.462Z</time>
      </trkpt>
      <trkpt lat="42.89845" lon="3.01603">
        <ele>4.525645</ele>
        <time>2022-08-30T17:33:27.870Z</time>
      </trkpt>
      <trkpt lat="42.8983" lon="3.01583">
        <ele>4.225983</ele>
        <time>2022-08-30T17:33:33.837Z</time>
      </trkpt>
      <trkpt lat="42.89811" lon="3.01568">
        <ele>3.949623</ele>
        <time>2022-08-30T17:33:39.801Z</time>
      </trkpt>
      <trkpt lat="42.89796" lon="3.01559">
        <ele>3.823993</ele>
        <time>2022-08-30T17:33:44.502Z</time>
      </trkpt>
      <trkpt lat="42.89774" lon="3.01568">
        <ele>3.652892</ele>
        <time>2022-08-30T17:33:51.257Z</time>
      </trkpt>
      <trkpt lat="42.89763" lon="3.01586">
        <ele>3.529377</ele>
        <time>2022-08-30T17:33:56.173Z</time>
      </trkpt>
      <trkpt lat="42.89754" lon="3.01597">
        <ele>3.436261</ele>
        <time>2022-08-30T17:34:00.041Z</time>
      </trkpt>
      <trkpt lat="42.89741" lon="3.01601">
        <ele>3.337921</ele>
        <time>2022-08-30T17:34:04.007Z</time>
      </trkpt>
      <trkpt lat="42.89684" lon="3.01607">
        <ele>2.916079</ele>
        <time>2022-08-30T17:34:21.204Z</time>
      </trkpt>
      <trkpt lat="42.89665" lon="3.01582">
        <ele>2.719622</ele>
        <time>2022-08-30T17:34:29.392Z</time>
      </trkpt>
      <trkpt lat="42.89651" lon="3.01575">
        <ele>2.636333</ele>
        <time>2022-08-30T17:34:34.747Z</time>
      </trkpt>
      <trkpt lat="42.89626" lon="3.01581">
        <ele>2.543371</ele>
        <time>2022-08-30T17:34:42.936Z</time>
      </trkpt>
      <trkpt lat="42.89588" lon="3.01603">
        <ele>2.394254</ele>
        <time>2022-08-30T17:34:55.329Z</time>
      </trkpt>
      <trkpt lat="42.89551" lon="3.01635">
        <ele>2.23202</ele>
        <time>2022-08-30T17:35:08.354Z</time>
      </trkpt>
      <trkpt lat="42.89542" lon="3.01647">
        <ele>2.185687</ele>
        <time>2022-08-30T17:35:12.022Z</time>
      </trkpt>
      <trkpt lat="42.89535" lon="3.01653">
        <ele>2.155099</ele>
        <time>2022-08-30T17:35:14.525Z</time>
      </trkpt>
      <trkpt lat="42.89528" lon="3.01709">
        <ele>2.004146</ele>
        <time>2022-08-30T17:35:27.625Z</time>
      </trkpt>
      <trkpt lat="42.89548" lon="3.01788">
        <ele>2.16854</ele>
        <time>2022-08-30T17:35:47.477Z</time>
      </trkpt>
      <trkpt lat="42.89584" lon="3.01847">
        <ele>2.32212</ele>
        <time>2022-08-30T17:36:06.492Z</time>
      </trkpt>
      <trkpt lat="42.89597" lon="3.01877">
        <ele>2.390456</ele>
        <time>2022-08-30T17:36:15.288Z</time>
      </trkpt>
      <trkpt lat="42.89611" lon="3.01926">
        <ele>2.498651</ele>
        <time>2022-08-30T17:36:28.117Z</time>
      </trkpt>
      <trkpt lat="42.89613" lon="3.01987">
        <ele>2.727468</ele>
        <time>2022-08-30T17:36:43.847Z</time>
      </trkpt>
      <trkpt lat="42.89623" lon="3.01993">
        <ele>2.781999</ele>
        <time>2022-08-30T17:36:47.663Z</time>
      </trkpt>
      <trkpt lat="42.89626" lon="3.0201">
        <ele>2.849138</ele>
        <time>2022-08-30T17:36:52.828Z</time>
      </trkpt>
      <trkpt lat="42.89619" lon="3.02024">
        <ele>2.908494</ele>
        <time>2022-08-30T17:36:56.652Z</time>
      </trkpt>
      <trkpt lat="42.8963" lon="3.02096">
        <ele>3.183142</ele>
        <time>2022-08-30T17:37:15.464Z</time>
      </trkpt>
      <trkpt lat="42.89638" lon="3.02135">
        <ele>3.335243</ele>
        <time>2022-08-30T17:37:25.106Z</time>
      </trkpt>
      <trkpt lat="42.89652" lon="3.02153">
        <ele>3.411474</ele>
        <time>2022-08-30T17:37:31.773Z</time>
      </trkpt>
      <trkpt lat="42.89657" lon="3.02169">
        <ele>3.427617</ele>
        <time>2022-08-30T17:37:35.717Z</time>
      </trkpt>
      <trkpt lat="42.89666" lon="3.02204">
        <ele>3.462439</ele>
        <time>2022-08-30T17:37:44.818Z</time>
      </trkpt>
      <trkpt lat="42.89671" lon="3.02261">
        <ele>3.517153</ele>
        <time>2022-08-30T17:37:58.135Z</time>
      </trkpt>
      <trkpt lat="42.89686" lon="3.023">
        <ele>3.558348</ele>
        <time>2022-08-30T17:38:08.426Z</time>
      </trkpt>
      <trkpt lat="42.89681" lon="3.02316">
        <ele>3.57475</ele>
        <time>2022-08-30T17:38:12.403Z</time>
      </trkpt>
      <trkpt lat="42.89689" lon="3.02331">
        <ele>3.592381</ele>
        <time>2022-08-30T17:38:17.250Z</time>
      </trkpt>
      <trkpt lat="42.89707" lon="3.02395">
        <ele>3.541194</ele>
        <time>2022-08-30T17:38:34.320Z</time>
      </trkpt>
      <trkpt lat="42.89706" lon="3.02405">
        <ele>3.500925</ele>
        <time>2022-08-30T17:38:36.510Z</time>
      </trkpt>
      <trkpt lat="42.89713" lon="3.02415">
        <ele>3.445526</ele>
        <time>2022-08-30T17:38:39.727Z</time>
      </trkpt>
      <trkpt lat="42.8971" lon="3.02442">
        <ele>3.336233</ele>
        <time>2022-08-30T17:38:46.199Z</time>
      </trkpt>
      <trkpt lat="42.8971" lon="3.02457">
        <ele>3.272423</ele>
        <time>2022-08-30T17:38:49.481Z</time>
      </trkpt>
      <trkpt lat="42.89718" lon="3.02485">
        <ele>3.155688</ele>
        <time>2022-08-30T17:38:56.203Z</time>
      </trkpt>
      <trkpt lat="42.89712" lon="3.02531">
        <ele>2.968618</ele>
        <time>2022-08-30T17:39:06.231Z</time>
      </trkpt>
      <trkpt lat="42.89713" lon="3.02539">
        <ele>2.935894</ele>
        <time>2022-08-30T17:39:08.005Z</time>
      </trkpt>
      <trkpt lat="42.89722" lon="3.02548">
        <ele>2.873123</ele>
        <time>2022-08-30T17:39:11.106Z</time>
      </trkpt>
      <trkpt lat="42.89724" lon="3.02566">
        <ele>2.798566</ele>
        <time>2022-08-30T17:39:15.339Z</time>
      </trkpt>
      <trkpt lat="42.89734" lon="3.02581">
        <ele>2.719207</ele>
        <time>2022-08-30T17:39:19.428Z</time>
      </trkpt>
      <trkpt lat="42.89738" lon="3.02598">
        <ele>2.648886</ele>
        <time>2022-08-30T17:39:23.157Z</time>
      </trkpt>
      <trkpt lat="42.89734" lon="3.0264">
        <ele>2.46782</ele>
        <time>2022-08-30T17:39:32.436Z</time>
      </trkpt>
      <trkpt lat="42.89728" lon="3.02673">
        <ele>2.326164</ele>
        <time>2022-08-30T17:39:40.525Z</time>
      </trkpt>
      <trkpt lat="42.89733" lon="3.02687">
        <ele>2.263299</ele>
        <time>2022-08-30T17:39:43.721Z</time>
      </trkpt>
      <trkpt lat="42.89757" lon="3.027">
        <ele>2.116125</ele>
        <time>2022-08-30T17:39:51.657Z</time>
      </trkpt>
      <trkpt lat="42.8978" lon="3.02701">
        <ele>1.983353</ele>
        <time>2022-08-30T17:39:58.532Z</time>
      </trkpt>
      <trkpt lat="42.89788" lon="3.0271">
        <ele>1.921647</ele>
        <time>2022-08-30T17:40:01.640Z</time>
      </trkpt>
      <trkpt lat="42.89809" lon="3.02746">
        <ele>1.728543</ele>
        <time>2022-08-30T17:40:11.737Z</time>
      </trkpt>
      <trkpt lat="42.89813" lon="3.02757">
        <ele>1.676516</ele>
        <time>2022-08-30T17:40:14.422Z</time>
      </trkpt>
      <trkpt lat="42.8981" lon="3.02795">
        <ele>1.576219</ele>
        <time>2022-08-30T17:40:23.091Z</time>
      </trkpt>
      <trkpt lat="42.8978" lon="3.02819">
        <ele>1.493093</ele>
        <time>2022-08-30T17:40:30.250Z</time>
      </trkpt>
      <trkpt lat="42.89701" lon="3.02862">
        <ele>1.28768</ele>
        <time>2022-08-30T17:40:47.695Z</time>
      </trkpt>
      <trkpt lat="42.89682" lon="3.02907">
        <ele>1.196706</ele>
        <time>2022-08-30T17:40:54.847Z</time>
      </trkpt>
      <trkpt lat="42.89672" lon="3.02914">
        <ele>1.141474</ele>
        <time>2022-08-30T17:40:58.303Z</time>
      </trkpt>
      <trkpt lat="42.89667" lon="3.02953">
        <ele>0.957</ele>
        <time>2022-08-30T17:41:06.813Z</time>
      </trkpt>
      <trkpt lat="42.89639" lon="3.03019">
        <ele>0.59561</ele>
        <time>2022-08-30T17:41:23.186Z</time>
      </trkpt>
      <trkpt lat="42.89638" lon="3.03066">
        <ele>0.374963</ele>
        <time>2022-08-30T17:41:33.313Z</time>
      </trkpt>
      <trkpt lat="42.89643" lon="3.03115">
        <ele>0.141289</ele>
        <time>2022-08-30T17:41:44.199Z</time>
      </trkpt>
      <trkpt lat="42.8963" lon="3.03157">
        <ele>0.146447</ele>
        <time>2022-08-30T17:41:54.441Z</time>
      </trkpt>
      <trkpt lat="42.89619" lon="3.03171">
        <ele>0.268557</ele>
        <time>2022-08-30T17:41:59.244Z</time>
      </trkpt>
      <trkpt lat="42.89615" lon="3.03188">
        <ele>0.370787</ele>
        <time>2022-08-30T17:42:03.708Z</time>
      </trkpt>
      <trkpt lat="42.89619" lon="3.03212">
        <ele>0.514185</ele>
        <time>2022-08-30T17:42:09.349Z</time>
      </trkpt>
      <trkpt lat="42.89627" lon="3.0326">
        <ele>0.801551</ele>
        <time>2022-08-30T17:42:22.007Z</time>
      </trkpt>
      <trkpt lat="42.89645" lon="3.03316">
        <ele>1.15892</ele>
        <time>2022-08-30T17:42:39.324Z</time>
      </trkpt>
      <trkpt lat="42.89648" lon="3.03328">
        <ele>1.234781</ele>
        <time>2022-08-30T17:42:43.352Z</time>
      </trkpt>
      <trkpt lat="42.89662" lon="3.03347">
        <ele>1.392385</ele>
        <time>2022-08-30T17:42:50.750Z</time>
      </trkpt>
      <trkpt lat="42.8972" lon="3.03421">
        <ele>2.830669</ele>
        <time>2022-08-30T17:43:24.108Z</time>
      </trkpt>
      <trkpt lat="42.89759" lon="3.03458">
        <ele>3.742605</ele>
        <time>2022-08-30T17:43:44.224Z</time>
      </trkpt>
      <trkpt lat="42.89781" lon="3.03478">
        <ele>4.24581</ele>
        <time>2022-08-30T17:43:55.303Z</time>
      </trkpt>
      <trkpt lat="42.8979" lon="3.03493">
        <ele>4.53005</ele>
        <time>2022-08-30T17:44:01.583Z</time>
      </trkpt>
      <trkpt lat="42.89813" lon="3.03527">
        <ele>5.0505</ele>
        <time>2022-08-30T17:44:15.731Z</time>
      </trkpt>
      <trkpt lat="42.89864" lon="3.03577">
        <ele>5.576413</ele>
        <time>2022-08-30T17:44:39.416Z</time>
      </trkpt>
      <trkpt lat="42.89875" lon="3.03604">
        <ele>5.772333</ele>
        <time>2022-08-30T17:44:48.142Z</time>
      </trkpt>
      <trkpt lat="42.8988" lon="3.03624">
        <ele>5.905904</ele>
        <time>2022-08-30T17:44:53.094Z</time>
      </trkpt>
      <trkpt lat="42.89961" lon="3.03742">
        <ele>6.124128</ele>
        <time>2022-08-30T17:45:31.329Z</time>
      </trkpt>
      <trkpt lat="42.89982" lon="3.03806">
        <ele>5.78647</ele>
        <time>2022-08-30T17:45:46.671Z</time>
      </trkpt>
      <trkpt lat="42.90018" lon="3.03845">
        <ele>5.489787</ele>
        <time>2022-08-30T17:45:59.625Z</time>
      </trkpt>
      <trkpt lat="42.9007" lon="3.03959">
        <ele>4.42951</ele>
        <time>2022-08-30T17:46:28.833Z</time>
      </trkpt>
      <trkpt lat="42.90075" lon="3.03963">
        <ele>4.345649</ele>
        <time>2022-08-30T17:46:30.517Z</time>
      </trkpt>
      <trkpt lat="42.90088" lon="3.0396">
        <ele>4.18366</ele>
        <time>2022-08-30T17:46:34.407Z</time>
      </trkpt>
      <trkpt lat="42.90106" lon="3.03939">
        <ele>3.886662</ele>
        <time>2022-08-30T17:46:40.996Z</time>
      </trkpt>
      <trkpt lat="42.90118" lon="3.03923">
        <ele>3.675598</ele>
        <time>2022-08-30T17:46:45.902Z</time>
      </trkpt>
      <trkpt lat="42.90177" lon="3.03888">
        <ele>2.878581</ele>
        <time>2022-08-30T17:47:03.752Z</time>
      </trkpt>
      <trkpt lat="42.9021" lon="3.03887">
        <ele>2.50569</ele>
        <time>2022-08-30T17:47:13.063Z</time>
      </trkpt>
      <trkpt lat="42.90288" lon="3.03911">
        <ele>1.615915</ele>
        <time>2022-08-30T17:47:36.106Z</time>
      </trkpt>
      <trkpt lat="42.90302" lon="3.03913">
        <ele>1.448671</ele>
        <time>2022-08-30T17:47:40.318Z</time>
      </trkpt>
      <trkpt lat="42.90312" lon="3.03907">
        <ele>1.335542</ele>
        <time>2022-08-30T17:47:43.290Z</time>
      </trkpt>
      <trkpt lat="42.90324" lon="3.03877">
        <ele>1.055799</ele>
        <time>2022-08-30T17:47:50.644Z</time>
      </trkpt>
      <trkpt lat="42.90333" lon="3.03854">
        <ele>1.050147</ele>
        <time>2022-08-30T17:47:56.655Z</time>
      </trkpt>
      <trkpt lat="42.90427" lon="3.03854">
        <ele>1.385995</ele>
        <time>2022-08-30T17:48:28.231Z</time>
      </trkpt>
      <trkpt lat="42.90427" lon="3.03857">
        <ele>1.394585</ele>
        <time>2022-08-30T17:48:29.269Z</time>
      </trkpt>
      <trkpt lat="42.90486" lon="3.03777">
        <ele>1.736002</ele>
        <time>2022-08-30T17:49:04.752Z</time>
      </trkpt>
      <trkpt lat="42.90516" lon="3.03774">
        <ele>1.943109</ele>
        <time>2022-08-30T17:49:17.761Z</time>
      </trkpt>
      <trkpt lat="42.90562" lon="3.03804">
        <ele>2.291871</ele>
        <time>2022-08-30T17:49:39.673Z</time>
      </trkpt>
      <trkpt lat="42.90567" lon="3.0381">
        <ele>2.335044</ele>
        <time>2022-08-30T17:49:42.367Z</time>
      </trkpt>
      <trkpt lat="42.90596" lon="3.03975">
        <ele>3.281963</ele>
        <time>2022-08-30T17:50:11.928Z</time>
      </trkpt>
      <trkpt lat="42.90604" lon="3.03972">
        <ele>3.360113</ele>
        <time>2022-08-30T17:50:13.977Z</time>
      </trkpt>
      <trkpt lat="42.90603" lon="3.03967">
        <ele>3.388317</ele>
        <time>2022-08-30T17:50:14.574Z</time>
      </trkpt>
      <trkpt lat="42.90629" lon="3.03984">
        <ele>3.646038</ele>
        <time>2022-08-30T17:50:21.390Z</time>
      </trkpt>
      <trkpt lat="42.90653" lon="3.04046">
        <ele>4.102627</ele>
        <time>2022-08-30T17:50:33.716Z</time>
      </trkpt>
      <trkpt lat="42.90712" lon="3.04112">
        <ele>5.129463</ele>
        <time>2022-08-30T17:50:54.165Z</time>
      </trkpt>
      <trkpt lat="42.90717" lon="3.04128">
        <ele>5.370279</ele>
        <time>2022-08-30T17:50:57.479Z</time>
      </trkpt>
      <trkpt lat="42.90719" lon="3.04133">
        <ele>5.444235</ele>
        <time>2022-08-30T17:50:58.459Z</time>
      </trkpt>
      <trkpt lat="42.90714" lon="3.0416">
        <ele>5.820157</ele>
        <time>2022-08-30T17:51:04.336Z</time>
      </trkpt>
      <trkpt lat="42.90708" lon="3.04192">
        <ele>6.274281</ele>
        <time>2022-08-30T17:51:10.387Z</time>
      </trkpt>
      <trkpt lat="42.90711" lon="3.04206">
        <ele>6.477855</ele>
        <time>2022-08-30T17:51:14.053Z</time>
      </trkpt>
      <trkpt lat="42.90749" lon="3.04255">
        <ele>7.472752</ele>
        <time>2022-08-30T17:51:29.949Z</time>
      </trkpt>
      <trkpt lat="42.90792" lon="3.04297">
        <ele>9.050096</ele>
        <time>2022-08-30T17:51:48.658Z</time>
      </trkpt>
      <trkpt lat="42.90801" lon="3.0431">
        <ele>9.562845</ele>
        <time>2022-08-30T17:51:53.783Z</time>
      </trkpt>
      <trkpt lat="42.90794" lon="3.04339">
        <ele>10.415357</ele>
        <time>2022-08-30T17:52:02.694Z</time>
      </trkpt>
      <trkpt lat="42.90796" lon="3.04346">
        <ele>10.608761</ele>
        <time>2022-08-30T17:52:04.744Z</time>
      </trkpt>
      <trkpt lat="42.90843" lon="3.04391">
        <ele>12.799608</ele>
        <time>2022-08-30T17:52:28.744Z</time>
      </trkpt>
      <trkpt lat="42.90882" lon="3.04454">
        <ele>15.143194</ele>
        <time>2022-08-30T17:52:53.571Z</time>
      </trkpt>
      <trkpt lat="42.90881" lon="3.04475">
        <ele>15.781252</ele>
        <time>2022-08-30T17:53:01.681Z</time>
      </trkpt>
      <trkpt lat="42.90867" lon="3.04489">
        <ele>16.505504</ele>
        <time>2022-08-30T17:53:10.015Z</time>
      </trkpt>
      <trkpt lat="42.90867" lon="3.04495">
        <ele>16.696459</ele>
        <time>2022-08-30T17:53:12.262Z</time>
      </trkpt>
      <trkpt lat="42.90907" lon="3.0457">
        <ele>19.607915</ele>
        <time>2022-08-30T17:53:49.663Z</time>
      </trkpt>
      <trkpt lat="42.90907" lon="3.04602">
        <ele>20.618344</ele>
        <time>2022-08-30T17:54:01.129Z</time>
      </trkpt>
      <trkpt lat="42.90913" lon="3.04619">
        <ele>21.201489</ele>
        <time>2022-08-30T17:54:09.518Z</time>
      </trkpt>
      <trkpt lat="42.90946" lon="3.04645">
        <ele>22.823212</ele>
        <time>2022-08-30T17:54:29.635Z</time>
      </trkpt>
      <trkpt lat="42.90965" lon="3.04668">
        <ele>23.949919</ele>
        <time>2022-08-30T17:54:41.716Z</time>
      </trkpt>
      <trkpt lat="42.90966" lon="3.04675">
        <ele>24.184438</ele>
        <time>2022-08-30T17:54:46.413Z</time>
      </trkpt>
      <trkpt lat="42.90971" lon="3.04691">
        <ele>24.737067</ele>
        <time>2022-08-30T17:54:52.683Z</time>
      </trkpt>
      <trkpt lat="42.90985" lon="3.04707">
        <ele>25.535792</ele>
        <time>2022-08-30T17:55:00.860Z</time>
      </trkpt>
      <trkpt lat="42.91002" lon="3.0474">
        <ele>26.831179</ele>
        <time>2022-08-30T17:55:17.214Z</time>
      </trkpt>
      <trkpt lat="42.91" lon="3.04772">
        <ele>27.85379</ele>
        <time>2022-08-30T17:55:30.823Z</time>
      </trkpt>
      <trkpt lat="42.90995" lon="3.04787">
        <ele>28.386371</ele>
        <time>2022-08-30T17:55:36.561Z</time>
      </trkpt>
      <trkpt lat="42.90954" lon="3.04817">
        <ele>30.379399</ele>
        <time>2022-08-30T17:56:02.699Z</time>
      </trkpt>
      <trkpt lat="42.90944" lon="3.04868">
        <ele>31.845384</ele>
        <time>2022-08-30T17:56:24.012Z</time>
      </trkpt>
      <trkpt lat="42.90951" lon="3.04898">
        <ele>32.70025</ele>
        <time>2022-08-30T17:56:35.535Z</time>
      </trkpt>
      <trkpt lat="42.9095" lon="3.0493">
        <ele>33.586945</ele>
        <time>2022-08-30T17:56:47.504Z</time>
      </trkpt>
      <trkpt lat="42.90947" lon="3.04954">
        <ele>34.237593</ele>
        <time>2022-08-30T17:56:55.359Z</time>
      </trkpt>
      <trkpt lat="42.90936" lon="3.04998">
        <ele>35.527572</ele>
        <time>2022-08-30T17:57:12.010Z</time>
      </trkpt>
      <trkpt lat="42.90937" lon="3.05025">
        <ele>36.256522</ele>
        <time>2022-08-30T17:57:21.951Z</time>
      </trkpt>
      <trkpt lat="42.9096" lon="3.05062">
        <ele>37.495988</ele>
        <time>2022-08-30T17:57:38.637Z</time>
      </trkpt>
      <trkpt lat="42.90966" lon="3.05084">
        <ele>38.073944</ele>
        <time>2022-08-30T17:57:46.507Z</time>
      </trkpt>
      <trkpt lat="42.90965" lon="3.051">
        <ele>38.466492</ele>
        <time>2022-08-30T17:57:52.885Z</time>
      </trkpt>
      <trkpt lat="42.90975" lon="3.05119">
        <ele>39.040187</ele>
        <time>2022-08-30T17:58:01.232Z</time>
      </trkpt>
      <trkpt lat="42.90973" lon="3.05136">
        <ele>39.454424</ele>
        <time>2022-08-30T17:58:07.285Z</time>
      </trkpt>
      <trkpt lat="42.90966" lon="3.05145">
        <ele>39.770105</ele>
        <time>2022-08-30T17:58:13.035Z</time>
      </trkpt>
      <trkpt lat="42.90927" lon="3.05183">
        <ele>41.331134</ele>
        <time>2022-08-30T17:58:36.821Z</time>
      </trkpt>
      <trkpt lat="42.90904" lon="3.05234">
        <ele>42.765551</ele>
        <time>2022-08-30T17:58:57.375Z</time>
      </trkpt>
      <trkpt lat="42.90894" lon="3.05247">
        <ele>42.758299</ele>
        <time>2022-08-30T17:59:04.168Z</time>
      </trkpt>
      <trkpt lat="42.90887" lon="3.05253">
        <ele>42.704983</ele>
        <time>2022-08-30T17:59:08.117Z</time>
      </trkpt>
      <trkpt lat="42.90884" lon="3.05254">
        <ele>42.687662</ele>
        <time>2022-08-30T17:59:09.336Z</time>
      </trkpt>
      <trkpt lat="42.90877" lon="3.05302">
        <ele>42.471806</ele>
        <time>2022-08-30T17:59:23.744Z</time>
      </trkpt>
      <trkpt lat="42.9088" lon="3.05322">
        <ele>42.382341</ele>
        <time>2022-08-30T17:59:28.165Z</time>
      </trkpt>
      <trkpt lat="42.90883" lon="3.05331">
        <ele>42.335408</ele>
        <time>2022-08-30T17:59:30.448Z</time>
      </trkpt>
      <trkpt lat="42.90881" lon="3.05358">
        <ele>42.2136</ele>
        <time>2022-08-30T17:59:37.122Z</time>
      </trkpt>
      <trkpt lat="42.90882" lon="3.0538">
        <ele>42.115811</ele>
        <time>2022-08-30T17:59:41.183Z</time>
      </trkpt>
      <trkpt lat="42.90879" lon="3.05415">
        <ele>41.962692</ele>
        <time>2022-08-30T17:59:48.326Z</time>
      </trkpt>
      <trkpt lat="42.90861" lon="3.05441">
        <ele>41.80233</ele>
        <time>2022-08-30T17:59:55.153Z</time>
      </trkpt>
      <trkpt lat="42.90855" lon="3.0549">
        <ele>40.372369</ele>
        <time>2022-08-30T18:00:00.619Z</time>
      </trkpt>
      <trkpt lat="42.90852" lon="3.05516">
        <ele>39.365189</ele>
        <time>2022-08-30T18:00:05.199Z</time>
      </trkpt>
      <trkpt lat="42.90861" lon="3.05548">
        <ele>38.0532</ele>
        <time>2022-08-30T18:00:11.451Z</time>
      </trkpt>
      <trkpt lat="42.90862" lon="3.05573">
        <ele>37.096996</ele>
        <time>2022-08-30T18:00:15.564Z</time>
      </trkpt>
      <trkpt lat="42.90902" lon="3.05599">
        <ele>34.794327</ele>
        <time>2022-08-30T18:00:25.916Z</time>
      </trkpt>
      <trkpt lat="42.90954" lon="3.05639">
        <ele>31.992157</ele>
        <time>2022-08-30T18:00:39.701Z</time>
      </trkpt>
      <trkpt lat="42.91001" lon="3.05658">
        <ele>30.641287</ele>
        <time>2022-08-30T18:00:51.875Z</time>
      </trkpt>
      <trkpt lat="42.91081" lon="3.05728">
        <ele>28.008583</ele>
        <time>2022-08-30T18:01:18.643Z</time>
      </trkpt>
      <trkpt lat="42.91107" lon="3.0575">
        <ele>27.359652</ele>
        <time>2022-08-30T18:01:27.267Z</time>
      </trkpt>
      <trkpt lat="42.91163" lon="3.05757">
        <ele>27.156884</ele>
        <time>2022-08-30T18:01:44.252Z</time>
      </trkpt>
      <trkpt lat="42.91176" lon="3.05759">
        <ele>27.112501</ele>
        <time>2022-08-30T18:01:48.191Z</time>
      </trkpt>
      <trkpt lat="42.91248" lon="3.05786">
        <ele>26.841954</ele>
        <time>2022-08-30T18:02:12.579Z</time>
      </trkpt>
      <trkpt lat="42.91267" lon="3.05799">
        <ele>26.765857</ele>
        <time>2022-08-30T18:02:19.633Z</time>
      </trkpt>
      <trkpt lat="42.91284" lon="3.05797">
        <ele>26.638501</ele>
        <time>2022-08-30T18:02:25.492Z</time>
      </trkpt>
      <trkpt lat="42.91325" lon="3.05814">
        <ele>26.231012</ele>
        <time>2022-08-30T18:02:37.984Z</time>
      </trkpt>
      <trkpt lat="42.91365" lon="3.05821">
        <ele>25.833034</ele>
        <time>2022-08-30T18:02:49.433Z</time>
      </trkpt>
      <trkpt lat="42.91427" lon="3.05844">
        <ele>25.217158</ele>
        <time>2022-08-30T18:03:07.846Z</time>
      </trkpt>
      <trkpt lat="42.91476" lon="3.05871">
        <ele>24.651267</ele>
        <time>2022-08-30T18:03:23.907Z</time>
      </trkpt>
      <trkpt lat="42.91488" lon="3.0588">
        <ele>24.500316</ele>
        <time>2022-08-30T18:03:27.870Z</time>
      </trkpt>
      <trkpt lat="42.91508" lon="3.0588">
        <ele>24.272424</ele>
        <time>2022-08-30T18:03:33.541Z</time>
      </trkpt>
      <trkpt lat="42.91523" lon="3.05881">
        <ele>24.10037</ele>
        <time>2022-08-30T18:03:37.453Z</time>
      </trkpt>
      <trkpt lat="42.91537" lon="3.05884">
        <ele>23.930847</ele>
        <time>2022-08-30T18:03:41.936Z</time>
      </trkpt>
      <trkpt lat="42.91613" lon="3.05878">
        <ele>23.057222</ele>
        <time>2022-08-30T18:04:03.574Z</time>
      </trkpt>
      <trkpt lat="42.91643" lon="3.05888">
        <ele>22.920165</ele>
        <time>2022-08-30T18:04:12.895Z</time>
      </trkpt>
      <trkpt lat="42.9166" lon="3.05899">
        <ele>22.895366</ele>
        <time>2022-08-30T18:04:18.329Z</time>
      </trkpt>
      <trkpt lat="42.91683" lon="3.05945">
        <ele>22.843715</ele>
        <time>2022-08-30T18:04:31.558Z</time>
      </trkpt>
      <trkpt lat="42.91697" lon="3.05956">
        <ele>22.822816</ele>
        <time>2022-08-30T18:04:37.972Z</time>
      </trkpt>
      <trkpt lat="42.91723" lon="3.05952">
        <ele>22.789461</ele>
        <time>2022-08-30T18:04:45.436Z</time>
      </trkpt>
      <trkpt lat="42.91739" lon="3.05949">
        <ele>22.769036</ele>
        <time>2022-08-30T18:04:50.530Z</time>
      </trkpt>
      <trkpt lat="42.91741" lon="3.05951">
        <ele>22.765963</ele>
        <time>2022-08-30T18:04:50.925Z</time>
      </trkpt>
      <trkpt lat="42.91791" lon="3.05976">
        <ele>22.88245</ele>
        <time>2022-08-30T18:05:07.046Z</time>
      </trkpt>
      <trkpt lat="42.91813" lon="3.05963">
        <ele>23.174042</ele>
        <time>2022-08-30T18:05:18.744Z</time>
      </trkpt>
      <trkpt lat="42.9185" lon="3.05948">
        <ele>23.638089</ele>
        <time>2022-08-30T18:05:35.655Z</time>
      </trkpt>
      <trkpt lat="42.91865" lon="3.05955">
        <ele>23.82148</ele>
        <time>2022-08-30T18:05:40.571Z</time>
      </trkpt>
      <trkpt lat="42.91894" lon="3.05947">
        <ele>24.181975</ele>
        <time>2022-08-30T18:05:51.148Z</time>
      </trkpt>
      <trkpt lat="42.91952" lon="3.05926">
        <ele>24.899779</ele>
        <time>2022-08-30T18:06:14.984Z</time>
      </trkpt>
      <trkpt lat="42.91973" lon="3.05906">
        <ele>25.226515</ele>
        <time>2022-08-30T18:06:25.000Z</time>
      </trkpt>
      <trkpt lat="42.92003" lon="3.05899">
        <ele>25.602674</ele>
        <time>2022-08-30T18:06:35.132Z</time>
      </trkpt>
      <trkpt lat="42.92008" lon="3.05896">
        <ele>25.677755</ele>
        <time>2022-08-30T18:06:38.068Z</time>
      </trkpt>
      <trkpt lat="42.92024" lon="3.05899">
        <ele>25.873984</ele>
        <time>2022-08-30T18:06:42.898Z</time>
      </trkpt>
      <trkpt lat="42.92028" lon="3.0588">
        <ele>26.0593</ele>
        <time>2022-08-30T18:06:50.558Z</time>
      </trkpt>
      <trkpt lat="42.92045" lon="3.05858">
        <ele>26.350937</ele>
        <time>2022-08-30T18:06:59.086Z</time>
      </trkpt>
      <trkpt lat="42.92056" lon="3.05842">
        <ele>26.5581</ele>
        <time>2022-08-30T18:07:07.035Z</time>
      </trkpt>
      <trkpt lat="42.92055" lon="3.0583">
        <ele>26.672205</ele>
        <time>2022-08-30T18:07:10.410Z</time>
      </trkpt>
      <trkpt lat="42.92083" lon="3.05773">
        <ele>27.140905</ele>
        <time>2022-08-30T18:07:26.436Z</time>
      </trkpt>
      <trkpt lat="42.92085" lon="3.05763">
        <ele>27.141281</ele>
        <time>2022-08-30T18:07:29.481Z</time>
      </trkpt>
      <trkpt lat="42.92086" lon="3.05756">
        <ele>27.141561</ele>
        <time>2022-08-30T18:07:31.489Z</time>
      </trkpt>
      <trkpt lat="42.92089" lon="3.0574">
        <ele>27.142134</ele>
        <time>2022-08-30T18:07:35.028Z</time>
      </trkpt>
      <trkpt lat="42.92106" lon="3.057">
        <ele>27.143801</ele>
        <time>2022-08-30T18:07:47.592Z</time>
      </trkpt>
      <trkpt lat="42.92111" lon="3.05688">
        <ele>27.144297</ele>
        <time>2022-08-30T18:07:50.992Z</time>
      </trkpt>
      <trkpt lat="42.92133" lon="3.0565">
        <ele>27.146032</ele>
        <time>2022-08-30T18:08:01.683Z</time>
      </trkpt>
      <trkpt lat="42.92185" lon="3.05574">
        <ele>27.031592</ele>
        <time>2022-08-30T18:08:24.877Z</time>
      </trkpt>
      <trkpt lat="42.92188" lon="3.0556">
        <ele>26.936716</ele>
        <time>2022-08-30T18:08:27.798Z</time>
      </trkpt>
      <trkpt lat="42.92205" lon="3.05539">
        <ele>26.734591</ele>
        <time>2022-08-30T18:08:35.601Z</time>
      </trkpt>
      <trkpt lat="42.92223" lon="3.05519">
        <ele>26.527881</ele>
        <time>2022-08-30T18:08:42.296Z</time>
      </trkpt>
      <trkpt lat="42.92269" lon="3.05456">
        <ele>25.959588</ele>
        <time>2022-08-30T18:09:01.625Z</time>
      </trkpt>
      <trkpt lat="42.92288" lon="3.0544">
        <ele>25.767702</ele>
        <time>2022-08-30T18:09:07.918Z</time>
      </trkpt>
      <trkpt lat="42.92311" lon="3.05407">
        <ele>25.544251</ele>
        <time>2022-08-30T18:09:17.648Z</time>
      </trkpt>
      <trkpt lat="42.92334" lon="3.05391">
        <ele>25.481675</ele>
        <time>2022-08-30T18:09:25.033Z</time>
      </trkpt>
      <trkpt lat="42.92359" lon="3.05383">
        <ele>25.419581</ele>
        <time>2022-08-30T18:09:32.180Z</time>
      </trkpt>
      <trkpt lat="42.92399" lon="3.05386">
        <ele>25.322096</ele>
        <time>2022-08-30T18:09:43.341Z</time>
      </trkpt>
      <trkpt lat="42.92421" lon="3.0538">
        <ele>25.268842</ele>
        <time>2022-08-30T18:09:49.010Z</time>
      </trkpt>
      <trkpt lat="42.92482" lon="3.05366">
        <ele>25.497951</ele>
        <time>2022-08-30T18:10:16.951Z</time>
      </trkpt>
      <trkpt lat="42.92485" lon="3.05364">
        <ele>25.647622</ele>
        <time>2022-08-30T18:10:19.245Z</time>
      </trkpt>
      <trkpt lat="42.92486" lon="3.05367">
        <ele>25.74502</ele>
        <time>2022-08-30T18:10:20.117Z</time>
      </trkpt>
      <trkpt lat="42.92501" lon="3.05371">
        <ele>26.49966</ele>
        <time>2022-08-30T18:10:26.824Z</time>
      </trkpt>
      <trkpt lat="42.92521" lon="3.05374">
        <ele>27.454875</ele>
        <time>2022-08-30T18:10:35.309Z</time>
      </trkpt>
      <trkpt lat="42.92546" lon="3.0538">
        <ele>28.691798</ele>
        <time>2022-08-30T18:10:46.303Z</time>
      </trkpt>
      <trkpt lat="42.92562" lon="3.05377">
        <ele>29.445617</ele>
        <time>2022-08-30T18:10:52.995Z</time>
      </trkpt>
      <trkpt lat="42.92549" lon="3.05333">
        <ele>31.115555</ele>
        <time>2022-08-30T18:11:07.844Z</time>
      </trkpt>
      <trkpt lat="42.92544" lon="3.05299">
        <ele>32.322419</ele>
        <time>2022-08-30T18:11:18.584Z</time>
      </trkpt>
      <trkpt lat="42.92552" lon="3.05258">
        <ele>33.852881</ele>
        <time>2022-08-30T18:11:32.163Z</time>
      </trkpt>
      <trkpt lat="42.92553" lon="3.0525">
        <ele>34.156413</ele>
        <time>2022-08-30T18:11:34.714Z</time>
      </trkpt>
      <trkpt lat="42.92565" lon="3.0518">
        <ele>36.819788</ele>
        <time>2022-08-30T18:12:10.038Z</time>
      </trkpt>
      <trkpt lat="42.92578" lon="3.05063">
        <ele>41.268024</ele>
        <time>2022-08-30T18:13:02.329Z</time>
      </trkpt>
      <trkpt lat="42.92597" lon="3.05013">
        <ele>43.129828</ele>
        <time>2022-08-30T18:13:18.808Z</time>
      </trkpt>
      <trkpt lat="42.92616" lon="3.04971">
        <ele>43.719761</ele>
        <time>2022-08-30T18:13:32.548Z</time>
      </trkpt>
      <trkpt lat="42.92647" lon="3.04885">
        <ele>44.872911</ele>
        <time>2022-08-30T18:13:59.655Z</time>
      </trkpt>
      <trkpt lat="42.92689" lon="3.04787">
        <ele>46.21933</ele>
        <time>2022-08-30T18:14:32.744Z</time>
      </trkpt>
      <trkpt lat="42.92694" lon="3.04773">
        <ele>46.387746</ele>
        <time>2022-08-30T18:14:37.076Z</time>
      </trkpt>
      <trkpt lat="42.92715" lon="3.04694">
        <ele>47.309023</ele>
        <time>2022-08-30T18:15:00.107Z</time>
      </trkpt>
      <trkpt lat="42.92717" lon="3.04662">
        <ele>47.663269</ele>
        <time>2022-08-30T18:15:09.222Z</time>
      </trkpt>
      <trkpt lat="42.92718" lon="3.04628">
        <ele>48.025745</ele>
        <time>2022-08-30T18:15:18.816Z</time>
      </trkpt>
      <trkpt lat="42.92731" lon="3.04574">
        <ele>48.655461</ele>
        <time>2022-08-30T18:15:36.829Z</time>
      </trkpt>
      <trkpt lat="42.92742" lon="3.04533">
        <ele>48.904317</ele>
        <time>2022-08-30T18:15:50.533Z</time>
      </trkpt>
      <trkpt lat="42.92771" lon="3.0445">
        <ele>49.438631</ele>
        <time>2022-08-30T18:16:14.627Z</time>
      </trkpt>
      <trkpt lat="42.92765" lon="3.04422">
        <ele>49.603711</ele>
        <time>2022-08-30T18:16:21.681Z</time>
      </trkpt>
      <trkpt lat="42.92787" lon="3.04354">
        <ele>50.033279</ele>
        <time>2022-08-30T18:16:38.816Z</time>
      </trkpt>
      <trkpt lat="42.92792" lon="3.04338">
        <ele>49.986691</ele>
        <time>2022-08-30T18:16:43.569Z</time>
      </trkpt>
      <trkpt lat="42.92821" lon="3.04265">
        <ele>49.279366</ele>
        <time>2022-08-30T18:17:02.606Z</time>
      </trkpt>
      <trkpt lat="42.92825" lon="3.0418">
        <ele>48.545333</ele>
        <time>2022-08-30T18:17:20.972Z</time>
      </trkpt>
      <trkpt lat="42.92852" lon="3.04044">
        <ele>45.3605</ele>
        <time>2022-08-30T18:17:47.833Z</time>
      </trkpt>
      <trkpt lat="42.92871" lon="3.03988">
        <ele>43.182116</ele>
        <time>2022-08-30T18:17:59.535Z</time>
      </trkpt>
      <trkpt lat="42.92935" lon="3.03892">
        <ele>37.988364</ele>
        <time>2022-08-30T18:18:21.434Z</time>
      </trkpt>
      <trkpt lat="42.92947" lon="3.03885">
        <ele>36.82269</ele>
        <time>2022-08-30T18:18:37.385Z</time>
      </trkpt>
      <trkpt lat="42.92947" lon="3.03885">
        <ele>36.788217</ele>
        <time>2022-08-30T18:18:37.844Z</time>
      </trkpt>
      <trkpt lat="42.92951" lon="3.03856">
        <ele>34.819268</ele>
        <time>2022-08-30T18:19:04.727Z</time>
      </trkpt>
      <trkpt lat="42.92974" lon="3.03822">
        <ele>31.750345</ele>
        <time>2022-08-30T18:19:46.625Z</time>
      </trkpt>
      <trkpt lat="42.92994" lon="3.03836">
        <ele>29.77817</ele>
        <time>2022-08-30T18:20:13.564Z</time>
      </trkpt>
      <trkpt lat="42.93027" lon="3.03839">
        <ele>26.775622</ele>
        <time>2022-08-30T18:20:17.788Z</time>
      </trkpt>
      <trkpt lat="42.93053" lon="3.03806">
        <ele>23.531529</ele>
        <time>2022-08-30T18:20:22.390Z</time>
      </trkpt>
      <trkpt lat="42.93072" lon="3.03796">
        <ele>21.955575</ele>
        <time>2022-08-30T18:20:24.976Z</time>
      </trkpt>
      <trkpt lat="42.93107" lon="3.03742">
        <ele>18.055</ele>
        <time>2022-08-30T18:20:31.796Z</time>
      </trkpt>
      <trkpt lat="42.93145" lon="3.03698">
        <ele>14.429112</ele>
        <time>2022-08-30T18:20:38.351Z</time>
      </trkpt>
      <trkpt lat="42.93176" lon="3.03656">
        <ele>11.257635</ele>
        <time>2022-08-30T18:20:44.423Z</time>
      </trkpt>
      <trkpt lat="42.93192" lon="3.03673">
        <ele>9.816588</ele>
        <time>2022-08-30T18:20:47.242Z</time>
      </trkpt>
      <trkpt lat="42.93157" lon="3.03726">
        <ele>8.314425</ele>
        <time>2022-08-30T18:20:54.898Z</time>
      </trkpt>
      <trkpt lat="42.93178" lon="3.03757">
        <ele>7.431303</ele>
        <time>2022-08-30T18:20:59.734Z</time>
      </trkpt>
      <trkpt lat="42.93261" lon="3.03655">
        <ele>4.555482</ele>
        <time>2022-08-30T18:21:17.747Z</time>
      </trkpt>
      <trkpt lat="42.93276" lon="3.03636">
        <ele>4.362082</ele>
        <time>2022-08-30T18:21:21.183Z</time>
      </trkpt>
      <trkpt lat="42.93323" lon="3.03572">
        <ele>3.739126</ele>
        <time>2022-08-30T18:21:33.193Z</time>
      </trkpt>
      <trkpt lat="42.93338" lon="3.03541">
        <ele>3.477005</ele>
        <time>2022-08-30T18:21:38.512Z</time>
      </trkpt>
      <trkpt lat="42.93365" lon="3.03443">
        <ele>3.01727</ele>
        <time>2022-08-30T18:21:53.295Z</time>
      </trkpt>
      <trkpt lat="42.93413" lon="3.03369">
        <ele>3.050132</ele>
        <time>2022-08-30T18:22:07.788Z</time>
      </trkpt>
      <trkpt lat="42.93482" lon="3.03245">
        <ele>3.055125</ele>
        <time>2022-08-30T18:22:32.696Z</time>
      </trkpt>
      <trkpt lat="42.93498" lon="3.0323">
        <ele>3.036179</ele>
        <time>2022-08-30T18:22:36.576Z</time>
      </trkpt>
      <trkpt lat="42.93507" lon="3.03231">
        <ele>3.028079</ele>
        <time>2022-08-30T18:22:38.216Z</time>
      </trkpt>
      <trkpt lat="42.9351" lon="3.03216">
        <ele>3.016573</ele>
        <time>2022-08-30T18:22:40.548Z</time>
      </trkpt>
      <trkpt lat="42.9353" lon="3.0319">
        <ele>2.989759</ele>
        <time>2022-08-30T18:22:45.865Z</time>
      </trkpt>
      <trkpt lat="42.93534" lon="3.03184">
        <ele>2.984519</ele>
        <time>2022-08-30T18:22:46.918Z</time>
      </trkpt>
      <trkpt lat="42.93572" lon="3.03125">
        <ele>2.928226</ele>
        <time>2022-08-30T18:22:58.137Z</time>
      </trkpt>
      <trkpt lat="42.93594" lon="3.03089">
        <ele>2.91938</ele>
        <time>2022-08-30T18:23:05.017Z</time>
      </trkpt>
      <trkpt lat="42.93662" lon="3.02988">
        <ele>2.958322</ele>
        <time>2022-08-30T18:23:26.221Z</time>
      </trkpt>
      <trkpt lat="42.93692" lon="3.02941">
        <ele>2.976198</ele>
        <time>2022-08-30T18:23:35.413Z</time>
      </trkpt>
      <trkpt lat="42.93717" lon="3.02893">
        <ele>2.869865</ele>
        <time>2022-08-30T18:23:44.183Z</time>
      </trkpt>
      <trkpt lat="42.93723" lon="3.02865">
        <ele>2.781307</ele>
        <time>2022-08-30T18:23:48.441Z</time>
      </trkpt>
      <trkpt lat="42.93722" lon="3.02817">
        <ele>2.634778</ele>
        <time>2022-08-30T18:23:55.319Z</time>
      </trkpt>
      <trkpt lat="42.93721" lon="3.028">
        <ele>2.581519</ele>
        <time>2022-08-30T18:23:57.814Z</time>
      </trkpt>
      <trkpt lat="42.93727" lon="3.02791">
        <ele>2.545419</ele>
        <time>2022-08-30T18:23:59.423Z</time>
      </trkpt>
      <trkpt lat="42.93726" lon="3.02784">
        <ele>2.523768</ele>
        <time>2022-08-30T18:24:00.476Z</time>
      </trkpt>
      <trkpt lat="42.9377" lon="3.02679">
        <ele>2.153037</ele>
        <time>2022-08-30T18:24:16.703Z</time>
      </trkpt>
      <trkpt lat="42.93798" lon="3.02636">
        <ele>1.9746</ele>
        <time>2022-08-30T18:24:24.212Z</time>
      </trkpt>
      <trkpt lat="42.93808" lon="3.02628">
        <ele>1.925229</ele>
        <time>2022-08-30T18:24:26.337Z</time>
      </trkpt>
      <trkpt lat="42.93824" lon="3.02624">
        <ele>1.854206</ele>
        <time>2022-08-30T18:24:29.665Z</time>
      </trkpt>
      <trkpt lat="42.93849" lon="3.02651">
        <ele>1.717489</ele>
        <time>2022-08-30T18:24:35.954Z</time>
      </trkpt>
      <trkpt lat="42.93867" lon="3.02669">
        <ele>1.62482</ele>
        <time>2022-08-30T18:24:40.203Z</time>
      </trkpt>
      <trkpt lat="42.93954" lon="3.0276">
        <ele>1.468659</ele>
        <time>2022-08-30T18:25:02.176Z</time>
      </trkpt>
      <trkpt lat="42.93987" lon="3.02767">
        <ele>1.468615</ele>
        <time>2022-08-30T18:25:08.893Z</time>
      </trkpt>
      <trkpt lat="42.9402" lon="3.02771">
        <ele>1.468572</ele>
        <time>2022-08-30T18:25:16.257Z</time>
      </trkpt>
      <trkpt lat="42.94033" lon="3.02771">
        <ele>1.468555</ele>
        <time>2022-08-30T18:25:19.171Z</time>
      </trkpt>
      <trkpt lat="42.94139" lon="3.02785">
        <ele>1.476477</ele>
        <time>2022-08-30T18:25:42.163Z</time>
      </trkpt>
      <trkpt lat="42.94147" lon="3.02786">
        <ele>1.477269</ele>
        <time>2022-08-30T18:25:43.814Z</time>
      </trkpt>
      <trkpt lat="42.94203" lon="3.02804">
        <ele>1.482982</ele>
        <time>2022-08-30T18:25:55.860Z</time>
      </trkpt>
      <trkpt lat="42.94229" lon="3.02804">
        <ele>1.485544</ele>
        <time>2022-08-30T18:26:01.364Z</time>
      </trkpt>
      <trkpt lat="42.94245" lon="3.02804">
        <ele>1.508109</ele>
        <time>2022-08-30T18:26:04.974Z</time>
      </trkpt>
      <trkpt lat="42.94298" lon="3.02794">
        <ele>1.666403</ele>
        <time>2022-08-30T18:26:17.084Z</time>
      </trkpt>
      <trkpt lat="42.9432" lon="3.02857">
        <ele>1.817379</ele>
        <time>2022-08-30T18:26:28.359Z</time>
      </trkpt>
      <trkpt lat="42.94335" lon="3.02934">
        <ele>1.990288</ele>
        <time>2022-08-30T18:26:41.017Z</time>
      </trkpt>
      <trkpt lat="42.94331" lon="3.02938">
        <ele>2.004581</ele>
        <time>2022-08-30T18:26:42.594Z</time>
      </trkpt>
      <trkpt lat="42.94298" lon="3.03006">
        <ele>2.137455</ele>
        <time>2022-08-30T18:27:02.824Z</time>
      </trkpt>
      <trkpt lat="42.94365" lon="3.03038">
        <ele>2.28815</ele>
        <time>2022-08-30T18:27:26.316Z</time>
      </trkpt>
      <trkpt lat="42.94357" lon="3.03077">
        <ele>2.350928</ele>
        <time>2022-08-30T18:27:32.573Z</time>
      </trkpt>
      <trkpt lat="42.94345" lon="3.03103">
        <ele>2.39731</ele>
        <time>2022-08-30T18:27:37.203Z</time>
      </trkpt>
      <trkpt lat="42.94344" lon="3.03105">
        <ele>2.402111</ele>
        <time>2022-08-30T18:27:37.699Z</time>
      </trkpt>
      <trkpt lat="42.94326" lon="3.03144">
        <ele>2.225951</ele>
        <time>2022-08-30T18:27:44.527Z</time>
      </trkpt>
      <trkpt lat="42.94323" lon="3.0315">
        <ele>2.200939</ele>
        <time>2022-08-30T18:27:45.494Z</time>
      </trkpt>
      <trkpt lat="42.94322" lon="3.032">
        <ele>2.005743</ele>
        <time>2022-08-30T18:27:52.443Z</time>
      </trkpt>
      <trkpt lat="42.94308" lon="3.03193">
        <ele>1.927192</ele>
        <time>2022-08-30T18:27:55.870Z</time>
      </trkpt>
      <trkpt lat="42.94295" lon="3.03241">
        <ele>1.730459</ele>
        <time>2022-08-30T18:28:06.928Z</time>
      </trkpt>
      <trkpt lat="42.94309" lon="3.03272">
        <ele>1.590201</ele>
        <time>2022-08-30T18:28:13.204Z</time>
      </trkpt>
      <trkpt lat="42.94288" lon="3.03312">
        <ele>1.386926</ele>
        <time>2022-08-30T18:28:20.030Z</time>
      </trkpt>
      <trkpt lat="42.94282" lon="3.03332">
        <ele>1.290554</ele>
        <time>2022-08-30T18:28:24.683Z</time>
      </trkpt>
      <trkpt lat="42.94279" lon="3.03364">
        <ele>1.146771</ele>
        <time>2022-08-30T18:28:34.648Z</time>
      </trkpt>
      <trkpt lat="42.94337" lon="3.03437">
        <ele>0.659569</ele>
        <time>2022-08-30T18:29:08.395Z</time>
      </trkpt>
      <trkpt lat="42.94395" lon="3.0351">
        <ele>0.296249</ele>
        <time>2022-08-30T18:29:42.140Z</time>
      </trkpt>
      <trkpt lat="42.94453" lon="3.03583">
        <ele>0.159418</ele>
        <time>2022-08-30T18:30:15.885Z</time>
      </trkpt>
      <trkpt lat="42.94529" lon="3.03631">
        <ele>0.030761</ele>
        <time>2022-08-30T18:30:51.851Z</time>
      </trkpt>
      <trkpt lat="42.94606" lon="3.0368">
        <ele>0.015421</ele>
        <time>2022-08-30T18:31:27.816Z</time>
      </trkpt>
      <trkpt lat="42.94682" lon="3.03728">
        <ele>0.000103</ele>
        <time>2022-08-30T18:32:03.780Z</time>
      </trkpt>
      <trkpt lat="42.94758" lon="3.03777">
        <time>2022-08-30T18:32:39.745Z</time>
      </trkpt>
      <trkpt lat="42.94835" lon="3.03799">
        <time>2022-08-30T18:33:13.555Z</time>
      </trkpt>
      <trkpt lat="42.94913" lon="3.03822">
        <time>2022-08-30T18:33:47.364Z</time>
      </trkpt>
      <trkpt lat="42.9499" lon="3.03845">
        <time>2022-08-30T18:34:21.173Z</time>
      </trkpt>
      <trkpt lat="42.95067" lon="3.03867">
        <time>2022-08-30T18:34:54.982Z</time>
      </trkpt>
      <trkpt lat="42.95154" lon="3.03891">
        <time>2022-08-30T18:35:32.716Z</time>
      </trkpt>
      <trkpt lat="42.9524" lon="3.03915">
        <time>2022-08-30T18:36:10.451Z</time>
      </trkpt>
      <trkpt lat="42.95327" lon="3.03938">
        <time>2022-08-30T18:36:48.184Z</time>
      </trkpt>
      <trkpt lat="42.95413" lon="3.03962">
        <time>2022-08-30T18:37:25.918Z</time>
      </trkpt>
      <trkpt lat="42.955" lon="3.03986">
        <time>2022-08-30T18:38:03.653Z</time>
      </trkpt>
      <trkpt lat="42.95586" lon="3.04009">
        <time>2022-08-30T18:38:41.387Z</time>
      </trkpt>
      <trkpt lat="42.95673" lon="3.04033">
        <time>2022-08-30T18:39:19.120Z</time>
      </trkpt>
      <trkpt lat="42.95759" lon="3.04057">
        <time>2022-08-30T18:39:56.854Z</time>
      </trkpt>
      <trkpt lat="42.95846" lon="3.0408">
        <time>2022-08-30T18:40:34.589Z</time>
      </trkpt>
      <trkpt lat="42.95932" lon="3.04104">
        <time>2022-08-30T18:41:12.323Z</time>
      </trkpt>
      <trkpt lat="42.96019" lon="3.04128">
        <time>2022-08-30T18:41:50.056Z</time>
      </trkpt>
      <trkpt lat="42.96101" lon="3.04149">
        <time>2022-08-30T18:42:26.068Z</time>
      </trkpt>
      <trkpt lat="42.96184" lon="3.04171">
        <time>2022-08-30T18:43:02.081Z</time>
      </trkpt>
      <trkpt lat="42.96267" lon="3.04192">
        <ele>1</ele>
        <time>2022-08-30T18:43:38.094Z</time>
      </trkpt>
      <trkpt lat="42.9635" lon="3.04213">
        <ele>1</ele>
        <time>2022-08-30T18:44:14.107Z</time>
      </trkpt>
      <trkpt lat="42.96432" lon="3.04235">
        <ele>1</ele>
        <time>2022-08-30T18:44:50.119Z</time>
      </trkpt>
      <trkpt lat="42.96515" lon="3.04256">
        <ele>1</ele>
        <time>2022-08-30T18:45:26.132Z</time>
      </trkpt>
      <trkpt lat="42.96598" lon="3.04277">
        <ele>1</ele>
        <time>2022-08-30T18:46:02.145Z</time>
      </trkpt>
      <trkpt lat="42.96681" lon="3.04299">
        <ele>1</ele>
        <time>2022-08-30T18:46:38.157Z</time>
      </trkpt>
      <trkpt lat="42.96763" lon="3.0432">
        <time>2022-08-30T18:47:14.168Z</time>
      </trkpt>
      <trkpt lat="42.96845" lon="3.0433">
        <time>2022-08-30T18:47:49.380Z</time>
      </trkpt>
      <trkpt lat="42.96927" lon="3.0434">
        <time>2022-08-30T18:48:24.591Z</time>
      </trkpt>
      <trkpt lat="42.97009" lon="3.04351">
        <time>2022-08-30T18:48:59.803Z</time>
      </trkpt>
      <trkpt lat="42.97091" lon="3.04361">
        <time>2022-08-30T18:49:35.015Z</time>
      </trkpt>
      <trkpt lat="42.97173" lon="3.04371">
        <time>2022-08-30T18:50:10.226Z</time>
      </trkpt>
      <trkpt lat="42.97255" lon="3.04381">
        <time>2022-08-30T18:50:45.436Z</time>
      </trkpt>
      <trkpt lat="42.97337" lon="3.04392">
        <time>2022-08-30T18:51:20.648Z</time>
      </trkpt>
      <trkpt lat="42.97419" lon="3.04402">
        <time>2022-08-30T18:51:55.859Z</time>
      </trkpt>
      <trkpt lat="42.97501" lon="3.04412">
        <time>2022-08-30T18:52:31.071Z</time>
      </trkpt>
      <trkpt lat="42.97583" lon="3.04422">
        <time>2022-08-30T18:53:06.282Z</time>
      </trkpt>
      <trkpt lat="42.97665" lon="3.04433">
        <ele>1</ele>
        <time>2022-08-30T18:53:41.494Z</time>
      </trkpt>
      <trkpt lat="42.97724" lon="3.04501">
        <ele>1</ele>
        <time>2022-08-30T18:54:14.569Z</time>
      </trkpt>
      <trkpt lat="42.97783" lon="3.04569">
        <ele>1</ele>
        <time>2022-08-30T18:54:47.647Z</time>
      </trkpt>
      <trkpt lat="42.97849" lon="3.04624">
        <ele>1</ele>
        <time>2022-08-30T18:55:20.456Z</time>
      </trkpt>
      <trkpt lat="42.97914" lon="3.0468">
        <ele>1</ele>
        <time>2022-08-30T18:55:53.265Z</time>
      </trkpt>
      <trkpt lat="42.97979" lon="3.04735">
        <ele>1</ele>
        <time>2022-08-30T18:56:26.074Z</time>
      </trkpt>
      <trkpt lat="42.98044" lon="3.0479">
        <ele>1</ele>
        <time>2022-08-30T18:56:58.882Z</time>
      </trkpt>
      <trkpt lat="42.98113" lon="3.04813">
        <ele>1</ele>
        <time>2022-08-30T18:57:29.033Z</time>
      </trkpt>
      <trkpt lat="42.98181" lon="3.04836">
        <ele>1</ele>
        <time>2022-08-30T18:57:59.186Z</time>
      </trkpt>
      <trkpt lat="42.9826" lon="3.04853">
        <time>2022-08-30T18:58:33.367Z</time>
      </trkpt>
      <trkpt lat="42.98339" lon="3.0487">
        <ele>1</ele>
        <time>2022-08-30T18:59:07.548Z</time>
      </trkpt>
      <trkpt lat="42.98418" lon="3.04887">
        <ele>1</ele>
        <time>2022-08-30T18:59:41.729Z</time>
      </trkpt>
      <trkpt lat="42.98497" lon="3.04904">
        <ele>1</ele>
        <time>2022-08-30T19:00:15.910Z</time>
      </trkpt>
      <trkpt lat="42.98576" lon="3.04922">
        <ele>1</ele>
        <time>2022-08-30T19:00:50.091Z</time>
      </trkpt>
      <trkpt lat="42.98655" lon="3.04939">
        <ele>1</ele>
        <time>2022-08-30T19:01:24.272Z</time>
      </trkpt>
      <trkpt lat="42.98734" lon="3.04956">
        <ele>1</ele>
        <time>2022-08-30T19:01:58.453Z</time>
      </trkpt>
      <trkpt lat="42.98813" lon="3.04973">
        <ele>1</ele>
        <time>2022-08-30T19:02:32.632Z</time>
      </trkpt>
      <trkpt lat="42.98806" lon="3.0501">
        <ele>1</ele>
        <time>2022-08-30T19:02:44.438Z</time>
      </trkpt>
      <trkpt lat="42.98837" lon="3.0502">
        <ele>1</ele>
        <time>2022-08-30T19:02:54.518Z</time>
      </trkpt>
      <trkpt lat="42.98939" lon="3.05033">
        <ele>1</ele>
        <time>2022-08-30T19:03:27.056Z</time>
      </trkpt>
      <trkpt lat="42.9915" lon="3.05102">
        <ele>1</ele>
        <time>2022-08-30T19:04:35.933Z</time>
      </trkpt>
      <trkpt lat="42.9927" lon="3.05129">
        <ele>1</ele>
        <time>2022-08-30T19:05:14.701Z</time>
      </trkpt>
      <trkpt lat="42.99404" lon="3.05144">
        <ele>1</ele>
        <time>2022-08-30T19:05:57.357Z</time>
      </trkpt>
      <trkpt lat="42.99664" lon="3.05293">
        <ele>1</ele>
        <time>2022-08-30T19:07:26.857Z</time>
      </trkpt>
      <trkpt lat="42.99712" lon="3.05315">
        <time>2022-08-30T19:07:42.893Z</time>
      </trkpt>
      <trkpt lat="42.99722" lon="3.05271">
        <time>2022-08-30T19:07:57.346Z</time>
      </trkpt>
      <trkpt lat="42.99796" lon="3.05282">
        <time>2022-08-30T19:08:29.110Z</time>
      </trkpt>
      <trkpt lat="42.9987" lon="3.05293">
        <time>2022-08-30T19:09:00.875Z</time>
      </trkpt>
      <trkpt lat="42.99944" lon="3.05304">
        <time>2022-08-30T19:09:32.640Z</time>
      </trkpt>
      <trkpt lat="43.0003" lon="3.05332">
        <time>2022-08-30T19:10:10.704Z</time>
      </trkpt>
      <trkpt lat="43.00117" lon="3.0536">
        <time>2022-08-30T19:10:48.770Z</time>
      </trkpt>
      <trkpt lat="43.00203" lon="3.05388">
        <ele>0.000444</ele>
        <time>2022-08-30T19:11:26.834Z</time>
      </trkpt>
      <trkpt lat="43.00258" lon="3.05402">
        <ele>0.002742</ele>
        <time>2022-08-30T19:11:50.617Z</time>
      </trkpt>
      <trkpt lat="43.00313" lon="3.05417">
        <ele>0.005036</ele>
        <time>2022-08-30T19:12:14.398Z</time>
      </trkpt>
      <trkpt lat="43.00308" lon="3.05416">
        <ele>0.005243</ele>
        <time>2022-08-30T19:12:16.520Z</time>
      </trkpt>
      <trkpt lat="43.00318" lon="3.05417">
        <ele>0.005649</ele>
        <time>2022-08-30T19:12:19.640Z</time>
      </trkpt>
      <trkpt lat="43.00377" lon="3.05427">
        <ele>0.026252</ele>
        <time>2022-08-30T19:12:38.673Z</time>
      </trkpt>
      <trkpt lat="43.00386" lon="3.05431">
        <ele>0.036924</ele>
        <time>2022-08-30T19:12:41.698Z</time>
      </trkpt>
      <trkpt lat="43.00533" lon="3.05481">
        <ele>0.205788</ele>
        <time>2022-08-30T19:13:30.078Z</time>
      </trkpt>
      <trkpt lat="43.00555" lon="3.05477">
        <ele>0.274274</ele>
        <time>2022-08-30T19:13:37.522Z</time>
      </trkpt>
      <trkpt lat="43.00606" lon="3.05489">
        <ele>0.449065</ele>
        <time>2022-08-30T19:13:55.785Z</time>
      </trkpt>
      <trkpt lat="43.00675" lon="3.05536">
        <ele>0.707555</ele>
        <time>2022-08-30T19:14:21.966Z</time>
      </trkpt>
      <trkpt lat="43.00712" lon="3.05562">
        <ele>0.804599</ele>
        <time>2022-08-30T19:14:35.523Z</time>
      </trkpt>
      <trkpt lat="43.007" lon="3.05587">
        <ele>0.790066</ele>
        <time>2022-08-30T19:14:42.686Z</time>
      </trkpt>
      <trkpt lat="43.00637" lon="3.05754">
        <ele>0.700247</ele>
        <time>2022-08-30T19:15:25.833Z</time>
      </trkpt>
      <trkpt lat="43.0062" lon="3.05792">
        <ele>0.648515</ele>
        <time>2022-08-30T19:15:35.770Z</time>
      </trkpt>
      <trkpt lat="43.00624" lon="3.05802">
        <ele>0.632058</ele>
        <time>2022-08-30T19:15:38.280Z</time>
      </trkpt>
      <trkpt lat="43.00657" lon="3.05824">
        <ele>0.558961</ele>
        <time>2022-08-30T19:15:47.229Z</time>
      </trkpt>
      <trkpt lat="43.00692" lon="3.05849">
        <ele>0.479228</ele>
        <time>2022-08-30T19:15:57.061Z</time>
      </trkpt>
      <trkpt lat="43.00691" lon="3.05857">
        <ele>0.466652</ele>
        <time>2022-08-30T19:15:58.359Z</time>
      </trkpt>
      <trkpt lat="43.00749" lon="3.059">
        <ele>0.333836</ele>
        <time>2022-08-30T19:16:11.377Z</time>
      </trkpt>
      <trkpt lat="43.00752" lon="3.05892">
        <ele>0.326404</ele>
        <time>2022-08-30T19:16:12.681Z</time>
      </trkpt>
      <trkpt lat="43.00826" lon="3.05942">
        <ele>0.229316</ele>
        <time>2022-08-30T19:16:29.153Z</time>
      </trkpt>
      <trkpt lat="43.00823" lon="3.05949">
        <ele>0.222265</ele>
        <time>2022-08-30T19:16:30.308Z</time>
      </trkpt>
      <trkpt lat="43.00881" lon="3.05991">
        <ele>0.144574</ele>
        <time>2022-08-30T19:16:43.653Z</time>
      </trkpt>
      <trkpt lat="43.00883" lon="3.05986">
        <ele>0.140063</ele>
        <time>2022-08-30T19:16:44.359Z</time>
      </trkpt>
      <trkpt lat="43.00935" lon="3.06022">
        <ele>0.150834</ele>
        <time>2022-08-30T19:16:55.541Z</time>
      </trkpt>
      <trkpt lat="43.00933" lon="3.06028">
        <ele>0.154399</ele>
        <time>2022-08-30T19:16:56.446Z</time>
      </trkpt>
      <trkpt lat="43.00999" lon="3.06077">
        <ele>0.208459</ele>
        <time>2022-08-30T19:17:11.249Z</time>
      </trkpt>
      <trkpt lat="43.01001" lon="3.06074">
        <ele>0.210369</ele>
        <time>2022-08-30T19:17:11.862Z</time>
      </trkpt>
      <trkpt lat="43.01085" lon="3.06133">
        <ele>0.497066</ele>
        <time>2022-08-30T19:17:34.500Z</time>
      </trkpt>
      <trkpt lat="43.01142" lon="3.06173">
        <ele>0.892538</ele>
        <time>2022-08-30T19:17:49.117Z</time>
      </trkpt>
      <trkpt lat="43.012" lon="3.06214">
        <ele>1.298329</ele>
        <time>2022-08-30T19:18:03.633Z</time>
      </trkpt>
      <trkpt lat="43.01302" lon="3.06286">
        <ele>2.108199</ele>
        <time>2022-08-30T19:18:32.908Z</time>
      </trkpt>
      <trkpt lat="43.01369" lon="3.06332">
        <ele>2.645114</ele>
        <time>2022-08-30T19:18:49.356Z</time>
      </trkpt>
      <trkpt lat="43.01372" lon="3.06323">
        <ele>2.677874</ele>
        <time>2022-08-30T19:18:51.472Z</time>
      </trkpt>
      <trkpt lat="43.01367" lon="3.0632">
        <ele>2.699638</ele>
        <time>2022-08-30T19:18:52.601Z</time>
      </trkpt>
      <trkpt lat="43.01371" lon="3.06309">
        <ele>2.731291</ele>
        <time>2022-08-30T19:18:54.439Z</time>
      </trkpt>
      <trkpt lat="43.01392" lon="3.06255">
        <ele>2.901411</ele>
        <time>2022-08-30T19:19:04.678Z</time>
      </trkpt>
      <trkpt lat="43.01411" lon="3.06268">
        <ele>2.980679</ele>
        <time>2022-08-30T19:19:09.592Z</time>
      </trkpt>
      <trkpt lat="43.01459" lon="3.06303">
        <ele>3.186673</ele>
        <time>2022-08-30T19:19:22.112Z</time>
      </trkpt>
      <trkpt lat="43.01494" lon="3.0621">
        <ele>3.294036</ele>
        <time>2022-08-30T19:19:36.898Z</time>
      </trkpt>
      <trkpt lat="43.01524" lon="3.06142">
        <ele>3.232825</ele>
        <time>2022-08-30T19:19:47.525Z</time>
      </trkpt>
      <trkpt lat="43.01549" lon="3.06101">
        <ele>3.192051</ele>
        <time>2022-08-30T19:19:54.721Z</time>
      </trkpt>
      <trkpt lat="43.01564" lon="3.06079">
        <ele>3.1685</ele>
        <time>2022-08-30T19:19:58.867Z</time>
      </trkpt>
      <trkpt lat="43.01579" lon="3.06057">
        <ele>3.145326</ele>
        <time>2022-08-30T19:20:03.074Z</time>
      </trkpt>
      <trkpt lat="43.01595" lon="3.06035">
        <ele>3.191937</ele>
        <time>2022-08-30T19:20:07.584Z</time>
      </trkpt>
      <trkpt lat="43.01609" lon="3.06017">
        <ele>3.232736</ele>
        <time>2022-08-30T19:20:11.489Z</time>
      </trkpt>
      <trkpt lat="43.01626" lon="3.06">
        <ele>3.2788</ele>
        <time>2022-08-30T19:20:15.915Z</time>
      </trkpt>
      <trkpt lat="43.01647" lon="3.05981">
        <ele>3.332107</ele>
        <time>2022-08-30T19:20:21.007Z</time>
      </trkpt>
      <trkpt lat="43.0168" lon="3.05952">
        <ele>3.417725</ele>
        <time>2022-08-30T19:20:29.097Z</time>
      </trkpt>
      <trkpt lat="43.01731" lon="3.05902">
        <ele>3.547354</ele>
        <time>2022-08-30T19:20:41.816Z</time>
      </trkpt>
      <trkpt lat="43.01739" lon="3.05894">
        <ele>3.56273</ele>
        <time>2022-08-30T19:20:43.856Z</time>
      </trkpt>
      <trkpt lat="43.01795" lon="3.05827">
        <ele>3.682867</ele>
        <time>2022-08-30T19:20:59.344Z</time>
      </trkpt>
      <trkpt lat="43.01811" lon="3.05802">
        <ele>3.721728</ele>
        <time>2022-08-30T19:21:04.321Z</time>
      </trkpt>
      <trkpt lat="43.01872" lon="3.05691">
        <ele>3.787506</ele>
        <time>2022-08-30T19:21:23.556Z</time>
      </trkpt>
      <trkpt lat="43.01924" lon="3.05568">
        <ele>3.698671</ele>
        <time>2022-08-30T19:21:43.069Z</time>
      </trkpt>
      <trkpt lat="43.01965" lon="3.05445">
        <ele>3.809709</ele>
        <time>2022-08-30T19:22:02.438Z</time>
      </trkpt>
      <trkpt lat="43.01998" lon="3.05331">
        <ele>4.013798</ele>
        <time>2022-08-30T19:22:21.222Z</time>
      </trkpt>
      <trkpt lat="43.0201" lon="3.05292">
        <ele>4.072912</ele>
        <time>2022-08-30T19:22:27.555Z</time>
      </trkpt>
      <trkpt lat="43.02036" lon="3.05184">
        <ele>3.940646</ele>
        <time>2022-08-30T19:22:43.915Z</time>
      </trkpt>
      <trkpt lat="43.02071" lon="3.05034">
        <ele>3.752164</ele>
        <time>2022-08-30T19:23:04.673Z</time>
      </trkpt>
      <trkpt lat="43.02093" lon="3.04947">
        <ele>3.630062</ele>
        <time>2022-08-30T19:23:16.806Z</time>
      </trkpt>
      <trkpt lat="43.02124" lon="3.04848">
        <ele>3.48701</ele>
        <time>2022-08-30T19:23:31.856Z</time>
      </trkpt>
      <trkpt lat="43.02164" lon="3.04734">
        <ele>3.679878</ele>
        <time>2022-08-30T19:23:50.633Z</time>
      </trkpt>
      <trkpt lat="43.02169" lon="3.04717">
        <ele>3.716722</ele>
        <time>2022-08-30T19:23:53.551Z</time>
      </trkpt>
      <trkpt lat="43.02133" lon="3.04696">
        <ele>3.821031</ele>
        <time>2022-08-30T19:24:02.196Z</time>
      </trkpt>
      <trkpt lat="43.02102" lon="3.04678">
        <ele>3.91243</ele>
        <time>2022-08-30T19:24:09.757Z</time>
      </trkpt>
      <trkpt lat="43.02072" lon="3.04661">
        <ele>3.971137</ele>
        <time>2022-08-30T19:24:16.615Z</time>
      </trkpt>
      <trkpt lat="43.02034" lon="3.04638">
        <ele>4.0216</ele>
        <time>2022-08-30T19:24:25.247Z</time>
      </trkpt>
      <trkpt lat="43.02004" lon="3.0462">
        <ele>4.060329</ele>
        <time>2022-08-30T19:24:31.775Z</time>
      </trkpt>
      <trkpt lat="43.02" lon="3.04613">
        <ele>4.068363</ele>
        <time>2022-08-30T19:24:33.166Z</time>
      </trkpt>
      <trkpt lat="43.0197" lon="3.04594">
        <ele>4.108481</ele>
        <time>2022-08-30T19:24:40.140Z</time>
      </trkpt>
      <trkpt lat="43.01934" lon="3.04571">
        <ele>4.157073</ele>
        <time>2022-08-30T19:24:48.456Z</time>
      </trkpt>
      <trkpt lat="43.01932" lon="3.04567">
        <ele>4.16051</ele>
        <time>2022-08-30T19:24:49.046Z</time>
      </trkpt>
      <trkpt lat="43.01948" lon="3.04525">
        <ele>4.180235</ele>
        <time>2022-08-30T19:24:56.122Z</time>
      </trkpt>
      <trkpt lat="43.01971" lon="3.04458">
        <ele>4.207033</ele>
        <time>2022-08-30T19:25:06.650Z</time>
      </trkpt>
      <trkpt lat="43.02004" lon="3.04357">
        <ele>4.246953</ele>
        <time>2022-08-30T19:25:22.206Z</time>
      </trkpt>
      <trkpt lat="43.02039" lon="3.04379">
        <ele>4.321341</ele>
        <time>2022-08-30T19:25:29.757Z</time>
      </trkpt>
      <trkpt lat="43.02073" lon="3.04399">
        <ele>4.424287</ele>
        <time>2022-08-30T19:25:37.143Z</time>
      </trkpt>
      <trkpt lat="43.02105" lon="3.04417">
        <ele>4.523094</ele>
        <time>2022-08-30T19:25:44.209Z</time>
      </trkpt>
      <trkpt lat="43.02144" lon="3.0444">
        <ele>4.641612</ele>
        <time>2022-08-30T19:25:53.036Z</time>
      </trkpt>
      <trkpt lat="43.02165" lon="3.04452">
        <ele>4.706167</ele>
        <time>2022-08-30T19:25:57.943Z</time>
      </trkpt>
      <trkpt lat="43.02187" lon="3.04464">
        <ele>4.76639</ele>
        <time>2022-08-30T19:26:02.890Z</time>
      </trkpt>
      <trkpt lat="43.02208" lon="3.04478">
        <ele>4.812908</ele>
        <time>2022-08-30T19:26:08.183Z</time>
      </trkpt>
      <trkpt lat="43.02245" lon="3.04343">
        <ele>5.016467</ele>
        <time>2022-08-30T19:26:31.466Z</time>
      </trkpt>
      <trkpt lat="43.02242" lon="3.04341">
        <ele>5.023083</ele>
        <time>2022-08-30T19:26:32.222Z</time>
      </trkpt>
      <trkpt lat="43.02287" lon="3.04217">
        <ele>4.572571</ele>
        <time>2022-08-30T19:26:51.622Z</time>
      </trkpt>
      <trkpt lat="43.02322" lon="3.0424">
        <ele>4.220571</ele>
        <time>2022-08-30T19:26:58.385Z</time>
      </trkpt>
      <trkpt lat="43.0231" lon="3.04284">
        <ele>3.909008</ele>
        <time>2022-08-30T19:27:04.282Z</time>
      </trkpt>
      <trkpt lat="43.02326" lon="3.04252">
        <ele>3.646888</ele>
        <time>2022-08-30T19:27:08.875Z</time>
      </trkpt>
      <trkpt lat="43.02349" lon="3.04188">
        <ele>3.196727</ele>
        <time>2022-08-30T19:27:17.487Z</time>
      </trkpt>
      <trkpt lat="43.02357" lon="3.04192">
        <ele>3.127878</ele>
        <time>2022-08-30T19:27:18.819Z</time>
      </trkpt>
      <trkpt lat="43.02401" lon="3.04216">
        <ele>2.73414</ele>
        <time>2022-08-30T19:27:26.956Z</time>
      </trkpt>
      <trkpt lat="43.02433" lon="3.04232">
        <ele>2.453079</ele>
        <time>2022-08-30T19:27:32.798Z</time>
      </trkpt>
      <trkpt lat="43.02441" lon="3.04236">
        <ele>2.382334</ele>
        <time>2022-08-30T19:27:34.290Z</time>
      </trkpt>
      <trkpt lat="43.02467" lon="3.04249">
        <ele>2.154137</ele>
        <time>2022-08-30T19:27:39.104Z</time>
      </trkpt>
      <trkpt lat="43.02479" lon="3.04261">
        <ele>2.026251</ele>
        <time>2022-08-30T19:27:41.943Z</time>
      </trkpt>
      <trkpt lat="43.02494" lon="3.04258">
        <ele>1.951659</ele>
        <time>2022-08-30T19:27:44.530Z</time>
      </trkpt>
      <trkpt lat="43.02497" lon="3.04254">
        <ele>1.945884</ele>
        <time>2022-08-30T19:27:45.265Z</time>
      </trkpt>
      <trkpt lat="43.02502" lon="3.04245">
        <ele>1.93419</ele>
        <time>2022-08-30T19:27:46.716Z</time>
      </trkpt>
      <trkpt lat="43.02526" lon="3.04238">
        <ele>1.89797</ele>
        <time>2022-08-30T19:27:53.033Z</time>
      </trkpt>
      <trkpt lat="43.02541" lon="3.04247">
        <ele>1.875477</ele>
        <time>2022-08-30T19:27:57.092Z</time>
      </trkpt>
      <trkpt lat="43.0256" lon="3.04226">
        <ele>1.839981</ele>
        <time>2022-08-30T19:28:03.587Z</time>
      </trkpt>
      <trkpt lat="43.02566" lon="3.04225">
        <ele>1.830942</ele>
        <time>2022-08-30T19:28:04.768Z</time>
      </trkpt>
      <trkpt lat="43.02629" lon="3.04264">
        <ele>1.73265</ele>
        <time>2022-08-30T19:28:17.956Z</time>
      </trkpt>
      <trkpt lat="43.02647" lon="3.0428">
        <ele>1.698678</ele>
        <time>2022-08-30T19:28:21.933Z</time>
      </trkpt>
      <trkpt lat="43.0264" lon="3.04293">
        <ele>1.669743</ele>
        <time>2022-08-30T19:28:25.671Z</time>
      </trkpt>
      <trkpt lat="43.03212" lon="3.0466">
        <ele>0.353365</ele>
        <time>2022-08-30T19:31:41.969Z</time>
      </trkpt>
      <trkpt lat="43.03223" lon="3.04672">
        <ele>0.351056</ele>
        <time>2022-08-30T19:31:46.833Z</time>
      </trkpt>
      <trkpt lat="43.03295" lon="3.04713">
        <ele>0.389785</ele>
        <time>2022-08-30T19:32:12.711Z</time>
      </trkpt>
      <trkpt lat="43.03339" lon="3.04747">
        <ele>0.518534</ele>
        <time>2022-08-30T19:32:29.469Z</time>
      </trkpt>
      <trkpt lat="43.03347" lon="3.04775">
        <ele>0.575077</ele>
        <time>2022-08-30T19:32:37.010Z</time>
      </trkpt>
      <trkpt lat="43.03357" lon="3.04787">
        <ele>0.608723</ele>
        <time>2022-08-30T19:32:41.364Z</time>
      </trkpt>
      <trkpt lat="43.03396" lon="3.04806">
        <ele>0.712908</ele>
        <time>2022-08-30T19:32:54.724Z</time>
      </trkpt>
      <trkpt lat="43.03426" lon="3.04807">
        <ele>0.789253</ele>
        <time>2022-08-30T19:33:04.553Z</time>
      </trkpt>
      <trkpt lat="43.03465" lon="3.04824">
        <ele>0.833391</ele>
        <time>2022-08-30T19:33:18.084Z</time>
      </trkpt>
      <trkpt lat="43.03677" lon="3.04962">
        <ele>1.00715</ele>
        <time>2022-08-30T19:34:33.364Z</time>
      </trkpt>
      <trkpt lat="43.03754" lon="3.05018">
        <ele>1.050837</ele>
        <time>2022-08-30T19:35:01.091Z</time>
      </trkpt>
      <trkpt lat="43.03756" lon="3.05023">
        <ele>1.048233</ele>
        <time>2022-08-30T19:35:02.352Z</time>
      </trkpt>
      <trkpt lat="43.03764" lon="3.05039">
        <ele>1.033087</ele>
        <time>2022-08-30T19:35:06.936Z</time>
      </trkpt>
      <trkpt lat="43.03776" lon="3.05051">
        <ele>1.016708</ele>
        <time>2022-08-30T19:35:11.818Z</time>
      </trkpt>
      <trkpt lat="43.03806" lon="3.05062">
        <ele>0.984283</ele>
        <time>2022-08-30T19:35:21.489Z</time>
      </trkpt>
      <trkpt lat="43.03852" lon="3.05095">
        <ele>0.928448</ele>
        <time>2022-08-30T19:35:38.036Z</time>
      </trkpt>
      <trkpt lat="43.03873" lon="3.05103">
        <ele>0.905536</ele>
        <time>2022-08-30T19:35:44.808Z</time>
      </trkpt>
      <trkpt lat="43.03893" lon="3.05102">
        <ele>0.885052</ele>
        <time>2022-08-30T19:35:50.823Z</time>
      </trkpt>
      <trkpt lat="43.03912" lon="3.05113">
        <ele>0.862872</ele>
        <time>2022-08-30T19:35:57.329Z</time>
      </trkpt>
      <trkpt lat="43.04088" lon="3.05234">
        <ele>0.521719</ele>
        <time>2022-08-30T19:36:58.453Z</time>
      </trkpt>
      <trkpt lat="43.04179" lon="3.05283">
        <ele>0.707329</ele>
        <time>2022-08-30T19:37:30.252Z</time>
      </trkpt>
      <trkpt lat="43.04186" lon="3.0529">
        <ele>0.723195</ele>
        <time>2022-08-30T19:37:33.165Z</time>
      </trkpt>
      <trkpt lat="43.04186" lon="3.05299">
        <ele>0.735952</ele>
        <time>2022-08-30T19:37:35.411Z</time>
      </trkpt>
      <trkpt lat="43.0423" lon="3.05327">
        <ele>0.827363</ele>
        <time>2022-08-30T19:37:46.841Z</time>
      </trkpt>
      <trkpt lat="43.04269" lon="3.05353">
        <ele>1.052371</ele>
        <time>2022-08-30T19:37:57.227Z</time>
      </trkpt>
      <trkpt lat="43.04286" lon="3.05354">
        <ele>1.149755</ele>
        <time>2022-08-30T19:38:03.430Z</time>
      </trkpt>
      <trkpt lat="43.04378" lon="3.05407">
        <ele>1.703264</ele>
        <time>2022-08-30T19:38:38.569Z</time>
      </trkpt>
      <trkpt lat="43.04453" lon="3.05462">
        <ele>1.878694</ele>
        <time>2022-08-30T19:39:07.002Z</time>
      </trkpt>
      <trkpt lat="43.04509" lon="3.05494">
        <ele>1.926944</ele>
        <time>2022-08-30T19:39:26.260Z</time>
      </trkpt>
      <trkpt lat="43.04635" lon="3.0558">
        <ele>1.864395</ele>
        <time>2022-08-30T19:40:10.055Z</time>
      </trkpt>
      <trkpt lat="43.04698" lon="3.05617">
        <ele>1.776023</ele>
        <time>2022-08-30T19:40:31.420Z</time>
      </trkpt>
      <trkpt lat="43.04727" lon="3.05623">
        <ele>1.742044</ele>
        <time>2022-08-30T19:40:40.676Z</time>
      </trkpt>
      <trkpt lat="43.04725" lon="3.05607">
        <ele>1.757859</ele>
        <time>2022-08-30T19:40:44.405Z</time>
      </trkpt>
      <trkpt lat="43.04727" lon="3.05608">
        <ele>1.760599</ele>
        <time>2022-08-30T19:40:44.795Z</time>
      </trkpt>
      <trkpt lat="43.04731" lon="3.05611">
        <ele>1.767239</ele>
        <time>2022-08-30T19:40:45.703Z</time>
      </trkpt>
      <trkpt lat="43.04984" lon="3.05775">
        <ele>2.143529</ele>
        <time>2022-08-30T19:42:17.078Z</time>
      </trkpt>
      <trkpt lat="43.05024" lon="3.05796">
        <ele>2.199999</ele>
        <time>2022-08-30T19:42:31.061Z</time>
      </trkpt>
      <trkpt lat="43.05063" lon="3.05808">
        <ele>2.191426</ele>
        <time>2022-08-30T19:42:43.879Z</time>
      </trkpt>
      <trkpt lat="43.05122" lon="3.05813">
        <ele>2.109014</ele>
        <time>2022-08-30T19:43:02.658Z</time>
      </trkpt>
      <trkpt lat="43.05291" lon="3.05778">
        <ele>1.887375</ele>
        <time>2022-08-30T19:43:55.959Z</time>
      </trkpt>
      <trkpt lat="43.05332" lon="3.05762">
        <ele>1.838063</ele>
        <time>2022-08-30T19:44:09.155Z</time>
      </trkpt>
      <trkpt lat="43.05374" lon="3.05723">
        <ele>1.778339</ele>
        <time>2022-08-30T19:44:25.290Z</time>
      </trkpt>
      <trkpt lat="43.05387" lon="3.05703">
        <ele>1.762177</ele>
        <time>2022-08-30T19:44:31.337Z</time>
      </trkpt>
      <trkpt lat="43.05404" lon="3.05654">
        <ele>1.757576</ele>
        <time>2022-08-30T19:44:43.994Z</time>
      </trkpt>
      <trkpt lat="43.05408" lon="3.05628">
        <ele>1.755322</ele>
        <time>2022-08-30T19:44:50.242Z</time>
      </trkpt>
      <trkpt lat="43.05409" lon="3.05573">
        <ele>1.75072</ele>
        <time>2022-08-30T19:45:02.915Z</time>
      </trkpt>
      <trkpt lat="43.05359" lon="3.05328">
        <ele>2.108561</ele>
        <time>2022-08-30T19:46:02.186Z</time>
      </trkpt>
      <trkpt lat="43.05357" lon="3.05281">
        <ele>2.220975</ele>
        <time>2022-08-30T19:46:13.734Z</time>
      </trkpt>
      <trkpt lat="43.05363" lon="3.05243">
        <ele>2.316638</ele>
        <time>2022-08-30T19:46:23.788Z</time>
      </trkpt>
      <trkpt lat="43.05565" lon="3.04806">
        <ele>6.834569</ele>
        <time>2022-08-30T19:48:48.676Z</time>
      </trkpt>
      <trkpt lat="43.05588" lon="3.0474">
        <ele>6.863843</ele>
        <time>2022-08-30T19:49:07.676Z</time>
      </trkpt>
      <trkpt lat="43.05607" lon="3.04668">
        <ele>6.894692</ele>
        <time>2022-08-30T19:49:25.658Z</time>
      </trkpt>
      <trkpt lat="43.05616" lon="3.0461">
        <ele>6.918647</ele>
        <time>2022-08-30T19:49:38.806Z</time>
      </trkpt>
      <trkpt lat="43.05623" lon="3.04503">
        <ele>5.975842</ele>
        <time>2022-08-30T19:50:01.278Z</time>
      </trkpt>
      <trkpt lat="43.05639" lon="3.04421">
        <ele>5.064097</ele>
        <time>2022-08-30T19:50:18.286Z</time>
      </trkpt>
      <trkpt lat="43.05656" lon="3.04354">
        <ele>4.290662</ele>
        <time>2022-08-30T19:50:32.788Z</time>
      </trkpt>
      <trkpt lat="43.05677" lon="3.04304">
        <ele>4.157688</ele>
        <time>2022-08-30T19:50:44.661Z</time>
      </trkpt>
      <trkpt lat="43.06228" lon="3.03441">
        <ele>2.163439</ele>
        <time>2022-08-30T19:55:06.726Z</time>
      </trkpt>
      <trkpt lat="43.06291" lon="3.03372">
        <ele>1.838698</ele>
        <time>2022-08-30T19:55:31.921Z</time>
      </trkpt>
      <trkpt lat="43.06485" lon="3.03211">
        <ele>0.720567</ele>
        <time>2022-08-30T19:56:40.280Z</time>
      </trkpt>
      <trkpt lat="43.0656" lon="3.03133">
        <ele>0.349434</ele>
        <time>2022-08-30T19:57:09.291Z</time>
      </trkpt>
      <trkpt lat="43.06594" lon="3.0311">
        <ele>0.35047</ele>
        <time>2022-08-30T19:57:21.206Z</time>
      </trkpt>
      <trkpt lat="43.06661" lon="3.03079">
        <ele>0.352413</ele>
        <time>2022-08-30T19:57:43.943Z</time>
      </trkpt>
      <trkpt lat="43.0672" lon="3.03034">
        <ele>0.354476</ele>
        <time>2022-08-30T19:58:05.596Z</time>
      </trkpt>
      <trkpt lat="43.06838" lon="3.02959">
        <ele>0.359897</ele>
        <time>2022-08-30T19:58:47.380Z</time>
      </trkpt>
      <trkpt lat="43.06925" lon="3.02868">
        <ele>0.294548</ele>
        <time>2022-08-30T19:59:21.791Z</time>
      </trkpt>
      <trkpt lat="43.07008" lon="3.02801">
        <ele>0.210073</ele>
        <time>2022-08-30T19:59:52.023Z</time>
      </trkpt>
      <trkpt lat="43.07117" lon="3.02635">
        <ele>0.120283</ele>
        <time>2022-08-30T20:00:43.553Z</time>
      </trkpt>
      <trkpt lat="43.07165" lon="3.02554">
        <ele>0.133818</ele>
        <time>2022-08-30T20:01:07.689Z</time>
      </trkpt>
      <trkpt lat="43.07214" lon="3.02492">
        <ele>0.168263</ele>
        <time>2022-08-30T20:01:29.296Z</time>
      </trkpt>
      <trkpt lat="43.07242" lon="3.0244">
        <ele>0.192082</ele>
        <time>2022-08-30T20:01:44.262Z</time>
      </trkpt>
      <trkpt lat="43.07293" lon="3.02313">
        <ele>0.342558</ele>
        <time>2022-08-30T20:02:18.709Z</time>
      </trkpt>
      <trkpt lat="43.07312" lon="3.02288">
        <ele>0.383696</ele>
        <time>2022-08-30T20:02:27.380Z</time>
      </trkpt>
      <trkpt lat="43.07336" lon="3.02273">
        <ele>0.425388</ele>
        <time>2022-08-30T20:02:36.191Z</time>
      </trkpt>
      <trkpt lat="43.07371" lon="3.02272">
        <ele>0.478695</ele>
        <time>2022-08-30T20:02:47.462Z</time>
      </trkpt>
      <trkpt lat="43.07422" lon="3.02293">
        <ele>0.561672</ele>
        <time>2022-08-30T20:03:04.946Z</time>
      </trkpt>
      <trkpt lat="43.0747" lon="3.02321">
        <ele>0.643727</ele>
        <time>2022-08-30T20:03:22.104Z</time>
      </trkpt>
      <trkpt lat="43.07538" lon="3.02375">
        <ele>0.755157</ele>
        <time>2022-08-30T20:03:47.467Z</time>
      </trkpt>
      <trkpt lat="43.07575" lon="3.02393">
        <ele>0.6995</ele>
        <time>2022-08-30T20:03:59.841Z</time>
      </trkpt>
      <trkpt lat="43.07652" lon="3.02402">
        <ele>0.588525</ele>
        <time>2022-08-30T20:04:24.168Z</time>
      </trkpt>
      <trkpt lat="43.07735" lon="3.02429">
        <ele>0.463552</ele>
        <time>2022-08-30T20:04:50.532Z</time>
      </trkpt>
      <trkpt lat="43.07832" lon="3.02494">
        <ele>0.293828</ele>
        <time>2022-08-30T20:05:24.234Z</time>
      </trkpt>
      <trkpt lat="43.08243" lon="3.0281">
        <ele>0.324485</ele>
        <time>2022-08-30T20:07:54.448Z</time>
      </trkpt>
      <trkpt lat="43.08318" lon="3.02853">
        <ele>0.370427</ele>
        <time>2022-08-30T20:08:20.597Z</time>
      </trkpt>
      <trkpt lat="43.08382" lon="3.02916">
        <ele>0.414426</ele>
        <time>2022-08-30T20:08:45.706Z</time>
      </trkpt>
      <trkpt lat="43.08413" lon="3.02939">
        <ele>0.434103</ele>
        <time>2022-08-30T20:08:57.018Z</time>
      </trkpt>
      <trkpt lat="43.08445" lon="3.02949">
        <ele>0.452483</ele>
        <time>2022-08-30T20:09:07.612Z</time>
      </trkpt>
      <trkpt lat="43.08519" lon="3.02959">
        <ele>0.503515</ele>
        <time>2022-08-30T20:09:31.336Z</time>
      </trkpt>
      <trkpt lat="43.08597" lon="3.02987">
        <ele>0.648578</ele>
        <time>2022-08-30T20:09:57.625Z</time>
      </trkpt>
      <trkpt lat="43.08717" lon="3.03018">
        <ele>0.827309</ele>
        <time>2022-08-30T20:10:37.969Z</time>
      </trkpt>
      <trkpt lat="43.08793" lon="3.03056">
        <ele>0.867991</ele>
        <time>2022-08-30T20:11:03.972Z</time>
      </trkpt>
      <trkpt lat="43.08854" lon="3.03098">
        <ele>0.900872</ele>
        <time>2022-08-30T20:11:25.599Z</time>
      </trkpt>
      <trkpt lat="43.08882" lon="3.03105">
        <ele>0.846361</ele>
        <time>2022-08-30T20:11:34.477Z</time>
      </trkpt>
      <trkpt lat="43.08995" lon="3.03112">
        <ele>0.628942</ele>
        <time>2022-08-30T20:12:09.430Z</time>
      </trkpt>
      <trkpt lat="43.09135" lon="3.0314">
        <ele>0.556237</ele>
        <time>2022-08-30T20:12:53.918Z</time>
      </trkpt>
      <trkpt lat="43.09184" lon="3.03129">
        <ele>0.556415</ele>
        <time>2022-08-30T20:13:10.239Z</time>
      </trkpt>
      <trkpt lat="43.09275" lon="3.03073">
        <ele>0.770156</ele>
        <time>2022-08-30T20:13:43.226Z</time>
      </trkpt>
      <trkpt lat="43.09294" lon="3.03066">
        <ele>0.827398</ele>
        <time>2022-08-30T20:13:49.806Z</time>
      </trkpt>
      <trkpt lat="43.09335" lon="3.03071">
        <ele>0.946208</ele>
        <time>2022-08-30T20:14:03.425Z</time>
      </trkpt>
      <trkpt lat="43.09412" lon="3.031">
        <ele>1.197532</ele>
        <time>2022-08-30T20:14:30.296Z</time>
      </trkpt>
      <trkpt lat="43.09443" lon="3.03104">
        <ele>1.30365</ele>
        <time>2022-08-30T20:14:40.788Z</time>
      </trkpt>
      <trkpt lat="43.09475" lon="3.03097">
        <ele>1.416428</ele>
        <time>2022-08-30T20:14:51.783Z</time>
      </trkpt>
      <trkpt lat="43.09547" lon="3.03057">
        <ele>1.68399</ele>
        <time>2022-08-30T20:15:17.517Z</time>
      </trkpt>
      <trkpt lat="43.09573" lon="3.03048">
        <ele>1.728115</ele>
        <time>2022-08-30T20:15:26.357Z</time>
      </trkpt>
      <trkpt lat="43.09594" lon="3.03047">
        <ele>1.755023</ele>
        <time>2022-08-30T20:15:33.298Z</time>
      </trkpt>
      <trkpt lat="43.09671" lon="3.03073">
        <ele>1.856417</ele>
        <time>2022-08-30T20:15:59.234Z</time>
      </trkpt>
      <trkpt lat="43.09694" lon="3.03074">
        <ele>1.885607</ele>
        <time>2022-08-30T20:16:06.607Z</time>
      </trkpt>
      <trkpt lat="43.09724" lon="3.0307">
        <ele>1.923652</ele>
        <time>2022-08-30T20:16:16.157Z</time>
      </trkpt>
      <trkpt lat="43.09806" lon="3.03026">
        <ele>1.888989</ele>
        <time>2022-08-30T20:16:43.826Z</time>
      </trkpt>
      <trkpt lat="43.09841" lon="3.03021">
        <ele>1.872174</ele>
        <time>2022-08-30T20:16:54.910Z</time>
      </trkpt>
      <trkpt lat="43.09931" lon="3.03069">
        <ele>1.840806</ele>
        <time>2022-08-30T20:17:25.653Z</time>
      </trkpt>
      <trkpt lat="43.10092" lon="3.03087">
        <ele>1.866526</ele>
        <time>2022-08-30T20:18:17.023Z</time>
      </trkpt>
      <trkpt lat="43.10219" lon="3.03156">
        <ele>2.131409</ele>
        <time>2022-08-30T20:19:01.708Z</time>
      </trkpt>
      <trkpt lat="43.10249" lon="3.03162">
        <ele>2.193209</ele>
        <time>2022-08-30T20:19:11.777Z</time>
      </trkpt>
      <trkpt lat="43.10328" lon="3.03139">
        <ele>2.407346</ele>
        <time>2022-08-30T20:19:38.599Z</time>
      </trkpt>
      <trkpt lat="43.10344" lon="3.03139">
        <ele>2.450162</ele>
        <time>2022-08-30T20:19:43.954Z</time>
      </trkpt>
      <trkpt lat="43.10527" lon="3.03234">
        <ele>2.844782</ele>
        <time>2022-08-30T20:20:47.931Z</time>
      </trkpt>
      <trkpt lat="43.1055" lon="3.03241">
        <ele>2.882039</ele>
        <time>2022-08-30T20:20:55.513Z</time>
      </trkpt>
      <trkpt lat="43.10633" lon="3.03235">
        <ele>2.960866</ele>
        <time>2022-08-30T20:21:22.278Z</time>
      </trkpt>
      <trkpt lat="43.10716" lon="3.03239">
        <ele>2.991418</ele>
        <time>2022-08-30T20:21:48.915Z</time>
      </trkpt>
      <trkpt lat="43.10757" lon="3.03231">
        <ele>3.006736</ele>
        <time>2022-08-30T20:22:02.265Z</time>
      </trkpt>
      <trkpt lat="43.11006" lon="3.03128">
        <ele>3.003227</ele>
        <time>2022-08-30T20:23:25.132Z</time>
      </trkpt>
      <trkpt lat="43.11036" lon="3.03121">
        <ele>2.973212</ele>
        <time>2022-08-30T20:23:34.893Z</time>
      </trkpt>
      <trkpt lat="43.11126" lon="3.03139">
        <ele>2.893608</ele>
        <time>2022-08-30T20:24:03.296Z</time>
      </trkpt>
      <trkpt lat="43.11158" lon="3.03136">
        <ele>2.88669</ele>
        <time>2022-08-30T20:24:13.135Z</time>
      </trkpt>
      <trkpt lat="43.11264" lon="3.03101">
        <ele>2.862612</ele>
        <time>2022-08-30T20:24:47.747Z</time>
      </trkpt>
      <trkpt lat="43.11264" lon="3.03101">
        <ele>2.862568</ele>
        <time>2022-08-30T20:24:47.869Z</time>
      </trkpt>
      <trkpt lat="43.11342" lon="3.03096">
        <ele>2.962759</ele>
        <time>2022-08-30T20:25:13.245Z</time>
      </trkpt>
      <trkpt lat="43.11449" lon="3.0306">
        <ele>3.198423</ele>
        <time>2022-08-30T20:25:49.778Z</time>
      </trkpt>
      <trkpt lat="43.11482" lon="3.03056">
        <ele>3.252172</ele>
        <time>2022-08-30T20:26:00.791Z</time>
      </trkpt>
      <trkpt lat="43.11606" lon="3.0306">
        <ele>3.351149</ele>
        <time>2022-08-30T20:26:40.833Z</time>
      </trkpt>
      <trkpt lat="43.11887" lon="3.03085">
        <ele>3.173337</ele>
        <time>2022-08-30T20:28:08.898Z</time>
      </trkpt>
      <trkpt lat="43.12155" lon="3.0311">
        <ele>4.01078</ele>
        <time>2022-08-30T20:29:39.780Z</time>
      </trkpt>
      <trkpt lat="43.12187" lon="3.03107">
        <ele>4.133542</ele>
        <time>2022-08-30T20:29:50.456Z</time>
      </trkpt>
      <trkpt lat="43.12837" lon="3.03164">
        <ele>4.657896</ele>
        <time>2022-08-30T20:33:19.948Z</time>
      </trkpt>
      <trkpt lat="43.12896" lon="3.0319">
        <ele>4.682071</ele>
        <time>2022-08-30T20:33:39.583Z</time>
      </trkpt>
      <trkpt lat="43.12932" lon="3.03198">
        <ele>4.724432</ele>
        <time>2022-08-30T20:33:51.061Z</time>
      </trkpt>
      <trkpt lat="43.1301" lon="3.03181">
        <ele>4.830835</ele>
        <time>2022-08-30T20:34:16.786Z</time>
      </trkpt>
      <trkpt lat="43.13036" lon="3.03181">
        <ele>4.865968</ele>
        <time>2022-08-30T20:34:25.425Z</time>
      </trkpt>
      <trkpt lat="43.13076" lon="3.03191">
        <ele>4.920352</ele>
        <time>2022-08-30T20:34:39.025Z</time>
      </trkpt>
      <trkpt lat="43.13183" lon="3.03215">
        <ele>4.866773</ele>
        <time>2022-08-30T20:35:13.879Z</time>
      </trkpt>
      <trkpt lat="43.13235" lon="3.03208">
        <ele>4.837525</ele>
        <time>2022-08-30T20:35:30.209Z</time>
      </trkpt>
      <trkpt lat="43.13232" lon="3.03255">
        <ele>4.764453</ele>
        <time>2022-08-30T20:35:40.949Z</time>
      </trkpt>
      <trkpt lat="43.13212" lon="3.03292">
        <ele>4.593529</ele>
        <time>2022-08-30T20:35:51.129Z</time>
      </trkpt>
      <trkpt lat="43.13212" lon="3.03295">
        <ele>4.581522</ele>
        <time>2022-08-30T20:35:51.839Z</time>
      </trkpt>
      <trkpt lat="43.13208" lon="3.03374">
        <ele>4.287068</ele>
        <time>2022-08-30T20:36:09.175Z</time>
      </trkpt>
      <trkpt lat="43.13213" lon="3.03407">
        <ele>4.161477</ele>
        <time>2022-08-30T20:36:16.449Z</time>
      </trkpt>
      <trkpt lat="43.13048" lon="3.03386">
        <ele>3.552967</ele>
        <time>2022-08-30T20:36:47.903Z</time>
      </trkpt>
      <trkpt lat="43.12959" lon="3.04087">
        <ele>3.033736</ele>
        <time>2022-08-30T20:38:31.806Z</time>
      </trkpt>
      <trkpt lat="43.12935" lon="3.04269">
        <ele>2.985891</ele>
        <time>2022-08-30T20:38:59.035Z</time>
      </trkpt>
      <trkpt lat="43.12885" lon="3.04644">
        <ele>2.913119</ele>
        <time>2022-08-30T20:39:54.954Z</time>
      </trkpt>
      <trkpt lat="43.12883" lon="3.04657">
        <ele>2.910442</ele>
        <time>2022-08-30T20:39:56.953Z</time>
      </trkpt>
      <trkpt lat="43.1288" lon="3.04677">
        <ele>2.906544</ele>
        <time>2022-08-30T20:39:59.872Z</time>
      </trkpt>
      <trkpt lat="43.12878" lon="3.04691">
        <ele>2.905537</ele>
        <time>2022-08-30T20:40:02.053Z</time>
      </trkpt>
      <trkpt lat="43.12823" lon="3.04683">
        <ele>2.920827</ele>
        <time>2022-08-30T20:40:12.961Z</time>
      </trkpt>
      <trkpt lat="43.12599" lon="3.04686">
        <ele>2.855012</ele>
        <time>2022-08-30T20:40:56.193Z</time>
      </trkpt>
      <trkpt lat="43.12458" lon="3.04698">
        <ele>2.615127</ele>
        <time>2022-08-30T20:41:22.216Z</time>
      </trkpt>
      <trkpt lat="43.12372" lon="3.04759">
        <ele>2.367202</ele>
        <time>2022-08-30T20:41:40.018Z</time>
      </trkpt>
      <trkpt lat="43.119" lon="3.05165">
        <ele>1.809604</ele>
        <time>2022-08-30T20:43:25.586Z</time>
      </trkpt>
      <trkpt lat="43.11758" lon="3.05294">
        <ele>1.116432</ele>
        <time>2022-08-30T20:43:56.208Z</time>
      </trkpt>
      <trkpt lat="43.11699" lon="3.0536">
        <ele>0.9555</ele>
        <time>2022-08-30T20:44:10.048Z</time>
      </trkpt>
      <trkpt lat="43.11669" lon="3.05386">
        <ele>0.890146</ele>
        <time>2022-08-30T20:44:16.722Z</time>
      </trkpt>
      <trkpt lat="43.11622" lon="3.05454">
        <ele>0.766833</ele>
        <time>2022-08-30T20:44:29.633Z</time>
      </trkpt>
      <trkpt lat="43.11211" lon="3.06328">
        <ele>1.995913</ele>
        <time>2022-08-30T20:47:01.780Z</time>
      </trkpt>
      <trkpt lat="43.11167" lon="3.06428">
        <ele>2.145767</ele>
        <time>2022-08-30T20:47:18.469Z</time>
      </trkpt>
      <trkpt lat="43.11143" lon="3.0647">
        <ele>2.214796</ele>
        <time>2022-08-30T20:47:26.356Z</time>
      </trkpt>
      <trkpt lat="43.11129" lon="3.0651">
        <ele>2.281835</ele>
        <time>2022-08-30T20:47:32.992Z</time>
      </trkpt>
      <trkpt lat="43.11117" lon="3.06596">
        <ele>2.506347</ele>
        <time>2022-08-30T20:47:46.081Z</time>
      </trkpt>
      <trkpt lat="43.11113" lon="3.06593">
        <ele>2.522924</ele>
        <time>2022-08-30T20:47:47.678Z</time>
      </trkpt>
      <trkpt lat="43.11092" lon="3.06586">
        <ele>2.599892</ele>
        <time>2022-08-30T20:47:54.971Z</time>
      </trkpt>
      <trkpt lat="43.11086" lon="3.06583">
        <ele>2.623049</ele>
        <time>2022-08-30T20:47:57.260Z</time>
      </trkpt>
      <trkpt lat="43.11081" lon="3.06581">
        <ele>2.64163</ele>
        <time>2022-08-30T20:47:59.084Z</time>
      </trkpt>
      <trkpt lat="43.11061" lon="3.06555">
        <ele>2.738208</ele>
        <time>2022-08-30T20:48:08.383Z</time>
      </trkpt>
      <trkpt lat="43.11" lon="3.06443">
        <ele>3.738216</ele>
        <time>2022-08-30T20:48:43.227Z</time>
      </trkpt>
      <trkpt lat="43.10982" lon="3.06422">
        <ele>4.072041</ele>
        <time>2022-08-30T20:48:51.831Z</time>
      </trkpt>
      <trkpt lat="43.1099" lon="3.06332">
        <ele>5.017483</ele>
        <time>2022-08-30T20:49:08.627Z</time>
      </trkpt>
      <trkpt lat="43.10925" lon="3.06335">
        <ele>6.839891</ele>
        <time>2022-08-30T20:49:30.788Z</time>
      </trkpt>
      <trkpt lat="43.10852" lon="3.06338">
        <ele>9.959517</ele>
        <time>2022-08-30T20:50:03.275Z</time>
      </trkpt>
      <trkpt lat="43.10832" lon="3.06379">
        <ele>11.472658</ele>
        <time>2022-08-30T20:50:19.372Z</time>
      </trkpt>
      <trkpt lat="43.10784" lon="3.06423">
        <ele>13.649165</ele>
        <time>2022-08-30T20:50:44.551Z</time>
      </trkpt>
      <trkpt lat="43.10772" lon="3.06417">
        <ele>14.020126</ele>
        <time>2022-08-30T20:50:50.696Z</time>
      </trkpt>
      <trkpt lat="43.10761" lon="3.06383">
        <ele>14.763758</ele>
        <time>2022-08-30T20:51:01.471Z</time>
      </trkpt>
      <trkpt lat="43.10749" lon="3.06365">
        <ele>15.276457</ele>
        <time>2022-08-30T20:51:08.941Z</time>
      </trkpt>
      <trkpt lat="43.10648" lon="3.06289">
        <ele>17.836271</ele>
        <time>2022-08-30T20:51:44.737Z</time>
      </trkpt>
      <trkpt lat="43.10609" lon="3.06271">
        <ele>16.982931</ele>
        <time>2022-08-30T20:51:51.660Z</time>
      </trkpt>
      <trkpt lat="43.10551" lon="3.06274">
        <ele>15.788491</ele>
        <time>2022-08-30T20:52:00.609Z</time>
      </trkpt>
      <trkpt lat="43.10504" lon="3.06281">
        <ele>14.829243</ele>
        <time>2022-08-30T20:52:07.711Z</time>
      </trkpt>
      <trkpt lat="43.10469" lon="3.06274">
        <ele>14.082288</ele>
        <time>2022-08-30T20:52:13.249Z</time>
      </trkpt>
      <trkpt lat="43.10454" lon="3.06262">
        <ele>13.713685</ele>
        <time>2022-08-30T20:52:15.902Z</time>
      </trkpt>
      <trkpt lat="43.10443" lon="3.06253">
        <ele>13.448876</ele>
        <time>2022-08-30T20:52:17.920Z</time>
      </trkpt>
      <trkpt lat="43.1043" lon="3.06268">
        <ele>13.095997</ele>
        <time>2022-08-30T20:52:22.171Z</time>
      </trkpt>
      <trkpt lat="43.10408" lon="3.06262">
        <ele>12.605969</ele>
        <time>2022-08-30T20:52:28.383Z</time>
      </trkpt>
      <trkpt lat="43.10356" lon="3.06202">
        <ele>11.1647</ele>
        <time>2022-08-30T20:52:46.584Z</time>
      </trkpt>
      <trkpt lat="43.10355" lon="3.062">
        <ele>11.127589</ele>
        <time>2022-08-30T20:52:47.278Z</time>
      </trkpt>
      <trkpt lat="43.10364" lon="3.06141">
        <ele>10.772259</ele>
        <time>2022-08-30T20:53:00.520Z</time>
      </trkpt>
      <trkpt lat="43.10336" lon="3.06095">
        <ele>11.208348</ele>
        <time>2022-08-30T20:53:16.895Z</time>
      </trkpt>
      <trkpt lat="43.10325" lon="3.06064">
        <ele>11.456141</ele>
        <time>2022-08-30T20:53:26.857Z</time>
      </trkpt>
      <trkpt lat="43.10325" lon="3.05968">
        <ele>12.145747</ele>
        <time>2022-08-30T20:53:55.076Z</time>
      </trkpt>
      <trkpt lat="43.10231" lon="3.05831">
        <ele>13.579582</ele>
        <time>2022-08-30T20:54:47.915Z</time>
      </trkpt>
      <trkpt lat="43.10168" lon="3.05762">
        <ele>14.22818</ele>
        <time>2022-08-30T20:55:16.257Z</time>
      </trkpt>
      <trkpt lat="43.10144" lon="3.05727">
        <ele>14.14254</ele>
        <time>2022-08-30T20:55:27.329Z</time>
      </trkpt>
      <trkpt lat="43.10117" lon="3.05671">
        <ele>14.024628</ele>
        <time>2022-08-30T20:55:41.887Z</time>
      </trkpt>
      <trkpt lat="43.09839" lon="3.05443">
        <ele>15.019508</ele>
        <time>2022-08-30T20:57:20.808Z</time>
      </trkpt>
      <trkpt lat="43.09707" lon="3.05357">
        <ele>20.213969</ele>
        <time>2022-08-30T20:58:42.703Z</time>
      </trkpt>
      <trkpt lat="43.09698" lon="3.05343">
        <ele>20.960326</ele>
        <time>2022-08-30T20:58:51.581Z</time>
      </trkpt>
      <trkpt lat="43.09689" lon="3.05348">
        <ele>21.524336</ele>
        <time>2022-08-30T20:58:58.745Z</time>
      </trkpt>
      <trkpt lat="43.09642" lon="3.05278">
        <ele>25.368798</ele>
        <time>2022-08-30T20:59:42.627Z</time>
      </trkpt>
      <trkpt lat="43.09558" lon="3.05219">
        <ele>29.465078</ele>
        <time>2022-08-30T21:00:36.046Z</time>
      </trkpt>
      <trkpt lat="43.09526" lon="3.0519">
        <ele>30.445821</ele>
        <time>2022-08-30T21:00:54.234Z</time>
      </trkpt>
      <trkpt lat="43.09481" lon="3.05162">
        <ele>31.700027</ele>
        <time>2022-08-30T21:01:14.798Z</time>
      </trkpt>
      <trkpt lat="43.09444" lon="3.05129">
        <ele>32.80591</ele>
        <time>2022-08-30T21:01:31.591Z</time>
      </trkpt>
      <trkpt lat="43.09416" lon="3.05113">
        <ele>32.776901</ele>
        <time>2022-08-30T21:01:42.411Z</time>
      </trkpt>
      <trkpt lat="43.09386" lon="3.05123">
        <ele>32.354349</ele>
        <time>2022-08-30T21:01:52.362Z</time>
      </trkpt>
      <trkpt lat="43.09342" lon="3.05086">
        <ele>31.638794</ele>
        <time>2022-08-30T21:02:06.734Z</time>
      </trkpt>
      <trkpt lat="43.09308" lon="3.05088">
        <ele>31.165204</ele>
        <time>2022-08-30T21:02:15.606Z</time>
      </trkpt>
      <trkpt lat="43.09264" lon="3.05046">
        <ele>30.35422</ele>
        <time>2022-08-30T21:02:29.757Z</time>
      </trkpt>
      <trkpt lat="43.09184" lon="3.05044">
        <ele>28.72661</ele>
        <time>2022-08-30T21:02:51.198Z</time>
      </trkpt>
      <trkpt lat="43.0917" lon="3.05042">
        <ele>28.421385</ele>
        <time>2022-08-30T21:02:55.258Z</time>
      </trkpt>
      <trkpt lat="43.09161" lon="3.05046">
        <ele>28.231951</ele>
        <time>2022-08-30T21:02:57.757Z</time>
      </trkpt>
      <trkpt lat="43.09133" lon="3.05019">
        <ele>27.539462</ele>
        <time>2022-08-30T21:03:06.948Z</time>
      </trkpt>
      <trkpt lat="43.09133" lon="3.04988">
        <ele>27.084324</ele>
        <time>2022-08-30T21:03:13.229Z</time>
      </trkpt>
      <trkpt lat="43.09127" lon="3.04957">
        <ele>26.850074</ele>
        <time>2022-08-30T21:03:19.857Z</time>
      </trkpt>
      <trkpt lat="43.09107" lon="3.04941">
        <ele>26.774318</ele>
        <time>2022-08-30T21:03:27.076Z</time>
      </trkpt>
      <trkpt lat="43.09051" lon="3.0492">
        <ele>26.582793</ele>
        <time>2022-08-30T21:03:49.436Z</time>
      </trkpt>
      <trkpt lat="43.09033" lon="3.04903">
        <ele>26.511382</ele>
        <time>2022-08-30T21:03:57.433Z</time>
      </trkpt>
      <trkpt lat="43.08973" lon="3.04872">
        <ele>26.288814</ele>
        <time>2022-08-30T21:04:15.809Z</time>
      </trkpt>
      <trkpt lat="43.08941" lon="3.04865">
        <ele>25.849272</ele>
        <time>2022-08-30T21:04:24.691Z</time>
      </trkpt>
      <trkpt lat="43.08888" lon="3.04834">
        <ele>25.091556</ele>
        <time>2022-08-30T21:04:42.071Z</time>
      </trkpt>
      <trkpt lat="43.0887" lon="3.04833">
        <ele>24.853148</ele>
        <time>2022-08-30T21:04:46.589Z</time>
      </trkpt>
      <trkpt lat="43.08843" lon="3.04832">
        <ele>24.495879</ele>
        <time>2022-08-30T21:04:54.816Z</time>
      </trkpt>
      <trkpt lat="43.08823" lon="3.04847">
        <ele>24.19946</ele>
        <time>2022-08-30T21:05:01.166Z</time>
      </trkpt>
      <trkpt lat="43.08806" lon="3.04851">
        <ele>23.965011</ele>
        <time>2022-08-30T21:05:05.930Z</time>
      </trkpt>
      <trkpt lat="43.08793" lon="3.04846">
        <ele>23.901767</ele>
        <time>2022-08-30T21:05:09.443Z</time>
      </trkpt>
      <trkpt lat="43.08782" lon="3.04838">
        <ele>23.872023</ele>
        <time>2022-08-30T21:05:14.941Z</time>
      </trkpt>
      <trkpt lat="43.08761" lon="3.0481">
        <ele>23.799508</ele>
        <time>2022-08-30T21:05:23.198Z</time>
      </trkpt>
      <trkpt lat="43.08742" lon="3.04767">
        <ele>23.708806</ele>
        <time>2022-08-30T21:05:34.385Z</time>
      </trkpt>
      <trkpt lat="43.08724" lon="3.04748">
        <ele>23.655888</ele>
        <time>2022-08-30T21:05:41.709Z</time>
      </trkpt>
      <trkpt lat="43.08711" lon="3.04708">
        <ele>23.577462</ele>
        <time>2022-08-30T21:05:54.030Z</time>
      </trkpt>
      <trkpt lat="43.08703" lon="3.04698">
        <ele>23.550575</ele>
        <time>2022-08-30T21:05:57.490Z</time>
      </trkpt>
      <trkpt lat="43.08664" lon="3.04716">
        <ele>23.02671</ele>
        <time>2022-08-30T21:06:12.349Z</time>
      </trkpt>
      <trkpt lat="43.08632" lon="3.0474">
        <ele>21.945402</ele>
        <time>2022-08-30T21:06:23.229Z</time>
      </trkpt>
      <trkpt lat="43.08621" lon="3.04742">
        <ele>21.595662</ele>
        <time>2022-08-30T21:06:26.734Z</time>
      </trkpt>
      <trkpt lat="43.08603" lon="3.04745">
        <ele>21.064835</ele>
        <time>2022-08-30T21:06:31.976Z</time>
      </trkpt>
      <trkpt lat="43.08572" lon="3.0473">
        <ele>20.077281</ele>
        <time>2022-08-30T21:06:39.951Z</time>
      </trkpt>
      <trkpt lat="43.08533" lon="3.04717">
        <ele>18.891628</ele>
        <time>2022-08-30T21:06:49.543Z</time>
      </trkpt>
      <trkpt lat="43.08509" lon="3.04728">
        <ele>18.129424</ele>
        <time>2022-08-30T21:06:55.548Z</time>
      </trkpt>
      <trkpt lat="43.08502" lon="3.04741">
        <ele>17.397055</ele>
        <time>2022-08-30T21:06:58.387Z</time>
      </trkpt>
      <trkpt lat="43.0849" lon="3.04749">
        <ele>16.496986</ele>
        <time>2022-08-30T21:07:01.798Z</time>
      </trkpt>
      <trkpt lat="43.08462" lon="3.04742">
        <ele>14.697546</ele>
        <time>2022-08-30T21:07:08.250Z</time>
      </trkpt>
      <trkpt lat="43.08455" lon="3.04745">
        <ele>14.253281</ele>
        <time>2022-08-30T21:07:09.760Z</time>
      </trkpt>
      <trkpt lat="43.0844" lon="3.04744">
        <ele>13.243034</ele>
        <time>2022-08-30T21:07:13.252Z</time>
      </trkpt>
      <trkpt lat="43.08425" lon="3.04731">
        <ele>12.151592</ele>
        <time>2022-08-30T21:07:17.196Z</time>
      </trkpt>
      <trkpt lat="43.08396" lon="3.04725">
        <ele>10.242754</ele>
        <time>2022-08-30T21:07:24.002Z</time>
      </trkpt>
      <trkpt lat="43.08363" lon="3.04709">
        <ele>8.013969</ele>
        <time>2022-08-30T21:07:32.081Z</time>
      </trkpt>
      <trkpt lat="43.08336" lon="3.04709">
        <ele>6.464333</ele>
        <time>2022-08-30T21:07:38.334Z</time>
      </trkpt>
      <trkpt lat="43.08324" lon="3.0472">
        <ele>6.058671</ele>
        <time>2022-08-30T21:07:41.583Z</time>
      </trkpt>
      <trkpt lat="43.08303" lon="3.0473">
        <ele>5.382763</ele>
        <time>2022-08-30T21:07:46.841Z</time>
      </trkpt>
      <trkpt lat="43.08299" lon="3.04794">
        <ele>4.007169</ele>
        <time>2022-08-30T21:07:59.018Z</time>
      </trkpt>
      <trkpt lat="43.08292" lon="3.04836">
        <ele>3.076205</ele>
        <time>2022-08-30T21:08:07.913Z</time>
      </trkpt>
      <trkpt lat="43.08302" lon="3.04877">
        <ele>2.138816</ele>
        <time>2022-08-30T21:08:16.908Z</time>
      </trkpt>
      <trkpt lat="43.08303" lon="3.04885">
        <ele>1.957767</ele>
        <time>2022-08-30T21:08:18.461Z</time>
      </trkpt>
      <trkpt lat="43.083" lon="3.04947">
        <ele>1.256479</ele>
        <time>2022-08-30T21:08:32.056Z</time>
      </trkpt>
      <trkpt lat="43.08304" lon="3.05016">
        <ele>1.162617</ele>
        <time>2022-08-30T21:08:47.961Z</time>
      </trkpt>
      <trkpt lat="43.08314" lon="3.05085">
        <ele>1.065472</ele>
        <time>2022-08-30T21:09:04.665Z</time>
      </trkpt>
      <trkpt lat="43.08314" lon="3.05118">
        <ele>1.020458</ele>
        <time>2022-08-30T21:09:12.397Z</time>
      </trkpt>
      <trkpt lat="43.08328" lon="3.05167">
        <ele>0.976016</ele>
        <time>2022-08-30T21:09:24.851Z</time>
      </trkpt>
      <trkpt lat="43.08334" lon="3.05205">
        <ele>1.020785</ele>
        <time>2022-08-30T21:09:33.961Z</time>
      </trkpt>
      <trkpt lat="43.08352" lon="3.05353">
        <ele>1.194602</ele>
        <time>2022-08-30T21:10:09.263Z</time>
      </trkpt>
      <trkpt lat="43.08339" lon="3.05501">
        <ele>1.468582</ele>
        <time>2022-08-30T21:10:46.043Z</time>
      </trkpt>
      <trkpt lat="43.08372" lon="3.05633">
        <ele>1.764696</ele>
        <time>2022-08-30T21:11:20.306Z</time>
      </trkpt>
      <trkpt lat="43.08372" lon="3.0572">
        <ele>1.632714</ele>
        <time>2022-08-30T21:11:39.989Z</time>
      </trkpt>
      <trkpt lat="43.08379" lon="3.05791">
        <ele>1.50983</ele>
        <time>2022-08-30T21:11:56.148Z</time>
      </trkpt>
      <trkpt lat="43.08387" lon="3.05808">
        <ele>1.475883</ele>
        <time>2022-08-30T21:12:00.665Z</time>
      </trkpt>
      <trkpt lat="43.08401" lon="3.0583">
        <ele>1.426118</ele>
        <time>2022-08-30T21:12:07.140Z</time>
      </trkpt>
      <trkpt lat="43.08429" lon="3.0584">
        <ele>1.358185</ele>
        <time>2022-08-30T21:12:16.010Z</time>
      </trkpt>
      <trkpt lat="43.08472" lon="3.05854">
        <ele>1.315648</ele>
        <time>2022-08-30T21:12:29.816Z</time>
      </trkpt>
      <trkpt lat="43.08529" lon="3.05837">
        <ele>1.265293</ele>
        <time>2022-08-30T21:12:47.558Z</time>
      </trkpt>
      <trkpt lat="43.08572" lon="3.05843">
        <ele>1.227206</ele>
        <time>2022-08-30T21:13:01.403Z</time>
      </trkpt>
      <trkpt lat="43.08587" lon="3.05851">
        <ele>1.213829</ele>
        <time>2022-08-30T21:13:06.610Z</time>
      </trkpt>
      <trkpt lat="43.08631" lon="3.05838">
        <ele>1.387942</ele>
        <time>2022-08-30T21:13:22.178Z</time>
      </trkpt>
      <trkpt lat="43.08638" lon="3.05836">
        <ele>1.443356</ele>
        <time>2022-08-30T21:13:24.727Z</time>
      </trkpt>
      <trkpt lat="43.08695" lon="3.05858">
        <ele>1.906125</ele>
        <time>2022-08-30T21:13:44.813Z</time>
      </trkpt>
      <trkpt lat="43.08701" lon="3.05874">
        <ele>2.011714</ele>
        <time>2022-08-30T21:13:49.614Z</time>
      </trkpt>
      <trkpt lat="43.08688" lon="3.06207">
        <ele>4.803381</ele>
        <time>2022-08-30T21:15:21.277Z</time>
      </trkpt>
      <trkpt lat="43.0868" lon="3.06221">
        <ele>4.985118</ele>
        <time>2022-08-30T21:15:25.754Z</time>
      </trkpt>
      <trkpt lat="43.08655" lon="3.06239">
        <ele>5.427527</ele>
        <time>2022-08-30T21:15:33.785Z</time>
      </trkpt>
      <trkpt lat="43.08644" lon="3.06275">
        <ele>5.897433</ele>
        <time>2022-08-30T21:15:42.596Z</time>
      </trkpt>
      <trkpt lat="43.08661" lon="3.0628">
        <ele>6.173386</ele>
        <time>2022-08-30T21:15:49.306Z</time>
      </trkpt>
      <trkpt lat="43.08666" lon="3.06302">
        <ele>6.445726</ele>
        <time>2022-08-30T21:15:56.267Z</time>
      </trkpt>
      <trkpt lat="43.08661" lon="3.06347">
        <ele>6.976216</ele>
        <time>2022-08-30T21:16:08.928Z</time>
      </trkpt>
      <trkpt lat="43.08656" lon="3.06367">
        <ele>7.231387</ele>
        <time>2022-08-30T21:16:14.826Z</time>
      </trkpt>
      <trkpt lat="43.08647" lon="3.06371">
        <ele>7.388607</ele>
        <time>2022-08-30T21:16:18.492Z</time>
      </trkpt>
      <trkpt lat="43.0864" lon="3.06386">
        <ele>7.596261</ele>
        <time>2022-08-30T21:16:23.573Z</time>
      </trkpt>
      <trkpt lat="43.08636" lon="3.06428">
        <ele>8.222466</ele>
        <time>2022-08-30T21:16:34.145Z</time>
      </trkpt>
      <trkpt lat="43.08644" lon="3.06431">
        <ele>8.413766</ele>
        <time>2022-08-30T21:16:38.170Z</time>
      </trkpt>
      <trkpt lat="43.08631" lon="3.0658">
        <ele>11.154104</ele>
        <time>2022-08-30T21:17:24.619Z</time>
      </trkpt>
      <trkpt lat="43.08639" lon="3.06592">
        <ele>11.447174</ele>
        <time>2022-08-30T21:17:29.749Z</time>
      </trkpt>
      <trkpt lat="43.08654" lon="3.06594">
        <ele>11.822741</ele>
        <time>2022-08-30T21:17:35.849Z</time>
      </trkpt>
      <trkpt lat="43.08658" lon="3.06597">
        <ele>11.949603</ele>
        <time>2022-08-30T21:17:39.994Z</time>
      </trkpt>
      <trkpt lat="43.08661" lon="3.06622">
        <ele>12.424249</ele>
        <time>2022-08-30T21:17:49.211Z</time>
      </trkpt>
      <trkpt lat="43.08652" lon="3.06714">
        <ele>14.714443</ele>
        <time>2022-08-30T21:18:25.344Z</time>
      </trkpt>
      <trkpt lat="43.0864" lon="3.06763">
        <ele>16.001054</ele>
        <time>2022-08-30T21:18:45.953Z</time>
      </trkpt>
      <trkpt lat="43.08638" lon="3.06832">
        <ele>17.70145</ele>
        <time>2022-08-30T21:19:12.296Z</time>
      </trkpt>
      <trkpt lat="43.08643" lon="3.06849">
        <ele>18.154955</ele>
        <time>2022-08-30T21:19:17.625Z</time>
      </trkpt>
      <trkpt lat="43.08652" lon="3.06859">
        <ele>18.39845</ele>
        <time>2022-08-30T21:19:22.119Z</time>
      </trkpt>
      <trkpt lat="43.0868" lon="3.06884">
        <ele>17.634058</ele>
        <time>2022-08-30T21:19:32.642Z</time>
      </trkpt>
      <trkpt lat="43.08706" lon="3.06891">
        <ele>17.045532</ele>
        <time>2022-08-30T21:19:40.423Z</time>
      </trkpt>
      <trkpt lat="43.08714" lon="3.06899">
        <ele>16.825544</ele>
        <time>2022-08-30T21:19:43.076Z</time>
      </trkpt>
      <trkpt lat="43.08723" lon="3.06954">
        <ele>15.888419</ele>
        <time>2022-08-30T21:19:54.234Z</time>
      </trkpt>
      <trkpt lat="43.08711" lon="3.07025">
        <ele>14.689286</ele>
        <time>2022-08-30T21:20:07.283Z</time>
      </trkpt>
      <trkpt lat="43.08714" lon="3.07046">
        <ele>14.251433</ele>
        <time>2022-08-30T21:20:10.880Z</time>
      </trkpt>
      <trkpt lat="43.08728" lon="3.07066">
        <ele>13.269468</ele>
        <time>2022-08-30T21:20:15.732Z</time>
      </trkpt>
      <trkpt lat="43.08725" lon="3.07113">
        <ele>11.577853</ele>
        <time>2022-08-30T21:20:23.813Z</time>
      </trkpt>
      <trkpt lat="43.08736" lon="3.07126">
        <ele>10.8805</ele>
        <time>2022-08-30T21:20:27.051Z</time>
      </trkpt>
      <trkpt lat="43.08728" lon="3.07204">
        <ele>8.047477</ele>
        <time>2022-08-30T21:20:40.773Z</time>
      </trkpt>
      <trkpt lat="43.08724" lon="3.07227">
        <ele>7.20621</ele>
        <time>2022-08-30T21:20:44.798Z</time>
      </trkpt>
      <trkpt lat="43.08727" lon="3.07232">
        <ele>6.973002</ele>
        <time>2022-08-30T21:20:46.015Z</time>
      </trkpt>
      <trkpt lat="43.08762" lon="3.0727">
        <ele>5.251848</ele>
        <time>2022-08-30T21:20:57.362Z</time>
      </trkpt>
      <trkpt lat="43.08767" lon="3.07285">
        <ele>5.024826</ele>
        <time>2022-08-30T21:21:00.300Z</time>
      </trkpt>
      <trkpt lat="43.08775" lon="3.07291">
        <ele>4.837743</ele>
        <time>2022-08-30T21:21:02.722Z</time>
      </trkpt>
      <trkpt lat="43.08839" lon="3.07276">
        <ele>3.578553</ele>
        <time>2022-08-30T21:21:20.130Z</time>
      </trkpt>
      <trkpt lat="43.08852" lon="3.07278">
        <ele>3.32735</ele>
        <time>2022-08-30T21:21:23.844Z</time>
      </trkpt>
      <trkpt lat="43.08883" lon="3.07287">
        <ele>2.702023</ele>
        <time>2022-08-30T21:21:33.242Z</time>
      </trkpt>
      <trkpt lat="43.08905" lon="3.07308">
        <ele>2.170129</ele>
        <time>2022-08-30T21:21:41.408Z</time>
      </trkpt>
      <trkpt lat="43.08917" lon="3.07322">
        <ele>2.046293</ele>
        <time>2022-08-30T21:21:46.175Z</time>
      </trkpt>
      <trkpt lat="43.08964" lon="3.07378">
        <ele>2.069226</ele>
        <time>2022-08-30T21:22:06.112Z</time>
      </trkpt>
      <trkpt lat="43.08997" lon="3.07435">
        <ele>2.088874</ele>
        <time>2022-08-30T21:22:23.614Z</time>
      </trkpt>
      <trkpt lat="43.09019" lon="3.07534">
        <ele>2.105943</ele>
        <time>2022-08-30T21:22:48.382Z</time>
      </trkpt>
      <trkpt lat="43.0902" lon="3.07562">
        <ele>2.102698</ele>
        <time>2022-08-30T21:22:55.109Z</time>
      </trkpt>
      <trkpt lat="43.08993" lon="3.07636">
        <ele>2.09284</ele>
        <time>2022-08-30T21:23:15.296Z</time>
      </trkpt>
      <trkpt lat="43.08974" lon="3.07656">
        <ele>2.089043</ele>
        <time>2022-08-30T21:23:22.916Z</time>
      </trkpt>
      <trkpt lat="43.0894" lon="3.07678">
        <ele>2.083042</ele>
        <time>2022-08-30T21:23:34.499Z</time>
      </trkpt>
      <trkpt lat="43.08891" lon="3.0776">
        <ele>1.660391</ele>
        <time>2022-08-30T21:23:57.790Z</time>
      </trkpt>
      <trkpt lat="43.08872" lon="3.07803">
        <ele>1.406588</ele>
        <time>2022-08-30T21:24:08.612Z</time>
      </trkpt>
      <trkpt lat="43.08846" lon="3.07834">
        <ele>1.165587</ele>
        <time>2022-08-30T21:24:18.918Z</time>
      </trkpt>
      <trkpt lat="43.08827" lon="3.07883">
        <ele>0.883472</ele>
        <time>2022-08-30T21:24:31.027Z</time>
      </trkpt>
      <trkpt lat="43.08856" lon="3.07964">
        <ele>0.577861</ele>
        <time>2022-08-30T21:24:43.106Z</time>
      </trkpt>
      <trkpt lat="43.08842" lon="3.07992">
        <ele>0.470014</ele>
        <time>2022-08-30T21:24:50.574Z</time>
      </trkpt>
      <trkpt lat="43.0882" lon="3.08133">
        <ele>0.050144</ele>
        <time>2022-08-30T21:25:23.301Z</time>
      </trkpt>
      <trkpt lat="43.08819" lon="3.08138">
        <ele>0.049775</ele>
        <time>2022-08-30T21:25:24.533Z</time>
      </trkpt>
      <trkpt lat="43.08636" lon="3.09133">
        <ele>0.049468</ele>
        <time>2022-08-30T21:29:22.597Z</time>
      </trkpt>
      <trkpt lat="43.08629" lon="3.09157">
        <ele>0.072041</ele>
        <time>2022-08-30T21:29:28.670Z</time>
      </trkpt>
      <trkpt lat="43.08615" lon="3.09174">
        <ele>0.094483</ele>
        <time>2022-08-30T21:29:34.712Z</time>
      </trkpt>
      <trkpt lat="43.08617" lon="3.09183">
        <ele>0.102307</ele>
        <time>2022-08-30T21:29:36.824Z</time>
      </trkpt>
      <trkpt lat="43.08725" lon="3.09296">
        <ele>0.394869</ele>
        <time>2022-08-30T21:30:21.602Z</time>
      </trkpt>
      <trkpt lat="43.08728" lon="3.09305">
        <ele>0.425597</ele>
        <time>2022-08-30T21:30:24.046Z</time>
      </trkpt>
      <trkpt lat="43.08707" lon="3.09892">
        <ele>1.82987</ele>
        <time>2022-08-30T21:32:50.226Z</time>
      </trkpt>
      <trkpt lat="43.08709" lon="3.09905">
        <ele>1.837056</ele>
        <time>2022-08-30T21:32:53.203Z</time>
      </trkpt>
      <trkpt lat="43.08727" lon="3.09921">
        <ele>1.853149</ele>
        <time>2022-08-30T21:32:59.892Z</time>
      </trkpt>
      <trkpt lat="43.08734" lon="3.09928">
        <ele>1.859387</ele>
        <time>2022-08-30T21:33:02.476Z</time>
      </trkpt>
      <trkpt lat="43.08769" lon="3.09983">
        <ele>1.642902</ele>
        <time>2022-08-30T21:33:18.364Z</time>
      </trkpt>
      <trkpt lat="43.08811" lon="3.10036">
        <ele>1.246254</ele>
        <time>2022-08-30T21:33:35.291Z</time>
      </trkpt>
      <trkpt lat="43.08843" lon="3.10108">
        <ele>0.823132</ele>
        <time>2022-08-30T21:33:53.443Z</time>
      </trkpt>
      <trkpt lat="43.08882" lon="3.1018">
        <ele>0.529896</ele>
        <time>2022-08-30T21:34:13.497Z</time>
      </trkpt>
      <trkpt lat="43.09002" lon="3.10313">
        <ele>0.139267</ele>
        <time>2022-08-30T21:35:01.591Z</time>
      </trkpt>
      <trkpt lat="43.09167" lon="3.10466">
        <ele>0.022218</ele>
        <time>2022-08-30T21:36:04.660Z</time>
      </trkpt>
      <trkpt lat="43.09222" lon="3.1051">
        <ele>0.025471</ele>
        <time>2022-08-30T21:36:24.653Z</time>
      </trkpt>
      <trkpt lat="43.09274" lon="3.10539">
        <ele>0.028384</ele>
        <time>2022-08-30T21:36:42.602Z</time>
      </trkpt>
      <trkpt lat="43.09402" lon="3.10576">
        <ele>0.136327</ele>
        <time>2022-08-30T21:37:24.691Z</time>
      </trkpt>
      <trkpt lat="43.09443" lon="3.10575">
        <ele>0.179034</ele>
        <time>2022-08-30T21:37:38.138Z</time>
      </trkpt>
      <trkpt lat="43.09481" lon="3.10564">
        <ele>0.220743</ele>
        <time>2022-08-30T21:37:50.640Z</time>
      </trkpt>
      <trkpt lat="43.09495" lon="3.10553">
        <ele>0.257549</ele>
        <time>2022-08-30T21:37:56.140Z</time>
      </trkpt>
      <trkpt lat="43.09509" lon="3.1052">
        <ele>0.317304</ele>
        <time>2022-08-30T21:38:05.104Z</time>
      </trkpt>
      <trkpt lat="43.09538" lon="3.10415">
        <ele>0.496817</ele>
        <time>2022-08-30T21:38:32.002Z</time>
      </trkpt>
      <trkpt lat="43.0949" lon="3.10289">
        <ele>0.743823</ele>
        <time>2022-08-30T21:39:06.125Z</time>
      </trkpt>
      <trkpt lat="43.09483" lon="3.10271">
        <ele>0.781966</ele>
        <time>2022-08-30T21:39:11.055Z</time>
      </trkpt>
      <trkpt lat="43.09454" lon="3.10158">
        <ele>1.007192</ele>
        <time>2022-08-30T21:39:40.208Z</time>
      </trkpt>
      <trkpt lat="43.09396" lon="3.09969">
        <ele>1.323553</ele>
        <time>2022-08-30T21:40:29.864Z</time>
      </trkpt>
      <trkpt lat="43.09337" lon="3.09808">
        <ele>1.476959</ele>
        <time>2022-08-30T21:41:11.923Z</time>
      </trkpt>
      <trkpt lat="43.09332" lon="3.09767">
        <ele>1.493837</ele>
        <time>2022-08-30T21:41:21.587Z</time>
      </trkpt>
      <trkpt lat="43.09336" lon="3.09754">
        <ele>1.499468</ele>
        <time>2022-08-30T21:41:24.811Z</time>
      </trkpt>
      <trkpt lat="43.09571" lon="3.09341">
        <ele>1.790891</ele>
        <time>2022-08-30T21:43:27.454Z</time>
      </trkpt>
      <trkpt lat="43.09734" lon="3.09291">
        <ele>1.902148</ele>
        <time>2022-08-30T21:44:23.018Z</time>
      </trkpt>
      <trkpt lat="43.09735" lon="3.09291">
        <ele>1.90246</ele>
        <time>2022-08-30T21:44:23.133Z</time>
      </trkpt>
      <trkpt lat="43.1001" lon="3.09392">
        <ele>1.32473</ele>
        <time>2022-08-30T21:45:51.314Z</time>
      </trkpt>
      <trkpt lat="43.10024" lon="3.09386">
        <ele>1.309667</ele>
        <time>2022-08-30T21:45:56.063Z</time>
      </trkpt>
      <trkpt lat="43.10029" lon="3.09314">
        <ele>1.257185</ele>
        <time>2022-08-30T21:46:12.612Z</time>
      </trkpt>
      <trkpt lat="43.10027" lon="3.09268">
        <ele>1.22311</ele>
        <time>2022-08-30T21:46:23.418Z</time>
      </trkpt>
      <trkpt lat="43.1003" lon="3.09124">
        <ele>1.311096</ele>
        <time>2022-08-30T21:46:57.739Z</time>
      </trkpt>
      <trkpt lat="43.10031" lon="3.09117">
        <ele>1.318285</ele>
        <time>2022-08-30T21:46:59.298Z</time>
      </trkpt>
      <trkpt lat="43.10046" lon="3.09072">
        <ele>1.370573</ele>
        <time>2022-08-30T21:47:11.109Z</time>
      </trkpt>
      <trkpt lat="43.10095" lon="3.08926">
        <ele>1.649612</ele>
        <time>2022-08-30T21:47:48.538Z</time>
      </trkpt>
      <trkpt lat="43.1011" lon="3.08806">
        <ele>1.950429</ele>
        <time>2022-08-30T21:48:18.969Z</time>
      </trkpt>
      <trkpt lat="43.10104" lon="3.08773">
        <ele>2.035871</ele>
        <time>2022-08-30T21:48:27.818Z</time>
      </trkpt>
      <trkpt lat="43.10108" lon="3.08748">
        <ele>2.105701</ele>
        <time>2022-08-30T21:48:34.178Z</time>
      </trkpt>
      <trkpt lat="43.10112" lon="3.08738">
        <ele>2.140311</ele>
        <time>2022-08-30T21:48:36.938Z</time>
      </trkpt>
      <trkpt lat="43.1013" lon="3.08715">
        <ele>2.243994</ele>
        <time>2022-08-30T21:48:45.546Z</time>
      </trkpt>
      <trkpt lat="43.10139" lon="3.08703">
        <ele>2.297046</ele>
        <time>2022-08-30T21:48:48.239Z</time>
      </trkpt>
      <trkpt lat="43.1015" lon="3.08688">
        <ele>2.359599</ele>
        <time>2022-08-30T21:48:51.777Z</time>
      </trkpt>
      <trkpt lat="43.10177" lon="3.08649">
        <ele>2.525537</ele>
        <time>2022-08-30T21:49:00.257Z</time>
      </trkpt>
      <trkpt lat="43.10209" lon="3.08604">
        <ele>2.714069</ele>
        <time>2022-08-30T21:49:09.918Z</time>
      </trkpt>
      <trkpt lat="43.10276" lon="3.08498">
        <ele>2.836603</ele>
        <time>2022-08-30T21:49:33.979Z</time>
      </trkpt>
      <trkpt lat="43.10305" lon="3.08462">
        <ele>2.848166</ele>
        <time>2022-08-30T21:49:45.888Z</time>
      </trkpt>
      <trkpt lat="43.10325" lon="3.08444">
        <ele>2.855414</ele>
        <time>2022-08-30T21:49:53.257Z</time>
      </trkpt>
      <trkpt lat="43.10344" lon="3.08415">
        <ele>2.864081</ele>
        <time>2022-08-30T21:50:02.028Z</time>
      </trkpt>
      <trkpt lat="43.10367" lon="3.08385">
        <ele>2.839849</ele>
        <time>2022-08-30T21:50:11.742Z</time>
      </trkpt>
      <trkpt lat="43.10468" lon="3.08435">
        <ele>2.714592</ele>
        <time>2022-08-30T21:50:45.568Z</time>
      </trkpt>
      <trkpt lat="43.10497" lon="3.0845">
        <ele>2.678582</ele>
        <time>2022-08-30T21:50:55.265Z</time>
      </trkpt>
      <trkpt lat="43.10501" lon="3.08452">
        <ele>2.673759</ele>
        <time>2022-08-30T21:50:56.648Z</time>
      </trkpt>
      <trkpt lat="43.10503" lon="3.08446">
        <ele>2.668361</ele>
        <time>2022-08-30T21:50:58.171Z</time>
      </trkpt>
      <trkpt lat="43.10511" lon="3.08426">
        <ele>2.710132</ele>
        <time>2022-08-30T21:51:03.306Z</time>
      </trkpt>
      <trkpt lat="43.10514" lon="3.08427">
        <ele>2.731284</ele>
        <time>2022-08-30T21:51:04.079Z</time>
      </trkpt>
      <trkpt lat="43.10531" lon="3.08423">
        <ele>2.867983</ele>
        <time>2022-08-30T21:51:09.844Z</time>
      </trkpt>
      <trkpt lat="43.1059" lon="3.08354">
        <ele>3.492121</ele>
        <time>2022-08-30T21:51:36.622Z</time>
      </trkpt>
      <trkpt lat="43.10625" lon="3.08342">
        <ele>3.786591</ele>
        <time>2022-08-30T21:51:50.670Z</time>
      </trkpt>
      <trkpt lat="43.10678" lon="3.08289">
        <ele>4.375669</ele>
        <time>2022-08-30T21:52:16.444Z</time>
      </trkpt>
      <trkpt lat="43.10741" lon="3.08279">
        <ele>5.041705</ele>
        <time>2022-08-30T21:52:41.041Z</time>
      </trkpt>
      <trkpt lat="43.10768" lon="3.08296">
        <ele>5.350729</ele>
        <time>2022-08-30T21:52:52.275Z</time>
      </trkpt>
      <trkpt lat="43.10809" lon="3.08304">
        <ele>5.779026</ele>
        <time>2022-08-30T21:53:06.484Z</time>
      </trkpt>
      <trkpt lat="43.10831" lon="3.08323">
        <ele>5.952397</ele>
        <time>2022-08-30T21:53:15.594Z</time>
      </trkpt>
      <trkpt lat="43.10851" lon="3.08351">
        <ele>5.861944</ele>
        <time>2022-08-30T21:53:24.956Z</time>
      </trkpt>
      <trkpt lat="43.10869" lon="3.08388">
        <ele>5.758288</ele>
        <time>2022-08-30T21:53:35.329Z</time>
      </trkpt>
      <trkpt lat="43.10877" lon="3.0843">
        <ele>5.656366</ele>
        <time>2022-08-30T21:53:45.237Z</time>
      </trkpt>
      <trkpt lat="43.1088" lon="3.08467">
        <ele>5.569955</ele>
        <time>2022-08-30T21:53:53.127Z</time>
      </trkpt>
      <trkpt lat="43.10902" lon="3.08502">
        <ele>5.460432</ele>
        <time>2022-08-30T21:54:03.160Z</time>
      </trkpt>
      <trkpt lat="43.10883" lon="3.08578">
        <ele>5.115032</ele>
        <time>2022-08-30T21:54:20.490Z</time>
      </trkpt>
      <trkpt lat="43.10869" lon="3.08608">
        <ele>4.933508</ele>
        <time>2022-08-30T21:54:28.084Z</time>
      </trkpt>
      <trkpt lat="43.10896" lon="3.08655">
        <ele>4.629156</ele>
        <time>2022-08-30T21:54:40.984Z</time>
      </trkpt>
      <trkpt lat="43.10897" lon="3.08664">
        <ele>4.577283</ele>
        <time>2022-08-30T21:54:43.306Z</time>
      </trkpt>
      <trkpt lat="43.10864" lon="3.08694">
        <ele>4.297419</ele>
        <time>2022-08-30T21:54:55.359Z</time>
      </trkpt>
      <trkpt lat="43.10844" lon="3.08714">
        <ele>4.120548</ele>
        <time>2022-08-30T21:55:02.829Z</time>
      </trkpt>
      <trkpt lat="43.10817" lon="3.08764">
        <ele>3.71988</ele>
        <time>2022-08-30T21:55:16.140Z</time>
      </trkpt>
      <trkpt lat="43.10794" lon="3.08801">
        <ele>3.396986</ele>
        <time>2022-08-30T21:55:26.780Z</time>
      </trkpt>
      <trkpt lat="43.10791" lon="3.08817">
        <ele>3.291464</ele>
        <time>2022-08-30T21:55:30.278Z</time>
      </trkpt>
      <trkpt lat="43.10868" lon="3.09005">
        <ele>2.140431</ele>
        <time>2022-08-30T21:56:16.086Z</time>
      </trkpt>
      <trkpt lat="43.10904" lon="3.09018">
        <ele>1.940695</ele>
        <time>2022-08-30T21:56:27.066Z</time>
      </trkpt>
      <trkpt lat="43.10923" lon="3.09026">
        <ele>1.830952</ele>
        <time>2022-08-30T21:56:33.216Z</time>
      </trkpt>
      <trkpt lat="43.10927" lon="3.09027">
        <ele>1.808804</ele>
        <time>2022-08-30T21:56:34.462Z</time>
      </trkpt>
      <trkpt lat="43.10938" lon="3.09032">
        <ele>1.747872</ele>
        <time>2022-08-30T21:56:36.454Z</time>
      </trkpt>
      <trkpt lat="43.11208" lon="3.09132">
        <ele>3.284671</ele>
        <time>2022-08-30T21:57:38.977Z</time>
      </trkpt>
      <trkpt lat="43.11224" lon="3.09167">
        <ele>3.603404</ele>
        <time>2022-08-30T21:57:50.431Z</time>
      </trkpt>
      <trkpt lat="43.11239" lon="3.09173">
        <ele>3.773555</ele>
        <time>2022-08-30T21:57:56.227Z</time>
      </trkpt>
      <trkpt lat="43.11242" lon="3.09198">
        <ele>3.970357</ele>
        <time>2022-08-30T21:58:02.352Z</time>
      </trkpt>
      <trkpt lat="43.11237" lon="3.09224">
        <ele>4.178656</ele>
        <time>2022-08-30T21:58:08.344Z</time>
      </trkpt>
      <trkpt lat="43.11248" lon="3.09228">
        <ele>4.302019</ele>
        <time>2022-08-30T21:58:13.278Z</time>
      </trkpt>
      <trkpt lat="43.11265" lon="3.09291">
        <ele>4.726751</ele>
        <time>2022-08-30T21:58:34.367Z</time>
      </trkpt>
      <trkpt lat="43.11254" lon="3.09308">
        <ele>4.84454</ele>
        <time>2022-08-30T21:58:41.505Z</time>
      </trkpt>
      <trkpt lat="43.11237" lon="3.09316">
        <ele>4.971906</ele>
        <time>2022-08-30T21:58:49.227Z</time>
      </trkpt>
      <trkpt lat="43.11235" lon="3.09337">
        <ele>5.083433</ele>
        <time>2022-08-30T21:58:55.985Z</time>
      </trkpt>
      <trkpt lat="43.11248" lon="3.09367">
        <ele>5.265037</ele>
        <time>2022-08-30T21:59:06.994Z</time>
      </trkpt>
      <trkpt lat="43.11228" lon="3.09407">
        <ele>5.515118</ele>
        <time>2022-08-30T21:59:22.150Z</time>
      </trkpt>
      <trkpt lat="43.1123" lon="3.09396">
        <ele>5.570841</ele>
        <time>2022-08-30T21:59:25.535Z</time>
      </trkpt>
      <trkpt lat="43.11222" lon="3.0941">
        <ele>5.657877</ele>
        <time>2022-08-30T21:59:28.257Z</time>
      </trkpt>
      <trkpt lat="43.11183" lon="3.09478">
        <ele>5.510146</ele>
        <time>2022-08-30T21:59:40.757Z</time>
      </trkpt>
      <trkpt lat="43.11165" lon="3.09498">
        <ele>5.361079</ele>
        <time>2022-08-30T21:59:45.247Z</time>
      </trkpt>
      <trkpt lat="43.11161" lon="3.09493">
        <ele>5.326401</ele>
        <time>2022-08-30T21:59:48.879Z</time>
      </trkpt>
      <trkpt lat="43.11134" lon="3.09548">
        <ele>5.009858</ele>
        <time>2022-08-30T21:59:57.106Z</time>
      </trkpt>
      <trkpt lat="43.11127" lon="3.09563">
        <ele>4.924704</ele>
        <time>2022-08-30T21:59:59.443Z</time>
      </trkpt>
      <trkpt lat="43.11118" lon="3.09566">
        <ele>4.864989</ele>
        <time>2022-08-30T22:00:00.958Z</time>
      </trkpt>
      <trkpt lat="43.11103" lon="3.09552">
        <ele>4.74567</ele>
        <time>2022-08-30T22:00:05.056Z</time>
      </trkpt>
      <trkpt lat="43.11086" lon="3.09537">
        <ele>4.603705</ele>
        <time>2022-08-30T22:00:09.793Z</time>
      </trkpt>
      <trkpt lat="43.1106" lon="3.09513">
        <ele>4.254756</ele>
        <time>2022-08-30T22:00:30.959Z</time>
      </trkpt>
      <trkpt lat="43.11035" lon="3.09566">
        <ele>3.725088</ele>
        <time>2022-08-30T22:00:38.857Z</time>
      </trkpt>
      <trkpt lat="43.11031" lon="3.09563">
        <ele>3.668894</ele>
        <time>2022-08-30T22:00:39.650Z</time>
      </trkpt>
      <trkpt lat="43.11028" lon="3.09568">
        <ele>3.61687</ele>
        <time>2022-08-30T22:00:42.836Z</time>
      </trkpt>
      <trkpt lat="43.10994" lon="3.09637">
        <ele>2.921938</ele>
        <time>2022-08-30T22:00:56.400Z</time>
      </trkpt>
      <trkpt lat="43.10968" lon="3.0969">
        <ele>2.579586</ele>
        <time>2022-08-30T22:01:07.357Z</time>
      </trkpt>
      <trkpt lat="43.10957" lon="3.0968">
        <ele>2.598293</ele>
        <time>2022-08-30T22:01:10.671Z</time>
      </trkpt>
      <trkpt lat="43.10951" lon="3.09692">
        <ele>2.612441</ele>
        <time>2022-08-30T22:01:13.104Z</time>
      </trkpt>
      <trkpt lat="43.10915" lon="3.09765">
        <ele>2.702035</ele>
        <time>2022-08-30T22:01:29.382Z</time>
      </trkpt>
      <trkpt lat="43.10918" lon="3.09777">
        <ele>2.714515</ele>
        <time>2022-08-30T22:01:31.790Z</time>
      </trkpt>
      <trkpt lat="43.10915" lon="3.09784">
        <ele>2.723469</ele>
        <time>2022-08-30T22:01:33.607Z</time>
      </trkpt>
      <trkpt lat="43.10911" lon="3.09792">
        <ele>2.732751</ele>
        <time>2022-08-30T22:01:35.494Z</time>
      </trkpt>
      <trkpt lat="43.10909" lon="3.09797">
        <ele>2.737696</ele>
        <time>2022-08-30T22:01:36.453Z</time>
      </trkpt>
      <trkpt lat="43.10965" lon="3.09876">
        <ele>3.01071</ele>
        <time>2022-08-30T22:01:56.365Z</time>
      </trkpt>
      <trkpt lat="43.10962" lon="3.09925">
        <ele>3.253068</ele>
        <time>2022-08-30T22:02:05.941Z</time>
      </trkpt>
      <trkpt lat="43.1096" lon="3.09956">
        <ele>3.406409</ele>
        <time>2022-08-30T22:02:13.081Z</time>
      </trkpt>
      <trkpt lat="43.10956" lon="3.09993">
        <ele>3.594625</ele>
        <time>2022-08-30T22:02:21.711Z</time>
      </trkpt>
      <trkpt lat="43.10977" lon="3.1">
        <ele>3.740652</ele>
        <time>2022-08-30T22:02:26.650Z</time>
      </trkpt>
      <trkpt lat="43.10968" lon="3.10063">
        <ele>3.958304</ele>
        <time>2022-08-30T22:02:38.956Z</time>
      </trkpt>
      <trkpt lat="43.10965" lon="3.10083">
        <ele>3.805234</ele>
        <time>2022-08-30T22:02:42.466Z</time>
      </trkpt>
      <trkpt lat="43.1096" lon="3.10114">
        <ele>3.562074</ele>
        <time>2022-08-30T22:02:47.923Z</time>
      </trkpt>
      <trkpt lat="43.10939" lon="3.10115">
        <ele>3.342709</ele>
        <time>2022-08-30T22:02:51.484Z</time>
      </trkpt>
      <trkpt lat="43.10935" lon="3.10135">
        <ele>3.189539</ele>
        <time>2022-08-30T22:02:54.143Z</time>
      </trkpt>
      <trkpt lat="43.10914" lon="3.10267">
        <ele>2.164933</ele>
        <time>2022-08-30T22:03:11.217Z</time>
      </trkpt>
      <trkpt lat="43.10906" lon="3.10307">
        <ele>2.070393</ele>
        <time>2022-08-30T22:03:16.443Z</time>
      </trkpt>
      <trkpt lat="43.10962" lon="3.10327">
        <ele>1.898779</ele>
        <time>2022-08-30T22:03:26.994Z</time>
      </trkpt>
      <trkpt lat="43.10989" lon="3.10306">
        <ele>1.806595</ele>
        <time>2022-08-30T22:03:33.109Z</time>
      </trkpt>
      <trkpt lat="43.11092" lon="3.10451">
        <ele>1.822289</ele>
        <time>2022-08-30T22:04:09.002Z</time>
      </trkpt>
      <trkpt lat="43.11098" lon="3.10441">
        <ele>1.843459</ele>
        <time>2022-08-30T22:04:10.948Z</time>
      </trkpt>
      <trkpt lat="43.11114" lon="3.1046">
        <ele>1.892166</ele>
        <time>2022-08-30T22:04:16.791Z</time>
      </trkpt>
      <trkpt lat="43.11124" lon="3.10471">
        <ele>1.920612</ele>
        <time>2022-08-30T22:04:19.811Z</time>
      </trkpt>
      <trkpt lat="43.11117" lon="3.10485">
        <ele>1.948592</ele>
        <time>2022-08-30T22:04:23.000Z</time>
      </trkpt>
      <trkpt lat="43.11132" lon="3.10504">
        <ele>1.996272</ele>
        <time>2022-08-30T22:04:28.018Z</time>
      </trkpt>
      <trkpt lat="43.11193" lon="3.10639">
        <ele>1.242959</ele>
        <time>2022-08-30T22:04:54.668Z</time>
      </trkpt>
      <trkpt lat="43.1123" lon="3.10717">
        <ele>0.700438</ele>
        <time>2022-08-30T22:05:09.818Z</time>
      </trkpt>
      <trkpt lat="43.11265" lon="3.10794">
        <ele>0.502804</ele>
        <time>2022-08-30T22:05:26.148Z</time>
      </trkpt>
      <trkpt lat="43.11279" lon="3.10823">
        <ele>0.463794</ele>
        <time>2022-08-30T22:05:32.416Z</time>
      </trkpt>
      <trkpt lat="43.11291" lon="3.10849">
        <ele>0.427685</ele>
        <time>2022-08-30T22:05:38.209Z</time>
      </trkpt>
      <trkpt lat="43.1133" lon="3.10931">
        <ele>0.317141</ele>
        <time>2022-08-30T22:05:56.400Z</time>
      </trkpt>
      <trkpt lat="43.11338" lon="3.10962">
        <ele>0.276065</ele>
        <time>2022-08-30T22:06:12.931Z</time>
      </trkpt>
      <trkpt lat="43.11344" lon="3.10986">
        <ele>0.241923</ele>
        <time>2022-08-30T22:06:26.005Z</time>
      </trkpt>
      <trkpt lat="43.11348" lon="3.11">
        <ele>0.222456</ele>
        <time>2022-08-30T22:06:33.495Z</time>
      </trkpt>
      <trkpt lat="43.11361" lon="3.11049">
        <ele>0.152869</ele>
        <time>2022-08-30T22:07:00.163Z</time>
      </trkpt>
      <trkpt lat="43.11369" lon="3.11076">
        <ele>0.115093</ele>
        <time>2022-08-30T22:07:14.627Z</time>
      </trkpt>
      <trkpt lat="43.11386" lon="3.11142">
        <ele>0.021685</ele>
        <time>2022-08-30T22:07:50.438Z</time>
      </trkpt>
      <trkpt lat="43.11402" lon="3.11213">
        <ele>-0.07402</ele>
        <time>2022-08-30T22:08:28.209Z</time>
      </trkpt>
      <trkpt lat="43.11406" lon="3.11233">
        <ele>-0.099588</ele>
        <time>2022-08-30T22:08:38.578Z</time>
      </trkpt>
      <trkpt lat="43.11411" lon="3.11257">
        <ele>-0.130875</ele>
        <time>2022-08-30T22:08:51.257Z</time>
      </trkpt>
      <trkpt lat="43.11405" lon="3.1132">
        <ele>-0.210151</ele>
        <time>2022-08-30T22:09:23.418Z</time>
      </trkpt>
      <trkpt lat="43.11401" lon="3.11358">
        <ele>-0.258381</ele>
        <time>2022-08-30T22:09:42.923Z</time>
      </trkpt>
      <trkpt lat="43.11402" lon="3.11358">
        <ele>-0.260411</ele>
        <time>2022-08-30T22:09:43.780Z</time>
      </trkpt>
      <trkpt lat="43.11401" lon="3.11358">
        <ele>-0.262441</ele>
        <time>2022-08-30T22:09:44.637Z</time>
      </trkpt>
      <trkpt lat="43.11405" lon="3.1132">
        <ele>-0.310671</ele>
        <time>2022-08-30T22:10:04.142Z</time>
      </trkpt>
      <trkpt lat="43.11414" lon="3.1132">
        <ele>-0.326446</ele>
        <time>2022-08-30T22:10:10.578Z</time>
      </trkpt>
      <trkpt lat="43.11444" lon="3.11298">
        <ele>-0.035768</ele>
        <time>2022-08-30T22:10:34.059Z</time>
      </trkpt>
      <trkpt lat="43.11446" lon="3.11304">
        <ele>0.004129</ele>
        <time>2022-08-30T22:10:35.211Z</time>
      </trkpt>
      <trkpt lat="43.11454" lon="3.11321">
        <ele>0.142885</ele>
        <time>2022-08-30T22:10:39.451Z</time>
      </trkpt>
      <trkpt lat="43.11468" lon="3.11313">
        <ele>0.287201</ele>
        <time>2022-08-30T22:10:44.331Z</time>
      </trkpt>
      <trkpt lat="43.11479" lon="3.11332">
        <ele>0.451045</ele>
        <time>2022-08-30T22:10:49.383Z</time>
      </trkpt>
      <trkpt lat="43.11495" lon="3.11337">
        <ele>0.60322</ele>
        <time>2022-08-30T22:10:54.591Z</time>
      </trkpt>
      <trkpt lat="43.11543" lon="3.11313">
        <ele>1.087551</ele>
        <time>2022-08-30T22:11:07.413Z</time>
      </trkpt>
      <trkpt lat="43.11556" lon="3.11307">
        <ele>1.21507</ele>
        <time>2022-08-30T22:11:10.716Z</time>
      </trkpt>
      <trkpt lat="43.11602" lon="3.11297">
        <ele>1.456155</ele>
        <time>2022-08-30T22:11:22.084Z</time>
      </trkpt>
      <trkpt lat="43.11646" lon="3.11287">
        <ele>1.587257</ele>
        <time>2022-08-30T22:11:31.954Z</time>
      </trkpt>
      <trkpt lat="43.11664" lon="3.11283">
        <ele>1.641204</ele>
        <time>2022-08-30T22:11:35.602Z</time>
      </trkpt>
      <trkpt lat="43.11683" lon="3.11278">
        <ele>1.698736</ele>
        <time>2022-08-30T22:11:39.716Z</time>
      </trkpt>
      <trkpt lat="43.11698" lon="3.11275">
        <ele>1.74374</ele>
        <time>2022-08-30T22:11:42.701Z</time>
      </trkpt>
      <trkpt lat="43.11701" lon="3.11284">
        <ele>1.764092</ele>
        <time>2022-08-30T22:11:44.150Z</time>
      </trkpt>
      <trkpt lat="43.11712" lon="3.11293">
        <ele>1.802056</ele>
        <time>2022-08-30T22:11:46.867Z</time>
      </trkpt>
      <trkpt lat="43.11722" lon="3.1129">
        <ele>1.832426</ele>
        <time>2022-08-30T22:11:48.951Z</time>
      </trkpt>
      <trkpt lat="43.11729" lon="3.11272">
        <ele>1.878054</ele>
        <time>2022-08-30T22:11:52.208Z</time>
      </trkpt>
      <trkpt lat="43.11745" lon="3.1127">
        <ele>1.918072</ele>
        <time>2022-08-30T22:11:55.499Z</time>
      </trkpt>
      <trkpt lat="43.11744" lon="3.11262">
        <ele>1.932406</ele>
        <time>2022-08-30T22:11:56.851Z</time>
      </trkpt>
      <trkpt lat="43.11777" lon="3.11258">
        <ele>2.009715</ele>
        <time>2022-08-30T22:12:04.089Z</time>
      </trkpt>
      <trkpt lat="43.11781" lon="3.11267">
        <ele>2.026671</ele>
        <time>2022-08-30T22:12:05.954Z</time>
      </trkpt>
      <trkpt lat="43.11828" lon="3.11259">
        <ele>2.134833</ele>
        <time>2022-08-30T22:12:16.030Z</time>
      </trkpt>
      <trkpt lat="43.11862" lon="3.11235">
        <ele>2.222378</ele>
        <time>2022-08-30T22:12:24.209Z</time>
      </trkpt>
      <trkpt lat="43.11878" lon="3.11221">
        <ele>2.265561</ele>
        <time>2022-08-30T22:12:28.237Z</time>
      </trkpt>
      <trkpt lat="43.119" lon="3.11209">
        <ele>2.319192</ele>
        <time>2022-08-30T22:12:33.474Z</time>
      </trkpt>
      <trkpt lat="43.1191" lon="3.1121">
        <ele>2.338758</ele>
        <time>2022-08-30T22:12:35.466Z</time>
      </trkpt>
      <trkpt lat="43.11916" lon="3.11205">
        <ele>2.352184</ele>
        <time>2022-08-30T22:12:36.808Z</time>
      </trkpt>
      <trkpt lat="43.11919" lon="3.11198">
        <ele>2.365372</ele>
        <time>2022-08-30T22:12:38.250Z</time>
      </trkpt>
      <trkpt lat="43.11918" lon="3.11179">
        <ele>2.393954</ele>
        <time>2022-08-30T22:12:41.316Z</time>
      </trkpt>
      <trkpt lat="43.11905" lon="3.1117">
        <ele>2.422661</ele>
        <time>2022-08-30T22:12:44.385Z</time>
      </trkpt>
      <trkpt lat="43.1189" lon="3.11158">
        <ele>2.457108</ele>
        <time>2022-08-30T22:12:48.056Z</time>
      </trkpt>
      <trkpt lat="43.11896" lon="3.11155">
        <ele>2.468978</ele>
        <time>2022-08-30T22:12:49.295Z</time>
      </trkpt>
      <trkpt lat="43.11909" lon="3.11157">
        <ele>2.495898</ele>
        <time>2022-08-30T22:12:52.257Z</time>
      </trkpt>
      <trkpt lat="43.11915" lon="3.11134">
        <ele>2.531881</ele>
        <time>2022-08-30T22:12:56.132Z</time>
      </trkpt>
      <trkpt lat="43.11919" lon="3.11134">
        <ele>2.540341</ele>
        <time>2022-08-30T22:12:56.962Z</time>
      </trkpt>
      <trkpt lat="43.11919" lon="3.11127">
        <ele>2.551074</ele>
        <time>2022-08-30T22:12:58.670Z</time>
      </trkpt>
      <trkpt lat="43.11949" lon="3.11075">
        <ele>2.648152</ele>
        <time>2022-08-30T22:13:13.849Z</time>
      </trkpt>
      <trkpt lat="43.12074" lon="3.10868">
        <ele>2.531358</ele>
        <time>2022-08-30T22:14:15.533Z</time>
      </trkpt>
      <trkpt lat="43.12097" lon="3.10784">
        <ele>2.607965</ele>
        <time>2022-08-30T22:14:36.538Z</time>
      </trkpt>
      <trkpt lat="43.12115" lon="3.10736">
        <ele>2.653685</ele>
        <time>2022-08-30T22:14:49.155Z</time>
      </trkpt>
      <trkpt lat="43.12176" lon="3.10608">
        <ele>3.050982</ele>
        <time>2022-08-30T22:15:26.117Z</time>
      </trkpt>
      <trkpt lat="43.12174" lon="3.10601">
        <ele>3.098477</ele>
        <time>2022-08-30T22:15:27.474Z</time>
      </trkpt>
      <trkpt lat="43.12245" lon="3.10543">
        <ele>3.730828</ele>
        <time>2022-08-30T22:15:47.270Z</time>
      </trkpt>
      <trkpt lat="43.12315" lon="3.10513">
        <ele>4.771922</ele>
        <time>2022-08-30T22:16:06.198Z</time>
      </trkpt>
      <trkpt lat="43.12338" lon="3.10491">
        <ele>5.54421</ele>
        <time>2022-08-30T22:16:13.652Z</time>
      </trkpt>
      <trkpt lat="43.12348" lon="3.10422">
        <ele>6.959011</ele>
        <time>2022-08-30T22:16:30.387Z</time>
      </trkpt>
      <trkpt lat="43.12366" lon="3.10356">
        <ele>8.374399</ele>
        <time>2022-08-30T22:16:49.678Z</time>
      </trkpt>
      <trkpt lat="43.12387" lon="3.10338">
        <ele>9.029586</ele>
        <time>2022-08-30T22:16:59.773Z</time>
      </trkpt>
      <trkpt lat="43.12399" lon="3.1032">
        <ele>9.97381</ele>
        <time>2022-08-30T22:17:07.329Z</time>
      </trkpt>
      <trkpt lat="43.124" lon="3.10254">
        <ele>12.576589</ele>
        <time>2022-08-30T22:17:30.474Z</time>
      </trkpt>
      <trkpt lat="43.12458" lon="3.10286">
        <ele>15.932784</ele>
        <time>2022-08-30T22:18:08.186Z</time>
      </trkpt>
      <trkpt lat="43.12507" lon="3.10286">
        <ele>18.565925</ele>
        <time>2022-08-30T22:18:38.663Z</time>
      </trkpt>
      <trkpt lat="43.12509" lon="3.10315">
        <ele>19.331221</ele>
        <time>2022-08-30T22:18:51.928Z</time>
      </trkpt>
      <trkpt lat="43.12584" lon="3.1032">
        <ele>21.843588</ele>
        <time>2022-08-30T22:19:32.726Z</time>
      </trkpt>
      <trkpt lat="43.12631" lon="3.10268">
        <ele>23.836943</ele>
        <time>2022-08-30T22:19:59.915Z</time>
      </trkpt>
      <trkpt lat="43.12635" lon="3.10249">
        <ele>24.305935</ele>
        <time>2022-08-30T22:20:09.711Z</time>
      </trkpt>
      <trkpt lat="43.12643" lon="3.10242">
        <ele>24.629504</ele>
        <time>2022-08-30T22:20:16.467Z</time>
      </trkpt>
      <trkpt lat="43.12647" lon="3.10228">
        <ele>24.669684</ele>
        <time>2022-08-30T22:20:23.897Z</time>
      </trkpt>
      <trkpt lat="43.12653" lon="3.10224">
        <ele>24.635715</ele>
        <time>2022-08-30T22:20:28.777Z</time>
      </trkpt>
      <trkpt lat="43.12674" lon="3.1021">
        <ele>24.524258</ele>
        <time>2022-08-30T22:20:44.735Z</time>
      </trkpt>
      <trkpt lat="43.12699" lon="3.10199">
        <ele>24.394071</ele>
        <time>2022-08-30T22:21:03.415Z</time>
      </trkpt>
      <trkpt lat="43.12711" lon="3.10202">
        <ele>24.338574</ele>
        <time>2022-08-30T22:21:11.326Z</time>
      </trkpt>
      <trkpt lat="43.12715" lon="3.10197">
        <ele>24.31256</ele>
        <time>2022-08-30T22:21:15.091Z</time>
      </trkpt>
      <trkpt lat="43.1274" lon="3.10194">
        <ele>24.187474</ele>
        <time>2022-08-30T22:21:32.979Z</time>
      </trkpt>
      <trkpt lat="43.12754" lon="3.10203">
        <ele>24.11583</ele>
        <time>2022-08-30T22:21:43.298Z</time>
      </trkpt>
      <trkpt lat="43.12768" lon="3.10225">
        <ele>24.010545</ele>
        <time>2022-08-30T22:21:49.564Z</time>
      </trkpt>
      <trkpt lat="43.12799" lon="3.10243">
        <ele>23.847495</ele>
        <time>2022-08-30T22:21:59.400Z</time>
      </trkpt>
      <trkpt lat="43.12806" lon="3.10256">
        <ele>23.836093</ele>
        <time>2022-08-30T22:22:02.693Z</time>
      </trkpt>
      <trkpt lat="43.12817" lon="3.10259">
        <ele>23.833931</ele>
        <time>2022-08-30T22:22:06.135Z</time>
      </trkpt>
      <trkpt lat="43.12861" lon="3.1025">
        <ele>23.825941</ele>
        <time>2022-08-30T22:22:19.127Z</time>
      </trkpt>
      <trkpt lat="43.12879" lon="3.10252">
        <ele>23.822525</ele>
        <time>2022-08-30T22:22:24.686Z</time>
      </trkpt>
      <trkpt lat="43.12888" lon="3.1027">
        <ele>23.819624</ele>
        <time>2022-08-30T22:22:29.393Z</time>
      </trkpt>
      <trkpt lat="43.12924" lon="3.10288">
        <ele>23.812738</ele>
        <time>2022-08-30T22:22:42.165Z</time>
      </trkpt>
      <trkpt lat="43.12969" lon="3.10277">
        <ele>23.882555</ele>
        <time>2022-08-30T22:22:59.903Z</time>
      </trkpt>
      <trkpt lat="43.13031" lon="3.10292">
        <ele>25.195146</ele>
        <time>2022-08-30T22:23:25.464Z</time>
      </trkpt>
      <trkpt lat="43.13048" lon="3.10289">
        <ele>25.550488</ele>
        <time>2022-08-30T22:23:32.990Z</time>
      </trkpt>
      <trkpt lat="43.13075" lon="3.1023">
        <ele>26.608128</ele>
        <time>2022-08-30T22:23:47.977Z</time>
      </trkpt>
      <trkpt lat="43.13091" lon="3.10207">
        <ele>27.092222</ele>
        <time>2022-08-30T22:23:56.038Z</time>
      </trkpt>
      <trkpt lat="43.13093" lon="3.10209">
        <ele>27.152201</ele>
        <time>2022-08-30T22:23:57.255Z</time>
      </trkpt>
      <trkpt lat="43.13131" lon="3.10216">
        <ele>28.174865</ele>
        <time>2022-08-30T22:24:13.464Z</time>
      </trkpt>
      <trkpt lat="43.13203" lon="3.10265">
        <ele>30.858891</ele>
        <time>2022-08-30T22:24:47.956Z</time>
      </trkpt>
      <trkpt lat="43.13242" lon="3.10289">
        <ele>32.28147</ele>
        <time>2022-08-30T22:25:06.237Z</time>
      </trkpt>
      <trkpt lat="43.13297" lon="3.10282">
        <ele>34.224511</ele>
        <time>2022-08-30T22:25:29.770Z</time>
      </trkpt>
      <trkpt lat="43.13298" lon="3.10274">
        <ele>34.478707</ele>
        <time>2022-08-30T22:25:32.510Z</time>
      </trkpt>
      <trkpt lat="43.13303" lon="3.10275">
        <ele>34.701251</ele>
        <time>2022-08-30T22:25:36.273Z</time>
      </trkpt>
      <trkpt lat="43.13373" lon="3.10245">
        <ele>37.604172</ele>
        <time>2022-08-30T22:26:16.301Z</time>
      </trkpt>
      <trkpt lat="43.13415" lon="3.10241">
        <ele>39.28783</ele>
        <time>2022-08-30T22:26:39.217Z</time>
      </trkpt>
      <trkpt lat="43.13419" lon="3.10244">
        <ele>39.444848</ele>
        <time>2022-08-30T22:26:41.456Z</time>
      </trkpt>
      <trkpt lat="43.1342" lon="3.10239">
        <ele>39.582393</ele>
        <time>2022-08-30T22:26:42.948Z</time>
      </trkpt>
      <trkpt lat="43.13439" lon="3.10209">
        <ele>40.717824</ele>
        <time>2022-08-30T22:26:55.296Z</time>
      </trkpt>
      <trkpt lat="43.13446" lon="3.10154">
        <ele>41.771072</ele>
        <time>2022-08-30T22:27:12.979Z</time>
      </trkpt>
      <trkpt lat="43.13458" lon="3.10108">
        <ele>42.661115</ele>
        <time>2022-08-30T22:27:27.920Z</time>
      </trkpt>
      <trkpt lat="43.13477" lon="3.10107">
        <ele>43.140521</ele>
        <time>2022-08-30T22:27:35.969Z</time>
      </trkpt>
      <trkpt lat="43.13521" lon="3.10089">
        <ele>44.307316</ele>
        <time>2022-08-30T22:27:55.556Z</time>
      </trkpt>
      <trkpt lat="43.13521" lon="3.10088">
        <ele>44.342004</ele>
        <time>2022-08-30T22:27:56.147Z</time>
      </trkpt>
      <trkpt lat="43.1354" lon="3.10104">
        <ele>44.913398</ele>
        <time>2022-08-30T22:28:05.783Z</time>
      </trkpt>
      <trkpt lat="43.13554" lon="3.10161">
        <ele>46.148885</ele>
        <time>2022-08-30T22:28:24.441Z</time>
      </trkpt>
      <trkpt lat="43.13564" lon="3.10181">
        <ele>46.659632</ele>
        <time>2022-08-30T22:28:29.995Z</time>
      </trkpt>
      <trkpt lat="43.13578" lon="3.10167">
        <ele>47.163234</ele>
        <time>2022-08-30T22:28:38.107Z</time>
      </trkpt>
      <trkpt lat="43.13575" lon="3.10126">
        <ele>48.039672</ele>
        <time>2022-08-30T22:28:50.119Z</time>
      </trkpt>
      <trkpt lat="43.13579" lon="3.10094">
        <ele>48.742735</ele>
        <time>2022-08-30T22:29:00.301Z</time>
      </trkpt>
      <trkpt lat="43.13587" lon="3.10074">
        <ele>49.216374</ele>
        <time>2022-08-30T22:29:09.722Z</time>
      </trkpt>
      <trkpt lat="43.13588" lon="3.10075">
        <ele>49.265315</ele>
        <time>2022-08-30T22:29:10.421Z</time>
      </trkpt>
      <trkpt lat="43.13615" lon="3.10061">
        <ele>50.101331</ele>
        <time>2022-08-30T22:29:22.612Z</time>
      </trkpt>
      <trkpt lat="43.13651" lon="3.10018">
        <ele>52.734967</ele>
        <time>2022-08-30T22:29:43.296Z</time>
      </trkpt>
      <trkpt lat="43.13645" lon="3.09988">
        <ele>54.247268</ele>
        <time>2022-08-30T22:29:53.055Z</time>
      </trkpt>
      <trkpt lat="43.13676" lon="3.09951">
        <ele>57.010502</ele>
        <time>2022-08-30T22:30:10.885Z</time>
      </trkpt>
      <trkpt lat="43.13682" lon="3.09958">
        <ele>57.49249</ele>
        <time>2022-08-30T22:30:13.995Z</time>
      </trkpt>
      <trkpt lat="43.13681" lon="3.09959">
        <ele>57.60707</ele>
        <time>2022-08-30T22:30:14.744Z</time>
      </trkpt>
      <trkpt lat="43.13686" lon="3.09967">
        <ele>58.129044</ele>
        <time>2022-08-30T22:30:20.392Z</time>
      </trkpt>
      <trkpt lat="43.137" lon="3.09975">
        <ele>59.13952</ele>
        <time>2022-08-30T22:30:30.763Z</time>
      </trkpt>
      <trkpt lat="43.1372" lon="3.09973">
        <ele>60.460462</ele>
        <time>2022-08-30T22:30:44.125Z</time>
      </trkpt>
      <trkpt lat="43.13741" lon="3.09954">
        <ele>62.109278</ele>
        <time>2022-08-30T22:31:01.786Z</time>
      </trkpt>
      <trkpt lat="43.13759" lon="3.09942">
        <ele>63.865891</ele>
        <time>2022-08-30T22:31:16.956Z</time>
      </trkpt>
      <trkpt lat="43.1377" lon="3.09946">
        <ele>64.822016</ele>
        <time>2022-08-30T22:31:24.961Z</time>
      </trkpt>
      <trkpt lat="43.13791" lon="3.0998">
        <ele>67.783759</ele>
        <time>2022-08-30T22:31:51.216Z</time>
      </trkpt>
      <trkpt lat="43.13845" lon="3.10009">
        <ele>73.114535</ele>
        <time>2022-08-30T22:32:38.689Z</time>
      </trkpt>
      <trkpt lat="43.13874" lon="3.1001">
        <ele>75.793431</ele>
        <time>2022-08-30T22:33:03.360Z</time>
      </trkpt>
      <trkpt lat="43.13886" lon="3.10002">
        <ele>76.992998</ele>
        <time>2022-08-30T22:33:13.500Z</time>
      </trkpt>
      <trkpt lat="43.13918" lon="3.09938">
        <ele>81.038967</ele>
        <time>2022-08-30T22:33:55.239Z</time>
      </trkpt>
      <trkpt lat="43.13932" lon="3.09885">
        <ele>83.525858</ele>
        <time>2022-08-30T22:34:22.163Z</time>
      </trkpt>
      <trkpt lat="43.13941" lon="3.09873">
        <ele>84.261629</ele>
        <time>2022-08-30T22:34:29.364Z</time>
      </trkpt>
      <trkpt lat="43.1396" lon="3.09817">
        <ele>86.977542</ele>
        <time>2022-08-30T22:34:56.147Z</time>
      </trkpt>
      <trkpt lat="43.13978" lon="3.09789">
        <ele>88.639771</ele>
        <time>2022-08-30T22:35:11.272Z</time>
      </trkpt>
      <trkpt lat="43.13999" lon="3.099">
        <ele>92.303706</ele>
        <time>2022-08-30T22:35:51.051Z</time>
      </trkpt>
      <trkpt lat="43.14017" lon="3.09923">
        <ele>93.249093</ele>
        <time>2022-08-30T22:36:01.446Z</time>
      </trkpt>
      <trkpt lat="43.14023" lon="3.09967">
        <ele>94.529741</ele>
        <time>2022-08-30T22:36:15.693Z</time>
      </trkpt>
      <trkpt lat="43.1404" lon="3.09969">
        <ele>95.216027</ele>
        <time>2022-08-30T22:36:25.296Z</time>
      </trkpt>
      <trkpt lat="43.1406" lon="3.09954">
        <ele>96.104306</ele>
        <time>2022-08-30T22:36:36.872Z</time>
      </trkpt>
      <trkpt lat="43.14093" lon="3.09915">
        <ele>98.992696</ele>
        <time>2022-08-30T22:37:05.008Z</time>
      </trkpt>
      <trkpt lat="43.14096" lon="3.09907">
        <ele>99.52923</ele>
        <time>2022-08-30T22:37:10.008Z</time>
      </trkpt>
      <trkpt lat="43.14095" lon="3.0984">
        <ele>103.631986</ele>
        <time>2022-08-30T22:37:46.058Z</time>
      </trkpt>
      <trkpt lat="43.14132" lon="3.09759">
        <ele>109.399007</ele>
        <time>2022-08-30T22:38:41.584Z</time>
      </trkpt>
      <trkpt lat="43.14134" lon="3.0964">
        <ele>116.755866</ele>
        <time>2022-08-30T22:39:49.282Z</time>
      </trkpt>
      <trkpt lat="43.14144" lon="3.09602">
        <ele>119.300367</ele>
        <time>2022-08-30T22:40:12.763Z</time>
      </trkpt>
      <trkpt lat="43.14143" lon="3.09585">
        <ele>120.370522</ele>
        <time>2022-08-30T22:40:21.272Z</time>
      </trkpt>
      <trkpt lat="43.14135" lon="3.0957">
        <ele>121.556529</ele>
        <time>2022-08-30T22:40:34.004Z</time>
      </trkpt>
      <trkpt lat="43.14094" lon="3.09532">
        <ele>125.745812</ele>
        <time>2022-08-30T22:41:09.979Z</time>
      </trkpt>
      <trkpt lat="43.14078" lon="3.09524">
        <ele>127.113622</ele>
        <time>2022-08-30T22:41:20.171Z</time>
      </trkpt>
      <trkpt lat="43.14061" lon="3.09504">
        <ele>128.069064</ele>
        <time>2022-08-30T22:41:34.936Z</time>
      </trkpt>
      <trkpt lat="43.14021" lon="3.09473">
        <ele>130.012265</ele>
        <time>2022-08-30T22:41:59.739Z</time>
      </trkpt>
      <trkpt lat="43.14013" lon="3.09455">
        <ele>130.678018</ele>
        <time>2022-08-30T22:42:10.485Z</time>
      </trkpt>
      <trkpt lat="43.14094" lon="3.09483">
        <ele>134.229233</ele>
        <time>2022-08-30T22:42:48.306Z</time>
      </trkpt>
      <trkpt lat="43.14147" lon="3.09513">
        <ele>135.274421</ele>
        <time>2022-08-30T22:43:13.962Z</time>
      </trkpt>
      <trkpt lat="43.14188" lon="3.09525">
        <ele>135.7829</ele>
        <time>2022-08-30T22:43:27.426Z</time>
      </trkpt>
      <trkpt lat="43.14249" lon="3.09531">
        <ele>136.544713</ele>
        <time>2022-08-30T22:43:48.508Z</time>
      </trkpt>
      <trkpt lat="43.14301" lon="3.09558">
        <ele>137.731325</ele>
        <time>2022-08-30T22:44:09.048Z</time>
      </trkpt>
      <trkpt lat="43.14335" lon="3.09566">
        <ele>138.818785</ele>
        <time>2022-08-30T22:44:23.538Z</time>
      </trkpt>
      <trkpt lat="43.14347" lon="3.09565">
        <ele>139.198436</ele>
        <time>2022-08-30T22:44:29.160Z</time>
      </trkpt>
      <trkpt lat="43.14403" lon="3.0953">
        <ele>141.143909</ele>
        <time>2022-08-30T22:45:01.119Z</time>
      </trkpt>
      <trkpt lat="43.14441" lon="3.09534">
        <ele>142.326352</ele>
        <time>2022-08-30T22:45:21.849Z</time>
      </trkpt>
      <trkpt lat="43.14505" lon="3.09557">
        <ele>144.525996</ele>
        <time>2022-08-30T22:45:56.719Z</time>
      </trkpt>
      <trkpt lat="43.14516" lon="3.09555">
        <ele>144.903621</ele>
        <time>2022-08-30T22:46:03.619Z</time>
      </trkpt>
      <trkpt lat="43.14601" lon="3.09437">
        <ele>148.624994</ele>
        <time>2022-08-30T22:46:59.280Z</time>
      </trkpt>
      <trkpt lat="43.14613" lon="3.09441">
        <ele>148.642326</ele>
        <time>2022-08-30T22:47:03.961Z</time>
      </trkpt>
      <trkpt lat="43.14651" lon="3.09516">
        <ele>148.740078</ele>
        <time>2022-08-30T22:47:29.681Z</time>
      </trkpt>
      <trkpt lat="43.14668" lon="3.09537">
        <ele>148.773689</ele>
        <time>2022-08-30T22:47:36.285Z</time>
      </trkpt>
      <trkpt lat="43.14683" lon="3.0954">
        <ele>148.79513</ele>
        <time>2022-08-30T22:47:40.594Z</time>
      </trkpt>
      <trkpt lat="43.14695" lon="3.09535">
        <ele>148.813759</ele>
        <time>2022-08-30T22:47:44.013Z</time>
      </trkpt>
      <trkpt lat="43.14749" lon="3.09499">
        <ele>148.566277</ele>
        <time>2022-08-30T22:48:00.972Z</time>
      </trkpt>
      <trkpt lat="43.14784" lon="3.09501">
        <ele>148.032711</ele>
        <time>2022-08-30T22:48:10.918Z</time>
      </trkpt>
      <trkpt lat="43.14791" lon="3.09514">
        <ele>147.842094</ele>
        <time>2022-08-30T22:48:14.239Z</time>
      </trkpt>
      <trkpt lat="43.14764" lon="3.09599">
        <ele>146.798019</ele>
        <time>2022-08-30T22:48:33.597Z</time>
      </trkpt>
      <trkpt lat="43.1476" lon="3.09658">
        <ele>146.133185</ele>
        <time>2022-08-30T22:48:45.150Z</time>
      </trkpt>
      <trkpt lat="43.14765" lon="3.09681">
        <ele>146.000628</ele>
        <time>2022-08-30T22:48:49.862Z</time>
      </trkpt>
      <trkpt lat="43.14799" lon="3.09734">
        <ele>145.675758</ele>
        <time>2022-08-30T22:49:05.329Z</time>
      </trkpt>
      <trkpt lat="43.14824" lon="3.09759">
        <ele>145.480996</ele>
        <time>2022-08-30T22:49:14.811Z</time>
      </trkpt>
      <trkpt lat="43.14841" lon="3.09764">
        <ele>145.370682</ele>
        <time>2022-08-30T22:49:20.257Z</time>
      </trkpt>
      <trkpt lat="43.14858" lon="3.09756">
        <ele>145.256852</ele>
        <time>2022-08-30T22:49:25.589Z</time>
      </trkpt>
      <trkpt lat="43.14882" lon="3.09754">
        <ele>145.103631</ele>
        <time>2022-08-30T22:49:33.308Z</time>
      </trkpt>
      <trkpt lat="43.14888" lon="3.09757">
        <ele>145.066669</ele>
        <time>2022-08-30T22:49:35.005Z</time>
      </trkpt>
      <trkpt lat="43.14892" lon="3.09774">
        <ele>144.985913</ele>
        <time>2022-08-30T22:49:39.063Z</time>
      </trkpt>
      <trkpt lat="43.14889" lon="3.09797">
        <ele>145.136846</ele>
        <time>2022-08-30T22:49:44.852Z</time>
      </trkpt>
      <trkpt lat="43.14871" lon="3.09813">
        <ele>145.419207</ele>
        <time>2022-08-30T22:49:51.796Z</time>
      </trkpt>
      <trkpt lat="43.14851" lon="3.09849">
        <ele>145.842829</ele>
        <time>2022-08-30T22:50:03.178Z</time>
      </trkpt>
      <trkpt lat="43.14814" lon="3.09872">
        <ele>146.380225</ele>
        <time>2022-08-30T22:50:16.502Z</time>
      </trkpt>
      <trkpt lat="43.1481" lon="3.09879">
        <ele>146.464474</ele>
        <time>2022-08-30T22:50:18.767Z</time>
      </trkpt>
      <trkpt lat="43.14812" lon="3.0989">
        <ele>146.582742</ele>
        <time>2022-08-30T22:50:22.883Z</time>
      </trkpt>
      <trkpt lat="43.14866" lon="3.09896">
        <ele>147.282492</ele>
        <time>2022-08-30T22:50:46.469Z</time>
      </trkpt>
      <trkpt lat="43.14882" lon="3.09904">
        <ele>148.086517</ele>
        <time>2022-08-30T22:50:55.923Z</time>
      </trkpt>
      <trkpt lat="43.14906" lon="3.09924">
        <ele>149.500655</ele>
        <time>2022-08-30T22:51:10.091Z</time>
      </trkpt>
      <trkpt lat="43.14926" lon="3.09964">
        <ele>151.321662</ele>
        <time>2022-08-30T22:51:30.012Z</time>
      </trkpt>
      <trkpt lat="43.14936" lon="3.09969">
        <ele>151.889985</ele>
        <time>2022-08-30T22:51:37.254Z</time>
      </trkpt>
      <trkpt lat="43.14942" lon="3.09959">
        <ele>152.367682</ele>
        <time>2022-08-30T22:51:42.395Z</time>
      </trkpt>
      <trkpt lat="43.14941" lon="3.09902">
        <ele>154.509241</ele>
        <time>2022-08-30T22:52:07.742Z</time>
      </trkpt>
      <trkpt lat="43.14949" lon="3.09895">
        <ele>154.997252</ele>
        <time>2022-08-30T22:52:13.258Z</time>
      </trkpt>
      <trkpt lat="43.14954" lon="3.09897">
        <ele>155.266228</ele>
        <time>2022-08-30T22:52:16.459Z</time>
      </trkpt>
      <trkpt lat="43.14969" lon="3.09941">
        <ele>157.107693</ele>
        <time>2022-08-30T22:52:38.203Z</time>
      </trkpt>
      <trkpt lat="43.15014" lon="3.09987">
        <ele>160.225276</ele>
        <time>2022-08-30T22:53:17.744Z</time>
      </trkpt>
      <trkpt lat="43.15048" lon="3.10032">
        <ele>162.825375</ele>
        <time>2022-08-30T22:53:45.706Z</time>
      </trkpt>
      <trkpt lat="43.15076" lon="3.10054">
        <ele>164.621551</ele>
        <time>2022-08-30T22:54:01.875Z</time>
      </trkpt>
      <trkpt lat="43.15116" lon="3.10114">
        <ele>167.847497</ele>
        <time>2022-08-30T22:54:35.089Z</time>
      </trkpt>
      <trkpt lat="43.15118" lon="3.10134">
        <ele>168.629274</ele>
        <time>2022-08-30T22:54:40.790Z</time>
      </trkpt>
      <trkpt lat="43.15108" lon="3.10152">
        <ele>169.493338</ele>
        <time>2022-08-30T22:54:50.744Z</time>
      </trkpt>
      <trkpt lat="43.15092" lon="3.10164">
        <ele>170.478189</ele>
        <time>2022-08-30T22:54:58.782Z</time>
      </trkpt>
      <trkpt lat="43.15062" lon="3.10172">
        <ele>172.093707</ele>
        <time>2022-08-30T22:55:17.826Z</time>
      </trkpt>
      <trkpt lat="43.15056" lon="3.10187">
        <ele>172.736079</ele>
        <time>2022-08-30T22:55:25.638Z</time>
      </trkpt>
      <trkpt lat="43.15064" lon="3.10201">
        <ele>173.442713</ele>
        <time>2022-08-30T22:55:36.231Z</time>
      </trkpt>
      <trkpt lat="43.15143" lon="3.10251">
        <ele>177.343936</ele>
        <time>2022-08-30T22:56:30.234Z</time>
      </trkpt>
      <trkpt lat="43.15188" lon="3.10328">
        <ele>179.750348</ele>
        <time>2022-08-30T22:57:06.938Z</time>
      </trkpt>
      <trkpt lat="43.1518" lon="3.10352">
        <ele>180.381335</ele>
        <time>2022-08-30T22:57:15.017Z</time>
      </trkpt>
      <trkpt lat="43.15171" lon="3.10362">
        <ele>180.764111</ele>
        <time>2022-08-30T22:57:19.823Z</time>
      </trkpt>
      <trkpt lat="43.15118" lon="3.10369">
        <ele>181.78672</ele>
        <time>2022-08-30T22:57:40.581Z</time>
      </trkpt>
      <trkpt lat="43.15056" lon="3.10397">
        <ele>180.233901</ele>
        <time>2022-08-30T22:57:59.347Z</time>
      </trkpt>
      <trkpt lat="43.15019" lon="3.10389">
        <ele>179.334887</ele>
        <time>2022-08-30T22:58:08.548Z</time>
      </trkpt>
      <trkpt lat="43.14958" lon="3.10354">
        <ele>177.771061</ele>
        <time>2022-08-30T22:58:24.910Z</time>
      </trkpt>
      <trkpt lat="43.14943" lon="3.10356">
        <ele>177.546607</ele>
        <time>2022-08-30T22:58:28.706Z</time>
      </trkpt>
      <trkpt lat="43.14934" lon="3.10365">
        <ele>177.360977</ele>
        <time>2022-08-30T22:58:31.704Z</time>
      </trkpt>
      <trkpt lat="43.14929" lon="3.10391">
        <ele>177.065832</ele>
        <time>2022-08-30T22:58:36.765Z</time>
      </trkpt>
      <trkpt lat="43.14934" lon="3.10413">
        <ele>176.798506</ele>
        <time>2022-08-30T22:58:41.209Z</time>
      </trkpt>
      <trkpt lat="43.14944" lon="3.10432">
        <ele>176.535117</ele>
        <time>2022-08-30T22:58:45.893Z</time>
      </trkpt>
      <trkpt lat="43.15008" lon="3.10503">
        <ele>175.255019</ele>
        <time>2022-08-30T22:59:11.887Z</time>
      </trkpt>
      <trkpt lat="43.1503" lon="3.10543">
        <ele>175.054303</ele>
        <time>2022-08-30T22:59:24.431Z</time>
      </trkpt>
      <trkpt lat="43.15047" lon="3.10562">
        <ele>175.083369</ele>
        <time>2022-08-30T22:59:30.050Z</time>
      </trkpt>
      <trkpt lat="43.15061" lon="3.10591">
        <ele>175.117559</ele>
        <time>2022-08-30T22:59:39.712Z</time>
      </trkpt>
      <trkpt lat="43.15073" lon="3.10641">
        <ele>175.169113</ele>
        <time>2022-08-30T22:59:51.666Z</time>
      </trkpt>
      <trkpt lat="43.15074" lon="3.10661">
        <ele>175.189007</ele>
        <time>2022-08-30T22:59:55.795Z</time>
      </trkpt>
      <trkpt lat="43.1506" lon="3.10722">
        <ele>175.251205</ele>
        <time>2022-08-30T23:00:12.477Z</time>
      </trkpt>
      <trkpt lat="43.15062" lon="3.10753">
        <ele>175.503996</ele>
        <time>2022-08-30T23:00:19.270Z</time>
      </trkpt>
      <trkpt lat="43.15103" lon="3.10796">
        <ele>176.611825</ele>
        <time>2022-08-30T23:00:43.272Z</time>
      </trkpt>
      <trkpt lat="43.15127" lon="3.10845">
        <ele>177.53258</ele>
        <time>2022-08-30T23:00:59.040Z</time>
      </trkpt>
      <trkpt lat="43.15144" lon="3.1086">
        <ele>177.955009</ele>
        <time>2022-08-30T23:01:07.632Z</time>
      </trkpt>
      <trkpt lat="43.15155" lon="3.10848">
        <ele>178.276528</ele>
        <time>2022-08-30T23:01:14.436Z</time>
      </trkpt>
      <trkpt lat="43.15158" lon="3.10817">
        <ele>178.756846</ele>
        <time>2022-08-30T23:01:24.283Z</time>
      </trkpt>
      <trkpt lat="43.15146" lon="3.1077">
        <ele>179.819997</ele>
        <time>2022-08-30T23:01:43.877Z</time>
      </trkpt>
      <trkpt lat="43.15133" lon="3.10743">
        <ele>180.695228</ele>
        <time>2022-08-30T23:01:56.129Z</time>
      </trkpt>
      <trkpt lat="43.15122" lon="3.10709">
        <ele>181.690708</ele>
        <time>2022-08-30T23:02:09.729Z</time>
      </trkpt>
      <trkpt lat="43.15119" lon="3.10662">
        <ele>182.943017</ele>
        <time>2022-08-30T23:02:28.059Z</time>
      </trkpt>
      <trkpt lat="43.15134" lon="3.10625">
        <ele>184.088106</ele>
        <time>2022-08-30T23:02:44.183Z</time>
      </trkpt>
      <trkpt lat="43.15167" lon="3.10578">
        <ele>185.708446</ele>
        <time>2022-08-30T23:03:06.859Z</time>
      </trkpt>
      <trkpt lat="43.15178" lon="3.10569">
        <ele>185.786062</ele>
        <time>2022-08-30T23:03:12.849Z</time>
      </trkpt>
      <trkpt lat="43.15192" lon="3.10568">
        <ele>185.874835</ele>
        <time>2022-08-30T23:03:19.604Z</time>
      </trkpt>
      <trkpt lat="43.15235" lon="3.10579">
        <ele>186.139201</ele>
        <time>2022-08-30T23:03:38.895Z</time>
      </trkpt>
      <trkpt lat="43.15275" lon="3.10549">
        <ele>186.414499</ele>
        <time>2022-08-30T23:03:56.532Z</time>
      </trkpt>
      <trkpt lat="43.15285" lon="3.10542">
        <ele>186.479575</ele>
        <time>2022-08-30T23:04:00.911Z</time>
      </trkpt>
      <trkpt lat="43.15328" lon="3.1054">
        <ele>186.745362</ele>
        <time>2022-08-30T23:04:13.397Z</time>
      </trkpt>
      <trkpt lat="43.15359" lon="3.1055">
        <ele>185.522915</ele>
        <time>2022-08-30T23:04:21.000Z</time>
      </trkpt>
      <trkpt lat="43.15379" lon="3.10563">
        <ele>184.434025</ele>
        <time>2022-08-30T23:04:26.055Z</time>
      </trkpt>
      <trkpt lat="43.15432" lon="3.10559">
        <ele>181.793544</ele>
        <time>2022-08-30T23:04:38.339Z</time>
      </trkpt>
      <trkpt lat="43.15466" lon="3.10625">
        <ele>178.922047</ele>
        <time>2022-08-30T23:04:52.436Z</time>
      </trkpt>
      <trkpt lat="43.15489" lon="3.10692">
        <ele>176.604799</ele>
        <time>2022-08-30T23:05:06.520Z</time>
      </trkpt>
      <trkpt lat="43.15492" lon="3.10709">
        <ele>176.114899</ele>
        <time>2022-08-30T23:05:09.428Z</time>
      </trkpt>
      <trkpt lat="43.15501" lon="3.10711">
        <ele>175.758153</ele>
        <time>2022-08-30T23:05:11.638Z</time>
      </trkpt>
      <trkpt lat="43.15507" lon="3.10705">
        <ele>175.467963</ele>
        <time>2022-08-30T23:05:13.583Z</time>
      </trkpt>
      <trkpt lat="43.15521" lon="3.10666">
        <ele>174.215027</ele>
        <time>2022-08-30T23:05:20.898Z</time>
      </trkpt>
      <trkpt lat="43.15526" lon="3.10624">
        <ele>172.98873</ele>
        <time>2022-08-30T23:05:28.418Z</time>
      </trkpt>
      <trkpt lat="43.15533" lon="3.10608">
        <ele>172.466866</ele>
        <time>2022-08-30T23:05:32.099Z</time>
      </trkpt>
      <trkpt lat="43.1554" lon="3.106">
        <ele>172.104494</ele>
        <time>2022-08-30T23:05:34.369Z</time>
      </trkpt>
      <trkpt lat="43.1556" lon="3.10593">
        <ele>171.267964</ele>
        <time>2022-08-30T23:05:41.258Z</time>
      </trkpt>
      <trkpt lat="43.15567" lon="3.10596">
        <ele>170.981627</ele>
        <time>2022-08-30T23:05:43.165Z</time>
      </trkpt>
      <trkpt lat="43.15585" lon="3.10537">
        <ele>169.036814</ele>
        <time>2022-08-30T23:05:56.194Z</time>
      </trkpt>
      <trkpt lat="43.15602" lon="3.10499">
        <ele>167.631795</ele>
        <time>2022-08-30T23:06:04.708Z</time>
      </trkpt>
      <trkpt lat="43.15651" lon="3.10416">
        <ele>164.356837</ele>
        <time>2022-08-30T23:06:22.900Z</time>
      </trkpt>
      <trkpt lat="43.15657" lon="3.10409">
        <ele>164.007603</ele>
        <time>2022-08-30T23:06:24.841Z</time>
      </trkpt>
      <trkpt lat="43.15668" lon="3.10408">
        <ele>163.553221</ele>
        <time>2022-08-30T23:06:27.158Z</time>
      </trkpt>
      <trkpt lat="43.15771" lon="3.1046">
        <ele>159.151168</ele>
        <time>2022-08-30T23:06:54.308Z</time>
      </trkpt>
      <trkpt lat="43.15835" lon="3.10484">
        <ele>156.554711</ele>
        <time>2022-08-30T23:07:11.226Z</time>
      </trkpt>
      <trkpt lat="43.15951" lon="3.10498">
        <ele>153.843506</ele>
        <time>2022-08-30T23:07:43.418Z</time>
      </trkpt>
      <trkpt lat="43.15966" lon="3.10495">
        <ele>153.505331</ele>
        <time>2022-08-30T23:07:47.778Z</time>
      </trkpt>
      <trkpt lat="43.15988" lon="3.10502">
        <ele>153.019141</ele>
        <time>2022-08-30T23:07:53.958Z</time>
      </trkpt>
      <trkpt lat="43.16045" lon="3.10537">
        <ele>151.386045</ele>
        <time>2022-08-30T23:08:10.933Z</time>
      </trkpt>
      <trkpt lat="43.16061" lon="3.10538">
        <ele>150.867914</ele>
        <time>2022-08-30T23:08:15.193Z</time>
      </trkpt>
      <trkpt lat="43.16158" lon="3.10579">
        <ele>147.626081</ele>
        <time>2022-08-30T23:08:40.826Z</time>
      </trkpt>
      <trkpt lat="43.16191" lon="3.10609">
        <ele>146.315162</ele>
        <time>2022-08-30T23:08:51.234Z</time>
      </trkpt>
      <trkpt lat="43.16199" lon="3.10626">
        <ele>145.831675</ele>
        <time>2022-08-30T23:08:54.660Z</time>
      </trkpt>
      <trkpt lat="43.1619" lon="3.10716">
        <ele>143.615196</ele>
        <time>2022-08-30T23:09:11.405Z</time>
      </trkpt>
      <trkpt lat="43.16196" lon="3.10734">
        <ele>143.139155</ele>
        <time>2022-08-30T23:09:14.967Z</time>
      </trkpt>
      <trkpt lat="43.162" lon="3.10747">
        <ele>142.796912</ele>
        <time>2022-08-30T23:09:17.706Z</time>
      </trkpt>
      <trkpt lat="43.16275" lon="3.10775">
        <ele>140.317504</ele>
        <time>2022-08-30T23:09:37.578Z</time>
      </trkpt>
      <trkpt lat="43.16295" lon="3.10795">
        <ele>139.942756</ele>
        <time>2022-08-30T23:09:44.247Z</time>
      </trkpt>
      <trkpt lat="43.16307" lon="3.10794">
        <ele>139.754568</ele>
        <time>2022-08-30T23:09:47.844Z</time>
      </trkpt>
      <trkpt lat="43.16313" lon="3.10779">
        <ele>139.572079</ele>
        <time>2022-08-30T23:09:51.102Z</time>
      </trkpt>
      <trkpt lat="43.16311" lon="3.10747">
        <ele>139.207397</ele>
        <time>2022-08-30T23:09:57.961Z</time>
      </trkpt>
      <trkpt lat="43.16328" lon="3.10727">
        <ele>138.867918</ele>
        <time>2022-08-30T23:10:03.890Z</time>
      </trkpt>
      <trkpt lat="43.16338" lon="3.10717">
        <ele>138.692101</ele>
        <time>2022-08-30T23:10:07.596Z</time>
      </trkpt>
      <trkpt lat="43.16351" lon="3.10685">
        <ele>138.27663</ele>
        <time>2022-08-30T23:10:15.296Z</time>
      </trkpt>
      <trkpt lat="43.16371" lon="3.10654">
        <ele>137.826582</ele>
        <time>2022-08-30T23:10:24.219Z</time>
      </trkpt>
      <trkpt lat="43.16373" lon="3.1065">
        <ele>137.772801</ele>
        <time>2022-08-30T23:10:25.209Z</time>
      </trkpt>
      <trkpt lat="43.16382" lon="3.10661">
        <ele>137.74511</ele>
        <time>2022-08-30T23:10:29.757Z</time>
      </trkpt>
      <trkpt lat="43.16367" lon="3.10714">
        <ele>137.990161</ele>
        <time>2022-08-30T23:10:43.783Z</time>
      </trkpt>
      <trkpt lat="43.16376" lon="3.10738">
        <ele>138.109448</ele>
        <time>2022-08-30T23:10:50.084Z</time>
      </trkpt>
      <trkpt lat="43.16394" lon="3.10761">
        <ele>138.25369</ele>
        <time>2022-08-30T23:11:00.548Z</time>
      </trkpt>
      <trkpt lat="43.16445" lon="3.10937">
        <ele>138.917278</ele>
        <time>2022-08-30T23:11:48.729Z</time>
      </trkpt>
      <trkpt lat="43.16451" lon="3.10947">
        <ele>138.945427</ele>
        <time>2022-08-30T23:11:53.163Z</time>
      </trkpt>
      <trkpt lat="43.16382" lon="3.11034">
        <ele>139.20583</ele>
        <time>2022-08-30T23:12:22.760Z</time>
      </trkpt>
      <trkpt lat="43.16348" lon="3.11089">
        <ele>139.409675</ele>
        <time>2022-08-30T23:12:40.058Z</time>
      </trkpt>
      <trkpt lat="43.16338" lon="3.11152">
        <ele>139.637584</ele>
        <time>2022-08-30T23:12:54.392Z</time>
      </trkpt>
      <trkpt lat="43.16345" lon="3.11258">
        <ele>140.015379</ele>
        <time>2022-08-30T23:13:23.538Z</time>
      </trkpt>
      <trkpt lat="43.16537" lon="3.1146">
        <ele>140.6623</ele>
        <time>2022-08-30T23:14:46.444Z</time>
      </trkpt>
      <trkpt lat="43.16535" lon="3.11471">
        <ele>140.581637</ele>
        <time>2022-08-30T23:14:52.005Z</time>
      </trkpt>
      <trkpt lat="43.16525" lon="3.11478">
        <ele>140.463718</ele>
        <time>2022-08-30T23:14:54.767Z</time>
      </trkpt>
      <trkpt lat="43.16521" lon="3.11494">
        <ele>140.341039</ele>
        <time>2022-08-30T23:14:58.268Z</time>
      </trkpt>
      <trkpt lat="43.16522" lon="3.11562">
        <ele>139.841842</ele>
        <time>2022-08-30T23:15:15.564Z</time>
      </trkpt>
      <trkpt lat="43.16521" lon="3.11494">
        <ele>139.342645</ele>
        <time>2022-08-30T23:15:28.494Z</time>
      </trkpt>
      <trkpt lat="43.16525" lon="3.11478">
        <ele>139.219966</ele>
        <time>2022-08-30T23:15:32.030Z</time>
      </trkpt>
      <trkpt lat="43.16535" lon="3.11471">
        <ele>138.778652</ele>
        <time>2022-08-30T23:15:37.703Z</time>
      </trkpt>
      <trkpt lat="43.1655" lon="3.11476">
        <ele>138.101867</ele>
        <time>2022-08-30T23:15:41.130Z</time>
      </trkpt>
      <trkpt lat="43.16637" lon="3.11569">
        <ele>133.458594</ele>
        <time>2022-08-30T23:16:08.586Z</time>
      </trkpt>
      <trkpt lat="43.16646" lon="3.11552">
        <ele>132.791025</ele>
        <time>2022-08-30T23:16:13.849Z</time>
      </trkpt>
      <trkpt lat="43.16677" lon="3.11525">
        <ele>131.274769</ele>
        <time>2022-08-30T23:16:22.193Z</time>
      </trkpt>
      <trkpt lat="43.16681" lon="3.11536">
        <ele>130.9207</ele>
        <time>2022-08-30T23:16:24.196Z</time>
      </trkpt>
      <trkpt lat="43.16678" lon="3.1158">
        <ele>129.694974</ele>
        <time>2022-08-30T23:16:31.699Z</time>
      </trkpt>
      <trkpt lat="43.16691" lon="3.11624">
        <ele>128.403859</ele>
        <time>2022-08-30T23:16:39.757Z</time>
      </trkpt>
      <trkpt lat="43.16686" lon="3.11657">
        <ele>127.460656</ele>
        <time>2022-08-30T23:16:45.691Z</time>
      </trkpt>
      <trkpt lat="43.16684" lon="3.1166">
        <ele>127.352974</ele>
        <time>2022-08-30T23:16:46.426Z</time>
      </trkpt>
      <trkpt lat="43.16697" lon="3.11675">
        <ele>126.691346</ele>
        <time>2022-08-30T23:16:53.875Z</time>
      </trkpt>
      <trkpt lat="43.16684" lon="3.11754">
        <ele>125.075916</ele>
        <time>2022-08-30T23:17:19.250Z</time>
      </trkpt>
      <trkpt lat="43.16694" lon="3.11774">
        <ele>125.710247</ele>
        <time>2022-08-30T23:17:26.742Z</time>
      </trkpt>
      <trkpt lat="43.16752" lon="3.11849">
        <ele>128.586457</ele>
        <time>2022-08-30T23:18:00.716Z</time>
      </trkpt>
      <trkpt lat="43.1681" lon="3.11924">
        <ele>131.576838</ele>
        <time>2022-08-30T23:18:34.724Z</time>
      </trkpt>
      <trkpt lat="43.16772" lon="3.11962">
        <ele>134.331865</ele>
        <time>2022-08-30T23:18:54.834Z</time>
      </trkpt>
      <trkpt lat="43.16775" lon="3.11988">
        <ele>135.443479</ele>
        <time>2022-08-30T23:19:02.948Z</time>
      </trkpt>
      <trkpt lat="43.16794" lon="3.12014">
        <ele>137.021495</ele>
        <time>2022-08-30T23:19:14.462Z</time>
      </trkpt>
      <trkpt lat="43.16838" lon="3.12043">
        <ele>139.876542</ele>
        <time>2022-08-30T23:19:35.285Z</time>
      </trkpt>
      <trkpt lat="43.16882" lon="3.12072">
        <ele>142.307727</ele>
        <time>2022-08-30T23:19:56.102Z</time>
      </trkpt>
      <trkpt lat="43.16922" lon="3.12145">
        <ele>144.368381</ele>
        <time>2022-08-30T23:20:24.568Z</time>
      </trkpt>
      <trkpt lat="43.16961" lon="3.12218">
        <ele>146.427219</ele>
        <time>2022-08-30T23:20:53.015Z</time>
      </trkpt>
      <trkpt lat="43.16996" lon="3.12259">
        <ele>147.376398</ele>
        <time>2022-08-30T23:21:12.502Z</time>
      </trkpt>
      <trkpt lat="43.17001" lon="3.12198">
        <ele>147.279385</ele>
        <time>2022-08-30T23:21:31.356Z</time>
      </trkpt>
      <trkpt lat="43.16998" lon="3.12189">
        <ele>147.263064</ele>
        <time>2022-08-30T23:21:34.522Z</time>
      </trkpt>
      <trkpt lat="43.17195" lon="3.12488">
        <ele>144.761522</ele>
        <time>2022-08-30T23:22:27.469Z</time>
      </trkpt>
      <trkpt lat="43.17343" lon="3.12751">
        <ele>137.391655</ele>
        <time>2022-08-30T23:23:04.237Z</time>
      </trkpt>
      <trkpt lat="43.17374" lon="3.12818">
        <ele>135.635582</ele>
        <time>2022-08-30T23:23:13.053Z</time>
      </trkpt>
      <trkpt lat="43.17412" lon="3.12925">
        <ele>133.128147</ele>
        <time>2022-08-30T23:23:26.752Z</time>
      </trkpt>
      <trkpt lat="43.17435" lon="3.1296">
        <ele>132.239127</ele>
        <time>2022-08-30T23:23:32.303Z</time>
      </trkpt>
      <trkpt lat="43.17451" lon="3.13115">
        <ele>129.30172</ele>
        <time>2022-08-30T23:23:50.407Z</time>
      </trkpt>
      <trkpt lat="43.17502" lon="3.13251">
        <ele>126.199771</ele>
        <time>2022-08-30T23:24:07.796Z</time>
      </trkpt>
      <trkpt lat="43.17525" lon="3.13276">
        <ele>125.388254</ele>
        <time>2022-08-30T23:24:12.290Z</time>
      </trkpt>
      <trkpt lat="43.17624" lon="3.13297">
        <ele>123.629714</ele>
        <time>2022-08-30T23:24:28.224Z</time>
      </trkpt>
      <trkpt lat="43.17634" lon="3.13311">
        <ele>123.496397</ele>
        <time>2022-08-30T23:24:30.523Z</time>
      </trkpt>
      <trkpt lat="43.17644" lon="3.13395">
        <ele>122.900753</ele>
        <time>2022-08-30T23:24:42.341Z</time>
      </trkpt>
      <trkpt lat="43.17679" lon="3.13491">
        <ele>122.839148</ele>
        <time>2022-08-30T23:25:00.191Z</time>
      </trkpt>
      <trkpt lat="43.17715" lon="3.135">
        <ele>123.290407</ele>
        <time>2022-08-30T23:25:13.724Z</time>
      </trkpt>
      <trkpt lat="43.17756" lon="3.13479">
        <ele>123.820763</ele>
        <time>2022-08-30T23:25:30.263Z</time>
      </trkpt>
      <trkpt lat="43.17752" lon="3.13428">
        <ele>124.284506</ele>
        <time>2022-08-30T23:25:45.231Z</time>
      </trkpt>
      <trkpt lat="43.17757" lon="3.13405">
        <ele>124.500544</ele>
        <time>2022-08-30T23:25:52.303Z</time>
      </trkpt>
      <trkpt lat="43.17784" lon="3.13371">
        <ele>125.083305</ele>
        <time>2022-08-30T23:26:07.125Z</time>
      </trkpt>
      <trkpt lat="43.17807" lon="3.13309">
        <ele>126.034621</ele>
        <time>2022-08-30T23:26:27.783Z</time>
      </trkpt>
      <trkpt lat="43.17828" lon="3.133">
        <ele>126.435491</ele>
        <time>2022-08-30T23:26:36.543Z</time>
      </trkpt>
      <trkpt lat="43.17917" lon="3.13295">
        <ele>128.099878</ele>
        <time>2022-08-30T23:27:13.257Z</time>
      </trkpt>
      <trkpt lat="43.17944" lon="3.13297">
        <ele>128.73925</ele>
        <time>2022-08-30T23:27:25.061Z</time>
      </trkpt>
      <trkpt lat="43.18023" lon="3.13325">
        <ele>130.64736</ele>
        <time>2022-08-30T23:28:00.765Z</time>
      </trkpt>
      <trkpt lat="43.18133" lon="3.13432">
        <ele>132.899625</ele>
        <time>2022-08-30T23:29:00.165Z</time>
      </trkpt>
      <trkpt lat="43.18147" lon="3.13452">
        <ele>133.104258</ele>
        <time>2022-08-30T23:29:07.071Z</time>
      </trkpt>
      <trkpt lat="43.18151" lon="3.13447">
        <ele>133.159965</ele>
        <time>2022-08-30T23:29:09.410Z</time>
      </trkpt>
      <trkpt lat="43.1819" lon="3.13479">
        <ele>133.625154</ele>
        <time>2022-08-30T23:29:28.916Z</time>
      </trkpt>
      <trkpt lat="43.18201" lon="3.13458">
        <ele>133.819885</ele>
        <time>2022-08-30T23:29:37.081Z</time>
      </trkpt>
      <trkpt lat="43.18249" lon="3.13497">
        <ele>133.999966</ele>
        <time>2022-08-30T23:30:01.063Z</time>
      </trkpt>
      <trkpt lat="43.18285" lon="3.13557">
        <ele>133.937715</ele>
        <time>2022-08-30T23:30:25.319Z</time>
      </trkpt>
      <trkpt lat="43.18353" lon="3.13617">
        <ele>133.849655</ele>
        <time>2022-08-30T23:30:59.630Z</time>
      </trkpt>
      <trkpt lat="43.18402" lon="3.13628">
        <ele>134.411313</ele>
        <time>2022-08-30T23:31:20.979Z</time>
      </trkpt>
      <trkpt lat="43.18451" lon="3.13638">
        <ele>135.094797</ele>
        <time>2022-08-30T23:31:42.331Z</time>
      </trkpt>
      <trkpt lat="43.18453" lon="3.13639">
        <ele>135.119103</ele>
        <time>2022-08-30T23:31:43.074Z</time>
      </trkpt>
      <trkpt lat="43.18468" lon="3.13567">
        <ele>135.86368</ele>
        <time>2022-08-30T23:32:03.617Z</time>
      </trkpt>
      <trkpt lat="43.1848" lon="3.13557">
        <ele>136.062071</ele>
        <time>2022-08-30T23:32:10.918Z</time>
      </trkpt>
      <trkpt lat="43.18489" lon="3.13559">
        <ele>136.182661</ele>
        <time>2022-08-30T23:32:13.732Z</time>
      </trkpt>
      <trkpt lat="43.18485" lon="3.13711">
        <ele>135.519056</ele>
        <time>2022-08-30T23:32:51.400Z</time>
      </trkpt>
      <trkpt lat="43.1849" lon="3.13909">
        <ele>132.754413</ele>
        <time>2022-08-30T23:33:29.673Z</time>
      </trkpt>
      <trkpt lat="43.18677" lon="3.13924">
        <ele>126.954231</ele>
        <time>2022-08-30T23:34:17.293Z</time>
      </trkpt>
      <trkpt lat="43.18694" lon="3.13925">
        <ele>126.496738</ele>
        <time>2022-08-30T23:34:20.841Z</time>
      </trkpt>
      <trkpt lat="43.18677" lon="3.13924">
        <ele>126.039246</ele>
        <time>2022-08-30T23:34:28.691Z</time>
      </trkpt>
      <trkpt lat="43.18684" lon="3.13933">
        <ele>125.773817</ele>
        <time>2022-08-30T23:34:30.780Z</time>
      </trkpt>
      <trkpt lat="43.18698" lon="3.1408">
        <ele>124.232744</ele>
        <time>2022-08-30T23:35:01.619Z</time>
      </trkpt>
      <trkpt lat="43.1864" lon="3.14142">
        <ele>124.655318</ele>
        <time>2022-08-30T23:35:27.487Z</time>
      </trkpt>
      <trkpt lat="43.18622" lon="3.14203">
        <ele>124.932523</ele>
        <time>2022-08-30T23:35:45.915Z</time>
      </trkpt>
      <trkpt lat="43.18611" lon="3.14229">
        <ele>125.283963</ele>
        <time>2022-08-30T23:35:55.356Z</time>
      </trkpt>
      <trkpt lat="43.18593" lon="3.14251">
        <ele>126.1796</ele>
        <time>2022-08-30T23:36:06.293Z</time>
      </trkpt>
      <trkpt lat="43.18561" lon="3.14276">
        <ele>127.539539</ele>
        <time>2022-08-30T23:36:24.250Z</time>
      </trkpt>
      <trkpt lat="43.18482" lon="3.14292">
        <ele>130.50769</ele>
        <time>2022-08-30T23:37:04.453Z</time>
      </trkpt>
      <trkpt lat="43.18444" lon="3.14307">
        <ele>132.152429</ele>
        <time>2022-08-30T23:37:26.194Z</time>
      </trkpt>
      <trkpt lat="43.18422" lon="3.14307">
        <ele>133.597488</ele>
        <time>2022-08-30T23:37:40.382Z</time>
      </trkpt>
      <trkpt lat="43.18336" lon="3.14371">
        <ele>139.892896</ele>
        <time>2022-08-30T23:38:45.303Z</time>
      </trkpt>
      <trkpt lat="43.18279" lon="3.14396">
        <ele>143.642596</ele>
        <time>2022-08-30T23:39:26.762Z</time>
      </trkpt>
      <trkpt lat="43.18178" lon="3.14562">
        <ele>152.029368</ele>
        <time>2022-08-30T23:40:58.958Z</time>
      </trkpt>
      <trkpt lat="43.18168" lon="3.14569">
        <ele>152.656035</ele>
        <time>2022-08-30T23:41:04.448Z</time>
      </trkpt>
      <trkpt lat="43.1816" lon="3.14556">
        <ele>153.178159</ele>
        <time>2022-08-30T23:41:10.410Z</time>
      </trkpt>
      <trkpt lat="43.18183" lon="3.14472">
        <ele>155.763408</ele>
        <time>2022-08-30T23:41:42.301Z</time>
      </trkpt>
      <trkpt lat="43.18179" lon="3.14465">
        <ele>156.047353</ele>
        <time>2022-08-30T23:41:45.994Z</time>
      </trkpt>
      <trkpt lat="43.18132" lon="3.14526">
        <ele>158.628294</ele>
        <time>2022-08-30T23:42:19.714Z</time>
      </trkpt>
      <trkpt lat="43.18083" lon="3.14611">
        <ele>160.918315</ele>
        <time>2022-08-30T23:43:01.020Z</time>
      </trkpt>
      <trkpt lat="43.18049" lon="3.14682">
        <ele>162.231945</ele>
        <time>2022-08-30T23:43:33.441Z</time>
      </trkpt>
      <trkpt lat="43.18042" lon="3.1484">
        <ele>161.588687</ele>
        <time>2022-08-30T23:44:08.839Z</time>
      </trkpt>
      <trkpt lat="43.18068" lon="3.14891">
        <ele>159.307408</ele>
        <time>2022-08-30T23:44:19.712Z</time>
      </trkpt>
      <trkpt lat="43.18098" lon="3.14929">
        <ele>157.226511</ele>
        <time>2022-08-30T23:44:29.145Z</time>
      </trkpt>
      <trkpt lat="43.18142" lon="3.15054">
        <ele>150.056969</ele>
        <time>2022-08-30T23:44:51.548Z</time>
      </trkpt>
      <trkpt lat="43.18169" lon="3.15069">
        <ele>147.373071</ele>
        <time>2022-08-30T23:44:57.923Z</time>
      </trkpt>
      <trkpt lat="43.18219" lon="3.15082">
        <ele>142.754369</ele>
        <time>2022-08-30T23:45:09.020Z</time>
      </trkpt>
      <trkpt lat="43.18285" lon="3.15124">
        <ele>135.909819</ele>
        <time>2022-08-30T23:45:24.655Z</time>
      </trkpt>
      <trkpt lat="43.18314" lon="3.15128">
        <ele>132.959706</ele>
        <time>2022-08-30T23:45:30.877Z</time>
      </trkpt>
      <trkpt lat="43.1836" lon="3.15107">
        <ele>128.04191</ele>
        <time>2022-08-30T23:45:41.247Z</time>
      </trkpt>
      <trkpt lat="43.18384" lon="3.15103">
        <ele>125.561806</ele>
        <time>2022-08-30T23:45:46.500Z</time>
      </trkpt>
      <trkpt lat="43.18428" lon="3.15126">
        <ele>120.837239</ele>
        <time>2022-08-30T23:45:56.533Z</time>
      </trkpt>
      <trkpt lat="43.18426" lon="3.15149">
        <ele>119.013552</ele>
        <time>2022-08-30T23:46:00.229Z</time>
      </trkpt>
      <trkpt lat="43.18435" lon="3.1518">
        <ele>116.354269</ele>
        <time>2022-08-30T23:46:05.413Z</time>
      </trkpt>
      <trkpt lat="43.18436" lon="3.15201">
        <ele>114.695697</ele>
        <time>2022-08-30T23:46:08.668Z</time>
      </trkpt>
      <trkpt lat="43.18437" lon="3.15227">
        <ele>112.561814</ele>
        <time>2022-08-30T23:46:12.604Z</time>
      </trkpt>
      <trkpt lat="43.18476" lon="3.15249">
        <ele>108.004432</ele>
        <time>2022-08-30T23:46:21.255Z</time>
      </trkpt>
      <trkpt lat="43.18487" lon="3.15271">
        <ele>105.841415</ele>
        <time>2022-08-30T23:46:25.290Z</time>
      </trkpt>
      <trkpt lat="43.18553" lon="3.15272">
        <ele>98.940355</ele>
        <time>2022-08-30T23:46:39.749Z</time>
      </trkpt>
      <trkpt lat="43.18557" lon="3.15272">
        <ele>98.658891</ele>
        <time>2022-08-30T23:46:40.426Z</time>
      </trkpt>
      <trkpt lat="43.18574" lon="3.15315">
        <ele>95.707076</ele>
        <time>2022-08-30T23:46:48.153Z</time>
      </trkpt>
      <trkpt lat="43.18586" lon="3.1536">
        <ele>92.797773</ele>
        <time>2022-08-30T23:46:55.828Z</time>
      </trkpt>
      <trkpt lat="43.18601" lon="3.15527">
        <ele>84.029411</ele>
        <time>2022-08-30T23:47:23.811Z</time>
      </trkpt>
      <trkpt lat="43.18608" lon="3.15531">
        <ele>83.740133</ele>
        <time>2022-08-30T23:47:25.650Z</time>
      </trkpt>
      <trkpt lat="43.18628" lon="3.15565">
        <ele>82.445892</ele>
        <time>2022-08-30T23:47:34.109Z</time>
      </trkpt>
      <trkpt lat="43.18632" lon="3.15718">
        <ele>78.133875</ele>
        <time>2022-08-30T23:48:02.902Z</time>
      </trkpt>
      <trkpt lat="43.1865" lon="3.15747">
        <ele>77.546642</ele>
        <time>2022-08-30T23:48:10.517Z</time>
      </trkpt>
      <trkpt lat="43.18664" lon="3.15758">
        <ele>77.215788</ele>
        <time>2022-08-30T23:48:14.653Z</time>
      </trkpt>
      <trkpt lat="43.1869" lon="3.15816">
        <ele>76.168404</ele>
        <time>2022-08-30T23:48:28.245Z</time>
      </trkpt>
      <trkpt lat="43.18689" lon="3.15856">
        <ele>75.548503</ele>
        <time>2022-08-30T23:48:36.232Z</time>
      </trkpt>
      <trkpt lat="43.18703" lon="3.15916">
        <ele>74.585579</ele>
        <time>2022-08-30T23:48:48.790Z</time>
      </trkpt>
      <trkpt lat="43.18698" lon="3.15966">
        <ele>73.852529</ele>
        <time>2022-08-30T23:48:59.053Z</time>
      </trkpt>
      <trkpt lat="43.1872" lon="3.16061">
        <ele>72.444615</ele>
        <time>2022-08-30T23:49:20.224Z</time>
      </trkpt>
      <trkpt lat="43.1873" lon="3.16179">
        <ele>70.635763</ele>
        <time>2022-08-30T23:49:43.449Z</time>
      </trkpt>
      <trkpt lat="43.18768" lon="3.16233">
        <ele>68.600298</ele>
        <time>2022-08-30T23:49:57.316Z</time>
      </trkpt>
      <trkpt lat="43.1877" lon="3.16431">
        <ele>63.231098</ele>
        <time>2022-08-30T23:50:33.188Z</time>
      </trkpt>
      <trkpt lat="43.18746" lon="3.16558">
        <ele>59.499228</ele>
        <time>2022-08-30T23:50:57.035Z</time>
      </trkpt>
      <trkpt lat="43.18763" lon="3.16733">
        <ele>54.794557</ele>
        <time>2022-08-30T23:51:29.791Z</time>
      </trkpt>
      <trkpt lat="43.18784" lon="3.16876">
        <ele>51.13502</ele>
        <time>2022-08-30T23:51:56.255Z</time>
      </trkpt>
      <trkpt lat="43.18815" lon="3.17011">
        <ele>51.079714</ele>
        <time>2022-08-30T23:52:26.788Z</time>
      </trkpt>
      <trkpt lat="43.1884" lon="3.17055">
        <ele>51.083824</ele>
        <time>2022-08-30T23:52:42.326Z</time>
      </trkpt>
      <trkpt lat="43.18832" lon="3.17104">
        <ele>51.087523</ele>
        <time>2022-08-30T23:52:58.352Z</time>
      </trkpt>
      <trkpt lat="43.18879" lon="3.17095">
        <ele>51.715777</ele>
        <time>2022-08-30T23:53:17.619Z</time>
      </trkpt>
      <trkpt lat="43.18927" lon="3.17109">
        <ele>52.368307</ele>
        <time>2022-08-30T23:53:35.040Z</time>
      </trkpt>
      <trkpt lat="43.18963" lon="3.17158">
        <ele>53.049824</ele>
        <time>2022-08-30T23:53:51.737Z</time>
      </trkpt>
      <trkpt lat="43.19006" lon="3.17176">
        <ele>53.176835</ele>
        <time>2022-08-30T23:54:02.775Z</time>
      </trkpt>
      <trkpt lat="43.19075" lon="3.1722">
        <ele>51.091448</ele>
        <time>2022-08-30T23:54:18.454Z</time>
      </trkpt>
      <trkpt lat="43.1905" lon="3.17394">
        <ele>47.289515</ele>
        <time>2022-08-30T23:54:37.599Z</time>
      </trkpt>
      <trkpt lat="43.19049" lon="3.17395">
        <ele>47.269446</ele>
        <time>2022-08-30T23:54:37.678Z</time>
      </trkpt>
      <trkpt lat="43.19053" lon="3.174">
        <ele>47.087861</ele>
        <time>2022-08-30T23:54:39.961Z</time>
      </trkpt>
      <trkpt lat="43.19096" lon="3.17504">
        <ele>44.134346</ele>
        <time>2022-08-30T23:55:17.296Z</time>
      </trkpt>
      <trkpt lat="43.1914" lon="3.17608">
        <ele>42.424586</ele>
        <time>2022-08-30T23:55:54.627Z</time>
      </trkpt>
      <trkpt lat="43.19172" lon="3.17685">
        <ele>42.38524</ele>
        <time>2022-08-30T23:56:22.487Z</time>
      </trkpt>
      <trkpt lat="43.19205" lon="3.17786">
        <ele>42.446636</ele>
        <time>2022-08-30T23:56:56.956Z</time>
      </trkpt>
      <trkpt lat="43.19202" lon="3.17843">
        <ele>43.800172</ele>
        <time>2022-08-30T23:57:14.724Z</time>
      </trkpt>
      <trkpt lat="43.19221" lon="3.17919">
        <ele>45.710769</ele>
        <time>2022-08-30T23:57:39.811Z</time>
      </trkpt>
      <trkpt lat="43.19222" lon="3.17918">
        <ele>45.762412</ele>
        <time>2022-08-30T23:57:40.494Z</time>
      </trkpt>
      <trkpt lat="43.19225" lon="3.17929">
        <ele>46.029418</ele>
        <time>2022-08-30T23:57:44.217Z</time>
      </trkpt>
      <trkpt lat="43.1925" lon="3.1798">
        <ele>47.493461</ele>
        <time>2022-08-30T23:58:07.341Z</time>
      </trkpt>
      <trkpt lat="43.19257" lon="3.18039">
        <ele>48.209199</ele>
        <time>2022-08-30T23:58:27.640Z</time>
      </trkpt>
      <trkpt lat="43.1923" lon="3.18158">
        <ele>48.243496</ele>
        <time>2022-08-30T23:58:59.994Z</time>
      </trkpt>
      <trkpt lat="43.19217" lon="3.18204">
        <ele>48.25676</ele>
        <time>2022-08-30T23:59:09.911Z</time>
      </trkpt>
      <trkpt lat="43.19197" lon="3.18339">
        <ele>45.95311</ele>
        <time>2022-08-30T23:59:36.239Z</time>
      </trkpt>
      <trkpt lat="43.19193" lon="3.18438">
        <ele>43.547647</ele>
        <time>2022-08-30T23:59:54.252Z</time>
      </trkpt>
      <trkpt lat="43.192" lon="3.18478">
        <ele>42.551063</ele>
        <time>2022-08-31T00:00:01.859Z</time>
      </trkpt>
      <trkpt lat="43.19204" lon="3.18479">
        <ele>42.415541</ele>
        <time>2022-08-31T00:00:02.961Z</time>
      </trkpt>
      <trkpt lat="43.19194" lon="3.18525">
        <ele>40.720829</ele>
        <time>2022-08-31T00:00:11.885Z</time>
      </trkpt>
      <trkpt lat="43.19182" lon="3.1856">
        <ele>39.300743</ele>
        <time>2022-08-31T00:00:18.902Z</time>
      </trkpt>
      <trkpt lat="43.19174" lon="3.18631">
        <ele>36.665168</ele>
        <time>2022-08-31T00:00:31.903Z</time>
      </trkpt>
      <trkpt lat="43.19164" lon="3.18653">
        <ele>35.715512</ele>
        <time>2022-08-31T00:00:36.155Z</time>
      </trkpt>
      <trkpt lat="43.19162" lon="3.18671">
        <ele>35.016525</ele>
        <time>2022-08-31T00:00:39.334Z</time>
      </trkpt>
      <trkpt lat="43.1917" lon="3.18714">
        <ele>33.394042</ele>
        <time>2022-08-31T00:00:46.619Z</time>
      </trkpt>
      <trkpt lat="43.1918" lon="3.18724">
        <ele>32.640293</ele>
        <time>2022-08-31T00:00:49.640Z</time>
      </trkpt>
      <trkpt lat="43.19187" lon="3.18728">
        <ele>32.175614</ele>
        <time>2022-08-31T00:00:51.201Z</time>
      </trkpt>
      <trkpt lat="43.19188" lon="3.18737">
        <ele>31.708458</ele>
        <time>2022-08-31T00:00:52.670Z</time>
      </trkpt>
      <trkpt lat="43.19192" lon="3.18749">
        <ele>31.080214</ele>
        <time>2022-08-31T00:00:54.813Z</time>
      </trkpt>
      <trkpt lat="43.19209" lon="3.18761">
        <ele>29.797052</ele>
        <time>2022-08-31T00:00:59.380Z</time>
      </trkpt>
      <trkpt lat="43.19217" lon="3.18773">
        <ele>29.060341</ele>
        <time>2022-08-31T00:01:01.722Z</time>
      </trkpt>
      <trkpt lat="43.19228" lon="3.18766">
        <ele>28.248807</ele>
        <time>2022-08-31T00:01:04.699Z</time>
      </trkpt>
      <trkpt lat="43.19231" lon="3.18753">
        <ele>27.570419</ele>
        <time>2022-08-31T00:01:07.107Z</time>
      </trkpt>
      <trkpt lat="43.19245" lon="3.18749">
        <ele>26.601636</ele>
        <time>2022-08-31T00:01:10.214Z</time>
      </trkpt>
      <trkpt lat="43.19288" lon="3.1872">
        <ele>23.414932</ele>
        <time>2022-08-31T00:01:21.472Z</time>
      </trkpt>
      <trkpt lat="43.19306" lon="3.18715">
        <ele>22.23121</ele>
        <time>2022-08-31T00:01:25.510Z</time>
      </trkpt>
      <trkpt lat="43.19311" lon="3.18716">
        <ele>21.898963</ele>
        <time>2022-08-31T00:01:26.622Z</time>
      </trkpt>
      <trkpt lat="43.19335" lon="3.18702">
        <ele>20.736211</ele>
        <time>2022-08-31T00:01:33.237Z</time>
      </trkpt>
      <trkpt lat="43.19346" lon="3.18689">
        <ele>20.346846</ele>
        <time>2022-08-31T00:01:36.413Z</time>
      </trkpt>
      <trkpt lat="43.19356" lon="3.18701">
        <ele>19.987783</ele>
        <time>2022-08-31T00:01:39.811Z</time>
      </trkpt>
      <trkpt lat="43.19352" lon="3.18704">
        <ele>19.866362</ele>
        <time>2022-08-31T00:01:40.920Z</time>
      </trkpt>
      <trkpt lat="43.19341" lon="3.18749">
        <ele>18.901019</ele>
        <time>2022-08-31T00:01:49.528Z</time>
      </trkpt>
      <trkpt lat="43.19349" lon="3.18764">
        <ele>18.518224</ele>
        <time>2022-08-31T00:01:53.380Z</time>
      </trkpt>
      <trkpt lat="43.19349" lon="3.18771">
        <ele>18.363464</ele>
        <time>2022-08-31T00:01:55.239Z</time>
      </trkpt>
      <trkpt lat="43.1932" lon="3.18897">
        <ele>15.710488</ele>
        <time>2022-08-31T00:02:22.989Z</time>
      </trkpt>
      <trkpt lat="43.19313" lon="3.1893">
        <ele>15.030878</ele>
        <time>2022-08-31T00:02:30.346Z</time>
      </trkpt>
      <trkpt lat="43.19312" lon="3.18972">
        <ele>14.212927</ele>
        <time>2022-08-31T00:02:38.798Z</time>
      </trkpt>
      <trkpt lat="43.19308" lon="3.19124">
        <ele>11.177176</ele>
        <time>2022-08-31T00:03:07.403Z</time>
      </trkpt>
      <trkpt lat="43.19275" lon="3.19223">
        <ele>8.217373</ele>
        <time>2022-08-31T00:03:26.540Z</time>
      </trkpt>
      <trkpt lat="43.1928" lon="3.19345">
        <ele>4.867786</ele>
        <time>2022-08-31T00:03:49.247Z</time>
      </trkpt>
      <trkpt lat="43.19271" lon="3.19351">
        <ele>4.554139</ele>
        <time>2022-08-31T00:03:51.846Z</time>
      </trkpt>
      <trkpt lat="43.19266" lon="3.19367">
        <ele>4.352935</ele>
        <time>2022-08-31T00:03:55.234Z</time>
      </trkpt>
      <trkpt lat="43.19228" lon="3.19396">
        <ele>3.655833</ele>
        <time>2022-08-31T00:04:06.938Z</time>
      </trkpt>
      <trkpt lat="43.19214" lon="3.19442">
        <ele>3.083252</ele>
        <time>2022-08-31T00:04:16.732Z</time>
      </trkpt>
      <trkpt lat="43.19121" lon="3.19544">
        <ele>1.703032</ele>
        <time>2022-08-31T00:04:52.790Z</time>
      </trkpt>
      <trkpt lat="43.19103" lon="3.19557">
        <ele>1.689093</ele>
        <time>2022-08-31T00:04:59.147Z</time>
      </trkpt>
      <trkpt lat="43.19056" lon="3.19544">
        <ele>1.656297</ele>
        <time>2022-08-31T00:05:14.229Z</time>
      </trkpt>
      <trkpt lat="43.19038" lon="3.19587">
        <ele>1.631759</ele>
        <time>2022-08-31T00:05:25.683Z</time>
      </trkpt>
      <trkpt lat="43.19023" lon="3.19601">
        <ele>1.619152</ele>
        <time>2022-08-31T00:05:31.948Z</time>
      </trkpt>
      <trkpt lat="43.1901" lon="3.19619">
        <ele>1.606586</ele>
        <time>2022-08-31T00:05:37.808Z</time>
      </trkpt>
      <trkpt lat="43.18999" lon="3.19634">
        <ele>1.650751</ele>
        <time>2022-08-31T00:05:43.421Z</time>
      </trkpt>
      <trkpt lat="43.19" lon="3.19649">
        <ele>1.696342</ele>
        <time>2022-08-31T00:05:47.023Z</time>
      </trkpt>
      <trkpt lat="43.18974" lon="3.19663">
        <ele>1.810913</ele>
        <time>2022-08-31T00:05:53.887Z</time>
      </trkpt>
      <trkpt lat="43.18987" lon="3.19682">
        <ele>1.889241</ele>
        <time>2022-08-31T00:05:58.168Z</time>
      </trkpt>
      <trkpt lat="43.19021" lon="3.19717">
        <ele>2.067326</ele>
        <time>2022-08-31T00:06:08.443Z</time>
      </trkpt>
      <trkpt lat="43.19031" lon="3.19727">
        <ele>2.118499</ele>
        <time>2022-08-31T00:06:11.395Z</time>
      </trkpt>
      <trkpt lat="43.19034" lon="3.19729">
        <ele>2.129758</ele>
        <time>2022-08-31T00:06:11.959Z</time>
      </trkpt>
      <trkpt lat="43.19072" lon="3.19774">
        <ele>2.338921</ele>
        <time>2022-08-31T00:06:22.522Z</time>
      </trkpt>
      <trkpt lat="43.19103" lon="3.19841">
        <ele>2.299386</ele>
        <time>2022-08-31T00:06:34.058Z</time>
      </trkpt>
      <trkpt lat="43.19198" lon="3.19957">
        <ele>2.18894</ele>
        <time>2022-08-31T00:06:59.127Z</time>
      </trkpt>
      <trkpt lat="43.19293" lon="3.201">
        <ele>1.991416</ele>
        <time>2022-08-31T00:07:26.897Z</time>
      </trkpt>
      <trkpt lat="43.19297" lon="3.20114">
        <ele>1.975469</ele>
        <time>2022-08-31T00:07:29.242Z</time>
      </trkpt>
      <trkpt lat="43.19295" lon="3.2012">
        <ele>1.968492</ele>
        <time>2022-08-31T00:07:30.275Z</time>
      </trkpt>
      <trkpt lat="43.19308" lon="3.20131">
        <ele>1.946475</ele>
        <time>2022-08-31T00:07:37.005Z</time>
      </trkpt>
      <trkpt lat="43.19295" lon="3.20209">
        <ele>1.769504</ele>
        <time>2022-08-31T00:08:01.977Z</time>
      </trkpt>
      <trkpt lat="43.19282" lon="3.20287">
        <ele>1.586252</ele>
        <time>2022-08-31T00:08:26.951Z</time>
      </trkpt>
      <trkpt lat="43.19289" lon="3.20324">
        <ele>1.499264</ele>
        <time>2022-08-31T00:08:38.798Z</time>
      </trkpt>
      <trkpt lat="43.19275" lon="3.20385">
        <ele>1.332367</ele>
        <time>2022-08-31T00:08:58.579Z</time>
      </trkpt>
      <trkpt lat="43.19273" lon="3.2045">
        <ele>1.036662</ele>
        <time>2022-08-31T00:09:19.076Z</time>
      </trkpt>
      <trkpt lat="43.19272" lon="3.20516">
        <ele>0.740937</ele>
        <time>2022-08-31T00:09:39.573Z</time>
      </trkpt>
      <trkpt lat="43.19281" lon="3.20579">
        <ele>0.450809</ele>
        <time>2022-08-31T00:09:59.681Z</time>
      </trkpt>
      <trkpt lat="43.19297" lon="3.20622">
        <ele>0.267847</ele>
        <time>2022-08-31T00:10:14.706Z</time>
      </trkpt>
      <trkpt lat="43.19318" lon="3.20648">
        <ele>0.274682</ele>
        <time>2022-08-31T00:10:26.900Z</time>
      </trkpt>
      <trkpt lat="43.19385" lon="3.20681">
        <ele>0.291811</ele>
        <time>2022-08-31T00:10:57.441Z</time>
      </trkpt>
      <trkpt lat="43.19452" lon="3.20714">
        <ele>0.308916</ele>
        <time>2022-08-31T00:11:27.984Z</time>
      </trkpt>
      <trkpt lat="43.1952" lon="3.20747">
        <ele>0.484674</ele>
        <time>2022-08-31T00:11:58.527Z</time>
      </trkpt>
      <trkpt lat="43.19579" lon="3.20817">
        <ele>0.68515</ele>
        <time>2022-08-31T00:12:31.918Z</time>
      </trkpt>
      <trkpt lat="43.19639" lon="3.20886">
        <ele>0.8437</ele>
        <time>2022-08-31T00:13:05.309Z</time>
      </trkpt>
      <trkpt lat="43.19698" lon="3.20955">
        <ele>0.970821</ele>
        <time>2022-08-31T00:13:38.701Z</time>
      </trkpt>
      <trkpt lat="43.19698" lon="3.20956">
        <ele>0.97177</ele>
        <time>2022-08-31T00:13:38.962Z</time>
      </trkpt>
      <trkpt lat="43.19706" lon="3.20957">
        <ele>0.984168</ele>
        <time>2022-08-31T00:13:41.379Z</time>
      </trkpt>
      <trkpt lat="43.19803" lon="3.20991">
        <ele>1.198395</ele>
        <time>2022-08-31T00:14:14.778Z</time>
      </trkpt>
      <trkpt lat="43.19856" lon="3.21068">
        <ele>1.401761</ele>
        <time>2022-08-31T00:14:40.778Z</time>
      </trkpt>
      <trkpt lat="43.19894" lon="3.21135">
        <ele>1.532635</ele>
        <time>2022-08-31T00:15:01.091Z</time>
      </trkpt>
      <trkpt lat="43.20013" lon="3.21306">
        <ele>1.502286</ele>
        <time>2022-08-31T00:15:55.357Z</time>
      </trkpt>
      <trkpt lat="43.20013" lon="3.2132">
        <ele>1.499716</ele>
        <time>2022-08-31T00:15:58.538Z</time>
      </trkpt>
      <trkpt lat="43.20007" lon="3.21333">
        <ele>1.496765</ele>
        <time>2022-08-31T00:16:02.216Z</time>
      </trkpt>
      <trkpt lat="43.1994" lon="3.2145">
        <ele>1.469441</ele>
        <time>2022-08-31T00:16:36.523Z</time>
      </trkpt>
      <trkpt lat="43.19935" lon="3.21469">
        <ele>1.465864</ele>
        <time>2022-08-31T00:16:41.160Z</time>
      </trkpt>
      <trkpt lat="43.19936" lon="3.2149">
        <ele>1.462025</ele>
        <time>2022-08-31T00:16:46.152Z</time>
      </trkpt>
      <trkpt lat="43.19941" lon="3.21528">
        <ele>1.433873</ele>
        <time>2022-08-31T00:16:55.328Z</time>
      </trkpt>
      <trkpt lat="43.2001" lon="3.21606">
        <ele>1.247473</ele>
        <time>2022-08-31T00:17:23.377Z</time>
      </trkpt>
      <trkpt lat="43.20036" lon="3.21613">
        <ele>1.192813</ele>
        <time>2022-08-31T00:17:31.505Z</time>
      </trkpt>
      <trkpt lat="43.20095" lon="3.21701">
        <ele>1.061515</ele>
        <time>2022-08-31T00:18:08.597Z</time>
      </trkpt>
      <trkpt lat="43.20154" lon="3.21788">
        <ele>1.004937</ele>
        <time>2022-08-31T00:18:45.688Z</time>
      </trkpt>
      <trkpt lat="43.20213" lon="3.21875">
        <ele>1.088614</ele>
        <time>2022-08-31T00:19:22.780Z</time>
      </trkpt>
      <trkpt lat="43.20217" lon="3.21874">
        <ele>1.108936</ele>
        <time>2022-08-31T00:19:24.117Z</time>
      </trkpt>
      <trkpt lat="43.20238" lon="3.21883">
        <ele>1.205918</ele>
        <time>2022-08-31T00:19:32.040Z</time>
      </trkpt>
      <trkpt lat="43.20296" lon="3.21929">
        <ele>1.498252</ele>
        <time>2022-08-31T00:19:55.244Z</time>
      </trkpt>
      <trkpt lat="43.20326" lon="3.21967">
        <ele>1.677073</ele>
        <time>2022-08-31T00:20:09.436Z</time>
      </trkpt>
      <trkpt lat="43.20422" lon="3.2205">
        <ele>1.812736</ele>
        <time>2022-08-31T00:20:46.413Z</time>
      </trkpt>
      <trkpt lat="43.20466" lon="3.22102">
        <ele>1.849047</ele>
        <time>2022-08-31T00:21:04.591Z</time>
      </trkpt>
      <trkpt lat="43.20475" lon="3.22111">
        <ele>1.855831</ele>
        <time>2022-08-31T00:21:08.004Z</time>
      </trkpt>
      <trkpt lat="43.2048" lon="3.2214">
        <ele>1.856187</ele>
        <time>2022-08-31T00:21:14.856Z</time>
      </trkpt>
      <trkpt lat="43.20506" lon="3.22232">
        <ele>1.759791</ele>
        <time>2022-08-31T00:21:37.479Z</time>
      </trkpt>
      <trkpt lat="43.20511" lon="3.2226">
        <ele>1.732185</ele>
        <time>2022-08-31T00:21:43.954Z</time>
      </trkpt>
      <trkpt lat="43.20507" lon="3.22277">
        <ele>1.71426</ele>
        <time>2022-08-31T00:21:48.165Z</time>
      </trkpt>
      <trkpt lat="43.20509" lon="3.22299">
        <ele>1.692616</ele>
        <time>2022-08-31T00:21:53.254Z</time>
      </trkpt>
      <trkpt lat="43.20519" lon="3.22307">
        <ele>1.677555</ele>
        <time>2022-08-31T00:21:56.747Z</time>
      </trkpt>
      <trkpt lat="43.20527" lon="3.22306">
        <ele>1.66726</ele>
        <time>2022-08-31T00:21:59.165Z</time>
      </trkpt>
      <trkpt lat="43.20566" lon="3.2244">
        <ele>1.544375</ele>
        <time>2022-08-31T00:22:32.305Z</time>
      </trkpt>
      <trkpt lat="43.20564" lon="3.22466">
        <ele>1.523989</ele>
        <time>2022-08-31T00:22:38.239Z</time>
      </trkpt>
      <trkpt lat="43.20579" lon="3.22468">
        <ele>1.507602</ele>
        <time>2022-08-31T00:22:44.704Z</time>
      </trkpt>
      <trkpt lat="43.20582" lon="3.22506">
        <ele>1.477658</ele>
        <time>2022-08-31T00:22:56.500Z</time>
      </trkpt>
      <trkpt lat="43.20622" lon="3.22569">
        <ele>1.368147</ele>
        <time>2022-08-31T00:23:22.813Z</time>
      </trkpt>
      <trkpt lat="43.20666" lon="3.22631">
        <ele>1.13663</ele>
        <time>2022-08-31T00:23:49.773Z</time>
      </trkpt>
      <trkpt lat="43.20694" lon="3.22716">
        <ele>0.887361</ele>
        <time>2022-08-31T00:24:18.806Z</time>
      </trkpt>
      <trkpt lat="43.20723" lon="3.22801">
        <ele>0.657971</ele>
        <time>2022-08-31T00:24:47.839Z</time>
      </trkpt>
      <trkpt lat="43.20748" lon="3.22884">
        <ele>0.452011</ele>
        <time>2022-08-31T00:25:16.166Z</time>
      </trkpt>
      <trkpt lat="43.20782" lon="3.22909">
        <ele>0.333484</ele>
        <time>2022-08-31T00:25:32.469Z</time>
      </trkpt>
      <trkpt lat="43.20781" lon="3.22904">
        <ele>0.321661</ele>
        <time>2022-08-31T00:25:34.107Z</time>
      </trkpt>
      <trkpt lat="43.20839" lon="3.22888">
        <ele>0.21505</ele>
        <time>2022-08-31T00:25:52.476Z</time>
      </trkpt>
      <trkpt lat="43.20875" lon="3.22885">
        <ele>0.225043</ele>
        <time>2022-08-31T00:26:04.229Z</time>
      </trkpt>
      <trkpt lat="43.20884" lon="3.22885">
        <ele>0.227471</ele>
        <time>2022-08-31T00:26:07.091Z</time>
      </trkpt>
      <trkpt lat="43.20935" lon="3.22936">
        <ele>0.244636</ele>
        <time>2022-08-31T00:26:27.316Z</time>
      </trkpt>
      <trkpt lat="43.20987" lon="3.22999">
        <ele>0.282623</ele>
        <time>2022-08-31T00:26:49.504Z</time>
      </trkpt>
      <trkpt lat="43.20991" lon="3.23014">
        <ele>0.296926</ele>
        <time>2022-08-31T00:26:53.280Z</time>
      </trkpt>
      <trkpt lat="43.20986" lon="3.23091">
        <ele>0.36503</ele>
        <time>2022-08-31T00:27:11.364Z</time>
      </trkpt>
      <trkpt lat="43.20992" lon="3.23096">
        <ele>0.373335</ele>
        <time>2022-08-31T00:27:13.574Z</time>
      </trkpt>
      <trkpt lat="43.21031" lon="3.23135">
        <ele>0.432299</ele>
        <time>2022-08-31T00:27:29.477Z</time>
      </trkpt>
      <trkpt lat="43.2115" lon="3.23246">
        <ele>0.726443</ele>
        <time>2022-08-31T00:28:16.153Z</time>
      </trkpt>
      <trkpt lat="43.2125" lon="3.23321">
        <ele>1.026648</ele>
        <time>2022-08-31T00:28:53.961Z</time>
      </trkpt>
      <trkpt lat="43.21439" lon="3.23447">
        <ele>1.668955</ele>
        <time>2022-08-31T00:30:04.740Z</time>
      </trkpt>
      <trkpt lat="43.21454" lon="3.23459">
        <ele>1.718643</ele>
        <time>2022-08-31T00:30:10.443Z</time>
      </trkpt>
      <trkpt lat="43.21461" lon="3.23451">
        <ele>1.745203</ele>
        <time>2022-08-31T00:30:13.015Z</time>
      </trkpt>
      <trkpt lat="43.21508" lon="3.23319">
        <ele>2.028286</ele>
        <time>2022-08-31T00:30:41.247Z</time>
      </trkpt>
      <trkpt lat="43.2151" lon="3.23318">
        <ele>2.033263</ele>
        <time>2022-08-31T00:30:41.883Z</time>
      </trkpt>
      <trkpt lat="43.2151" lon="3.23315">
        <ele>2.037708</ele>
        <time>2022-08-31T00:30:42.831Z</time>
      </trkpt>
      <trkpt lat="43.2153" lon="3.2331">
        <ele>2.079155</ele>
        <time>2022-08-31T00:30:51.842Z</time>
      </trkpt>
      <trkpt lat="43.2156" lon="3.23261">
        <ele>2.170295</ele>
        <time>2022-08-31T00:31:11.658Z</time>
      </trkpt>
      <trkpt lat="43.21582" lon="3.23268">
        <ele>2.214694</ele>
        <time>2022-08-31T00:31:21.311Z</time>
      </trkpt>
      <trkpt lat="43.21623" lon="3.23303">
        <ele>2.310435</ele>
        <time>2022-08-31T00:31:42.129Z</time>
      </trkpt>
      <trkpt lat="43.21633" lon="3.2333">
        <ele>2.388733</ele>
        <time>2022-08-31T00:31:51.533Z</time>
      </trkpt>
      <trkpt lat="43.21642" lon="3.23309">
        <ele>2.478928</ele>
        <time>2022-08-31T00:31:59.015Z</time>
      </trkpt>
      <trkpt lat="43.21658" lon="3.23321">
        <ele>2.571422</ele>
        <time>2022-08-31T00:32:03.780Z</time>
      </trkpt>
      <trkpt lat="43.21666" lon="3.23305">
        <ele>2.644384</ele>
        <time>2022-08-31T00:32:07.844Z</time>
      </trkpt>
      <trkpt lat="43.21673" lon="3.23291">
        <ele>2.710352</ele>
        <time>2022-08-31T00:32:11.339Z</time>
      </trkpt>
      <trkpt lat="43.21728" lon="3.23204">
        <ele>3.142239</ele>
        <time>2022-08-31T00:32:30.581Z</time>
      </trkpt>
      <trkpt lat="43.21737" lon="3.23182">
        <ele>3.236487</ele>
        <time>2022-08-31T00:32:35.122Z</time>
      </trkpt>
      <trkpt lat="43.21755" lon="3.23104">
        <ele>3.439595</ele>
        <time>2022-08-31T00:32:48.851Z</time>
      </trkpt>
      <trkpt lat="43.21764" lon="3.23029">
        <ele>3.618828</ele>
        <time>2022-08-31T00:33:01.048Z</time>
      </trkpt>
      <trkpt lat="43.21767" lon="3.22987">
        <ele>3.718174</ele>
        <time>2022-08-31T00:33:07.619Z</time>
      </trkpt>
      <trkpt lat="43.21768" lon="3.22982">
        <ele>3.729809</ele>
        <time>2022-08-31T00:33:08.387Z</time>
      </trkpt>
      <trkpt lat="43.2177" lon="3.22955">
        <ele>3.793786</ele>
        <time>2022-08-31T00:33:12.474Z</time>
      </trkpt>
      <trkpt lat="43.21763" lon="3.22947">
        <ele>3.822933</ele>
        <time>2022-08-31T00:33:14.313Z</time>
      </trkpt>
      <trkpt lat="43.21771" lon="3.22941">
        <ele>3.836156</ele>
        <time>2022-08-31T00:33:16.079Z</time>
      </trkpt>
      <trkpt lat="43.21783" lon="3.22918">
        <ele>3.787559</ele>
        <time>2022-08-31T00:33:19.958Z</time>
      </trkpt>
      <trkpt lat="43.21866" lon="3.22744">
        <ele>3.425156</ele>
        <time>2022-08-31T00:33:47.833Z</time>
      </trkpt>
      <trkpt lat="43.21873" lon="3.22745">
        <ele>3.40167</ele>
        <time>2022-08-31T00:33:49.979Z</time>
      </trkpt>
      <trkpt lat="43.21885" lon="3.22732">
        <ele>3.317017</ele>
        <time>2022-08-31T00:33:54.844Z</time>
      </trkpt>
      <trkpt lat="43.21954" lon="3.22554">
        <ele>2.527088</ele>
        <time>2022-08-31T00:34:38.887Z</time>
      </trkpt>
      <trkpt lat="43.21965" lon="3.22515">
        <ele>2.399559</ele>
        <time>2022-08-31T00:34:48.184Z</time>
      </trkpt>
      <trkpt lat="43.21994" lon="3.22441">
        <ele>2.227633</ele>
        <time>2022-08-31T00:35:06.985Z</time>
      </trkpt>
      <trkpt lat="43.22021" lon="3.22392">
        <ele>2.100714</ele>
        <time>2022-08-31T00:35:20.989Z</time>
      </trkpt>
      <trkpt lat="43.22037" lon="3.22344">
        <ele>1.994337</ele>
        <time>2022-08-31T00:35:32.786Z</time>
      </trkpt>
      <trkpt lat="43.22031" lon="3.22323">
        <ele>1.947571</ele>
        <time>2022-08-31T00:35:38.066Z</time>
      </trkpt>
      <trkpt lat="43.22047" lon="3.22285">
        <ele>1.979862</ele>
        <time>2022-08-31T00:35:44.272Z</time>
      </trkpt>
      <trkpt lat="43.22128" lon="3.22059">
        <ele>2.303043</ele>
        <time>2022-08-31T00:36:21.481Z</time>
      </trkpt>
      <trkpt lat="43.22134" lon="3.22037">
        <ele>2.346223</ele>
        <time>2022-08-31T00:36:24.837Z</time>
      </trkpt>
      <trkpt lat="43.2214" lon="3.21935">
        <ele>2.534711</ele>
        <time>2022-08-31T00:36:39.997Z</time>
      </trkpt>
      <trkpt lat="43.22144" lon="3.21908">
        <ele>2.58446</ele>
        <time>2022-08-31T00:36:44.073Z</time>
      </trkpt>
      <trkpt lat="43.2218" lon="3.21827">
        <ele>2.777573</ele>
        <time>2022-08-31T00:36:58.532Z</time>
      </trkpt>
      <trkpt lat="43.22259" lon="3.21657">
        <ele>3.237366</ele>
        <time>2022-08-31T00:37:29.242Z</time>
      </trkpt>
      <trkpt lat="43.22342" lon="3.21485">
        <ele>3.291241</ele>
        <time>2022-08-31T00:37:58.630Z</time>
      </trkpt>
      <trkpt lat="43.22562" lon="3.21035">
        <ele>2.600119</ele>
        <time>2022-08-31T00:39:11.984Z</time>
      </trkpt>
      <trkpt lat="43.2258" lon="3.21055">
        <ele>2.640151</ele>
        <time>2022-08-31T00:39:16.596Z</time>
      </trkpt>
      <trkpt lat="43.22598" lon="3.21075">
        <ele>2.680102</ele>
        <time>2022-08-31T00:39:21.426Z</time>
      </trkpt>
      <trkpt lat="43.22653" lon="3.21143">
        <ele>2.810709</ele>
        <time>2022-08-31T00:39:37.324Z</time>
      </trkpt>
      <trkpt lat="43.22686" lon="3.2118">
        <ele>2.885381</ele>
        <time>2022-08-31T00:39:46.522Z</time>
      </trkpt>
      <trkpt lat="43.22669" lon="3.21208">
        <ele>2.922605</ele>
        <time>2022-08-31T00:39:52.444Z</time>
      </trkpt>
      <trkpt lat="43.22608" lon="3.21221">
        <ele>2.987996</ele>
        <time>2022-08-31T00:40:05.244Z</time>
      </trkpt>
      <trkpt lat="43.22593" lon="3.21243">
        <ele>3.01174</ele>
        <time>2022-08-31T00:40:09.808Z</time>
      </trkpt>
      <trkpt lat="43.22493" lon="3.21494">
        <ele>3.035022</ele>
        <time>2022-08-31T00:40:52.041Z</time>
      </trkpt>
      <trkpt lat="43.2248" lon="3.21507">
        <ele>3.026773</ele>
        <time>2022-08-31T00:40:55.173Z</time>
      </trkpt>
      <trkpt lat="43.22431" lon="3.2161">
        <ele>2.948734</ele>
        <time>2022-08-31T00:41:12.921Z</time>
      </trkpt>
      <trkpt lat="43.22419" lon="3.21628">
        <ele>2.929065</ele>
        <time>2022-08-31T00:41:16.180Z</time>
      </trkpt>
      <trkpt lat="43.22284" lon="3.21892">
        <ele>2.652885</ele>
        <time>2022-08-31T00:42:03.053Z</time>
      </trkpt>
      <trkpt lat="43.22271" lon="3.21964">
        <ele>2.586255</ele>
        <time>2022-08-31T00:42:13.849Z</time>
      </trkpt>
      <trkpt lat="43.22258" lon="3.21992">
        <ele>2.53227</ele>
        <time>2022-08-31T00:42:18.535Z</time>
      </trkpt>
      <trkpt lat="43.22237" lon="3.22009">
        <ele>2.475773</ele>
        <time>2022-08-31T00:42:23.415Z</time>
      </trkpt>
      <trkpt lat="43.22233" lon="3.22019">
        <ele>2.456916</ele>
        <time>2022-08-31T00:42:25.005Z</time>
      </trkpt>
      <trkpt lat="43.22163" lon="3.22261">
        <ele>2.032991</ele>
        <time>2022-08-31T00:43:02.020Z</time>
      </trkpt>
      <trkpt lat="43.22128" lon="3.22364">
        <ele>1.855158</ele>
        <time>2022-08-31T00:43:18.252Z</time>
      </trkpt>
      <trkpt lat="43.2207" lon="3.22505">
        <ele>1.760348</ele>
        <time>2022-08-31T00:43:41.726Z</time>
      </trkpt>
      <trkpt lat="43.22039" lon="3.226">
        <ele>1.73541</ele>
        <time>2022-08-31T00:43:57.028Z</time>
      </trkpt>
      <trkpt lat="43.22039" lon="3.22609">
        <ele>1.73305</ele>
        <time>2022-08-31T00:43:58.668Z</time>
      </trkpt>
      <trkpt lat="43.22118" lon="3.22678">
        <ele>1.801489</ele>
        <time>2022-08-31T00:44:17.831Z</time>
      </trkpt>
      <trkpt lat="43.22171" lon="3.22736">
        <ele>1.859759</ele>
        <time>2022-08-31T00:44:32.078Z</time>
      </trkpt>
      <trkpt lat="43.22181" lon="3.22747">
        <ele>1.871079</ele>
        <time>2022-08-31T00:44:34.811Z</time>
      </trkpt>
      <trkpt lat="43.22184" lon="3.2276">
        <ele>1.87962</ele>
        <time>2022-08-31T00:44:36.834Z</time>
      </trkpt>
      <trkpt lat="43.22152" lon="3.22827">
        <ele>1.853943</ele>
        <time>2022-08-31T00:44:48.673Z</time>
      </trkpt>
      <trkpt lat="43.22115" lon="3.2294">
        <ele>1.800681</ele>
        <time>2022-08-31T00:45:06.811Z</time>
      </trkpt>
      <trkpt lat="43.22081" lon="3.23085">
        <ele>1.605675</ele>
        <time>2022-08-31T00:45:28.576Z</time>
      </trkpt>
      <trkpt lat="43.22017" lon="3.23304">
        <ele>1.342245</ele>
        <time>2022-08-31T00:46:02.127Z</time>
      </trkpt>
      <trkpt lat="43.22019" lon="3.23333">
        <ele>1.33748</ele>
        <time>2022-08-31T00:46:06.426Z</time>
      </trkpt>
      <trkpt lat="43.22012" lon="3.23354">
        <ele>1.333949</ele>
        <time>2022-08-31T00:46:09.637Z</time>
      </trkpt>
      <trkpt lat="43.22275" lon="3.23326">
        <ele>1.558312</ele>
        <time>2022-08-31T00:47:35.109Z</time>
      </trkpt>
      <trkpt lat="43.22291" lon="3.23335">
        <ele>1.553259</ele>
        <time>2022-08-31T00:47:40.737Z</time>
      </trkpt>
      <trkpt lat="43.22351" lon="3.23394">
        <ele>1.532217</ele>
        <time>2022-08-31T00:48:04.063Z</time>
      </trkpt>
      <trkpt lat="43.22394" lon="3.23425">
        <ele>1.518297</ele>
        <time>2022-08-31T00:48:19.456Z</time>
      </trkpt>
      <trkpt lat="43.22827" lon="3.23611">
        <ele>1.375989</ele>
        <time>2022-08-31T00:50:43.229Z</time>
      </trkpt>
      <trkpt lat="43.22836" lon="3.23608">
        <ele>1.369992</ele>
        <time>2022-08-31T00:50:46.247Z</time>
      </trkpt>
      <trkpt lat="43.22839" lon="3.23607">
        <ele>1.367891</ele>
        <time>2022-08-31T00:50:47.303Z</time>
      </trkpt>
      <trkpt lat="43.22857" lon="3.2363">
        <ele>1.35301</ele>
        <time>2022-08-31T00:50:54.744Z</time>
      </trkpt>
      <trkpt lat="43.22856" lon="3.23634">
        <ele>1.350657</ele>
        <time>2022-08-31T00:50:55.941Z</time>
      </trkpt>
      <trkpt lat="43.22853" lon="3.23645">
        <ele>1.345741</ele>
        <time>2022-08-31T00:50:58.410Z</time>
      </trkpt>
      <trkpt lat="43.2285" lon="3.23649">
        <ele>1.343268</ele>
        <time>2022-08-31T00:50:59.648Z</time>
      </trkpt>
      <trkpt lat="43.22981" lon="3.23703">
        <ele>1.262282</ele>
        <time>2022-08-31T00:51:42.385Z</time>
      </trkpt>
      <trkpt lat="43.23272" lon="3.23838">
        <ele>1.258959</ele>
        <time>2022-08-31T00:53:20.282Z</time>
      </trkpt>
      <trkpt lat="43.23418" lon="3.23864">
        <ele>1.509958</ele>
        <time>2022-08-31T00:54:08.433Z</time>
      </trkpt>
      <trkpt lat="43.23443" lon="3.23889">
        <ele>1.596989</ele>
        <time>2022-08-31T00:54:18.701Z</time>
      </trkpt>
      <trkpt lat="43.23467" lon="3.23899">
        <ele>1.693007</ele>
        <time>2022-08-31T00:54:26.864Z</time>
      </trkpt>
      <trkpt lat="43.23502" lon="3.23925">
        <ele>1.845295</ele>
        <time>2022-08-31T00:54:39.982Z</time>
      </trkpt>
      <trkpt lat="43.23538" lon="3.23944">
        <ele>1.994392</ele>
        <time>2022-08-31T00:54:53.188Z</time>
      </trkpt>
      <trkpt lat="43.23621" lon="3.23968">
        <ele>2.309409</ele>
        <time>2022-08-31T00:55:22.505Z</time>
      </trkpt>
      <trkpt lat="43.23676" lon="3.23999">
        <ele>2.505724</ele>
        <time>2022-08-31T00:55:42.658Z</time>
      </trkpt>
      <trkpt lat="43.23679" lon="3.24004">
        <ele>2.521168</ele>
        <time>2022-08-31T00:55:44.255Z</time>
      </trkpt>
      <trkpt lat="43.23688" lon="3.24013">
        <ele>2.557008</ele>
        <time>2022-08-31T00:55:47.857Z</time>
      </trkpt>
      <trkpt lat="43.23764" lon="3.24041">
        <ele>2.818398</ele>
        <time>2022-08-31T00:56:13.990Z</time>
      </trkpt>
      <trkpt lat="43.23792" lon="3.24044">
        <ele>2.796242</ele>
        <time>2022-08-31T00:56:22.872Z</time>
      </trkpt>
      <trkpt lat="43.23908" lon="3.24076">
        <ele>2.664101</ele>
        <time>2022-08-31T00:56:59.908Z</time>
      </trkpt>
      <trkpt lat="43.23942" lon="3.24098">
        <ele>2.624707</ele>
        <time>2022-08-31T00:57:11.415Z</time>
      </trkpt>
      <trkpt lat="43.24011" lon="3.24108">
        <ele>2.625623</ele>
        <time>2022-08-31T00:57:33.224Z</time>
      </trkpt>
      <trkpt lat="43.24032" lon="3.24118">
        <ele>2.625918</ele>
        <time>2022-08-31T00:57:40.301Z</time>
      </trkpt>
      <trkpt lat="43.24505" lon="3.24188">
        <ele>3.189302</ele>
        <time>2022-08-31T01:00:14.946Z</time>
      </trkpt>
      <trkpt lat="43.24551" lon="3.24187">
        <ele>3.261488</ele>
        <time>2022-08-31T01:00:29.745Z</time>
      </trkpt>
      <trkpt lat="43.24601" lon="3.2416">
        <ele>3.345877</ele>
        <time>2022-08-31T01:00:47.094Z</time>
      </trkpt>
      <trkpt lat="43.24627" lon="3.24157">
        <ele>3.386636</ele>
        <time>2022-08-31T01:00:55.508Z</time>
      </trkpt>
      <trkpt lat="43.24653" lon="3.2416">
        <ele>3.464171</ele>
        <time>2022-08-31T01:01:04.076Z</time>
      </trkpt>
      <trkpt lat="43.24666" lon="3.24167">
        <ele>3.75512</ele>
        <time>2022-08-31T01:01:08.499Z</time>
      </trkpt>
      <trkpt lat="43.24686" lon="3.242">
        <ele>4.426823</ele>
        <time>2022-08-31T01:01:18.757Z</time>
      </trkpt>
      <trkpt lat="43.24696" lon="3.24202">
        <ele>4.647509</ele>
        <time>2022-08-31T01:01:22.135Z</time>
      </trkpt>
      <trkpt lat="43.2485" lon="3.24192">
        <ele>8.81311</ele>
        <time>2022-08-31T01:02:33.008Z</time>
      </trkpt>
      <trkpt lat="43.24855" lon="3.24424">
        <ele>17.001877</ele>
        <time>2022-08-31T01:04:15.459Z</time>
      </trkpt>
      <trkpt lat="43.24901" lon="3.24467">
        <ele>18.968106</ele>
        <time>2022-08-31T01:04:46.280Z</time>
      </trkpt>
      <trkpt lat="43.24946" lon="3.24532">
        <ele>21.280543</ele>
        <time>2022-08-31T01:05:16.642Z</time>
      </trkpt>
      <trkpt lat="43.24991" lon="3.2456">
        <ele>22.753708</ele>
        <time>2022-08-31T01:05:36.992Z</time>
      </trkpt>
      <trkpt lat="43.24995" lon="3.24563">
        <ele>22.800175</ele>
        <time>2022-08-31T01:05:38.724Z</time>
      </trkpt>
      <trkpt lat="43.25017" lon="3.2461">
        <ele>23.252501</ele>
        <time>2022-08-31T01:05:54.115Z</time>
      </trkpt>
      <trkpt lat="43.25028" lon="3.24678">
        <ele>23.814008</ele>
        <time>2022-08-31T01:06:12.691Z</time>
      </trkpt>
      <trkpt lat="43.2503" lon="3.24722">
        <ele>24.170145</ele>
        <time>2022-08-31T01:06:24.469Z</time>
      </trkpt>
      <trkpt lat="43.24979" lon="3.24762">
        <ele>24.631489</ele>
        <time>2022-08-31T01:06:37.673Z</time>
      </trkpt>
      <trkpt lat="43.24947" lon="3.24787">
        <ele>24.635563</ele>
        <time>2022-08-31T01:06:45.747Z</time>
      </trkpt>
      <trkpt lat="43.24944" lon="3.248">
        <ele>24.636617</ele>
        <time>2022-08-31T01:06:47.834Z</time>
      </trkpt>
      <trkpt lat="43.24981" lon="3.24811">
        <ele>24.64064</ele>
        <time>2022-08-31T01:06:55.331Z</time>
      </trkpt>
      <trkpt lat="43.25017" lon="3.24841">
        <ele>24.645196</ele>
        <time>2022-08-31T01:07:02.648Z</time>
      </trkpt>
      <trkpt lat="43.25187" lon="3.25102">
        <ele>24.031787</ele>
        <time>2022-08-31T01:07:48.301Z</time>
      </trkpt>
      <trkpt lat="43.25196" lon="3.25115">
        <ele>24.096663</ele>
        <time>2022-08-31T01:07:50.681Z</time>
      </trkpt>
      <trkpt lat="43.25213" lon="3.25144">
        <ele>24.234355</ele>
        <time>2022-08-31T01:07:57.367Z</time>
      </trkpt>
      <trkpt lat="43.25245" lon="3.25182">
        <ele>24.443825</ele>
        <time>2022-08-31T01:08:07.106Z</time>
      </trkpt>
      <trkpt lat="43.25253" lon="3.25211">
        <ele>24.557464</ele>
        <time>2022-08-31T01:08:13.224Z</time>
      </trkpt>
      <trkpt lat="43.2525" lon="3.25243">
        <ele>24.672629</ele>
        <time>2022-08-31T01:08:18.191Z</time>
      </trkpt>
      <trkpt lat="43.25256" lon="3.25271">
        <ele>24.775073</ele>
        <time>2022-08-31T01:08:23.716Z</time>
      </trkpt>
      <trkpt lat="43.25264" lon="3.25285">
        <ele>24.827072</ele>
        <time>2022-08-31T01:08:26.456Z</time>
      </trkpt>
      <trkpt lat="43.25293" lon="3.25304">
        <ele>24.962973</ele>
        <time>2022-08-31T01:08:34.456Z</time>
      </trkpt>
      <trkpt lat="43.25311" lon="3.25302">
        <ele>25.041172</ele>
        <time>2022-08-31T01:08:38.883Z</time>
      </trkpt>
      <trkpt lat="43.25327" lon="3.25292">
        <ele>25.116658</ele>
        <time>2022-08-31T01:08:42.337Z</time>
      </trkpt>
      <trkpt lat="43.2534" lon="3.2531">
        <ele>25.193472</ele>
        <time>2022-08-31T01:08:46.777Z</time>
      </trkpt>
      <trkpt lat="43.25325" lon="3.25328">
        <ele>25.278519</ele>
        <time>2022-08-31T01:08:51.691Z</time>
      </trkpt>
      <trkpt lat="43.25299" lon="3.25344">
        <ele>25.398475</ele>
        <time>2022-08-31T01:08:58.933Z</time>
      </trkpt>
      <trkpt lat="43.25269" lon="3.25375">
        <ele>25.441664</ele>
        <time>2022-08-31T01:09:08.377Z</time>
      </trkpt>
      <trkpt lat="43.2519" lon="3.2549">
        <ele>24.986885</ele>
        <time>2022-08-31T01:09:35.747Z</time>
      </trkpt>
      <trkpt lat="43.25288" lon="3.25572">
        <ele>24.91412</ele>
        <time>2022-08-31T01:10:11.365Z</time>
      </trkpt>
      <trkpt lat="43.25322" lon="3.25606">
        <ele>24.995567</ele>
        <time>2022-08-31T01:10:24.806Z</time>
      </trkpt>
      <trkpt lat="43.25379" lon="3.256">
        <ele>25.107372</ele>
        <time>2022-08-31T01:10:45.270Z</time>
      </trkpt>
      <trkpt lat="43.25455" lon="3.25628">
        <ele>25.13294</ele>
        <time>2022-08-31T01:11:12.625Z</time>
      </trkpt>
      <trkpt lat="43.25475" lon="3.25642">
        <ele>25.131351</ele>
        <time>2022-08-31T01:11:20.808Z</time>
      </trkpt>
      <trkpt lat="43.25482" lon="3.25692">
        <ele>25.128701</ele>
        <time>2022-08-31T01:11:32.972Z</time>
      </trkpt>
      <trkpt lat="43.25677" lon="3.25949">
        <ele>23.062104</ele>
        <time>2022-08-31T01:12:51.341Z</time>
      </trkpt>
      <trkpt lat="43.25982" lon="3.26065">
        <ele>21.830842</ele>
        <time>2022-08-31T01:14:28.670Z</time>
      </trkpt>
      <trkpt lat="43.26037" lon="3.26086">
        <ele>21.922336</ele>
        <time>2022-08-31T01:14:47.242Z</time>
      </trkpt>
      <trkpt lat="43.26048" lon="3.26085">
        <ele>21.950847</ele>
        <time>2022-08-31T01:14:50.958Z</time>
      </trkpt>
      <trkpt lat="43.26063" lon="3.26073">
        <ele>21.994051</ele>
        <time>2022-08-31T01:14:56.428Z</time>
      </trkpt>
      <trkpt lat="43.26079" lon="3.26037">
        <ele>22.072642</ele>
        <time>2022-08-31T01:15:06.757Z</time>
      </trkpt>
      <trkpt lat="43.26084" lon="3.26034">
        <ele>22.086963</ele>
        <time>2022-08-31T01:15:08.619Z</time>
      </trkpt>
      <trkpt lat="43.26094" lon="3.2604">
        <ele>22.114207</ele>
        <time>2022-08-31T01:15:12.436Z</time>
      </trkpt>
      <trkpt lat="43.26101" lon="3.26037">
        <ele>22.133761</ele>
        <time>2022-08-31T01:15:14.979Z</time>
      </trkpt>
      <trkpt lat="43.26114" lon="3.26045">
        <ele>22.169394</ele>
        <time>2022-08-31T01:15:19.591Z</time>
      </trkpt>
      <trkpt lat="43.2638" lon="3.26241">
        <ele>23.2297</ele>
        <time>2022-08-31T01:17:02.661Z</time>
      </trkpt>
      <trkpt lat="43.26421" lon="3.26271">
        <ele>23.299861</ele>
        <time>2022-08-31T01:17:12.094Z</time>
      </trkpt>
      <trkpt lat="43.26494" lon="3.26338">
        <ele>23.233926</ele>
        <time>2022-08-31T01:17:29.308Z</time>
      </trkpt>
      <trkpt lat="43.26563" lon="3.26392">
        <ele>22.969343</ele>
        <time>2022-08-31T01:17:44.354Z</time>
      </trkpt>
      <trkpt lat="43.26697" lon="3.26499">
        <ele>22.474873</ele>
        <time>2022-08-31T01:18:14.132Z</time>
      </trkpt>
      <trkpt lat="43.26758" lon="3.26545">
        <ele>22.262018</ele>
        <time>2022-08-31T01:18:27.706Z</time>
      </trkpt>
      <trkpt lat="43.2684" lon="3.26624">
        <ele>22.173611</ele>
        <time>2022-08-31T01:18:47.726Z</time>
      </trkpt>
      <trkpt lat="43.26881" lon="3.26671">
        <ele>22.148318</ele>
        <time>2022-08-31T01:18:58.645Z</time>
      </trkpt>
      <trkpt lat="43.26914" lon="3.26724">
        <ele>22.135713</ele>
        <time>2022-08-31T01:19:08.706Z</time>
      </trkpt>
      <trkpt lat="43.26915" lon="3.26725">
        <ele>22.136953</ele>
        <time>2022-08-31T01:19:09.056Z</time>
      </trkpt>
      <trkpt lat="43.26959" lon="3.26847">
        <ele>22.217425</ele>
        <time>2022-08-31T01:19:28.941Z</time>
      </trkpt>
      <trkpt lat="43.27001" lon="3.26906">
        <ele>22.265514</ele>
        <time>2022-08-31T01:19:41.665Z</time>
      </trkpt>
      <trkpt lat="43.27028" lon="3.26926">
        <ele>22.347933</ele>
        <time>2022-08-31T01:19:48.375Z</time>
      </trkpt>
      <trkpt lat="43.27036" lon="3.26935">
        <ele>22.385583</ele>
        <time>2022-08-31T01:19:50.596Z</time>
      </trkpt>
      <trkpt lat="43.27041" lon="3.2694">
        <ele>22.411132</ele>
        <time>2022-08-31T01:19:52.099Z</time>
      </trkpt>
      <trkpt lat="43.27076" lon="3.26974">
        <ele>22.567325</ele>
        <time>2022-08-31T01:20:01.694Z</time>
      </trkpt>
      <trkpt lat="43.27108" lon="3.27006">
        <ele>22.714884</ele>
        <time>2022-08-31T01:20:10.913Z</time>
      </trkpt>
      <trkpt lat="43.27125" lon="3.27032">
        <ele>22.806976</ele>
        <time>2022-08-31T01:20:16.689Z</time>
      </trkpt>
      <trkpt lat="43.27156" lon="3.27082">
        <ele>22.80354</ele>
        <time>2022-08-31T01:20:27.477Z</time>
      </trkpt>
      <trkpt lat="43.27198" lon="3.27132">
        <ele>22.235833</ele>
        <time>2022-08-31T01:20:38.397Z</time>
      </trkpt>
      <trkpt lat="43.27239" lon="3.27156">
        <ele>21.776727</ele>
        <time>2022-08-31T01:20:46.456Z</time>
      </trkpt>
      <trkpt lat="43.27259" lon="3.27167">
        <ele>21.549128</ele>
        <time>2022-08-31T01:20:50.193Z</time>
      </trkpt>
      <trkpt lat="43.27312" lon="3.27194">
        <ele>20.761735</ele>
        <time>2022-08-31T01:20:59.286Z</time>
      </trkpt>
      <trkpt lat="43.2732" lon="3.27198">
        <ele>20.528217</ele>
        <time>2022-08-31T01:21:00.583Z</time>
      </trkpt>
      <trkpt lat="43.27381" lon="3.27222">
        <ele>18.737262</ele>
        <time>2022-08-31T01:21:10.418Z</time>
      </trkpt>
      <trkpt lat="43.2743" lon="3.27237">
        <ele>17.333165</ele>
        <time>2022-08-31T01:21:18.063Z</time>
      </trkpt>
      <trkpt lat="43.2745" lon="3.27243">
        <ele>16.739037</ele>
        <time>2022-08-31T01:21:21.357Z</time>
      </trkpt>
      <trkpt lat="43.27462" lon="3.27246">
        <ele>16.406357</ele>
        <time>2022-08-31T01:21:23.161Z</time>
      </trkpt>
      <trkpt lat="43.27505" lon="3.27255">
        <ele>15.384653</ele>
        <time>2022-08-31T01:21:29.938Z</time>
      </trkpt>
      <trkpt lat="43.27529" lon="3.27259">
        <ele>14.867709</ele>
        <time>2022-08-31T01:21:33.754Z</time>
      </trkpt>
      <trkpt lat="43.27599" lon="3.27271">
        <ele>13.361979</ele>
        <time>2022-08-31T01:21:45.237Z</time>
      </trkpt>
      <trkpt lat="43.27631" lon="3.27279">
        <ele>12.661253</ele>
        <time>2022-08-31T01:21:50.833Z</time>
      </trkpt>
      <trkpt lat="43.27691" lon="3.27307">
        <ele>11.503343</ele>
        <time>2022-08-31T01:22:01.694Z</time>
      </trkpt>
      <trkpt lat="43.27698" lon="3.27311">
        <ele>11.377745</ele>
        <time>2022-08-31T01:22:03.012Z</time>
      </trkpt>
      <trkpt lat="43.27696" lon="3.27317">
        <ele>11.297789</ele>
        <time>2022-08-31T01:22:03.864Z</time>
      </trkpt>
      <trkpt lat="43.27771" lon="3.27351">
        <ele>9.99534</ele>
        <time>2022-08-31T01:22:16.515Z</time>
      </trkpt>
      <trkpt lat="43.2782" lon="3.27355">
        <ele>9.18189</ele>
        <time>2022-08-31T01:22:24.239Z</time>
      </trkpt>
      <trkpt lat="43.27836" lon="3.27366">
        <ele>8.902705</ele>
        <time>2022-08-31T01:22:27.068Z</time>
      </trkpt>
      <trkpt lat="43.27844" lon="3.27373">
        <ele>8.753024</ele>
        <time>2022-08-31T01:22:28.589Z</time>
      </trkpt>
      <trkpt lat="43.27865" lon="3.27427">
        <ele>8.066266</ele>
        <time>2022-08-31T01:22:35.484Z</time>
      </trkpt>
      <trkpt lat="43.27885" lon="3.27473">
        <ele>7.462836</ele>
        <time>2022-08-31T01:22:41.655Z</time>
      </trkpt>
      <trkpt lat="43.27952" lon="3.27591">
        <ele>6.437723</ele>
        <time>2022-08-31T01:22:59.668Z</time>
      </trkpt>
      <trkpt lat="43.28002" lon="3.2768">
        <ele>6.471012</ele>
        <time>2022-08-31T01:23:15.188Z</time>
      </trkpt>
      <trkpt lat="43.28002" lon="3.27695">
        <ele>6.475512</ele>
        <time>2022-08-31T01:23:17.826Z</time>
      </trkpt>
      <trkpt lat="43.28007" lon="3.27698">
        <ele>6.477844</ele>
        <time>2022-08-31T01:23:19.441Z</time>
      </trkpt>
      <trkpt lat="43.2802" lon="3.27709">
        <ele>6.484094</ele>
        <time>2022-08-31T01:23:23.055Z</time>
      </trkpt>
      <trkpt lat="43.28022" lon="3.27713">
        <ele>6.485571</ele>
        <time>2022-08-31T01:23:23.992Z</time>
      </trkpt>
      <trkpt lat="43.28024" lon="3.27719">
        <ele>6.487388</ele>
        <time>2022-08-31T01:23:25.189Z</time>
      </trkpt>
      <trkpt lat="43.28019" lon="3.27714">
        <ele>6.489783</ele>
        <time>2022-08-31T01:23:27.681Z</time>
      </trkpt>
      <trkpt lat="43.28063" lon="3.2781">
        <ele>7.400613</ele>
        <time>2022-08-31T01:24:02.829Z</time>
      </trkpt>
      <trkpt lat="43.28106" lon="3.27906">
        <ele>8.446778</ele>
        <time>2022-08-31T01:24:37.976Z</time>
      </trkpt>
      <trkpt lat="43.28149" lon="3.28002">
        <ele>8.877485</ele>
        <time>2022-08-31T01:25:13.122Z</time>
      </trkpt>
      <trkpt lat="43.28153" lon="3.28017">
        <ele>8.896539</ele>
        <time>2022-08-31T01:25:18.086Z</time>
      </trkpt>
      <trkpt lat="43.2822" lon="3.28082">
        <ele>9.031603</ele>
        <time>2022-08-31T01:25:53.270Z</time>
      </trkpt>
      <trkpt lat="43.28218" lon="3.28085">
        <ele>9.036526</ele>
        <time>2022-08-31T01:25:54.545Z</time>
      </trkpt>
      <trkpt lat="43.28216" lon="3.2809">
        <ele>9.043425</ele>
        <time>2022-08-31T01:25:57.446Z</time>
      </trkpt>
      <trkpt lat="43.28247" lon="3.28121">
        <ele>8.856661</ele>
        <time>2022-08-31T01:26:03.900Z</time>
      </trkpt>
      <trkpt lat="43.28254" lon="3.28129">
        <ele>8.731095</ele>
        <time>2022-08-31T01:26:05.344Z</time>
      </trkpt>
      <trkpt lat="43.28289" lon="3.28169">
        <ele>8.073215</ele>
        <time>2022-08-31T01:26:12.604Z</time>
      </trkpt>
      <trkpt lat="43.28292" lon="3.28171">
        <ele>8.018858</ele>
        <time>2022-08-31T01:26:13.196Z</time>
      </trkpt>
      <trkpt lat="43.28296" lon="3.28171">
        <ele>7.968189</ele>
        <time>2022-08-31T01:26:13.740Z</time>
      </trkpt>
      <trkpt lat="43.28301" lon="3.28177">
        <ele>7.871681</ele>
        <time>2022-08-31T01:26:14.767Z</time>
      </trkpt>
      <trkpt lat="43.28325" lon="3.28206">
        <ele>7.40605</ele>
        <time>2022-08-31T01:26:19.892Z</time>
      </trkpt>
      <trkpt lat="43.28331" lon="3.28213">
        <ele>7.290327</ele>
        <time>2022-08-31T01:26:21.137Z</time>
      </trkpt>
      <trkpt lat="43.28411" lon="3.28305">
        <ele>6.078634</ele>
        <time>2022-08-31T01:26:37.875Z</time>
      </trkpt>
      <trkpt lat="43.28469" lon="3.28254">
        <ele>5.501956</ele>
        <time>2022-08-31T01:26:50.533Z</time>
      </trkpt>
      <trkpt lat="43.28493" lon="3.28333">
        <ele>4.976574</ele>
        <time>2022-08-31T01:27:17.408Z</time>
      </trkpt>
      <trkpt lat="43.28517" lon="3.28413">
        <ele>4.839354</ele>
        <time>2022-08-31T01:27:44.282Z</time>
      </trkpt>
      <trkpt lat="43.28552" lon="3.28514">
        <ele>4.665078</ele>
        <time>2022-08-31T01:27:59.250Z</time>
      </trkpt>
      <trkpt lat="43.28618" lon="3.28677">
        <ele>4.54411</ele>
        <time>2022-08-31T01:28:24.964Z</time>
      </trkpt>
      <trkpt lat="43.28622" lon="3.2869">
        <ele>4.53963</ele>
        <time>2022-08-31T01:28:27.094Z</time>
      </trkpt>
      <trkpt lat="43.28645" lon="3.28779">
        <ele>4.510008</ele>
        <time>2022-08-31T01:28:40.645Z</time>
      </trkpt>
      <trkpt lat="43.28706" lon="3.28971">
        <ele>4.059491</ele>
        <time>2022-08-31T01:29:08.686Z</time>
      </trkpt>
      <trkpt lat="43.28706" lon="3.29067">
        <ele>3.854183</ele>
        <time>2022-08-31T01:29:20.905Z</time>
      </trkpt>
      <trkpt lat="43.28701" lon="3.29111">
        <ele>3.758811</ele>
        <time>2022-08-31T01:29:26.727Z</time>
      </trkpt>
      <trkpt lat="43.28695" lon="3.29206">
        <ele>3.553364</ele>
        <time>2022-08-31T01:29:39.581Z</time>
      </trkpt>
      <trkpt lat="43.28698" lon="3.29466">
        <ele>3.544322</ele>
        <time>2022-08-31T01:30:16.209Z</time>
      </trkpt>
      <trkpt lat="43.2871" lon="3.2962">
        <ele>3.768181</ele>
        <time>2022-08-31T01:30:39.160Z</time>
      </trkpt>
      <trkpt lat="43.28731" lon="3.29778">
        <ele>3.999383</ele>
        <time>2022-08-31T01:31:03.267Z</time>
      </trkpt>
      <trkpt lat="43.2874" lon="3.29892">
        <ele>4.017872</ele>
        <time>2022-08-31T01:31:19.918Z</time>
      </trkpt>
      <trkpt lat="43.28728" lon="3.29989">
        <ele>4.033878</ele>
        <time>2022-08-31T01:31:42.576Z</time>
      </trkpt>
      <trkpt lat="43.28709" lon="3.30229">
        <ele>3.448403</ele>
        <time>2022-08-31T01:32:36.546Z</time>
      </trkpt>
      <trkpt lat="43.28699" lon="3.3044">
        <ele>3.131614</ele>
        <time>2022-08-31T01:33:24.420Z</time>
      </trkpt>
      <trkpt lat="43.28687" lon="3.30545">
        <ele>3.024476</ele>
        <time>2022-08-31T01:33:48.665Z</time>
      </trkpt>
      <trkpt lat="43.28658" lon="3.30715">
        <ele>2.903603</ele>
        <time>2022-08-31T01:34:28.938Z</time>
      </trkpt>
      <trkpt lat="43.28637" lon="3.30911">
        <ele>2.78236</ele>
        <time>2022-08-31T01:35:14.028Z</time>
      </trkpt>
      <trkpt lat="43.28632" lon="3.31144">
        <ele>2.55338</ele>
        <time>2022-08-31T01:36:07.533Z</time>
      </trkpt>
      <trkpt lat="43.28618" lon="3.31257">
        <ele>2.410579</ele>
        <time>2022-08-31T01:36:33.541Z</time>
      </trkpt>
      <trkpt lat="43.28768" lon="3.31315">
        <ele>2.091946</ele>
        <time>2022-08-31T01:37:02.571Z</time>
      </trkpt>
      <trkpt lat="43.28892" lon="3.31344">
        <ele>1.872114</ele>
        <time>2022-08-31T01:37:25.768Z</time>
      </trkpt>
      <trkpt lat="43.28898" lon="3.31332">
        <ele>1.854593</ele>
        <time>2022-08-31T01:37:28.875Z</time>
      </trkpt>
      <trkpt lat="43.2917" lon="3.32032">
        <ele>1.548975</ele>
        <time>2022-08-31T01:40:31.658Z</time>
      </trkpt>
      <trkpt lat="43.29307" lon="3.32401">
        <ele>1.754469</ele>
        <time>2022-08-31T01:42:09.908Z</time>
      </trkpt>
      <trkpt lat="43.29318" lon="3.3243">
        <ele>1.746203</ele>
        <time>2022-08-31T01:42:17.129Z</time>
      </trkpt>
      <trkpt lat="43.2938" lon="3.32704">
        <ele>1.005843</ele>
        <time>2022-08-31T01:43:20.977Z</time>
      </trkpt>
      <trkpt lat="43.29394" lon="3.32763">
        <ele>0.891952</ele>
        <time>2022-08-31T01:43:29.558Z</time>
      </trkpt>
      <trkpt lat="43.29419" lon="3.32772">
        <ele>0.834241</ele>
        <time>2022-08-31T01:43:37.262Z</time>
      </trkpt>
      <trkpt lat="43.29434" lon="3.32759">
        <ele>0.793685</ele>
        <time>2022-08-31T01:43:42.744Z</time>
      </trkpt>
      <trkpt lat="43.29438" lon="3.32761">
        <ele>0.783871</ele>
        <time>2022-08-31T01:43:44.038Z</time>
      </trkpt>
      <trkpt lat="43.29451" lon="3.32773">
        <ele>0.747074</ele>
        <time>2022-08-31T01:43:48.972Z</time>
      </trkpt>
      <trkpt lat="43.29463" lon="3.32782">
        <ele>0.715995</ele>
        <time>2022-08-31T01:43:53.097Z</time>
      </trkpt>
      <trkpt lat="43.29459" lon="3.32798">
        <ele>0.687345</ele>
        <time>2022-08-31T01:43:57.017Z</time>
      </trkpt>
      <trkpt lat="43.29379" lon="3.32916">
        <ele>0.703485</ele>
        <time>2022-08-31T01:44:34.650Z</time>
      </trkpt>
      <trkpt lat="43.29375" lon="3.32922">
        <ele>0.715925</ele>
        <time>2022-08-31T01:44:36.564Z</time>
      </trkpt>
      <trkpt lat="43.29372" lon="3.32927">
        <ele>0.724796</ele>
        <time>2022-08-31T01:44:37.908Z</time>
      </trkpt>
      <trkpt lat="43.29293" lon="3.33045">
        <ele>0.972365</ele>
        <time>2022-08-31T01:45:16.933Z</time>
      </trkpt>
      <trkpt lat="43.29186" lon="3.33137">
        <ele>1.306415</ele>
        <time>2022-08-31T01:45:58.740Z</time>
      </trkpt>
      <trkpt lat="43.29109" lon="3.33192">
        <ele>1.521434</ele>
        <time>2022-08-31T01:46:27.520Z</time>
      </trkpt>
      <trkpt lat="43.29105" lon="3.33195">
        <ele>1.531621</ele>
        <time>2022-08-31T01:46:28.941Z</time>
      </trkpt>
      <trkpt lat="43.29063" lon="3.33221">
        <ele>1.641134</ele>
        <time>2022-08-31T01:46:44.546Z</time>
      </trkpt>
      <trkpt lat="43.28991" lon="3.33251">
        <ele>1.81757</ele>
        <time>2022-08-31T01:47:09.528Z</time>
      </trkpt>
      <trkpt lat="43.28468" lon="3.33405">
        <ele>1.541617</ele>
        <time>2022-08-31T01:49:58.438Z</time>
      </trkpt>
      <trkpt lat="43.28436" lon="3.33421">
        <ele>1.483353</ele>
        <time>2022-08-31T01:50:09.120Z</time>
      </trkpt>
      <trkpt lat="43.28401" lon="3.33443">
        <ele>1.401943</ele>
        <time>2022-08-31T01:50:21.053Z</time>
      </trkpt>
      <trkpt lat="43.28315" lon="3.33525">
        <ele>1.180174</ele>
        <time>2022-08-31T01:50:53.367Z</time>
      </trkpt>
      <trkpt lat="43.28197" lon="3.33651">
        <ele>0.874938</ele>
        <time>2022-08-31T01:51:39.908Z</time>
      </trkpt>
      <trkpt lat="43.28085" lon="3.33811">
        <ele>0.797845</ele>
        <time>2022-08-31T01:52:31.069Z</time>
      </trkpt>
      <trkpt lat="43.28077" lon="3.33822">
        <ele>0.799187</ele>
        <time>2022-08-31T01:52:34.596Z</time>
      </trkpt>
      <trkpt lat="43.28046" lon="3.33865">
        <ele>0.80454</ele>
        <time>2022-08-31T01:52:48.890Z</time>
      </trkpt>
      <trkpt lat="43.28083" lon="3.33933">
        <ele>0.809488</ele>
        <time>2022-08-31T01:53:08.931Z</time>
      </trkpt>
      <trkpt lat="43.28104" lon="3.33984">
        <ele>0.812559</ele>
        <time>2022-08-31T01:53:22.365Z</time>
      </trkpt>
      <trkpt lat="43.28126" lon="3.34044">
        <ele>0.816131</ele>
        <time>2022-08-31T01:53:37.934Z</time>
      </trkpt>
      <trkpt lat="43.28128" lon="3.34078">
        <ele>0.817936</ele>
        <time>2022-08-31T01:53:45.716Z</time>
      </trkpt>
      <trkpt lat="43.28152" lon="3.34142">
        <ele>0.749849</ele>
        <time>2022-08-31T01:54:02.209Z</time>
      </trkpt>
      <trkpt lat="43.28168" lon="3.34176">
        <ele>0.701789</ele>
        <time>2022-08-31T01:54:11.477Z</time>
      </trkpt>
      <trkpt lat="43.28177" lon="3.34176">
        <ele>0.687663</ele>
        <time>2022-08-31T01:54:14.196Z</time>
      </trkpt>
      <trkpt lat="43.28214" lon="3.3428">
        <ele>0.550957</ele>
        <time>2022-08-31T01:54:40.504Z</time>
      </trkpt>
      <trkpt lat="43.28178" lon="3.34682">
        <ele>0.456339</ele>
        <time>2022-08-31T01:56:13.877Z</time>
      </trkpt>
      <trkpt lat="43.28172" lon="3.34694">
        <ele>0.45874</ele>
        <time>2022-08-31T01:56:17.296Z</time>
      </trkpt>
      <trkpt lat="43.28146" lon="3.3471">
        <ele>0.465038</ele>
        <time>2022-08-31T01:56:26.242Z</time>
      </trkpt>
      <trkpt lat="43.28139" lon="3.34722">
        <ele>0.467555</ele>
        <time>2022-08-31T01:56:29.814Z</time>
      </trkpt>
      <trkpt lat="43.28116" lon="3.34734">
        <ele>0.472999</ele>
        <time>2022-08-31T01:56:37.563Z</time>
      </trkpt>
      <trkpt lat="43.28102" lon="3.34734">
        <ele>0.489626</ele>
        <time>2022-08-31T01:56:42.076Z</time>
      </trkpt>
      <trkpt lat="43.28097" lon="3.34735">
        <ele>0.499076</ele>
        <time>2022-08-31T01:56:43.785Z</time>
      </trkpt>
      <trkpt lat="43.28093" lon="3.34738">
        <ele>0.507947</ele>
        <time>2022-08-31T01:56:45.400Z</time>
      </trkpt>
      <trkpt lat="43.27936" lon="3.34822">
        <ele>0.81096</ele>
        <time>2022-08-31T01:57:40.140Z</time>
      </trkpt>
      <trkpt lat="43.27914" lon="3.3486">
        <ele>0.906923</ele>
        <time>2022-08-31T01:57:52.068Z</time>
      </trkpt>
      <trkpt lat="43.27935" lon="3.34881">
        <ele>0.976557</ele>
        <time>2022-08-31T01:58:00.773Z</time>
      </trkpt>
      <trkpt lat="43.2803" lon="3.34941">
        <ele>1.254047</ele>
        <time>2022-08-31T01:58:35.523Z</time>
      </trkpt>
      <trkpt lat="43.28055" lon="3.34978">
        <ele>1.413098</ele>
        <time>2022-08-31T01:58:47.880Z</time>
      </trkpt>
      <trkpt lat="43.28102" lon="3.35058">
        <ele>1.768064</ele>
        <time>2022-08-31T01:59:13.229Z</time>
      </trkpt>
      <trkpt lat="43.28091" lon="3.3513">
        <ele>2.020119</ele>
        <time>2022-08-31T01:59:31.533Z</time>
      </trkpt>
      <trkpt lat="43.28088" lon="3.35145">
        <ele>2.074897</ele>
        <time>2022-08-31T01:59:35.518Z</time>
      </trkpt>
      <trkpt lat="43.28093" lon="3.35163">
        <ele>2.151605</ele>
        <time>2022-08-31T01:59:40.490Z</time>
      </trkpt>
      <trkpt lat="43.28206" lon="3.35281">
        <ele>3.078871</ele>
        <time>2022-08-31T02:00:30.477Z</time>
      </trkpt>
      <trkpt lat="43.28211" lon="3.35298">
        <ele>3.164925</ele>
        <time>2022-08-31T02:00:35.097Z</time>
      </trkpt>
      <trkpt lat="43.28238" lon="3.35582">
        <ele>4.345008</ele>
        <time>2022-08-31T02:01:47.328Z</time>
      </trkpt>
      <trkpt lat="43.28244" lon="3.35588">
        <ele>4.376974</ele>
        <time>2022-08-31T02:01:49.696Z</time>
      </trkpt>
      <trkpt lat="43.28242" lon="3.35592">
        <ele>4.391716</ele>
        <time>2022-08-31T02:01:51.224Z</time>
      </trkpt>
      <trkpt lat="43.28291" lon="3.35586">
        <ele>4.590959</ele>
        <time>2022-08-31T02:02:11.992Z</time>
      </trkpt>
      <trkpt lat="43.28339" lon="3.35581">
        <ele>4.790201</ele>
        <time>2022-08-31T02:02:32.760Z</time>
      </trkpt>
      <trkpt lat="43.28345" lon="3.35654">
        <ele>5.009114</ele>
        <time>2022-08-31T02:02:55.594Z</time>
      </trkpt>
      <trkpt lat="43.2835" lon="3.35727">
        <ele>5.30688</ele>
        <time>2022-08-31T02:03:18.426Z</time>
      </trkpt>
      <trkpt lat="43.2835" lon="3.35723">
        <ele>5.324574</ele>
        <time>2022-08-31T02:03:19.714Z</time>
      </trkpt>
      <trkpt lat="43.28483" lon="3.35702">
        <ele>6.103755</ele>
        <time>2022-08-31T02:04:07.934Z</time>
      </trkpt>
      <trkpt lat="43.28583" lon="3.36035">
        <ele>4.219344</ele>
        <time>2022-08-31T02:04:55.721Z</time>
      </trkpt>
      <trkpt lat="43.28585" lon="3.36048">
        <ele>4.123012</ele>
        <time>2022-08-31T02:04:57.443Z</time>
      </trkpt>
      <trkpt lat="43.28615" lon="3.36225">
        <ele>3.028124</ele>
        <time>2022-08-31T02:05:21.203Z</time>
      </trkpt>
      <trkpt lat="43.28617" lon="3.36267">
        <ele>2.834145</ele>
        <time>2022-08-31T02:05:26.763Z</time>
      </trkpt>
      <trkpt lat="43.28618" lon="3.36283">
        <ele>2.759376</ele>
        <time>2022-08-31T02:05:29.599Z</time>
      </trkpt>
      <trkpt lat="43.28631" lon="3.36307">
        <ele>2.621338</ele>
        <time>2022-08-31T02:05:34.801Z</time>
      </trkpt>
      <trkpt lat="43.28643" lon="3.36324">
        <ele>2.515005</ele>
        <time>2022-08-31T02:05:38.831Z</time>
      </trkpt>
      <trkpt lat="43.28681" lon="3.36511">
        <ele>1.97539</ele>
        <time>2022-08-31T02:06:22.165Z</time>
      </trkpt>
      <trkpt lat="43.28697" lon="3.36633">
        <ele>1.765792</ele>
        <time>2022-08-31T02:06:50.510Z</time>
      </trkpt>
      <trkpt lat="43.28696" lon="3.36728">
        <ele>2.004213</ele>
        <time>2022-08-31T02:07:12.829Z</time>
      </trkpt>
      <trkpt lat="43.28683" lon="3.36863">
        <ele>2.35717</ele>
        <time>2022-08-31T02:07:47.030Z</time>
      </trkpt>
      <trkpt lat="43.28683" lon="3.36875">
        <ele>2.38894</ele>
        <time>2022-08-31T02:07:50.163Z</time>
      </trkpt>
      <trkpt lat="43.28683" lon="3.36884">
        <ele>2.410143</ele>
        <time>2022-08-31T02:07:52.495Z</time>
      </trkpt>
      <trkpt lat="43.2868" lon="3.3693">
        <ele>2.490271</ele>
        <time>2022-08-31T02:08:04.165Z</time>
      </trkpt>
      <trkpt lat="43.28679" lon="3.36938">
        <ele>2.505419</ele>
        <time>2022-08-31T02:08:06.331Z</time>
      </trkpt>
      <trkpt lat="43.28678" lon="3.36963">
        <ele>2.548264</ele>
        <time>2022-08-31T02:08:12.492Z</time>
      </trkpt>
      <trkpt lat="43.28682" lon="3.36979">
        <ele>2.57952</ele>
        <time>2022-08-31T02:08:16.828Z</time>
      </trkpt>
      <trkpt lat="43.28733" lon="3.37015">
        <ele>2.716552</ele>
        <time>2022-08-31T02:08:35.635Z</time>
      </trkpt>
      <trkpt lat="43.28756" lon="3.37039">
        <ele>2.785468</ele>
        <time>2022-08-31T02:08:44.821Z</time>
      </trkpt>
      <trkpt lat="43.28781" lon="3.36939">
        <ele>2.511465</ele>
        <time>2022-08-31T02:08:58.762Z</time>
      </trkpt>
      <trkpt lat="43.28914" lon="3.36983">
        <ele>1.727359</ele>
        <time>2022-08-31T02:09:22.400Z</time>
      </trkpt>
      <trkpt lat="43.28959" lon="3.37003">
        <ele>1.546281</ele>
        <time>2022-08-31T02:09:30.709Z</time>
      </trkpt>
      <trkpt lat="43.28984" lon="3.37031">
        <ele>1.424266</ele>
        <time>2022-08-31T02:09:36.291Z</time>
      </trkpt>
      <trkpt lat="43.29028" lon="3.37118">
        <ele>1.130233</ele>
        <time>2022-08-31T02:09:50.579Z</time>
      </trkpt>
      <trkpt lat="43.29065" lon="3.37189">
        <ele>1.36235</ele>
        <time>2022-08-31T02:10:04.301Z</time>
      </trkpt>
      <trkpt lat="43.29115" lon="3.37173">
        <ele>1.639184</ele>
        <time>2022-08-31T02:10:18.796Z</time>
      </trkpt>
      <trkpt lat="43.29147" lon="3.37164">
        <ele>1.810883</ele>
        <time>2022-08-31T02:10:28.091Z</time>
      </trkpt>
      <trkpt lat="43.29172" lon="3.37157">
        <ele>1.951489</ele>
        <time>2022-08-31T02:10:35.629Z</time>
      </trkpt>
      <trkpt lat="43.29185" lon="3.37154">
        <ele>2.023265</ele>
        <time>2022-08-31T02:10:39.587Z</time>
      </trkpt>
      <trkpt lat="43.29194" lon="3.37151">
        <ele>2.06797</ele>
        <time>2022-08-31T02:10:42.351Z</time>
      </trkpt>
      <trkpt lat="43.29211" lon="3.37147">
        <ele>2.132298</ele>
        <time>2022-08-31T02:10:47.165Z</time>
      </trkpt>
      <trkpt lat="43.29254" lon="3.37135">
        <ele>2.307413</ele>
        <time>2022-08-31T02:11:00.461Z</time>
      </trkpt>
      <trkpt lat="43.29263" lon="3.37191">
        <ele>2.471078</ele>
        <time>2022-08-31T02:11:12.558Z</time>
      </trkpt>
      <trkpt lat="43.29474" lon="3.38738">
        <ele>0.958314</ele>
        <time>2022-08-31T02:17:10.405Z</time>
      </trkpt>
      <trkpt lat="43.29523" lon="3.38974">
        <ele>1.727107</ele>
        <time>2022-08-31T02:18:11.270Z</time>
      </trkpt>
      <trkpt lat="43.29602" lon="3.39235">
        <ele>3.272308</ele>
        <time>2022-08-31T02:19:25.921Z</time>
      </trkpt>
      <trkpt lat="43.29653" lon="3.39371">
        <ele>3.464522</ele>
        <time>2022-08-31T02:20:02.905Z</time>
      </trkpt>
      <trkpt lat="43.29884" lon="3.39885">
        <ele>2.246565</ele>
        <time>2022-08-31T02:22:17.186Z</time>
      </trkpt>
      <trkpt lat="43.29977" lon="3.40104">
        <ele>3.149509</ele>
        <time>2022-08-31T02:23:21.313Z</time>
      </trkpt>
      <trkpt lat="43.30052" lon="3.40311">
        <ele>4.523592</ele>
        <time>2022-08-31T02:24:23.803Z</time>
      </trkpt>
      <trkpt lat="43.30067" lon="3.40358">
        <ele>4.592066</ele>
        <time>2022-08-31T02:24:34.316Z</time>
      </trkpt>
      <trkpt lat="43.30079" lon="3.40369">
        <ele>4.617578</ele>
        <time>2022-08-31T02:24:37.931Z</time>
      </trkpt>
      <trkpt lat="43.30086" lon="3.40403">
        <ele>4.664585</ele>
        <time>2022-08-31T02:24:44.719Z</time>
      </trkpt>
      <trkpt lat="43.30098" lon="3.40399">
        <ele>4.686808</ele>
        <time>2022-08-31T02:24:48.494Z</time>
      </trkpt>
      <trkpt lat="43.30105" lon="3.40438">
        <ele>4.741476</ele>
        <time>2022-08-31T02:24:57.964Z</time>
      </trkpt>
      <trkpt lat="43.30108" lon="3.40439">
        <ele>4.746304</ele>
        <time>2022-08-31T02:24:58.744Z</time>
      </trkpt>
      <trkpt lat="43.30114" lon="3.40471">
        <ele>4.791041</ele>
        <time>2022-08-31T02:25:04.732Z</time>
      </trkpt>
      <trkpt lat="43.30125" lon="3.40478">
        <ele>4.811603</ele>
        <time>2022-08-31T02:25:07.489Z</time>
      </trkpt>
      <trkpt lat="43.30131" lon="3.40534">
        <ele>4.574395</ele>
        <time>2022-08-31T02:25:19.809Z</time>
      </trkpt>
      <trkpt lat="43.30142" lon="3.40542">
        <ele>4.504773</ele>
        <time>2022-08-31T02:25:23.436Z</time>
      </trkpt>
      <trkpt lat="43.30152" lon="3.40599">
        <ele>4.256101</ele>
        <time>2022-08-31T02:25:36.260Z</time>
      </trkpt>
      <trkpt lat="43.30163" lon="3.40697">
        <ele>3.83709</ele>
        <time>2022-08-31T02:25:57.714Z</time>
      </trkpt>
      <trkpt lat="43.30206" lon="3.41408">
        <ele>2.536028</ele>
        <time>2022-08-31T02:28:38.911Z</time>
      </trkpt>
      <trkpt lat="43.30234" lon="3.41774">
        <ele>2.842249</ele>
        <time>2022-08-31T02:30:06.109Z</time>
      </trkpt>
      <trkpt lat="43.30229" lon="3.41787">
        <ele>2.865425</ele>
        <time>2022-08-31T02:30:08.400Z</time>
      </trkpt>
      <trkpt lat="43.30237" lon="3.41822">
        <ele>2.924078</ele>
        <time>2022-08-31T02:30:14.074Z</time>
      </trkpt>
      <trkpt lat="43.30243" lon="3.41855">
        <ele>2.979329</ele>
        <time>2022-08-31T02:30:20.635Z</time>
      </trkpt>
      <trkpt lat="43.3025" lon="3.41894">
        <ele>3.044277</ele>
        <time>2022-08-31T02:30:27.015Z</time>
      </trkpt>
      <trkpt lat="43.30242" lon="3.41895">
        <ele>3.061522</ele>
        <time>2022-08-31T02:30:28.581Z</time>
      </trkpt>
      <trkpt lat="43.30217" lon="3.41899">
        <ele>3.117892</ele>
        <time>2022-08-31T02:30:34.104Z</time>
      </trkpt>
      <trkpt lat="43.30205" lon="3.419">
        <ele>3.141031</ele>
        <time>2022-08-31T02:30:36.589Z</time>
      </trkpt>
      <trkpt lat="43.30201" lon="3.4191">
        <ele>3.156151</ele>
        <time>2022-08-31T02:30:38.375Z</time>
      </trkpt>
      <trkpt lat="43.30198" lon="3.4193">
        <ele>3.18483</ele>
        <time>2022-08-31T02:30:41.635Z</time>
      </trkpt>
      <trkpt lat="43.30209" lon="3.41949">
        <ele>3.217709</ele>
        <time>2022-08-31T02:30:45.499Z</time>
      </trkpt>
      <trkpt lat="43.30221" lon="3.42004">
        <ele>3.295906</ele>
        <time>2022-08-31T02:30:54.837Z</time>
      </trkpt>
      <trkpt lat="43.30229" lon="3.4211">
        <ele>3.441776</ele>
        <time>2022-08-31T02:31:12.211Z</time>
      </trkpt>
      <trkpt lat="43.30286" lon="3.4292">
        <ele>3.482889</ele>
        <time>2022-08-31T02:33:19.273Z</time>
      </trkpt>
      <trkpt lat="43.30281" lon="3.42933">
        <ele>3.461001</ele>
        <time>2022-08-31T02:33:21.599Z</time>
      </trkpt>
      <trkpt lat="43.30269" lon="3.42922">
        <ele>3.432155</ele>
        <time>2022-08-31T02:33:24.360Z</time>
      </trkpt>
      <trkpt lat="43.30265" lon="3.42946">
        <ele>3.395244</ele>
        <time>2022-08-31T02:33:27.916Z</time>
      </trkpt>
      <trkpt lat="43.30265" lon="3.42951">
        <ele>3.386911</ele>
        <time>2022-08-31T02:33:28.770Z</time>
      </trkpt>
      <trkpt lat="43.30268" lon="3.43002">
        <ele>3.310329</ele>
        <time>2022-08-31T02:33:35.938Z</time>
      </trkpt>
      <trkpt lat="43.30268" lon="3.43007">
        <ele>3.301866</ele>
        <time>2022-08-31T02:33:36.699Z</time>
      </trkpt>
      <trkpt lat="43.30271" lon="3.43036">
        <ele>3.258347</ele>
        <time>2022-08-31T02:33:40.716Z</time>
      </trkpt>
      <trkpt lat="43.30273" lon="3.43061">
        <ele>3.220727</ele>
        <time>2022-08-31T02:33:44.242Z</time>
      </trkpt>
      <trkpt lat="43.30285" lon="3.43067">
        <ele>3.193193</ele>
        <time>2022-08-31T02:33:46.752Z</time>
      </trkpt>
      <trkpt lat="43.3029" lon="3.43129">
        <ele>3.093378</ele>
        <time>2022-08-31T02:33:55.428Z</time>
      </trkpt>
      <trkpt lat="43.30303" lon="3.43292">
        <ele>2.830684</ele>
        <time>2022-08-31T02:34:17.612Z</time>
      </trkpt>
      <trkpt lat="43.30305" lon="3.43305">
        <ele>2.808297</ele>
        <time>2022-08-31T02:34:19.482Z</time>
      </trkpt>
      <trkpt lat="43.30325" lon="3.43407">
        <ele>2.870218</ele>
        <time>2022-08-31T02:34:43.931Z</time>
      </trkpt>
      <trkpt lat="43.30348" lon="3.43475">
        <ele>2.916944</ele>
        <time>2022-08-31T02:35:01.788Z</time>
      </trkpt>
      <trkpt lat="43.3037" lon="3.43515">
        <ele>2.948321</ele>
        <time>2022-08-31T02:35:13.640Z</time>
      </trkpt>
      <trkpt lat="43.30433" lon="3.43593">
        <ele>3.089039</ele>
        <time>2022-08-31T02:35:41.467Z</time>
      </trkpt>
      <trkpt lat="43.30442" lon="3.43613">
        <ele>3.119861</ele>
        <time>2022-08-31T02:35:47.012Z</time>
      </trkpt>
      <trkpt lat="43.30451" lon="3.43631">
        <ele>3.14913</ele>
        <time>2022-08-31T02:35:52.342Z</time>
      </trkpt>
      <trkpt lat="43.30537" lon="3.43687">
        <ele>3.316919</ele>
        <time>2022-08-31T02:36:23.145Z</time>
      </trkpt>
      <trkpt lat="43.30757" lon="3.43786">
        <ele>3.590508</ele>
        <time>2022-08-31T02:37:38.477Z</time>
      </trkpt>
      <trkpt lat="43.3082" lon="3.43818">
        <ele>3.604484</ele>
        <time>2022-08-31T02:37:59.767Z</time>
      </trkpt>
      <trkpt lat="43.3098" lon="3.43885">
        <ele>3.402513</ele>
        <time>2022-08-31T02:38:51.974Z</time>
      </trkpt>
      <trkpt lat="43.31095" lon="3.43934">
        <ele>3.207344</ele>
        <time>2022-08-31T02:39:29.622Z</time>
      </trkpt>
      <trkpt lat="43.31188" lon="3.43979">
        <ele>3.050806</ele>
        <time>2022-08-31T02:40:00.956Z</time>
      </trkpt>
      <trkpt lat="43.31281" lon="3.44043">
        <ele>3.024966</ele>
        <time>2022-08-31T02:40:33.051Z</time>
      </trkpt>
      <trkpt lat="43.31351" lon="3.44068">
        <ele>3.02264</ele>
        <time>2022-08-31T02:40:56.653Z</time>
      </trkpt>
      <trkpt lat="43.31375" lon="3.44071">
        <ele>3.054913</ele>
        <time>2022-08-31T02:41:04.907Z</time>
      </trkpt>
      <trkpt lat="43.31397" lon="3.44073">
        <ele>3.175926</ele>
        <time>2022-08-31T02:41:12.216Z</time>
      </trkpt>
      <trkpt lat="43.31412" lon="3.44084">
        <ele>3.27135</ele>
        <time>2022-08-31T02:41:18.119Z</time>
      </trkpt>
      <trkpt lat="43.31422" lon="3.44084">
        <ele>3.325849</ele>
        <time>2022-08-31T02:41:21.418Z</time>
      </trkpt>
      <trkpt lat="43.3146" lon="3.4407">
        <ele>3.543919</ele>
        <time>2022-08-31T02:41:32.132Z</time>
      </trkpt>
      <trkpt lat="43.31483" lon="3.4406">
        <ele>3.680134</ele>
        <time>2022-08-31T02:41:40.821Z</time>
      </trkpt>
      <trkpt lat="43.31496" lon="3.44062">
        <ele>3.752588</ele>
        <time>2022-08-31T02:41:45.333Z</time>
      </trkpt>
      <trkpt lat="43.31552" lon="3.44117">
        <ele>4.089997</ele>
        <time>2022-08-31T02:42:10.260Z</time>
      </trkpt>
      <trkpt lat="43.31572" lon="3.44154">
        <ele>4.199368</ele>
        <time>2022-08-31T02:42:22.020Z</time>
      </trkpt>
      <trkpt lat="43.31607" lon="3.44341">
        <ele>4.593853</ele>
        <time>2022-08-31T02:43:07.946Z</time>
      </trkpt>
      <trkpt lat="43.31672" lon="3.44732">
        <ele>4.089006</ele>
        <time>2022-08-31T02:44:38.492Z</time>
      </trkpt>
      <trkpt lat="43.31684" lon="3.44802">
        <ele>4.00013</ele>
        <time>2022-08-31T02:44:54.796Z</time>
      </trkpt>
      <trkpt lat="43.31686" lon="3.4481">
        <ele>4.021506</ele>
        <time>2022-08-31T02:44:56.658Z</time>
      </trkpt>
      <trkpt lat="43.31763" lon="3.45259">
        <ele>5.648277</ele>
        <time>2022-08-31T02:46:52.751Z</time>
      </trkpt>
      <trkpt lat="43.31856" lon="3.45887">
        <ele>6.041624</ele>
        <time>2022-08-31T02:49:22.966Z</time>
      </trkpt>
      <trkpt lat="43.31963" lon="3.46493">
        <ele>5.596761</ele>
        <time>2022-08-31T02:51:45.186Z</time>
      </trkpt>
      <trkpt lat="43.31986" lon="3.46647">
        <ele>6.061768</ele>
        <time>2022-08-31T02:52:22.977Z</time>
      </trkpt>
      <trkpt lat="43.31991" lon="3.46729">
        <ele>6.30507</ele>
        <time>2022-08-31T02:52:44.334Z</time>
      </trkpt>
      <trkpt lat="43.31983" lon="3.46732">
        <ele>6.353257</ele>
        <time>2022-08-31T02:52:46.359Z</time>
      </trkpt>
      <trkpt lat="43.31985" lon="3.46744">
        <ele>6.415591</ele>
        <time>2022-08-31T02:52:49.666Z</time>
      </trkpt>
      <trkpt lat="43.31974" lon="3.46759">
        <ele>6.530065</ele>
        <time>2022-08-31T02:52:55.477Z</time>
      </trkpt>
      <trkpt lat="43.31794" lon="3.46815">
        <ele>7.452393</ele>
        <time>2022-08-31T02:54:01.234Z</time>
      </trkpt>
      <trkpt lat="43.31779" lon="3.46827">
        <ele>7.360249</ele>
        <time>2022-08-31T02:54:06.791Z</time>
      </trkpt>
      <trkpt lat="43.31752" lon="3.46826">
        <ele>7.22484</ele>
        <time>2022-08-31T02:54:14.698Z</time>
      </trkpt>
      <trkpt lat="43.31571" lon="3.46877">
        <ele>7.194193</ele>
        <time>2022-08-31T02:55:08.579Z</time>
      </trkpt>
      <trkpt lat="43.31559" lon="3.46867">
        <ele>7.281372</ele>
        <time>2022-08-31T02:55:14.134Z</time>
      </trkpt>
      <trkpt lat="43.3155" lon="3.46867">
        <ele>7.331823</ele>
        <time>2022-08-31T02:55:18.007Z</time>
      </trkpt>
      <trkpt lat="43.31537" lon="3.4687">
        <ele>7.408265</ele>
        <time>2022-08-31T02:55:22.951Z</time>
      </trkpt>
      <trkpt lat="43.31535" lon="3.46863">
        <ele>7.440136</ele>
        <time>2022-08-31T02:55:24.993Z</time>
      </trkpt>
      <trkpt lat="43.31527" lon="3.46851">
        <ele>7.507752</ele>
        <time>2022-08-31T02:55:29.910Z</time>
      </trkpt>
      <trkpt lat="43.31522" lon="3.46845">
        <ele>7.546292</ele>
        <time>2022-08-31T02:55:32.974Z</time>
      </trkpt>
      <trkpt lat="43.31516" lon="3.46851">
        <ele>7.591767</ele>
        <time>2022-08-31T02:55:35.405Z</time>
      </trkpt>
      <trkpt lat="43.31516" lon="3.46874">
        <ele>7.689057</ele>
        <time>2022-08-31T02:55:39.640Z</time>
      </trkpt>
      <trkpt lat="43.31515" lon="3.46877">
        <ele>7.708157</ele>
        <time>2022-08-31T02:55:40.762Z</time>
      </trkpt>
      <trkpt lat="43.31481" lon="3.46963">
        <ele>8.854369</ele>
        <time>2022-08-31T02:56:03.163Z</time>
      </trkpt>
      <trkpt lat="43.31477" lon="3.46983">
        <ele>9.108426</ele>
        <time>2022-08-31T02:56:08.296Z</time>
      </trkpt>
      <trkpt lat="43.31478" lon="3.46988">
        <ele>9.18217</ele>
        <time>2022-08-31T02:56:09.410Z</time>
      </trkpt>
      <trkpt lat="43.31503" lon="3.47037">
        <ele>9.959042</ele>
        <time>2022-08-31T02:56:22.045Z</time>
      </trkpt>
      <trkpt lat="43.31518" lon="3.47068">
        <ele>10.436114</ele>
        <time>2022-08-31T02:56:29.265Z</time>
      </trkpt>
      <trkpt lat="43.31521" lon="3.47079">
        <ele>10.587705</ele>
        <time>2022-08-31T02:56:31.390Z</time>
      </trkpt>
      <trkpt lat="43.31515" lon="3.47099">
        <ele>10.864429</ele>
        <time>2022-08-31T02:56:35.361Z</time>
      </trkpt>
      <trkpt lat="43.31512" lon="3.47102">
        <ele>10.922779</ele>
        <time>2022-08-31T02:56:36.201Z</time>
      </trkpt>
      <trkpt lat="43.31511" lon="3.47133">
        <ele>10.791691</ele>
        <time>2022-08-31T02:56:40.836Z</time>
      </trkpt>
      <trkpt lat="43.31519" lon="3.47137">
        <ele>10.731527</ele>
        <time>2022-08-31T02:56:42.462Z</time>
      </trkpt>
      <trkpt lat="43.3152" lon="3.47137">
        <ele>10.722761</ele>
        <time>2022-08-31T02:56:42.712Z</time>
      </trkpt>
      <trkpt lat="43.31527" lon="3.47143">
        <ele>10.664455</ele>
        <time>2022-08-31T02:56:44.227Z</time>
      </trkpt>
      <trkpt lat="43.31535" lon="3.47154">
        <ele>10.58259</ele>
        <time>2022-08-31T02:56:46.117Z</time>
      </trkpt>
      <trkpt lat="43.31539" lon="3.47182">
        <ele>10.427807</ele>
        <time>2022-08-31T02:56:49.698Z</time>
      </trkpt>
      <trkpt lat="43.31542" lon="3.4719">
        <ele>10.384497</ele>
        <time>2022-08-31T02:56:50.660Z</time>
      </trkpt>
      <trkpt lat="43.31545" lon="3.47197">
        <ele>10.341654</ele>
        <time>2022-08-31T02:56:51.618Z</time>
      </trkpt>
      <trkpt lat="43.31554" lon="3.4722">
        <ele>10.203231</ele>
        <time>2022-08-31T02:56:54.785Z</time>
      </trkpt>
      <trkpt lat="43.31566" lon="3.47251">
        <ele>10.012767</ele>
        <time>2022-08-31T02:56:59.068Z</time>
      </trkpt>
      <trkpt lat="43.31571" lon="3.47248">
        <ele>9.975176</ele>
        <time>2022-08-31T02:57:02.609Z</time>
      </trkpt>
      <trkpt lat="43.31575" lon="3.47245">
        <ele>9.939125</ele>
        <time>2022-08-31T02:57:06.087Z</time>
      </trkpt>
      <trkpt lat="43.31571" lon="3.47248">
        <ele>9.903074</ele>
        <time>2022-08-31T02:57:09.564Z</time>
      </trkpt>
      <trkpt lat="43.31566" lon="3.47251">
        <ele>9.865483</ele>
        <time>2022-08-31T02:57:13.103Z</time>
      </trkpt>
      <trkpt lat="43.31578" lon="3.47285">
        <ele>9.667395</ele>
        <time>2022-08-31T02:57:17.508Z</time>
      </trkpt>
      <trkpt lat="43.31603" lon="3.47346">
        <ele>9.13814</ele>
        <time>2022-08-31T02:57:25.836Z</time>
      </trkpt>
      <trkpt lat="43.31644" lon="3.47351">
        <ele>8.689995</ele>
        <time>2022-08-31T02:57:33.250Z</time>
      </trkpt>
      <trkpt lat="43.31659" lon="3.47343">
        <ele>8.5194</ele>
        <time>2022-08-31T02:57:36.114Z</time>
      </trkpt>
      <trkpt lat="43.31667" lon="3.47335">
        <ele>8.416993</ele>
        <time>2022-08-31T02:57:37.846Z</time>
      </trkpt>
      <trkpt lat="43.31736" lon="3.47334">
        <ele>7.702924</ele>
        <time>2022-08-31T02:57:50.265Z</time>
      </trkpt>
      <trkpt lat="43.31784" lon="3.47344">
        <ele>7.471572</ele>
        <time>2022-08-31T02:57:59.148Z</time>
      </trkpt>
      <trkpt lat="43.31822" lon="3.47357">
        <ele>7.286853</ele>
        <time>2022-08-31T02:58:10.870Z</time>
      </trkpt>
      <trkpt lat="43.31915" lon="3.47336">
        <ele>6.837531</ele>
        <time>2022-08-31T02:58:40.323Z</time>
      </trkpt>
      <trkpt lat="43.3196" lon="3.47333">
        <ele>6.657093</ele>
        <time>2022-08-31T02:58:54.648Z</time>
      </trkpt>
      <trkpt lat="43.32089" lon="3.4735">
        <ele>6.13879</ele>
        <time>2022-08-31T02:59:34.175Z</time>
      </trkpt>
      <trkpt lat="43.32207" lon="3.47395">
        <ele>5.539714</ele>
        <time>2022-08-31T03:00:10.523Z</time>
      </trkpt>
      <trkpt lat="43.32308" lon="3.47453">
        <ele>5.572264</ele>
        <time>2022-08-31T03:00:44.727Z</time>
      </trkpt>
      <trkpt lat="43.32492" lon="3.47656">
        <ele>7.452886</ele>
        <time>2022-08-31T03:02:11.064Z</time>
      </trkpt>
      <trkpt lat="43.32534" lon="3.47681">
        <ele>7.921313</ele>
        <time>2022-08-31T03:02:28.882Z</time>
      </trkpt>
      <trkpt lat="43.32612" lon="3.4785">
        <ele>8.727086</ele>
        <time>2022-08-31T03:03:21.548Z</time>
      </trkpt>
      <trkpt lat="43.32664" lon="3.47954">
        <ele>8.694215</ele>
        <time>2022-08-31T03:03:49.956Z</time>
      </trkpt>
      <trkpt lat="43.32659" lon="3.47989">
        <ele>8.446342</ele>
        <time>2022-08-31T03:03:57.359Z</time>
      </trkpt>
      <trkpt lat="43.32651" lon="3.48004">
        <ele>8.307127</ele>
        <time>2022-08-31T03:04:01.523Z</time>
      </trkpt>
      <trkpt lat="43.32596" lon="3.48036">
        <ele>7.733503</ele>
        <time>2022-08-31T03:04:18.349Z</time>
      </trkpt>
      <trkpt lat="43.32527" lon="3.48074">
        <ele>7.219182</ele>
        <time>2022-08-31T03:04:39.936Z</time>
      </trkpt>
      <trkpt lat="43.32435" lon="3.48109">
        <ele>7.080921</ele>
        <time>2022-08-31T03:05:09.096Z</time>
      </trkpt>
      <trkpt lat="43.32308" lon="3.48184">
        <ele>7.564359</ele>
        <time>2022-08-31T03:05:59.270Z</time>
      </trkpt>
      <trkpt lat="43.32271" lon="3.48212">
        <ele>7.87296</ele>
        <time>2022-08-31T03:06:15.652Z</time>
      </trkpt>
      <trkpt lat="43.3212" lon="3.48374">
        <ele>7.827195</ele>
        <time>2022-08-31T03:07:17.285Z</time>
      </trkpt>
      <trkpt lat="43.32115" lon="3.4838">
        <ele>7.806254</ele>
        <time>2022-08-31T03:07:18.716Z</time>
      </trkpt>
      <trkpt lat="43.31959" lon="3.48579">
        <ele>6.122317</ele>
        <time>2022-08-31T03:08:20.890Z</time>
      </trkpt>
      <trkpt lat="43.31931" lon="3.4863">
        <ele>6.134968</ele>
        <time>2022-08-31T03:08:35.609Z</time>
      </trkpt>
      <trkpt lat="43.31913" lon="3.48644">
        <ele>6.174522</ele>
        <time>2022-08-31T03:08:42.344Z</time>
      </trkpt>
      <trkpt lat="43.31846" lon="3.48702">
        <ele>6.326039</ele>
        <time>2022-08-31T03:09:09.267Z</time>
      </trkpt>
      <trkpt lat="43.31654" lon="3.48807">
        <ele>6.755806</ele>
        <time>2022-08-31T03:10:18.469Z</time>
      </trkpt>
      <trkpt lat="43.31616" lon="3.48846">
        <ele>6.723556</ele>
        <time>2022-08-31T03:10:33.089Z</time>
      </trkpt>
      <trkpt lat="43.31571" lon="3.48929">
        <ele>6.585537</ele>
        <time>2022-08-31T03:10:56.171Z</time>
      </trkpt>
      <trkpt lat="43.31453" lon="3.49296">
        <ele>6.016645</ele>
        <time>2022-08-31T03:12:27.232Z</time>
      </trkpt>
      <trkpt lat="43.31412" lon="3.49376">
        <ele>5.892826</ele>
        <time>2022-08-31T03:12:49.484Z</time>
      </trkpt>
      <trkpt lat="43.31312" lon="3.49551">
        <ele>5.597128</ele>
        <time>2022-08-31T03:13:40.359Z</time>
      </trkpt>
      <trkpt lat="43.31298" lon="3.49584">
        <ele>5.545478</ele>
        <time>2022-08-31T03:13:48.918Z</time>
      </trkpt>
      <trkpt lat="43.31286" lon="3.49632">
        <ele>5.476104</ele>
        <time>2022-08-31T03:14:00.413Z</time>
      </trkpt>
      <trkpt lat="43.31278" lon="3.49684">
        <ele>5.312482</ele>
        <time>2022-08-31T03:14:12.313Z</time>
      </trkpt>
      <trkpt lat="43.31276" lon="3.49741">
        <ele>5.010787</ele>
        <time>2022-08-31T03:14:25.229Z</time>
      </trkpt>
      <trkpt lat="43.31279" lon="3.49774">
        <ele>4.829388</ele>
        <time>2022-08-31T03:14:32.818Z</time>
      </trkpt>
      <trkpt lat="43.31288" lon="3.49805">
        <ele>4.655985</ele>
        <time>2022-08-31T03:14:39.923Z</time>
      </trkpt>
      <trkpt lat="43.31315" lon="3.49843">
        <ele>4.37214</ele>
        <time>2022-08-31T03:14:51.242Z</time>
      </trkpt>
      <trkpt lat="43.31372" lon="3.4988">
        <ele>3.814737</ele>
        <time>2022-08-31T03:15:09.280Z</time>
      </trkpt>
      <trkpt lat="43.31383" lon="3.49894">
        <ele>3.648481</ele>
        <time>2022-08-31T03:15:13.671Z</time>
      </trkpt>
      <trkpt lat="43.31411" lon="3.49903">
        <ele>3.336117</ele>
        <time>2022-08-31T03:15:21.959Z</time>
      </trkpt>
      <trkpt lat="43.31423" lon="3.49921">
        <ele>3.145425</ele>
        <time>2022-08-31T03:15:26.939Z</time>
      </trkpt>
      <trkpt lat="43.31456" lon="3.4993">
        <ele>2.774026</ele>
        <time>2022-08-31T03:15:36.816Z</time>
      </trkpt>
      <trkpt lat="43.31468" lon="3.49927">
        <ele>2.640501</ele>
        <time>2022-08-31T03:15:40.438Z</time>
      </trkpt>
      <trkpt lat="43.31515" lon="3.49957">
        <ele>2.136782</ele>
        <time>2022-08-31T03:15:55.385Z</time>
      </trkpt>
      <trkpt lat="43.31541" lon="3.49983">
        <ele>2.017182</ele>
        <time>2022-08-31T03:16:05.013Z</time>
      </trkpt>
      <trkpt lat="43.31548" lon="3.50006">
        <ele>1.949723</ele>
        <time>2022-08-31T03:16:10.528Z</time>
      </trkpt>
      <trkpt lat="43.31543" lon="3.5011">
        <ele>1.673312</ele>
        <time>2022-08-31T03:16:34.331Z</time>
      </trkpt>
      <trkpt lat="43.31533" lon="3.50195">
        <ele>1.504576</ele>
        <time>2022-08-31T03:16:54.066Z</time>
      </trkpt>
      <trkpt lat="43.31531" lon="3.50201">
        <ele>1.503754</ele>
        <time>2022-08-31T03:16:55.699Z</time>
      </trkpt>
      <trkpt lat="43.3152" lon="3.50204">
        <ele>1.501943</ele>
        <time>2022-08-31T03:16:59.329Z</time>
      </trkpt>
      <trkpt lat="43.31499" lon="3.50367">
        <ele>1.482783</ele>
        <time>2022-08-31T03:17:37.369Z</time>
      </trkpt>
      <trkpt lat="43.31391" lon="3.51074">
        <ele>1.134224</ele>
        <time>2022-08-31T03:20:23.489Z</time>
      </trkpt>
      <trkpt lat="43.31385" lon="3.51117">
        <ele>1.100992</ele>
        <time>2022-08-31T03:20:33.505Z</time>
      </trkpt>
      <trkpt lat="43.31387" lon="3.51134">
        <ele>1.081433</ele>
        <time>2022-08-31T03:20:37.395Z</time>
      </trkpt>
      <trkpt lat="43.31369" lon="3.51248">
        <ele>0.867493</ele>
        <time>2022-08-31T03:21:03.783Z</time>
      </trkpt>
      <trkpt lat="43.31366" lon="3.51375">
        <ele>0.636653</ele>
        <time>2022-08-31T03:21:32.291Z</time>
      </trkpt>
      <trkpt lat="43.31367" lon="3.51433">
        <ele>0.592003</ele>
        <time>2022-08-31T03:21:45.510Z</time>
      </trkpt>
      <trkpt lat="43.31376" lon="3.51504">
        <ele>0.537128</ele>
        <time>2022-08-31T03:22:01.903Z</time>
      </trkpt>
      <trkpt lat="43.314" lon="3.51628">
        <ele>0.456738</ele>
        <time>2022-08-31T03:22:31.652Z</time>
      </trkpt>
      <trkpt lat="43.31416" lon="3.51678">
        <ele>0.485754</ele>
        <time>2022-08-31T03:22:44.280Z</time>
      </trkpt>
      <trkpt lat="43.31415" lon="3.51699">
        <ele>0.4967</ele>
        <time>2022-08-31T03:22:49.104Z</time>
      </trkpt>
      <trkpt lat="43.31482" lon="3.52076">
        <ele>0.675823</ele>
        <time>2022-08-31T03:24:19.895Z</time>
      </trkpt>
      <trkpt lat="43.31479" lon="3.5211">
        <ele>0.670281</ele>
        <time>2022-08-31T03:24:27.770Z</time>
      </trkpt>
      <trkpt lat="43.31489" lon="3.52168">
        <ele>0.625433</ele>
        <time>2022-08-31T03:24:41.540Z</time>
      </trkpt>
      <trkpt lat="43.31539" lon="3.52411">
        <ele>0.441706</ele>
        <time>2022-08-31T03:25:39.079Z</time>
      </trkpt>
      <trkpt lat="43.31552" lon="3.52493">
        <ele>0.384583</ele>
        <time>2022-08-31T03:25:58.234Z</time>
      </trkpt>
      <trkpt lat="43.31564" lon="3.52638">
        <ele>0.422916</ele>
        <time>2022-08-31T03:26:32.252Z</time>
      </trkpt>
      <trkpt lat="43.31574" lon="3.52654">
        <ele>0.45193</ele>
        <time>2022-08-31T03:26:37.096Z</time>
      </trkpt>
      <trkpt lat="43.31588" lon="3.5282">
        <ele>0.690298</ele>
        <time>2022-08-31T03:27:17.464Z</time>
      </trkpt>
      <trkpt lat="43.31616" lon="3.52938">
        <ele>0.798502</ele>
        <time>2022-08-31T03:27:47.296Z</time>
      </trkpt>
      <trkpt lat="43.31648" lon="3.52993">
        <ele>0.860193</ele>
        <time>2022-08-31T03:28:03.653Z</time>
      </trkpt>
      <trkpt lat="43.31686" lon="3.53041">
        <ele>0.932424</ele>
        <time>2022-08-31T03:28:19.814Z</time>
      </trkpt>
      <trkpt lat="43.31734" lon="3.53078">
        <ele>1.032692</ele>
        <time>2022-08-31T03:28:37.357Z</time>
      </trkpt>
      <trkpt lat="43.31789" lon="3.53106">
        <ele>1.140218</ele>
        <time>2022-08-31T03:28:56.527Z</time>
      </trkpt>
      <trkpt lat="43.32054" lon="3.53187">
        <ele>1.901603</ele>
        <time>2022-08-31T03:30:28.701Z</time>
      </trkpt>
      <trkpt lat="43.32067" lon="3.53197">
        <ele>1.875089</ele>
        <time>2022-08-31T03:30:33.627Z</time>
      </trkpt>
      <trkpt lat="43.32087" lon="3.53186">
        <ele>1.83874</ele>
        <time>2022-08-31T03:30:40.392Z</time>
      </trkpt>
      <trkpt lat="43.32117" lon="3.53201">
        <ele>1.786077</ele>
        <time>2022-08-31T03:30:50.033Z</time>
      </trkpt>
      <trkpt lat="43.32123" lon="3.53209">
        <ele>1.772292</ele>
        <time>2022-08-31T03:30:52.553Z</time>
      </trkpt>
      <trkpt lat="43.32123" lon="3.53233">
        <ele>1.743221</ele>
        <time>2022-08-31T03:30:57.821Z</time>
      </trkpt>
      <trkpt lat="43.32109" lon="3.53331">
        <ele>1.615674</ele>
        <time>2022-08-31T03:31:11.576Z</time>
      </trkpt>
      <trkpt lat="43.32113" lon="3.53331">
        <ele>1.608338</ele>
        <time>2022-08-31T03:31:12.512Z</time>
      </trkpt>
      <trkpt lat="43.32109" lon="3.53366">
        <ele>1.559553</ele>
        <time>2022-08-31T03:31:17.099Z</time>
      </trkpt>
      <trkpt lat="43.32103" lon="3.53416">
        <ele>1.491429</ele>
        <time>2022-08-31T03:31:23.732Z</time>
      </trkpt>
      <trkpt lat="43.32097" lon="3.53447">
        <ele>1.447553</ele>
        <time>2022-08-31T03:31:28.148Z</time>
      </trkpt>
      <trkpt lat="43.32092" lon="3.53466">
        <ele>1.418757</ele>
        <time>2022-08-31T03:31:31.035Z</time>
      </trkpt>
      <trkpt lat="43.32064" lon="3.5346">
        <ele>1.366176</ele>
        <time>2022-08-31T03:31:36.895Z</time>
      </trkpt>
      <trkpt lat="43.32032" lon="3.53438">
        <ele>1.403562</ele>
        <time>2022-08-31T03:31:44.744Z</time>
      </trkpt>
      <trkpt lat="43.32027" lon="3.53435">
        <ele>1.4218</ele>
        <time>2022-08-31T03:31:45.768Z</time>
      </trkpt>
      <trkpt lat="43.32034" lon="3.53512">
        <ele>1.636478</ele>
        <time>2022-08-31T03:31:58.426Z</time>
      </trkpt>
      <trkpt lat="43.32046" lon="3.53544">
        <ele>1.735334</ele>
        <time>2022-08-31T03:32:04.066Z</time>
      </trkpt>
      <trkpt lat="43.32046" lon="3.53561">
        <ele>1.784188</ele>
        <time>2022-08-31T03:32:06.981Z</time>
      </trkpt>
      <trkpt lat="43.32055" lon="3.53578">
        <ele>1.841954</ele>
        <time>2022-08-31T03:32:10.254Z</time>
      </trkpt>
      <trkpt lat="43.32051" lon="3.5359">
        <ele>1.877248</ele>
        <time>2022-08-31T03:32:12.237Z</time>
      </trkpt>
      <trkpt lat="43.32051" lon="3.53604">
        <ele>1.915746</ele>
        <time>2022-08-31T03:32:14.584Z</time>
      </trkpt>
      <trkpt lat="43.32064" lon="3.53625">
        <ele>1.994322</ele>
        <time>2022-08-31T03:32:19.127Z</time>
      </trkpt>
      <trkpt lat="43.32066" lon="3.53614">
        <ele>2.025562</ele>
        <time>2022-08-31T03:32:20.995Z</time>
      </trkpt>
      <trkpt lat="43.32088" lon="3.53655">
        <ele>2.150513</ele>
        <time>2022-08-31T03:32:28.905Z</time>
      </trkpt>
      <trkpt lat="43.32109" lon="3.53693">
        <ele>2.268833</ele>
        <time>2022-08-31T03:32:36.234Z</time>
      </trkpt>
      <trkpt lat="43.32104" lon="3.53695">
        <ele>2.286539</ele>
        <time>2022-08-31T03:32:37.430Z</time>
      </trkpt>
      <trkpt lat="43.32122" lon="3.53776">
        <ele>2.497476</ele>
        <time>2022-08-31T03:32:51.306Z</time>
      </trkpt>
      <trkpt lat="43.32117" lon="3.53835">
        <ele>2.629832</ele>
        <time>2022-08-31T03:33:00.425Z</time>
      </trkpt>
      <trkpt lat="43.32103" lon="3.5387">
        <ele>2.545159</ele>
        <time>2022-08-31T03:33:06.143Z</time>
      </trkpt>
      <trkpt lat="43.32038" lon="3.53962">
        <ele>2.272188</ele>
        <time>2022-08-31T03:33:24.324Z</time>
      </trkpt>
      <trkpt lat="43.32016" lon="3.53994">
        <ele>2.179047</ele>
        <time>2022-08-31T03:33:30.347Z</time>
      </trkpt>
      <trkpt lat="43.31998" lon="3.54028">
        <ele>2.077731</ele>
        <time>2022-08-31T03:33:36.122Z</time>
      </trkpt>
      <trkpt lat="43.31978" lon="3.54091">
        <ele>1.859818</ele>
        <time>2022-08-31T03:33:45.416Z</time>
      </trkpt>
      <trkpt lat="43.31965" lon="3.54175">
        <ele>1.588162</ele>
        <time>2022-08-31T03:33:56.877Z</time>
      </trkpt>
      <trkpt lat="43.31946" lon="3.54252">
        <ele>1.32931</ele>
        <time>2022-08-31T03:34:08.637Z</time>
      </trkpt>
      <trkpt lat="43.3193" lon="3.54337">
        <ele>1.502884</ele>
        <time>2022-08-31T03:34:22.045Z</time>
      </trkpt>
      <trkpt lat="43.31933" lon="3.54504">
        <ele>1.85463</ele>
        <time>2022-08-31T03:34:48.921Z</time>
      </trkpt>
      <trkpt lat="43.31944" lon="3.54549">
        <ele>2.001562</ele>
        <time>2022-08-31T03:34:56.818Z</time>
      </trkpt>
      <trkpt lat="43.31938" lon="3.54571">
        <ele>2.073354</ele>
        <time>2022-08-31T03:35:00.729Z</time>
      </trkpt>
      <trkpt lat="43.3194" lon="3.54576">
        <ele>2.09194</ele>
        <time>2022-08-31T03:35:01.721Z</time>
      </trkpt>
      <trkpt lat="43.31945" lon="3.5459">
        <ele>2.14082</ele>
        <time>2022-08-31T03:35:04.352Z</time>
      </trkpt>
      <trkpt lat="43.31947" lon="3.54595">
        <ele>2.157646</ele>
        <time>2022-08-31T03:35:05.252Z</time>
      </trkpt>
      <trkpt lat="43.31936" lon="3.54649">
        <ele>2.332223</ele>
        <time>2022-08-31T03:35:14.811Z</time>
      </trkpt>
      <trkpt lat="43.31931" lon="3.54651">
        <ele>2.354852</ele>
        <time>2022-08-31T03:35:16.683Z</time>
      </trkpt>
      <trkpt lat="43.31923" lon="3.54655">
        <ele>2.392309</ele>
        <time>2022-08-31T03:35:19.645Z</time>
      </trkpt>
      <trkpt lat="43.31917" lon="3.54658">
        <ele>2.418303</ele>
        <time>2022-08-31T03:35:21.660Z</time>
      </trkpt>
      <trkpt lat="43.3197" lon="3.54816">
        <ele>2.644591</ele>
        <time>2022-08-31T03:35:48.561Z</time>
      </trkpt>
      <trkpt lat="43.31974" lon="3.54814">
        <ele>2.647003</ele>
        <time>2022-08-31T03:35:50.056Z</time>
      </trkpt>
      <trkpt lat="43.31989" lon="3.54864">
        <ele>2.667364</ele>
        <time>2022-08-31T03:35:57.841Z</time>
      </trkpt>
      <trkpt lat="43.32018" lon="3.54961">
        <ele>2.593406</ele>
        <time>2022-08-31T03:36:12.017Z</time>
      </trkpt>
      <trkpt lat="43.32015" lon="3.54965">
        <ele>2.573733</ele>
        <time>2022-08-31T03:36:12.958Z</time>
      </trkpt>
      <trkpt lat="43.32031" lon="3.55021">
        <ele>2.391</ele>
        <time>2022-08-31T03:36:21.181Z</time>
      </trkpt>
      <trkpt lat="43.32084" lon="3.5519">
        <ele>1.908102</ele>
        <time>2022-08-31T03:36:46.499Z</time>
      </trkpt>
      <trkpt lat="43.32087" lon="3.55195">
        <ele>1.902313</ele>
        <time>2022-08-31T03:36:47.369Z</time>
      </trkpt>
      <trkpt lat="43.32102" lon="3.55243">
        <ele>1.854981</ele>
        <time>2022-08-31T03:36:54.635Z</time>
      </trkpt>
      <trkpt lat="43.32108" lon="3.55263">
        <ele>1.835427</ele>
        <time>2022-08-31T03:36:57.538Z</time>
      </trkpt>
      <trkpt lat="43.32165" lon="3.55424">
        <ele>1.874633</ele>
        <time>2022-08-31T03:37:23.385Z</time>
      </trkpt>
      <trkpt lat="43.32251" lon="3.55586">
        <ele>2.521062</ele>
        <time>2022-08-31T03:37:55.665Z</time>
      </trkpt>
      <trkpt lat="43.32318" lon="3.55707">
        <ele>2.886476</ele>
        <time>2022-08-31T03:38:18.125Z</time>
      </trkpt>
      <trkpt lat="43.32414" lon="3.55883">
        <ele>3.39245</ele>
        <time>2022-08-31T03:38:51.385Z</time>
      </trkpt>
      <trkpt lat="43.32444" lon="3.5594">
        <ele>3.548699</ele>
        <time>2022-08-31T03:39:02.288Z</time>
      </trkpt>
      <trkpt lat="43.32471" lon="3.55994">
        <ele>3.648737</ele>
        <time>2022-08-31T03:39:11.925Z</time>
      </trkpt>
      <trkpt lat="43.32475" lon="3.56016">
        <ele>3.630681</ele>
        <time>2022-08-31T03:39:15.482Z</time>
      </trkpt>
      <trkpt lat="43.32479" lon="3.56024">
        <ele>3.622905</ele>
        <time>2022-08-31T03:39:17.004Z</time>
      </trkpt>
      <trkpt lat="43.32495" lon="3.56032">
        <ele>3.604931</ele>
        <time>2022-08-31T03:39:20.196Z</time>
      </trkpt>
      <trkpt lat="43.32539" lon="3.5611">
        <ele>3.5265</ele>
        <time>2022-08-31T03:39:33.900Z</time>
      </trkpt>
      <trkpt lat="43.32597" lon="3.56218">
        <ele>3.245197</ele>
        <time>2022-08-31T03:39:51.425Z</time>
      </trkpt>
      <trkpt lat="43.32606" lon="3.56256">
        <ele>3.090039</ele>
        <time>2022-08-31T03:39:56.714Z</time>
      </trkpt>
      <trkpt lat="43.32613" lon="3.56258">
        <ele>3.051799</ele>
        <time>2022-08-31T03:39:57.961Z</time>
      </trkpt>
      <trkpt lat="43.32656" lon="3.56371">
        <ele>2.552572</ele>
        <time>2022-08-31T03:40:14.505Z</time>
      </trkpt>
      <trkpt lat="43.32699" lon="3.5648">
        <ele>1.858615</ele>
        <time>2022-08-31T03:40:29.969Z</time>
      </trkpt>
      <trkpt lat="43.32736" lon="3.56574">
        <ele>1.234405</ele>
        <time>2022-08-31T03:40:43.357Z</time>
      </trkpt>
      <trkpt lat="43.32779" lon="3.56661">
        <ele>0.850936</ele>
        <time>2022-08-31T03:40:56.505Z</time>
      </trkpt>
      <trkpt lat="43.32781" lon="3.56666">
        <ele>0.835466</ele>
        <time>2022-08-31T03:40:57.209Z</time>
      </trkpt>
      <trkpt lat="43.3283" lon="3.56756">
        <ele>0.518125</ele>
        <time>2022-08-31T03:41:12.092Z</time>
      </trkpt>
      <trkpt lat="43.3291" lon="3.56858">
        <ele>0.403344</ele>
        <time>2022-08-31T03:41:33.502Z</time>
      </trkpt>
      <trkpt lat="43.33054" lon="3.5703">
        <ele>0.545465</ele>
        <time>2022-08-31T03:42:10.760Z</time>
      </trkpt>
      <trkpt lat="43.33203" lon="3.57203">
        <ele>1.095855</ele>
        <time>2022-08-31T03:42:49.369Z</time>
      </trkpt>
      <trkpt lat="43.33341" lon="3.57369">
        <ele>2.277857</ele>
        <time>2022-08-31T03:43:32.561Z</time>
      </trkpt>
      <trkpt lat="43.33388" lon="3.57418">
        <ele>2.743497</ele>
        <time>2022-08-31T03:43:46.604Z</time>
      </trkpt>
      <trkpt lat="43.33435" lon="3.57477">
        <ele>2.884625</ele>
        <time>2022-08-31T03:44:00.408Z</time>
      </trkpt>
      <trkpt lat="43.33484" lon="3.57509">
        <ele>2.851417</ele>
        <time>2022-08-31T03:44:11.178Z</time>
      </trkpt>
      <trkpt lat="43.33522" lon="3.57452">
        <ele>2.816818</ele>
        <time>2022-08-31T03:44:21.286Z</time>
      </trkpt>
      <trkpt lat="43.33529" lon="3.57452">
        <ele>2.812712</ele>
        <time>2022-08-31T03:44:22.507Z</time>
      </trkpt>
      <trkpt lat="43.33652" lon="3.57614">
        <ele>1.868853</ele>
        <time>2022-08-31T03:44:52.061Z</time>
      </trkpt>
      <trkpt lat="43.33667" lon="3.57602">
        <ele>1.760429</ele>
        <time>2022-08-31T03:45:04.203Z</time>
      </trkpt>
      <trkpt lat="43.3374" lon="3.57694">
        <ele>1.867881</ele>
        <time>2022-08-31T03:45:28.883Z</time>
      </trkpt>
      <trkpt lat="43.33751" lon="3.57709">
        <ele>1.901595</ele>
        <time>2022-08-31T03:45:33.214Z</time>
      </trkpt>
      <trkpt lat="43.33763" lon="3.57694">
        <ele>1.934402</ele>
        <time>2022-08-31T03:45:37.642Z</time>
      </trkpt>
      <trkpt lat="43.33773" lon="3.57707">
        <ele>1.963034</ele>
        <time>2022-08-31T03:45:41.337Z</time>
      </trkpt>
      <trkpt lat="43.33902" lon="3.57521">
        <ele>3.056374</ele>
        <time>2022-08-31T03:46:26.512Z</time>
      </trkpt>
      <trkpt lat="43.33916" lon="3.57513">
        <ele>3.167158</ele>
        <time>2022-08-31T03:46:30.318Z</time>
      </trkpt>
      <trkpt lat="43.33928" lon="3.57518">
        <ele>3.252512</ele>
        <time>2022-08-31T03:46:33.267Z</time>
      </trkpt>
      <trkpt lat="43.34038" lon="3.57657">
        <ele>3.553277</ele>
        <time>2022-08-31T03:47:05.966Z</time>
      </trkpt>
      <trkpt lat="43.3405" lon="3.5765">
        <ele>3.572088</ele>
        <time>2022-08-31T03:47:08.339Z</time>
      </trkpt>
      <trkpt lat="43.34064" lon="3.57642">
        <ele>3.595201</ele>
        <time>2022-08-31T03:47:11.244Z</time>
      </trkpt>
      <trkpt lat="43.34073" lon="3.57641">
        <ele>3.610232</ele>
        <time>2022-08-31T03:47:13.071Z</time>
      </trkpt>
      <trkpt lat="43.34083" lon="3.57625">
        <ele>3.562377</ele>
        <time>2022-08-31T03:47:15.716Z</time>
      </trkpt>
      <trkpt lat="43.34082" lon="3.57613">
        <ele>3.505451</ele>
        <time>2022-08-31T03:47:17.324Z</time>
      </trkpt>
      <trkpt lat="43.34089" lon="3.5759">
        <ele>3.392457</ele>
        <time>2022-08-31T03:47:20.818Z</time>
      </trkpt>
      <trkpt lat="43.34136" lon="3.57521">
        <ele>2.96845</ele>
        <time>2022-08-31T03:47:33.487Z</time>
      </trkpt>
      <trkpt lat="43.34093" lon="3.57472">
        <ele>2.622084</ele>
        <time>2022-08-31T03:47:50.127Z</time>
      </trkpt>
      <trkpt lat="43.34093" lon="3.57461">
        <ele>2.575842</ele>
        <time>2022-08-31T03:47:52.420Z</time>
      </trkpt>
      <trkpt lat="43.34178" lon="3.57342">
        <ele>2.000571</ele>
        <time>2022-08-31T03:48:29.487Z</time>
      </trkpt>
      <trkpt lat="43.3418" lon="3.57339">
        <ele>1.986055</ele>
        <time>2022-08-31T03:48:30.469Z</time>
      </trkpt>
      <trkpt lat="43.34187" lon="3.5734">
        <ele>1.957435</ele>
        <time>2022-08-31T03:48:32.385Z</time>
      </trkpt>
      <trkpt lat="43.34233" lon="3.57403">
        <ele>1.649673</ele>
        <time>2022-08-31T03:48:52.479Z</time>
      </trkpt>
      <trkpt lat="43.34241" lon="3.57402">
        <ele>1.595794</ele>
        <time>2022-08-31T03:48:55.211Z</time>
      </trkpt>
      <trkpt lat="43.34362" lon="3.57224">
        <ele>0.531139</ele>
        <time>2022-08-31T03:49:48.293Z</time>
      </trkpt>
      <trkpt lat="43.34464" lon="3.57071">
        <ele>-0.267418</ele>
        <time>2022-08-31T03:50:33.984Z</time>
      </trkpt>
      <trkpt lat="43.34464" lon="3.57071">
        <ele>-0.268072</ele>
        <time>2022-08-31T03:50:34.020Z</time>
      </trkpt>
      <trkpt lat="43.3447" lon="3.57066">
        <ele>-0.305247</ele>
        <time>2022-08-31T03:50:37.025Z</time>
      </trkpt>
      <trkpt lat="43.34478" lon="3.57068">
        <ele>-0.346328</ele>
        <time>2022-08-31T03:50:40.347Z</time>
      </trkpt>
      <trkpt lat="43.34492" lon="3.57144">
        <ele>-0.457945</ele>
        <time>2022-08-31T03:51:04.508Z</time>
      </trkpt>
      <trkpt lat="43.34532" lon="3.57223">
        <ele>-0.588968</ele>
        <time>2022-08-31T03:51:34.749Z</time>
      </trkpt>
      <trkpt lat="43.34573" lon="3.57303">
        <ele>-0.701116</ele>
        <time>2022-08-31T03:52:04.989Z</time>
      </trkpt>
      <trkpt lat="43.34627" lon="3.57364">
        <ele>-0.748408</ele>
        <time>2022-08-31T03:52:34.931Z</time>
      </trkpt>
      <trkpt lat="43.34681" lon="3.57424">
        <ele>-0.795701</ele>
        <time>2022-08-31T03:53:04.872Z</time>
      </trkpt>
      <trkpt lat="43.34707" lon="3.57377">
        <ele>-0.819384</ele>
        <time>2022-08-31T03:53:23.084Z</time>
      </trkpt>
      <trkpt lat="43.34717" lon="3.5737">
        <ele>-0.824187</ele>
        <time>2022-08-31T03:53:28.158Z</time>
      </trkpt>
      <trkpt lat="43.34737" lon="3.57382">
        <ele>-0.832723</ele>
        <time>2022-08-31T03:53:37.178Z</time>
      </trkpt>
      <trkpt lat="43.34797" lon="3.57461">
        <ele>-0.8666</ele>
        <time>2022-08-31T03:54:12.967Z</time>
      </trkpt>
      <trkpt lat="43.34858" lon="3.57541">
        <ele>-0.857088</ele>
        <time>2022-08-31T03:54:48.757Z</time>
      </trkpt>
      <trkpt lat="43.34918" lon="3.5762">
        <ele>-0.798406</ele>
        <time>2022-08-31T03:55:24.546Z</time>
      </trkpt>
      <trkpt lat="43.34979" lon="3.57699">
        <ele>-0.787971</ele>
        <time>2022-08-31T03:56:00.334Z</time>
      </trkpt>
      <trkpt lat="43.3504" lon="3.57779">
        <ele>-0.880373</ele>
        <time>2022-08-31T03:56:36.122Z</time>
      </trkpt>
      <trkpt lat="43.35094" lon="3.57854">
        <ele>-0.962971</ele>
        <time>2022-08-31T03:57:09.173Z</time>
      </trkpt>
      <trkpt lat="43.35148" lon="3.5793">
        <ele>-1.021581</ele>
        <time>2022-08-31T03:57:42.222Z</time>
      </trkpt>
      <trkpt lat="43.35181" lon="3.5801">
        <ele>-1.072149</ele>
        <time>2022-08-31T03:58:10.742Z</time>
      </trkpt>
      <trkpt lat="43.35199" lon="3.58055">
        <ele>-1.093498</ele>
        <time>2022-08-31T03:58:26.851Z</time>
      </trkpt>
      <trkpt lat="43.3523" lon="3.58104">
        <ele>-1.093787</ele>
        <time>2022-08-31T03:58:46.956Z</time>
      </trkpt>
      <trkpt lat="43.35261" lon="3.58153">
        <ele>-1.094076</ele>
        <time>2022-08-31T03:59:07.061Z</time>
      </trkpt>
      <trkpt lat="43.35315" lon="3.58164">
        <ele>-1.094413</ele>
        <time>2022-08-31T03:59:30.459Z</time>
      </trkpt>
      <trkpt lat="43.35354" lon="3.58217">
        <ele>-1.12209</ele>
        <time>2022-08-31T03:59:53.918Z</time>
      </trkpt>
      <trkpt lat="43.35393" lon="3.58269">
        <ele>-1.167526</ele>
        <time>2022-08-31T04:00:17.377Z</time>
      </trkpt>
      <trkpt lat="43.35459" lon="3.5834">
        <ele>-1.236098</ele>
        <time>2022-08-31T04:00:52.791Z</time>
      </trkpt>
      <trkpt lat="43.35524" lon="3.5841">
        <ele>-1.070017</ele>
        <time>2022-08-31T04:01:28.206Z</time>
      </trkpt>
      <trkpt lat="43.35589" lon="3.5848">
        <ele>-0.875726</ele>
        <time>2022-08-31T04:02:03.620Z</time>
      </trkpt>
      <trkpt lat="43.35654" lon="3.5855">
        <ele>-0.708294</ele>
        <time>2022-08-31T04:02:39.035Z</time>
      </trkpt>
      <trkpt lat="43.35703" lon="3.58607">
        <ele>-0.587015</ele>
        <time>2022-08-31T04:03:06.408Z</time>
      </trkpt>
      <trkpt lat="43.35756" lon="3.58682">
        <ele>-0.529786</ele>
        <time>2022-08-31T04:03:39.005Z</time>
      </trkpt>
      <trkpt lat="43.35809" lon="3.58758">
        <ele>-0.717242</ele>
        <time>2022-08-31T04:04:11.602Z</time>
      </trkpt>
      <trkpt lat="43.35866" lon="3.5885">
        <ele>-0.937968</ele>
        <time>2022-08-31T04:04:49.321Z</time>
      </trkpt>
      <trkpt lat="43.35901" lon="3.58942">
        <ele>-1.185651</ele>
        <time>2022-08-31T04:05:21.492Z</time>
      </trkpt>
      <trkpt lat="43.35936" lon="3.59033">
        <ele>-1.43312</ele>
        <time>2022-08-31T04:05:53.663Z</time>
      </trkpt>
      <trkpt lat="43.35969" lon="3.59105">
        <ele>-1.400842</ele>
        <time>2022-08-31T04:06:20.043Z</time>
      </trkpt>
      <trkpt lat="43.36002" lon="3.59177">
        <ele>-1.209637</ele>
        <time>2022-08-31T04:06:46.421Z</time>
      </trkpt>
      <trkpt lat="43.36034" lon="3.59249">
        <ele>-1.018624</ele>
        <time>2022-08-31T04:07:12.801Z</time>
      </trkpt>
      <trkpt lat="43.3609" lon="3.59343">
        <ele>-0.880331</ele>
        <time>2022-08-31T04:07:50.597Z</time>
      </trkpt>
      <trkpt lat="43.36146" lon="3.59437">
        <ele>-0.78089</ele>
        <time>2022-08-31T04:08:28.393Z</time>
      </trkpt>
      <trkpt lat="43.36188" lon="3.59517">
        <ele>-0.79118</ele>
        <time>2022-08-31T04:08:58.977Z</time>
      </trkpt>
      <trkpt lat="43.36206" lon="3.59562">
        <ele>-0.818973</ele>
        <time>2022-08-31T04:09:15.099Z</time>
      </trkpt>
      <trkpt lat="43.36262" lon="3.59653">
        <ele>-0.882811</ele>
        <time>2022-08-31T04:09:52.114Z</time>
      </trkpt>
      <trkpt lat="43.36318" lon="3.59744">
        <ele>-0.685271</ele>
        <time>2022-08-31T04:10:29.132Z</time>
      </trkpt>
      <trkpt lat="43.36345" lon="3.59787">
        <ele>-0.58009</ele>
        <time>2022-08-31T04:10:46.821Z</time>
      </trkpt>
      <trkpt lat="43.36376" lon="3.59808">
        <ele>-0.491697</ele>
        <time>2022-08-31T04:11:01.688Z</time>
      </trkpt>
      <trkpt lat="43.36375" lon="3.5981">
        <ele>-0.487006</ele>
        <time>2022-08-31T04:11:02.466Z</time>
      </trkpt>
      <trkpt lat="43.36395" lon="3.59838">
        <ele>-0.419889</ele>
        <time>2022-08-31T04:11:12.101Z</time>
      </trkpt>
      <trkpt lat="43.36418" lon="3.59881">
        <ele>-0.357971</ele>
        <time>2022-08-31T04:11:24.938Z</time>
      </trkpt>
      <trkpt lat="43.36456" lon="3.59986">
        <ele>-0.22246</ele>
        <time>2022-08-31T04:11:52.665Z</time>
      </trkpt>
      <trkpt lat="43.36468" lon="3.60009">
        <ele>-0.189148</ele>
        <time>2022-08-31T04:11:59.255Z</time>
      </trkpt>
      <trkpt lat="43.36485" lon="3.60034">
        <ele>-0.149078</ele>
        <time>2022-08-31T04:12:07.135Z</time>
      </trkpt>
      <trkpt lat="43.36552" lon="3.60089">
        <ele>-0.231291</ele>
        <time>2022-08-31T04:12:31.474Z</time>
      </trkpt>
      <trkpt lat="43.36587" lon="3.60138">
        <ele>-0.292165</ele>
        <time>2022-08-31T04:12:47.301Z</time>
      </trkpt>
      <trkpt lat="43.36619" lon="3.60197">
        <ele>-0.355903</ele>
        <time>2022-08-31T04:13:03.933Z</time>
      </trkpt>
      <trkpt lat="43.36649" lon="3.60284">
        <ele>-0.357531</ele>
        <time>2022-08-31T04:13:26.244Z</time>
      </trkpt>
      <trkpt lat="43.36825" lon="3.60524">
        <ele>-0.315298</ele>
        <time>2022-08-31T04:14:45.374Z</time>
      </trkpt>
      <trkpt lat="43.36869" lon="3.60562">
        <ele>-0.297847</ele>
        <time>2022-08-31T04:15:02.012Z</time>
      </trkpt>
      <trkpt lat="43.36924" lon="3.60642">
        <ele>-0.251579</ele>
        <time>2022-08-31T04:15:27.597Z</time>
      </trkpt>
      <trkpt lat="43.36961" lon="3.6071">
        <ele>-0.21581</ele>
        <time>2022-08-31T04:15:47.456Z</time>
      </trkpt>
      <trkpt lat="43.36967" lon="3.60762">
        <ele>-0.185584</ele>
        <time>2022-08-31T04:15:59.693Z</time>
      </trkpt>
      <trkpt lat="43.36974" lon="3.6078">
        <ele>-0.16029</ele>
        <time>2022-08-31T04:16:04.517Z</time>
      </trkpt>
      <trkpt lat="43.37023" lon="3.60851">
        <ele>-0.038829</ele>
        <time>2022-08-31T04:16:27.806Z</time>
      </trkpt>
      <trkpt lat="43.37041" lon="3.60865">
        <ele>-0.003469</ele>
        <time>2022-08-31T04:16:34.584Z</time>
      </trkpt>
      <trkpt lat="43.37054" lon="3.60888">
        <ele>0.031817</ele>
        <time>2022-08-31T04:16:41.333Z</time>
      </trkpt>
      <trkpt lat="43.37071" lon="3.60946">
        <ele>0.105605</ele>
        <time>2022-08-31T04:16:55.862Z</time>
      </trkpt>
      <trkpt lat="43.37262" lon="3.61217">
        <ele>0.013568</ele>
        <time>2022-08-31T04:18:23.235Z</time>
      </trkpt>
      <trkpt lat="43.37275" lon="3.61228">
        <ele>0.030176</ele>
        <time>2022-08-31T04:18:28.089Z</time>
      </trkpt>
      <trkpt lat="43.3732" lon="3.61235">
        <ele>0.078746</ele>
        <time>2022-08-31T04:18:42.282Z</time>
      </trkpt>
      <trkpt lat="43.37335" lon="3.6125">
        <ele>0.099475</ele>
        <time>2022-08-31T04:18:48.319Z</time>
      </trkpt>
      <trkpt lat="43.37622" lon="3.61694">
        <ele>-0.184625</ele>
        <time>2022-08-31T04:21:04.737Z</time>
      </trkpt>
      <trkpt lat="43.37915" lon="3.61427">
        <ele>-0.423368</ele>
        <time>2022-08-31T04:25:09.058Z</time>
      </trkpt>
      <trkpt lat="43.37925" lon="3.61427">
        <ele>-0.433544</ele>
        <time>2022-08-31T04:25:16.308Z</time>
      </trkpt>
      <trkpt lat="43.37929" lon="3.61427">
        <ele>-0.437458</ele>
        <time>2022-08-31T04:25:19.114Z</time>
      </trkpt>
      <trkpt lat="43.38219" lon="3.62056">
        <ele>-0.836958</ele>
        <time>2022-08-31T04:31:35.258Z</time>
      </trkpt>
      <trkpt lat="43.38218" lon="3.62063">
        <ele>-0.831375</ele>
        <time>2022-08-31T04:31:38.898Z</time>
      </trkpt>
      <trkpt lat="43.38217" lon="3.62069">
        <ele>-0.826568</ele>
        <time>2022-08-31T04:31:42.071Z</time>
      </trkpt>
      <trkpt lat="43.38075" lon="3.62205">
        <ele>-0.573712</ele>
        <time>2022-08-31T04:33:42.683Z</time>
      </trkpt>
      <trkpt lat="43.38008" lon="3.62282">
        <ele>-0.403855</ele>
        <time>2022-08-31T04:34:43.388Z</time>
      </trkpt>
      <trkpt lat="43.38015" lon="3.62297">
        <ele>-0.3787</ele>
        <time>2022-08-31T04:34:47.492Z</time>
      </trkpt>
      <trkpt lat="43.38023" lon="3.62297">
        <ele>-0.395243</ele>
        <time>2022-08-31T04:34:50.196Z</time>
      </trkpt>
      <trkpt lat="43.38069" lon="3.62259">
        <ele>-0.53102</ele>
        <time>2022-08-31T04:35:06.923Z</time>
      </trkpt>
      <trkpt lat="43.38225" lon="3.62109">
        <ele>-1.033189</ele>
        <time>2022-08-31T04:36:05.568Z</time>
      </trkpt>
      <trkpt lat="43.38233" lon="3.62106">
        <ele>-1.05585</ele>
        <time>2022-08-31T04:36:08.135Z</time>
      </trkpt>
      <trkpt lat="43.38236" lon="3.62133">
        <ele>-1.11148</ele>
        <time>2022-08-31T04:36:14.333Z</time>
      </trkpt>
      <trkpt lat="43.38293" lon="3.62265">
        <ele>-1.356609</ele>
        <time>2022-08-31T04:36:49.109Z</time>
      </trkpt>
      <trkpt lat="43.38818" lon="3.63173">
        <ele>-1.977582</ele>
        <time>2022-08-31T04:41:15.306Z</time>
      </trkpt>
      <trkpt lat="43.38947" lon="3.63449">
        <ele>-1.962057</ele>
        <time>2022-08-31T04:42:31.035Z</time>
      </trkpt>
      <trkpt lat="43.38995" lon="3.63617">
        <ele>-1.840927</ele>
        <time>2022-08-31T04:43:13.334Z</time>
      </trkpt>
      <trkpt lat="43.39" lon="3.63672">
        <ele>-1.753981</ele>
        <time>2022-08-31T04:43:26.512Z</time>
      </trkpt>
      <trkpt lat="43.38979" lon="3.63924">
        <ele>-1.283405</ele>
        <time>2022-08-31T04:44:27.882Z</time>
      </trkpt>
      <trkpt lat="43.3897" lon="3.63985">
        <ele>-1.244136</ele>
        <time>2022-08-31T04:44:42.808Z</time>
      </trkpt>
      <trkpt lat="43.3897" lon="3.64046">
        <ele>-1.206012</ele>
        <time>2022-08-31T04:44:56.982Z</time>
      </trkpt>
      <trkpt lat="43.39015" lon="3.64122">
        <ele>-1.182724</ele>
        <time>2022-08-31T04:45:19.545Z</time>
      </trkpt>
      <trkpt lat="43.39169" lon="3.64346">
        <ele>-1.692845</ele>
        <time>2022-08-31T04:46:29.027Z</time>
      </trkpt>
      <trkpt lat="43.39343" lon="3.64493">
        <ele>-1.829678</ele>
        <time>2022-08-31T04:47:33.383Z</time>
      </trkpt>
      <trkpt lat="43.39749" lon="3.64822">
        <ele>-1.566198</ele>
        <time>2022-08-31T04:50:04.785Z</time>
      </trkpt>
      <trkpt lat="43.39781" lon="3.64861">
        <ele>-1.503537</ele>
        <time>2022-08-31T04:50:18.464Z</time>
      </trkpt>
      <trkpt lat="43.39833" lon="3.64989">
        <ele>-1.345189</ele>
        <time>2022-08-31T04:50:53.393Z</time>
      </trkpt>
      <trkpt lat="43.39852" lon="3.65023">
        <ele>-1.285569</ele>
        <time>2022-08-31T04:51:03.740Z</time>
      </trkpt>
      <trkpt lat="43.3998" lon="3.65344">
        <ele>-0.685436</ele>
        <time>2022-08-31T04:52:31.658Z</time>
      </trkpt>
      <trkpt lat="43.39928" lon="3.65422">
        <ele>-0.549881</ele>
        <time>2022-08-31T04:52:56.423Z</time>
      </trkpt>
      <trkpt lat="43.39922" lon="3.65436">
        <ele>-0.544129</ele>
        <time>2022-08-31T04:52:59.989Z</time>
      </trkpt>
      <trkpt lat="43.39925" lon="3.65446">
        <ele>-0.548504</ele>
        <time>2022-08-31T04:53:02.558Z</time>
      </trkpt>
      <trkpt lat="43.40089" lon="3.65648">
        <ele>-0.499868</ele>
        <time>2022-08-31T04:53:46.410Z</time>
      </trkpt>
      <trkpt lat="43.40157" lon="3.65731">
        <ele>-0.266386</ele>
        <time>2022-08-31T04:54:05.885Z</time>
      </trkpt>
      <trkpt lat="43.40173" lon="3.6576">
        <ele>-0.196936</ele>
        <time>2022-08-31T04:54:12.183Z</time>
      </trkpt>
      <trkpt lat="43.40182" lon="3.65775">
        <ele>-0.109392</ele>
        <time>2022-08-31T04:54:15.505Z</time>
      </trkpt>
      <trkpt lat="43.40221" lon="3.65785">
        <ele>0.343371</ele>
        <time>2022-08-31T04:54:25.081Z</time>
      </trkpt>
      <trkpt lat="43.40238" lon="3.65797">
        <ele>0.561361</ele>
        <time>2022-08-31T04:54:29.969Z</time>
      </trkpt>
      <trkpt lat="43.40282" lon="3.65807">
        <ele>1.079496</ele>
        <time>2022-08-31T04:54:41.382Z</time>
      </trkpt>
      <trkpt lat="43.4029" lon="3.658">
        <ele>1.191524</ele>
        <time>2022-08-31T04:54:43.767Z</time>
      </trkpt>
      <trkpt lat="43.40295" lon="3.65803">
        <ele>1.256463</ele>
        <time>2022-08-31T04:54:45.275Z</time>
      </trkpt>
      <trkpt lat="43.4035" lon="3.65839">
        <ele>1.995607</ele>
        <time>2022-08-31T04:55:01.569Z</time>
      </trkpt>
      <trkpt lat="43.40367" lon="3.6585">
        <ele>2.362293</ele>
        <time>2022-08-31T04:55:07.466Z</time>
      </trkpt>
      <trkpt lat="43.40397" lon="3.65868">
        <ele>2.982855</ele>
        <time>2022-08-31T04:55:17.318Z</time>
      </trkpt>
      <trkpt lat="43.40429" lon="3.65884">
        <ele>3.656141</ele>
        <time>2022-08-31T04:55:28.040Z</time>
      </trkpt>
      <trkpt lat="43.40449" lon="3.65896">
        <ele>4.073097</ele>
        <time>2022-08-31T04:55:34.693Z</time>
      </trkpt>
      <trkpt lat="43.40441" lon="3.65931">
        <ele>4.592769</ele>
        <time>2022-08-31T04:55:42.987Z</time>
      </trkpt>
      <trkpt lat="43.40424" lon="3.65986">
        <ele>5.401267</ele>
        <time>2022-08-31T04:55:56.201Z</time>
      </trkpt>
      <trkpt lat="43.4046" lon="3.66011">
        <ele>5.617406</ele>
        <time>2022-08-31T04:56:08.000Z</time>
      </trkpt>
      <trkpt lat="43.40494" lon="3.66035">
        <ele>5.826009</ele>
        <time>2022-08-31T04:56:19.293Z</time>
      </trkpt>
      <trkpt lat="43.40498" lon="3.66038">
        <ele>5.850016</ele>
        <time>2022-08-31T04:56:20.615Z</time>
      </trkpt>
      <trkpt lat="43.40874" lon="3.66301">
        <ele>7.0265</ele>
        <time>2022-08-31T04:57:48.444Z</time>
      </trkpt>
      <trkpt lat="43.4098" lon="3.66393">
        <ele>5.764149</ele>
        <time>2022-08-31T04:58:10.257Z</time>
      </trkpt>
      <trkpt lat="43.40992" lon="3.66374">
        <ele>5.52712</ele>
        <time>2022-08-31T04:58:13.364Z</time>
      </trkpt>
      <trkpt lat="43.41063" lon="3.66449">
        <ele>4.446293</ele>
        <time>2022-08-31T04:58:28.780Z</time>
      </trkpt>
      <trkpt lat="43.41066" lon="3.66452">
        <ele>4.417723</ele>
        <time>2022-08-31T04:58:29.303Z</time>
      </trkpt>
      <trkpt lat="43.41124" lon="3.66507">
        <ele>3.753297</ele>
        <time>2022-08-31T04:58:41.958Z</time>
      </trkpt>
      <trkpt lat="43.41141" lon="3.665">
        <ele>3.590155</ele>
        <time>2022-08-31T04:58:54.028Z</time>
      </trkpt>
      <trkpt lat="43.41175" lon="3.66539">
        <ele>3.174114</ele>
        <time>2022-08-31T04:59:24.857Z</time>
      </trkpt>
      <trkpt lat="43.41173" lon="3.66549">
        <ele>3.105719</ele>
        <time>2022-08-31T04:59:29.903Z</time>
      </trkpt>
      <trkpt lat="43.41194" lon="3.66571">
        <ele>2.919608</ele>
        <time>2022-08-31T04:59:47.811Z</time>
      </trkpt>
      <trkpt lat="43.41253" lon="3.66601">
        <ele>2.643472</ele>
        <time>2022-08-31T05:00:31.747Z</time>
      </trkpt>
      <trkpt lat="43.41253" lon="3.66601">
        <ele>2.641853</ele>
        <time>2022-08-31T05:00:32.013Z</time>
      </trkpt>
      <trkpt lat="43.41284" lon="3.66624">
        <ele>2.488888</ele>
        <time>2022-08-31T05:00:56.374Z</time>
      </trkpt>
      <trkpt lat="43.41383" lon="3.66722">
        <ele>2.15232</ele>
        <time>2022-08-31T05:02:20.925Z</time>
      </trkpt>
      <trkpt lat="43.41395" lon="3.66738">
        <ele>2.142335</ele>
        <time>2022-08-31T05:02:32.856Z</time>
      </trkpt>
      <trkpt lat="43.41478" lon="3.6675">
        <ele>2.093937</ele>
        <time>2022-08-31T05:03:08.342Z</time>
      </trkpt>
      <trkpt lat="43.4156" lon="3.66762">
        <ele>2.078885</ele>
        <time>2022-08-31T05:03:43.829Z</time>
      </trkpt>
      <trkpt lat="43.41604" lon="3.66772">
        <ele>2.080034</ele>
        <time>2022-08-31T05:04:14.500Z</time>
      </trkpt>
      <trkpt lat="43.41622" lon="3.66806">
        <ele>2.080831</ele>
        <time>2022-08-31T05:04:20.497Z</time>
      </trkpt>
      <trkpt lat="43.41634" lon="3.66822">
        <ele>2.081272</ele>
        <time>2022-08-31T05:04:23.900Z</time>
      </trkpt>
      <trkpt lat="43.41684" lon="3.66853">
        <ele>2.040229</ele>
        <time>2022-08-31T05:04:34.216Z</time>
      </trkpt>
      <trkpt lat="43.41706" lon="3.66869">
        <ele>1.991051</ele>
        <time>2022-08-31T05:04:38.869Z</time>
      </trkpt>
      <trkpt lat="43.41721" lon="3.66879">
        <ele>1.958938</ele>
        <time>2022-08-31T05:04:42.903Z</time>
      </trkpt>
      <trkpt lat="43.41722" lon="3.66876">
        <ele>1.953512</ele>
        <time>2022-08-31T05:04:43.574Z</time>
      </trkpt>
      <trkpt lat="43.41745" lon="3.66823">
        <ele>1.866033</ele>
        <time>2022-08-31T05:04:54.449Z</time>
      </trkpt>
      <trkpt lat="43.41768" lon="3.66807">
        <ele>1.815837</ele>
        <time>2022-08-31T05:05:00.458Z</time>
      </trkpt>
      <trkpt lat="43.41774" lon="3.66799">
        <ele>1.798555</ele>
        <time>2022-08-31T05:05:02.117Z</time>
      </trkpt>
      <trkpt lat="43.41776" lon="3.66802">
        <ele>1.792904</ele>
        <time>2022-08-31T05:05:03.347Z</time>
      </trkpt>
      <trkpt lat="43.41826" lon="3.66732">
        <ele>1.871999</ele>
        <time>2022-08-31T05:05:33.569Z</time>
      </trkpt>
      <trkpt lat="43.41876" lon="3.66804">
        <ele>2.137488</ele>
        <time>2022-08-31T05:06:04.726Z</time>
      </trkpt>
      <trkpt lat="43.41927" lon="3.66876">
        <ele>2.388682</ele>
        <time>2022-08-31T05:06:35.880Z</time>
      </trkpt>
      <trkpt lat="43.41924" lon="3.66879">
        <ele>2.390234</ele>
        <time>2022-08-31T05:06:37.367Z</time>
      </trkpt>
      <trkpt lat="43.41927" lon="3.66891">
        <ele>2.39439</ele>
        <time>2022-08-31T05:06:43.837Z</time>
      </trkpt>
      <trkpt lat="43.41937" lon="3.66907">
        <ele>2.401208</ele>
        <time>2022-08-31T05:06:47.193Z</time>
      </trkpt>
      <trkpt lat="43.41937" lon="3.66923">
        <ele>2.406343</ele>
        <time>2022-08-31T05:06:49.681Z</time>
      </trkpt>
      <trkpt lat="43.41961" lon="3.67001">
        <ele>2.433786</ele>
        <time>2022-08-31T05:07:10.137Z</time>
      </trkpt>
      <trkpt lat="43.41997" lon="3.67066">
        <ele>2.460424</ele>
        <time>2022-08-31T05:07:28.745Z</time>
      </trkpt>
      <trkpt lat="43.42116" lon="3.67196">
        <ele>1.740583</ele>
        <time>2022-08-31T05:08:14.342Z</time>
      </trkpt>
      <trkpt lat="43.42277" lon="3.67353">
        <ele>0.879108</ele>
        <time>2022-08-31T05:09:14.614Z</time>
      </trkpt>
      <trkpt lat="43.42328" lon="3.67395">
        <ele>0.686094</ele>
        <time>2022-08-31T05:09:33.038Z</time>
      </trkpt>
      <trkpt lat="43.42361" lon="3.67408">
        <ele>0.595958</ele>
        <time>2022-08-31T05:09:43.758Z</time>
      </trkpt>
      <trkpt lat="43.42367" lon="3.67423">
        <ele>0.563472</ele>
        <time>2022-08-31T05:09:47.555Z</time>
      </trkpt>
      <trkpt lat="43.42371" lon="3.67455">
        <ele>0.501241</ele>
        <time>2022-08-31T05:09:54.987Z</time>
      </trkpt>
      <trkpt lat="43.42313" lon="3.67435">
        <ele>0.343949</ele>
        <time>2022-08-31T05:10:06.594Z</time>
      </trkpt>
      <trkpt lat="43.42269" lon="3.67432">
        <ele>0.312463</ele>
        <time>2022-08-31T05:10:15.242Z</time>
      </trkpt>
      <trkpt lat="43.42195" lon="3.67413">
        <ele>0.339315</ele>
        <time>2022-08-31T05:10:30.500Z</time>
      </trkpt>
      <trkpt lat="43.42147" lon="3.674">
        <ele>0.356743</ele>
        <time>2022-08-31T05:10:40.341Z</time>
      </trkpt>
      <trkpt lat="43.42142" lon="3.67415">
        <ele>0.361133</ele>
        <time>2022-08-31T05:10:42.800Z</time>
      </trkpt>
      <trkpt lat="43.42131" lon="3.67431">
        <ele>0.364527</ele>
        <time>2022-08-31T05:10:45.890Z</time>
      </trkpt>
      <trkpt lat="43.42116" lon="3.67452">
        <ele>0.328243</ele>
        <time>2022-08-31T05:10:50.086Z</time>
      </trkpt>
      <trkpt lat="43.42134" lon="3.67476">
        <ele>0.285482</ele>
        <time>2022-08-31T05:10:55.025Z</time>
      </trkpt>
      <trkpt lat="43.4209" lon="3.67541">
        <ele>0.176655</ele>
        <time>2022-08-31T05:11:15.306Z</time>
      </trkpt>
      <trkpt lat="43.42058" lon="3.67584">
        <ele>0.101405</ele>
        <time>2022-08-31T05:11:29.074Z</time>
      </trkpt>
      <trkpt lat="43.42044" lon="3.67562">
        <ele>0.064964</ele>
        <time>2022-08-31T05:11:36.115Z</time>
      </trkpt>
      <trkpt lat="43.42027" lon="3.67536">
        <ele>0.036711</ele>
        <time>2022-08-31T05:11:44.078Z</time>
      </trkpt>
      <trkpt lat="43.41977" lon="3.67467">
        <ele>-0.039932</ele>
        <time>2022-08-31T05:12:06.622Z</time>
      </trkpt>
      <trkpt lat="43.41956" lon="3.67441">
        <ele>-0.069748</ele>
        <time>2022-08-31T05:12:15.181Z</time>
      </trkpt>
      <trkpt lat="43.41937" lon="3.67421">
        <ele>-0.095685</ele>
        <time>2022-08-31T05:12:23.150Z</time>
      </trkpt>
      <trkpt lat="43.41904" lon="3.67394">
        <ele>-0.105661</ele>
        <time>2022-08-31T05:12:35.436Z</time>
      </trkpt>
      <trkpt lat="43.41874" lon="3.67373">
        <ele>0.054794</ele>
        <time>2022-08-31T05:12:46.443Z</time>
      </trkpt>
      <trkpt lat="43.41829" lon="3.67354">
        <ele>0.279271</ele>
        <time>2022-08-31T05:13:02.339Z</time>
      </trkpt>
      <trkpt lat="43.41797" lon="3.67348">
        <ele>0.432602</ele>
        <time>2022-08-31T05:13:13.788Z</time>
      </trkpt>
      <trkpt lat="43.41653" lon="3.67374">
        <ele>1.517853</ele>
        <time>2022-08-31T05:14:04.571Z</time>
      </trkpt>
      <trkpt lat="43.41602" lon="3.67409">
        <ele>2.056379</ele>
        <time>2022-08-31T05:14:26.240Z</time>
      </trkpt>
      <trkpt lat="43.41527" lon="3.67497">
        <ele>3.008243</ele>
        <time>2022-08-31T05:15:03.161Z</time>
      </trkpt>
      <trkpt lat="43.41497" lon="3.6755">
        <ele>3.488258</ele>
        <time>2022-08-31T05:15:21.285Z</time>
      </trkpt>
      <trkpt lat="43.41487" lon="3.6759">
        <ele>3.790428</ele>
        <time>2022-08-31T05:15:32.418Z</time>
      </trkpt>
      <trkpt lat="43.41462" lon="3.67648">
        <ele>4.218122</ele>
        <time>2022-08-31T05:15:49.729Z</time>
      </trkpt>
      <trkpt lat="43.41458" lon="3.67728">
        <ele>4.414362</ele>
        <time>2022-08-31T05:16:10.280Z</time>
      </trkpt>
      <trkpt lat="43.41434" lon="3.67961">
        <ele>4.41901</ele>
        <time>2022-08-31T05:17:05.732Z</time>
      </trkpt>
      <trkpt lat="43.41383" lon="3.682">
        <ele>2.953747</ele>
        <time>2022-08-31T05:17:58.596Z</time>
      </trkpt>
      <trkpt lat="43.41389" lon="3.68257">
        <ele>2.492793</ele>
        <time>2022-08-31T05:18:10.337Z</time>
      </trkpt>
      <trkpt lat="43.41407" lon="3.68346">
        <ele>1.749841</ele>
        <time>2022-08-31T05:18:29.711Z</time>
      </trkpt>
      <trkpt lat="43.41407" lon="3.68388">
        <ele>1.575962</ele>
        <time>2022-08-31T05:18:38.864Z</time>
      </trkpt>
      <trkpt lat="43.414" lon="3.68423">
        <ele>1.531053</ele>
        <time>2022-08-31T05:18:46.826Z</time>
      </trkpt>
      <trkpt lat="43.41376" lon="3.68467">
        <ele>1.464347</ele>
        <time>2022-08-31T05:18:58.992Z</time>
      </trkpt>
      <trkpt lat="43.41296" lon="3.68542">
        <ele>1.308779</ele>
        <time>2022-08-31T05:19:30.941Z</time>
      </trkpt>
      <trkpt lat="43.41293" lon="3.68611">
        <ele>1.502945</ele>
        <time>2022-08-31T05:19:42.504Z</time>
      </trkpt>
      <trkpt lat="43.41278" lon="3.68642">
        <ele>1.609234</ele>
        <time>2022-08-31T05:19:49.502Z</time>
      </trkpt>
      <trkpt lat="43.41281" lon="3.68659">
        <ele>1.658474</ele>
        <time>2022-08-31T05:19:52.494Z</time>
      </trkpt>
      <trkpt lat="43.4137" lon="3.68858">
        <ele>1.947741</ele>
        <time>2022-08-31T05:20:27.882Z</time>
      </trkpt>
      <trkpt lat="43.41377" lon="3.68876">
        <ele>1.937899</ele>
        <time>2022-08-31T05:20:30.875Z</time>
      </trkpt>
      <trkpt lat="43.41382" lon="3.6889">
        <ele>1.929814</ele>
        <time>2022-08-31T05:20:33.058Z</time>
      </trkpt>
      <trkpt lat="43.41387" lon="3.68914">
        <ele>1.917024</ele>
        <time>2022-08-31T05:20:36.821Z</time>
      </trkpt>
      <trkpt lat="43.41383" lon="3.68932">
        <ele>1.907614</ele>
        <time>2022-08-31T05:20:39.380Z</time>
      </trkpt>
      <trkpt lat="43.41358" lon="3.68968">
        <ele>1.882476</ele>
        <time>2022-08-31T05:20:46.410Z</time>
      </trkpt>
      <trkpt lat="43.4134" lon="3.68993">
        <ele>1.894984</ele>
        <time>2022-08-31T05:20:51.397Z</time>
      </trkpt>
      <trkpt lat="43.41319" lon="3.69021">
        <ele>1.915602</ele>
        <time>2022-08-31T05:20:56.864Z</time>
      </trkpt>
      <trkpt lat="43.41275" lon="3.69094">
        <ele>1.964839</ele>
        <time>2022-08-31T05:21:10.538Z</time>
      </trkpt>
      <trkpt lat="43.41251" lon="3.69049">
        <ele>1.993598</ele>
        <time>2022-08-31T05:21:20.013Z</time>
      </trkpt>
      <trkpt lat="43.41231" lon="3.69003">
        <ele>2.155109</ele>
        <time>2022-08-31T05:21:29.130Z</time>
      </trkpt>
      <trkpt lat="43.4123" lon="3.68993">
        <ele>2.211289</ele>
        <time>2022-08-31T05:21:30.704Z</time>
      </trkpt>
      <trkpt lat="43.41201" lon="3.6899">
        <ele>2.442749</ele>
        <time>2022-08-31T05:21:37.359Z</time>
      </trkpt>
      <trkpt lat="43.41196" lon="3.6899">
        <ele>2.481584</ele>
        <time>2022-08-31T05:21:38.510Z</time>
      </trkpt>
      <trkpt lat="43.41182" lon="3.6899">
        <ele>2.588546</ele>
        <time>2022-08-31T05:21:41.629Z</time>
      </trkpt>
      <trkpt lat="43.41171" lon="3.6899">
        <ele>2.679715</ele>
        <time>2022-08-31T05:21:44.999Z</time>
      </trkpt>
      <trkpt lat="43.41165" lon="3.68988">
        <ele>2.726611</ele>
        <time>2022-08-31T05:21:46.602Z</time>
      </trkpt>
      <trkpt lat="43.41156" lon="3.69107">
        <ele>3.412933</ele>
        <time>2022-08-31T05:22:07.579Z</time>
      </trkpt>
      <trkpt lat="43.41149" lon="3.69176">
        <ele>3.433286</ele>
        <time>2022-08-31T05:22:19.209Z</time>
      </trkpt>
      <trkpt lat="43.41141" lon="3.69193">
        <ele>3.433286</ele>
        <time>2022-08-31T05:22:22.619Z</time>
      </trkpt>
      <trkpt lat="43.41135" lon="3.69201">
        <ele>3.433286</ele>
        <time>2022-08-31T05:22:24.410Z</time>
      </trkpt>
      <trkpt lat="43.41136" lon="3.69213">
        <ele>3.433286</ele>
        <time>2022-08-31T05:22:26.267Z</time>
      </trkpt>
      <trkpt lat="43.41144" lon="3.69218">
        <ele>3.433286</ele>
        <time>2022-08-31T05:22:28.092Z</time>
      </trkpt>
      <trkpt lat="43.41146" lon="3.69218">
        <ele>3.433286</ele>
        <time>2022-08-31T05:22:28.536Z</time>
      </trkpt>
      <trkpt lat="43.41148" lon="3.69217">
        <ele>3.433286</ele>
        <time>2022-08-31T05:22:28.979Z</time>
      </trkpt>
      <trkpt lat="43.4116" lon="3.69235">
        <ele>3.433286</ele>
        <time>2022-08-31T05:22:33.038Z</time>
      </trkpt>
    </trkseg>
  </trk>
</gpx>